<?xml version="1.0" encoding="UTF-8" standalone="no" ?>
<gpx xmlns="http://www.topografix.com/GPX/1/1" xmlns:xsi="http://www.w3.org/2001/XMLSchema-instance" xsi:schemaLocation="http://www.topografix.com/GPX/1/1 http://www.topografix.com/GPX/1/1/gpx.xsd" version="1.1" creator="VisuGPX - https://www.visugpx.com">
  <metadata>
    <name>Les gorges de l\'Aveyron</name>
    <desc><![CDATA[Circuit de 58 km entre les gorges de l\'Aveyron, la vallée de la Vère et la forêt de Grésigne]]></desc>
  </metadata>
  <trk>
    <name><![CDATA[Les gorges de l\'Aveyron_1]]></name>
    <trkseg>
      <trkpt lat="44.05331" lon="1.74622">
        <ele>458</ele>
        <time>2013-03-02T14:16:29Z</time>
      </trkpt>
      <trkpt lat="44.05361" lon="1.7461">
        <ele>457</ele>
        <time>2013-03-02T14:16:40Z</time>
      </trkpt>
      <trkpt lat="44.05369" lon="1.74599">
        <ele>456</ele>
        <time>2013-03-02T14:16:42Z</time>
      </trkpt>
      <trkpt lat="44.05377" lon="1.74586">
        <ele>455</ele>
        <time>2013-03-02T14:16:44Z</time>
      </trkpt>
      <trkpt lat="44.05389" lon="1.74571">
        <ele>454</ele>
        <time>2013-03-02T14:16:46Z</time>
      </trkpt>
      <trkpt lat="44.05402" lon="1.74556">
        <ele>452</ele>
        <time>2013-03-02T14:16:48Z</time>
      </trkpt>
      <trkpt lat="44.05415" lon="1.74546">
        <ele>450</ele>
        <time>2013-03-02T14:16:50Z</time>
      </trkpt>
      <trkpt lat="44.05428" lon="1.74546">
        <ele>448</ele>
        <time>2013-03-02T14:16:52Z</time>
      </trkpt>
      <trkpt lat="44.0544" lon="1.74542">
        <ele>446</ele>
        <time>2013-03-02T14:16:54Z</time>
      </trkpt>
      <trkpt lat="44.05449" lon="1.7453">
        <ele>445</ele>
        <time>2013-03-02T14:16:56Z</time>
      </trkpt>
      <trkpt lat="44.05457" lon="1.74513">
        <ele>443</ele>
        <time>2013-03-02T14:16:58Z</time>
      </trkpt>
      <trkpt lat="44.05463" lon="1.74493">
        <ele>442</ele>
        <time>2013-03-02T14:17:00Z</time>
      </trkpt>
      <trkpt lat="44.05468" lon="1.74471">
        <ele>440</ele>
        <time>2013-03-02T14:17:02Z</time>
      </trkpt>
      <trkpt lat="44.05472" lon="1.74448">
        <ele>439</ele>
        <time>2013-03-02T14:17:04Z</time>
      </trkpt>
      <trkpt lat="44.05474" lon="1.74424">
        <ele>437</ele>
        <time>2013-03-02T14:17:06Z</time>
      </trkpt>
      <trkpt lat="44.05476" lon="1.74401">
        <ele>435</ele>
        <time>2013-03-02T14:17:08Z</time>
      </trkpt>
      <trkpt lat="44.05475" lon="1.74381">
        <ele>434</ele>
        <time>2013-03-02T14:17:10Z</time>
      </trkpt>
      <trkpt lat="44.05476" lon="1.74366">
        <ele>432</ele>
        <time>2013-03-02T14:17:12Z</time>
      </trkpt>
      <trkpt lat="44.05481" lon="1.74353">
        <ele>431</ele>
        <time>2013-03-02T14:17:14Z</time>
      </trkpt>
      <trkpt lat="44.05489" lon="1.74345">
        <ele>431</ele>
        <time>2013-03-02T14:17:16Z</time>
      </trkpt>
      <trkpt lat="44.05498" lon="1.74336">
        <ele>431</ele>
        <time>2013-03-02T14:17:18Z</time>
      </trkpt>
      <trkpt lat="44.05507" lon="1.74328">
        <ele>431</ele>
        <time>2013-03-02T14:17:20Z</time>
      </trkpt>
      <trkpt lat="44.05517" lon="1.7432">
        <ele>431</ele>
        <time>2013-03-02T14:17:22Z</time>
      </trkpt>
      <trkpt lat="44.05526" lon="1.74312">
        <ele>431</ele>
        <time>2013-03-02T14:17:24Z</time>
      </trkpt>
      <trkpt lat="44.05535" lon="1.74305">
        <ele>431</ele>
        <time>2013-03-02T14:17:26Z</time>
      </trkpt>
      <trkpt lat="44.05545" lon="1.74299">
        <ele>431</ele>
        <time>2013-03-02T14:17:28Z</time>
      </trkpt>
      <trkpt lat="44.05555" lon="1.74294">
        <ele>431</ele>
        <time>2013-03-02T14:17:30Z</time>
      </trkpt>
      <trkpt lat="44.05571" lon="1.74288">
        <ele>432</ele>
        <time>2013-03-02T14:17:33Z</time>
      </trkpt>
      <trkpt lat="44.05581" lon="1.74285">
        <ele>433</ele>
        <time>2013-03-02T14:17:35Z</time>
      </trkpt>
      <trkpt lat="44.0559" lon="1.74281">
        <ele>434</ele>
        <time>2013-03-02T14:17:37Z</time>
      </trkpt>
      <trkpt lat="44.05599" lon="1.74277">
        <ele>435</ele>
        <time>2013-03-02T14:17:39Z</time>
      </trkpt>
      <trkpt lat="44.05608" lon="1.74272">
        <ele>436</ele>
        <time>2013-03-02T14:17:41Z</time>
      </trkpt>
      <trkpt lat="44.05616" lon="1.74266">
        <ele>436</ele>
        <time>2013-03-02T14:17:43Z</time>
      </trkpt>
      <trkpt lat="44.05627" lon="1.7426">
        <ele>437</ele>
        <time>2013-03-02T14:17:45Z</time>
      </trkpt>
      <trkpt lat="44.05638" lon="1.74254">
        <ele>437</ele>
        <time>2013-03-02T14:17:47Z</time>
      </trkpt>
      <trkpt lat="44.05651" lon="1.74249">
        <ele>437</ele>
        <time>2013-03-02T14:17:49Z</time>
      </trkpt>
      <trkpt lat="44.05665" lon="1.74244">
        <ele>437</ele>
        <time>2013-03-02T14:17:51Z</time>
      </trkpt>
      <trkpt lat="44.05677" lon="1.74234">
        <ele>437</ele>
        <time>2013-03-02T14:17:53Z</time>
      </trkpt>
      <trkpt lat="44.05687" lon="1.74225">
        <ele>437</ele>
        <time>2013-03-02T14:17:55Z</time>
      </trkpt>
      <trkpt lat="44.057" lon="1.74224">
        <ele>437</ele>
        <time>2013-03-02T14:17:57Z</time>
      </trkpt>
      <trkpt lat="44.05715" lon="1.74229">
        <ele>437</ele>
        <time>2013-03-02T14:17:59Z</time>
      </trkpt>
      <trkpt lat="44.05731" lon="1.74234">
        <ele>436</ele>
        <time>2013-03-02T14:18:01Z</time>
      </trkpt>
      <trkpt lat="44.05748" lon="1.74235">
        <ele>435</ele>
        <time>2013-03-02T14:18:03Z</time>
      </trkpt>
      <trkpt lat="44.05764" lon="1.7423">
        <ele>433</ele>
        <time>2013-03-02T14:18:05Z</time>
      </trkpt>
      <trkpt lat="44.05779" lon="1.74221">
        <ele>433</ele>
        <time>2013-03-02T14:18:07Z</time>
      </trkpt>
      <trkpt lat="44.05791" lon="1.74207">
        <ele>432</ele>
        <time>2013-03-02T14:18:09Z</time>
      </trkpt>
      <trkpt lat="44.05802" lon="1.7419">
        <ele>432</ele>
        <time>2013-03-02T14:18:11Z</time>
      </trkpt>
      <trkpt lat="44.05811" lon="1.74173">
        <ele>432</ele>
        <time>2013-03-02T14:18:13Z</time>
      </trkpt>
      <trkpt lat="44.05819" lon="1.74155">
        <ele>431</ele>
        <time>2013-03-02T14:18:15Z</time>
      </trkpt>
      <trkpt lat="44.05826" lon="1.74135">
        <ele>430</ele>
        <time>2013-03-02T14:18:17Z</time>
      </trkpt>
      <trkpt lat="44.05832" lon="1.74112">
        <ele>429</ele>
        <time>2013-03-02T14:18:19Z</time>
      </trkpt>
      <trkpt lat="44.05839" lon="1.74088">
        <ele>428</ele>
        <time>2013-03-02T14:18:21Z</time>
      </trkpt>
      <trkpt lat="44.05846" lon="1.74063">
        <ele>427</ele>
        <time>2013-03-02T14:18:23Z</time>
      </trkpt>
      <trkpt lat="44.05855" lon="1.7404">
        <ele>426</ele>
        <time>2013-03-02T14:18:25Z</time>
      </trkpt>
      <trkpt lat="44.05864" lon="1.74016">
        <ele>425</ele>
        <time>2013-03-02T14:18:27Z</time>
      </trkpt>
      <trkpt lat="44.05873" lon="1.7399">
        <ele>424</ele>
        <time>2013-03-02T14:18:29Z</time>
      </trkpt>
      <trkpt lat="44.05883" lon="1.73963">
        <ele>422</ele>
        <time>2013-03-02T14:18:31Z</time>
      </trkpt>
      <trkpt lat="44.05894" lon="1.73933">
        <ele>420</ele>
        <time>2013-03-02T14:18:33Z</time>
      </trkpt>
      <trkpt lat="44.05905" lon="1.73903">
        <ele>418</ele>
        <time>2013-03-02T14:18:35Z</time>
      </trkpt>
      <trkpt lat="44.05915" lon="1.73873">
        <ele>416</ele>
        <time>2013-03-02T14:18:37Z</time>
      </trkpt>
      <trkpt lat="44.05926" lon="1.73841">
        <ele>414</ele>
        <time>2013-03-02T14:18:39Z</time>
      </trkpt>
      <trkpt lat="44.05937" lon="1.73809">
        <ele>410</ele>
        <time>2013-03-02T14:18:41Z</time>
      </trkpt>
      <trkpt lat="44.05948" lon="1.73783">
        <ele>406</ele>
        <time>2013-03-02T14:18:43Z</time>
      </trkpt>
      <trkpt lat="44.05959" lon="1.73765">
        <ele>402</ele>
        <time>2013-03-02T14:18:45Z</time>
      </trkpt>
      <trkpt lat="44.05974" lon="1.73758">
        <ele>398</ele>
        <time>2013-03-02T14:18:47Z</time>
      </trkpt>
      <trkpt lat="44.05989" lon="1.73762">
        <ele>394</ele>
        <time>2013-03-02T14:18:49Z</time>
      </trkpt>
      <trkpt lat="44.06003" lon="1.73776">
        <ele>390</ele>
        <time>2013-03-02T14:18:51Z</time>
      </trkpt>
      <trkpt lat="44.06019" lon="1.73793">
        <ele>386</ele>
        <time>2013-03-02T14:18:53Z</time>
      </trkpt>
      <trkpt lat="44.06037" lon="1.7381">
        <ele>382</ele>
        <time>2013-03-02T14:18:55Z</time>
      </trkpt>
      <trkpt lat="44.06056" lon="1.73829">
        <ele>378</ele>
        <time>2013-03-02T14:18:57Z</time>
      </trkpt>
      <trkpt lat="44.06076" lon="1.73846">
        <ele>374</ele>
        <time>2013-03-02T14:18:59Z</time>
      </trkpt>
      <trkpt lat="44.06097" lon="1.73859">
        <ele>370</ele>
        <time>2013-03-02T14:19:01Z</time>
      </trkpt>
      <trkpt lat="44.06121" lon="1.73864">
        <ele>368</ele>
        <time>2013-03-02T14:19:03Z</time>
      </trkpt>
      <trkpt lat="44.06146" lon="1.73861">
        <ele>366</ele>
        <time>2013-03-02T14:19:05Z</time>
      </trkpt>
      <trkpt lat="44.06167" lon="1.73857">
        <ele>364</ele>
        <time>2013-03-02T14:19:07Z</time>
      </trkpt>
      <trkpt lat="44.06184" lon="1.7385">
        <ele>362</ele>
        <time>2013-03-02T14:19:09Z</time>
      </trkpt>
      <trkpt lat="44.06197" lon="1.73844">
        <ele>360</ele>
        <time>2013-03-02T14:19:11Z</time>
      </trkpt>
      <trkpt lat="44.06208" lon="1.73845">
        <ele>360</ele>
        <time>2013-03-02T14:19:13Z</time>
      </trkpt>
      <trkpt lat="44.0622" lon="1.73849">
        <ele>360</ele>
        <time>2013-03-02T14:19:15Z</time>
      </trkpt>
      <trkpt lat="44.06235" lon="1.73852">
        <ele>360</ele>
        <time>2013-03-02T14:19:17Z</time>
      </trkpt>
      <trkpt lat="44.06249" lon="1.73851">
        <ele>359</ele>
        <time>2013-03-02T14:19:19Z</time>
      </trkpt>
      <trkpt lat="44.06263" lon="1.73851">
        <ele>358</ele>
        <time>2013-03-02T14:19:21Z</time>
      </trkpt>
      <trkpt lat="44.06276" lon="1.73858">
        <ele>356</ele>
        <time>2013-03-02T14:19:23Z</time>
      </trkpt>
      <trkpt lat="44.0629" lon="1.73872">
        <ele>354</ele>
        <time>2013-03-02T14:19:25Z</time>
      </trkpt>
      <trkpt lat="44.06303" lon="1.73889">
        <ele>352</ele>
        <time>2013-03-02T14:19:27Z</time>
      </trkpt>
      <trkpt lat="44.06318" lon="1.73905">
        <ele>350</ele>
        <time>2013-03-02T14:19:29Z</time>
      </trkpt>
      <trkpt lat="44.06335" lon="1.73918">
        <ele>348</ele>
        <time>2013-03-02T14:19:31Z</time>
      </trkpt>
      <trkpt lat="44.06353" lon="1.73927">
        <ele>346</ele>
        <time>2013-03-02T14:19:33Z</time>
      </trkpt>
      <trkpt lat="44.0637" lon="1.73928">
        <ele>344</ele>
        <time>2013-03-02T14:19:35Z</time>
      </trkpt>
      <trkpt lat="44.06387" lon="1.73925">
        <ele>342</ele>
        <time>2013-03-02T14:19:37Z</time>
      </trkpt>
      <trkpt lat="44.06403" lon="1.73921">
        <ele>340</ele>
        <time>2013-03-02T14:19:39Z</time>
      </trkpt>
      <trkpt lat="44.06421" lon="1.73921">
        <ele>337</ele>
        <time>2013-03-02T14:19:41Z</time>
      </trkpt>
      <trkpt lat="44.06437" lon="1.73925">
        <ele>335</ele>
        <time>2013-03-02T14:19:43Z</time>
      </trkpt>
      <trkpt lat="44.06452" lon="1.7393">
        <ele>333</ele>
        <time>2013-03-02T14:19:45Z</time>
      </trkpt>
      <trkpt lat="44.06467" lon="1.73936">
        <ele>330</ele>
        <time>2013-03-02T14:19:47Z</time>
      </trkpt>
      <trkpt lat="44.0648" lon="1.73941">
        <ele>328</ele>
        <time>2013-03-02T14:19:49Z</time>
      </trkpt>
      <trkpt lat="44.06493" lon="1.73943">
        <ele>326</ele>
        <time>2013-03-02T14:19:51Z</time>
      </trkpt>
      <trkpt lat="44.06506" lon="1.73939">
        <ele>324</ele>
        <time>2013-03-02T14:19:53Z</time>
      </trkpt>
      <trkpt lat="44.06521" lon="1.73934">
        <ele>321</ele>
        <time>2013-03-02T14:19:55Z</time>
      </trkpt>
      <trkpt lat="44.06537" lon="1.73928">
        <ele>319</ele>
        <time>2013-03-02T14:19:57Z</time>
      </trkpt>
      <trkpt lat="44.06554" lon="1.73917">
        <ele>316</ele>
        <time>2013-03-02T14:19:59Z</time>
      </trkpt>
      <trkpt lat="44.0657" lon="1.73904">
        <ele>314</ele>
        <time>2013-03-02T14:20:01Z</time>
      </trkpt>
      <trkpt lat="44.06585" lon="1.73889">
        <ele>312</ele>
        <time>2013-03-02T14:20:03Z</time>
      </trkpt>
      <trkpt lat="44.06598" lon="1.73874">
        <ele>310</ele>
        <time>2013-03-02T14:20:05Z</time>
      </trkpt>
      <trkpt lat="44.06611" lon="1.73862">
        <ele>308</ele>
        <time>2013-03-02T14:20:07Z</time>
      </trkpt>
      <trkpt lat="44.06626" lon="1.73854">
        <ele>306</ele>
        <time>2013-03-02T14:20:09Z</time>
      </trkpt>
      <trkpt lat="44.06639" lon="1.73846">
        <ele>304</ele>
        <time>2013-03-02T14:20:11Z</time>
      </trkpt>
      <trkpt lat="44.06653" lon="1.73842">
        <ele>302</ele>
        <time>2013-03-02T14:20:13Z</time>
      </trkpt>
      <trkpt lat="44.06668" lon="1.73842">
        <ele>300</ele>
        <time>2013-03-02T14:20:15Z</time>
      </trkpt>
      <trkpt lat="44.06686" lon="1.73846">
        <ele>300</ele>
        <time>2013-03-02T14:20:17Z</time>
      </trkpt>
      <trkpt lat="44.06703" lon="1.73847">
        <ele>300</ele>
        <time>2013-03-02T14:20:19Z</time>
      </trkpt>
      <trkpt lat="44.06715" lon="1.73854">
        <ele>299</ele>
        <time>2013-03-02T14:20:21Z</time>
      </trkpt>
      <trkpt lat="44.06725" lon="1.73864">
        <ele>298</ele>
        <time>2013-03-02T14:20:23Z</time>
      </trkpt>
      <trkpt lat="44.06734" lon="1.73875">
        <ele>297</ele>
        <time>2013-03-02T14:20:25Z</time>
      </trkpt>
      <trkpt lat="44.06744" lon="1.73888">
        <ele>295</ele>
        <time>2013-03-02T14:20:27Z</time>
      </trkpt>
      <trkpt lat="44.06758" lon="1.73899">
        <ele>293</ele>
        <time>2013-03-02T14:20:29Z</time>
      </trkpt>
      <trkpt lat="44.06772" lon="1.73908">
        <ele>292</ele>
        <time>2013-03-02T14:20:31Z</time>
      </trkpt>
      <trkpt lat="44.06786" lon="1.73915">
        <ele>291</ele>
        <time>2013-03-02T14:20:33Z</time>
      </trkpt>
      <trkpt lat="44.068" lon="1.73915">
        <ele>289</ele>
        <time>2013-03-02T14:20:35Z</time>
      </trkpt>
      <trkpt lat="44.06817" lon="1.73913">
        <ele>287</ele>
        <time>2013-03-02T14:20:37Z</time>
      </trkpt>
      <trkpt lat="44.06835" lon="1.73911">
        <ele>285</ele>
        <time>2013-03-02T14:20:39Z</time>
      </trkpt>
      <trkpt lat="44.06851" lon="1.7391">
        <ele>281</ele>
        <time>2013-03-02T14:20:41Z</time>
      </trkpt>
      <trkpt lat="44.06865" lon="1.73908">
        <ele>279</ele>
        <time>2013-03-02T14:20:43Z</time>
      </trkpt>
      <trkpt lat="44.06878" lon="1.73907">
        <ele>276</ele>
        <time>2013-03-02T14:20:45Z</time>
      </trkpt>
      <trkpt lat="44.06891" lon="1.73908">
        <ele>274</ele>
        <time>2013-03-02T14:20:47Z</time>
      </trkpt>
      <trkpt lat="44.06903" lon="1.73908">
        <ele>272</ele>
        <time>2013-03-02T14:20:49Z</time>
      </trkpt>
      <trkpt lat="44.06915" lon="1.73905">
        <ele>269</ele>
        <time>2013-03-02T14:20:51Z</time>
      </trkpt>
      <trkpt lat="44.06927" lon="1.73901">
        <ele>267</ele>
        <time>2013-03-02T14:20:53Z</time>
      </trkpt>
      <trkpt lat="44.0694" lon="1.73897">
        <ele>265</ele>
        <time>2013-03-02T14:20:55Z</time>
      </trkpt>
      <trkpt lat="44.06952" lon="1.73893">
        <ele>263</ele>
        <time>2013-03-02T14:20:57Z</time>
      </trkpt>
      <trkpt lat="44.06963" lon="1.73889">
        <ele>261</ele>
        <time>2013-03-02T14:20:59Z</time>
      </trkpt>
      <trkpt lat="44.06976" lon="1.73884">
        <ele>259</ele>
        <time>2013-03-02T14:21:01Z</time>
      </trkpt>
      <trkpt lat="44.06988" lon="1.73875">
        <ele>257</ele>
        <time>2013-03-02T14:21:03Z</time>
      </trkpt>
      <trkpt lat="44.07001" lon="1.73867">
        <ele>255</ele>
        <time>2013-03-02T14:21:05Z</time>
      </trkpt>
      <trkpt lat="44.07016" lon="1.7386">
        <ele>253</ele>
        <time>2013-03-02T14:21:07Z</time>
      </trkpt>
      <trkpt lat="44.07031" lon="1.73854">
        <ele>251</ele>
        <time>2013-03-02T14:21:09Z</time>
      </trkpt>
      <trkpt lat="44.07045" lon="1.73851">
        <ele>251</ele>
        <time>2013-03-02T14:21:11Z</time>
      </trkpt>
      <trkpt lat="44.07059" lon="1.73847">
        <ele>251</ele>
        <time>2013-03-02T14:21:13Z</time>
      </trkpt>
      <trkpt lat="44.07071" lon="1.73842">
        <ele>251</ele>
        <time>2013-03-02T14:21:15Z</time>
      </trkpt>
      <trkpt lat="44.07082" lon="1.73837">
        <ele>251</ele>
        <time>2013-03-02T14:21:17Z</time>
      </trkpt>
      <trkpt lat="44.07092" lon="1.73831">
        <ele>251</ele>
        <time>2013-03-02T14:21:19Z</time>
      </trkpt>
      <trkpt lat="44.07101" lon="1.73825">
        <ele>251</ele>
        <time>2013-03-02T14:21:21Z</time>
      </trkpt>
      <trkpt lat="44.0711" lon="1.73818">
        <ele>251</ele>
        <time>2013-03-02T14:21:23Z</time>
      </trkpt>
      <trkpt lat="44.07118" lon="1.73811">
        <ele>251</ele>
        <time>2013-03-02T14:21:25Z</time>
      </trkpt>
      <trkpt lat="44.07126" lon="1.73803">
        <ele>251</ele>
        <time>2013-03-02T14:21:27Z</time>
      </trkpt>
      <trkpt lat="44.07136" lon="1.73794">
        <ele>251</ele>
        <time>2013-03-02T14:21:29Z</time>
      </trkpt>
      <trkpt lat="44.07147" lon="1.73784">
        <ele>251</ele>
        <time>2013-03-02T14:21:31Z</time>
      </trkpt>
      <trkpt lat="44.07157" lon="1.73771">
        <ele>251</ele>
        <time>2013-03-02T14:21:33Z</time>
      </trkpt>
      <trkpt lat="44.07166" lon="1.73755">
        <ele>251</ele>
        <time>2013-03-02T14:21:35Z</time>
      </trkpt>
      <trkpt lat="44.07174" lon="1.7374">
        <ele>251</ele>
        <time>2013-03-02T14:21:37Z</time>
      </trkpt>
      <trkpt lat="44.0718" lon="1.73724">
        <ele>251</ele>
        <time>2013-03-02T14:21:39Z</time>
      </trkpt>
      <trkpt lat="44.07188" lon="1.73711">
        <ele>250</ele>
        <time>2013-03-02T14:21:41Z</time>
      </trkpt>
      <trkpt lat="44.07195" lon="1.73699">
        <ele>248</ele>
        <time>2013-03-02T14:21:43Z</time>
      </trkpt>
      <trkpt lat="44.07204" lon="1.73688">
        <ele>246</ele>
        <time>2013-03-02T14:21:45Z</time>
      </trkpt>
      <trkpt lat="44.07217" lon="1.73683">
        <ele>244</ele>
        <time>2013-03-02T14:21:47Z</time>
      </trkpt>
      <trkpt lat="44.07229" lon="1.73683">
        <ele>242</ele>
        <time>2013-03-02T14:21:49Z</time>
      </trkpt>
      <trkpt lat="44.07242" lon="1.73684">
        <ele>240</ele>
        <time>2013-03-02T14:21:51Z</time>
      </trkpt>
      <trkpt lat="44.07256" lon="1.73684">
        <ele>238</ele>
        <time>2013-03-02T14:21:53Z</time>
      </trkpt>
      <trkpt lat="44.07272" lon="1.73683">
        <ele>236</ele>
        <time>2013-03-02T14:21:55Z</time>
      </trkpt>
      <trkpt lat="44.07289" lon="1.73678">
        <ele>234</ele>
        <time>2013-03-02T14:21:57Z</time>
      </trkpt>
      <trkpt lat="44.07304" lon="1.73669">
        <ele>232</ele>
        <time>2013-03-02T14:21:59Z</time>
      </trkpt>
      <trkpt lat="44.07319" lon="1.73657">
        <ele>229</ele>
        <time>2013-03-02T14:22:01Z</time>
      </trkpt>
      <trkpt lat="44.07335" lon="1.73644">
        <ele>225</ele>
        <time>2013-03-02T14:22:03Z</time>
      </trkpt>
      <trkpt lat="44.07348" lon="1.73628">
        <ele>223</ele>
        <time>2013-03-02T14:22:05Z</time>
      </trkpt>
      <trkpt lat="44.07359" lon="1.73612">
        <ele>220</ele>
        <time>2013-03-02T14:22:07Z</time>
      </trkpt>
      <trkpt lat="44.0737" lon="1.73597">
        <ele>218</ele>
        <time>2013-03-02T14:22:09Z</time>
      </trkpt>
      <trkpt lat="44.07381" lon="1.73582">
        <ele>216</ele>
        <time>2013-03-02T14:22:11Z</time>
      </trkpt>
      <trkpt lat="44.07393" lon="1.73567">
        <ele>214</ele>
        <time>2013-03-02T14:22:13Z</time>
      </trkpt>
      <trkpt lat="44.07405" lon="1.73553">
        <ele>212</ele>
        <time>2013-03-02T14:22:15Z</time>
      </trkpt>
      <trkpt lat="44.07417" lon="1.73539">
        <ele>210</ele>
        <time>2013-03-02T14:22:17Z</time>
      </trkpt>
      <trkpt lat="44.0743" lon="1.73526">
        <ele>208</ele>
        <time>2013-03-02T14:22:19Z</time>
      </trkpt>
      <trkpt lat="44.07441" lon="1.73512">
        <ele>206</ele>
        <time>2013-03-02T14:22:21Z</time>
      </trkpt>
      <trkpt lat="44.07452" lon="1.73501">
        <ele>204</ele>
        <time>2013-03-02T14:22:23Z</time>
      </trkpt>
      <trkpt lat="44.07462" lon="1.73491">
        <ele>202</ele>
        <time>2013-03-02T14:22:25Z</time>
      </trkpt>
      <trkpt lat="44.07472" lon="1.73485">
        <ele>200</ele>
        <time>2013-03-02T14:22:27Z</time>
      </trkpt>
      <trkpt lat="44.07479" lon="1.73484">
        <ele>198</ele>
        <time>2013-03-02T14:22:29Z</time>
      </trkpt>
      <trkpt lat="44.07482" lon="1.73489">
        <ele>196</ele>
        <time>2013-03-02T14:22:31Z</time>
      </trkpt>
      <trkpt lat="44.07481" lon="1.73496">
        <ele>195</ele>
        <time>2013-03-02T14:22:33Z</time>
      </trkpt>
      <trkpt lat="44.07479" lon="1.73503">
        <ele>195</ele>
        <time>2013-03-02T14:22:35Z</time>
      </trkpt>
      <trkpt lat="44.07478" lon="1.73509">
        <ele>195</ele>
        <time>2013-03-02T14:22:37Z</time>
      </trkpt>
      <trkpt lat="44.07476" lon="1.73517">
        <ele>195</ele>
        <time>2013-03-02T14:22:39Z</time>
      </trkpt>
      <trkpt lat="44.07475" lon="1.73526">
        <ele>195</ele>
        <time>2013-03-02T14:22:41Z</time>
      </trkpt>
      <trkpt lat="44.07474" lon="1.73536">
        <ele>195</ele>
        <time>2013-03-02T14:22:43Z</time>
      </trkpt>
      <trkpt lat="44.07473" lon="1.73547">
        <ele>195</ele>
        <time>2013-03-02T14:22:45Z</time>
      </trkpt>
      <trkpt lat="44.07472" lon="1.73559">
        <ele>195</ele>
        <time>2013-03-02T14:22:47Z</time>
      </trkpt>
      <trkpt lat="44.07471" lon="1.73572">
        <ele>195</ele>
        <time>2013-03-02T14:22:49Z</time>
      </trkpt>
      <trkpt lat="44.0747" lon="1.73586">
        <ele>195</ele>
        <time>2013-03-02T14:22:51Z</time>
      </trkpt>
      <trkpt lat="44.07469" lon="1.736">
        <ele>195</ele>
        <time>2013-03-02T14:22:53Z</time>
      </trkpt>
      <trkpt lat="44.07468" lon="1.73616">
        <ele>195</ele>
        <time>2013-03-02T14:22:55Z</time>
      </trkpt>
      <trkpt lat="44.07467" lon="1.73633">
        <ele>195</ele>
        <time>2013-03-02T14:22:57Z</time>
      </trkpt>
      <trkpt lat="44.07466" lon="1.73649">
        <ele>195</ele>
        <time>2013-03-02T14:22:59Z</time>
      </trkpt>
      <trkpt lat="44.07465" lon="1.73665">
        <ele>195</ele>
        <time>2013-03-02T14:23:01Z</time>
      </trkpt>
      <trkpt lat="44.07463" lon="1.73681">
        <ele>195</ele>
        <time>2013-03-02T14:23:03Z</time>
      </trkpt>
      <trkpt lat="44.07462" lon="1.73698">
        <ele>195</ele>
        <time>2013-03-02T14:23:05Z</time>
      </trkpt>
      <trkpt lat="44.0746" lon="1.73715">
        <ele>195</ele>
        <time>2013-03-02T14:23:07Z</time>
      </trkpt>
      <trkpt lat="44.07461" lon="1.73732">
        <ele>195</ele>
        <time>2013-03-02T14:23:09Z</time>
      </trkpt>
      <trkpt lat="44.07466" lon="1.73749">
        <ele>195</ele>
        <time>2013-03-02T14:23:11Z</time>
      </trkpt>
      <trkpt lat="44.07474" lon="1.73763">
        <ele>195</ele>
        <time>2013-03-02T14:23:13Z</time>
      </trkpt>
      <trkpt lat="44.07484" lon="1.73776">
        <ele>195</ele>
        <time>2013-03-02T14:23:15Z</time>
      </trkpt>
      <trkpt lat="44.07496" lon="1.73789">
        <ele>195</ele>
        <time>2013-03-02T14:23:17Z</time>
      </trkpt>
      <trkpt lat="44.07508" lon="1.73803">
        <ele>194</ele>
        <time>2013-03-02T14:23:19Z</time>
      </trkpt>
      <trkpt lat="44.07522" lon="1.73819">
        <ele>193</ele>
        <time>2013-03-02T14:23:21Z</time>
      </trkpt>
      <trkpt lat="44.07535" lon="1.73834">
        <ele>192</ele>
        <time>2013-03-02T14:23:23Z</time>
      </trkpt>
      <trkpt lat="44.07549" lon="1.73852">
        <ele>190</ele>
        <time>2013-03-02T14:23:25Z</time>
      </trkpt>
      <trkpt lat="44.07558" lon="1.73876">
        <ele>189</ele>
        <time>2013-03-02T14:23:27Z</time>
      </trkpt>
      <trkpt lat="44.0756" lon="1.73902">
        <ele>187</ele>
        <time>2013-03-02T14:23:29Z</time>
      </trkpt>
      <trkpt lat="44.07554" lon="1.73927">
        <ele>185</ele>
        <time>2013-03-02T14:23:31Z</time>
      </trkpt>
      <trkpt lat="44.07542" lon="1.73945">
        <ele>183</ele>
        <time>2013-03-02T14:23:33Z</time>
      </trkpt>
      <trkpt lat="44.07526" lon="1.73956">
        <ele>181</ele>
        <time>2013-03-02T14:23:35Z</time>
      </trkpt>
      <trkpt lat="44.07513" lon="1.73971">
        <ele>181</ele>
        <time>2013-03-02T14:23:37Z</time>
      </trkpt>
      <trkpt lat="44.07506" lon="1.73995">
        <ele>180</ele>
        <time>2013-03-02T14:23:39Z</time>
      </trkpt>
      <trkpt lat="44.07505" lon="1.74021">
        <ele>179</ele>
        <time>2013-03-02T14:23:41Z</time>
      </trkpt>
      <trkpt lat="44.07505" lon="1.74048">
        <ele>177</ele>
        <time>2013-03-02T14:23:43Z</time>
      </trkpt>
      <trkpt lat="44.07501" lon="1.74075">
        <ele>175</ele>
        <time>2013-03-02T14:23:45Z</time>
      </trkpt>
      <trkpt lat="44.0749" lon="1.74098">
        <ele>174</ele>
        <time>2013-03-02T14:23:47Z</time>
      </trkpt>
      <trkpt lat="44.07473" lon="1.74111">
        <ele>173</ele>
        <time>2013-03-02T14:23:49Z</time>
      </trkpt>
      <trkpt lat="44.07452" lon="1.74115">
        <ele>172</ele>
        <time>2013-03-02T14:23:51Z</time>
      </trkpt>
      <trkpt lat="44.07432" lon="1.74115">
        <ele>170</ele>
        <time>2013-03-02T14:23:53Z</time>
      </trkpt>
      <trkpt lat="44.07412" lon="1.74122">
        <ele>169</ele>
        <time>2013-03-02T14:23:55Z</time>
      </trkpt>
      <trkpt lat="44.07393" lon="1.74134">
        <ele>168</ele>
        <time>2013-03-02T14:23:57Z</time>
      </trkpt>
      <trkpt lat="44.07374" lon="1.74148">
        <ele>167</ele>
        <time>2013-03-02T14:23:59Z</time>
      </trkpt>
      <trkpt lat="44.07355" lon="1.74163">
        <ele>166</ele>
        <time>2013-03-02T14:24:01Z</time>
      </trkpt>
      <trkpt lat="44.07336" lon="1.74175">
        <ele>165</ele>
        <time>2013-03-02T14:24:03Z</time>
      </trkpt>
      <trkpt lat="44.07321" lon="1.74189">
        <ele>163</ele>
        <time>2013-03-02T14:24:05Z</time>
      </trkpt>
      <trkpt lat="44.07314" lon="1.74209">
        <ele>162</ele>
        <time>2013-03-02T14:24:07Z</time>
      </trkpt>
      <trkpt lat="44.0732" lon="1.74229">
        <ele>161</ele>
        <time>2013-03-02T14:24:09Z</time>
      </trkpt>
      <trkpt lat="44.07339" lon="1.74235">
        <ele>161</ele>
        <time>2013-03-02T14:24:11Z</time>
      </trkpt>
      <trkpt lat="44.0736" lon="1.74228">
        <ele>161</ele>
        <time>2013-03-02T14:24:13Z</time>
      </trkpt>
      <trkpt lat="44.07378" lon="1.74216">
        <ele>160</ele>
        <time>2013-03-02T14:24:15Z</time>
      </trkpt>
      <trkpt lat="44.07396" lon="1.74206">
        <ele>158</ele>
        <time>2013-03-02T14:24:17Z</time>
      </trkpt>
      <trkpt lat="44.07414" lon="1.74198">
        <ele>156</ele>
        <time>2013-03-02T14:24:19Z</time>
      </trkpt>
      <trkpt lat="44.07433" lon="1.74196">
        <ele>154</ele>
        <time>2013-03-02T14:24:21Z</time>
      </trkpt>
      <trkpt lat="44.07454" lon="1.74202">
        <ele>152</ele>
        <time>2013-03-02T14:24:23Z</time>
      </trkpt>
      <trkpt lat="44.07474" lon="1.74212">
        <ele>150</ele>
        <time>2013-03-02T14:24:25Z</time>
      </trkpt>
      <trkpt lat="44.07494" lon="1.74222">
        <ele>149</ele>
        <time>2013-03-02T14:24:27Z</time>
      </trkpt>
      <trkpt lat="44.07515" lon="1.74232">
        <ele>147</ele>
        <time>2013-03-02T14:24:29Z</time>
      </trkpt>
      <trkpt lat="44.07536" lon="1.7424">
        <ele>146</ele>
        <time>2013-03-02T14:24:31Z</time>
      </trkpt>
      <trkpt lat="44.07555" lon="1.74249">
        <ele>144</ele>
        <time>2013-03-02T14:24:33Z</time>
      </trkpt>
      <trkpt lat="44.07567" lon="1.74261">
        <ele>144</ele>
        <time>2013-03-02T14:24:35Z</time>
      </trkpt>
      <trkpt lat="44.07569" lon="1.74276">
        <ele>144</ele>
        <time>2013-03-02T14:24:37Z</time>
      </trkpt>
      <trkpt lat="44.07567" lon="1.74291">
        <ele>144</ele>
        <time>2013-03-02T14:24:39Z</time>
      </trkpt>
      <trkpt lat="44.07563" lon="1.74309">
        <ele>144</ele>
        <time>2013-03-02T14:24:41Z</time>
      </trkpt>
      <trkpt lat="44.0756" lon="1.74327">
        <ele>144</ele>
        <time>2013-03-02T14:24:43Z</time>
      </trkpt>
      <trkpt lat="44.07557" lon="1.74342">
        <ele>144</ele>
        <time>2013-03-02T14:24:45Z</time>
      </trkpt>
      <trkpt lat="44.07554" lon="1.74356">
        <ele>144</ele>
        <time>2013-03-02T14:24:47Z</time>
      </trkpt>
      <trkpt lat="44.07552" lon="1.74371">
        <ele>144</ele>
        <time>2013-03-02T14:24:49Z</time>
      </trkpt>
      <trkpt lat="44.07549" lon="1.74386">
        <ele>146</ele>
        <time>2013-03-02T14:24:51Z</time>
      </trkpt>
      <trkpt lat="44.07546" lon="1.744">
        <ele>147</ele>
        <time>2013-03-02T14:24:53Z</time>
      </trkpt>
      <trkpt lat="44.07543" lon="1.74413">
        <ele>148</ele>
        <time>2013-03-02T14:24:55Z</time>
      </trkpt>
      <trkpt lat="44.0754" lon="1.74428">
        <ele>149</ele>
        <time>2013-03-02T14:24:57Z</time>
      </trkpt>
      <trkpt lat="44.07538" lon="1.74442">
        <ele>150</ele>
        <time>2013-03-02T14:24:59Z</time>
      </trkpt>
      <trkpt lat="44.07534" lon="1.74455">
        <ele>151</ele>
        <time>2013-03-02T14:25:01Z</time>
      </trkpt>
      <trkpt lat="44.07532" lon="1.74468">
        <ele>151</ele>
        <time>2013-03-02T14:25:03Z</time>
      </trkpt>
      <trkpt lat="44.07529" lon="1.7448">
        <ele>151</ele>
        <time>2013-03-02T14:25:05Z</time>
      </trkpt>
      <trkpt lat="44.07526" lon="1.74493">
        <ele>152</ele>
        <time>2013-03-02T14:25:07Z</time>
      </trkpt>
      <trkpt lat="44.07523" lon="1.74504">
        <ele>153</ele>
        <time>2013-03-02T14:25:09Z</time>
      </trkpt>
      <trkpt lat="44.07521" lon="1.74515">
        <ele>154</ele>
        <time>2013-03-02T14:25:11Z</time>
      </trkpt>
      <trkpt lat="44.07518" lon="1.74526">
        <ele>154</ele>
        <time>2013-03-02T14:25:13Z</time>
      </trkpt>
      <trkpt lat="44.07515" lon="1.74537">
        <ele>155</ele>
        <time>2013-03-02T14:25:15Z</time>
      </trkpt>
      <trkpt lat="44.07512" lon="1.74548">
        <ele>156</ele>
        <time>2013-03-02T14:25:17Z</time>
      </trkpt>
      <trkpt lat="44.07507" lon="1.74557">
        <ele>156</ele>
        <time>2013-03-02T14:25:19Z</time>
      </trkpt>
      <trkpt lat="44.07503" lon="1.74566">
        <ele>157</ele>
        <time>2013-03-02T14:25:21Z</time>
      </trkpt>
      <trkpt lat="44.07499" lon="1.74575">
        <ele>157</ele>
        <time>2013-03-02T14:25:23Z</time>
      </trkpt>
      <trkpt lat="44.07494" lon="1.74583">
        <ele>157</ele>
        <time>2013-03-02T14:25:25Z</time>
      </trkpt>
      <trkpt lat="44.07489" lon="1.74592">
        <ele>158</ele>
        <time>2013-03-02T14:25:27Z</time>
      </trkpt>
      <trkpt lat="44.07484" lon="1.746">
        <ele>159</ele>
        <time>2013-03-02T14:25:29Z</time>
      </trkpt>
      <trkpt lat="44.07479" lon="1.74608">
        <ele>159</ele>
        <time>2013-03-02T14:25:31Z</time>
      </trkpt>
      <trkpt lat="44.07475" lon="1.74617">
        <ele>159</ele>
        <time>2013-03-02T14:25:33Z</time>
      </trkpt>
      <trkpt lat="44.07471" lon="1.74625">
        <ele>160</ele>
        <time>2013-03-02T14:25:35Z</time>
      </trkpt>
      <trkpt lat="44.07467" lon="1.74633">
        <ele>160</ele>
        <time>2013-03-02T14:25:37Z</time>
      </trkpt>
      <trkpt lat="44.07463" lon="1.74642">
        <ele>161</ele>
        <time>2013-03-02T14:25:39Z</time>
      </trkpt>
      <trkpt lat="44.07459" lon="1.7465">
        <ele>162</ele>
        <time>2013-03-02T14:25:41Z</time>
      </trkpt>
      <trkpt lat="44.07456" lon="1.7466">
        <ele>162</ele>
        <time>2013-03-02T14:25:43Z</time>
      </trkpt>
      <trkpt lat="44.07454" lon="1.74669">
        <ele>163</ele>
        <time>2013-03-02T14:25:45Z</time>
      </trkpt>
      <trkpt lat="44.07452" lon="1.74679">
        <ele>163</ele>
        <time>2013-03-02T14:25:47Z</time>
      </trkpt>
      <trkpt lat="44.0745" lon="1.74688">
        <ele>164</ele>
        <time>2013-03-02T14:25:49Z</time>
      </trkpt>
      <trkpt lat="44.07449" lon="1.74697">
        <ele>164</ele>
        <time>2013-03-02T14:25:51Z</time>
      </trkpt>
      <trkpt lat="44.07448" lon="1.74707">
        <ele>164</ele>
        <time>2013-03-02T14:25:53Z</time>
      </trkpt>
      <trkpt lat="44.07447" lon="1.74716">
        <ele>165</ele>
        <time>2013-03-02T14:25:55Z</time>
      </trkpt>
      <trkpt lat="44.07446" lon="1.74726">
        <ele>165</ele>
        <time>2013-03-02T14:25:57Z</time>
      </trkpt>
      <trkpt lat="44.07448" lon="1.74733">
        <ele>166</ele>
        <time>2013-03-02T14:25:59Z</time>
      </trkpt>
      <trkpt lat="44.07451" lon="1.74737">
        <ele>166</ele>
        <time>2013-03-02T14:26:01Z</time>
      </trkpt>
      <trkpt lat="44.07456" lon="1.74734">
        <ele>167</ele>
        <time>2013-03-02T14:26:03Z</time>
      </trkpt>
      <trkpt lat="44.07461" lon="1.74733">
        <ele>167</ele>
        <time>2013-03-02T14:26:05Z</time>
      </trkpt>
      <trkpt lat="44.07465" lon="1.74732">
        <ele>169</ele>
        <time>2013-03-02T14:26:07Z</time>
      </trkpt>
      <trkpt lat="44.07468" lon="1.7473">
        <ele>169</ele>
        <time>2013-03-02T14:26:09Z</time>
      </trkpt>
      <trkpt lat="44.07472" lon="1.74729">
        <ele>170</ele>
        <time>2013-03-02T14:26:11Z</time>
      </trkpt>
      <trkpt lat="44.07475" lon="1.74728">
        <ele>170</ele>
        <time>2013-03-02T14:26:13Z</time>
      </trkpt>
      <trkpt lat="44.07479" lon="1.74726">
        <ele>171</ele>
        <time>2013-03-02T14:26:15Z</time>
      </trkpt>
      <trkpt lat="44.07482" lon="1.74724">
        <ele>171</ele>
        <time>2013-03-02T14:26:17Z</time>
      </trkpt>
      <trkpt lat="44.07485" lon="1.74723">
        <ele>171</ele>
        <time>2013-03-02T14:26:19Z</time>
      </trkpt>
      <trkpt lat="44.07488" lon="1.7472">
        <ele>171</ele>
        <time>2013-03-02T14:26:21Z</time>
      </trkpt>
      <trkpt lat="44.07491" lon="1.74718">
        <ele>171</ele>
        <time>2013-03-02T14:26:23Z</time>
      </trkpt>
      <trkpt lat="44.07494" lon="1.74716">
        <ele>171</ele>
        <time>2013-03-02T14:26:25Z</time>
      </trkpt>
      <trkpt lat="44.07497" lon="1.74715">
        <ele>171</ele>
        <time>2013-03-02T14:26:27Z</time>
      </trkpt>
      <trkpt lat="44.075" lon="1.74711">
        <ele>171</ele>
        <time>2013-03-02T14:26:30Z</time>
      </trkpt>
      <trkpt lat="44.07503" lon="1.74709">
        <ele>171</ele>
        <time>2013-03-02T14:26:32Z</time>
      </trkpt>
      <trkpt lat="44.07505" lon="1.74708">
        <ele>171</ele>
        <time>2013-03-02T14:26:34Z</time>
      </trkpt>
      <trkpt lat="44.07508" lon="1.74706">
        <ele>171</ele>
        <time>2013-03-02T14:26:36Z</time>
      </trkpt>
      <trkpt lat="44.07511" lon="1.74705">
        <ele>171</ele>
        <time>2013-03-02T14:26:38Z</time>
      </trkpt>
      <trkpt lat="44.07513" lon="1.74703">
        <ele>171</ele>
        <time>2013-03-02T14:26:40Z</time>
      </trkpt>
      <trkpt lat="44.07516" lon="1.74701">
        <ele>171</ele>
        <time>2013-03-02T14:26:42Z</time>
      </trkpt>
      <trkpt lat="44.07519" lon="1.747">
        <ele>171</ele>
        <time>2013-03-02T14:26:44Z</time>
      </trkpt>
      <trkpt lat="44.07522" lon="1.74698">
        <ele>171</ele>
        <time>2013-03-02T14:26:46Z</time>
      </trkpt>
      <trkpt lat="44.07523" lon="1.74696">
        <ele>171</ele>
        <time>2013-03-02T14:26:48Z</time>
      </trkpt>
      <trkpt lat="44.07525" lon="1.74692">
        <ele>171</ele>
        <time>2013-03-02T14:26:50Z</time>
      </trkpt>
      <trkpt lat="44.07527" lon="1.74688">
        <ele>171</ele>
        <time>2013-03-02T14:26:52Z</time>
      </trkpt>
      <trkpt lat="44.07529" lon="1.74685">
        <ele>171</ele>
        <time>2013-03-02T14:26:54Z</time>
      </trkpt>
      <trkpt lat="44.0753" lon="1.74681">
        <ele>172</ele>
        <time>2013-03-02T14:26:56Z</time>
      </trkpt>
      <trkpt lat="44.07531" lon="1.74678">
        <ele>172</ele>
        <time>2013-03-02T14:26:58Z</time>
      </trkpt>
      <trkpt lat="44.07533" lon="1.74674">
        <ele>173</ele>
        <time>2013-03-02T14:27:00Z</time>
      </trkpt>
      <trkpt lat="44.07535" lon="1.74671">
        <ele>173</ele>
        <time>2013-03-02T14:27:02Z</time>
      </trkpt>
      <trkpt lat="44.07537" lon="1.74668">
        <ele>173</ele>
        <time>2013-03-02T14:27:04Z</time>
      </trkpt>
      <trkpt lat="44.07539" lon="1.74664">
        <ele>173</ele>
        <time>2013-03-02T14:27:06Z</time>
      </trkpt>
      <trkpt lat="44.07541" lon="1.74661">
        <ele>173</ele>
        <time>2013-03-02T14:27:08Z</time>
      </trkpt>
      <trkpt lat="44.07543" lon="1.74657">
        <ele>173</ele>
        <time>2013-03-02T14:27:10Z</time>
      </trkpt>
      <trkpt lat="44.07546" lon="1.74653">
        <ele>173</ele>
        <time>2013-03-02T14:27:12Z</time>
      </trkpt>
      <trkpt lat="44.07549" lon="1.74649">
        <ele>173</ele>
        <time>2013-03-02T14:27:14Z</time>
      </trkpt>
      <trkpt lat="44.0755" lon="1.74646">
        <ele>173</ele>
        <time>2013-03-02T14:27:16Z</time>
      </trkpt>
      <trkpt lat="44.07551" lon="1.74642">
        <ele>173</ele>
        <time>2013-03-02T14:27:18Z</time>
      </trkpt>
      <trkpt lat="44.07552" lon="1.74637">
        <ele>173</ele>
        <time>2013-03-02T14:27:20Z</time>
      </trkpt>
      <trkpt lat="44.07553" lon="1.74634">
        <ele>173</ele>
        <time>2013-03-02T14:27:22Z</time>
      </trkpt>
      <trkpt lat="44.07555" lon="1.7463">
        <ele>173</ele>
        <time>2013-03-02T14:27:24Z</time>
      </trkpt>
      <trkpt lat="44.07556" lon="1.74626">
        <ele>173</ele>
        <time>2013-03-02T14:27:26Z</time>
      </trkpt>
      <trkpt lat="44.07558" lon="1.74621">
        <ele>174</ele>
        <time>2013-03-02T14:27:28Z</time>
      </trkpt>
      <trkpt lat="44.07559" lon="1.74618">
        <ele>175</ele>
        <time>2013-03-02T14:27:30Z</time>
      </trkpt>
      <trkpt lat="44.0756" lon="1.74614">
        <ele>176</ele>
        <time>2013-03-02T14:27:32Z</time>
      </trkpt>
      <trkpt lat="44.07561" lon="1.7461">
        <ele>176</ele>
        <time>2013-03-02T14:27:34Z</time>
      </trkpt>
      <trkpt lat="44.07562" lon="1.74606">
        <ele>176</ele>
        <time>2013-03-02T14:27:36Z</time>
      </trkpt>
      <trkpt lat="44.07563" lon="1.74602">
        <ele>176</ele>
        <time>2013-03-02T14:27:38Z</time>
      </trkpt>
      <trkpt lat="44.07564" lon="1.74598">
        <ele>177</ele>
        <time>2013-03-02T14:27:40Z</time>
      </trkpt>
      <trkpt lat="44.07565" lon="1.74595">
        <ele>177</ele>
        <time>2013-03-02T14:27:42Z</time>
      </trkpt>
      <trkpt lat="44.07567" lon="1.74592">
        <ele>178</ele>
        <time>2013-03-02T14:27:44Z</time>
      </trkpt>
      <trkpt lat="44.07568" lon="1.74589">
        <ele>178</ele>
        <time>2013-03-02T14:27:46Z</time>
      </trkpt>
      <trkpt lat="44.0757" lon="1.74585">
        <ele>178</ele>
        <time>2013-03-02T14:27:49Z</time>
      </trkpt>
      <trkpt lat="44.07571" lon="1.74582">
        <ele>178</ele>
        <time>2013-03-02T14:27:51Z</time>
      </trkpt>
      <trkpt lat="44.07572" lon="1.74579">
        <ele>178</ele>
        <time>2013-03-02T14:27:53Z</time>
      </trkpt>
      <trkpt lat="44.07573" lon="1.74576">
        <ele>178</ele>
        <time>2013-03-02T14:27:55Z</time>
      </trkpt>
      <trkpt lat="44.07575" lon="1.74572">
        <ele>178</ele>
        <time>2013-03-02T14:27:57Z</time>
      </trkpt>
      <trkpt lat="44.07576" lon="1.7457">
        <ele>178</ele>
        <time>2013-03-02T14:27:59Z</time>
      </trkpt>
      <trkpt lat="44.07578" lon="1.74567">
        <ele>178</ele>
        <time>2013-03-02T14:28:01Z</time>
      </trkpt>
      <trkpt lat="44.07579" lon="1.74564">
        <ele>178</ele>
        <time>2013-03-02T14:28:03Z</time>
      </trkpt>
      <trkpt lat="44.0758" lon="1.74561">
        <ele>178</ele>
        <time>2013-03-02T14:28:05Z</time>
      </trkpt>
      <trkpt lat="44.07582" lon="1.74558">
        <ele>178</ele>
        <time>2013-03-02T14:28:07Z</time>
      </trkpt>
      <trkpt lat="44.07585" lon="1.74555">
        <ele>178</ele>
        <time>2013-03-02T14:28:09Z</time>
      </trkpt>
      <trkpt lat="44.07587" lon="1.74552">
        <ele>179</ele>
        <time>2013-03-02T14:28:11Z</time>
      </trkpt>
      <trkpt lat="44.0759" lon="1.74549">
        <ele>181</ele>
        <time>2013-03-02T14:28:13Z</time>
      </trkpt>
      <trkpt lat="44.07592" lon="1.74546">
        <ele>181</ele>
        <time>2013-03-02T14:28:15Z</time>
      </trkpt>
      <trkpt lat="44.07595" lon="1.74543">
        <ele>182</ele>
        <time>2013-03-02T14:28:17Z</time>
      </trkpt>
      <trkpt lat="44.07597" lon="1.74539">
        <ele>183</ele>
        <time>2013-03-02T14:28:19Z</time>
      </trkpt>
      <trkpt lat="44.076" lon="1.74536">
        <ele>183</ele>
        <time>2013-03-02T14:28:21Z</time>
      </trkpt>
      <trkpt lat="44.07602" lon="1.74532">
        <ele>183</ele>
        <time>2013-03-02T14:28:23Z</time>
      </trkpt>
      <trkpt lat="44.07604" lon="1.74529">
        <ele>183</ele>
        <time>2013-03-02T14:28:25Z</time>
      </trkpt>
      <trkpt lat="44.07606" lon="1.74525">
        <ele>183</ele>
        <time>2013-03-02T14:28:27Z</time>
      </trkpt>
      <trkpt lat="44.07608" lon="1.74522">
        <ele>183</ele>
        <time>2013-03-02T14:28:29Z</time>
      </trkpt>
      <trkpt lat="44.0761" lon="1.74518">
        <ele>183</ele>
        <time>2013-03-02T14:28:31Z</time>
      </trkpt>
      <trkpt lat="44.07612" lon="1.74515">
        <ele>183</ele>
        <time>2013-03-02T14:28:33Z</time>
      </trkpt>
      <trkpt lat="44.07616" lon="1.74512">
        <ele>183</ele>
        <time>2013-03-02T14:28:36Z</time>
      </trkpt>
      <trkpt lat="44.07618" lon="1.74509">
        <ele>183</ele>
        <time>2013-03-02T14:28:38Z</time>
      </trkpt>
      <trkpt lat="44.0762" lon="1.74504">
        <ele>184</ele>
        <time>2013-03-02T14:28:40Z</time>
      </trkpt>
      <trkpt lat="44.07624" lon="1.74501">
        <ele>187</ele>
        <time>2013-03-02T14:28:43Z</time>
      </trkpt>
      <trkpt lat="44.07626" lon="1.74498">
        <ele>189</ele>
        <time>2013-03-02T14:28:45Z</time>
      </trkpt>
      <trkpt lat="44.0763" lon="1.74497">
        <ele>190</ele>
        <time>2013-03-02T14:28:47Z</time>
      </trkpt>
      <trkpt lat="44.07633" lon="1.74495">
        <ele>191</ele>
        <time>2013-03-02T14:28:49Z</time>
      </trkpt>
      <trkpt lat="44.07636" lon="1.74494">
        <ele>191</ele>
        <time>2013-03-02T14:28:51Z</time>
      </trkpt>
      <trkpt lat="44.07639" lon="1.74494">
        <ele>191</ele>
        <time>2013-03-02T14:28:53Z</time>
      </trkpt>
      <trkpt lat="44.07643" lon="1.74493">
        <ele>192</ele>
        <time>2013-03-02T14:28:55Z</time>
      </trkpt>
      <trkpt lat="44.07646" lon="1.74492">
        <ele>193</ele>
        <time>2013-03-02T14:28:57Z</time>
      </trkpt>
      <trkpt lat="44.07649" lon="1.74492">
        <ele>194</ele>
        <time>2013-03-02T14:28:59Z</time>
      </trkpt>
      <trkpt lat="44.07653" lon="1.74493">
        <ele>195</ele>
        <time>2013-03-02T14:29:01Z</time>
      </trkpt>
      <trkpt lat="44.07655" lon="1.74496">
        <ele>196</ele>
        <time>2013-03-02T14:29:03Z</time>
      </trkpt>
      <trkpt lat="44.07656" lon="1.74499">
        <ele>197</ele>
        <time>2013-03-02T14:29:05Z</time>
      </trkpt>
      <trkpt lat="44.07659" lon="1.74502">
        <ele>198</ele>
        <time>2013-03-02T14:29:08Z</time>
      </trkpt>
      <trkpt lat="44.07662" lon="1.74503">
        <ele>199</ele>
        <time>2013-03-02T14:29:10Z</time>
      </trkpt>
      <trkpt lat="44.07666" lon="1.74503">
        <ele>199</ele>
        <time>2013-03-02T14:29:12Z</time>
      </trkpt>
      <trkpt lat="44.07669" lon="1.74502">
        <ele>200</ele>
        <time>2013-03-02T14:29:14Z</time>
      </trkpt>
      <trkpt lat="44.07673" lon="1.745">
        <ele>201</ele>
        <time>2013-03-02T14:29:16Z</time>
      </trkpt>
      <trkpt lat="44.07678" lon="1.74499">
        <ele>201</ele>
        <time>2013-03-02T14:29:18Z</time>
      </trkpt>
      <trkpt lat="44.07683" lon="1.74497">
        <ele>201</ele>
        <time>2013-03-02T14:29:20Z</time>
      </trkpt>
      <trkpt lat="44.07689" lon="1.74496">
        <ele>201</ele>
        <time>2013-03-02T14:29:22Z</time>
      </trkpt>
      <trkpt lat="44.07695" lon="1.74496">
        <ele>201</ele>
        <time>2013-03-02T14:29:24Z</time>
      </trkpt>
      <trkpt lat="44.077" lon="1.74495">
        <ele>201</ele>
        <time>2013-03-02T14:29:26Z</time>
      </trkpt>
      <trkpt lat="44.07707" lon="1.74494">
        <ele>201</ele>
        <time>2013-03-02T14:29:28Z</time>
      </trkpt>
      <trkpt lat="44.07714" lon="1.74494">
        <ele>201</ele>
        <time>2013-03-02T14:29:30Z</time>
      </trkpt>
      <trkpt lat="44.07727" lon="1.74491">
        <ele>202</ele>
        <time>2013-03-02T14:29:33Z</time>
      </trkpt>
      <trkpt lat="44.07737" lon="1.74489">
        <ele>202</ele>
        <time>2013-03-02T14:29:35Z</time>
      </trkpt>
      <trkpt lat="44.07749" lon="1.74488">
        <ele>203</ele>
        <time>2013-03-02T14:29:37Z</time>
      </trkpt>
      <trkpt lat="44.07761" lon="1.74485">
        <ele>203</ele>
        <time>2013-03-02T14:29:39Z</time>
      </trkpt>
      <trkpt lat="44.07773" lon="1.74481">
        <ele>203</ele>
        <time>2013-03-02T14:29:41Z</time>
      </trkpt>
      <trkpt lat="44.07784" lon="1.74478">
        <ele>203</ele>
        <time>2013-03-02T14:29:43Z</time>
      </trkpt>
      <trkpt lat="44.07794" lon="1.74473">
        <ele>203</ele>
        <time>2013-03-02T14:29:45Z</time>
      </trkpt>
      <trkpt lat="44.07806" lon="1.7447">
        <ele>203</ele>
        <time>2013-03-02T14:29:47Z</time>
      </trkpt>
      <trkpt lat="44.07819" lon="1.74464">
        <ele>203</ele>
        <time>2013-03-02T14:29:49Z</time>
      </trkpt>
      <trkpt lat="44.07831" lon="1.74455">
        <ele>203</ele>
        <time>2013-03-02T14:29:51Z</time>
      </trkpt>
      <trkpt lat="44.07842" lon="1.74442">
        <ele>202</ele>
        <time>2013-03-02T14:29:53Z</time>
      </trkpt>
      <trkpt lat="44.07853" lon="1.7443">
        <ele>200</ele>
        <time>2013-03-02T14:29:55Z</time>
      </trkpt>
      <trkpt lat="44.07865" lon="1.74418">
        <ele>199</ele>
        <time>2013-03-02T14:29:57Z</time>
      </trkpt>
      <trkpt lat="44.0788" lon="1.74409">
        <ele>197</ele>
        <time>2013-03-02T14:29:59Z</time>
      </trkpt>
      <trkpt lat="44.07894" lon="1.74403">
        <ele>197</ele>
        <time>2013-03-02T14:30:01Z</time>
      </trkpt>
      <trkpt lat="44.07909" lon="1.744">
        <ele>196</ele>
        <time>2013-03-02T14:30:03Z</time>
      </trkpt>
      <trkpt lat="44.07923" lon="1.74398">
        <ele>195</ele>
        <time>2013-03-02T14:30:05Z</time>
      </trkpt>
      <trkpt lat="44.07936" lon="1.74396">
        <ele>195</ele>
        <time>2013-03-02T14:30:07Z</time>
      </trkpt>
      <trkpt lat="44.0795" lon="1.74395">
        <ele>195</ele>
        <time>2013-03-02T14:30:09Z</time>
      </trkpt>
      <trkpt lat="44.07964" lon="1.74392">
        <ele>195</ele>
        <time>2013-03-02T14:30:11Z</time>
      </trkpt>
      <trkpt lat="44.07978" lon="1.7439">
        <ele>195</ele>
        <time>2013-03-02T14:30:13Z</time>
      </trkpt>
      <trkpt lat="44.07993" lon="1.74389">
        <ele>194</ele>
        <time>2013-03-02T14:30:15Z</time>
      </trkpt>
      <trkpt lat="44.08009" lon="1.74388">
        <ele>194</ele>
        <time>2013-03-02T14:30:17Z</time>
      </trkpt>
      <trkpt lat="44.08025" lon="1.74385">
        <ele>193</ele>
        <time>2013-03-02T14:30:19Z</time>
      </trkpt>
      <trkpt lat="44.08043" lon="1.74383">
        <ele>192</ele>
        <time>2013-03-02T14:30:21Z</time>
      </trkpt>
      <trkpt lat="44.0806" lon="1.74381">
        <ele>191</ele>
        <time>2013-03-02T14:30:23Z</time>
      </trkpt>
      <trkpt lat="44.08079" lon="1.74381">
        <ele>190</ele>
        <time>2013-03-02T14:30:25Z</time>
      </trkpt>
      <trkpt lat="44.08097" lon="1.74385">
        <ele>188</ele>
        <time>2013-03-02T14:30:27Z</time>
      </trkpt>
      <trkpt lat="44.08116" lon="1.74391">
        <ele>188</ele>
        <time>2013-03-02T14:30:29Z</time>
      </trkpt>
      <trkpt lat="44.08135" lon="1.74397">
        <ele>187</ele>
        <time>2013-03-02T14:30:31Z</time>
      </trkpt>
      <trkpt lat="44.08154" lon="1.74403">
        <ele>186</ele>
        <time>2013-03-02T14:30:33Z</time>
      </trkpt>
      <trkpt lat="44.08174" lon="1.74407">
        <ele>185</ele>
        <time>2013-03-02T14:30:35Z</time>
      </trkpt>
      <trkpt lat="44.08197" lon="1.74407">
        <ele>183</ele>
        <time>2013-03-02T14:30:37Z</time>
      </trkpt>
      <trkpt lat="44.0822" lon="1.74406">
        <ele>182</ele>
        <time>2013-03-02T14:30:39Z</time>
      </trkpt>
      <trkpt lat="44.08242" lon="1.74405">
        <ele>180</ele>
        <time>2013-03-02T14:30:41Z</time>
      </trkpt>
      <trkpt lat="44.08275" lon="1.74402">
        <ele>178</ele>
        <time>2013-03-02T14:30:44Z</time>
      </trkpt>
      <trkpt lat="44.08296" lon="1.74402">
        <ele>176</ele>
        <time>2013-03-02T14:30:46Z</time>
      </trkpt>
      <trkpt lat="44.08316" lon="1.74403">
        <ele>175</ele>
        <time>2013-03-02T14:30:48Z</time>
      </trkpt>
      <trkpt lat="44.08335" lon="1.74403">
        <ele>175</ele>
        <time>2013-03-02T14:30:50Z</time>
      </trkpt>
      <trkpt lat="44.08351" lon="1.74405">
        <ele>174</ele>
        <time>2013-03-02T14:30:52Z</time>
      </trkpt>
      <trkpt lat="44.08363" lon="1.74408">
        <ele>174</ele>
        <time>2013-03-02T14:30:54Z</time>
      </trkpt>
      <trkpt lat="44.08373" lon="1.74412">
        <ele>174</ele>
        <time>2013-03-02T14:30:56Z</time>
      </trkpt>
      <trkpt lat="44.08382" lon="1.74419">
        <ele>174</ele>
        <time>2013-03-02T14:30:58Z</time>
      </trkpt>
      <trkpt lat="44.08388" lon="1.74427">
        <ele>174</ele>
        <time>2013-03-02T14:31:00Z</time>
      </trkpt>
      <trkpt lat="44.08393" lon="1.74434">
        <ele>174</ele>
        <time>2013-03-02T14:31:02Z</time>
      </trkpt>
      <trkpt lat="44.08397" lon="1.74441">
        <ele>174</ele>
        <time>2013-03-02T14:31:04Z</time>
      </trkpt>
      <trkpt lat="44.08402" lon="1.74446">
        <ele>174</ele>
        <time>2013-03-02T14:31:06Z</time>
      </trkpt>
      <trkpt lat="44.08407" lon="1.74451">
        <ele>174</ele>
        <time>2013-03-02T14:31:08Z</time>
      </trkpt>
      <trkpt lat="44.08412" lon="1.74456">
        <ele>174</ele>
        <time>2013-03-02T14:31:10Z</time>
      </trkpt>
      <trkpt lat="44.08416" lon="1.74462">
        <ele>175</ele>
        <time>2013-03-02T14:31:12Z</time>
      </trkpt>
      <trkpt lat="44.08421" lon="1.74468">
        <ele>176</ele>
        <time>2013-03-02T14:31:14Z</time>
      </trkpt>
      <trkpt lat="44.08426" lon="1.74474">
        <ele>177</ele>
        <time>2013-03-02T14:31:16Z</time>
      </trkpt>
      <trkpt lat="44.08431" lon="1.74477">
        <ele>177</ele>
        <time>2013-03-02T14:31:18Z</time>
      </trkpt>
      <trkpt lat="44.08436" lon="1.74482">
        <ele>177</ele>
        <time>2013-03-02T14:31:20Z</time>
      </trkpt>
      <trkpt lat="44.08439" lon="1.74489">
        <ele>178</ele>
        <time>2013-03-02T14:31:22Z</time>
      </trkpt>
      <trkpt lat="44.08442" lon="1.74496">
        <ele>179</ele>
        <time>2013-03-02T14:31:24Z</time>
      </trkpt>
      <trkpt lat="44.08444" lon="1.74503">
        <ele>180</ele>
        <time>2013-03-02T14:31:26Z</time>
      </trkpt>
      <trkpt lat="44.08447" lon="1.7451">
        <ele>180</ele>
        <time>2013-03-02T14:31:28Z</time>
      </trkpt>
      <trkpt lat="44.08451" lon="1.74515">
        <ele>181</ele>
        <time>2013-03-02T14:31:30Z</time>
      </trkpt>
      <trkpt lat="44.08458" lon="1.74522">
        <ele>182</ele>
        <time>2013-03-02T14:31:33Z</time>
      </trkpt>
      <trkpt lat="44.08464" lon="1.74524">
        <ele>182</ele>
        <time>2013-03-02T14:31:35Z</time>
      </trkpt>
      <trkpt lat="44.08471" lon="1.74525">
        <ele>183</ele>
        <time>2013-03-02T14:31:37Z</time>
      </trkpt>
      <trkpt lat="44.08477" lon="1.74529">
        <ele>183</ele>
        <time>2013-03-02T14:31:39Z</time>
      </trkpt>
      <trkpt lat="44.08485" lon="1.74534">
        <ele>184</ele>
        <time>2013-03-02T14:31:41Z</time>
      </trkpt>
      <trkpt lat="44.08487" lon="1.74546">
        <ele>184</ele>
        <time>2013-03-02T14:31:43Z</time>
      </trkpt>
      <trkpt lat="44.08483" lon="1.74561">
        <ele>184</ele>
        <time>2013-03-02T14:31:45Z</time>
      </trkpt>
      <trkpt lat="44.0848" lon="1.74575">
        <ele>184</ele>
        <time>2013-03-02T14:31:47Z</time>
      </trkpt>
      <trkpt lat="44.0848" lon="1.74588">
        <ele>184</ele>
        <time>2013-03-02T14:31:49Z</time>
      </trkpt>
      <trkpt lat="44.08486" lon="1.74596">
        <ele>184</ele>
        <time>2013-03-02T14:31:51Z</time>
      </trkpt>
      <trkpt lat="44.08493" lon="1.74603">
        <ele>184</ele>
        <time>2013-03-02T14:31:53Z</time>
      </trkpt>
      <trkpt lat="44.08499" lon="1.74613">
        <ele>184</ele>
        <time>2013-03-02T14:31:55Z</time>
      </trkpt>
      <trkpt lat="44.08503" lon="1.74624">
        <ele>184</ele>
        <time>2013-03-02T14:31:57Z</time>
      </trkpt>
      <trkpt lat="44.08506" lon="1.74636">
        <ele>184</ele>
        <time>2013-03-02T14:31:59Z</time>
      </trkpt>
      <trkpt lat="44.0851" lon="1.74649">
        <ele>184</ele>
        <time>2013-03-02T14:32:01Z</time>
      </trkpt>
      <trkpt lat="44.08511" lon="1.74665">
        <ele>184</ele>
        <time>2013-03-02T14:32:03Z</time>
      </trkpt>
      <trkpt lat="44.0851" lon="1.74678">
        <ele>183</ele>
        <time>2013-03-02T14:32:05Z</time>
      </trkpt>
      <trkpt lat="44.08508" lon="1.74689">
        <ele>182</ele>
        <time>2013-03-02T14:32:07Z</time>
      </trkpt>
      <trkpt lat="44.08506" lon="1.74701">
        <ele>181</ele>
        <time>2013-03-02T14:32:09Z</time>
      </trkpt>
      <trkpt lat="44.08507" lon="1.74713">
        <ele>180</ele>
        <time>2013-03-02T14:32:11Z</time>
      </trkpt>
      <trkpt lat="44.08511" lon="1.74726">
        <ele>178</ele>
        <time>2013-03-02T14:32:13Z</time>
      </trkpt>
      <trkpt lat="44.08516" lon="1.74741">
        <ele>176</ele>
        <time>2013-03-02T14:32:15Z</time>
      </trkpt>
      <trkpt lat="44.08523" lon="1.74756">
        <ele>174</ele>
        <time>2013-03-02T14:32:17Z</time>
      </trkpt>
      <trkpt lat="44.08531" lon="1.74772">
        <ele>172</ele>
        <time>2013-03-02T14:32:19Z</time>
      </trkpt>
      <trkpt lat="44.0854" lon="1.74789">
        <ele>170</ele>
        <time>2013-03-02T14:32:21Z</time>
      </trkpt>
      <trkpt lat="44.0855" lon="1.74804">
        <ele>168</ele>
        <time>2013-03-02T14:32:23Z</time>
      </trkpt>
      <trkpt lat="44.08558" lon="1.7482">
        <ele>165</ele>
        <time>2013-03-02T14:32:25Z</time>
      </trkpt>
      <trkpt lat="44.08561" lon="1.7484">
        <ele>162</ele>
        <time>2013-03-02T14:32:27Z</time>
      </trkpt>
      <trkpt lat="44.08566" lon="1.74863">
        <ele>160</ele>
        <time>2013-03-02T14:32:29Z</time>
      </trkpt>
      <trkpt lat="44.08568" lon="1.74883">
        <ele>158</ele>
        <time>2013-03-02T14:32:31Z</time>
      </trkpt>
      <trkpt lat="44.08568" lon="1.74898">
        <ele>156</ele>
        <time>2013-03-02T14:32:33Z</time>
      </trkpt>
      <trkpt lat="44.0857" lon="1.7491">
        <ele>154</ele>
        <time>2013-03-02T14:32:35Z</time>
      </trkpt>
      <trkpt lat="44.08575" lon="1.74916">
        <ele>152</ele>
        <time>2013-03-02T14:32:37Z</time>
      </trkpt>
      <trkpt lat="44.08582" lon="1.74918">
        <ele>150</ele>
        <time>2013-03-02T14:32:39Z</time>
      </trkpt>
      <trkpt lat="44.08592" lon="1.74919">
        <ele>149</ele>
        <time>2013-03-02T14:32:41Z</time>
      </trkpt>
      <trkpt lat="44.08601" lon="1.74921">
        <ele>147</ele>
        <time>2013-03-02T14:32:43Z</time>
      </trkpt>
      <trkpt lat="44.08611" lon="1.74922">
        <ele>146</ele>
        <time>2013-03-02T14:32:45Z</time>
      </trkpt>
      <trkpt lat="44.08625" lon="1.74923">
        <ele>146</ele>
        <time>2013-03-02T14:32:47Z</time>
      </trkpt>
      <trkpt lat="44.08639" lon="1.74928">
        <ele>145</ele>
        <time>2013-03-02T14:32:49Z</time>
      </trkpt>
      <trkpt lat="44.08653" lon="1.74934">
        <ele>143</ele>
        <time>2013-03-02T14:32:51Z</time>
      </trkpt>
      <trkpt lat="44.0866" lon="1.74943">
        <ele>142</ele>
        <time>2013-03-02T14:32:53Z</time>
      </trkpt>
      <trkpt lat="44.0866" lon="1.74951">
        <ele>141</ele>
        <time>2013-03-02T14:32:55Z</time>
      </trkpt>
      <trkpt lat="44.0866" lon="1.74959">
        <ele>141</ele>
        <time>2013-03-02T14:32:57Z</time>
      </trkpt>
      <trkpt lat="44.08661" lon="1.74966">
        <ele>141</ele>
        <time>2013-03-02T14:32:59Z</time>
      </trkpt>
      <trkpt lat="44.08663" lon="1.74971">
        <ele>141</ele>
        <time>2013-03-02T14:33:01Z</time>
      </trkpt>
      <trkpt lat="44.08665" lon="1.74973">
        <ele>140</ele>
        <time>2013-03-02T14:33:03Z</time>
      </trkpt>
      <trkpt lat="44.08668" lon="1.7497">
        <ele>140</ele>
        <time>2013-03-02T14:33:05Z</time>
      </trkpt>
      <trkpt lat="44.08669" lon="1.74966">
        <ele>140</ele>
        <time>2013-03-02T14:33:07Z</time>
      </trkpt>
      <trkpt lat="44.0867" lon="1.74963">
        <ele>140</ele>
        <time>2013-03-02T14:33:09Z</time>
      </trkpt>
      <trkpt lat="44.08672" lon="1.74961">
        <ele>140</ele>
        <time>2013-03-02T14:33:11Z</time>
      </trkpt>
      <trkpt lat="44.08674" lon="1.74964">
        <ele>140</ele>
        <time>2013-03-02T14:33:13Z</time>
      </trkpt>
      <trkpt lat="44.08674" lon="1.74968">
        <ele>140</ele>
        <time>2013-03-02T14:33:15Z</time>
      </trkpt>
      <trkpt lat="44.08672" lon="1.74973">
        <ele>140</ele>
        <time>2013-03-02T14:33:17Z</time>
      </trkpt>
      <trkpt lat="44.08671" lon="1.74979">
        <ele>141</ele>
        <time>2013-03-02T14:33:19Z</time>
      </trkpt>
      <trkpt lat="44.08671" lon="1.74985">
        <ele>141</ele>
        <time>2013-03-02T14:33:21Z</time>
      </trkpt>
      <trkpt lat="44.0867" lon="1.74992">
        <ele>142</ele>
        <time>2013-03-02T14:33:23Z</time>
      </trkpt>
      <trkpt lat="44.08669" lon="1.74999">
        <ele>142</ele>
        <time>2013-03-02T14:33:25Z</time>
      </trkpt>
      <trkpt lat="44.08668" lon="1.75007">
        <ele>142</ele>
        <time>2013-03-02T14:33:27Z</time>
      </trkpt>
      <trkpt lat="44.08666" lon="1.75016">
        <ele>142</ele>
        <time>2013-03-02T14:33:29Z</time>
      </trkpt>
      <trkpt lat="44.08664" lon="1.75025">
        <ele>143</ele>
        <time>2013-03-02T14:33:31Z</time>
      </trkpt>
      <trkpt lat="44.08662" lon="1.75033">
        <ele>143</ele>
        <time>2013-03-02T14:33:33Z</time>
      </trkpt>
      <trkpt lat="44.08661" lon="1.75042">
        <ele>144</ele>
        <time>2013-03-02T14:33:35Z</time>
      </trkpt>
      <trkpt lat="44.08659" lon="1.7505">
        <ele>145</ele>
        <time>2013-03-02T14:33:37Z</time>
      </trkpt>
      <trkpt lat="44.08658" lon="1.75058">
        <ele>146</ele>
        <time>2013-03-02T14:33:39Z</time>
      </trkpt>
      <trkpt lat="44.08656" lon="1.75065">
        <ele>146</ele>
        <time>2013-03-02T14:33:41Z</time>
      </trkpt>
      <trkpt lat="44.08654" lon="1.75073">
        <ele>148</ele>
        <time>2013-03-02T14:33:43Z</time>
      </trkpt>
      <trkpt lat="44.08652" lon="1.7508">
        <ele>149</ele>
        <time>2013-03-02T14:33:45Z</time>
      </trkpt>
      <trkpt lat="44.0865" lon="1.75088">
        <ele>150</ele>
        <time>2013-03-02T14:33:47Z</time>
      </trkpt>
      <trkpt lat="44.08648" lon="1.75097">
        <ele>151</ele>
        <time>2013-03-02T14:33:49Z</time>
      </trkpt>
      <trkpt lat="44.08645" lon="1.75104">
        <ele>151</ele>
        <time>2013-03-02T14:33:51Z</time>
      </trkpt>
      <trkpt lat="44.08641" lon="1.75111">
        <ele>151</ele>
        <time>2013-03-02T14:33:53Z</time>
      </trkpt>
      <trkpt lat="44.08637" lon="1.75118">
        <ele>151</ele>
        <time>2013-03-02T14:33:55Z</time>
      </trkpt>
      <trkpt lat="44.08633" lon="1.75124">
        <ele>151</ele>
        <time>2013-03-02T14:33:57Z</time>
      </trkpt>
      <trkpt lat="44.08629" lon="1.75129">
        <ele>151</ele>
        <time>2013-03-02T14:33:59Z</time>
      </trkpt>
      <trkpt lat="44.08624" lon="1.75135">
        <ele>151</ele>
        <time>2013-03-02T14:34:01Z</time>
      </trkpt>
      <trkpt lat="44.0862" lon="1.75141">
        <ele>152</ele>
        <time>2013-03-02T14:34:03Z</time>
      </trkpt>
      <trkpt lat="44.08616" lon="1.75147">
        <ele>152</ele>
        <time>2013-03-02T14:34:05Z</time>
      </trkpt>
      <trkpt lat="44.08613" lon="1.75155">
        <ele>152</ele>
        <time>2013-03-02T14:34:07Z</time>
      </trkpt>
      <trkpt lat="44.0861" lon="1.75163">
        <ele>152</ele>
        <time>2013-03-02T14:34:09Z</time>
      </trkpt>
      <trkpt lat="44.08607" lon="1.7517">
        <ele>152</ele>
        <time>2013-03-02T14:34:11Z</time>
      </trkpt>
      <trkpt lat="44.08604" lon="1.75177">
        <ele>152</ele>
        <time>2013-03-02T14:34:13Z</time>
      </trkpt>
      <trkpt lat="44.08601" lon="1.75185">
        <ele>152</ele>
        <time>2013-03-02T14:34:15Z</time>
      </trkpt>
      <trkpt lat="44.08599" lon="1.75193">
        <ele>152</ele>
        <time>2013-03-02T14:34:17Z</time>
      </trkpt>
      <trkpt lat="44.08596" lon="1.75202">
        <ele>152</ele>
        <time>2013-03-02T14:34:19Z</time>
      </trkpt>
      <trkpt lat="44.08594" lon="1.75211">
        <ele>152</ele>
        <time>2013-03-02T14:34:21Z</time>
      </trkpt>
      <trkpt lat="44.08591" lon="1.7522">
        <ele>153</ele>
        <time>2013-03-02T14:34:23Z</time>
      </trkpt>
      <trkpt lat="44.08588" lon="1.75231">
        <ele>153</ele>
        <time>2013-03-02T14:34:25Z</time>
      </trkpt>
      <trkpt lat="44.08587" lon="1.75241">
        <ele>154</ele>
        <time>2013-03-02T14:34:27Z</time>
      </trkpt>
      <trkpt lat="44.08585" lon="1.75251">
        <ele>155</ele>
        <time>2013-03-02T14:34:29Z</time>
      </trkpt>
      <trkpt lat="44.08582" lon="1.75261">
        <ele>156</ele>
        <time>2013-03-02T14:34:31Z</time>
      </trkpt>
      <trkpt lat="44.08579" lon="1.75269">
        <ele>156</ele>
        <time>2013-03-02T14:34:33Z</time>
      </trkpt>
      <trkpt lat="44.08576" lon="1.75277">
        <ele>156</ele>
        <time>2013-03-02T14:34:35Z</time>
      </trkpt>
      <trkpt lat="44.08572" lon="1.75286">
        <ele>156</ele>
        <time>2013-03-02T14:34:37Z</time>
      </trkpt>
      <trkpt lat="44.08569" lon="1.75295">
        <ele>157</ele>
        <time>2013-03-02T14:34:39Z</time>
      </trkpt>
      <trkpt lat="44.08567" lon="1.75304">
        <ele>158</ele>
        <time>2013-03-02T14:34:41Z</time>
      </trkpt>
      <trkpt lat="44.08564" lon="1.75313">
        <ele>158</ele>
        <time>2013-03-02T14:34:43Z</time>
      </trkpt>
      <trkpt lat="44.08561" lon="1.75321">
        <ele>158</ele>
        <time>2013-03-02T14:34:45Z</time>
      </trkpt>
      <trkpt lat="44.08559" lon="1.7533">
        <ele>158</ele>
        <time>2013-03-02T14:34:47Z</time>
      </trkpt>
      <trkpt lat="44.08557" lon="1.75339">
        <ele>159</ele>
        <time>2013-03-02T14:34:49Z</time>
      </trkpt>
      <trkpt lat="44.08555" lon="1.75348">
        <ele>159</ele>
        <time>2013-03-02T14:34:51Z</time>
      </trkpt>
      <trkpt lat="44.08554" lon="1.75357">
        <ele>159</ele>
        <time>2013-03-02T14:34:53Z</time>
      </trkpt>
      <trkpt lat="44.08553" lon="1.75367">
        <ele>160</ele>
        <time>2013-03-02T14:34:55Z</time>
      </trkpt>
      <trkpt lat="44.08553" lon="1.75376">
        <ele>160</ele>
        <time>2013-03-02T14:34:57Z</time>
      </trkpt>
      <trkpt lat="44.08554" lon="1.75385">
        <ele>161</ele>
        <time>2013-03-02T14:34:59Z</time>
      </trkpt>
      <trkpt lat="44.08555" lon="1.75394">
        <ele>161</ele>
        <time>2013-03-02T14:35:01Z</time>
      </trkpt>
      <trkpt lat="44.08557" lon="1.75404">
        <ele>161</ele>
        <time>2013-03-02T14:35:03Z</time>
      </trkpt>
      <trkpt lat="44.08558" lon="1.75414">
        <ele>161</ele>
        <time>2013-03-02T14:35:05Z</time>
      </trkpt>
      <trkpt lat="44.08559" lon="1.75425">
        <ele>162</ele>
        <time>2013-03-02T14:35:07Z</time>
      </trkpt>
      <trkpt lat="44.08559" lon="1.75435">
        <ele>162</ele>
        <time>2013-03-02T14:35:09Z</time>
      </trkpt>
      <trkpt lat="44.08559" lon="1.75444">
        <ele>162</ele>
        <time>2013-03-02T14:35:11Z</time>
      </trkpt>
      <trkpt lat="44.08558" lon="1.75456">
        <ele>162</ele>
        <time>2013-03-02T14:35:13Z</time>
      </trkpt>
      <trkpt lat="44.08556" lon="1.75467">
        <ele>162</ele>
        <time>2013-03-02T14:35:15Z</time>
      </trkpt>
      <trkpt lat="44.08554" lon="1.75477">
        <ele>162</ele>
        <time>2013-03-02T14:35:17Z</time>
      </trkpt>
      <trkpt lat="44.08553" lon="1.75487">
        <ele>163</ele>
        <time>2013-03-02T14:35:19Z</time>
      </trkpt>
      <trkpt lat="44.08551" lon="1.75496">
        <ele>163</ele>
        <time>2013-03-02T14:35:21Z</time>
      </trkpt>
      <trkpt lat="44.0855" lon="1.75506">
        <ele>164</ele>
        <time>2013-03-02T14:35:23Z</time>
      </trkpt>
      <trkpt lat="44.08549" lon="1.75515">
        <ele>164</ele>
        <time>2013-03-02T14:35:25Z</time>
      </trkpt>
      <trkpt lat="44.08548" lon="1.75526">
        <ele>165</ele>
        <time>2013-03-02T14:35:27Z</time>
      </trkpt>
      <trkpt lat="44.08546" lon="1.75536">
        <ele>166</ele>
        <time>2013-03-02T14:35:29Z</time>
      </trkpt>
      <trkpt lat="44.08544" lon="1.75545">
        <ele>167</ele>
        <time>2013-03-02T14:35:31Z</time>
      </trkpt>
      <trkpt lat="44.08542" lon="1.75554">
        <ele>168</ele>
        <time>2013-03-02T14:35:33Z</time>
      </trkpt>
      <trkpt lat="44.08541" lon="1.75564">
        <ele>168</ele>
        <time>2013-03-02T14:35:35Z</time>
      </trkpt>
      <trkpt lat="44.08539" lon="1.75574">
        <ele>169</ele>
        <time>2013-03-02T14:35:37Z</time>
      </trkpt>
      <trkpt lat="44.08537" lon="1.75584">
        <ele>169</ele>
        <time>2013-03-02T14:35:39Z</time>
      </trkpt>
      <trkpt lat="44.08535" lon="1.75594">
        <ele>170</ele>
        <time>2013-03-02T14:35:41Z</time>
      </trkpt>
      <trkpt lat="44.08533" lon="1.75604">
        <ele>171</ele>
        <time>2013-03-02T14:35:43Z</time>
      </trkpt>
      <trkpt lat="44.08532" lon="1.75615">
        <ele>171</ele>
        <time>2013-03-02T14:35:45Z</time>
      </trkpt>
      <trkpt lat="44.08532" lon="1.75626">
        <ele>172</ele>
        <time>2013-03-02T14:35:47Z</time>
      </trkpt>
      <trkpt lat="44.08534" lon="1.75636">
        <ele>172</ele>
        <time>2013-03-02T14:35:49Z</time>
      </trkpt>
      <trkpt lat="44.08536" lon="1.75647">
        <ele>172</ele>
        <time>2013-03-02T14:35:51Z</time>
      </trkpt>
      <trkpt lat="44.08538" lon="1.75658">
        <ele>172</ele>
        <time>2013-03-02T14:35:53Z</time>
      </trkpt>
      <trkpt lat="44.0854" lon="1.75668">
        <ele>172</ele>
        <time>2013-03-02T14:35:55Z</time>
      </trkpt>
      <trkpt lat="44.08543" lon="1.75676">
        <ele>172</ele>
        <time>2013-03-02T14:35:57Z</time>
      </trkpt>
      <trkpt lat="44.08547" lon="1.75686">
        <ele>172</ele>
        <time>2013-03-02T14:35:59Z</time>
      </trkpt>
      <trkpt lat="44.0855" lon="1.75695">
        <ele>172</ele>
        <time>2013-03-02T14:36:01Z</time>
      </trkpt>
      <trkpt lat="44.08553" lon="1.75705">
        <ele>172</ele>
        <time>2013-03-02T14:36:03Z</time>
      </trkpt>
      <trkpt lat="44.08556" lon="1.75715">
        <ele>172</ele>
        <time>2013-03-02T14:36:05Z</time>
      </trkpt>
      <trkpt lat="44.08559" lon="1.75726">
        <ele>172</ele>
        <time>2013-03-02T14:36:07Z</time>
      </trkpt>
      <trkpt lat="44.08562" lon="1.75735">
        <ele>172</ele>
        <time>2013-03-02T14:36:09Z</time>
      </trkpt>
      <trkpt lat="44.08564" lon="1.75746">
        <ele>172</ele>
        <time>2013-03-02T14:36:11Z</time>
      </trkpt>
      <trkpt lat="44.08567" lon="1.75756">
        <ele>172</ele>
        <time>2013-03-02T14:36:13Z</time>
      </trkpt>
      <trkpt lat="44.08569" lon="1.75766">
        <ele>172</ele>
        <time>2013-03-02T14:36:15Z</time>
      </trkpt>
      <trkpt lat="44.08572" lon="1.75776">
        <ele>172</ele>
        <time>2013-03-02T14:36:17Z</time>
      </trkpt>
      <trkpt lat="44.08575" lon="1.75786">
        <ele>172</ele>
        <time>2013-03-02T14:36:19Z</time>
      </trkpt>
      <trkpt lat="44.08578" lon="1.75796">
        <ele>173</ele>
        <time>2013-03-02T14:36:21Z</time>
      </trkpt>
      <trkpt lat="44.08582" lon="1.75804">
        <ele>173</ele>
        <time>2013-03-02T14:36:23Z</time>
      </trkpt>
      <trkpt lat="44.08585" lon="1.75813">
        <ele>174</ele>
        <time>2013-03-02T14:36:25Z</time>
      </trkpt>
      <trkpt lat="44.08588" lon="1.75823">
        <ele>174</ele>
        <time>2013-03-02T14:36:27Z</time>
      </trkpt>
      <trkpt lat="44.08591" lon="1.75832">
        <ele>174</ele>
        <time>2013-03-02T14:36:29Z</time>
      </trkpt>
      <trkpt lat="44.08595" lon="1.75841">
        <ele>175</ele>
        <time>2013-03-02T14:36:31Z</time>
      </trkpt>
      <trkpt lat="44.08597" lon="1.7585">
        <ele>175</ele>
        <time>2013-03-02T14:36:33Z</time>
      </trkpt>
      <trkpt lat="44.08597" lon="1.75859">
        <ele>176</ele>
        <time>2013-03-02T14:36:35Z</time>
      </trkpt>
      <trkpt lat="44.08598" lon="1.75868">
        <ele>176</ele>
        <time>2013-03-02T14:36:37Z</time>
      </trkpt>
      <trkpt lat="44.086" lon="1.75876">
        <ele>176</ele>
        <time>2013-03-02T14:36:39Z</time>
      </trkpt>
      <trkpt lat="44.08601" lon="1.75885">
        <ele>177</ele>
        <time>2013-03-02T14:36:41Z</time>
      </trkpt>
      <trkpt lat="44.08601" lon="1.75896">
        <ele>177</ele>
        <time>2013-03-02T14:36:43Z</time>
      </trkpt>
      <trkpt lat="44.08601" lon="1.75906">
        <ele>178</ele>
        <time>2013-03-02T14:36:45Z</time>
      </trkpt>
      <trkpt lat="44.08602" lon="1.75916">
        <ele>178</ele>
        <time>2013-03-02T14:36:47Z</time>
      </trkpt>
      <trkpt lat="44.08604" lon="1.75925">
        <ele>179</ele>
        <time>2013-03-02T14:36:49Z</time>
      </trkpt>
      <trkpt lat="44.08607" lon="1.75934">
        <ele>179</ele>
        <time>2013-03-02T14:36:51Z</time>
      </trkpt>
      <trkpt lat="44.08611" lon="1.75942">
        <ele>180</ele>
        <time>2013-03-02T14:36:53Z</time>
      </trkpt>
      <trkpt lat="44.08614" lon="1.75951">
        <ele>181</ele>
        <time>2013-03-02T14:36:55Z</time>
      </trkpt>
      <trkpt lat="44.08618" lon="1.7596">
        <ele>182</ele>
        <time>2013-03-02T14:36:57Z</time>
      </trkpt>
      <trkpt lat="44.08621" lon="1.75968">
        <ele>182</ele>
        <time>2013-03-02T14:36:59Z</time>
      </trkpt>
      <trkpt lat="44.08625" lon="1.75977">
        <ele>183</ele>
        <time>2013-03-02T14:37:01Z</time>
      </trkpt>
      <trkpt lat="44.08628" lon="1.75985">
        <ele>184</ele>
        <time>2013-03-02T14:37:03Z</time>
      </trkpt>
      <trkpt lat="44.08631" lon="1.75993">
        <ele>184</ele>
        <time>2013-03-02T14:37:05Z</time>
      </trkpt>
      <trkpt lat="44.08634" lon="1.76001">
        <ele>185</ele>
        <time>2013-03-02T14:37:07Z</time>
      </trkpt>
      <trkpt lat="44.08637" lon="1.7601">
        <ele>185</ele>
        <time>2013-03-02T14:37:09Z</time>
      </trkpt>
      <trkpt lat="44.0864" lon="1.76017">
        <ele>185</ele>
        <time>2013-03-02T14:37:11Z</time>
      </trkpt>
      <trkpt lat="44.08643" lon="1.76025">
        <ele>186</ele>
        <time>2013-03-02T14:37:13Z</time>
      </trkpt>
      <trkpt lat="44.08646" lon="1.76034">
        <ele>186</ele>
        <time>2013-03-02T14:37:15Z</time>
      </trkpt>
      <trkpt lat="44.08648" lon="1.76042">
        <ele>186</ele>
        <time>2013-03-02T14:37:17Z</time>
      </trkpt>
      <trkpt lat="44.08651" lon="1.76049">
        <ele>186</ele>
        <time>2013-03-02T14:37:19Z</time>
      </trkpt>
      <trkpt lat="44.08655" lon="1.76058">
        <ele>187</ele>
        <time>2013-03-02T14:37:21Z</time>
      </trkpt>
      <trkpt lat="44.08659" lon="1.76066">
        <ele>188</ele>
        <time>2013-03-02T14:37:23Z</time>
      </trkpt>
      <trkpt lat="44.08663" lon="1.76074">
        <ele>190</ele>
        <time>2013-03-02T14:37:25Z</time>
      </trkpt>
      <trkpt lat="44.08668" lon="1.76081">
        <ele>190</ele>
        <time>2013-03-02T14:37:27Z</time>
      </trkpt>
      <trkpt lat="44.08672" lon="1.76089">
        <ele>191</ele>
        <time>2013-03-02T14:37:29Z</time>
      </trkpt>
      <trkpt lat="44.08676" lon="1.76096">
        <ele>191</ele>
        <time>2013-03-02T14:37:31Z</time>
      </trkpt>
      <trkpt lat="44.08681" lon="1.76103">
        <ele>192</ele>
        <time>2013-03-02T14:37:33Z</time>
      </trkpt>
      <trkpt lat="44.08685" lon="1.7611">
        <ele>193</ele>
        <time>2013-03-02T14:37:35Z</time>
      </trkpt>
      <trkpt lat="44.08689" lon="1.76117">
        <ele>194</ele>
        <time>2013-03-02T14:37:37Z</time>
      </trkpt>
      <trkpt lat="44.08693" lon="1.76125">
        <ele>195</ele>
        <time>2013-03-02T14:37:39Z</time>
      </trkpt>
      <trkpt lat="44.08698" lon="1.76131">
        <ele>195</ele>
        <time>2013-03-02T14:37:41Z</time>
      </trkpt>
      <trkpt lat="44.08702" lon="1.76139">
        <ele>195</ele>
        <time>2013-03-02T14:37:43Z</time>
      </trkpt>
      <trkpt lat="44.08707" lon="1.76146">
        <ele>195</ele>
        <time>2013-03-02T14:37:45Z</time>
      </trkpt>
      <trkpt lat="44.08711" lon="1.76153">
        <ele>196</ele>
        <time>2013-03-02T14:37:47Z</time>
      </trkpt>
      <trkpt lat="44.08716" lon="1.7616">
        <ele>197</ele>
        <time>2013-03-02T14:37:49Z</time>
      </trkpt>
      <trkpt lat="44.0872" lon="1.76168">
        <ele>197</ele>
        <time>2013-03-02T14:37:51Z</time>
      </trkpt>
      <trkpt lat="44.08725" lon="1.76175">
        <ele>198</ele>
        <time>2013-03-02T14:37:53Z</time>
      </trkpt>
      <trkpt lat="44.0873" lon="1.76182">
        <ele>198</ele>
        <time>2013-03-02T14:37:55Z</time>
      </trkpt>
      <trkpt lat="44.08735" lon="1.76189">
        <ele>198</ele>
        <time>2013-03-02T14:37:57Z</time>
      </trkpt>
      <trkpt lat="44.08739" lon="1.76196">
        <ele>198</ele>
        <time>2013-03-02T14:37:59Z</time>
      </trkpt>
      <trkpt lat="44.08744" lon="1.76202">
        <ele>198</ele>
        <time>2013-03-02T14:38:01Z</time>
      </trkpt>
      <trkpt lat="44.08751" lon="1.76209">
        <ele>198</ele>
        <time>2013-03-02T14:38:03Z</time>
      </trkpt>
      <trkpt lat="44.08757" lon="1.76215">
        <ele>198</ele>
        <time>2013-03-02T14:38:05Z</time>
      </trkpt>
      <trkpt lat="44.08763" lon="1.76221">
        <ele>198</ele>
        <time>2013-03-02T14:38:07Z</time>
      </trkpt>
      <trkpt lat="44.0877" lon="1.76227">
        <ele>198</ele>
        <time>2013-03-02T14:38:09Z</time>
      </trkpt>
      <trkpt lat="44.08776" lon="1.76235">
        <ele>198</ele>
        <time>2013-03-02T14:38:11Z</time>
      </trkpt>
      <trkpt lat="44.08782" lon="1.76243">
        <ele>198</ele>
        <time>2013-03-02T14:38:13Z</time>
      </trkpt>
      <trkpt lat="44.08788" lon="1.76251">
        <ele>198</ele>
        <time>2013-03-02T14:38:15Z</time>
      </trkpt>
      <trkpt lat="44.08793" lon="1.76259">
        <ele>198</ele>
        <time>2013-03-02T14:38:17Z</time>
      </trkpt>
      <trkpt lat="44.08799" lon="1.76267">
        <ele>198</ele>
        <time>2013-03-02T14:38:19Z</time>
      </trkpt>
      <trkpt lat="44.08804" lon="1.76275">
        <ele>198</ele>
        <time>2013-03-02T14:38:21Z</time>
      </trkpt>
      <trkpt lat="44.0881" lon="1.76284">
        <ele>198</ele>
        <time>2013-03-02T14:38:23Z</time>
      </trkpt>
      <trkpt lat="44.08815" lon="1.76292">
        <ele>198</ele>
        <time>2013-03-02T14:38:25Z</time>
      </trkpt>
      <trkpt lat="44.0882" lon="1.76301">
        <ele>199</ele>
        <time>2013-03-02T14:38:27Z</time>
      </trkpt>
      <trkpt lat="44.08825" lon="1.76309">
        <ele>199</ele>
        <time>2013-03-02T14:38:29Z</time>
      </trkpt>
      <trkpt lat="44.0883" lon="1.76318">
        <ele>199</ele>
        <time>2013-03-02T14:38:31Z</time>
      </trkpt>
      <trkpt lat="44.08835" lon="1.76326">
        <ele>199</ele>
        <time>2013-03-02T14:38:33Z</time>
      </trkpt>
      <trkpt lat="44.08841" lon="1.76335">
        <ele>199</ele>
        <time>2013-03-02T14:38:35Z</time>
      </trkpt>
      <trkpt lat="44.08846" lon="1.76344">
        <ele>200</ele>
        <time>2013-03-02T14:38:37Z</time>
      </trkpt>
      <trkpt lat="44.0885" lon="1.76352">
        <ele>200</ele>
        <time>2013-03-02T14:38:39Z</time>
      </trkpt>
      <trkpt lat="44.08855" lon="1.76361">
        <ele>201</ele>
        <time>2013-03-02T14:38:41Z</time>
      </trkpt>
      <trkpt lat="44.08861" lon="1.7637">
        <ele>201</ele>
        <time>2013-03-02T14:38:43Z</time>
      </trkpt>
      <trkpt lat="44.08867" lon="1.76378">
        <ele>202</ele>
        <time>2013-03-02T14:38:45Z</time>
      </trkpt>
      <trkpt lat="44.08871" lon="1.76388">
        <ele>202</ele>
        <time>2013-03-02T14:38:47Z</time>
      </trkpt>
      <trkpt lat="44.08876" lon="1.76397">
        <ele>203</ele>
        <time>2013-03-02T14:38:49Z</time>
      </trkpt>
      <trkpt lat="44.08881" lon="1.76406">
        <ele>203</ele>
        <time>2013-03-02T14:38:51Z</time>
      </trkpt>
      <trkpt lat="44.08885" lon="1.76416">
        <ele>204</ele>
        <time>2013-03-02T14:38:53Z</time>
      </trkpt>
      <trkpt lat="44.0889" lon="1.76425">
        <ele>204</ele>
        <time>2013-03-02T14:38:55Z</time>
      </trkpt>
      <trkpt lat="44.08894" lon="1.76435">
        <ele>205</ele>
        <time>2013-03-02T14:38:57Z</time>
      </trkpt>
      <trkpt lat="44.08897" lon="1.76445">
        <ele>205</ele>
        <time>2013-03-02T14:38:59Z</time>
      </trkpt>
      <trkpt lat="44.089" lon="1.76454">
        <ele>205</ele>
        <time>2013-03-02T14:39:01Z</time>
      </trkpt>
      <trkpt lat="44.08905" lon="1.76463">
        <ele>205</ele>
        <time>2013-03-02T14:39:03Z</time>
      </trkpt>
      <trkpt lat="44.08909" lon="1.76472">
        <ele>205</ele>
        <time>2013-03-02T14:39:05Z</time>
      </trkpt>
      <trkpt lat="44.08914" lon="1.76481">
        <ele>205</ele>
        <time>2013-03-02T14:39:07Z</time>
      </trkpt>
      <trkpt lat="44.08919" lon="1.7649">
        <ele>205</ele>
        <time>2013-03-02T14:39:09Z</time>
      </trkpt>
      <trkpt lat="44.08924" lon="1.765">
        <ele>205</ele>
        <time>2013-03-02T14:39:11Z</time>
      </trkpt>
      <trkpt lat="44.08931" lon="1.76509">
        <ele>205</ele>
        <time>2013-03-02T14:39:13Z</time>
      </trkpt>
      <trkpt lat="44.08938" lon="1.76517">
        <ele>205</ele>
        <time>2013-03-02T14:39:15Z</time>
      </trkpt>
      <trkpt lat="44.08945" lon="1.76524">
        <ele>205</ele>
        <time>2013-03-02T14:39:17Z</time>
      </trkpt>
      <trkpt lat="44.08952" lon="1.76532">
        <ele>206</ele>
        <time>2013-03-02T14:39:19Z</time>
      </trkpt>
      <trkpt lat="44.0896" lon="1.7654">
        <ele>206</ele>
        <time>2013-03-02T14:39:21Z</time>
      </trkpt>
      <trkpt lat="44.08968" lon="1.76547">
        <ele>206</ele>
        <time>2013-03-02T14:39:23Z</time>
      </trkpt>
      <trkpt lat="44.08975" lon="1.76555">
        <ele>206</ele>
        <time>2013-03-02T14:39:25Z</time>
      </trkpt>
      <trkpt lat="44.08981" lon="1.76564">
        <ele>207</ele>
        <time>2013-03-02T14:39:27Z</time>
      </trkpt>
      <trkpt lat="44.08986" lon="1.76575">
        <ele>208</ele>
        <time>2013-03-02T14:39:29Z</time>
      </trkpt>
      <trkpt lat="44.0899" lon="1.76587">
        <ele>208</ele>
        <time>2013-03-02T14:39:31Z</time>
      </trkpt>
      <trkpt lat="44.08995" lon="1.76598">
        <ele>208</ele>
        <time>2013-03-02T14:39:33Z</time>
      </trkpt>
      <trkpt lat="44.09002" lon="1.76608">
        <ele>209</ele>
        <time>2013-03-02T14:39:35Z</time>
      </trkpt>
      <trkpt lat="44.09007" lon="1.7662">
        <ele>209</ele>
        <time>2013-03-02T14:39:37Z</time>
      </trkpt>
      <trkpt lat="44.09012" lon="1.7663">
        <ele>210</ele>
        <time>2013-03-02T14:39:39Z</time>
      </trkpt>
      <trkpt lat="44.09018" lon="1.7664">
        <ele>210</ele>
        <time>2013-03-02T14:39:41Z</time>
      </trkpt>
      <trkpt lat="44.09024" lon="1.76649">
        <ele>210</ele>
        <time>2013-03-02T14:39:43Z</time>
      </trkpt>
      <trkpt lat="44.09032" lon="1.76659">
        <ele>210</ele>
        <time>2013-03-02T14:39:45Z</time>
      </trkpt>
      <trkpt lat="44.09038" lon="1.76668">
        <ele>210</ele>
        <time>2013-03-02T14:39:47Z</time>
      </trkpt>
      <trkpt lat="44.09043" lon="1.76678">
        <ele>210</ele>
        <time>2013-03-02T14:39:49Z</time>
      </trkpt>
      <trkpt lat="44.09047" lon="1.76689">
        <ele>210</ele>
        <time>2013-03-02T14:39:51Z</time>
      </trkpt>
      <trkpt lat="44.09051" lon="1.767">
        <ele>210</ele>
        <time>2013-03-02T14:39:53Z</time>
      </trkpt>
      <trkpt lat="44.09053" lon="1.76713">
        <ele>210</ele>
        <time>2013-03-02T14:39:55Z</time>
      </trkpt>
      <trkpt lat="44.09055" lon="1.76725">
        <ele>210</ele>
        <time>2013-03-02T14:39:57Z</time>
      </trkpt>
      <trkpt lat="44.09059" lon="1.76736">
        <ele>211</ele>
        <time>2013-03-02T14:39:59Z</time>
      </trkpt>
      <trkpt lat="44.09064" lon="1.76746">
        <ele>211</ele>
        <time>2013-03-02T14:40:01Z</time>
      </trkpt>
      <trkpt lat="44.09071" lon="1.76755">
        <ele>211</ele>
        <time>2013-03-02T14:40:03Z</time>
      </trkpt>
      <trkpt lat="44.09079" lon="1.76762">
        <ele>211</ele>
        <time>2013-03-02T14:40:05Z</time>
      </trkpt>
      <trkpt lat="44.09087" lon="1.76769">
        <ele>211</ele>
        <time>2013-03-02T14:40:07Z</time>
      </trkpt>
      <trkpt lat="44.09095" lon="1.76775">
        <ele>211</ele>
        <time>2013-03-02T14:40:09Z</time>
      </trkpt>
      <trkpt lat="44.09103" lon="1.7678">
        <ele>211</ele>
        <time>2013-03-02T14:40:11Z</time>
      </trkpt>
      <trkpt lat="44.09111" lon="1.76787">
        <ele>211</ele>
        <time>2013-03-02T14:40:13Z</time>
      </trkpt>
      <trkpt lat="44.09119" lon="1.76795">
        <ele>212</ele>
        <time>2013-03-02T14:40:15Z</time>
      </trkpt>
      <trkpt lat="44.09127" lon="1.76802">
        <ele>212</ele>
        <time>2013-03-02T14:40:17Z</time>
      </trkpt>
      <trkpt lat="44.09136" lon="1.76809">
        <ele>212</ele>
        <time>2013-03-02T14:40:19Z</time>
      </trkpt>
      <trkpt lat="44.09144" lon="1.76815">
        <ele>212</ele>
        <time>2013-03-02T14:40:21Z</time>
      </trkpt>
      <trkpt lat="44.09153" lon="1.76821">
        <ele>212</ele>
        <time>2013-03-02T14:40:23Z</time>
      </trkpt>
      <trkpt lat="44.09161" lon="1.76829">
        <ele>213</ele>
        <time>2013-03-02T14:40:25Z</time>
      </trkpt>
      <trkpt lat="44.09169" lon="1.76838">
        <ele>214</ele>
        <time>2013-03-02T14:40:27Z</time>
      </trkpt>
      <trkpt lat="44.09177" lon="1.76848">
        <ele>215</ele>
        <time>2013-03-02T14:40:29Z</time>
      </trkpt>
      <trkpt lat="44.09183" lon="1.76857">
        <ele>216</ele>
        <time>2013-03-02T14:40:31Z</time>
      </trkpt>
      <trkpt lat="44.0919" lon="1.76866">
        <ele>217</ele>
        <time>2013-03-02T14:40:33Z</time>
      </trkpt>
      <trkpt lat="44.09198" lon="1.76875">
        <ele>218</ele>
        <time>2013-03-02T14:40:35Z</time>
      </trkpt>
      <trkpt lat="44.09206" lon="1.76883">
        <ele>218</ele>
        <time>2013-03-02T14:40:37Z</time>
      </trkpt>
      <trkpt lat="44.09213" lon="1.7689">
        <ele>219</ele>
        <time>2013-03-02T14:40:39Z</time>
      </trkpt>
      <trkpt lat="44.0922" lon="1.76898">
        <ele>219</ele>
        <time>2013-03-02T14:40:41Z</time>
      </trkpt>
      <trkpt lat="44.09226" lon="1.76908">
        <ele>219</ele>
        <time>2013-03-02T14:40:43Z</time>
      </trkpt>
      <trkpt lat="44.09231" lon="1.76919">
        <ele>219</ele>
        <time>2013-03-02T14:40:45Z</time>
      </trkpt>
      <trkpt lat="44.09237" lon="1.7693">
        <ele>219</ele>
        <time>2013-03-02T14:40:47Z</time>
      </trkpt>
      <trkpt lat="44.09244" lon="1.76939">
        <ele>219</ele>
        <time>2013-03-02T14:40:49Z</time>
      </trkpt>
      <trkpt lat="44.09252" lon="1.76948">
        <ele>219</ele>
        <time>2013-03-02T14:40:51Z</time>
      </trkpt>
      <trkpt lat="44.09261" lon="1.76955">
        <ele>219</ele>
        <time>2013-03-02T14:40:53Z</time>
      </trkpt>
      <trkpt lat="44.0927" lon="1.76961">
        <ele>220</ele>
        <time>2013-03-02T14:40:55Z</time>
      </trkpt>
      <trkpt lat="44.0928" lon="1.76966">
        <ele>220</ele>
        <time>2013-03-02T14:40:57Z</time>
      </trkpt>
      <trkpt lat="44.0929" lon="1.7697">
        <ele>220</ele>
        <time>2013-03-02T14:40:59Z</time>
      </trkpt>
      <trkpt lat="44.093" lon="1.76974">
        <ele>220</ele>
        <time>2013-03-02T14:41:01Z</time>
      </trkpt>
      <trkpt lat="44.09309" lon="1.76978">
        <ele>220</ele>
        <time>2013-03-02T14:41:03Z</time>
      </trkpt>
      <trkpt lat="44.09318" lon="1.76985">
        <ele>220</ele>
        <time>2013-03-02T14:41:05Z</time>
      </trkpt>
      <trkpt lat="44.09326" lon="1.76994">
        <ele>220</ele>
        <time>2013-03-02T14:41:07Z</time>
      </trkpt>
      <trkpt lat="44.09332" lon="1.77005">
        <ele>221</ele>
        <time>2013-03-02T14:41:09Z</time>
      </trkpt>
      <trkpt lat="44.09337" lon="1.77018">
        <ele>221</ele>
        <time>2013-03-02T14:41:11Z</time>
      </trkpt>
      <trkpt lat="44.09343" lon="1.7703">
        <ele>222</ele>
        <time>2013-03-02T14:41:13Z</time>
      </trkpt>
      <trkpt lat="44.09347" lon="1.77043">
        <ele>222</ele>
        <time>2013-03-02T14:41:15Z</time>
      </trkpt>
      <trkpt lat="44.09352" lon="1.77056">
        <ele>222</ele>
        <time>2013-03-02T14:41:17Z</time>
      </trkpt>
      <trkpt lat="44.09357" lon="1.77069">
        <ele>222</ele>
        <time>2013-03-02T14:41:19Z</time>
      </trkpt>
      <trkpt lat="44.09361" lon="1.77083">
        <ele>222</ele>
        <time>2013-03-02T14:41:21Z</time>
      </trkpt>
      <trkpt lat="44.09365" lon="1.77096">
        <ele>222</ele>
        <time>2013-03-02T14:41:23Z</time>
      </trkpt>
      <trkpt lat="44.09368" lon="1.7711">
        <ele>222</ele>
        <time>2013-03-02T14:41:25Z</time>
      </trkpt>
      <trkpt lat="44.09372" lon="1.77122">
        <ele>222</ele>
        <time>2013-03-02T14:41:27Z</time>
      </trkpt>
      <trkpt lat="44.09377" lon="1.77135">
        <ele>222</ele>
        <time>2013-03-02T14:41:29Z</time>
      </trkpt>
      <trkpt lat="44.09383" lon="1.77146">
        <ele>222</ele>
        <time>2013-03-02T14:41:31Z</time>
      </trkpt>
      <trkpt lat="44.09388" lon="1.77157">
        <ele>222</ele>
        <time>2013-03-02T14:41:33Z</time>
      </trkpt>
      <trkpt lat="44.09394" lon="1.7717">
        <ele>222</ele>
        <time>2013-03-02T14:41:35Z</time>
      </trkpt>
      <trkpt lat="44.09399" lon="1.77184">
        <ele>222</ele>
        <time>2013-03-02T14:41:37Z</time>
      </trkpt>
      <trkpt lat="44.09404" lon="1.77197">
        <ele>222</ele>
        <time>2013-03-02T14:41:39Z</time>
      </trkpt>
      <trkpt lat="44.09407" lon="1.77211">
        <ele>222</ele>
        <time>2013-03-02T14:41:41Z</time>
      </trkpt>
      <trkpt lat="44.09411" lon="1.77226">
        <ele>222</ele>
        <time>2013-03-02T14:41:43Z</time>
      </trkpt>
      <trkpt lat="44.09413" lon="1.77243">
        <ele>222</ele>
        <time>2013-03-02T14:41:45Z</time>
      </trkpt>
      <trkpt lat="44.09416" lon="1.77258">
        <ele>222</ele>
        <time>2013-03-02T14:41:47Z</time>
      </trkpt>
      <trkpt lat="44.09418" lon="1.77276">
        <ele>222</ele>
        <time>2013-03-02T14:41:49Z</time>
      </trkpt>
      <trkpt lat="44.0942" lon="1.77294">
        <ele>222</ele>
        <time>2013-03-02T14:41:51Z</time>
      </trkpt>
      <trkpt lat="44.09422" lon="1.77311">
        <ele>222</ele>
        <time>2013-03-02T14:41:53Z</time>
      </trkpt>
      <trkpt lat="44.09423" lon="1.77327">
        <ele>222</ele>
        <time>2013-03-02T14:41:55Z</time>
      </trkpt>
      <trkpt lat="44.09424" lon="1.77343">
        <ele>222</ele>
        <time>2013-03-02T14:41:57Z</time>
      </trkpt>
      <trkpt lat="44.09425" lon="1.77358">
        <ele>223</ele>
        <time>2013-03-02T14:41:59Z</time>
      </trkpt>
      <trkpt lat="44.09427" lon="1.77374">
        <ele>223</ele>
        <time>2013-03-02T14:42:01Z</time>
      </trkpt>
      <trkpt lat="44.0943" lon="1.77389">
        <ele>224</ele>
        <time>2013-03-02T14:42:03Z</time>
      </trkpt>
      <trkpt lat="44.09432" lon="1.77402">
        <ele>224</ele>
        <time>2013-03-02T14:42:05Z</time>
      </trkpt>
      <trkpt lat="44.09435" lon="1.77416">
        <ele>225</ele>
        <time>2013-03-02T14:42:07Z</time>
      </trkpt>
      <trkpt lat="44.09438" lon="1.77429">
        <ele>225</ele>
        <time>2013-03-02T14:42:09Z</time>
      </trkpt>
      <trkpt lat="44.09442" lon="1.77439">
        <ele>225</ele>
        <time>2013-03-02T14:42:11Z</time>
      </trkpt>
      <trkpt lat="44.0945" lon="1.77443">
        <ele>225</ele>
        <time>2013-03-02T14:42:13Z</time>
      </trkpt>
      <trkpt lat="44.0946" lon="1.77439">
        <ele>225</ele>
        <time>2013-03-02T14:42:15Z</time>
      </trkpt>
      <trkpt lat="44.0947" lon="1.77427">
        <ele>225</ele>
        <time>2013-03-02T14:42:17Z</time>
      </trkpt>
      <trkpt lat="44.09477" lon="1.77411">
        <ele>225</ele>
        <time>2013-03-02T14:42:19Z</time>
      </trkpt>
      <trkpt lat="44.09483" lon="1.77396">
        <ele>225</ele>
        <time>2013-03-02T14:42:21Z</time>
      </trkpt>
      <trkpt lat="44.09488" lon="1.77383">
        <ele>225</ele>
        <time>2013-03-02T14:42:23Z</time>
      </trkpt>
      <trkpt lat="44.09491" lon="1.77374">
        <ele>225</ele>
        <time>2013-03-02T14:42:25Z</time>
      </trkpt>
      <trkpt lat="44.09494" lon="1.77366">
        <ele>225</ele>
        <time>2013-03-02T14:42:27Z</time>
      </trkpt>
      <trkpt lat="44.09496" lon="1.77358">
        <ele>225</ele>
        <time>2013-03-02T14:42:29Z</time>
      </trkpt>
      <trkpt lat="44.09498" lon="1.7735">
        <ele>225</ele>
        <time>2013-03-02T14:42:31Z</time>
      </trkpt>
      <trkpt lat="44.095" lon="1.77343">
        <ele>225</ele>
        <time>2013-03-02T14:42:33Z</time>
      </trkpt>
      <trkpt lat="44.09502" lon="1.77336">
        <ele>225</ele>
        <time>2013-03-02T14:42:35Z</time>
      </trkpt>
      <trkpt lat="44.09505" lon="1.7733">
        <ele>225</ele>
        <time>2013-03-02T14:42:37Z</time>
      </trkpt>
      <trkpt lat="44.09507" lon="1.77324">
        <ele>225</ele>
        <time>2013-03-02T14:42:39Z</time>
      </trkpt>
      <trkpt lat="44.0951" lon="1.77319">
        <ele>225</ele>
        <time>2013-03-02T14:42:41Z</time>
      </trkpt>
      <trkpt lat="44.09514" lon="1.77314">
        <ele>226</ele>
        <time>2013-03-02T14:42:43Z</time>
      </trkpt>
      <trkpt lat="44.09518" lon="1.77311">
        <ele>227</ele>
        <time>2013-03-02T14:42:45Z</time>
      </trkpt>
      <trkpt lat="44.09522" lon="1.77308">
        <ele>227</ele>
        <time>2013-03-02T14:42:47Z</time>
      </trkpt>
      <trkpt lat="44.09526" lon="1.77306">
        <ele>228</ele>
        <time>2013-03-02T14:42:49Z</time>
      </trkpt>
      <trkpt lat="44.0953" lon="1.77307">
        <ele>229</ele>
        <time>2013-03-02T14:42:51Z</time>
      </trkpt>
      <trkpt lat="44.09535" lon="1.77309">
        <ele>230</ele>
        <time>2013-03-02T14:42:53Z</time>
      </trkpt>
      <trkpt lat="44.0954" lon="1.77312">
        <ele>230</ele>
        <time>2013-03-02T14:42:55Z</time>
      </trkpt>
      <trkpt lat="44.09544" lon="1.77316">
        <ele>231</ele>
        <time>2013-03-02T14:42:57Z</time>
      </trkpt>
      <trkpt lat="44.09548" lon="1.77321">
        <ele>231</ele>
        <time>2013-03-02T14:42:59Z</time>
      </trkpt>
      <trkpt lat="44.09552" lon="1.77326">
        <ele>232</ele>
        <time>2013-03-02T14:43:01Z</time>
      </trkpt>
      <trkpt lat="44.09555" lon="1.77331">
        <ele>233</ele>
        <time>2013-03-02T14:43:03Z</time>
      </trkpt>
      <trkpt lat="44.09558" lon="1.77337">
        <ele>233</ele>
        <time>2013-03-02T14:43:05Z</time>
      </trkpt>
      <trkpt lat="44.09561" lon="1.77344">
        <ele>234</ele>
        <time>2013-03-02T14:43:07Z</time>
      </trkpt>
      <trkpt lat="44.09563" lon="1.77352">
        <ele>234</ele>
        <time>2013-03-02T14:43:09Z</time>
      </trkpt>
      <trkpt lat="44.09567" lon="1.77361">
        <ele>235</ele>
        <time>2013-03-02T14:43:11Z</time>
      </trkpt>
      <trkpt lat="44.0957" lon="1.77372">
        <ele>235</ele>
        <time>2013-03-02T14:43:13Z</time>
      </trkpt>
      <trkpt lat="44.09574" lon="1.77385">
        <ele>235</ele>
        <time>2013-03-02T14:43:15Z</time>
      </trkpt>
      <trkpt lat="44.09579" lon="1.77399">
        <ele>235</ele>
        <time>2013-03-02T14:43:17Z</time>
      </trkpt>
      <trkpt lat="44.09585" lon="1.77413">
        <ele>235</ele>
        <time>2013-03-02T14:43:19Z</time>
      </trkpt>
      <trkpt lat="44.09591" lon="1.77426">
        <ele>235</ele>
        <time>2013-03-02T14:43:21Z</time>
      </trkpt>
      <trkpt lat="44.09597" lon="1.77441">
        <ele>235</ele>
        <time>2013-03-02T14:43:23Z</time>
      </trkpt>
      <trkpt lat="44.09605" lon="1.77455">
        <ele>235</ele>
        <time>2013-03-02T14:43:25Z</time>
      </trkpt>
      <trkpt lat="44.09612" lon="1.77468">
        <ele>235</ele>
        <time>2013-03-02T14:43:27Z</time>
      </trkpt>
      <trkpt lat="44.09618" lon="1.7748">
        <ele>235</ele>
        <time>2013-03-02T14:43:29Z</time>
      </trkpt>
      <trkpt lat="44.09626" lon="1.7749">
        <ele>235</ele>
        <time>2013-03-02T14:43:31Z</time>
      </trkpt>
      <trkpt lat="44.09633" lon="1.77498">
        <ele>235</ele>
        <time>2013-03-02T14:43:33Z</time>
      </trkpt>
      <trkpt lat="44.0964" lon="1.77506">
        <ele>235</ele>
        <time>2013-03-02T14:43:35Z</time>
      </trkpt>
      <trkpt lat="44.09647" lon="1.77513">
        <ele>235</ele>
        <time>2013-03-02T14:43:37Z</time>
      </trkpt>
      <trkpt lat="44.09653" lon="1.7752">
        <ele>236</ele>
        <time>2013-03-02T14:43:39Z</time>
      </trkpt>
      <trkpt lat="44.09659" lon="1.77526">
        <ele>237</ele>
        <time>2013-03-02T14:43:41Z</time>
      </trkpt>
      <trkpt lat="44.09665" lon="1.77532">
        <ele>237</ele>
        <time>2013-03-02T14:43:43Z</time>
      </trkpt>
      <trkpt lat="44.09671" lon="1.77539">
        <ele>238</ele>
        <time>2013-03-02T14:43:45Z</time>
      </trkpt>
      <trkpt lat="44.09676" lon="1.77544">
        <ele>239</ele>
        <time>2013-03-02T14:43:47Z</time>
      </trkpt>
      <trkpt lat="44.09681" lon="1.77549">
        <ele>240</ele>
        <time>2013-03-02T14:43:49Z</time>
      </trkpt>
      <trkpt lat="44.09686" lon="1.77555">
        <ele>241</ele>
        <time>2013-03-02T14:43:51Z</time>
      </trkpt>
      <trkpt lat="44.09691" lon="1.7756">
        <ele>242</ele>
        <time>2013-03-02T14:43:53Z</time>
      </trkpt>
      <trkpt lat="44.09695" lon="1.77565">
        <ele>243</ele>
        <time>2013-03-02T14:43:55Z</time>
      </trkpt>
      <trkpt lat="44.09698" lon="1.7757">
        <ele>244</ele>
        <time>2013-03-02T14:43:57Z</time>
      </trkpt>
      <trkpt lat="44.09703" lon="1.77574">
        <ele>245</ele>
        <time>2013-03-02T14:43:59Z</time>
      </trkpt>
      <trkpt lat="44.09706" lon="1.77578">
        <ele>245</ele>
        <time>2013-03-02T14:44:01Z</time>
      </trkpt>
      <trkpt lat="44.0971" lon="1.77583">
        <ele>246</ele>
        <time>2013-03-02T14:44:03Z</time>
      </trkpt>
      <trkpt lat="44.09714" lon="1.77588">
        <ele>247</ele>
        <time>2013-03-02T14:44:05Z</time>
      </trkpt>
      <trkpt lat="44.09718" lon="1.77592">
        <ele>247</ele>
        <time>2013-03-02T14:44:07Z</time>
      </trkpt>
      <trkpt lat="44.09721" lon="1.77596">
        <ele>248</ele>
        <time>2013-03-02T14:44:09Z</time>
      </trkpt>
      <trkpt lat="44.09726" lon="1.77601">
        <ele>248</ele>
        <time>2013-03-02T14:44:11Z</time>
      </trkpt>
      <trkpt lat="44.0973" lon="1.77605">
        <ele>249</ele>
        <time>2013-03-02T14:44:13Z</time>
      </trkpt>
      <trkpt lat="44.09734" lon="1.7761">
        <ele>249</ele>
        <time>2013-03-02T14:44:15Z</time>
      </trkpt>
      <trkpt lat="44.09737" lon="1.77614">
        <ele>250</ele>
        <time>2013-03-02T14:44:17Z</time>
      </trkpt>
      <trkpt lat="44.09741" lon="1.77617">
        <ele>250</ele>
        <time>2013-03-02T14:44:19Z</time>
      </trkpt>
      <trkpt lat="44.09745" lon="1.77619">
        <ele>251</ele>
        <time>2013-03-02T14:44:21Z</time>
      </trkpt>
      <trkpt lat="44.0975" lon="1.77619">
        <ele>253</ele>
        <time>2013-03-02T14:44:23Z</time>
      </trkpt>
      <trkpt lat="44.09754" lon="1.77617">
        <ele>254</ele>
        <time>2013-03-02T14:44:25Z</time>
      </trkpt>
      <trkpt lat="44.09758" lon="1.77612">
        <ele>254</ele>
        <time>2013-03-02T14:44:27Z</time>
      </trkpt>
      <trkpt lat="44.09762" lon="1.77607">
        <ele>255</ele>
        <time>2013-03-02T14:44:29Z</time>
      </trkpt>
      <trkpt lat="44.09765" lon="1.77601">
        <ele>255</ele>
        <time>2013-03-02T14:44:31Z</time>
      </trkpt>
      <trkpt lat="44.09768" lon="1.77596">
        <ele>255</ele>
        <time>2013-03-02T14:44:33Z</time>
      </trkpt>
      <trkpt lat="44.0977" lon="1.77591">
        <ele>255</ele>
        <time>2013-03-02T14:44:35Z</time>
      </trkpt>
      <trkpt lat="44.09773" lon="1.77585">
        <ele>255</ele>
        <time>2013-03-02T14:44:37Z</time>
      </trkpt>
      <trkpt lat="44.09775" lon="1.7758">
        <ele>255</ele>
        <time>2013-03-02T14:44:39Z</time>
      </trkpt>
      <trkpt lat="44.09778" lon="1.77574">
        <ele>255</ele>
        <time>2013-03-02T14:44:41Z</time>
      </trkpt>
      <trkpt lat="44.0978" lon="1.77568">
        <ele>255</ele>
        <time>2013-03-02T14:44:43Z</time>
      </trkpt>
      <trkpt lat="44.09782" lon="1.77562">
        <ele>255</ele>
        <time>2013-03-02T14:44:45Z</time>
      </trkpt>
      <trkpt lat="44.09784" lon="1.77556">
        <ele>255</ele>
        <time>2013-03-02T14:44:47Z</time>
      </trkpt>
      <trkpt lat="44.09786" lon="1.7755">
        <ele>257</ele>
        <time>2013-03-02T14:44:49Z</time>
      </trkpt>
      <trkpt lat="44.09788" lon="1.77544">
        <ele>258</ele>
        <time>2013-03-02T14:44:51Z</time>
      </trkpt>
      <trkpt lat="44.0979" lon="1.77538">
        <ele>258</ele>
        <time>2013-03-02T14:44:53Z</time>
      </trkpt>
      <trkpt lat="44.09792" lon="1.77532">
        <ele>259</ele>
        <time>2013-03-02T14:44:55Z</time>
      </trkpt>
      <trkpt lat="44.09795" lon="1.77526">
        <ele>260</ele>
        <time>2013-03-02T14:44:57Z</time>
      </trkpt>
      <trkpt lat="44.09796" lon="1.7752">
        <ele>261</ele>
        <time>2013-03-02T14:44:59Z</time>
      </trkpt>
      <trkpt lat="44.09798" lon="1.77514">
        <ele>261</ele>
        <time>2013-03-02T14:45:01Z</time>
      </trkpt>
      <trkpt lat="44.098" lon="1.77508">
        <ele>262</ele>
        <time>2013-03-02T14:45:03Z</time>
      </trkpt>
      <trkpt lat="44.09801" lon="1.77502">
        <ele>262</ele>
        <time>2013-03-02T14:45:05Z</time>
      </trkpt>
      <trkpt lat="44.09803" lon="1.77497">
        <ele>263</ele>
        <time>2013-03-02T14:45:07Z</time>
      </trkpt>
      <trkpt lat="44.09804" lon="1.7749">
        <ele>263</ele>
        <time>2013-03-02T14:45:09Z</time>
      </trkpt>
      <trkpt lat="44.09806" lon="1.77485">
        <ele>264</ele>
        <time>2013-03-02T14:45:11Z</time>
      </trkpt>
      <trkpt lat="44.09806" lon="1.77478">
        <ele>265</ele>
        <time>2013-03-02T14:45:13Z</time>
      </trkpt>
      <trkpt lat="44.09807" lon="1.77472">
        <ele>265</ele>
        <time>2013-03-02T14:45:15Z</time>
      </trkpt>
      <trkpt lat="44.09808" lon="1.77466">
        <ele>266</ele>
        <time>2013-03-02T14:45:17Z</time>
      </trkpt>
      <trkpt lat="44.09809" lon="1.77461">
        <ele>266</ele>
        <time>2013-03-02T14:45:19Z</time>
      </trkpt>
      <trkpt lat="44.09808" lon="1.77455">
        <ele>267</ele>
        <time>2013-03-02T14:45:21Z</time>
      </trkpt>
      <trkpt lat="44.09806" lon="1.7745">
        <ele>268</ele>
        <time>2013-03-02T14:45:23Z</time>
      </trkpt>
      <trkpt lat="44.09804" lon="1.77445">
        <ele>268</ele>
        <time>2013-03-02T14:45:25Z</time>
      </trkpt>
      <trkpt lat="44.09801" lon="1.7744">
        <ele>269</ele>
        <time>2013-03-02T14:45:27Z</time>
      </trkpt>
      <trkpt lat="44.09798" lon="1.77435">
        <ele>271</ele>
        <time>2013-03-02T14:45:29Z</time>
      </trkpt>
      <trkpt lat="44.09795" lon="1.77431">
        <ele>272</ele>
        <time>2013-03-02T14:45:31Z</time>
      </trkpt>
      <trkpt lat="44.09791" lon="1.77427">
        <ele>273</ele>
        <time>2013-03-02T14:45:33Z</time>
      </trkpt>
      <trkpt lat="44.09787" lon="1.77423">
        <ele>274</ele>
        <time>2013-03-02T14:45:35Z</time>
      </trkpt>
      <trkpt lat="44.09783" lon="1.7742">
        <ele>275</ele>
        <time>2013-03-02T14:45:37Z</time>
      </trkpt>
      <trkpt lat="44.09779" lon="1.77417">
        <ele>275</ele>
        <time>2013-03-02T14:45:39Z</time>
      </trkpt>
      <trkpt lat="44.09776" lon="1.77413">
        <ele>276</ele>
        <time>2013-03-02T14:45:41Z</time>
      </trkpt>
      <trkpt lat="44.09772" lon="1.7741">
        <ele>276</ele>
        <time>2013-03-02T14:45:43Z</time>
      </trkpt>
      <trkpt lat="44.09768" lon="1.77407">
        <ele>276</ele>
        <time>2013-03-02T14:45:45Z</time>
      </trkpt>
      <trkpt lat="44.09764" lon="1.77403">
        <ele>276</ele>
        <time>2013-03-02T14:45:47Z</time>
      </trkpt>
      <trkpt lat="44.09761" lon="1.77399">
        <ele>277</ele>
        <time>2013-03-02T14:45:49Z</time>
      </trkpt>
      <trkpt lat="44.09758" lon="1.77394">
        <ele>277</ele>
        <time>2013-03-02T14:45:51Z</time>
      </trkpt>
      <trkpt lat="44.09754" lon="1.7739">
        <ele>278</ele>
        <time>2013-03-02T14:45:53Z</time>
      </trkpt>
      <trkpt lat="44.09752" lon="1.77385">
        <ele>280</ele>
        <time>2013-03-02T14:45:55Z</time>
      </trkpt>
      <trkpt lat="44.09749" lon="1.7738">
        <ele>281</ele>
        <time>2013-03-02T14:45:57Z</time>
      </trkpt>
      <trkpt lat="44.09747" lon="1.77375">
        <ele>281</ele>
        <time>2013-03-02T14:45:59Z</time>
      </trkpt>
      <trkpt lat="44.09745" lon="1.77369">
        <ele>282</ele>
        <time>2013-03-02T14:46:01Z</time>
      </trkpt>
      <trkpt lat="44.09744" lon="1.77364">
        <ele>283</ele>
        <time>2013-03-02T14:46:03Z</time>
      </trkpt>
      <trkpt lat="44.09743" lon="1.77359">
        <ele>283</ele>
        <time>2013-03-02T14:46:05Z</time>
      </trkpt>
      <trkpt lat="44.09742" lon="1.77353">
        <ele>284</ele>
        <time>2013-03-02T14:46:07Z</time>
      </trkpt>
      <trkpt lat="44.09741" lon="1.77347">
        <ele>284</ele>
        <time>2013-03-02T14:46:09Z</time>
      </trkpt>
      <trkpt lat="44.0974" lon="1.77342">
        <ele>285</ele>
        <time>2013-03-02T14:46:11Z</time>
      </trkpt>
      <trkpt lat="44.09739" lon="1.77336">
        <ele>285</ele>
        <time>2013-03-02T14:46:13Z</time>
      </trkpt>
      <trkpt lat="44.09738" lon="1.77331">
        <ele>285</ele>
        <time>2013-03-02T14:46:15Z</time>
      </trkpt>
      <trkpt lat="44.09737" lon="1.77323">
        <ele>286</ele>
        <time>2013-03-02T14:46:18Z</time>
      </trkpt>
      <trkpt lat="44.09737" lon="1.77318">
        <ele>286</ele>
        <time>2013-03-02T14:46:20Z</time>
      </trkpt>
      <trkpt lat="44.09736" lon="1.77312">
        <ele>286</ele>
        <time>2013-03-02T14:46:22Z</time>
      </trkpt>
      <trkpt lat="44.09735" lon="1.77306">
        <ele>287</ele>
        <time>2013-03-02T14:46:24Z</time>
      </trkpt>
      <trkpt lat="44.09733" lon="1.77301">
        <ele>287</ele>
        <time>2013-03-02T14:46:26Z</time>
      </trkpt>
      <trkpt lat="44.09731" lon="1.77295">
        <ele>287</ele>
        <time>2013-03-02T14:46:28Z</time>
      </trkpt>
      <trkpt lat="44.09729" lon="1.7729">
        <ele>288</ele>
        <time>2013-03-02T14:46:30Z</time>
      </trkpt>
      <trkpt lat="44.09727" lon="1.77284">
        <ele>288</ele>
        <time>2013-03-02T14:46:32Z</time>
      </trkpt>
      <trkpt lat="44.09725" lon="1.77278">
        <ele>289</ele>
        <time>2013-03-02T14:46:34Z</time>
      </trkpt>
      <trkpt lat="44.09723" lon="1.77272">
        <ele>289</ele>
        <time>2013-03-02T14:46:36Z</time>
      </trkpt>
      <trkpt lat="44.0972" lon="1.77267">
        <ele>289</ele>
        <time>2013-03-02T14:46:38Z</time>
      </trkpt>
      <trkpt lat="44.09717" lon="1.77262">
        <ele>290</ele>
        <time>2013-03-02T14:46:40Z</time>
      </trkpt>
      <trkpt lat="44.09714" lon="1.77257">
        <ele>291</ele>
        <time>2013-03-02T14:46:42Z</time>
      </trkpt>
      <trkpt lat="44.09711" lon="1.77253">
        <ele>291</ele>
        <time>2013-03-02T14:46:44Z</time>
      </trkpt>
      <trkpt lat="44.09707" lon="1.77249">
        <ele>292</ele>
        <time>2013-03-02T14:46:46Z</time>
      </trkpt>
      <trkpt lat="44.09703" lon="1.77246">
        <ele>293</ele>
        <time>2013-03-02T14:46:48Z</time>
      </trkpt>
      <trkpt lat="44.09699" lon="1.77243">
        <ele>293</ele>
        <time>2013-03-02T14:46:50Z</time>
      </trkpt>
      <trkpt lat="44.09695" lon="1.77242">
        <ele>294</ele>
        <time>2013-03-02T14:46:52Z</time>
      </trkpt>
      <trkpt lat="44.09691" lon="1.77239">
        <ele>295</ele>
        <time>2013-03-02T14:46:54Z</time>
      </trkpt>
      <trkpt lat="44.09689" lon="1.77234">
        <ele>295</ele>
        <time>2013-03-02T14:46:56Z</time>
      </trkpt>
      <trkpt lat="44.0969" lon="1.77229">
        <ele>295</ele>
        <time>2013-03-02T14:46:58Z</time>
      </trkpt>
      <trkpt lat="44.09694" lon="1.77228">
        <ele>297</ele>
        <time>2013-03-02T14:47:00Z</time>
      </trkpt>
      <trkpt lat="44.09698" lon="1.77228">
        <ele>298</ele>
        <time>2013-03-02T14:47:02Z</time>
      </trkpt>
      <trkpt lat="44.09702" lon="1.77227">
        <ele>298</ele>
        <time>2013-03-02T14:47:04Z</time>
      </trkpt>
      <trkpt lat="44.09707" lon="1.77224">
        <ele>299</ele>
        <time>2013-03-02T14:47:06Z</time>
      </trkpt>
      <trkpt lat="44.09711" lon="1.77222">
        <ele>300</ele>
        <time>2013-03-02T14:47:08Z</time>
      </trkpt>
      <trkpt lat="44.09715" lon="1.77219">
        <ele>301</ele>
        <time>2013-03-02T14:47:10Z</time>
      </trkpt>
      <trkpt lat="44.09719" lon="1.77215">
        <ele>302</ele>
        <time>2013-03-02T14:47:12Z</time>
      </trkpt>
      <trkpt lat="44.09722" lon="1.7721">
        <ele>302</ele>
        <time>2013-03-02T14:47:14Z</time>
      </trkpt>
      <trkpt lat="44.09725" lon="1.77207">
        <ele>303</ele>
        <time>2013-03-02T14:47:16Z</time>
      </trkpt>
      <trkpt lat="44.09729" lon="1.77202">
        <ele>303</ele>
        <time>2013-03-02T14:47:18Z</time>
      </trkpt>
      <trkpt lat="44.09732" lon="1.77198">
        <ele>304</ele>
        <time>2013-03-02T14:47:20Z</time>
      </trkpt>
      <trkpt lat="44.09736" lon="1.77194">
        <ele>304</ele>
        <time>2013-03-02T14:47:22Z</time>
      </trkpt>
      <trkpt lat="44.0974" lon="1.7719">
        <ele>305</ele>
        <time>2013-03-02T14:47:24Z</time>
      </trkpt>
      <trkpt lat="44.09743" lon="1.77185">
        <ele>305</ele>
        <time>2013-03-02T14:47:26Z</time>
      </trkpt>
      <trkpt lat="44.09746" lon="1.77181">
        <ele>306</ele>
        <time>2013-03-02T14:47:28Z</time>
      </trkpt>
      <trkpt lat="44.09749" lon="1.77176">
        <ele>306</ele>
        <time>2013-03-02T14:47:30Z</time>
      </trkpt>
      <trkpt lat="44.09752" lon="1.77171">
        <ele>306</ele>
        <time>2013-03-02T14:47:32Z</time>
      </trkpt>
      <trkpt lat="44.09755" lon="1.77165">
        <ele>307</ele>
        <time>2013-03-02T14:47:34Z</time>
      </trkpt>
      <trkpt lat="44.09758" lon="1.7716">
        <ele>307</ele>
        <time>2013-03-02T14:47:36Z</time>
      </trkpt>
      <trkpt lat="44.09761" lon="1.77154">
        <ele>307</ele>
        <time>2013-03-02T14:47:38Z</time>
      </trkpt>
      <trkpt lat="44.09763" lon="1.77148">
        <ele>307</ele>
        <time>2013-03-02T14:47:40Z</time>
      </trkpt>
      <trkpt lat="44.09764" lon="1.77142">
        <ele>307</ele>
        <time>2013-03-02T14:47:42Z</time>
      </trkpt>
      <trkpt lat="44.09762" lon="1.77135">
        <ele>307</ele>
        <time>2013-03-02T14:47:44Z</time>
      </trkpt>
      <trkpt lat="44.09758" lon="1.77128">
        <ele>307</ele>
        <time>2013-03-02T14:47:46Z</time>
      </trkpt>
      <trkpt lat="44.09753" lon="1.77121">
        <ele>307</ele>
        <time>2013-03-02T14:47:48Z</time>
      </trkpt>
      <trkpt lat="44.09747" lon="1.77115">
        <ele>307</ele>
        <time>2013-03-02T14:47:50Z</time>
      </trkpt>
      <trkpt lat="44.09742" lon="1.7711">
        <ele>307</ele>
        <time>2013-03-02T14:47:52Z</time>
      </trkpt>
      <trkpt lat="44.09736" lon="1.77108">
        <ele>307</ele>
        <time>2013-03-02T14:47:54Z</time>
      </trkpt>
      <trkpt lat="44.0973" lon="1.77109">
        <ele>307</ele>
        <time>2013-03-02T14:47:56Z</time>
      </trkpt>
      <trkpt lat="44.09724" lon="1.77111">
        <ele>307</ele>
        <time>2013-03-02T14:47:58Z</time>
      </trkpt>
      <trkpt lat="44.09717" lon="1.77112">
        <ele>307</ele>
        <time>2013-03-02T14:48:00Z</time>
      </trkpt>
      <trkpt lat="44.0971" lon="1.77112">
        <ele>308</ele>
        <time>2013-03-02T14:48:02Z</time>
      </trkpt>
      <trkpt lat="44.09702" lon="1.7711">
        <ele>308</ele>
        <time>2013-03-02T14:48:04Z</time>
      </trkpt>
      <trkpt lat="44.09695" lon="1.77106">
        <ele>309</ele>
        <time>2013-03-02T14:48:06Z</time>
      </trkpt>
      <trkpt lat="44.09688" lon="1.77103">
        <ele>309</ele>
        <time>2013-03-02T14:48:08Z</time>
      </trkpt>
      <trkpt lat="44.09681" lon="1.77098">
        <ele>310</ele>
        <time>2013-03-02T14:48:10Z</time>
      </trkpt>
      <trkpt lat="44.09676" lon="1.77091">
        <ele>311</ele>
        <time>2013-03-02T14:48:12Z</time>
      </trkpt>
      <trkpt lat="44.0967" lon="1.77087">
        <ele>311</ele>
        <time>2013-03-02T14:48:14Z</time>
      </trkpt>
      <trkpt lat="44.09664" lon="1.77084">
        <ele>312</ele>
        <time>2013-03-02T14:48:16Z</time>
      </trkpt>
      <trkpt lat="44.09658" lon="1.77079">
        <ele>312</ele>
        <time>2013-03-02T14:48:18Z</time>
      </trkpt>
      <trkpt lat="44.09654" lon="1.77074">
        <ele>312</ele>
        <time>2013-03-02T14:48:20Z</time>
      </trkpt>
      <trkpt lat="44.09648" lon="1.77068">
        <ele>313</ele>
        <time>2013-03-02T14:48:22Z</time>
      </trkpt>
      <trkpt lat="44.09641" lon="1.77064">
        <ele>313</ele>
        <time>2013-03-02T14:48:24Z</time>
      </trkpt>
      <trkpt lat="44.09634" lon="1.77059">
        <ele>313</ele>
        <time>2013-03-02T14:48:26Z</time>
      </trkpt>
      <trkpt lat="44.09626" lon="1.77055">
        <ele>313</ele>
        <time>2013-03-02T14:48:28Z</time>
      </trkpt>
      <trkpt lat="44.09618" lon="1.77049">
        <ele>313</ele>
        <time>2013-03-02T14:48:30Z</time>
      </trkpt>
      <trkpt lat="44.09613" lon="1.7704">
        <ele>313</ele>
        <time>2013-03-02T14:48:32Z</time>
      </trkpt>
      <trkpt lat="44.09608" lon="1.77032">
        <ele>314</ele>
        <time>2013-03-02T14:48:34Z</time>
      </trkpt>
      <trkpt lat="44.09602" lon="1.77024">
        <ele>314</ele>
        <time>2013-03-02T14:48:36Z</time>
      </trkpt>
      <trkpt lat="44.09596" lon="1.77016">
        <ele>314</ele>
        <time>2013-03-02T14:48:38Z</time>
      </trkpt>
      <trkpt lat="44.09589" lon="1.77008">
        <ele>314</ele>
        <time>2013-03-02T14:48:40Z</time>
      </trkpt>
      <trkpt lat="44.09583" lon="1.77">
        <ele>314</ele>
        <time>2013-03-02T14:48:42Z</time>
      </trkpt>
      <trkpt lat="44.09576" lon="1.76991">
        <ele>314</ele>
        <time>2013-03-02T14:48:44Z</time>
      </trkpt>
      <trkpt lat="44.0957" lon="1.7698">
        <ele>314</ele>
        <time>2013-03-02T14:48:46Z</time>
      </trkpt>
      <trkpt lat="44.09564" lon="1.76969">
        <ele>314</ele>
        <time>2013-03-02T14:48:48Z</time>
      </trkpt>
      <trkpt lat="44.09559" lon="1.7696">
        <ele>314</ele>
        <time>2013-03-02T14:48:50Z</time>
      </trkpt>
      <trkpt lat="44.09553" lon="1.76951">
        <ele>314</ele>
        <time>2013-03-02T14:48:52Z</time>
      </trkpt>
      <trkpt lat="44.09547" lon="1.76941">
        <ele>314</ele>
        <time>2013-03-02T14:48:54Z</time>
      </trkpt>
      <trkpt lat="44.09542" lon="1.76932">
        <ele>314</ele>
        <time>2013-03-02T14:48:56Z</time>
      </trkpt>
      <trkpt lat="44.09539" lon="1.76925">
        <ele>314</ele>
        <time>2013-03-02T14:48:58Z</time>
      </trkpt>
      <trkpt lat="44.09534" lon="1.76918">
        <ele>314</ele>
        <time>2013-03-02T14:49:00Z</time>
      </trkpt>
      <trkpt lat="44.0953" lon="1.76909">
        <ele>314</ele>
        <time>2013-03-02T14:49:02Z</time>
      </trkpt>
      <trkpt lat="44.09526" lon="1.76897">
        <ele>314</ele>
        <time>2013-03-02T14:49:04Z</time>
      </trkpt>
      <trkpt lat="44.0952" lon="1.76885">
        <ele>314</ele>
        <time>2013-03-02T14:49:06Z</time>
      </trkpt>
      <trkpt lat="44.09514" lon="1.76873">
        <ele>313</ele>
        <time>2013-03-02T14:49:08Z</time>
      </trkpt>
      <trkpt lat="44.0951" lon="1.76862">
        <ele>312</ele>
        <time>2013-03-02T14:49:10Z</time>
      </trkpt>
      <trkpt lat="44.09507" lon="1.76851">
        <ele>312</ele>
        <time>2013-03-02T14:49:12Z</time>
      </trkpt>
      <trkpt lat="44.09501" lon="1.76838">
        <ele>310</ele>
        <time>2013-03-02T14:49:14Z</time>
      </trkpt>
      <trkpt lat="44.09496" lon="1.76826">
        <ele>309</ele>
        <time>2013-03-02T14:49:16Z</time>
      </trkpt>
      <trkpt lat="44.09492" lon="1.76813">
        <ele>308</ele>
        <time>2013-03-02T14:49:18Z</time>
      </trkpt>
      <trkpt lat="44.0949" lon="1.768">
        <ele>306</ele>
        <time>2013-03-02T14:49:20Z</time>
      </trkpt>
      <trkpt lat="44.09486" lon="1.76788">
        <ele>304</ele>
        <time>2013-03-02T14:49:22Z</time>
      </trkpt>
      <trkpt lat="44.0948" lon="1.76777">
        <ele>302</ele>
        <time>2013-03-02T14:49:24Z</time>
      </trkpt>
      <trkpt lat="44.09473" lon="1.76762">
        <ele>302</ele>
        <time>2013-03-02T14:49:26Z</time>
      </trkpt>
      <trkpt lat="44.09466" lon="1.76748">
        <ele>302</ele>
        <time>2013-03-02T14:49:28Z</time>
      </trkpt>
      <trkpt lat="44.09462" lon="1.76734">
        <ele>301</ele>
        <time>2013-03-02T14:49:30Z</time>
      </trkpt>
      <trkpt lat="44.09459" lon="1.76722">
        <ele>300</ele>
        <time>2013-03-02T14:49:32Z</time>
      </trkpt>
      <trkpt lat="44.09453" lon="1.76712">
        <ele>298</ele>
        <time>2013-03-02T14:49:34Z</time>
      </trkpt>
      <trkpt lat="44.09446" lon="1.76699">
        <ele>296</ele>
        <time>2013-03-02T14:49:36Z</time>
      </trkpt>
      <trkpt lat="44.09439" lon="1.76686">
        <ele>295</ele>
        <time>2013-03-02T14:49:38Z</time>
      </trkpt>
      <trkpt lat="44.09432" lon="1.76673">
        <ele>295</ele>
        <time>2013-03-02T14:49:40Z</time>
      </trkpt>
      <trkpt lat="44.09426" lon="1.76662">
        <ele>295</ele>
        <time>2013-03-02T14:49:42Z</time>
      </trkpt>
      <trkpt lat="44.09418" lon="1.76649">
        <ele>295</ele>
        <time>2013-03-02T14:49:44Z</time>
      </trkpt>
      <trkpt lat="44.09409" lon="1.7664">
        <ele>295</ele>
        <time>2013-03-02T14:49:46Z</time>
      </trkpt>
      <trkpt lat="44.09399" lon="1.76629">
        <ele>295</ele>
        <time>2013-03-02T14:49:48Z</time>
      </trkpt>
      <trkpt lat="44.0939" lon="1.76619">
        <ele>295</ele>
        <time>2013-03-02T14:49:50Z</time>
      </trkpt>
      <trkpt lat="44.09381" lon="1.7661">
        <ele>295</ele>
        <time>2013-03-02T14:49:52Z</time>
      </trkpt>
      <trkpt lat="44.09373" lon="1.76601">
        <ele>295</ele>
        <time>2013-03-02T14:49:54Z</time>
      </trkpt>
      <trkpt lat="44.09365" lon="1.76593">
        <ele>295</ele>
        <time>2013-03-02T14:49:56Z</time>
      </trkpt>
      <trkpt lat="44.09357" lon="1.76586">
        <ele>295</ele>
        <time>2013-03-02T14:49:58Z</time>
      </trkpt>
      <trkpt lat="44.09349" lon="1.76578">
        <ele>295</ele>
        <time>2013-03-02T14:50:00Z</time>
      </trkpt>
      <trkpt lat="44.09341" lon="1.76569">
        <ele>296</ele>
        <time>2013-03-02T14:50:02Z</time>
      </trkpt>
      <trkpt lat="44.09333" lon="1.76559">
        <ele>297</ele>
        <time>2013-03-02T14:50:04Z</time>
      </trkpt>
      <trkpt lat="44.09326" lon="1.7655">
        <ele>297</ele>
        <time>2013-03-02T14:50:06Z</time>
      </trkpt>
      <trkpt lat="44.09318" lon="1.76542">
        <ele>299</ele>
        <time>2013-03-02T14:50:08Z</time>
      </trkpt>
      <trkpt lat="44.09311" lon="1.76535">
        <ele>300</ele>
        <time>2013-03-02T14:50:10Z</time>
      </trkpt>
      <trkpt lat="44.09304" lon="1.76527">
        <ele>301</ele>
        <time>2013-03-02T14:50:12Z</time>
      </trkpt>
      <trkpt lat="44.09298" lon="1.76517">
        <ele>302</ele>
        <time>2013-03-02T14:50:14Z</time>
      </trkpt>
      <trkpt lat="44.09292" lon="1.76507">
        <ele>303</ele>
        <time>2013-03-02T14:50:16Z</time>
      </trkpt>
      <trkpt lat="44.09286" lon="1.76497">
        <ele>303</ele>
        <time>2013-03-02T14:50:18Z</time>
      </trkpt>
      <trkpt lat="44.09278" lon="1.7649">
        <ele>303</ele>
        <time>2013-03-02T14:50:20Z</time>
      </trkpt>
      <trkpt lat="44.09271" lon="1.76483">
        <ele>303</ele>
        <time>2013-03-02T14:50:22Z</time>
      </trkpt>
      <trkpt lat="44.09263" lon="1.76476">
        <ele>303</ele>
        <time>2013-03-02T14:50:24Z</time>
      </trkpt>
      <trkpt lat="44.09255" lon="1.7647">
        <ele>303</ele>
        <time>2013-03-02T14:50:26Z</time>
      </trkpt>
      <trkpt lat="44.09245" lon="1.76464">
        <ele>303</ele>
        <time>2013-03-02T14:50:28Z</time>
      </trkpt>
      <trkpt lat="44.09236" lon="1.76459">
        <ele>303</ele>
        <time>2013-03-02T14:50:30Z</time>
      </trkpt>
      <trkpt lat="44.09227" lon="1.76453">
        <ele>303</ele>
        <time>2013-03-02T14:50:32Z</time>
      </trkpt>
      <trkpt lat="44.09217" lon="1.76446">
        <ele>303</ele>
        <time>2013-03-02T14:50:34Z</time>
      </trkpt>
      <trkpt lat="44.09209" lon="1.76439">
        <ele>304</ele>
        <time>2013-03-02T14:50:36Z</time>
      </trkpt>
      <trkpt lat="44.09199" lon="1.76432">
        <ele>304</ele>
        <time>2013-03-02T14:50:38Z</time>
      </trkpt>
      <trkpt lat="44.09189" lon="1.76427">
        <ele>304</ele>
        <time>2013-03-02T14:50:40Z</time>
      </trkpt>
      <trkpt lat="44.09179" lon="1.76423">
        <ele>304</ele>
        <time>2013-03-02T14:50:42Z</time>
      </trkpt>
      <trkpt lat="44.09167" lon="1.76418">
        <ele>304</ele>
        <time>2013-03-02T14:50:44Z</time>
      </trkpt>
      <trkpt lat="44.09156" lon="1.76414">
        <ele>304</ele>
        <time>2013-03-02T14:50:46Z</time>
      </trkpt>
      <trkpt lat="44.09147" lon="1.76412">
        <ele>304</ele>
        <time>2013-03-02T14:50:48Z</time>
      </trkpt>
      <trkpt lat="44.09139" lon="1.76409">
        <ele>304</ele>
        <time>2013-03-02T14:50:50Z</time>
      </trkpt>
      <trkpt lat="44.09131" lon="1.76406">
        <ele>304</ele>
        <time>2013-03-02T14:50:52Z</time>
      </trkpt>
      <trkpt lat="44.09122" lon="1.76402">
        <ele>304</ele>
        <time>2013-03-02T14:50:54Z</time>
      </trkpt>
      <trkpt lat="44.09114" lon="1.76403">
        <ele>304</ele>
        <time>2013-03-02T14:50:56Z</time>
      </trkpt>
      <trkpt lat="44.09105" lon="1.76403">
        <ele>304</ele>
        <time>2013-03-02T14:50:58Z</time>
      </trkpt>
      <trkpt lat="44.09097" lon="1.764">
        <ele>304</ele>
        <time>2013-03-02T14:51:00Z</time>
      </trkpt>
      <trkpt lat="44.09087" lon="1.76394">
        <ele>304</ele>
        <time>2013-03-02T14:51:02Z</time>
      </trkpt>
      <trkpt lat="44.09077" lon="1.76391">
        <ele>302</ele>
        <time>2013-03-02T14:51:04Z</time>
      </trkpt>
      <trkpt lat="44.09068" lon="1.76388">
        <ele>301</ele>
        <time>2013-03-02T14:51:06Z</time>
      </trkpt>
      <trkpt lat="44.09059" lon="1.76384">
        <ele>300</ele>
        <time>2013-03-02T14:51:08Z</time>
      </trkpt>
      <trkpt lat="44.0905" lon="1.7638">
        <ele>300</ele>
        <time>2013-03-02T14:51:10Z</time>
      </trkpt>
      <trkpt lat="44.09043" lon="1.76374">
        <ele>300</ele>
        <time>2013-03-02T14:51:12Z</time>
      </trkpt>
      <trkpt lat="44.09039" lon="1.76367">
        <ele>300</ele>
        <time>2013-03-02T14:51:14Z</time>
      </trkpt>
      <trkpt lat="44.09036" lon="1.7636">
        <ele>300</ele>
        <time>2013-03-02T14:51:16Z</time>
      </trkpt>
      <trkpt lat="44.09032" lon="1.76354">
        <ele>300</ele>
        <time>2013-03-02T14:51:18Z</time>
      </trkpt>
      <trkpt lat="44.09028" lon="1.76347">
        <ele>300</ele>
        <time>2013-03-02T14:51:20Z</time>
      </trkpt>
      <trkpt lat="44.09026" lon="1.76342">
        <ele>300</ele>
        <time>2013-03-02T14:51:22Z</time>
      </trkpt>
      <trkpt lat="44.09023" lon="1.76337">
        <ele>300</ele>
        <time>2013-03-02T14:51:24Z</time>
      </trkpt>
      <trkpt lat="44.09019" lon="1.76332">
        <ele>300</ele>
        <time>2013-03-02T14:51:26Z</time>
      </trkpt>
      <trkpt lat="44.09016" lon="1.76327">
        <ele>300</ele>
        <time>2013-03-02T14:51:28Z</time>
      </trkpt>
      <trkpt lat="44.09012" lon="1.76321">
        <ele>300</ele>
        <time>2013-03-02T14:51:30Z</time>
      </trkpt>
      <trkpt lat="44.09009" lon="1.76315">
        <ele>300</ele>
        <time>2013-03-02T14:51:32Z</time>
      </trkpt>
      <trkpt lat="44.09007" lon="1.76309">
        <ele>300</ele>
        <time>2013-03-02T14:51:34Z</time>
      </trkpt>
      <trkpt lat="44.09004" lon="1.76304">
        <ele>300</ele>
        <time>2013-03-02T14:51:36Z</time>
      </trkpt>
      <trkpt lat="44.09002" lon="1.76299">
        <ele>300</ele>
        <time>2013-03-02T14:51:38Z</time>
      </trkpt>
      <trkpt lat="44.08999" lon="1.76294">
        <ele>300</ele>
        <time>2013-03-02T14:51:40Z</time>
      </trkpt>
      <trkpt lat="44.08997" lon="1.76289">
        <ele>300</ele>
        <time>2013-03-02T14:51:42Z</time>
      </trkpt>
      <trkpt lat="44.08993" lon="1.76284">
        <ele>300</ele>
        <time>2013-03-02T14:51:44Z</time>
      </trkpt>
      <trkpt lat="44.0899" lon="1.76281">
        <ele>300</ele>
        <time>2013-03-02T14:51:46Z</time>
      </trkpt>
      <trkpt lat="44.08986" lon="1.76277">
        <ele>300</ele>
        <time>2013-03-02T14:51:48Z</time>
      </trkpt>
      <trkpt lat="44.08984" lon="1.76271">
        <ele>300</ele>
        <time>2013-03-02T14:51:50Z</time>
      </trkpt>
      <trkpt lat="44.08982" lon="1.76266">
        <ele>300</ele>
        <time>2013-03-02T14:51:52Z</time>
      </trkpt>
      <trkpt lat="44.0898" lon="1.7626">
        <ele>300</ele>
        <time>2013-03-02T14:51:54Z</time>
      </trkpt>
      <trkpt lat="44.08977" lon="1.76256">
        <ele>300</ele>
        <time>2013-03-02T14:51:56Z</time>
      </trkpt>
      <trkpt lat="44.08973" lon="1.7625">
        <ele>300</ele>
        <time>2013-03-02T14:51:58Z</time>
      </trkpt>
      <trkpt lat="44.0897" lon="1.76243">
        <ele>300</ele>
        <time>2013-03-02T14:52:00Z</time>
      </trkpt>
      <trkpt lat="44.08968" lon="1.76237">
        <ele>300</ele>
        <time>2013-03-02T14:52:02Z</time>
      </trkpt>
      <trkpt lat="44.08966" lon="1.76231">
        <ele>300</ele>
        <time>2013-03-02T14:52:04Z</time>
      </trkpt>
      <trkpt lat="44.08963" lon="1.76225">
        <ele>300</ele>
        <time>2013-03-02T14:52:06Z</time>
      </trkpt>
      <trkpt lat="44.08959" lon="1.76219">
        <ele>300</ele>
        <time>2013-03-02T14:52:08Z</time>
      </trkpt>
      <trkpt lat="44.08955" lon="1.76212">
        <ele>300</ele>
        <time>2013-03-02T14:52:10Z</time>
      </trkpt>
      <trkpt lat="44.08952" lon="1.76205">
        <ele>300</ele>
        <time>2013-03-02T14:52:12Z</time>
      </trkpt>
      <trkpt lat="44.08948" lon="1.76198">
        <ele>300</ele>
        <time>2013-03-02T14:52:14Z</time>
      </trkpt>
      <trkpt lat="44.08943" lon="1.76191">
        <ele>299</ele>
        <time>2013-03-02T14:52:16Z</time>
      </trkpt>
      <trkpt lat="44.08938" lon="1.76184">
        <ele>299</ele>
        <time>2013-03-02T14:52:18Z</time>
      </trkpt>
      <trkpt lat="44.08933" lon="1.76175">
        <ele>299</ele>
        <time>2013-03-02T14:52:20Z</time>
      </trkpt>
      <trkpt lat="44.08929" lon="1.76166">
        <ele>299</ele>
        <time>2013-03-02T14:52:22Z</time>
      </trkpt>
      <trkpt lat="44.08927" lon="1.76157">
        <ele>299</ele>
        <time>2013-03-02T14:52:24Z</time>
      </trkpt>
      <trkpt lat="44.08924" lon="1.76149">
        <ele>299</ele>
        <time>2013-03-02T14:52:26Z</time>
      </trkpt>
      <trkpt lat="44.08922" lon="1.7614">
        <ele>299</ele>
        <time>2013-03-02T14:52:28Z</time>
      </trkpt>
      <trkpt lat="44.0892" lon="1.76132">
        <ele>299</ele>
        <time>2013-03-02T14:52:30Z</time>
      </trkpt>
      <trkpt lat="44.08918" lon="1.76125">
        <ele>299</ele>
        <time>2013-03-02T14:52:32Z</time>
      </trkpt>
      <trkpt lat="44.08916" lon="1.76118">
        <ele>299</ele>
        <time>2013-03-02T14:52:34Z</time>
      </trkpt>
      <trkpt lat="44.08915" lon="1.76112">
        <ele>299</ele>
        <time>2013-03-02T14:52:36Z</time>
      </trkpt>
      <trkpt lat="44.08912" lon="1.76104">
        <ele>299</ele>
        <time>2013-03-02T14:52:38Z</time>
      </trkpt>
      <trkpt lat="44.08909" lon="1.76097">
        <ele>299</ele>
        <time>2013-03-02T14:52:40Z</time>
      </trkpt>
      <trkpt lat="44.08907" lon="1.76089">
        <ele>299</ele>
        <time>2013-03-02T14:52:42Z</time>
      </trkpt>
      <trkpt lat="44.08905" lon="1.76079">
        <ele>299</ele>
        <time>2013-03-02T14:52:44Z</time>
      </trkpt>
      <trkpt lat="44.08903" lon="1.76071">
        <ele>298</ele>
        <time>2013-03-02T14:52:46Z</time>
      </trkpt>
      <trkpt lat="44.089" lon="1.76063">
        <ele>298</ele>
        <time>2013-03-02T14:52:48Z</time>
      </trkpt>
      <trkpt lat="44.08895" lon="1.76053">
        <ele>297</ele>
        <time>2013-03-02T14:52:50Z</time>
      </trkpt>
      <trkpt lat="44.0889" lon="1.76044">
        <ele>296</ele>
        <time>2013-03-02T14:52:52Z</time>
      </trkpt>
      <trkpt lat="44.08884" lon="1.76033">
        <ele>296</ele>
        <time>2013-03-02T14:52:54Z</time>
      </trkpt>
      <trkpt lat="44.08878" lon="1.76022">
        <ele>296</ele>
        <time>2013-03-02T14:52:56Z</time>
      </trkpt>
      <trkpt lat="44.08875" lon="1.76011">
        <ele>295</ele>
        <time>2013-03-02T14:52:58Z</time>
      </trkpt>
      <trkpt lat="44.0887" lon="1.76">
        <ele>295</ele>
        <time>2013-03-02T14:53:00Z</time>
      </trkpt>
      <trkpt lat="44.08863" lon="1.75989">
        <ele>294</ele>
        <time>2013-03-02T14:53:02Z</time>
      </trkpt>
      <trkpt lat="44.08855" lon="1.75976">
        <ele>294</ele>
        <time>2013-03-02T14:53:04Z</time>
      </trkpt>
      <trkpt lat="44.08851" lon="1.75962">
        <ele>293</ele>
        <time>2013-03-02T14:53:06Z</time>
      </trkpt>
      <trkpt lat="44.08848" lon="1.75949">
        <ele>293</ele>
        <time>2013-03-02T14:53:08Z</time>
      </trkpt>
      <trkpt lat="44.08844" lon="1.75936">
        <ele>292</ele>
        <time>2013-03-02T14:53:10Z</time>
      </trkpt>
      <trkpt lat="44.08837" lon="1.75926">
        <ele>292</ele>
        <time>2013-03-02T14:53:12Z</time>
      </trkpt>
      <trkpt lat="44.08833" lon="1.75912">
        <ele>291</ele>
        <time>2013-03-02T14:53:14Z</time>
      </trkpt>
      <trkpt lat="44.08828" lon="1.75897">
        <ele>291</ele>
        <time>2013-03-02T14:53:16Z</time>
      </trkpt>
      <trkpt lat="44.0882" lon="1.75885">
        <ele>291</ele>
        <time>2013-03-02T14:53:18Z</time>
      </trkpt>
      <trkpt lat="44.08814" lon="1.75875">
        <ele>291</ele>
        <time>2013-03-02T14:53:20Z</time>
      </trkpt>
      <trkpt lat="44.08809" lon="1.75866">
        <ele>291</ele>
        <time>2013-03-02T14:53:22Z</time>
      </trkpt>
      <trkpt lat="44.08807" lon="1.75856">
        <ele>291</ele>
        <time>2013-03-02T14:53:24Z</time>
      </trkpt>
      <trkpt lat="44.08806" lon="1.75848">
        <ele>291</ele>
        <time>2013-03-02T14:53:26Z</time>
      </trkpt>
      <trkpt lat="44.08804" lon="1.75839">
        <ele>291</ele>
        <time>2013-03-02T14:53:28Z</time>
      </trkpt>
      <trkpt lat="44.08802" lon="1.7583">
        <ele>291</ele>
        <time>2013-03-02T14:53:30Z</time>
      </trkpt>
      <trkpt lat="44.08797" lon="1.75821">
        <ele>291</ele>
        <time>2013-03-02T14:53:32Z</time>
      </trkpt>
      <trkpt lat="44.08794" lon="1.75812">
        <ele>291</ele>
        <time>2013-03-02T14:53:34Z</time>
      </trkpt>
      <trkpt lat="44.08791" lon="1.75804">
        <ele>291</ele>
        <time>2013-03-02T14:53:36Z</time>
      </trkpt>
      <trkpt lat="44.08786" lon="1.75798">
        <ele>291</ele>
        <time>2013-03-02T14:53:38Z</time>
      </trkpt>
      <trkpt lat="44.0878" lon="1.75791">
        <ele>292</ele>
        <time>2013-03-02T14:53:40Z</time>
      </trkpt>
      <trkpt lat="44.08774" lon="1.75784">
        <ele>292</ele>
        <time>2013-03-02T14:53:42Z</time>
      </trkpt>
      <trkpt lat="44.08767" lon="1.75776">
        <ele>293</ele>
        <time>2013-03-02T14:53:44Z</time>
      </trkpt>
      <trkpt lat="44.0876" lon="1.75768">
        <ele>293</ele>
        <time>2013-03-02T14:53:46Z</time>
      </trkpt>
      <trkpt lat="44.08754" lon="1.7576">
        <ele>293</ele>
        <time>2013-03-02T14:53:48Z</time>
      </trkpt>
      <trkpt lat="44.0875" lon="1.75751">
        <ele>294</ele>
        <time>2013-03-02T14:53:50Z</time>
      </trkpt>
      <trkpt lat="44.08746" lon="1.75742">
        <ele>294</ele>
        <time>2013-03-02T14:53:52Z</time>
      </trkpt>
      <trkpt lat="44.08743" lon="1.75733">
        <ele>294</ele>
        <time>2013-03-02T14:53:54Z</time>
      </trkpt>
      <trkpt lat="44.0874" lon="1.75727">
        <ele>294</ele>
        <time>2013-03-02T14:53:56Z</time>
      </trkpt>
      <trkpt lat="44.08739" lon="1.75726">
        <ele>294</ele>
        <time>2013-03-02T14:53:58Z</time>
      </trkpt>
      <trkpt lat="44.08738" lon="1.75723">
        <ele>294</ele>
        <time>2013-03-02T14:54:00Z</time>
      </trkpt>
      <trkpt lat="44.08735" lon="1.75719">
        <ele>294</ele>
        <time>2013-03-02T14:54:03Z</time>
      </trkpt>
      <trkpt lat="44.08734" lon="1.75718">
        <ele>294</ele>
        <time>2013-03-02T14:54:05Z</time>
      </trkpt>
      <trkpt lat="44.08733" lon="1.75715">
        <ele>294</ele>
        <time>2013-03-02T14:54:07Z</time>
      </trkpt>
      <trkpt lat="44.08731" lon="1.75713">
        <ele>293</ele>
        <time>2013-03-02T14:54:09Z</time>
      </trkpt>
      <trkpt lat="44.08731" lon="1.75711">
        <ele>292</ele>
        <time>2013-03-02T14:54:11Z</time>
      </trkpt>
      <trkpt lat="44.08731" lon="1.75709">
        <ele>291</ele>
        <time>2013-03-02T14:54:13Z</time>
      </trkpt>
      <trkpt lat="44.0873" lon="1.75707">
        <ele>290</ele>
        <time>2013-03-02T14:54:15Z</time>
      </trkpt>
      <trkpt lat="44.0873" lon="1.75705">
        <ele>289</ele>
        <time>2013-03-02T14:54:17Z</time>
      </trkpt>
      <trkpt lat="44.08728" lon="1.75704">
        <ele>288</ele>
        <time>2013-03-02T14:54:20Z</time>
      </trkpt>
      <trkpt lat="44.08727" lon="1.75701">
        <ele>288</ele>
        <time>2013-03-02T14:54:22Z</time>
      </trkpt>
      <trkpt lat="44.08727" lon="1.757">
        <ele>287</ele>
        <time>2013-03-02T14:54:24Z</time>
      </trkpt>
      <trkpt lat="44.08726" lon="1.75697">
        <ele>286</ele>
        <time>2013-03-02T14:54:27Z</time>
      </trkpt>
      <trkpt lat="44.08726" lon="1.75696">
        <ele>285</ele>
        <time>2013-03-02T14:54:29Z</time>
      </trkpt>
      <trkpt lat="44.08726" lon="1.75694">
        <ele>285</ele>
        <time>2013-03-02T14:54:31Z</time>
      </trkpt>
      <trkpt lat="44.08726" lon="1.75692">
        <ele>284</ele>
        <time>2013-03-02T14:54:33Z</time>
      </trkpt>
      <trkpt lat="44.08729" lon="1.75691">
        <ele>282</ele>
        <time>2013-03-02T14:54:36Z</time>
      </trkpt>
      <trkpt lat="44.0873" lon="1.75691">
        <ele>282</ele>
        <time>2013-03-02T14:54:38Z</time>
      </trkpt>
      <trkpt lat="44.08731" lon="1.75689">
        <ele>281</ele>
        <time>2013-03-02T14:54:40Z</time>
      </trkpt>
      <trkpt lat="44.08733" lon="1.75686">
        <ele>280</ele>
        <time>2013-03-02T14:54:43Z</time>
      </trkpt>
      <trkpt lat="44.08736" lon="1.75683">
        <ele>280</ele>
        <time>2013-03-02T14:54:46Z</time>
      </trkpt>
      <trkpt lat="44.08738" lon="1.75679">
        <ele>280</ele>
        <time>2013-03-02T14:54:49Z</time>
      </trkpt>
      <trkpt lat="44.0874" lon="1.75678">
        <ele>280</ele>
        <time>2013-03-02T14:54:51Z</time>
      </trkpt>
      <trkpt lat="44.08743" lon="1.75675">
        <ele>279</ele>
        <time>2013-03-02T14:54:54Z</time>
      </trkpt>
      <trkpt lat="44.08745" lon="1.75673">
        <ele>279</ele>
        <time>2013-03-02T14:54:56Z</time>
      </trkpt>
      <trkpt lat="44.08746" lon="1.75671">
        <ele>279</ele>
        <time>2013-03-02T14:54:58Z</time>
      </trkpt>
      <trkpt lat="44.08748" lon="1.7567">
        <ele>279</ele>
        <time>2013-03-02T14:55:00Z</time>
      </trkpt>
      <trkpt lat="44.0875" lon="1.75669">
        <ele>279</ele>
        <time>2013-03-02T14:55:02Z</time>
      </trkpt>
      <trkpt lat="44.08751" lon="1.75667">
        <ele>279</ele>
        <time>2013-03-02T14:55:04Z</time>
      </trkpt>
      <trkpt lat="44.08752" lon="1.75665">
        <ele>279</ele>
        <time>2013-03-02T14:55:06Z</time>
      </trkpt>
      <trkpt lat="44.08753" lon="1.75663">
        <ele>279</ele>
        <time>2013-03-02T14:55:08Z</time>
      </trkpt>
      <trkpt lat="44.08755" lon="1.75662">
        <ele>279</ele>
        <time>2013-03-02T14:55:10Z</time>
      </trkpt>
      <trkpt lat="44.08756" lon="1.75659">
        <ele>279</ele>
        <time>2013-03-02T14:55:12Z</time>
      </trkpt>
      <trkpt lat="44.08758" lon="1.75656">
        <ele>279</ele>
        <time>2013-03-02T14:55:15Z</time>
      </trkpt>
      <trkpt lat="44.0876" lon="1.75655">
        <ele>279</ele>
        <time>2013-03-02T14:55:17Z</time>
      </trkpt>
      <trkpt lat="44.08761" lon="1.75654">
        <ele>279</ele>
        <time>2013-03-02T14:55:19Z</time>
      </trkpt>
      <trkpt lat="44.08762" lon="1.75652">
        <ele>279</ele>
        <time>2013-03-02T14:55:21Z</time>
      </trkpt>
      <trkpt lat="44.08761" lon="1.75651">
        <ele>279</ele>
        <time>2013-03-02T14:55:26Z</time>
      </trkpt>
      <trkpt lat="44.08761" lon="1.75649">
        <ele>285</ele>
        <time>2013-03-02T14:55:47Z</time>
      </trkpt>
      <trkpt lat="44.08762" lon="1.7565">
        <ele>290</ele>
        <time>2013-03-02T14:56:24Z</time>
      </trkpt>
      <trkpt lat="44.08761" lon="1.75648">
        <ele>290</ele>
        <time>2013-03-02T14:56:38Z</time>
      </trkpt>
      <trkpt lat="44.08759" lon="1.75647">
        <ele>292</ele>
        <time>2013-03-02T14:56:47Z</time>
      </trkpt>
      <trkpt lat="44.08758" lon="1.75645">
        <ele>293</ele>
        <time>2013-03-02T14:56:49Z</time>
      </trkpt>
      <trkpt lat="44.08756" lon="1.75644">
        <ele>296</ele>
        <time>2013-03-02T14:57:00Z</time>
      </trkpt>
      <trkpt lat="44.08758" lon="1.75644">
        <ele>296</ele>
        <time>2013-03-02T14:57:03Z</time>
      </trkpt>
      <trkpt lat="44.08759" lon="1.75641">
        <ele>296</ele>
        <time>2013-03-02T14:57:05Z</time>
      </trkpt>
      <trkpt lat="44.0876" lon="1.75638">
        <ele>296</ele>
        <time>2013-03-02T14:57:07Z</time>
      </trkpt>
      <trkpt lat="44.08762" lon="1.75634">
        <ele>296</ele>
        <time>2013-03-02T14:57:09Z</time>
      </trkpt>
      <trkpt lat="44.08765" lon="1.75628">
        <ele>295</ele>
        <time>2013-03-02T14:57:11Z</time>
      </trkpt>
      <trkpt lat="44.08767" lon="1.75621">
        <ele>293</ele>
        <time>2013-03-02T14:57:13Z</time>
      </trkpt>
      <trkpt lat="44.08768" lon="1.75617">
        <ele>291</ele>
        <time>2013-03-02T14:57:15Z</time>
      </trkpt>
      <trkpt lat="44.0877" lon="1.7561">
        <ele>289</ele>
        <time>2013-03-02T14:57:17Z</time>
      </trkpt>
      <trkpt lat="44.08771" lon="1.75605">
        <ele>287</ele>
        <time>2013-03-02T14:57:19Z</time>
      </trkpt>
      <trkpt lat="44.08773" lon="1.75597">
        <ele>285</ele>
        <time>2013-03-02T14:57:21Z</time>
      </trkpt>
      <trkpt lat="44.08775" lon="1.75588">
        <ele>283</ele>
        <time>2013-03-02T14:57:23Z</time>
      </trkpt>
      <trkpt lat="44.08776" lon="1.75578">
        <ele>281</ele>
        <time>2013-03-02T14:57:25Z</time>
      </trkpt>
      <trkpt lat="44.08779" lon="1.75572">
        <ele>279</ele>
        <time>2013-03-02T14:57:27Z</time>
      </trkpt>
      <trkpt lat="44.08782" lon="1.75564">
        <ele>278</ele>
        <time>2013-03-02T14:57:29Z</time>
      </trkpt>
      <trkpt lat="44.08783" lon="1.75555">
        <ele>278</ele>
        <time>2013-03-02T14:57:31Z</time>
      </trkpt>
      <trkpt lat="44.08784" lon="1.75546">
        <ele>278</ele>
        <time>2013-03-02T14:57:33Z</time>
      </trkpt>
      <trkpt lat="44.08785" lon="1.75537">
        <ele>278</ele>
        <time>2013-03-02T14:57:35Z</time>
      </trkpt>
      <trkpt lat="44.08787" lon="1.75527">
        <ele>278</ele>
        <time>2013-03-02T14:57:37Z</time>
      </trkpt>
      <trkpt lat="44.08791" lon="1.75518">
        <ele>278</ele>
        <time>2013-03-02T14:57:39Z</time>
      </trkpt>
      <trkpt lat="44.08794" lon="1.7551">
        <ele>278</ele>
        <time>2013-03-02T14:57:41Z</time>
      </trkpt>
      <trkpt lat="44.08796" lon="1.75501">
        <ele>278</ele>
        <time>2013-03-02T14:57:43Z</time>
      </trkpt>
      <trkpt lat="44.08797" lon="1.75492">
        <ele>278</ele>
        <time>2013-03-02T14:57:45Z</time>
      </trkpt>
      <trkpt lat="44.08798" lon="1.75481">
        <ele>278</ele>
        <time>2013-03-02T14:57:47Z</time>
      </trkpt>
      <trkpt lat="44.08799" lon="1.75471">
        <ele>278</ele>
        <time>2013-03-02T14:57:49Z</time>
      </trkpt>
      <trkpt lat="44.08802" lon="1.75461">
        <ele>278</ele>
        <time>2013-03-02T14:57:51Z</time>
      </trkpt>
      <trkpt lat="44.08804" lon="1.75451">
        <ele>278</ele>
        <time>2013-03-02T14:57:53Z</time>
      </trkpt>
      <trkpt lat="44.08806" lon="1.75441">
        <ele>278</ele>
        <time>2013-03-02T14:57:55Z</time>
      </trkpt>
      <trkpt lat="44.08806" lon="1.75429">
        <ele>278</ele>
        <time>2013-03-02T14:57:57Z</time>
      </trkpt>
      <trkpt lat="44.08807" lon="1.75417">
        <ele>278</ele>
        <time>2013-03-02T14:57:59Z</time>
      </trkpt>
      <trkpt lat="44.08809" lon="1.75407">
        <ele>278</ele>
        <time>2013-03-02T14:58:01Z</time>
      </trkpt>
      <trkpt lat="44.0881" lon="1.754">
        <ele>278</ele>
        <time>2013-03-02T14:58:03Z</time>
      </trkpt>
      <trkpt lat="44.08812" lon="1.75394">
        <ele>278</ele>
        <time>2013-03-02T14:58:05Z</time>
      </trkpt>
      <trkpt lat="44.08814" lon="1.75385">
        <ele>278</ele>
        <time>2013-03-02T14:58:07Z</time>
      </trkpt>
      <trkpt lat="44.08817" lon="1.75377">
        <ele>278</ele>
        <time>2013-03-02T14:58:09Z</time>
      </trkpt>
      <trkpt lat="44.0882" lon="1.75367">
        <ele>278</ele>
        <time>2013-03-02T14:58:11Z</time>
      </trkpt>
      <trkpt lat="44.08823" lon="1.75357">
        <ele>278</ele>
        <time>2013-03-02T14:58:13Z</time>
      </trkpt>
      <trkpt lat="44.08826" lon="1.75347">
        <ele>278</ele>
        <time>2013-03-02T14:58:15Z</time>
      </trkpt>
      <trkpt lat="44.08829" lon="1.75337">
        <ele>278</ele>
        <time>2013-03-02T14:58:17Z</time>
      </trkpt>
      <trkpt lat="44.08831" lon="1.75326">
        <ele>278</ele>
        <time>2013-03-02T14:58:19Z</time>
      </trkpt>
      <trkpt lat="44.08833" lon="1.75314">
        <ele>278</ele>
        <time>2013-03-02T14:58:21Z</time>
      </trkpt>
      <trkpt lat="44.08836" lon="1.75301">
        <ele>277</ele>
        <time>2013-03-02T14:58:23Z</time>
      </trkpt>
      <trkpt lat="44.08839" lon="1.75288">
        <ele>277</ele>
        <time>2013-03-02T14:58:25Z</time>
      </trkpt>
      <trkpt lat="44.08842" lon="1.75277">
        <ele>276</ele>
        <time>2013-03-02T14:58:27Z</time>
      </trkpt>
      <trkpt lat="44.08844" lon="1.75264">
        <ele>275</ele>
        <time>2013-03-02T14:58:29Z</time>
      </trkpt>
      <trkpt lat="44.08845" lon="1.75247">
        <ele>273</ele>
        <time>2013-03-02T14:58:31Z</time>
      </trkpt>
      <trkpt lat="44.08849" lon="1.75232">
        <ele>273</ele>
        <time>2013-03-02T14:58:33Z</time>
      </trkpt>
      <trkpt lat="44.08852" lon="1.75218">
        <ele>272</ele>
        <time>2013-03-02T14:58:35Z</time>
      </trkpt>
      <trkpt lat="44.08854" lon="1.75203">
        <ele>272</ele>
        <time>2013-03-02T14:58:37Z</time>
      </trkpt>
      <trkpt lat="44.08857" lon="1.7519">
        <ele>272</ele>
        <time>2013-03-02T14:58:39Z</time>
      </trkpt>
      <trkpt lat="44.08859" lon="1.75182">
        <ele>272</ele>
        <time>2013-03-02T14:58:41Z</time>
      </trkpt>
      <trkpt lat="44.0886" lon="1.75176">
        <ele>272</ele>
        <time>2013-03-02T14:58:43Z</time>
      </trkpt>
      <trkpt lat="44.0886" lon="1.75171">
        <ele>272</ele>
        <time>2013-03-02T14:58:45Z</time>
      </trkpt>
      <trkpt lat="44.0886" lon="1.75165">
        <ele>272</ele>
        <time>2013-03-02T14:58:47Z</time>
      </trkpt>
      <trkpt lat="44.0886" lon="1.75157">
        <ele>272</ele>
        <time>2013-03-02T14:58:49Z</time>
      </trkpt>
      <trkpt lat="44.08861" lon="1.7515">
        <ele>272</ele>
        <time>2013-03-02T14:58:51Z</time>
      </trkpt>
      <trkpt lat="44.08861" lon="1.75144">
        <ele>272</ele>
        <time>2013-03-02T14:58:53Z</time>
      </trkpt>
      <trkpt lat="44.08861" lon="1.75142">
        <ele>273</ele>
        <time>2013-03-02T14:58:56Z</time>
      </trkpt>
      <trkpt lat="44.08861" lon="1.75139">
        <ele>274</ele>
        <time>2013-03-02T14:58:58Z</time>
      </trkpt>
      <trkpt lat="44.08861" lon="1.75137">
        <ele>274</ele>
        <time>2013-03-02T14:59:00Z</time>
      </trkpt>
      <trkpt lat="44.0886" lon="1.75134">
        <ele>274</ele>
        <time>2013-03-02T14:59:04Z</time>
      </trkpt>
      <trkpt lat="44.0886" lon="1.75133">
        <ele>274</ele>
        <time>2013-03-02T14:59:07Z</time>
      </trkpt>
      <trkpt lat="44.0886" lon="1.7513">
        <ele>274</ele>
        <time>2013-03-02T14:59:09Z</time>
      </trkpt>
      <trkpt lat="44.08861" lon="1.75126">
        <ele>274</ele>
        <time>2013-03-02T14:59:11Z</time>
      </trkpt>
      <trkpt lat="44.0886" lon="1.75123">
        <ele>274</ele>
        <time>2013-03-02T14:59:13Z</time>
      </trkpt>
      <trkpt lat="44.08861" lon="1.7512">
        <ele>274</ele>
        <time>2013-03-02T14:59:15Z</time>
      </trkpt>
      <trkpt lat="44.08862" lon="1.75118">
        <ele>274</ele>
        <time>2013-03-02T14:59:17Z</time>
      </trkpt>
      <trkpt lat="44.08862" lon="1.75115">
        <ele>274</ele>
        <time>2013-03-02T14:59:19Z</time>
      </trkpt>
      <trkpt lat="44.08862" lon="1.75113">
        <ele>274</ele>
        <time>2013-03-02T14:59:21Z</time>
      </trkpt>
      <trkpt lat="44.08862" lon="1.75109">
        <ele>275</ele>
        <time>2013-03-02T14:59:23Z</time>
      </trkpt>
      <trkpt lat="44.08863" lon="1.75103">
        <ele>276</ele>
        <time>2013-03-02T14:59:25Z</time>
      </trkpt>
      <trkpt lat="44.08865" lon="1.75099">
        <ele>276</ele>
        <time>2013-03-02T14:59:27Z</time>
      </trkpt>
      <trkpt lat="44.08865" lon="1.75091">
        <ele>277</ele>
        <time>2013-03-02T14:59:29Z</time>
      </trkpt>
      <trkpt lat="44.08865" lon="1.75083">
        <ele>277</ele>
        <time>2013-03-02T14:59:31Z</time>
      </trkpt>
      <trkpt lat="44.08865" lon="1.75075">
        <ele>277</ele>
        <time>2013-03-02T14:59:33Z</time>
      </trkpt>
      <trkpt lat="44.08865" lon="1.75066">
        <ele>277</ele>
        <time>2013-03-02T14:59:35Z</time>
      </trkpt>
      <trkpt lat="44.08866" lon="1.75058">
        <ele>277</ele>
        <time>2013-03-02T14:59:37Z</time>
      </trkpt>
      <trkpt lat="44.08868" lon="1.7505">
        <ele>277</ele>
        <time>2013-03-02T14:59:39Z</time>
      </trkpt>
      <trkpt lat="44.0887" lon="1.75043">
        <ele>277</ele>
        <time>2013-03-02T14:59:41Z</time>
      </trkpt>
      <trkpt lat="44.08873" lon="1.75035">
        <ele>277</ele>
        <time>2013-03-02T14:59:43Z</time>
      </trkpt>
      <trkpt lat="44.08875" lon="1.75028">
        <ele>277</ele>
        <time>2013-03-02T14:59:45Z</time>
      </trkpt>
      <trkpt lat="44.08877" lon="1.7502">
        <ele>277</ele>
        <time>2013-03-02T14:59:47Z</time>
      </trkpt>
      <trkpt lat="44.08878" lon="1.75013">
        <ele>277</ele>
        <time>2013-03-02T14:59:49Z</time>
      </trkpt>
      <trkpt lat="44.0888" lon="1.75005">
        <ele>277</ele>
        <time>2013-03-02T14:59:51Z</time>
      </trkpt>
      <trkpt lat="44.08882" lon="1.74998">
        <ele>277</ele>
        <time>2013-03-02T14:59:53Z</time>
      </trkpt>
      <trkpt lat="44.08881" lon="1.74992">
        <ele>277</ele>
        <time>2013-03-02T14:59:55Z</time>
      </trkpt>
      <trkpt lat="44.08879" lon="1.74986">
        <ele>277</ele>
        <time>2013-03-02T14:59:57Z</time>
      </trkpt>
      <trkpt lat="44.08879" lon="1.74979">
        <ele>277</ele>
        <time>2013-03-02T14:59:59Z</time>
      </trkpt>
      <trkpt lat="44.0888" lon="1.74975">
        <ele>277</ele>
        <time>2013-03-02T15:00:02Z</time>
      </trkpt>
      <trkpt lat="44.08881" lon="1.74973">
        <ele>277</ele>
        <time>2013-03-02T15:00:04Z</time>
      </trkpt>
      <trkpt lat="44.08882" lon="1.74972">
        <ele>277</ele>
        <time>2013-03-02T15:00:06Z</time>
      </trkpt>
      <trkpt lat="44.08882" lon="1.74969">
        <ele>277</ele>
        <time>2013-03-02T15:00:08Z</time>
      </trkpt>
      <trkpt lat="44.08881" lon="1.74962">
        <ele>277</ele>
        <time>2013-03-02T15:00:10Z</time>
      </trkpt>
      <trkpt lat="44.08881" lon="1.74955">
        <ele>277</ele>
        <time>2013-03-02T15:00:12Z</time>
      </trkpt>
      <trkpt lat="44.0888" lon="1.74947">
        <ele>277</ele>
        <time>2013-03-02T15:00:14Z</time>
      </trkpt>
      <trkpt lat="44.08879" lon="1.7494">
        <ele>277</ele>
        <time>2013-03-02T15:00:16Z</time>
      </trkpt>
      <trkpt lat="44.08879" lon="1.74931">
        <ele>277</ele>
        <time>2013-03-02T15:00:18Z</time>
      </trkpt>
      <trkpt lat="44.08878" lon="1.74923">
        <ele>277</ele>
        <time>2013-03-02T15:00:20Z</time>
      </trkpt>
      <trkpt lat="44.08877" lon="1.74916">
        <ele>277</ele>
        <time>2013-03-02T15:00:22Z</time>
      </trkpt>
      <trkpt lat="44.08876" lon="1.74908">
        <ele>277</ele>
        <time>2013-03-02T15:00:24Z</time>
      </trkpt>
      <trkpt lat="44.08877" lon="1.74901">
        <ele>277</ele>
        <time>2013-03-02T15:00:26Z</time>
      </trkpt>
      <trkpt lat="44.08878" lon="1.74892">
        <ele>277</ele>
        <time>2013-03-02T15:00:28Z</time>
      </trkpt>
      <trkpt lat="44.08878" lon="1.74882">
        <ele>277</ele>
        <time>2013-03-02T15:00:30Z</time>
      </trkpt>
      <trkpt lat="44.08878" lon="1.74872">
        <ele>277</ele>
        <time>2013-03-02T15:00:32Z</time>
      </trkpt>
      <trkpt lat="44.08879" lon="1.74862">
        <ele>277</ele>
        <time>2013-03-02T15:00:34Z</time>
      </trkpt>
      <trkpt lat="44.08882" lon="1.74852">
        <ele>277</ele>
        <time>2013-03-02T15:00:36Z</time>
      </trkpt>
      <trkpt lat="44.08885" lon="1.74842">
        <ele>277</ele>
        <time>2013-03-02T15:00:38Z</time>
      </trkpt>
      <trkpt lat="44.08888" lon="1.74834">
        <ele>277</ele>
        <time>2013-03-02T15:00:40Z</time>
      </trkpt>
      <trkpt lat="44.0889" lon="1.74825">
        <ele>277</ele>
        <time>2013-03-02T15:00:42Z</time>
      </trkpt>
      <trkpt lat="44.08893" lon="1.74816">
        <ele>277</ele>
        <time>2013-03-02T15:00:44Z</time>
      </trkpt>
      <trkpt lat="44.08894" lon="1.74807">
        <ele>277</ele>
        <time>2013-03-02T15:00:46Z</time>
      </trkpt>
      <trkpt lat="44.08895" lon="1.74798">
        <ele>277</ele>
        <time>2013-03-02T15:00:48Z</time>
      </trkpt>
      <trkpt lat="44.08895" lon="1.7479">
        <ele>277</ele>
        <time>2013-03-02T15:00:50Z</time>
      </trkpt>
      <trkpt lat="44.08893" lon="1.74782">
        <ele>277</ele>
        <time>2013-03-02T15:00:52Z</time>
      </trkpt>
      <trkpt lat="44.08894" lon="1.74774">
        <ele>277</ele>
        <time>2013-03-02T15:00:54Z</time>
      </trkpt>
      <trkpt lat="44.08894" lon="1.74765">
        <ele>277</ele>
        <time>2013-03-02T15:00:56Z</time>
      </trkpt>
      <trkpt lat="44.08895" lon="1.74755">
        <ele>277</ele>
        <time>2013-03-02T15:00:58Z</time>
      </trkpt>
      <trkpt lat="44.08894" lon="1.74745">
        <ele>277</ele>
        <time>2013-03-02T15:01:00Z</time>
      </trkpt>
      <trkpt lat="44.08892" lon="1.74734">
        <ele>277</ele>
        <time>2013-03-02T15:01:02Z</time>
      </trkpt>
      <trkpt lat="44.08892" lon="1.74725">
        <ele>277</ele>
        <time>2013-03-02T15:01:04Z</time>
      </trkpt>
      <trkpt lat="44.08895" lon="1.7472">
        <ele>277</ele>
        <time>2013-03-02T15:01:06Z</time>
      </trkpt>
      <trkpt lat="44.08898" lon="1.74716">
        <ele>278</ele>
        <time>2013-03-02T15:01:08Z</time>
      </trkpt>
      <trkpt lat="44.08901" lon="1.74711">
        <ele>278</ele>
        <time>2013-03-02T15:01:10Z</time>
      </trkpt>
      <trkpt lat="44.08904" lon="1.74706">
        <ele>279</ele>
        <time>2013-03-02T15:01:12Z</time>
      </trkpt>
      <trkpt lat="44.08907" lon="1.74703">
        <ele>279</ele>
        <time>2013-03-02T15:01:14Z</time>
      </trkpt>
      <trkpt lat="44.08909" lon="1.747">
        <ele>280</ele>
        <time>2013-03-02T15:01:16Z</time>
      </trkpt>
      <trkpt lat="44.08908" lon="1.74695">
        <ele>280</ele>
        <time>2013-03-02T15:01:18Z</time>
      </trkpt>
      <trkpt lat="44.0891" lon="1.7469">
        <ele>281</ele>
        <time>2013-03-02T15:01:20Z</time>
      </trkpt>
      <trkpt lat="44.08911" lon="1.74683">
        <ele>281</ele>
        <time>2013-03-02T15:01:22Z</time>
      </trkpt>
      <trkpt lat="44.0891" lon="1.74676">
        <ele>282</ele>
        <time>2013-03-02T15:01:24Z</time>
      </trkpt>
      <trkpt lat="44.08909" lon="1.74667">
        <ele>282</ele>
        <time>2013-03-02T15:01:26Z</time>
      </trkpt>
      <trkpt lat="44.08908" lon="1.74656">
        <ele>282</ele>
        <time>2013-03-02T15:01:28Z</time>
      </trkpt>
      <trkpt lat="44.08907" lon="1.74644">
        <ele>282</ele>
        <time>2013-03-02T15:01:30Z</time>
      </trkpt>
      <trkpt lat="44.08907" lon="1.74633">
        <ele>283</ele>
        <time>2013-03-02T15:01:32Z</time>
      </trkpt>
      <trkpt lat="44.08907" lon="1.74621">
        <ele>283</ele>
        <time>2013-03-02T15:01:34Z</time>
      </trkpt>
      <trkpt lat="44.08907" lon="1.7461">
        <ele>284</ele>
        <time>2013-03-02T15:01:36Z</time>
      </trkpt>
      <trkpt lat="44.08907" lon="1.746">
        <ele>284</ele>
        <time>2013-03-02T15:01:38Z</time>
      </trkpt>
      <trkpt lat="44.08908" lon="1.7459">
        <ele>284</ele>
        <time>2013-03-02T15:01:40Z</time>
      </trkpt>
      <trkpt lat="44.08908" lon="1.74582">
        <ele>284</ele>
        <time>2013-03-02T15:01:42Z</time>
      </trkpt>
      <trkpt lat="44.08907" lon="1.74572">
        <ele>284</ele>
        <time>2013-03-02T15:01:44Z</time>
      </trkpt>
      <trkpt lat="44.08906" lon="1.7456">
        <ele>284</ele>
        <time>2013-03-02T15:01:46Z</time>
      </trkpt>
      <trkpt lat="44.08905" lon="1.74549">
        <ele>284</ele>
        <time>2013-03-02T15:01:48Z</time>
      </trkpt>
      <trkpt lat="44.08903" lon="1.74536">
        <ele>284</ele>
        <time>2013-03-02T15:01:50Z</time>
      </trkpt>
      <trkpt lat="44.08902" lon="1.74523">
        <ele>283</ele>
        <time>2013-03-02T15:01:52Z</time>
      </trkpt>
      <trkpt lat="44.089" lon="1.7451">
        <ele>283</ele>
        <time>2013-03-02T15:01:54Z</time>
      </trkpt>
      <trkpt lat="44.08898" lon="1.74497">
        <ele>283</ele>
        <time>2013-03-02T15:01:56Z</time>
      </trkpt>
      <trkpt lat="44.08894" lon="1.74486">
        <ele>283</ele>
        <time>2013-03-02T15:01:58Z</time>
      </trkpt>
      <trkpt lat="44.08891" lon="1.74475">
        <ele>283</ele>
        <time>2013-03-02T15:02:00Z</time>
      </trkpt>
      <trkpt lat="44.08889" lon="1.74463">
        <ele>283</ele>
        <time>2013-03-02T15:02:02Z</time>
      </trkpt>
      <trkpt lat="44.08884" lon="1.74453">
        <ele>283</ele>
        <time>2013-03-02T15:02:04Z</time>
      </trkpt>
      <trkpt lat="44.08882" lon="1.74445">
        <ele>283</ele>
        <time>2013-03-02T15:02:06Z</time>
      </trkpt>
      <trkpt lat="44.08882" lon="1.74438">
        <ele>283</ele>
        <time>2013-03-02T15:02:08Z</time>
      </trkpt>
      <trkpt lat="44.08885" lon="1.74434">
        <ele>283</ele>
        <time>2013-03-02T15:02:10Z</time>
      </trkpt>
      <trkpt lat="44.08886" lon="1.74428">
        <ele>283</ele>
        <time>2013-03-02T15:02:12Z</time>
      </trkpt>
      <trkpt lat="44.08887" lon="1.74419">
        <ele>283</ele>
        <time>2013-03-02T15:02:14Z</time>
      </trkpt>
      <trkpt lat="44.08888" lon="1.7441">
        <ele>283</ele>
        <time>2013-03-02T15:02:16Z</time>
      </trkpt>
      <trkpt lat="44.08889" lon="1.744">
        <ele>283</ele>
        <time>2013-03-02T15:02:18Z</time>
      </trkpt>
      <trkpt lat="44.08892" lon="1.74391">
        <ele>283</ele>
        <time>2013-03-02T15:02:20Z</time>
      </trkpt>
      <trkpt lat="44.08894" lon="1.74381">
        <ele>283</ele>
        <time>2013-03-02T15:02:22Z</time>
      </trkpt>
      <trkpt lat="44.08899" lon="1.74372">
        <ele>283</ele>
        <time>2013-03-02T15:02:24Z</time>
      </trkpt>
      <trkpt lat="44.08902" lon="1.74365">
        <ele>283</ele>
        <time>2013-03-02T15:02:26Z</time>
      </trkpt>
      <trkpt lat="44.08902" lon="1.74357">
        <ele>283</ele>
        <time>2013-03-02T15:02:28Z</time>
      </trkpt>
      <trkpt lat="44.08904" lon="1.74348">
        <ele>283</ele>
        <time>2013-03-02T15:02:30Z</time>
      </trkpt>
      <trkpt lat="44.08903" lon="1.7434">
        <ele>283</ele>
        <time>2013-03-02T15:02:32Z</time>
      </trkpt>
      <trkpt lat="44.08898" lon="1.74337">
        <ele>282</ele>
        <time>2013-03-02T15:02:34Z</time>
      </trkpt>
      <trkpt lat="44.0889" lon="1.7433">
        <ele>282</ele>
        <time>2013-03-02T15:02:36Z</time>
      </trkpt>
      <trkpt lat="44.08883" lon="1.74323">
        <ele>282</ele>
        <time>2013-03-02T15:02:38Z</time>
      </trkpt>
      <trkpt lat="44.08876" lon="1.74316">
        <ele>282</ele>
        <time>2013-03-02T15:02:40Z</time>
      </trkpt>
      <trkpt lat="44.0887" lon="1.74308">
        <ele>282</ele>
        <time>2013-03-02T15:02:42Z</time>
      </trkpt>
      <trkpt lat="44.08864" lon="1.74301">
        <ele>282</ele>
        <time>2013-03-02T15:02:44Z</time>
      </trkpt>
      <trkpt lat="44.08857" lon="1.74293">
        <ele>282</ele>
        <time>2013-03-02T15:02:46Z</time>
      </trkpt>
      <trkpt lat="44.08852" lon="1.74287">
        <ele>282</ele>
        <time>2013-03-02T15:02:48Z</time>
      </trkpt>
      <trkpt lat="44.08848" lon="1.74282">
        <ele>282</ele>
        <time>2013-03-02T15:02:50Z</time>
      </trkpt>
      <trkpt lat="44.08842" lon="1.74276">
        <ele>283</ele>
        <time>2013-03-02T15:02:52Z</time>
      </trkpt>
      <trkpt lat="44.08836" lon="1.7427">
        <ele>283</ele>
        <time>2013-03-02T15:02:54Z</time>
      </trkpt>
      <trkpt lat="44.08831" lon="1.74264">
        <ele>284</ele>
        <time>2013-03-02T15:02:56Z</time>
      </trkpt>
      <trkpt lat="44.08828" lon="1.74259">
        <ele>284</ele>
        <time>2013-03-02T15:02:58Z</time>
      </trkpt>
      <trkpt lat="44.08824" lon="1.74254">
        <ele>284</ele>
        <time>2013-03-02T15:03:00Z</time>
      </trkpt>
      <trkpt lat="44.08818" lon="1.74251">
        <ele>284</ele>
        <time>2013-03-02T15:03:02Z</time>
      </trkpt>
      <trkpt lat="44.08812" lon="1.74248">
        <ele>284</ele>
        <time>2013-03-02T15:03:04Z</time>
      </trkpt>
      <trkpt lat="44.08809" lon="1.74241">
        <ele>284</ele>
        <time>2013-03-02T15:03:06Z</time>
      </trkpt>
      <trkpt lat="44.08806" lon="1.74234">
        <ele>284</ele>
        <time>2013-03-02T15:03:08Z</time>
      </trkpt>
      <trkpt lat="44.08803" lon="1.74228">
        <ele>284</ele>
        <time>2013-03-02T15:03:10Z</time>
      </trkpt>
      <trkpt lat="44.08797" lon="1.7422">
        <ele>284</ele>
        <time>2013-03-02T15:03:12Z</time>
      </trkpt>
      <trkpt lat="44.08793" lon="1.74211">
        <ele>284</ele>
        <time>2013-03-02T15:03:14Z</time>
      </trkpt>
      <trkpt lat="44.08792" lon="1.74202">
        <ele>284</ele>
        <time>2013-03-02T15:03:16Z</time>
      </trkpt>
      <trkpt lat="44.08791" lon="1.74193">
        <ele>284</ele>
        <time>2013-03-02T15:03:18Z</time>
      </trkpt>
      <trkpt lat="44.08789" lon="1.74184">
        <ele>284</ele>
        <time>2013-03-02T15:03:20Z</time>
      </trkpt>
      <trkpt lat="44.08786" lon="1.74177">
        <ele>284</ele>
        <time>2013-03-02T15:03:22Z</time>
      </trkpt>
      <trkpt lat="44.08779" lon="1.74171">
        <ele>285</ele>
        <time>2013-03-02T15:03:24Z</time>
      </trkpt>
      <trkpt lat="44.08775" lon="1.74164">
        <ele>285</ele>
        <time>2013-03-02T15:03:26Z</time>
      </trkpt>
      <trkpt lat="44.0877" lon="1.74156">
        <ele>286</ele>
        <time>2013-03-02T15:03:28Z</time>
      </trkpt>
      <trkpt lat="44.08765" lon="1.74146">
        <ele>287</ele>
        <time>2013-03-02T15:03:30Z</time>
      </trkpt>
      <trkpt lat="44.0876" lon="1.7414">
        <ele>288</ele>
        <time>2013-03-02T15:03:32Z</time>
      </trkpt>
      <trkpt lat="44.08752" lon="1.74137">
        <ele>289</ele>
        <time>2013-03-02T15:03:34Z</time>
      </trkpt>
      <trkpt lat="44.08745" lon="1.74133">
        <ele>289</ele>
        <time>2013-03-02T15:03:36Z</time>
      </trkpt>
      <trkpt lat="44.08739" lon="1.74126">
        <ele>289</ele>
        <time>2013-03-02T15:03:38Z</time>
      </trkpt>
      <trkpt lat="44.08735" lon="1.74118">
        <ele>289</ele>
        <time>2013-03-02T15:03:40Z</time>
      </trkpt>
      <trkpt lat="44.08728" lon="1.74114">
        <ele>289</ele>
        <time>2013-03-02T15:03:42Z</time>
      </trkpt>
      <trkpt lat="44.08722" lon="1.74116">
        <ele>289</ele>
        <time>2013-03-02T15:03:44Z</time>
      </trkpt>
      <trkpt lat="44.08715" lon="1.74117">
        <ele>289</ele>
        <time>2013-03-02T15:03:46Z</time>
      </trkpt>
      <trkpt lat="44.08709" lon="1.74112">
        <ele>289</ele>
        <time>2013-03-02T15:03:48Z</time>
      </trkpt>
      <trkpt lat="44.08704" lon="1.74106">
        <ele>289</ele>
        <time>2013-03-02T15:03:50Z</time>
      </trkpt>
      <trkpt lat="44.08699" lon="1.741">
        <ele>289</ele>
        <time>2013-03-02T15:03:52Z</time>
      </trkpt>
      <trkpt lat="44.08693" lon="1.74095">
        <ele>289</ele>
        <time>2013-03-02T15:03:54Z</time>
      </trkpt>
      <trkpt lat="44.08688" lon="1.74089">
        <ele>289</ele>
        <time>2013-03-02T15:03:56Z</time>
      </trkpt>
      <trkpt lat="44.08683" lon="1.74084">
        <ele>289</ele>
        <time>2013-03-02T15:03:58Z</time>
      </trkpt>
      <trkpt lat="44.08676" lon="1.74081">
        <ele>289</ele>
        <time>2013-03-02T15:04:00Z</time>
      </trkpt>
      <trkpt lat="44.0867" lon="1.74076">
        <ele>289</ele>
        <time>2013-03-02T15:04:02Z</time>
      </trkpt>
      <trkpt lat="44.08667" lon="1.7407">
        <ele>289</ele>
        <time>2013-03-02T15:04:04Z</time>
      </trkpt>
      <trkpt lat="44.08662" lon="1.74067">
        <ele>289</ele>
        <time>2013-03-02T15:04:06Z</time>
      </trkpt>
      <trkpt lat="44.08656" lon="1.74064">
        <ele>289</ele>
        <time>2013-03-02T15:04:08Z</time>
      </trkpt>
      <trkpt lat="44.0865" lon="1.7406">
        <ele>289</ele>
        <time>2013-03-02T15:04:10Z</time>
      </trkpt>
      <trkpt lat="44.08647" lon="1.74057">
        <ele>289</ele>
        <time>2013-03-02T15:04:12Z</time>
      </trkpt>
      <trkpt lat="44.08644" lon="1.74054">
        <ele>289</ele>
        <time>2013-03-02T15:04:14Z</time>
      </trkpt>
      <trkpt lat="44.08643" lon="1.74054">
        <ele>289</ele>
        <time>2013-03-02T15:04:17Z</time>
      </trkpt>
      <trkpt lat="44.0864" lon="1.74051">
        <ele>289</ele>
        <time>2013-03-02T15:04:20Z</time>
      </trkpt>
      <trkpt lat="44.08638" lon="1.7405">
        <ele>288</ele>
        <time>2013-03-02T15:04:22Z</time>
      </trkpt>
      <trkpt lat="44.08637" lon="1.74048">
        <ele>288</ele>
        <time>2013-03-02T15:04:24Z</time>
      </trkpt>
      <trkpt lat="44.08636" lon="1.74046">
        <ele>287</ele>
        <time>2013-03-02T15:04:26Z</time>
      </trkpt>
      <trkpt lat="44.08636" lon="1.74044">
        <ele>286</ele>
        <time>2013-03-02T15:04:28Z</time>
      </trkpt>
      <trkpt lat="44.08636" lon="1.74042">
        <ele>285</ele>
        <time>2013-03-02T15:04:30Z</time>
      </trkpt>
      <trkpt lat="44.08636" lon="1.74041">
        <ele>284</ele>
        <time>2013-03-02T15:04:33Z</time>
      </trkpt>
      <trkpt lat="44.08635" lon="1.74039">
        <ele>283</ele>
        <time>2013-03-02T15:04:36Z</time>
      </trkpt>
      <trkpt lat="44.08632" lon="1.74036">
        <ele>283</ele>
        <time>2013-03-02T15:04:38Z</time>
      </trkpt>
      <trkpt lat="44.08628" lon="1.74033">
        <ele>283</ele>
        <time>2013-03-02T15:04:40Z</time>
      </trkpt>
      <trkpt lat="44.08624" lon="1.74028">
        <ele>283</ele>
        <time>2013-03-02T15:04:43Z</time>
      </trkpt>
      <trkpt lat="44.08619" lon="1.74024">
        <ele>283</ele>
        <time>2013-03-02T15:04:45Z</time>
      </trkpt>
      <trkpt lat="44.08613" lon="1.7402">
        <ele>283</ele>
        <time>2013-03-02T15:04:47Z</time>
      </trkpt>
      <trkpt lat="44.08608" lon="1.74014">
        <ele>283</ele>
        <time>2013-03-02T15:04:49Z</time>
      </trkpt>
      <trkpt lat="44.08606" lon="1.74008">
        <ele>283</ele>
        <time>2013-03-02T15:04:51Z</time>
      </trkpt>
      <trkpt lat="44.08603" lon="1.74004">
        <ele>283</ele>
        <time>2013-03-02T15:04:54Z</time>
      </trkpt>
      <trkpt lat="44.08601" lon="1.74004">
        <ele>283</ele>
        <time>2013-03-02T15:04:56Z</time>
      </trkpt>
      <trkpt lat="44.086" lon="1.74005">
        <ele>283</ele>
        <time>2013-03-02T15:05:00Z</time>
      </trkpt>
      <trkpt lat="44.08598" lon="1.74004">
        <ele>283</ele>
        <time>2013-03-02T15:05:02Z</time>
      </trkpt>
      <trkpt lat="44.08596" lon="1.74003">
        <ele>283</ele>
        <time>2013-03-02T15:05:04Z</time>
      </trkpt>
      <trkpt lat="44.08595" lon="1.74002">
        <ele>283</ele>
        <time>2013-03-02T15:05:06Z</time>
      </trkpt>
      <trkpt lat="44.08593" lon="1.74002">
        <ele>283</ele>
        <time>2013-03-02T15:05:08Z</time>
      </trkpt>
      <trkpt lat="44.08592" lon="1.74003">
        <ele>283</ele>
        <time>2013-03-02T15:05:10Z</time>
      </trkpt>
      <trkpt lat="44.08591" lon="1.74004">
        <ele>283</ele>
        <time>2013-03-02T15:05:12Z</time>
      </trkpt>
      <trkpt lat="44.08589" lon="1.74004">
        <ele>283</ele>
        <time>2013-03-02T15:05:15Z</time>
      </trkpt>
      <trkpt lat="44.08588" lon="1.74003">
        <ele>283</ele>
        <time>2013-03-02T15:05:18Z</time>
      </trkpt>
      <trkpt lat="44.08587" lon="1.74001">
        <ele>283</ele>
        <time>2013-03-02T15:05:20Z</time>
      </trkpt>
      <trkpt lat="44.08587" lon="1.74">
        <ele>284</ele>
        <time>2013-03-02T15:05:22Z</time>
      </trkpt>
      <trkpt lat="44.08587" lon="1.73998">
        <ele>284</ele>
        <time>2013-03-02T15:05:25Z</time>
      </trkpt>
      <trkpt lat="44.08588" lon="1.73996">
        <ele>285</ele>
        <time>2013-03-02T15:05:31Z</time>
      </trkpt>
      <trkpt lat="44.08588" lon="1.73998">
        <ele>285</ele>
        <time>2013-03-02T15:05:52Z</time>
      </trkpt>
      <trkpt lat="44.08588" lon="1.74">
        <ele>285</ele>
        <time>2013-03-02T15:05:54Z</time>
      </trkpt>
      <trkpt lat="44.08589" lon="1.74002">
        <ele>285</ele>
        <time>2013-03-02T15:05:56Z</time>
      </trkpt>
      <trkpt lat="44.0859" lon="1.74002">
        <ele>285</ele>
        <time>2013-03-02T15:06:02Z</time>
      </trkpt>
      <trkpt lat="44.08591" lon="1.74004">
        <ele>285</ele>
        <time>2013-03-02T15:06:05Z</time>
      </trkpt>
      <trkpt lat="44.0859" lon="1.74003">
        <ele>285</ele>
        <time>2013-03-02T15:06:35Z</time>
      </trkpt>
      <trkpt lat="44.0859" lon="1.74005">
        <ele>285</ele>
        <time>2013-03-02T15:07:19Z</time>
      </trkpt>
      <trkpt lat="44.08591" lon="1.74005">
        <ele>285</ele>
        <time>2013-03-02T15:07:46Z</time>
      </trkpt>
      <trkpt lat="44.08593" lon="1.74005">
        <ele>285</ele>
        <time>2013-03-02T15:08:01Z</time>
      </trkpt>
      <trkpt lat="44.08595" lon="1.74004">
        <ele>285</ele>
        <time>2013-03-02T15:08:03Z</time>
      </trkpt>
      <trkpt lat="44.08596" lon="1.74005">
        <ele>285</ele>
        <time>2013-03-02T15:08:05Z</time>
      </trkpt>
      <trkpt lat="44.08598" lon="1.74004">
        <ele>285</ele>
        <time>2013-03-02T15:08:07Z</time>
      </trkpt>
      <trkpt lat="44.08599" lon="1.74004">
        <ele>285</ele>
        <time>2013-03-02T15:08:09Z</time>
      </trkpt>
      <trkpt lat="44.08601" lon="1.74004">
        <ele>285</ele>
        <time>2013-03-02T15:08:11Z</time>
      </trkpt>
      <trkpt lat="44.08601" lon="1.74002">
        <ele>285</ele>
        <time>2013-03-02T15:08:15Z</time>
      </trkpt>
      <trkpt lat="44.08602" lon="1.74001">
        <ele>285</ele>
        <time>2013-03-02T15:08:31Z</time>
      </trkpt>
      <trkpt lat="44.08605" lon="1.73998">
        <ele>285</ele>
        <time>2013-03-02T15:08:33Z</time>
      </trkpt>
      <trkpt lat="44.08609" lon="1.73995">
        <ele>285</ele>
        <time>2013-03-02T15:08:35Z</time>
      </trkpt>
      <trkpt lat="44.08615" lon="1.73994">
        <ele>285</ele>
        <time>2013-03-02T15:08:37Z</time>
      </trkpt>
      <trkpt lat="44.08622" lon="1.73991">
        <ele>285</ele>
        <time>2013-03-02T15:08:39Z</time>
      </trkpt>
      <trkpt lat="44.0863" lon="1.73989">
        <ele>285</ele>
        <time>2013-03-02T15:08:41Z</time>
      </trkpt>
      <trkpt lat="44.08638" lon="1.73987">
        <ele>285</ele>
        <time>2013-03-02T15:08:43Z</time>
      </trkpt>
      <trkpt lat="44.08647" lon="1.73986">
        <ele>284</ele>
        <time>2013-03-02T15:08:45Z</time>
      </trkpt>
      <trkpt lat="44.08656" lon="1.73984">
        <ele>283</ele>
        <time>2013-03-02T15:08:47Z</time>
      </trkpt>
      <trkpt lat="44.08666" lon="1.73981">
        <ele>282</ele>
        <time>2013-03-02T15:08:49Z</time>
      </trkpt>
      <trkpt lat="44.08676" lon="1.73977">
        <ele>280</ele>
        <time>2013-03-02T15:08:51Z</time>
      </trkpt>
      <trkpt lat="44.08686" lon="1.73974">
        <ele>279</ele>
        <time>2013-03-02T15:08:53Z</time>
      </trkpt>
      <trkpt lat="44.08696" lon="1.73973">
        <ele>277</ele>
        <time>2013-03-02T15:08:55Z</time>
      </trkpt>
      <trkpt lat="44.08705" lon="1.73972">
        <ele>276</ele>
        <time>2013-03-02T15:08:57Z</time>
      </trkpt>
      <trkpt lat="44.08714" lon="1.73971">
        <ele>274</ele>
        <time>2013-03-02T15:08:59Z</time>
      </trkpt>
      <trkpt lat="44.08722" lon="1.73969">
        <ele>273</ele>
        <time>2013-03-02T15:09:01Z</time>
      </trkpt>
      <trkpt lat="44.0873" lon="1.73964">
        <ele>273</ele>
        <time>2013-03-02T15:09:03Z</time>
      </trkpt>
      <trkpt lat="44.08738" lon="1.73956">
        <ele>272</ele>
        <time>2013-03-02T15:09:05Z</time>
      </trkpt>
      <trkpt lat="44.08747" lon="1.73946">
        <ele>271</ele>
        <time>2013-03-02T15:09:07Z</time>
      </trkpt>
      <trkpt lat="44.08756" lon="1.73937">
        <ele>271</ele>
        <time>2013-03-02T15:09:09Z</time>
      </trkpt>
      <trkpt lat="44.08766" lon="1.7393">
        <ele>270</ele>
        <time>2013-03-02T15:09:11Z</time>
      </trkpt>
      <trkpt lat="44.08775" lon="1.73921">
        <ele>268</ele>
        <time>2013-03-02T15:09:13Z</time>
      </trkpt>
      <trkpt lat="44.08784" lon="1.73913">
        <ele>266</ele>
        <time>2013-03-02T15:09:15Z</time>
      </trkpt>
      <trkpt lat="44.08793" lon="1.73903">
        <ele>265</ele>
        <time>2013-03-02T15:09:17Z</time>
      </trkpt>
      <trkpt lat="44.08802" lon="1.73892">
        <ele>263</ele>
        <time>2013-03-02T15:09:19Z</time>
      </trkpt>
      <trkpt lat="44.08809" lon="1.73883">
        <ele>262</ele>
        <time>2013-03-02T15:09:21Z</time>
      </trkpt>
      <trkpt lat="44.08818" lon="1.73873">
        <ele>261</ele>
        <time>2013-03-02T15:09:23Z</time>
      </trkpt>
      <trkpt lat="44.08826" lon="1.73862">
        <ele>260</ele>
        <time>2013-03-02T15:09:25Z</time>
      </trkpt>
      <trkpt lat="44.08834" lon="1.73853">
        <ele>258</ele>
        <time>2013-03-02T15:09:27Z</time>
      </trkpt>
      <trkpt lat="44.08842" lon="1.73843">
        <ele>256</ele>
        <time>2013-03-02T15:09:29Z</time>
      </trkpt>
      <trkpt lat="44.08849" lon="1.73832">
        <ele>254</ele>
        <time>2013-03-02T15:09:31Z</time>
      </trkpt>
      <trkpt lat="44.08857" lon="1.73822">
        <ele>252</ele>
        <time>2013-03-02T15:09:33Z</time>
      </trkpt>
      <trkpt lat="44.08865" lon="1.73812">
        <ele>250</ele>
        <time>2013-03-02T15:09:35Z</time>
      </trkpt>
      <trkpt lat="44.08872" lon="1.73803">
        <ele>248</ele>
        <time>2013-03-02T15:09:37Z</time>
      </trkpt>
      <trkpt lat="44.08878" lon="1.73792">
        <ele>246</ele>
        <time>2013-03-02T15:09:39Z</time>
      </trkpt>
      <trkpt lat="44.08884" lon="1.73782">
        <ele>244</ele>
        <time>2013-03-02T15:09:41Z</time>
      </trkpt>
      <trkpt lat="44.08889" lon="1.7377">
        <ele>242</ele>
        <time>2013-03-02T15:09:43Z</time>
      </trkpt>
      <trkpt lat="44.08895" lon="1.7376">
        <ele>240</ele>
        <time>2013-03-02T15:09:45Z</time>
      </trkpt>
      <trkpt lat="44.08901" lon="1.73749">
        <ele>239</ele>
        <time>2013-03-02T15:09:47Z</time>
      </trkpt>
      <trkpt lat="44.08904" lon="1.73739">
        <ele>238</ele>
        <time>2013-03-02T15:09:49Z</time>
      </trkpt>
      <trkpt lat="44.08907" lon="1.73731">
        <ele>237</ele>
        <time>2013-03-02T15:09:51Z</time>
      </trkpt>
      <trkpt lat="44.0891" lon="1.73724">
        <ele>237</ele>
        <time>2013-03-02T15:09:53Z</time>
      </trkpt>
      <trkpt lat="44.08908" lon="1.73722">
        <ele>237</ele>
        <time>2013-03-02T15:09:55Z</time>
      </trkpt>
      <trkpt lat="44.08905" lon="1.73724">
        <ele>237</ele>
        <time>2013-03-02T15:09:57Z</time>
      </trkpt>
      <trkpt lat="44.089" lon="1.73729">
        <ele>237</ele>
        <time>2013-03-02T15:09:59Z</time>
      </trkpt>
      <trkpt lat="44.08893" lon="1.73733">
        <ele>237</ele>
        <time>2013-03-02T15:10:01Z</time>
      </trkpt>
      <trkpt lat="44.08887" lon="1.73737">
        <ele>237</ele>
        <time>2013-03-02T15:10:03Z</time>
      </trkpt>
      <trkpt lat="44.08881" lon="1.73738">
        <ele>237</ele>
        <time>2013-03-02T15:10:05Z</time>
      </trkpt>
      <trkpt lat="44.08881" lon="1.7373">
        <ele>237</ele>
        <time>2013-03-02T15:10:07Z</time>
      </trkpt>
      <trkpt lat="44.08885" lon="1.73722">
        <ele>237</ele>
        <time>2013-03-02T15:10:09Z</time>
      </trkpt>
      <trkpt lat="44.0889" lon="1.73711">
        <ele>237</ele>
        <time>2013-03-02T15:10:11Z</time>
      </trkpt>
      <trkpt lat="44.08894" lon="1.73699">
        <ele>237</ele>
        <time>2013-03-02T15:10:13Z</time>
      </trkpt>
      <trkpt lat="44.089" lon="1.73688">
        <ele>235</ele>
        <time>2013-03-02T15:10:15Z</time>
      </trkpt>
      <trkpt lat="44.08905" lon="1.73677">
        <ele>234</ele>
        <time>2013-03-02T15:10:17Z</time>
      </trkpt>
      <trkpt lat="44.0891" lon="1.73665">
        <ele>232</ele>
        <time>2013-03-02T15:10:19Z</time>
      </trkpt>
      <trkpt lat="44.08915" lon="1.73653">
        <ele>231</ele>
        <time>2013-03-02T15:10:21Z</time>
      </trkpt>
      <trkpt lat="44.08921" lon="1.73641">
        <ele>229</ele>
        <time>2013-03-02T15:10:23Z</time>
      </trkpt>
      <trkpt lat="44.08927" lon="1.7363">
        <ele>227</ele>
        <time>2013-03-02T15:10:25Z</time>
      </trkpt>
      <trkpt lat="44.08934" lon="1.73617">
        <ele>225</ele>
        <time>2013-03-02T15:10:27Z</time>
      </trkpt>
      <trkpt lat="44.08941" lon="1.73602">
        <ele>223</ele>
        <time>2013-03-02T15:10:29Z</time>
      </trkpt>
      <trkpt lat="44.08948" lon="1.73587">
        <ele>221</ele>
        <time>2013-03-02T15:10:31Z</time>
      </trkpt>
      <trkpt lat="44.08956" lon="1.73573">
        <ele>219</ele>
        <time>2013-03-02T15:10:33Z</time>
      </trkpt>
      <trkpt lat="44.08963" lon="1.73559">
        <ele>217</ele>
        <time>2013-03-02T15:10:35Z</time>
      </trkpt>
      <trkpt lat="44.0897" lon="1.73545">
        <ele>215</ele>
        <time>2013-03-02T15:10:37Z</time>
      </trkpt>
      <trkpt lat="44.08975" lon="1.73533">
        <ele>213</ele>
        <time>2013-03-02T15:10:39Z</time>
      </trkpt>
      <trkpt lat="44.0898" lon="1.73522">
        <ele>211</ele>
        <time>2013-03-02T15:10:41Z</time>
      </trkpt>
      <trkpt lat="44.08984" lon="1.73511">
        <ele>209</ele>
        <time>2013-03-02T15:10:43Z</time>
      </trkpt>
      <trkpt lat="44.08988" lon="1.73498">
        <ele>207</ele>
        <time>2013-03-02T15:10:45Z</time>
      </trkpt>
      <trkpt lat="44.08993" lon="1.73487">
        <ele>205</ele>
        <time>2013-03-02T15:10:47Z</time>
      </trkpt>
      <trkpt lat="44.08998" lon="1.73475">
        <ele>203</ele>
        <time>2013-03-02T15:10:49Z</time>
      </trkpt>
      <trkpt lat="44.09003" lon="1.73462">
        <ele>201</ele>
        <time>2013-03-02T15:10:51Z</time>
      </trkpt>
      <trkpt lat="44.09008" lon="1.7345">
        <ele>199</ele>
        <time>2013-03-02T15:10:53Z</time>
      </trkpt>
      <trkpt lat="44.09013" lon="1.73438">
        <ele>197</ele>
        <time>2013-03-02T15:10:55Z</time>
      </trkpt>
      <trkpt lat="44.09018" lon="1.73427">
        <ele>195</ele>
        <time>2013-03-02T15:10:57Z</time>
      </trkpt>
      <trkpt lat="44.09023" lon="1.73416">
        <ele>194</ele>
        <time>2013-03-02T15:10:59Z</time>
      </trkpt>
      <trkpt lat="44.09029" lon="1.73405">
        <ele>192</ele>
        <time>2013-03-02T15:11:01Z</time>
      </trkpt>
      <trkpt lat="44.09035" lon="1.73393">
        <ele>191</ele>
        <time>2013-03-02T15:11:03Z</time>
      </trkpt>
      <trkpt lat="44.09041" lon="1.73381">
        <ele>190</ele>
        <time>2013-03-02T15:11:05Z</time>
      </trkpt>
      <trkpt lat="44.09048" lon="1.7337">
        <ele>188</ele>
        <time>2013-03-02T15:11:07Z</time>
      </trkpt>
      <trkpt lat="44.09052" lon="1.7336">
        <ele>187</ele>
        <time>2013-03-02T15:11:09Z</time>
      </trkpt>
      <trkpt lat="44.09057" lon="1.73352">
        <ele>186</ele>
        <time>2013-03-02T15:11:11Z</time>
      </trkpt>
      <trkpt lat="44.0906" lon="1.73342">
        <ele>185</ele>
        <time>2013-03-02T15:11:13Z</time>
      </trkpt>
      <trkpt lat="44.09065" lon="1.73333">
        <ele>184</ele>
        <time>2013-03-02T15:11:15Z</time>
      </trkpt>
      <trkpt lat="44.09071" lon="1.73323">
        <ele>183</ele>
        <time>2013-03-02T15:11:17Z</time>
      </trkpt>
      <trkpt lat="44.09076" lon="1.73316">
        <ele>182</ele>
        <time>2013-03-02T15:11:19Z</time>
      </trkpt>
      <trkpt lat="44.09079" lon="1.73311">
        <ele>181</ele>
        <time>2013-03-02T15:11:21Z</time>
      </trkpt>
      <trkpt lat="44.09078" lon="1.73309">
        <ele>181</ele>
        <time>2013-03-02T15:11:23Z</time>
      </trkpt>
      <trkpt lat="44.09075" lon="1.73309">
        <ele>180</ele>
        <time>2013-03-02T15:11:25Z</time>
      </trkpt>
      <trkpt lat="44.09071" lon="1.73312">
        <ele>180</ele>
        <time>2013-03-02T15:11:27Z</time>
      </trkpt>
      <trkpt lat="44.09065" lon="1.73315">
        <ele>180</ele>
        <time>2013-03-02T15:11:29Z</time>
      </trkpt>
      <trkpt lat="44.09058" lon="1.73318">
        <ele>180</ele>
        <time>2013-03-02T15:11:31Z</time>
      </trkpt>
      <trkpt lat="44.0905" lon="1.73323">
        <ele>179</ele>
        <time>2013-03-02T15:11:33Z</time>
      </trkpt>
      <trkpt lat="44.09041" lon="1.73328">
        <ele>179</ele>
        <time>2013-03-02T15:11:35Z</time>
      </trkpt>
      <trkpt lat="44.09031" lon="1.73334">
        <ele>178</ele>
        <time>2013-03-02T15:11:37Z</time>
      </trkpt>
      <trkpt lat="44.09021" lon="1.73341">
        <ele>178</ele>
        <time>2013-03-02T15:11:39Z</time>
      </trkpt>
      <trkpt lat="44.0901" lon="1.73349">
        <ele>178</ele>
        <time>2013-03-02T15:11:41Z</time>
      </trkpt>
      <trkpt lat="44.09" lon="1.73357">
        <ele>177</ele>
        <time>2013-03-02T15:11:43Z</time>
      </trkpt>
      <trkpt lat="44.08989" lon="1.73363">
        <ele>177</ele>
        <time>2013-03-02T15:11:45Z</time>
      </trkpt>
      <trkpt lat="44.08978" lon="1.73371">
        <ele>176</ele>
        <time>2013-03-02T15:11:47Z</time>
      </trkpt>
      <trkpt lat="44.08967" lon="1.7338">
        <ele>175</ele>
        <time>2013-03-02T15:11:49Z</time>
      </trkpt>
      <trkpt lat="44.08955" lon="1.7339">
        <ele>174</ele>
        <time>2013-03-02T15:11:51Z</time>
      </trkpt>
      <trkpt lat="44.08943" lon="1.734">
        <ele>173</ele>
        <time>2013-03-02T15:11:53Z</time>
      </trkpt>
      <trkpt lat="44.08932" lon="1.7341">
        <ele>171</ele>
        <time>2013-03-02T15:11:55Z</time>
      </trkpt>
      <trkpt lat="44.0892" lon="1.7342">
        <ele>169</ele>
        <time>2013-03-02T15:11:57Z</time>
      </trkpt>
      <trkpt lat="44.08908" lon="1.73429">
        <ele>168</ele>
        <time>2013-03-02T15:11:59Z</time>
      </trkpt>
      <trkpt lat="44.08897" lon="1.73439">
        <ele>167</ele>
        <time>2013-03-02T15:12:01Z</time>
      </trkpt>
      <trkpt lat="44.08885" lon="1.7345">
        <ele>165</ele>
        <time>2013-03-02T15:12:03Z</time>
      </trkpt>
      <trkpt lat="44.08874" lon="1.73462">
        <ele>164</ele>
        <time>2013-03-02T15:12:05Z</time>
      </trkpt>
      <trkpt lat="44.08863" lon="1.73471">
        <ele>162</ele>
        <time>2013-03-02T15:12:07Z</time>
      </trkpt>
      <trkpt lat="44.08855" lon="1.73478">
        <ele>160</ele>
        <time>2013-03-02T15:12:09Z</time>
      </trkpt>
      <trkpt lat="44.08849" lon="1.73486">
        <ele>158</ele>
        <time>2013-03-02T15:12:11Z</time>
      </trkpt>
      <trkpt lat="44.08844" lon="1.73485">
        <ele>157</ele>
        <time>2013-03-02T15:12:13Z</time>
      </trkpt>
      <trkpt lat="44.08846" lon="1.73478">
        <ele>156</ele>
        <time>2013-03-02T15:12:15Z</time>
      </trkpt>
      <trkpt lat="44.0885" lon="1.73469">
        <ele>156</ele>
        <time>2013-03-02T15:12:17Z</time>
      </trkpt>
      <trkpt lat="44.08856" lon="1.73458">
        <ele>155</ele>
        <time>2013-03-02T15:12:19Z</time>
      </trkpt>
      <trkpt lat="44.0886" lon="1.73445">
        <ele>155</ele>
        <time>2013-03-02T15:12:21Z</time>
      </trkpt>
      <trkpt lat="44.08867" lon="1.73432">
        <ele>154</ele>
        <time>2013-03-02T15:12:23Z</time>
      </trkpt>
      <trkpt lat="44.08872" lon="1.73419">
        <ele>153</ele>
        <time>2013-03-02T15:12:25Z</time>
      </trkpt>
      <trkpt lat="44.08878" lon="1.73408">
        <ele>152</ele>
        <time>2013-03-02T15:12:27Z</time>
      </trkpt>
      <trkpt lat="44.08884" lon="1.73397">
        <ele>150</ele>
        <time>2013-03-02T15:12:29Z</time>
      </trkpt>
      <trkpt lat="44.08889" lon="1.73386">
        <ele>149</ele>
        <time>2013-03-02T15:12:31Z</time>
      </trkpt>
      <trkpt lat="44.08894" lon="1.73374">
        <ele>149</ele>
        <time>2013-03-02T15:12:33Z</time>
      </trkpt>
      <trkpt lat="44.08899" lon="1.73362">
        <ele>148</ele>
        <time>2013-03-02T15:12:35Z</time>
      </trkpt>
      <trkpt lat="44.08905" lon="1.7335">
        <ele>146</ele>
        <time>2013-03-02T15:12:37Z</time>
      </trkpt>
      <trkpt lat="44.0891" lon="1.73338">
        <ele>144</ele>
        <time>2013-03-02T15:12:39Z</time>
      </trkpt>
      <trkpt lat="44.08916" lon="1.73327">
        <ele>143</ele>
        <time>2013-03-02T15:12:41Z</time>
      </trkpt>
      <trkpt lat="44.08923" lon="1.73317">
        <ele>142</ele>
        <time>2013-03-02T15:12:43Z</time>
      </trkpt>
      <trkpt lat="44.08929" lon="1.73307">
        <ele>140</ele>
        <time>2013-03-02T15:12:45Z</time>
      </trkpt>
      <trkpt lat="44.08936" lon="1.73296">
        <ele>138</ele>
        <time>2013-03-02T15:12:47Z</time>
      </trkpt>
      <trkpt lat="44.08942" lon="1.73286">
        <ele>138</ele>
        <time>2013-03-02T15:12:49Z</time>
      </trkpt>
      <trkpt lat="44.08947" lon="1.73275">
        <ele>137</ele>
        <time>2013-03-02T15:12:51Z</time>
      </trkpt>
      <trkpt lat="44.08953" lon="1.73264">
        <ele>137</ele>
        <time>2013-03-02T15:12:53Z</time>
      </trkpt>
      <trkpt lat="44.08958" lon="1.73252">
        <ele>136</ele>
        <time>2013-03-02T15:12:55Z</time>
      </trkpt>
      <trkpt lat="44.08962" lon="1.7324">
        <ele>136</ele>
        <time>2013-03-02T15:12:57Z</time>
      </trkpt>
      <trkpt lat="44.08967" lon="1.73229">
        <ele>135</ele>
        <time>2013-03-02T15:12:59Z</time>
      </trkpt>
      <trkpt lat="44.08972" lon="1.73216">
        <ele>134</ele>
        <time>2013-03-02T15:13:01Z</time>
      </trkpt>
      <trkpt lat="44.08976" lon="1.73202">
        <ele>134</ele>
        <time>2013-03-02T15:13:03Z</time>
      </trkpt>
      <trkpt lat="44.08982" lon="1.73188">
        <ele>133</ele>
        <time>2013-03-02T15:13:05Z</time>
      </trkpt>
      <trkpt lat="44.08988" lon="1.73175">
        <ele>133</ele>
        <time>2013-03-02T15:13:07Z</time>
      </trkpt>
      <trkpt lat="44.08995" lon="1.73161">
        <ele>132</ele>
        <time>2013-03-02T15:13:09Z</time>
      </trkpt>
      <trkpt lat="44.09002" lon="1.73147">
        <ele>131</ele>
        <time>2013-03-02T15:13:11Z</time>
      </trkpt>
      <trkpt lat="44.0901" lon="1.73134">
        <ele>130</ele>
        <time>2013-03-02T15:13:13Z</time>
      </trkpt>
      <trkpt lat="44.09021" lon="1.73122">
        <ele>128</ele>
        <time>2013-03-02T15:13:15Z</time>
      </trkpt>
      <trkpt lat="44.09029" lon="1.73111">
        <ele>127</ele>
        <time>2013-03-02T15:13:17Z</time>
      </trkpt>
      <trkpt lat="44.09034" lon="1.73098">
        <ele>126</ele>
        <time>2013-03-02T15:13:19Z</time>
      </trkpt>
      <trkpt lat="44.09033" lon="1.73087">
        <ele>124</ele>
        <time>2013-03-02T15:13:21Z</time>
      </trkpt>
      <trkpt lat="44.0903" lon="1.73075">
        <ele>123</ele>
        <time>2013-03-02T15:13:23Z</time>
      </trkpt>
      <trkpt lat="44.09026" lon="1.73063">
        <ele>121</ele>
        <time>2013-03-02T15:13:25Z</time>
      </trkpt>
      <trkpt lat="44.09024" lon="1.7305">
        <ele>119</ele>
        <time>2013-03-02T15:13:27Z</time>
      </trkpt>
      <trkpt lat="44.09021" lon="1.73037">
        <ele>119</ele>
        <time>2013-03-02T15:13:29Z</time>
      </trkpt>
      <trkpt lat="44.0902" lon="1.73024">
        <ele>119</ele>
        <time>2013-03-02T15:13:31Z</time>
      </trkpt>
      <trkpt lat="44.09016" lon="1.73013">
        <ele>119</ele>
        <time>2013-03-02T15:13:33Z</time>
      </trkpt>
      <trkpt lat="44.09007" lon="1.73012">
        <ele>118</ele>
        <time>2013-03-02T15:13:35Z</time>
      </trkpt>
      <trkpt lat="44.08996" lon="1.7302">
        <ele>116</ele>
        <time>2013-03-02T15:13:37Z</time>
      </trkpt>
      <trkpt lat="44.08987" lon="1.73033">
        <ele>114</ele>
        <time>2013-03-02T15:13:39Z</time>
      </trkpt>
      <trkpt lat="44.08975" lon="1.73058">
        <ele>111</ele>
        <time>2013-03-02T15:13:42Z</time>
      </trkpt>
      <trkpt lat="44.08968" lon="1.73075">
        <ele>110</ele>
        <time>2013-03-02T15:13:44Z</time>
      </trkpt>
      <trkpt lat="44.0896" lon="1.73093">
        <ele>109</ele>
        <time>2013-03-02T15:13:46Z</time>
      </trkpt>
      <trkpt lat="44.08953" lon="1.73107">
        <ele>107</ele>
        <time>2013-03-02T15:13:48Z</time>
      </trkpt>
      <trkpt lat="44.08947" lon="1.73113">
        <ele>107</ele>
        <time>2013-03-02T15:13:50Z</time>
      </trkpt>
      <trkpt lat="44.0894" lon="1.73117">
        <ele>107</ele>
        <time>2013-03-02T15:13:52Z</time>
      </trkpt>
      <trkpt lat="44.08933" lon="1.73124">
        <ele>107</ele>
        <time>2013-03-02T15:13:54Z</time>
      </trkpt>
      <trkpt lat="44.08926" lon="1.73132">
        <ele>107</ele>
        <time>2013-03-02T15:13:56Z</time>
      </trkpt>
      <trkpt lat="44.08921" lon="1.73143">
        <ele>107</ele>
        <time>2013-03-02T15:13:58Z</time>
      </trkpt>
      <trkpt lat="44.08917" lon="1.73155">
        <ele>107</ele>
        <time>2013-03-02T15:14:00Z</time>
      </trkpt>
      <trkpt lat="44.08913" lon="1.73168">
        <ele>107</ele>
        <time>2013-03-02T15:14:02Z</time>
      </trkpt>
      <trkpt lat="44.08907" lon="1.73179">
        <ele>107</ele>
        <time>2013-03-02T15:14:04Z</time>
      </trkpt>
      <trkpt lat="44.08901" lon="1.73191">
        <ele>107</ele>
        <time>2013-03-02T15:14:06Z</time>
      </trkpt>
      <trkpt lat="44.08894" lon="1.73205">
        <ele>107</ele>
        <time>2013-03-02T15:14:08Z</time>
      </trkpt>
      <trkpt lat="44.08887" lon="1.73219">
        <ele>107</ele>
        <time>2013-03-02T15:14:10Z</time>
      </trkpt>
      <trkpt lat="44.08881" lon="1.73233">
        <ele>107</ele>
        <time>2013-03-02T15:14:12Z</time>
      </trkpt>
      <trkpt lat="44.08873" lon="1.73245">
        <ele>107</ele>
        <time>2013-03-02T15:14:14Z</time>
      </trkpt>
      <trkpt lat="44.08863" lon="1.73255">
        <ele>107</ele>
        <time>2013-03-02T15:14:16Z</time>
      </trkpt>
      <trkpt lat="44.08855" lon="1.73266">
        <ele>107</ele>
        <time>2013-03-02T15:14:18Z</time>
      </trkpt>
      <trkpt lat="44.08849" lon="1.73278">
        <ele>107</ele>
        <time>2013-03-02T15:14:20Z</time>
      </trkpt>
      <trkpt lat="44.08844" lon="1.73291">
        <ele>106</ele>
        <time>2013-03-02T15:14:22Z</time>
      </trkpt>
      <trkpt lat="44.08838" lon="1.73304">
        <ele>106</ele>
        <time>2013-03-02T15:14:24Z</time>
      </trkpt>
      <trkpt lat="44.08832" lon="1.73316">
        <ele>106</ele>
        <time>2013-03-02T15:14:26Z</time>
      </trkpt>
      <trkpt lat="44.08826" lon="1.73327">
        <ele>106</ele>
        <time>2013-03-02T15:14:28Z</time>
      </trkpt>
      <trkpt lat="44.0882" lon="1.73337">
        <ele>106</ele>
        <time>2013-03-02T15:14:30Z</time>
      </trkpt>
      <trkpt lat="44.08813" lon="1.73347">
        <ele>106</ele>
        <time>2013-03-02T15:14:32Z</time>
      </trkpt>
      <trkpt lat="44.08807" lon="1.73357">
        <ele>106</ele>
        <time>2013-03-02T15:14:34Z</time>
      </trkpt>
      <trkpt lat="44.088" lon="1.73367">
        <ele>106</ele>
        <time>2013-03-02T15:14:36Z</time>
      </trkpt>
      <trkpt lat="44.08793" lon="1.73377">
        <ele>106</ele>
        <time>2013-03-02T15:14:38Z</time>
      </trkpt>
      <trkpt lat="44.08786" lon="1.73389">
        <ele>106</ele>
        <time>2013-03-02T15:14:40Z</time>
      </trkpt>
      <trkpt lat="44.08777" lon="1.73401">
        <ele>106</ele>
        <time>2013-03-02T15:14:42Z</time>
      </trkpt>
      <trkpt lat="44.0877" lon="1.73412">
        <ele>106</ele>
        <time>2013-03-02T15:14:44Z</time>
      </trkpt>
      <trkpt lat="44.08762" lon="1.73424">
        <ele>106</ele>
        <time>2013-03-02T15:14:46Z</time>
      </trkpt>
      <trkpt lat="44.08756" lon="1.73436">
        <ele>106</ele>
        <time>2013-03-02T15:14:48Z</time>
      </trkpt>
      <trkpt lat="44.08749" lon="1.73448">
        <ele>106</ele>
        <time>2013-03-02T15:14:50Z</time>
      </trkpt>
      <trkpt lat="44.08742" lon="1.73461">
        <ele>106</ele>
        <time>2013-03-02T15:14:52Z</time>
      </trkpt>
      <trkpt lat="44.08735" lon="1.73471">
        <ele>106</ele>
        <time>2013-03-02T15:14:54Z</time>
      </trkpt>
      <trkpt lat="44.08728" lon="1.73482">
        <ele>106</ele>
        <time>2013-03-02T15:14:56Z</time>
      </trkpt>
      <trkpt lat="44.08721" lon="1.73493">
        <ele>106</ele>
        <time>2013-03-02T15:14:58Z</time>
      </trkpt>
      <trkpt lat="44.08714" lon="1.73504">
        <ele>106</ele>
        <time>2013-03-02T15:15:00Z</time>
      </trkpt>
      <trkpt lat="44.08707" lon="1.73514">
        <ele>106</ele>
        <time>2013-03-02T15:15:02Z</time>
      </trkpt>
      <trkpt lat="44.08699" lon="1.73524">
        <ele>106</ele>
        <time>2013-03-02T15:15:04Z</time>
      </trkpt>
      <trkpt lat="44.0869" lon="1.73534">
        <ele>106</ele>
        <time>2013-03-02T15:15:06Z</time>
      </trkpt>
      <trkpt lat="44.08682" lon="1.73545">
        <ele>106</ele>
        <time>2013-03-02T15:15:08Z</time>
      </trkpt>
      <trkpt lat="44.08673" lon="1.73555">
        <ele>106</ele>
        <time>2013-03-02T15:15:10Z</time>
      </trkpt>
      <trkpt lat="44.08664" lon="1.73565">
        <ele>106</ele>
        <time>2013-03-02T15:15:12Z</time>
      </trkpt>
      <trkpt lat="44.08654" lon="1.73574">
        <ele>106</ele>
        <time>2013-03-02T15:15:14Z</time>
      </trkpt>
      <trkpt lat="44.08646" lon="1.73584">
        <ele>106</ele>
        <time>2013-03-02T15:15:16Z</time>
      </trkpt>
      <trkpt lat="44.08636" lon="1.73593">
        <ele>106</ele>
        <time>2013-03-02T15:15:18Z</time>
      </trkpt>
      <trkpt lat="44.08628" lon="1.73602">
        <ele>106</ele>
        <time>2013-03-02T15:15:20Z</time>
      </trkpt>
      <trkpt lat="44.08619" lon="1.7361">
        <ele>106</ele>
        <time>2013-03-02T15:15:22Z</time>
      </trkpt>
      <trkpt lat="44.0861" lon="1.73618">
        <ele>106</ele>
        <time>2013-03-02T15:15:24Z</time>
      </trkpt>
      <trkpt lat="44.08603" lon="1.73626">
        <ele>106</ele>
        <time>2013-03-02T15:15:26Z</time>
      </trkpt>
      <trkpt lat="44.08594" lon="1.73632">
        <ele>106</ele>
        <time>2013-03-02T15:15:28Z</time>
      </trkpt>
      <trkpt lat="44.08585" lon="1.73639">
        <ele>106</ele>
        <time>2013-03-02T15:15:30Z</time>
      </trkpt>
      <trkpt lat="44.08577" lon="1.73646">
        <ele>106</ele>
        <time>2013-03-02T15:15:32Z</time>
      </trkpt>
      <trkpt lat="44.08568" lon="1.73653">
        <ele>106</ele>
        <time>2013-03-02T15:15:34Z</time>
      </trkpt>
      <trkpt lat="44.08558" lon="1.73658">
        <ele>106</ele>
        <time>2013-03-02T15:15:36Z</time>
      </trkpt>
      <trkpt lat="44.0855" lon="1.73664">
        <ele>106</ele>
        <time>2013-03-02T15:15:38Z</time>
      </trkpt>
      <trkpt lat="44.08541" lon="1.73671">
        <ele>106</ele>
        <time>2013-03-02T15:15:40Z</time>
      </trkpt>
      <trkpt lat="44.08531" lon="1.73678">
        <ele>105</ele>
        <time>2013-03-02T15:15:42Z</time>
      </trkpt>
      <trkpt lat="44.08523" lon="1.73686">
        <ele>105</ele>
        <time>2013-03-02T15:15:44Z</time>
      </trkpt>
      <trkpt lat="44.08514" lon="1.73693">
        <ele>105</ele>
        <time>2013-03-02T15:15:46Z</time>
      </trkpt>
      <trkpt lat="44.08506" lon="1.73699">
        <ele>105</ele>
        <time>2013-03-02T15:15:48Z</time>
      </trkpt>
      <trkpt lat="44.08497" lon="1.73706">
        <ele>105</ele>
        <time>2013-03-02T15:15:50Z</time>
      </trkpt>
      <trkpt lat="44.08489" lon="1.73713">
        <ele>105</ele>
        <time>2013-03-02T15:15:52Z</time>
      </trkpt>
      <trkpt lat="44.08481" lon="1.73721">
        <ele>105</ele>
        <time>2013-03-02T15:15:54Z</time>
      </trkpt>
      <trkpt lat="44.08472" lon="1.73727">
        <ele>105</ele>
        <time>2013-03-02T15:15:56Z</time>
      </trkpt>
      <trkpt lat="44.08464" lon="1.73732">
        <ele>105</ele>
        <time>2013-03-02T15:15:58Z</time>
      </trkpt>
      <trkpt lat="44.08456" lon="1.73739">
        <ele>105</ele>
        <time>2013-03-02T15:16:00Z</time>
      </trkpt>
      <trkpt lat="44.08448" lon="1.73746">
        <ele>105</ele>
        <time>2013-03-02T15:16:02Z</time>
      </trkpt>
      <trkpt lat="44.08438" lon="1.73751">
        <ele>105</ele>
        <time>2013-03-02T15:16:04Z</time>
      </trkpt>
      <trkpt lat="44.08429" lon="1.73755">
        <ele>105</ele>
        <time>2013-03-02T15:16:06Z</time>
      </trkpt>
      <trkpt lat="44.08421" lon="1.7376">
        <ele>105</ele>
        <time>2013-03-02T15:16:08Z</time>
      </trkpt>
      <trkpt lat="44.08413" lon="1.73765">
        <ele>106</ele>
        <time>2013-03-02T15:16:10Z</time>
      </trkpt>
      <trkpt lat="44.08406" lon="1.7377">
        <ele>106</ele>
        <time>2013-03-02T15:16:12Z</time>
      </trkpt>
      <trkpt lat="44.084" lon="1.73777">
        <ele>106</ele>
        <time>2013-03-02T15:16:14Z</time>
      </trkpt>
      <trkpt lat="44.08394" lon="1.73784">
        <ele>106</ele>
        <time>2013-03-02T15:16:16Z</time>
      </trkpt>
      <trkpt lat="44.08387" lon="1.73789">
        <ele>106</ele>
        <time>2013-03-02T15:16:18Z</time>
      </trkpt>
      <trkpt lat="44.08381" lon="1.73794">
        <ele>106</ele>
        <time>2013-03-02T15:16:20Z</time>
      </trkpt>
      <trkpt lat="44.08374" lon="1.73796">
        <ele>106</ele>
        <time>2013-03-02T15:16:22Z</time>
      </trkpt>
      <trkpt lat="44.08369" lon="1.73798">
        <ele>106</ele>
        <time>2013-03-02T15:16:24Z</time>
      </trkpt>
      <trkpt lat="44.08363" lon="1.73802">
        <ele>106</ele>
        <time>2013-03-02T15:16:26Z</time>
      </trkpt>
      <trkpt lat="44.08359" lon="1.73808">
        <ele>106</ele>
        <time>2013-03-02T15:16:28Z</time>
      </trkpt>
      <trkpt lat="44.08356" lon="1.73813">
        <ele>106</ele>
        <time>2013-03-02T15:16:30Z</time>
      </trkpt>
      <trkpt lat="44.08355" lon="1.7382">
        <ele>106</ele>
        <time>2013-03-02T15:16:32Z</time>
      </trkpt>
      <trkpt lat="44.08353" lon="1.73829">
        <ele>106</ele>
        <time>2013-03-02T15:16:34Z</time>
      </trkpt>
      <trkpt lat="44.08348" lon="1.73837">
        <ele>106</ele>
        <time>2013-03-02T15:16:36Z</time>
      </trkpt>
      <trkpt lat="44.08339" lon="1.73841">
        <ele>106</ele>
        <time>2013-03-02T15:16:38Z</time>
      </trkpt>
      <trkpt lat="44.08326" lon="1.73844">
        <ele>106</ele>
        <time>2013-03-02T15:16:40Z</time>
      </trkpt>
      <trkpt lat="44.08313" lon="1.73848">
        <ele>106</ele>
        <time>2013-03-02T15:16:42Z</time>
      </trkpt>
      <trkpt lat="44.08299" lon="1.73852">
        <ele>106</ele>
        <time>2013-03-02T15:16:44Z</time>
      </trkpt>
      <trkpt lat="44.08286" lon="1.73858">
        <ele>106</ele>
        <time>2013-03-02T15:16:46Z</time>
      </trkpt>
      <trkpt lat="44.08274" lon="1.73871">
        <ele>106</ele>
        <time>2013-03-02T15:16:48Z</time>
      </trkpt>
      <trkpt lat="44.08266" lon="1.73886">
        <ele>106</ele>
        <time>2013-03-02T15:16:50Z</time>
      </trkpt>
      <trkpt lat="44.08258" lon="1.73902">
        <ele>105</ele>
        <time>2013-03-02T15:16:52Z</time>
      </trkpt>
      <trkpt lat="44.0825" lon="1.73917">
        <ele>105</ele>
        <time>2013-03-02T15:16:54Z</time>
      </trkpt>
      <trkpt lat="44.08241" lon="1.7393">
        <ele>105</ele>
        <time>2013-03-02T15:16:56Z</time>
      </trkpt>
      <trkpt lat="44.0823" lon="1.73934">
        <ele>105</ele>
        <time>2013-03-02T15:16:58Z</time>
      </trkpt>
      <trkpt lat="44.08222" lon="1.73928">
        <ele>105</ele>
        <time>2013-03-02T15:17:00Z</time>
      </trkpt>
      <trkpt lat="44.08216" lon="1.7392">
        <ele>105</ele>
        <time>2013-03-02T15:17:02Z</time>
      </trkpt>
      <trkpt lat="44.08209" lon="1.73912">
        <ele>105</ele>
        <time>2013-03-02T15:17:04Z</time>
      </trkpt>
      <trkpt lat="44.08201" lon="1.73903">
        <ele>105</ele>
        <time>2013-03-02T15:17:06Z</time>
      </trkpt>
      <trkpt lat="44.08194" lon="1.73896">
        <ele>105</ele>
        <time>2013-03-02T15:17:08Z</time>
      </trkpt>
      <trkpt lat="44.08187" lon="1.73888">
        <ele>105</ele>
        <time>2013-03-02T15:17:10Z</time>
      </trkpt>
      <trkpt lat="44.0818" lon="1.73878">
        <ele>105</ele>
        <time>2013-03-02T15:17:12Z</time>
      </trkpt>
      <trkpt lat="44.08174" lon="1.7387">
        <ele>107</ele>
        <time>2013-03-02T15:17:14Z</time>
      </trkpt>
      <trkpt lat="44.08169" lon="1.73862">
        <ele>108</ele>
        <time>2013-03-02T15:17:16Z</time>
      </trkpt>
      <trkpt lat="44.08163" lon="1.73853">
        <ele>109</ele>
        <time>2013-03-02T15:17:18Z</time>
      </trkpt>
      <trkpt lat="44.08155" lon="1.73843">
        <ele>109</ele>
        <time>2013-03-02T15:17:20Z</time>
      </trkpt>
      <trkpt lat="44.08147" lon="1.73833">
        <ele>110</ele>
        <time>2013-03-02T15:17:22Z</time>
      </trkpt>
      <trkpt lat="44.08137" lon="1.73822">
        <ele>110</ele>
        <time>2013-03-02T15:17:24Z</time>
      </trkpt>
      <trkpt lat="44.08128" lon="1.73811">
        <ele>111</ele>
        <time>2013-03-02T15:17:26Z</time>
      </trkpt>
      <trkpt lat="44.08118" lon="1.73799">
        <ele>111</ele>
        <time>2013-03-02T15:17:28Z</time>
      </trkpt>
      <trkpt lat="44.08109" lon="1.73787">
        <ele>111</ele>
        <time>2013-03-02T15:17:30Z</time>
      </trkpt>
      <trkpt lat="44.08099" lon="1.73775">
        <ele>111</ele>
        <time>2013-03-02T15:17:32Z</time>
      </trkpt>
      <trkpt lat="44.0809" lon="1.73763">
        <ele>111</ele>
        <time>2013-03-02T15:17:34Z</time>
      </trkpt>
      <trkpt lat="44.0808" lon="1.73751">
        <ele>111</ele>
        <time>2013-03-02T15:17:36Z</time>
      </trkpt>
      <trkpt lat="44.0807" lon="1.73739">
        <ele>111</ele>
        <time>2013-03-02T15:17:38Z</time>
      </trkpt>
      <trkpt lat="44.08061" lon="1.73728">
        <ele>111</ele>
        <time>2013-03-02T15:17:40Z</time>
      </trkpt>
      <trkpt lat="44.08052" lon="1.73715">
        <ele>111</ele>
        <time>2013-03-02T15:17:42Z</time>
      </trkpt>
      <trkpt lat="44.08044" lon="1.73703">
        <ele>111</ele>
        <time>2013-03-02T15:17:44Z</time>
      </trkpt>
      <trkpt lat="44.08036" lon="1.73692">
        <ele>111</ele>
        <time>2013-03-02T15:17:46Z</time>
      </trkpt>
      <trkpt lat="44.08028" lon="1.73679">
        <ele>111</ele>
        <time>2013-03-02T15:17:48Z</time>
      </trkpt>
      <trkpt lat="44.0802" lon="1.73667">
        <ele>111</ele>
        <time>2013-03-02T15:17:50Z</time>
      </trkpt>
      <trkpt lat="44.08012" lon="1.73656">
        <ele>111</ele>
        <time>2013-03-02T15:17:52Z</time>
      </trkpt>
      <trkpt lat="44.08004" lon="1.73644">
        <ele>111</ele>
        <time>2013-03-02T15:17:54Z</time>
      </trkpt>
      <trkpt lat="44.07996" lon="1.73633">
        <ele>111</ele>
        <time>2013-03-02T15:17:56Z</time>
      </trkpt>
      <trkpt lat="44.07988" lon="1.73622">
        <ele>111</ele>
        <time>2013-03-02T15:17:58Z</time>
      </trkpt>
      <trkpt lat="44.0798" lon="1.73611">
        <ele>111</ele>
        <time>2013-03-02T15:18:00Z</time>
      </trkpt>
      <trkpt lat="44.07974" lon="1.736">
        <ele>111</ele>
        <time>2013-03-02T15:18:02Z</time>
      </trkpt>
      <trkpt lat="44.07968" lon="1.73589">
        <ele>111</ele>
        <time>2013-03-02T15:18:04Z</time>
      </trkpt>
      <trkpt lat="44.07962" lon="1.73579">
        <ele>111</ele>
        <time>2013-03-02T15:18:06Z</time>
      </trkpt>
      <trkpt lat="44.07957" lon="1.73568">
        <ele>111</ele>
        <time>2013-03-02T15:18:08Z</time>
      </trkpt>
      <trkpt lat="44.07952" lon="1.73556">
        <ele>111</ele>
        <time>2013-03-02T15:18:10Z</time>
      </trkpt>
      <trkpt lat="44.07946" lon="1.73545">
        <ele>111</ele>
        <time>2013-03-02T15:18:12Z</time>
      </trkpt>
      <trkpt lat="44.07941" lon="1.73533">
        <ele>111</ele>
        <time>2013-03-02T15:18:14Z</time>
      </trkpt>
      <trkpt lat="44.07935" lon="1.73522">
        <ele>111</ele>
        <time>2013-03-02T15:18:16Z</time>
      </trkpt>
      <trkpt lat="44.07929" lon="1.73511">
        <ele>111</ele>
        <time>2013-03-02T15:18:18Z</time>
      </trkpt>
      <trkpt lat="44.07924" lon="1.735">
        <ele>111</ele>
        <time>2013-03-02T15:18:20Z</time>
      </trkpt>
      <trkpt lat="44.07917" lon="1.73488">
        <ele>111</ele>
        <time>2013-03-02T15:18:22Z</time>
      </trkpt>
      <trkpt lat="44.07912" lon="1.73477">
        <ele>111</ele>
        <time>2013-03-02T15:18:24Z</time>
      </trkpt>
      <trkpt lat="44.07906" lon="1.73465">
        <ele>111</ele>
        <time>2013-03-02T15:18:26Z</time>
      </trkpt>
      <trkpt lat="44.079" lon="1.73453">
        <ele>111</ele>
        <time>2013-03-02T15:18:28Z</time>
      </trkpt>
      <trkpt lat="44.07895" lon="1.73442">
        <ele>112</ele>
        <time>2013-03-02T15:18:30Z</time>
      </trkpt>
      <trkpt lat="44.07889" lon="1.7343">
        <ele>112</ele>
        <time>2013-03-02T15:18:32Z</time>
      </trkpt>
      <trkpt lat="44.07884" lon="1.73418">
        <ele>113</ele>
        <time>2013-03-02T15:18:34Z</time>
      </trkpt>
      <trkpt lat="44.0788" lon="1.73407">
        <ele>113</ele>
        <time>2013-03-02T15:18:36Z</time>
      </trkpt>
      <trkpt lat="44.07875" lon="1.73394">
        <ele>113</ele>
        <time>2013-03-02T15:18:38Z</time>
      </trkpt>
      <trkpt lat="44.07871" lon="1.73382">
        <ele>113</ele>
        <time>2013-03-02T15:18:40Z</time>
      </trkpt>
      <trkpt lat="44.07866" lon="1.73369">
        <ele>113</ele>
        <time>2013-03-02T15:18:42Z</time>
      </trkpt>
      <trkpt lat="44.07861" lon="1.73356">
        <ele>114</ele>
        <time>2013-03-02T15:18:44Z</time>
      </trkpt>
      <trkpt lat="44.07856" lon="1.73344">
        <ele>114</ele>
        <time>2013-03-02T15:18:46Z</time>
      </trkpt>
      <trkpt lat="44.07851" lon="1.73331">
        <ele>115</ele>
        <time>2013-03-02T15:18:48Z</time>
      </trkpt>
      <trkpt lat="44.07847" lon="1.73319">
        <ele>115</ele>
        <time>2013-03-02T15:18:50Z</time>
      </trkpt>
      <trkpt lat="44.07842" lon="1.73304">
        <ele>115</ele>
        <time>2013-03-02T15:18:52Z</time>
      </trkpt>
      <trkpt lat="44.07837" lon="1.7329">
        <ele>117</ele>
        <time>2013-03-02T15:18:54Z</time>
      </trkpt>
      <trkpt lat="44.07832" lon="1.73275">
        <ele>119</ele>
        <time>2013-03-02T15:18:56Z</time>
      </trkpt>
      <trkpt lat="44.07829" lon="1.73262">
        <ele>121</ele>
        <time>2013-03-02T15:18:58Z</time>
      </trkpt>
      <trkpt lat="44.07826" lon="1.73249">
        <ele>122</ele>
        <time>2013-03-02T15:19:00Z</time>
      </trkpt>
      <trkpt lat="44.07825" lon="1.73238">
        <ele>122</ele>
        <time>2013-03-02T15:19:02Z</time>
      </trkpt>
      <trkpt lat="44.07822" lon="1.73225">
        <ele>122</ele>
        <time>2013-03-02T15:19:04Z</time>
      </trkpt>
      <trkpt lat="44.07817" lon="1.73205">
        <ele>122</ele>
        <time>2013-03-02T15:19:06Z</time>
      </trkpt>
      <trkpt lat="44.07815" lon="1.73192">
        <ele>122</ele>
        <time>2013-03-02T15:19:09Z</time>
      </trkpt>
      <trkpt lat="44.07813" lon="1.73179">
        <ele>122</ele>
        <time>2013-03-02T15:19:11Z</time>
      </trkpt>
      <trkpt lat="44.07812" lon="1.73165">
        <ele>122</ele>
        <time>2013-03-02T15:19:13Z</time>
      </trkpt>
      <trkpt lat="44.07814" lon="1.73152">
        <ele>122</ele>
        <time>2013-03-02T15:19:15Z</time>
      </trkpt>
      <trkpt lat="44.07813" lon="1.73138">
        <ele>122</ele>
        <time>2013-03-02T15:19:17Z</time>
      </trkpt>
      <trkpt lat="44.07814" lon="1.73123">
        <ele>122</ele>
        <time>2013-03-02T15:19:19Z</time>
      </trkpt>
      <trkpt lat="44.07816" lon="1.73109">
        <ele>121</ele>
        <time>2013-03-02T15:19:21Z</time>
      </trkpt>
      <trkpt lat="44.07823" lon="1.73088">
        <ele>121</ele>
        <time>2013-03-02T15:19:24Z</time>
      </trkpt>
      <trkpt lat="44.07826" lon="1.73074">
        <ele>121</ele>
        <time>2013-03-02T15:19:26Z</time>
      </trkpt>
      <trkpt lat="44.07827" lon="1.73059">
        <ele>121</ele>
        <time>2013-03-02T15:19:28Z</time>
      </trkpt>
      <trkpt lat="44.07829" lon="1.73045">
        <ele>120</ele>
        <time>2013-03-02T15:19:30Z</time>
      </trkpt>
      <trkpt lat="44.0783" lon="1.7303">
        <ele>120</ele>
        <time>2013-03-02T15:19:32Z</time>
      </trkpt>
      <trkpt lat="44.07832" lon="1.73017">
        <ele>120</ele>
        <time>2013-03-02T15:19:34Z</time>
      </trkpt>
      <trkpt lat="44.07834" lon="1.73003">
        <ele>120</ele>
        <time>2013-03-02T15:19:36Z</time>
      </trkpt>
      <trkpt lat="44.07836" lon="1.72989">
        <ele>120</ele>
        <time>2013-03-02T15:19:38Z</time>
      </trkpt>
      <trkpt lat="44.0784" lon="1.72972">
        <ele>120</ele>
        <time>2013-03-02T15:19:41Z</time>
      </trkpt>
      <trkpt lat="44.0784" lon="1.72962">
        <ele>120</ele>
        <time>2013-03-02T15:19:43Z</time>
      </trkpt>
      <trkpt lat="44.07845" lon="1.72949">
        <ele>120</ele>
        <time>2013-03-02T15:19:46Z</time>
      </trkpt>
      <trkpt lat="44.07851" lon="1.72933">
        <ele>120</ele>
        <time>2013-03-02T15:19:48Z</time>
      </trkpt>
      <trkpt lat="44.07858" lon="1.72922">
        <ele>120</ele>
        <time>2013-03-02T15:19:50Z</time>
      </trkpt>
      <trkpt lat="44.07863" lon="1.72911">
        <ele>120</ele>
        <time>2013-03-02T15:19:52Z</time>
      </trkpt>
      <trkpt lat="44.07869" lon="1.72898">
        <ele>120</ele>
        <time>2013-03-02T15:19:55Z</time>
      </trkpt>
      <trkpt lat="44.07876" lon="1.72878">
        <ele>119</ele>
        <time>2013-03-02T15:19:58Z</time>
      </trkpt>
      <trkpt lat="44.07885" lon="1.72857">
        <ele>116</ele>
        <time>2013-03-02T15:20:01Z</time>
      </trkpt>
      <trkpt lat="44.07892" lon="1.72843">
        <ele>115</ele>
        <time>2013-03-02T15:20:03Z</time>
      </trkpt>
      <trkpt lat="44.07902" lon="1.72822">
        <ele>112</ele>
        <time>2013-03-02T15:20:06Z</time>
      </trkpt>
      <trkpt lat="44.07911" lon="1.72801">
        <ele>110</ele>
        <time>2013-03-02T15:20:08Z</time>
      </trkpt>
      <trkpt lat="44.07917" lon="1.72787">
        <ele>109</ele>
        <time>2013-03-02T15:20:11Z</time>
      </trkpt>
      <trkpt lat="44.07925" lon="1.72767">
        <ele>109</ele>
        <time>2013-03-02T15:20:13Z</time>
      </trkpt>
      <trkpt lat="44.07931" lon="1.72754">
        <ele>109</ele>
        <time>2013-03-02T15:20:16Z</time>
      </trkpt>
      <trkpt lat="44.07938" lon="1.72735">
        <ele>109</ele>
        <time>2013-03-02T15:20:19Z</time>
      </trkpt>
      <trkpt lat="44.07946" lon="1.72716">
        <ele>109</ele>
        <time>2013-03-02T15:20:22Z</time>
      </trkpt>
      <trkpt lat="44.07951" lon="1.72697">
        <ele>109</ele>
        <time>2013-03-02T15:20:24Z</time>
      </trkpt>
      <trkpt lat="44.07953" lon="1.72685">
        <ele>109</ele>
        <time>2013-03-02T15:20:27Z</time>
      </trkpt>
      <trkpt lat="44.07959" lon="1.72673">
        <ele>109</ele>
        <time>2013-03-02T15:20:30Z</time>
      </trkpt>
      <trkpt lat="44.07964" lon="1.72672">
        <ele>109</ele>
        <time>2013-03-02T15:20:32Z</time>
      </trkpt>
      <trkpt lat="44.07971" lon="1.72673">
        <ele>109</ele>
        <time>2013-03-02T15:20:34Z</time>
      </trkpt>
      <trkpt lat="44.0798" lon="1.72676">
        <ele>109</ele>
        <time>2013-03-02T15:20:36Z</time>
      </trkpt>
      <trkpt lat="44.07988" lon="1.72681">
        <ele>109</ele>
        <time>2013-03-02T15:20:38Z</time>
      </trkpt>
      <trkpt lat="44.07996" lon="1.72687">
        <ele>108</ele>
        <time>2013-03-02T15:20:40Z</time>
      </trkpt>
      <trkpt lat="44.08005" lon="1.72692">
        <ele>108</ele>
        <time>2013-03-02T15:20:42Z</time>
      </trkpt>
      <trkpt lat="44.08013" lon="1.72698">
        <ele>108</ele>
        <time>2013-03-02T15:20:44Z</time>
      </trkpt>
      <trkpt lat="44.08022" lon="1.72704">
        <ele>108</ele>
        <time>2013-03-02T15:20:46Z</time>
      </trkpt>
      <trkpt lat="44.08031" lon="1.72709">
        <ele>108</ele>
        <time>2013-03-02T15:20:48Z</time>
      </trkpt>
      <trkpt lat="44.0804" lon="1.72715">
        <ele>108</ele>
        <time>2013-03-02T15:20:50Z</time>
      </trkpt>
      <trkpt lat="44.08049" lon="1.72721">
        <ele>108</ele>
        <time>2013-03-02T15:20:52Z</time>
      </trkpt>
      <trkpt lat="44.08059" lon="1.72727">
        <ele>108</ele>
        <time>2013-03-02T15:20:54Z</time>
      </trkpt>
      <trkpt lat="44.08068" lon="1.72732">
        <ele>108</ele>
        <time>2013-03-02T15:20:56Z</time>
      </trkpt>
      <trkpt lat="44.08076" lon="1.72738">
        <ele>108</ele>
        <time>2013-03-02T15:20:58Z</time>
      </trkpt>
      <trkpt lat="44.08084" lon="1.72744">
        <ele>108</ele>
        <time>2013-03-02T15:21:00Z</time>
      </trkpt>
      <trkpt lat="44.08093" lon="1.72749">
        <ele>108</ele>
        <time>2013-03-02T15:21:02Z</time>
      </trkpt>
      <trkpt lat="44.08101" lon="1.72755">
        <ele>108</ele>
        <time>2013-03-02T15:21:04Z</time>
      </trkpt>
      <trkpt lat="44.08109" lon="1.72759">
        <ele>108</ele>
        <time>2013-03-02T15:21:06Z</time>
      </trkpt>
      <trkpt lat="44.08117" lon="1.72764">
        <ele>108</ele>
        <time>2013-03-02T15:21:08Z</time>
      </trkpt>
      <trkpt lat="44.08124" lon="1.72768">
        <ele>108</ele>
        <time>2013-03-02T15:21:10Z</time>
      </trkpt>
      <trkpt lat="44.08132" lon="1.72773">
        <ele>108</ele>
        <time>2013-03-02T15:21:12Z</time>
      </trkpt>
      <trkpt lat="44.08141" lon="1.72777">
        <ele>108</ele>
        <time>2013-03-02T15:21:14Z</time>
      </trkpt>
      <trkpt lat="44.08149" lon="1.72781">
        <ele>108</ele>
        <time>2013-03-02T15:21:16Z</time>
      </trkpt>
      <trkpt lat="44.08157" lon="1.72786">
        <ele>108</ele>
        <time>2013-03-02T15:21:18Z</time>
      </trkpt>
      <trkpt lat="44.08164" lon="1.72791">
        <ele>108</ele>
        <time>2013-03-02T15:21:20Z</time>
      </trkpt>
      <trkpt lat="44.08172" lon="1.72795">
        <ele>108</ele>
        <time>2013-03-02T15:21:22Z</time>
      </trkpt>
      <trkpt lat="44.08179" lon="1.728">
        <ele>108</ele>
        <time>2013-03-02T15:21:24Z</time>
      </trkpt>
      <trkpt lat="44.08185" lon="1.72804">
        <ele>109</ele>
        <time>2013-03-02T15:21:26Z</time>
      </trkpt>
      <trkpt lat="44.08192" lon="1.72809">
        <ele>109</ele>
        <time>2013-03-02T15:21:28Z</time>
      </trkpt>
      <trkpt lat="44.08198" lon="1.72814">
        <ele>110</ele>
        <time>2013-03-02T15:21:30Z</time>
      </trkpt>
      <trkpt lat="44.08204" lon="1.72819">
        <ele>110</ele>
        <time>2013-03-02T15:21:32Z</time>
      </trkpt>
      <trkpt lat="44.08209" lon="1.72825">
        <ele>111</ele>
        <time>2013-03-02T15:21:34Z</time>
      </trkpt>
      <trkpt lat="44.08214" lon="1.72832">
        <ele>111</ele>
        <time>2013-03-02T15:21:36Z</time>
      </trkpt>
      <trkpt lat="44.08219" lon="1.72839">
        <ele>112</ele>
        <time>2013-03-02T15:21:38Z</time>
      </trkpt>
      <trkpt lat="44.08224" lon="1.72847">
        <ele>112</ele>
        <time>2013-03-02T15:21:40Z</time>
      </trkpt>
      <trkpt lat="44.08228" lon="1.72854">
        <ele>113</ele>
        <time>2013-03-02T15:21:42Z</time>
      </trkpt>
      <trkpt lat="44.08233" lon="1.72862">
        <ele>114</ele>
        <time>2013-03-02T15:21:44Z</time>
      </trkpt>
      <trkpt lat="44.08237" lon="1.7287">
        <ele>114</ele>
        <time>2013-03-02T15:21:46Z</time>
      </trkpt>
      <trkpt lat="44.08242" lon="1.72878">
        <ele>115</ele>
        <time>2013-03-02T15:21:48Z</time>
      </trkpt>
      <trkpt lat="44.08247" lon="1.72886">
        <ele>115</ele>
        <time>2013-03-02T15:21:50Z</time>
      </trkpt>
      <trkpt lat="44.08251" lon="1.72894">
        <ele>116</ele>
        <time>2013-03-02T15:21:52Z</time>
      </trkpt>
      <trkpt lat="44.08255" lon="1.72902">
        <ele>117</ele>
        <time>2013-03-02T15:21:54Z</time>
      </trkpt>
      <trkpt lat="44.08259" lon="1.7291">
        <ele>117</ele>
        <time>2013-03-02T15:21:56Z</time>
      </trkpt>
      <trkpt lat="44.08264" lon="1.72918">
        <ele>118</ele>
        <time>2013-03-02T15:21:58Z</time>
      </trkpt>
      <trkpt lat="44.08268" lon="1.72926">
        <ele>118</ele>
        <time>2013-03-02T15:22:00Z</time>
      </trkpt>
      <trkpt lat="44.08273" lon="1.72933">
        <ele>119</ele>
        <time>2013-03-02T15:22:02Z</time>
      </trkpt>
      <trkpt lat="44.08278" lon="1.72942">
        <ele>119</ele>
        <time>2013-03-02T15:22:04Z</time>
      </trkpt>
      <trkpt lat="44.08282" lon="1.72949">
        <ele>120</ele>
        <time>2013-03-02T15:22:06Z</time>
      </trkpt>
      <trkpt lat="44.08287" lon="1.72957">
        <ele>120</ele>
        <time>2013-03-02T15:22:08Z</time>
      </trkpt>
      <trkpt lat="44.08291" lon="1.72964">
        <ele>121</ele>
        <time>2013-03-02T15:22:10Z</time>
      </trkpt>
      <trkpt lat="44.08296" lon="1.72972">
        <ele>121</ele>
        <time>2013-03-02T15:22:12Z</time>
      </trkpt>
      <trkpt lat="44.08301" lon="1.7298">
        <ele>122</ele>
        <time>2013-03-02T15:22:14Z</time>
      </trkpt>
      <trkpt lat="44.08306" lon="1.72987">
        <ele>122</ele>
        <time>2013-03-02T15:22:16Z</time>
      </trkpt>
      <trkpt lat="44.0831" lon="1.72995">
        <ele>123</ele>
        <time>2013-03-02T15:22:18Z</time>
      </trkpt>
      <trkpt lat="44.08315" lon="1.73002">
        <ele>123</ele>
        <time>2013-03-02T15:22:20Z</time>
      </trkpt>
      <trkpt lat="44.08319" lon="1.73008">
        <ele>123</ele>
        <time>2013-03-02T15:22:22Z</time>
      </trkpt>
      <trkpt lat="44.08325" lon="1.73019">
        <ele>124</ele>
        <time>2013-03-02T15:22:25Z</time>
      </trkpt>
      <trkpt lat="44.08329" lon="1.73026">
        <ele>124</ele>
        <time>2013-03-02T15:22:27Z</time>
      </trkpt>
      <trkpt lat="44.08334" lon="1.73032">
        <ele>124</ele>
        <time>2013-03-02T15:22:29Z</time>
      </trkpt>
      <trkpt lat="44.08338" lon="1.73038">
        <ele>124</ele>
        <time>2013-03-02T15:22:31Z</time>
      </trkpt>
      <trkpt lat="44.08342" lon="1.73046">
        <ele>124</ele>
        <time>2013-03-02T15:22:33Z</time>
      </trkpt>
      <trkpt lat="44.08346" lon="1.73052">
        <ele>124</ele>
        <time>2013-03-02T15:22:35Z</time>
      </trkpt>
      <trkpt lat="44.0835" lon="1.73059">
        <ele>125</ele>
        <time>2013-03-02T15:22:37Z</time>
      </trkpt>
      <trkpt lat="44.08355" lon="1.73066">
        <ele>125</ele>
        <time>2013-03-02T15:22:39Z</time>
      </trkpt>
      <trkpt lat="44.08359" lon="1.73073">
        <ele>125</ele>
        <time>2013-03-02T15:22:41Z</time>
      </trkpt>
      <trkpt lat="44.08363" lon="1.73081">
        <ele>125</ele>
        <time>2013-03-02T15:22:43Z</time>
      </trkpt>
      <trkpt lat="44.08366" lon="1.73089">
        <ele>125</ele>
        <time>2013-03-02T15:22:45Z</time>
      </trkpt>
      <trkpt lat="44.0837" lon="1.73098">
        <ele>125</ele>
        <time>2013-03-02T15:22:47Z</time>
      </trkpt>
      <trkpt lat="44.08373" lon="1.73107">
        <ele>125</ele>
        <time>2013-03-02T15:22:49Z</time>
      </trkpt>
      <trkpt lat="44.08376" lon="1.73115">
        <ele>126</ele>
        <time>2013-03-02T15:22:51Z</time>
      </trkpt>
      <trkpt lat="44.0838" lon="1.73124">
        <ele>127</ele>
        <time>2013-03-02T15:22:53Z</time>
      </trkpt>
      <trkpt lat="44.08383" lon="1.73132">
        <ele>128</ele>
        <time>2013-03-02T15:22:55Z</time>
      </trkpt>
      <trkpt lat="44.08387" lon="1.7314">
        <ele>128</ele>
        <time>2013-03-02T15:22:57Z</time>
      </trkpt>
      <trkpt lat="44.0839" lon="1.73148">
        <ele>128</ele>
        <time>2013-03-02T15:22:59Z</time>
      </trkpt>
      <trkpt lat="44.08393" lon="1.73156">
        <ele>128</ele>
        <time>2013-03-02T15:23:01Z</time>
      </trkpt>
      <trkpt lat="44.08395" lon="1.73165">
        <ele>128</ele>
        <time>2013-03-02T15:23:03Z</time>
      </trkpt>
      <trkpt lat="44.08398" lon="1.73174">
        <ele>128</ele>
        <time>2013-03-02T15:23:05Z</time>
      </trkpt>
      <trkpt lat="44.08403" lon="1.73181">
        <ele>129</ele>
        <time>2013-03-02T15:23:07Z</time>
      </trkpt>
      <trkpt lat="44.08407" lon="1.73188">
        <ele>130</ele>
        <time>2013-03-02T15:23:09Z</time>
      </trkpt>
      <trkpt lat="44.08411" lon="1.73195">
        <ele>130</ele>
        <time>2013-03-02T15:23:11Z</time>
      </trkpt>
      <trkpt lat="44.08416" lon="1.73201">
        <ele>131</ele>
        <time>2013-03-02T15:23:13Z</time>
      </trkpt>
      <trkpt lat="44.08422" lon="1.73207">
        <ele>131</ele>
        <time>2013-03-02T15:23:15Z</time>
      </trkpt>
      <trkpt lat="44.08426" lon="1.73212">
        <ele>132</ele>
        <time>2013-03-02T15:23:17Z</time>
      </trkpt>
      <trkpt lat="44.08431" lon="1.73217">
        <ele>132</ele>
        <time>2013-03-02T15:23:19Z</time>
      </trkpt>
      <trkpt lat="44.08435" lon="1.73223">
        <ele>133</ele>
        <time>2013-03-02T15:23:21Z</time>
      </trkpt>
      <trkpt lat="44.0844" lon="1.7323">
        <ele>133</ele>
        <time>2013-03-02T15:23:23Z</time>
      </trkpt>
      <trkpt lat="44.08444" lon="1.73237">
        <ele>133</ele>
        <time>2013-03-02T15:23:25Z</time>
      </trkpt>
      <trkpt lat="44.08449" lon="1.73247">
        <ele>133</ele>
        <time>2013-03-02T15:23:28Z</time>
      </trkpt>
      <trkpt lat="44.08452" lon="1.73255">
        <ele>133</ele>
        <time>2013-03-02T15:23:30Z</time>
      </trkpt>
      <trkpt lat="44.08455" lon="1.73262">
        <ele>133</ele>
        <time>2013-03-02T15:23:32Z</time>
      </trkpt>
      <trkpt lat="44.08459" lon="1.73269">
        <ele>133</ele>
        <time>2013-03-02T15:23:34Z</time>
      </trkpt>
      <trkpt lat="44.08465" lon="1.73278">
        <ele>133</ele>
        <time>2013-03-02T15:23:37Z</time>
      </trkpt>
      <trkpt lat="44.08471" lon="1.73287">
        <ele>134</ele>
        <time>2013-03-02T15:23:40Z</time>
      </trkpt>
      <trkpt lat="44.08479" lon="1.73295">
        <ele>136</ele>
        <time>2013-03-02T15:23:43Z</time>
      </trkpt>
      <trkpt lat="44.08487" lon="1.73299">
        <ele>138</ele>
        <time>2013-03-02T15:23:46Z</time>
      </trkpt>
      <trkpt lat="44.08494" lon="1.73303">
        <ele>140</ele>
        <time>2013-03-02T15:23:49Z</time>
      </trkpt>
      <trkpt lat="44.08499" lon="1.73305">
        <ele>141</ele>
        <time>2013-03-02T15:23:51Z</time>
      </trkpt>
      <trkpt lat="44.08504" lon="1.73305">
        <ele>143</ele>
        <time>2013-03-02T15:23:53Z</time>
      </trkpt>
      <trkpt lat="44.08511" lon="1.73306">
        <ele>144</ele>
        <time>2013-03-02T15:23:56Z</time>
      </trkpt>
      <trkpt lat="44.08518" lon="1.73305">
        <ele>146</ele>
        <time>2013-03-02T15:23:59Z</time>
      </trkpt>
      <trkpt lat="44.08526" lon="1.733">
        <ele>147</ele>
        <time>2013-03-02T15:24:02Z</time>
      </trkpt>
      <trkpt lat="44.08532" lon="1.73295">
        <ele>147</ele>
        <time>2013-03-02T15:24:04Z</time>
      </trkpt>
      <trkpt lat="44.08541" lon="1.73286">
        <ele>147</ele>
        <time>2013-03-02T15:24:07Z</time>
      </trkpt>
      <trkpt lat="44.08547" lon="1.73278">
        <ele>148</ele>
        <time>2013-03-02T15:24:09Z</time>
      </trkpt>
      <trkpt lat="44.08555" lon="1.73268">
        <ele>149</ele>
        <time>2013-03-02T15:24:12Z</time>
      </trkpt>
      <trkpt lat="44.08562" lon="1.73258">
        <ele>150</ele>
        <time>2013-03-02T15:24:15Z</time>
      </trkpt>
      <trkpt lat="44.08567" lon="1.73252">
        <ele>151</ele>
        <time>2013-03-02T15:24:17Z</time>
      </trkpt>
      <trkpt lat="44.08574" lon="1.73242">
        <ele>152</ele>
        <time>2013-03-02T15:24:20Z</time>
      </trkpt>
      <trkpt lat="44.08578" lon="1.73236">
        <ele>152</ele>
        <time>2013-03-02T15:24:22Z</time>
      </trkpt>
      <trkpt lat="44.08585" lon="1.73226">
        <ele>153</ele>
        <time>2013-03-02T15:24:25Z</time>
      </trkpt>
      <trkpt lat="44.08589" lon="1.7322">
        <ele>154</ele>
        <time>2013-03-02T15:24:27Z</time>
      </trkpt>
      <trkpt lat="44.08593" lon="1.73214">
        <ele>154</ele>
        <time>2013-03-02T15:24:29Z</time>
      </trkpt>
      <trkpt lat="44.08599" lon="1.73205">
        <ele>156</ele>
        <time>2013-03-02T15:24:32Z</time>
      </trkpt>
      <trkpt lat="44.08605" lon="1.73196">
        <ele>157</ele>
        <time>2013-03-02T15:24:35Z</time>
      </trkpt>
      <trkpt lat="44.08609" lon="1.7319">
        <ele>158</ele>
        <time>2013-03-02T15:24:37Z</time>
      </trkpt>
      <trkpt lat="44.08612" lon="1.7318">
        <ele>159</ele>
        <time>2013-03-02T15:24:39Z</time>
      </trkpt>
      <trkpt lat="44.08614" lon="1.73174">
        <ele>160</ele>
        <time>2013-03-02T15:24:42Z</time>
      </trkpt>
      <trkpt lat="44.08616" lon="1.73167">
        <ele>161</ele>
        <time>2013-03-02T15:24:44Z</time>
      </trkpt>
      <trkpt lat="44.08616" lon="1.7316">
        <ele>163</ele>
        <time>2013-03-02T15:24:46Z</time>
      </trkpt>
      <trkpt lat="44.08617" lon="1.73154">
        <ele>164</ele>
        <time>2013-03-02T15:24:48Z</time>
      </trkpt>
      <trkpt lat="44.08618" lon="1.73147">
        <ele>165</ele>
        <time>2013-03-02T15:24:50Z</time>
      </trkpt>
      <trkpt lat="44.08618" lon="1.73141">
        <ele>165</ele>
        <time>2013-03-02T15:24:52Z</time>
      </trkpt>
      <trkpt lat="44.08618" lon="1.73129">
        <ele>165</ele>
        <time>2013-03-02T15:24:55Z</time>
      </trkpt>
      <trkpt lat="44.08617" lon="1.73123">
        <ele>165</ele>
        <time>2013-03-02T15:24:57Z</time>
      </trkpt>
      <trkpt lat="44.08615" lon="1.73117">
        <ele>165</ele>
        <time>2013-03-02T15:24:59Z</time>
      </trkpt>
      <trkpt lat="44.08613" lon="1.73111">
        <ele>166</ele>
        <time>2013-03-02T15:25:01Z</time>
      </trkpt>
      <trkpt lat="44.08609" lon="1.73103">
        <ele>168</ele>
        <time>2013-03-02T15:25:04Z</time>
      </trkpt>
      <trkpt lat="44.08606" lon="1.73095">
        <ele>171</ele>
        <time>2013-03-02T15:25:07Z</time>
      </trkpt>
      <trkpt lat="44.08601" lon="1.73088">
        <ele>173</ele>
        <time>2013-03-02T15:25:10Z</time>
      </trkpt>
      <trkpt lat="44.08598" lon="1.73081">
        <ele>174</ele>
        <time>2013-03-02T15:25:13Z</time>
      </trkpt>
      <trkpt lat="44.08595" lon="1.73074">
        <ele>174</ele>
        <time>2013-03-02T15:25:16Z</time>
      </trkpt>
      <trkpt lat="44.08592" lon="1.73067">
        <ele>174</ele>
        <time>2013-03-02T15:25:19Z</time>
      </trkpt>
      <trkpt lat="44.08588" lon="1.73059">
        <ele>175</ele>
        <time>2013-03-02T15:25:22Z</time>
      </trkpt>
      <trkpt lat="44.08583" lon="1.73051">
        <ele>176</ele>
        <time>2013-03-02T15:25:25Z</time>
      </trkpt>
      <trkpt lat="44.0858" lon="1.73043">
        <ele>177</ele>
        <time>2013-03-02T15:25:28Z</time>
      </trkpt>
      <trkpt lat="44.08577" lon="1.73037">
        <ele>178</ele>
        <time>2013-03-02T15:25:30Z</time>
      </trkpt>
      <trkpt lat="44.08573" lon="1.73028">
        <ele>179</ele>
        <time>2013-03-02T15:25:32Z</time>
      </trkpt>
      <trkpt lat="44.0857" lon="1.73023">
        <ele>180</ele>
        <time>2013-03-02T15:25:34Z</time>
      </trkpt>
      <trkpt lat="44.08568" lon="1.73018">
        <ele>181</ele>
        <time>2013-03-02T15:25:37Z</time>
      </trkpt>
      <trkpt lat="44.08566" lon="1.73012">
        <ele>182</ele>
        <time>2013-03-02T15:25:39Z</time>
      </trkpt>
      <trkpt lat="44.08564" lon="1.73006">
        <ele>183</ele>
        <time>2013-03-02T15:25:41Z</time>
      </trkpt>
      <trkpt lat="44.0856" lon="1.72997">
        <ele>185</ele>
        <time>2013-03-02T15:25:43Z</time>
      </trkpt>
      <trkpt lat="44.08558" lon="1.72991">
        <ele>186</ele>
        <time>2013-03-02T15:25:45Z</time>
      </trkpt>
      <trkpt lat="44.08555" lon="1.72985">
        <ele>188</ele>
        <time>2013-03-02T15:25:47Z</time>
      </trkpt>
      <trkpt lat="44.08553" lon="1.7298">
        <ele>188</ele>
        <time>2013-03-02T15:25:49Z</time>
      </trkpt>
      <trkpt lat="44.08551" lon="1.72974">
        <ele>188</ele>
        <time>2013-03-02T15:25:52Z</time>
      </trkpt>
      <trkpt lat="44.08549" lon="1.72969">
        <ele>189</ele>
        <time>2013-03-02T15:25:54Z</time>
      </trkpt>
      <trkpt lat="44.08546" lon="1.72961">
        <ele>189</ele>
        <time>2013-03-02T15:25:57Z</time>
      </trkpt>
      <trkpt lat="44.08543" lon="1.72954">
        <ele>189</ele>
        <time>2013-03-02T15:25:59Z</time>
      </trkpt>
      <trkpt lat="44.08541" lon="1.72949">
        <ele>189</ele>
        <time>2013-03-02T15:26:02Z</time>
      </trkpt>
      <trkpt lat="44.08539" lon="1.72944">
        <ele>189</ele>
        <time>2013-03-02T15:26:04Z</time>
      </trkpt>
      <trkpt lat="44.08538" lon="1.72939">
        <ele>189</ele>
        <time>2013-03-02T15:26:06Z</time>
      </trkpt>
      <trkpt lat="44.08534" lon="1.72932">
        <ele>189</ele>
        <time>2013-03-02T15:26:08Z</time>
      </trkpt>
      <trkpt lat="44.08529" lon="1.72923">
        <ele>191</ele>
        <time>2013-03-02T15:26:10Z</time>
      </trkpt>
      <trkpt lat="44.08527" lon="1.72918">
        <ele>193</ele>
        <time>2013-03-02T15:26:13Z</time>
      </trkpt>
      <trkpt lat="44.08524" lon="1.7291">
        <ele>193</ele>
        <time>2013-03-02T15:26:16Z</time>
      </trkpt>
      <trkpt lat="44.08521" lon="1.72905">
        <ele>194</ele>
        <time>2013-03-02T15:26:18Z</time>
      </trkpt>
      <trkpt lat="44.08518" lon="1.72896">
        <ele>194</ele>
        <time>2013-03-02T15:26:20Z</time>
      </trkpt>
      <trkpt lat="44.08516" lon="1.7289">
        <ele>194</ele>
        <time>2013-03-02T15:26:23Z</time>
      </trkpt>
      <trkpt lat="44.08514" lon="1.72885">
        <ele>194</ele>
        <time>2013-03-02T15:26:25Z</time>
      </trkpt>
      <trkpt lat="44.08512" lon="1.72879">
        <ele>194</ele>
        <time>2013-03-02T15:26:27Z</time>
      </trkpt>
      <trkpt lat="44.08511" lon="1.72874">
        <ele>194</ele>
        <time>2013-03-02T15:26:29Z</time>
      </trkpt>
      <trkpt lat="44.08508" lon="1.72865">
        <ele>195</ele>
        <time>2013-03-02T15:26:31Z</time>
      </trkpt>
      <trkpt lat="44.08506" lon="1.72859">
        <ele>195</ele>
        <time>2013-03-02T15:26:34Z</time>
      </trkpt>
      <trkpt lat="44.08503" lon="1.7285">
        <ele>196</ele>
        <time>2013-03-02T15:26:37Z</time>
      </trkpt>
      <trkpt lat="44.08502" lon="1.72843">
        <ele>196</ele>
        <time>2013-03-02T15:26:39Z</time>
      </trkpt>
      <trkpt lat="44.08499" lon="1.72836">
        <ele>197</ele>
        <time>2013-03-02T15:26:41Z</time>
      </trkpt>
      <trkpt lat="44.08498" lon="1.72829">
        <ele>199</ele>
        <time>2013-03-02T15:26:43Z</time>
      </trkpt>
      <trkpt lat="44.08496" lon="1.72824">
        <ele>200</ele>
        <time>2013-03-02T15:26:45Z</time>
      </trkpt>
      <trkpt lat="44.08494" lon="1.72818">
        <ele>201</ele>
        <time>2013-03-02T15:26:47Z</time>
      </trkpt>
      <trkpt lat="44.08492" lon="1.72809">
        <ele>201</ele>
        <time>2013-03-02T15:26:50Z</time>
      </trkpt>
      <trkpt lat="44.08488" lon="1.728">
        <ele>201</ele>
        <time>2013-03-02T15:26:53Z</time>
      </trkpt>
      <trkpt lat="44.08484" lon="1.72791">
        <ele>201</ele>
        <time>2013-03-02T15:26:56Z</time>
      </trkpt>
      <trkpt lat="44.08479" lon="1.72782">
        <ele>203</ele>
        <time>2013-03-02T15:26:58Z</time>
      </trkpt>
      <trkpt lat="44.08475" lon="1.72776">
        <ele>205</ele>
        <time>2013-03-02T15:27:01Z</time>
      </trkpt>
      <trkpt lat="44.08469" lon="1.72769">
        <ele>206</ele>
        <time>2013-03-02T15:27:03Z</time>
      </trkpt>
      <trkpt lat="44.08466" lon="1.72765">
        <ele>207</ele>
        <time>2013-03-02T15:27:06Z</time>
      </trkpt>
      <trkpt lat="44.0846" lon="1.72758">
        <ele>208</ele>
        <time>2013-03-02T15:27:08Z</time>
      </trkpt>
      <trkpt lat="44.08456" lon="1.72754">
        <ele>209</ele>
        <time>2013-03-02T15:27:11Z</time>
      </trkpt>
      <trkpt lat="44.08451" lon="1.72746">
        <ele>210</ele>
        <time>2013-03-02T15:27:13Z</time>
      </trkpt>
      <trkpt lat="44.08447" lon="1.72741">
        <ele>210</ele>
        <time>2013-03-02T15:27:16Z</time>
      </trkpt>
      <trkpt lat="44.08441" lon="1.72734">
        <ele>211</ele>
        <time>2013-03-02T15:27:18Z</time>
      </trkpt>
      <trkpt lat="44.08437" lon="1.72729">
        <ele>212</ele>
        <time>2013-03-02T15:27:21Z</time>
      </trkpt>
      <trkpt lat="44.08432" lon="1.7272">
        <ele>212</ele>
        <time>2013-03-02T15:27:23Z</time>
      </trkpt>
      <trkpt lat="44.0843" lon="1.72714">
        <ele>213</ele>
        <time>2013-03-02T15:27:26Z</time>
      </trkpt>
      <trkpt lat="44.08432" lon="1.72704">
        <ele>213</ele>
        <time>2013-03-02T15:27:28Z</time>
      </trkpt>
      <trkpt lat="44.08437" lon="1.727">
        <ele>214</ele>
        <time>2013-03-02T15:27:30Z</time>
      </trkpt>
      <trkpt lat="44.08442" lon="1.72702">
        <ele>214</ele>
        <time>2013-03-02T15:27:33Z</time>
      </trkpt>
      <trkpt lat="44.08448" lon="1.72708">
        <ele>214</ele>
        <time>2013-03-02T15:27:35Z</time>
      </trkpt>
      <trkpt lat="44.08453" lon="1.72714">
        <ele>214</ele>
        <time>2013-03-02T15:27:38Z</time>
      </trkpt>
      <trkpt lat="44.08458" lon="1.72721">
        <ele>214</ele>
        <time>2013-03-02T15:27:40Z</time>
      </trkpt>
      <trkpt lat="44.08463" lon="1.72726">
        <ele>214</ele>
        <time>2013-03-02T15:27:43Z</time>
      </trkpt>
      <trkpt lat="44.08469" lon="1.72731">
        <ele>214</ele>
        <time>2013-03-02T15:27:45Z</time>
      </trkpt>
      <trkpt lat="44.08474" lon="1.72734">
        <ele>214</ele>
        <time>2013-03-02T15:27:48Z</time>
      </trkpt>
      <trkpt lat="44.08483" lon="1.72737">
        <ele>214</ele>
        <time>2013-03-02T15:27:50Z</time>
      </trkpt>
      <trkpt lat="44.08488" lon="1.72739">
        <ele>215</ele>
        <time>2013-03-02T15:27:53Z</time>
      </trkpt>
      <trkpt lat="44.08497" lon="1.7274">
        <ele>215</ele>
        <time>2013-03-02T15:27:55Z</time>
      </trkpt>
      <trkpt lat="44.08502" lon="1.7274">
        <ele>216</ele>
        <time>2013-03-02T15:27:58Z</time>
      </trkpt>
      <trkpt lat="44.0851" lon="1.72742">
        <ele>216</ele>
        <time>2013-03-02T15:28:00Z</time>
      </trkpt>
      <trkpt lat="44.08515" lon="1.72743">
        <ele>217</ele>
        <time>2013-03-02T15:28:03Z</time>
      </trkpt>
      <trkpt lat="44.08523" lon="1.72747">
        <ele>217</ele>
        <time>2013-03-02T15:28:05Z</time>
      </trkpt>
      <trkpt lat="44.08527" lon="1.7275">
        <ele>218</ele>
        <time>2013-03-02T15:28:07Z</time>
      </trkpt>
      <trkpt lat="44.08532" lon="1.72755">
        <ele>218</ele>
        <time>2013-03-02T15:28:09Z</time>
      </trkpt>
      <trkpt lat="44.08535" lon="1.72759">
        <ele>218</ele>
        <time>2013-03-02T15:28:11Z</time>
      </trkpt>
      <trkpt lat="44.08539" lon="1.72764">
        <ele>218</ele>
        <time>2013-03-02T15:28:14Z</time>
      </trkpt>
      <trkpt lat="44.08544" lon="1.72773">
        <ele>219</ele>
        <time>2013-03-02T15:28:16Z</time>
      </trkpt>
      <trkpt lat="44.08547" lon="1.72779">
        <ele>219</ele>
        <time>2013-03-02T15:28:19Z</time>
      </trkpt>
      <trkpt lat="44.08553" lon="1.72787">
        <ele>220</ele>
        <time>2013-03-02T15:28:21Z</time>
      </trkpt>
      <trkpt lat="44.08557" lon="1.72791">
        <ele>220</ele>
        <time>2013-03-02T15:28:24Z</time>
      </trkpt>
      <trkpt lat="44.08564" lon="1.72795">
        <ele>221</ele>
        <time>2013-03-02T15:28:26Z</time>
      </trkpt>
      <trkpt lat="44.08569" lon="1.72792">
        <ele>221</ele>
        <time>2013-03-02T15:28:29Z</time>
      </trkpt>
      <trkpt lat="44.08573" lon="1.72784">
        <ele>222</ele>
        <time>2013-03-02T15:28:31Z</time>
      </trkpt>
      <trkpt lat="44.08574" lon="1.72778">
        <ele>222</ele>
        <time>2013-03-02T15:28:34Z</time>
      </trkpt>
      <trkpt lat="44.0857" lon="1.72769">
        <ele>223</ele>
        <time>2013-03-02T15:28:36Z</time>
      </trkpt>
      <trkpt lat="44.08567" lon="1.72763">
        <ele>223</ele>
        <time>2013-03-02T15:28:39Z</time>
      </trkpt>
      <trkpt lat="44.08561" lon="1.72755">
        <ele>223</ele>
        <time>2013-03-02T15:28:41Z</time>
      </trkpt>
      <trkpt lat="44.08558" lon="1.7275">
        <ele>224</ele>
        <time>2013-03-02T15:28:44Z</time>
      </trkpt>
      <trkpt lat="44.08552" lon="1.72741">
        <ele>225</ele>
        <time>2013-03-02T15:28:46Z</time>
      </trkpt>
      <trkpt lat="44.08549" lon="1.72735">
        <ele>225</ele>
        <time>2013-03-02T15:28:49Z</time>
      </trkpt>
      <trkpt lat="44.08546" lon="1.72725">
        <ele>226</ele>
        <time>2013-03-02T15:28:51Z</time>
      </trkpt>
      <trkpt lat="44.08544" lon="1.72719">
        <ele>226</ele>
        <time>2013-03-02T15:28:54Z</time>
      </trkpt>
      <trkpt lat="44.0854" lon="1.7271">
        <ele>227</ele>
        <time>2013-03-02T15:28:56Z</time>
      </trkpt>
      <trkpt lat="44.08538" lon="1.72704">
        <ele>228</ele>
        <time>2013-03-02T15:28:58Z</time>
      </trkpt>
      <trkpt lat="44.08535" lon="1.72698">
        <ele>228</ele>
        <time>2013-03-02T15:29:00Z</time>
      </trkpt>
      <trkpt lat="44.08531" lon="1.72692">
        <ele>229</ele>
        <time>2013-03-02T15:29:02Z</time>
      </trkpt>
      <trkpt lat="44.08528" lon="1.72687">
        <ele>230</ele>
        <time>2013-03-02T15:29:05Z</time>
      </trkpt>
      <trkpt lat="44.08522" lon="1.72679">
        <ele>233</ele>
        <time>2013-03-02T15:29:07Z</time>
      </trkpt>
      <trkpt lat="44.08518" lon="1.72675">
        <ele>234</ele>
        <time>2013-03-02T15:29:10Z</time>
      </trkpt>
      <trkpt lat="44.08512" lon="1.72668">
        <ele>235</ele>
        <time>2013-03-02T15:29:12Z</time>
      </trkpt>
      <trkpt lat="44.08509" lon="1.72663">
        <ele>236</ele>
        <time>2013-03-02T15:29:15Z</time>
      </trkpt>
      <trkpt lat="44.08503" lon="1.72656">
        <ele>237</ele>
        <time>2013-03-02T15:29:17Z</time>
      </trkpt>
      <trkpt lat="44.08499" lon="1.72651">
        <ele>238</ele>
        <time>2013-03-02T15:29:20Z</time>
      </trkpt>
      <trkpt lat="44.08494" lon="1.72643">
        <ele>239</ele>
        <time>2013-03-02T15:29:22Z</time>
      </trkpt>
      <trkpt lat="44.0849" lon="1.72637">
        <ele>240</ele>
        <time>2013-03-02T15:29:25Z</time>
      </trkpt>
      <trkpt lat="44.08488" lon="1.72632">
        <ele>240</ele>
        <time>2013-03-02T15:29:27Z</time>
      </trkpt>
      <trkpt lat="44.08484" lon="1.72623">
        <ele>242</ele>
        <time>2013-03-02T15:29:30Z</time>
      </trkpt>
      <trkpt lat="44.08481" lon="1.72614">
        <ele>242</ele>
        <time>2013-03-02T15:29:33Z</time>
      </trkpt>
      <trkpt lat="44.08479" lon="1.72608">
        <ele>243</ele>
        <time>2013-03-02T15:29:35Z</time>
      </trkpt>
      <trkpt lat="44.08477" lon="1.72603">
        <ele>243</ele>
        <time>2013-03-02T15:29:37Z</time>
      </trkpt>
      <trkpt lat="44.08475" lon="1.72597">
        <ele>243</ele>
        <time>2013-03-02T15:29:39Z</time>
      </trkpt>
      <trkpt lat="44.08473" lon="1.72591">
        <ele>243</ele>
        <time>2013-03-02T15:29:41Z</time>
      </trkpt>
      <trkpt lat="44.08472" lon="1.72584">
        <ele>244</ele>
        <time>2013-03-02T15:29:43Z</time>
      </trkpt>
      <trkpt lat="44.0847" lon="1.72578">
        <ele>244</ele>
        <time>2013-03-02T15:29:45Z</time>
      </trkpt>
      <trkpt lat="44.08469" lon="1.72571">
        <ele>245</ele>
        <time>2013-03-02T15:29:47Z</time>
      </trkpt>
      <trkpt lat="44.08468" lon="1.72565">
        <ele>245</ele>
        <time>2013-03-02T15:29:49Z</time>
      </trkpt>
      <trkpt lat="44.08467" lon="1.72558">
        <ele>246</ele>
        <time>2013-03-02T15:29:51Z</time>
      </trkpt>
      <trkpt lat="44.08465" lon="1.72551">
        <ele>247</ele>
        <time>2013-03-02T15:29:53Z</time>
      </trkpt>
      <trkpt lat="44.08464" lon="1.72544">
        <ele>248</ele>
        <time>2013-03-02T15:29:55Z</time>
      </trkpt>
      <trkpt lat="44.08462" lon="1.72537">
        <ele>249</ele>
        <time>2013-03-02T15:29:57Z</time>
      </trkpt>
      <trkpt lat="44.0846" lon="1.72527">
        <ele>251</ele>
        <time>2013-03-02T15:30:00Z</time>
      </trkpt>
      <trkpt lat="44.08459" lon="1.7252">
        <ele>252</ele>
        <time>2013-03-02T15:30:02Z</time>
      </trkpt>
      <trkpt lat="44.08457" lon="1.7251">
        <ele>253</ele>
        <time>2013-03-02T15:30:05Z</time>
      </trkpt>
      <trkpt lat="44.08456" lon="1.72504">
        <ele>254</ele>
        <time>2013-03-02T15:30:07Z</time>
      </trkpt>
      <trkpt lat="44.08454" lon="1.72497">
        <ele>254</ele>
        <time>2013-03-02T15:30:09Z</time>
      </trkpt>
      <trkpt lat="44.08451" lon="1.72488">
        <ele>255</ele>
        <time>2013-03-02T15:30:12Z</time>
      </trkpt>
      <trkpt lat="44.08449" lon="1.72483">
        <ele>255</ele>
        <time>2013-03-02T15:30:14Z</time>
      </trkpt>
      <trkpt lat="44.08448" lon="1.72472">
        <ele>256</ele>
        <time>2013-03-02T15:30:17Z</time>
      </trkpt>
      <trkpt lat="44.08446" lon="1.72462">
        <ele>256</ele>
        <time>2013-03-02T15:30:20Z</time>
      </trkpt>
      <trkpt lat="44.08445" lon="1.72456">
        <ele>256</ele>
        <time>2013-03-02T15:30:22Z</time>
      </trkpt>
      <trkpt lat="44.08444" lon="1.72445">
        <ele>257</ele>
        <time>2013-03-02T15:30:25Z</time>
      </trkpt>
      <trkpt lat="44.08443" lon="1.72438">
        <ele>257</ele>
        <time>2013-03-02T15:30:27Z</time>
      </trkpt>
      <trkpt lat="44.08443" lon="1.72431">
        <ele>258</ele>
        <time>2013-03-02T15:30:29Z</time>
      </trkpt>
      <trkpt lat="44.08443" lon="1.7242">
        <ele>259</ele>
        <time>2013-03-02T15:30:31Z</time>
      </trkpt>
      <trkpt lat="44.08443" lon="1.72413">
        <ele>260</ele>
        <time>2013-03-02T15:30:33Z</time>
      </trkpt>
      <trkpt lat="44.08443" lon="1.72406">
        <ele>260</ele>
        <time>2013-03-02T15:30:35Z</time>
      </trkpt>
      <trkpt lat="44.08443" lon="1.72399">
        <ele>261</ele>
        <time>2013-03-02T15:30:37Z</time>
      </trkpt>
      <trkpt lat="44.08443" lon="1.72392">
        <ele>261</ele>
        <time>2013-03-02T15:30:39Z</time>
      </trkpt>
      <trkpt lat="44.08443" lon="1.72385">
        <ele>262</ele>
        <time>2013-03-02T15:30:41Z</time>
      </trkpt>
      <trkpt lat="44.08444" lon="1.72378">
        <ele>262</ele>
        <time>2013-03-02T15:30:43Z</time>
      </trkpt>
      <trkpt lat="44.08444" lon="1.72371">
        <ele>263</ele>
        <time>2013-03-02T15:30:45Z</time>
      </trkpt>
      <trkpt lat="44.08445" lon="1.72364">
        <ele>263</ele>
        <time>2013-03-02T15:30:47Z</time>
      </trkpt>
      <trkpt lat="44.08446" lon="1.72357">
        <ele>264</ele>
        <time>2013-03-02T15:30:50Z</time>
      </trkpt>
      <trkpt lat="44.08448" lon="1.72346">
        <ele>264</ele>
        <time>2013-03-02T15:30:53Z</time>
      </trkpt>
      <trkpt lat="44.08452" lon="1.72337">
        <ele>265</ele>
        <time>2013-03-02T15:30:56Z</time>
      </trkpt>
      <trkpt lat="44.08454" lon="1.7233">
        <ele>265</ele>
        <time>2013-03-02T15:30:58Z</time>
      </trkpt>
      <trkpt lat="44.08456" lon="1.7232">
        <ele>265</ele>
        <time>2013-03-02T15:31:01Z</time>
      </trkpt>
      <trkpt lat="44.08459" lon="1.72313">
        <ele>266</ele>
        <time>2013-03-02T15:31:03Z</time>
      </trkpt>
      <trkpt lat="44.08461" lon="1.72307">
        <ele>266</ele>
        <time>2013-03-02T15:31:05Z</time>
      </trkpt>
      <trkpt lat="44.08462" lon="1.72297">
        <ele>267</ele>
        <time>2013-03-02T15:31:07Z</time>
      </trkpt>
      <trkpt lat="44.08462" lon="1.7229">
        <ele>267</ele>
        <time>2013-03-02T15:31:10Z</time>
      </trkpt>
      <trkpt lat="44.0846" lon="1.7228">
        <ele>267</ele>
        <time>2013-03-02T15:31:13Z</time>
      </trkpt>
      <trkpt lat="44.08458" lon="1.72274">
        <ele>267</ele>
        <time>2013-03-02T15:31:15Z</time>
      </trkpt>
      <trkpt lat="44.08453" lon="1.72263">
        <ele>267</ele>
        <time>2013-03-02T15:31:17Z</time>
      </trkpt>
      <trkpt lat="44.0845" lon="1.72256">
        <ele>268</ele>
        <time>2013-03-02T15:31:19Z</time>
      </trkpt>
      <trkpt lat="44.08447" lon="1.72249">
        <ele>268</ele>
        <time>2013-03-02T15:31:21Z</time>
      </trkpt>
      <trkpt lat="44.08443" lon="1.72242">
        <ele>268</ele>
        <time>2013-03-02T15:31:23Z</time>
      </trkpt>
      <trkpt lat="44.0844" lon="1.72234">
        <ele>268</ele>
        <time>2013-03-02T15:31:25Z</time>
      </trkpt>
      <trkpt lat="44.08436" lon="1.72226">
        <ele>268</ele>
        <time>2013-03-02T15:31:27Z</time>
      </trkpt>
      <trkpt lat="44.08433" lon="1.72219">
        <ele>268</ele>
        <time>2013-03-02T15:31:30Z</time>
      </trkpt>
      <trkpt lat="44.08429" lon="1.72213">
        <ele>269</ele>
        <time>2013-03-02T15:31:32Z</time>
      </trkpt>
      <trkpt lat="44.08424" lon="1.72201">
        <ele>269</ele>
        <time>2013-03-02T15:31:34Z</time>
      </trkpt>
      <trkpt lat="44.0842" lon="1.72193">
        <ele>270</ele>
        <time>2013-03-02T15:31:37Z</time>
      </trkpt>
      <trkpt lat="44.08416" lon="1.72183">
        <ele>271</ele>
        <time>2013-03-02T15:31:39Z</time>
      </trkpt>
      <trkpt lat="44.08412" lon="1.72176">
        <ele>271</ele>
        <time>2013-03-02T15:31:41Z</time>
      </trkpt>
      <trkpt lat="44.0841" lon="1.72169">
        <ele>271</ele>
        <time>2013-03-02T15:31:43Z</time>
      </trkpt>
      <trkpt lat="44.08407" lon="1.72162">
        <ele>272</ele>
        <time>2013-03-02T15:31:46Z</time>
      </trkpt>
      <trkpt lat="44.08404" lon="1.72156">
        <ele>272</ele>
        <time>2013-03-02T15:31:48Z</time>
      </trkpt>
      <trkpt lat="44.084" lon="1.72151">
        <ele>273</ele>
        <time>2013-03-02T15:31:50Z</time>
      </trkpt>
      <trkpt lat="44.08397" lon="1.72146">
        <ele>273</ele>
        <time>2013-03-02T15:31:52Z</time>
      </trkpt>
      <trkpt lat="44.08393" lon="1.72143">
        <ele>274</ele>
        <time>2013-03-02T15:31:54Z</time>
      </trkpt>
      <trkpt lat="44.08389" lon="1.72139">
        <ele>275</ele>
        <time>2013-03-02T15:31:56Z</time>
      </trkpt>
      <trkpt lat="44.08384" lon="1.72136">
        <ele>275</ele>
        <time>2013-03-02T15:31:58Z</time>
      </trkpt>
      <trkpt lat="44.08381" lon="1.72133">
        <ele>276</ele>
        <time>2013-03-02T15:32:00Z</time>
      </trkpt>
      <trkpt lat="44.08377" lon="1.72128">
        <ele>277</ele>
        <time>2013-03-02T15:32:02Z</time>
      </trkpt>
      <trkpt lat="44.08374" lon="1.72124">
        <ele>277</ele>
        <time>2013-03-02T15:32:04Z</time>
      </trkpt>
      <trkpt lat="44.08371" lon="1.72119">
        <ele>278</ele>
        <time>2013-03-02T15:32:06Z</time>
      </trkpt>
      <trkpt lat="44.08368" lon="1.72114">
        <ele>279</ele>
        <time>2013-03-02T15:32:08Z</time>
      </trkpt>
      <trkpt lat="44.08365" lon="1.72108">
        <ele>279</ele>
        <time>2013-03-02T15:32:10Z</time>
      </trkpt>
      <trkpt lat="44.08363" lon="1.72103">
        <ele>280</ele>
        <time>2013-03-02T15:32:12Z</time>
      </trkpt>
      <trkpt lat="44.0836" lon="1.72097">
        <ele>281</ele>
        <time>2013-03-02T15:32:14Z</time>
      </trkpt>
      <trkpt lat="44.08358" lon="1.72092">
        <ele>281</ele>
        <time>2013-03-02T15:32:16Z</time>
      </trkpt>
      <trkpt lat="44.08357" lon="1.72087">
        <ele>282</ele>
        <time>2013-03-02T15:32:18Z</time>
      </trkpt>
      <trkpt lat="44.08353" lon="1.72078">
        <ele>283</ele>
        <time>2013-03-02T15:32:21Z</time>
      </trkpt>
      <trkpt lat="44.0835" lon="1.72069">
        <ele>284</ele>
        <time>2013-03-02T15:32:24Z</time>
      </trkpt>
      <trkpt lat="44.08348" lon="1.72064">
        <ele>285</ele>
        <time>2013-03-02T15:32:26Z</time>
      </trkpt>
      <trkpt lat="44.08346" lon="1.72058">
        <ele>285</ele>
        <time>2013-03-02T15:32:28Z</time>
      </trkpt>
      <trkpt lat="44.08344" lon="1.72049">
        <ele>285</ele>
        <time>2013-03-02T15:32:31Z</time>
      </trkpt>
      <trkpt lat="44.08343" lon="1.72041">
        <ele>285</ele>
        <time>2013-03-02T15:32:33Z</time>
      </trkpt>
      <trkpt lat="44.08342" lon="1.72034">
        <ele>285</ele>
        <time>2013-03-02T15:32:35Z</time>
      </trkpt>
      <trkpt lat="44.0834" lon="1.72025">
        <ele>285</ele>
        <time>2013-03-02T15:32:37Z</time>
      </trkpt>
      <trkpt lat="44.08339" lon="1.72018">
        <ele>285</ele>
        <time>2013-03-02T15:32:39Z</time>
      </trkpt>
      <trkpt lat="44.08337" lon="1.72011">
        <ele>285</ele>
        <time>2013-03-02T15:32:41Z</time>
      </trkpt>
      <trkpt lat="44.08336" lon="1.72002">
        <ele>284</ele>
        <time>2013-03-02T15:32:43Z</time>
      </trkpt>
      <trkpt lat="44.08334" lon="1.71994">
        <ele>284</ele>
        <time>2013-03-02T15:32:45Z</time>
      </trkpt>
      <trkpt lat="44.08334" lon="1.71986">
        <ele>284</ele>
        <time>2013-03-02T15:32:47Z</time>
      </trkpt>
      <trkpt lat="44.08333" lon="1.71976">
        <ele>284</ele>
        <time>2013-03-02T15:32:49Z</time>
      </trkpt>
      <trkpt lat="44.08332" lon="1.71967">
        <ele>284</ele>
        <time>2013-03-02T15:32:51Z</time>
      </trkpt>
      <trkpt lat="44.08331" lon="1.71958">
        <ele>284</ele>
        <time>2013-03-02T15:32:53Z</time>
      </trkpt>
      <trkpt lat="44.0833" lon="1.71953">
        <ele>284</ele>
        <time>2013-03-02T15:32:55Z</time>
      </trkpt>
      <trkpt lat="44.08329" lon="1.71946">
        <ele>283</ele>
        <time>2013-03-02T15:32:57Z</time>
      </trkpt>
      <trkpt lat="44.08328" lon="1.71937">
        <ele>282</ele>
        <time>2013-03-02T15:32:59Z</time>
      </trkpt>
      <trkpt lat="44.08326" lon="1.71927">
        <ele>281</ele>
        <time>2013-03-02T15:33:01Z</time>
      </trkpt>
      <trkpt lat="44.08325" lon="1.71919">
        <ele>280</ele>
        <time>2013-03-02T15:33:03Z</time>
      </trkpt>
      <trkpt lat="44.08324" lon="1.71909">
        <ele>280</ele>
        <time>2013-03-02T15:33:05Z</time>
      </trkpt>
      <trkpt lat="44.08322" lon="1.71897">
        <ele>279</ele>
        <time>2013-03-02T15:33:07Z</time>
      </trkpt>
      <trkpt lat="44.08321" lon="1.71885">
        <ele>279</ele>
        <time>2013-03-02T15:33:09Z</time>
      </trkpt>
      <trkpt lat="44.08319" lon="1.71873">
        <ele>279</ele>
        <time>2013-03-02T15:33:11Z</time>
      </trkpt>
      <trkpt lat="44.08318" lon="1.7186">
        <ele>279</ele>
        <time>2013-03-02T15:33:13Z</time>
      </trkpt>
      <trkpt lat="44.08316" lon="1.71849">
        <ele>279</ele>
        <time>2013-03-02T15:33:15Z</time>
      </trkpt>
      <trkpt lat="44.08315" lon="1.71838">
        <ele>279</ele>
        <time>2013-03-02T15:33:17Z</time>
      </trkpt>
      <trkpt lat="44.08311" lon="1.71823">
        <ele>279</ele>
        <time>2013-03-02T15:33:20Z</time>
      </trkpt>
      <trkpt lat="44.083" lon="1.71807">
        <ele>279</ele>
        <time>2013-03-02T15:33:23Z</time>
      </trkpt>
      <trkpt lat="44.08291" lon="1.71795">
        <ele>279</ele>
        <time>2013-03-02T15:33:25Z</time>
      </trkpt>
      <trkpt lat="44.08282" lon="1.71783">
        <ele>279</ele>
        <time>2013-03-02T15:33:27Z</time>
      </trkpt>
      <trkpt lat="44.08273" lon="1.71771">
        <ele>279</ele>
        <time>2013-03-02T15:33:29Z</time>
      </trkpt>
      <trkpt lat="44.08266" lon="1.71758">
        <ele>278</ele>
        <time>2013-03-02T15:33:31Z</time>
      </trkpt>
      <trkpt lat="44.0826" lon="1.71747">
        <ele>276</ele>
        <time>2013-03-02T15:33:33Z</time>
      </trkpt>
      <trkpt lat="44.08252" lon="1.71732">
        <ele>276</ele>
        <time>2013-03-02T15:33:36Z</time>
      </trkpt>
      <trkpt lat="44.08247" lon="1.71719">
        <ele>276</ele>
        <time>2013-03-02T15:33:39Z</time>
      </trkpt>
      <trkpt lat="44.08243" lon="1.7171">
        <ele>276</ele>
        <time>2013-03-02T15:33:41Z</time>
      </trkpt>
      <trkpt lat="44.08238" lon="1.71701">
        <ele>276</ele>
        <time>2013-03-02T15:33:43Z</time>
      </trkpt>
      <trkpt lat="44.08233" lon="1.71693">
        <ele>276</ele>
        <time>2013-03-02T15:33:45Z</time>
      </trkpt>
      <trkpt lat="44.08228" lon="1.71685">
        <ele>276</ele>
        <time>2013-03-02T15:33:47Z</time>
      </trkpt>
      <trkpt lat="44.08222" lon="1.71679">
        <ele>276</ele>
        <time>2013-03-02T15:33:49Z</time>
      </trkpt>
      <trkpt lat="44.08217" lon="1.71674">
        <ele>276</ele>
        <time>2013-03-02T15:33:51Z</time>
      </trkpt>
      <trkpt lat="44.08211" lon="1.71672">
        <ele>276</ele>
        <time>2013-03-02T15:33:53Z</time>
      </trkpt>
      <trkpt lat="44.08205" lon="1.71671">
        <ele>276</ele>
        <time>2013-03-02T15:33:55Z</time>
      </trkpt>
      <trkpt lat="44.082" lon="1.7167">
        <ele>276</ele>
        <time>2013-03-02T15:33:57Z</time>
      </trkpt>
      <trkpt lat="44.08195" lon="1.7167">
        <ele>276</ele>
        <time>2013-03-02T15:33:59Z</time>
      </trkpt>
      <trkpt lat="44.08189" lon="1.7167">
        <ele>276</ele>
        <time>2013-03-02T15:34:01Z</time>
      </trkpt>
      <trkpt lat="44.08183" lon="1.7167">
        <ele>276</ele>
        <time>2013-03-02T15:34:03Z</time>
      </trkpt>
      <trkpt lat="44.08174" lon="1.71668">
        <ele>276</ele>
        <time>2013-03-02T15:34:05Z</time>
      </trkpt>
      <trkpt lat="44.08169" lon="1.71665">
        <ele>276</ele>
        <time>2013-03-02T15:34:08Z</time>
      </trkpt>
      <trkpt lat="44.0816" lon="1.7166">
        <ele>276</ele>
        <time>2013-03-02T15:34:10Z</time>
      </trkpt>
      <trkpt lat="44.08154" lon="1.71657">
        <ele>276</ele>
        <time>2013-03-02T15:34:12Z</time>
      </trkpt>
      <trkpt lat="44.08149" lon="1.71654">
        <ele>276</ele>
        <time>2013-03-02T15:34:14Z</time>
      </trkpt>
      <trkpt lat="44.08143" lon="1.71651">
        <ele>276</ele>
        <time>2013-03-02T15:34:16Z</time>
      </trkpt>
      <trkpt lat="44.08138" lon="1.71649">
        <ele>276</ele>
        <time>2013-03-02T15:34:19Z</time>
      </trkpt>
      <trkpt lat="44.08132" lon="1.7165">
        <ele>276</ele>
        <time>2013-03-02T15:34:21Z</time>
      </trkpt>
      <trkpt lat="44.08123" lon="1.71647">
        <ele>276</ele>
        <time>2013-03-02T15:34:23Z</time>
      </trkpt>
      <trkpt lat="44.08118" lon="1.71643">
        <ele>276</ele>
        <time>2013-03-02T15:34:25Z</time>
      </trkpt>
      <trkpt lat="44.08112" lon="1.71639">
        <ele>276</ele>
        <time>2013-03-02T15:34:27Z</time>
      </trkpt>
      <trkpt lat="44.08107" lon="1.71633">
        <ele>276</ele>
        <time>2013-03-02T15:34:30Z</time>
      </trkpt>
      <trkpt lat="44.081" lon="1.71624">
        <ele>276</ele>
        <time>2013-03-02T15:34:33Z</time>
      </trkpt>
      <trkpt lat="44.08093" lon="1.71617">
        <ele>276</ele>
        <time>2013-03-02T15:34:36Z</time>
      </trkpt>
      <trkpt lat="44.08086" lon="1.7161">
        <ele>276</ele>
        <time>2013-03-02T15:34:39Z</time>
      </trkpt>
      <trkpt lat="44.08079" lon="1.71605">
        <ele>276</ele>
        <time>2013-03-02T15:34:41Z</time>
      </trkpt>
      <trkpt lat="44.08069" lon="1.71597">
        <ele>276</ele>
        <time>2013-03-02T15:34:44Z</time>
      </trkpt>
      <trkpt lat="44.08059" lon="1.71586">
        <ele>276</ele>
        <time>2013-03-02T15:34:47Z</time>
      </trkpt>
      <trkpt lat="44.08052" lon="1.71581">
        <ele>276</ele>
        <time>2013-03-02T15:34:49Z</time>
      </trkpt>
      <trkpt lat="44.08045" lon="1.71575">
        <ele>276</ele>
        <time>2013-03-02T15:34:51Z</time>
      </trkpt>
      <trkpt lat="44.08038" lon="1.71569">
        <ele>276</ele>
        <time>2013-03-02T15:34:53Z</time>
      </trkpt>
      <trkpt lat="44.08029" lon="1.71559">
        <ele>275</ele>
        <time>2013-03-02T15:34:55Z</time>
      </trkpt>
      <trkpt lat="44.08023" lon="1.71552">
        <ele>275</ele>
        <time>2013-03-02T15:34:57Z</time>
      </trkpt>
      <trkpt lat="44.08017" lon="1.71545">
        <ele>275</ele>
        <time>2013-03-02T15:34:59Z</time>
      </trkpt>
      <trkpt lat="44.08011" lon="1.71538">
        <ele>275</ele>
        <time>2013-03-02T15:35:01Z</time>
      </trkpt>
      <trkpt lat="44.08005" lon="1.71531">
        <ele>275</ele>
        <time>2013-03-02T15:35:03Z</time>
      </trkpt>
      <trkpt lat="44.08" lon="1.71528">
        <ele>275</ele>
        <time>2013-03-02T15:35:05Z</time>
      </trkpt>
      <trkpt lat="44.07995" lon="1.71523">
        <ele>275</ele>
        <time>2013-03-02T15:35:08Z</time>
      </trkpt>
      <trkpt lat="44.07988" lon="1.71515">
        <ele>275</ele>
        <time>2013-03-02T15:35:10Z</time>
      </trkpt>
      <trkpt lat="44.07982" lon="1.71511">
        <ele>275</ele>
        <time>2013-03-02T15:35:13Z</time>
      </trkpt>
      <trkpt lat="44.07974" lon="1.71507">
        <ele>275</ele>
        <time>2013-03-02T15:35:15Z</time>
      </trkpt>
      <trkpt lat="44.07969" lon="1.71504">
        <ele>275</ele>
        <time>2013-03-02T15:35:17Z</time>
      </trkpt>
      <trkpt lat="44.07964" lon="1.71501">
        <ele>275</ele>
        <time>2013-03-02T15:35:20Z</time>
      </trkpt>
      <trkpt lat="44.07958" lon="1.71496">
        <ele>275</ele>
        <time>2013-03-02T15:35:22Z</time>
      </trkpt>
      <trkpt lat="44.07954" lon="1.71493">
        <ele>275</ele>
        <time>2013-03-02T15:35:25Z</time>
      </trkpt>
      <trkpt lat="44.07951" lon="1.7149">
        <ele>275</ele>
        <time>2013-03-02T15:35:27Z</time>
      </trkpt>
      <trkpt lat="44.07948" lon="1.71485">
        <ele>276</ele>
        <time>2013-03-02T15:35:29Z</time>
      </trkpt>
      <trkpt lat="44.07944" lon="1.71479">
        <ele>277</ele>
        <time>2013-03-02T15:35:31Z</time>
      </trkpt>
      <trkpt lat="44.07942" lon="1.71474">
        <ele>278</ele>
        <time>2013-03-02T15:35:34Z</time>
      </trkpt>
      <trkpt lat="44.07941" lon="1.71468">
        <ele>278</ele>
        <time>2013-03-02T15:35:36Z</time>
      </trkpt>
      <trkpt lat="44.07938" lon="1.71461">
        <ele>279</ele>
        <time>2013-03-02T15:35:39Z</time>
      </trkpt>
      <trkpt lat="44.07936" lon="1.71456">
        <ele>279</ele>
        <time>2013-03-02T15:35:41Z</time>
      </trkpt>
      <trkpt lat="44.07932" lon="1.71449">
        <ele>280</ele>
        <time>2013-03-02T15:35:43Z</time>
      </trkpt>
      <trkpt lat="44.07929" lon="1.71445">
        <ele>281</ele>
        <time>2013-03-02T15:35:45Z</time>
      </trkpt>
      <trkpt lat="44.07926" lon="1.71442">
        <ele>281</ele>
        <time>2013-03-02T15:35:47Z</time>
      </trkpt>
      <trkpt lat="44.07922" lon="1.7144">
        <ele>282</ele>
        <time>2013-03-02T15:35:49Z</time>
      </trkpt>
      <trkpt lat="44.07919" lon="1.71438">
        <ele>282</ele>
        <time>2013-03-02T15:35:51Z</time>
      </trkpt>
      <trkpt lat="44.07915" lon="1.71435">
        <ele>282</ele>
        <time>2013-03-02T15:35:53Z</time>
      </trkpt>
      <trkpt lat="44.07912" lon="1.71431">
        <ele>283</ele>
        <time>2013-03-02T15:35:56Z</time>
      </trkpt>
      <trkpt lat="44.07911" lon="1.71424">
        <ele>283</ele>
        <time>2013-03-02T15:35:59Z</time>
      </trkpt>
      <trkpt lat="44.0791" lon="1.71418">
        <ele>284</ele>
        <time>2013-03-02T15:36:01Z</time>
      </trkpt>
      <trkpt lat="44.07909" lon="1.71413">
        <ele>285</ele>
        <time>2013-03-02T15:36:03Z</time>
      </trkpt>
      <trkpt lat="44.07907" lon="1.71408">
        <ele>285</ele>
        <time>2013-03-02T15:36:05Z</time>
      </trkpt>
      <trkpt lat="44.07904" lon="1.71404">
        <ele>286</ele>
        <time>2013-03-02T15:36:07Z</time>
      </trkpt>
      <trkpt lat="44.07901" lon="1.714">
        <ele>286</ele>
        <time>2013-03-02T15:36:09Z</time>
      </trkpt>
      <trkpt lat="44.07896" lon="1.71396">
        <ele>287</ele>
        <time>2013-03-02T15:36:12Z</time>
      </trkpt>
      <trkpt lat="44.07892" lon="1.71391">
        <ele>288</ele>
        <time>2013-03-02T15:36:14Z</time>
      </trkpt>
      <trkpt lat="44.07889" lon="1.71388">
        <ele>288</ele>
        <time>2013-03-02T15:36:16Z</time>
      </trkpt>
      <trkpt lat="44.07887" lon="1.71384">
        <ele>289</ele>
        <time>2013-03-02T15:36:18Z</time>
      </trkpt>
      <trkpt lat="44.07885" lon="1.71382">
        <ele>289</ele>
        <time>2013-03-02T15:36:20Z</time>
      </trkpt>
      <trkpt lat="44.07882" lon="1.71383">
        <ele>290</ele>
        <time>2013-03-02T15:36:23Z</time>
      </trkpt>
      <trkpt lat="44.0788" lon="1.71387">
        <ele>290</ele>
        <time>2013-03-02T15:36:25Z</time>
      </trkpt>
      <trkpt lat="44.07876" lon="1.71393">
        <ele>290</ele>
        <time>2013-03-02T15:36:28Z</time>
      </trkpt>
      <trkpt lat="44.07872" lon="1.71395">
        <ele>290</ele>
        <time>2013-03-02T15:36:30Z</time>
      </trkpt>
      <trkpt lat="44.07865" lon="1.71393">
        <ele>290</ele>
        <time>2013-03-02T15:36:33Z</time>
      </trkpt>
      <trkpt lat="44.0786" lon="1.71387">
        <ele>290</ele>
        <time>2013-03-02T15:36:35Z</time>
      </trkpt>
      <trkpt lat="44.07857" lon="1.71384">
        <ele>290</ele>
        <time>2013-03-02T15:36:38Z</time>
      </trkpt>
      <trkpt lat="44.07851" lon="1.71382">
        <ele>290</ele>
        <time>2013-03-02T15:36:40Z</time>
      </trkpt>
      <trkpt lat="44.07848" lon="1.71385">
        <ele>290</ele>
        <time>2013-03-02T15:36:45Z</time>
      </trkpt>
      <trkpt lat="44.07843" lon="1.71385">
        <ele>290</ele>
        <time>2013-03-02T15:36:47Z</time>
      </trkpt>
      <trkpt lat="44.0784" lon="1.71382">
        <ele>290</ele>
        <time>2013-03-02T15:36:50Z</time>
      </trkpt>
      <trkpt lat="44.07835" lon="1.71378">
        <ele>290</ele>
        <time>2013-03-02T15:36:52Z</time>
      </trkpt>
      <trkpt lat="44.07831" lon="1.71373">
        <ele>290</ele>
        <time>2013-03-02T15:36:55Z</time>
      </trkpt>
      <trkpt lat="44.07827" lon="1.71368">
        <ele>290</ele>
        <time>2013-03-02T15:36:57Z</time>
      </trkpt>
      <trkpt lat="44.07822" lon="1.71359">
        <ele>290</ele>
        <time>2013-03-02T15:37:00Z</time>
      </trkpt>
      <trkpt lat="44.07817" lon="1.71351">
        <ele>290</ele>
        <time>2013-03-02T15:37:02Z</time>
      </trkpt>
      <trkpt lat="44.07813" lon="1.71345">
        <ele>290</ele>
        <time>2013-03-02T15:37:05Z</time>
      </trkpt>
      <trkpt lat="44.0781" lon="1.71336">
        <ele>290</ele>
        <time>2013-03-02T15:37:07Z</time>
      </trkpt>
      <trkpt lat="44.0781" lon="1.7133">
        <ele>290</ele>
        <time>2013-03-02T15:37:10Z</time>
      </trkpt>
      <trkpt lat="44.07809" lon="1.71321">
        <ele>290</ele>
        <time>2013-03-02T15:37:13Z</time>
      </trkpt>
      <trkpt lat="44.07807" lon="1.71317">
        <ele>290</ele>
        <time>2013-03-02T15:37:15Z</time>
      </trkpt>
      <trkpt lat="44.078" lon="1.71312">
        <ele>290</ele>
        <time>2013-03-02T15:37:17Z</time>
      </trkpt>
      <trkpt lat="44.07796" lon="1.71307">
        <ele>290</ele>
        <time>2013-03-02T15:37:19Z</time>
      </trkpt>
      <trkpt lat="44.07793" lon="1.713">
        <ele>290</ele>
        <time>2013-03-02T15:37:21Z</time>
      </trkpt>
      <trkpt lat="44.07791" lon="1.71292">
        <ele>290</ele>
        <time>2013-03-02T15:37:23Z</time>
      </trkpt>
      <trkpt lat="44.07791" lon="1.71283">
        <ele>290</ele>
        <time>2013-03-02T15:37:26Z</time>
      </trkpt>
      <trkpt lat="44.07795" lon="1.71273">
        <ele>291</ele>
        <time>2013-03-02T15:37:28Z</time>
      </trkpt>
      <trkpt lat="44.07798" lon="1.71267">
        <ele>292</ele>
        <time>2013-03-02T15:37:31Z</time>
      </trkpt>
      <trkpt lat="44.07802" lon="1.71259">
        <ele>292</ele>
        <time>2013-03-02T15:37:33Z</time>
      </trkpt>
      <trkpt lat="44.07803" lon="1.71253">
        <ele>292</ele>
        <time>2013-03-02T15:37:36Z</time>
      </trkpt>
      <trkpt lat="44.07809" lon="1.71246">
        <ele>292</ele>
        <time>2013-03-02T15:37:38Z</time>
      </trkpt>
      <trkpt lat="44.07814" lon="1.71241">
        <ele>292</ele>
        <time>2013-03-02T15:37:41Z</time>
      </trkpt>
      <trkpt lat="44.07821" lon="1.71233">
        <ele>292</ele>
        <time>2013-03-02T15:37:43Z</time>
      </trkpt>
      <trkpt lat="44.07825" lon="1.71226">
        <ele>292</ele>
        <time>2013-03-02T15:37:46Z</time>
      </trkpt>
      <trkpt lat="44.07826" lon="1.71216">
        <ele>292</ele>
        <time>2013-03-02T15:37:48Z</time>
      </trkpt>
      <trkpt lat="44.07824" lon="1.71209">
        <ele>292</ele>
        <time>2013-03-02T15:37:51Z</time>
      </trkpt>
      <trkpt lat="44.07818" lon="1.71202">
        <ele>292</ele>
        <time>2013-03-02T15:37:53Z</time>
      </trkpt>
      <trkpt lat="44.07814" lon="1.71195">
        <ele>292</ele>
        <time>2013-03-02T15:37:56Z</time>
      </trkpt>
      <trkpt lat="44.07811" lon="1.71186">
        <ele>292</ele>
        <time>2013-03-02T15:37:58Z</time>
      </trkpt>
      <trkpt lat="44.0781" lon="1.71178">
        <ele>292</ele>
        <time>2013-03-02T15:38:01Z</time>
      </trkpt>
      <trkpt lat="44.07809" lon="1.71168">
        <ele>293</ele>
        <time>2013-03-02T15:38:04Z</time>
      </trkpt>
      <trkpt lat="44.07804" lon="1.71157">
        <ele>295</ele>
        <time>2013-03-02T15:38:07Z</time>
      </trkpt>
      <trkpt lat="44.07801" lon="1.71147">
        <ele>296</ele>
        <time>2013-03-02T15:38:09Z</time>
      </trkpt>
      <trkpt lat="44.07799" lon="1.71139">
        <ele>297</ele>
        <time>2013-03-02T15:38:12Z</time>
      </trkpt>
      <trkpt lat="44.07793" lon="1.71129">
        <ele>298</ele>
        <time>2013-03-02T15:38:15Z</time>
      </trkpt>
      <trkpt lat="44.0779" lon="1.71122">
        <ele>299</ele>
        <time>2013-03-02T15:38:17Z</time>
      </trkpt>
      <trkpt lat="44.07785" lon="1.71111">
        <ele>300</ele>
        <time>2013-03-02T15:38:19Z</time>
      </trkpt>
      <trkpt lat="44.0778" lon="1.71109">
        <ele>300</ele>
        <time>2013-03-02T15:38:22Z</time>
      </trkpt>
      <trkpt lat="44.07774" lon="1.711">
        <ele>301</ele>
        <time>2013-03-02T15:38:24Z</time>
      </trkpt>
      <trkpt lat="44.07771" lon="1.71093">
        <ele>301</ele>
        <time>2013-03-02T15:38:27Z</time>
      </trkpt>
      <trkpt lat="44.07766" lon="1.71081">
        <ele>302</ele>
        <time>2013-03-02T15:38:30Z</time>
      </trkpt>
      <trkpt lat="44.07768" lon="1.71072">
        <ele>302</ele>
        <time>2013-03-02T15:38:32Z</time>
      </trkpt>
      <trkpt lat="44.07771" lon="1.71062">
        <ele>303</ele>
        <time>2013-03-02T15:38:34Z</time>
      </trkpt>
      <trkpt lat="44.07774" lon="1.71057">
        <ele>303</ele>
        <time>2013-03-02T15:38:37Z</time>
      </trkpt>
      <trkpt lat="44.07778" lon="1.71047">
        <ele>303</ele>
        <time>2013-03-02T15:38:39Z</time>
      </trkpt>
      <trkpt lat="44.07779" lon="1.7104">
        <ele>303</ele>
        <time>2013-03-02T15:38:42Z</time>
      </trkpt>
      <trkpt lat="44.0778" lon="1.71029">
        <ele>303</ele>
        <time>2013-03-02T15:38:44Z</time>
      </trkpt>
      <trkpt lat="44.07778" lon="1.71023">
        <ele>303</ele>
        <time>2013-03-02T15:38:47Z</time>
      </trkpt>
      <trkpt lat="44.07776" lon="1.71011">
        <ele>303</ele>
        <time>2013-03-02T15:38:49Z</time>
      </trkpt>
      <trkpt lat="44.07778" lon="1.71004">
        <ele>303</ele>
        <time>2013-03-02T15:38:51Z</time>
      </trkpt>
      <trkpt lat="44.07782" lon="1.70999">
        <ele>303</ele>
        <time>2013-03-02T15:38:53Z</time>
      </trkpt>
      <trkpt lat="44.07784" lon="1.70992">
        <ele>303</ele>
        <time>2013-03-02T15:38:55Z</time>
      </trkpt>
      <trkpt lat="44.07786" lon="1.70984">
        <ele>303</ele>
        <time>2013-03-02T15:38:57Z</time>
      </trkpt>
      <trkpt lat="44.07788" lon="1.70976">
        <ele>303</ele>
        <time>2013-03-02T15:38:59Z</time>
      </trkpt>
      <trkpt lat="44.07788" lon="1.70968">
        <ele>303</ele>
        <time>2013-03-02T15:39:01Z</time>
      </trkpt>
      <trkpt lat="44.07788" lon="1.7096">
        <ele>303</ele>
        <time>2013-03-02T15:39:03Z</time>
      </trkpt>
      <trkpt lat="44.0779" lon="1.70953">
        <ele>303</ele>
        <time>2013-03-02T15:39:05Z</time>
      </trkpt>
      <trkpt lat="44.07792" lon="1.70945">
        <ele>303</ele>
        <time>2013-03-02T15:39:08Z</time>
      </trkpt>
      <trkpt lat="44.0779" lon="1.70936">
        <ele>303</ele>
        <time>2013-03-02T15:39:10Z</time>
      </trkpt>
      <trkpt lat="44.07787" lon="1.70931">
        <ele>303</ele>
        <time>2013-03-02T15:39:13Z</time>
      </trkpt>
      <trkpt lat="44.07781" lon="1.70926">
        <ele>303</ele>
        <time>2013-03-02T15:39:15Z</time>
      </trkpt>
      <trkpt lat="44.07777" lon="1.70926">
        <ele>303</ele>
        <time>2013-03-02T15:39:18Z</time>
      </trkpt>
      <trkpt lat="44.07771" lon="1.70919">
        <ele>303</ele>
        <time>2013-03-02T15:39:20Z</time>
      </trkpt>
      <trkpt lat="44.07769" lon="1.70912">
        <ele>303</ele>
        <time>2013-03-02T15:39:23Z</time>
      </trkpt>
      <trkpt lat="44.07768" lon="1.70903">
        <ele>303</ele>
        <time>2013-03-02T15:39:25Z</time>
      </trkpt>
      <trkpt lat="44.07769" lon="1.70891">
        <ele>303</ele>
        <time>2013-03-02T15:39:28Z</time>
      </trkpt>
      <trkpt lat="44.0777" lon="1.70884">
        <ele>303</ele>
        <time>2013-03-02T15:39:30Z</time>
      </trkpt>
      <trkpt lat="44.07772" lon="1.70874">
        <ele>303</ele>
        <time>2013-03-02T15:39:33Z</time>
      </trkpt>
      <trkpt lat="44.07773" lon="1.70862">
        <ele>303</ele>
        <time>2013-03-02T15:39:35Z</time>
      </trkpt>
      <trkpt lat="44.07775" lon="1.70854">
        <ele>303</ele>
        <time>2013-03-02T15:39:38Z</time>
      </trkpt>
      <trkpt lat="44.07779" lon="1.70843">
        <ele>303</ele>
        <time>2013-03-02T15:39:40Z</time>
      </trkpt>
      <trkpt lat="44.0778" lon="1.70835">
        <ele>303</ele>
        <time>2013-03-02T15:39:43Z</time>
      </trkpt>
      <trkpt lat="44.07782" lon="1.70828">
        <ele>303</ele>
        <time>2013-03-02T15:39:45Z</time>
      </trkpt>
      <trkpt lat="44.07781" lon="1.70821">
        <ele>303</ele>
        <time>2013-03-02T15:39:48Z</time>
      </trkpt>
      <trkpt lat="44.07775" lon="1.70814">
        <ele>303</ele>
        <time>2013-03-02T15:39:50Z</time>
      </trkpt>
      <trkpt lat="44.07771" lon="1.7081">
        <ele>303</ele>
        <time>2013-03-02T15:39:53Z</time>
      </trkpt>
      <trkpt lat="44.07766" lon="1.70799">
        <ele>303</ele>
        <time>2013-03-02T15:39:55Z</time>
      </trkpt>
      <trkpt lat="44.07764" lon="1.70791">
        <ele>302</ele>
        <time>2013-03-02T15:39:58Z</time>
      </trkpt>
      <trkpt lat="44.07763" lon="1.70778">
        <ele>302</ele>
        <time>2013-03-02T15:40:00Z</time>
      </trkpt>
      <trkpt lat="44.07763" lon="1.70769">
        <ele>302</ele>
        <time>2013-03-02T15:40:03Z</time>
      </trkpt>
      <trkpt lat="44.07762" lon="1.70756">
        <ele>301</ele>
        <time>2013-03-02T15:40:05Z</time>
      </trkpt>
      <trkpt lat="44.0776" lon="1.70748">
        <ele>301</ele>
        <time>2013-03-02T15:40:08Z</time>
      </trkpt>
      <trkpt lat="44.0776" lon="1.70735">
        <ele>300</ele>
        <time>2013-03-02T15:40:10Z</time>
      </trkpt>
      <trkpt lat="44.0776" lon="1.70725">
        <ele>300</ele>
        <time>2013-03-02T15:40:13Z</time>
      </trkpt>
      <trkpt lat="44.07761" lon="1.70712">
        <ele>300</ele>
        <time>2013-03-02T15:40:15Z</time>
      </trkpt>
      <trkpt lat="44.07762" lon="1.70705">
        <ele>300</ele>
        <time>2013-03-02T15:40:18Z</time>
      </trkpt>
      <trkpt lat="44.07762" lon="1.70696">
        <ele>300</ele>
        <time>2013-03-02T15:40:20Z</time>
      </trkpt>
      <trkpt lat="44.07761" lon="1.70689">
        <ele>299</ele>
        <time>2013-03-02T15:40:23Z</time>
      </trkpt>
      <trkpt lat="44.07762" lon="1.70676">
        <ele>299</ele>
        <time>2013-03-02T15:40:25Z</time>
      </trkpt>
      <trkpt lat="44.07763" lon="1.70669">
        <ele>299</ele>
        <time>2013-03-02T15:40:28Z</time>
      </trkpt>
      <trkpt lat="44.07761" lon="1.70663">
        <ele>299</ele>
        <time>2013-03-02T15:40:30Z</time>
      </trkpt>
      <trkpt lat="44.07759" lon="1.70651">
        <ele>299</ele>
        <time>2013-03-02T15:40:33Z</time>
      </trkpt>
      <trkpt lat="44.07763" lon="1.70639">
        <ele>299</ele>
        <time>2013-03-02T15:40:35Z</time>
      </trkpt>
      <trkpt lat="44.07764" lon="1.7063">
        <ele>299</ele>
        <time>2013-03-02T15:40:38Z</time>
      </trkpt>
      <trkpt lat="44.07764" lon="1.70615">
        <ele>299</ele>
        <time>2013-03-02T15:40:41Z</time>
      </trkpt>
      <trkpt lat="44.07766" lon="1.70606">
        <ele>299</ele>
        <time>2013-03-02T15:40:43Z</time>
      </trkpt>
      <trkpt lat="44.07766" lon="1.70594">
        <ele>298</ele>
        <time>2013-03-02T15:40:45Z</time>
      </trkpt>
      <trkpt lat="44.07764" lon="1.70584">
        <ele>298</ele>
        <time>2013-03-02T15:40:48Z</time>
      </trkpt>
      <trkpt lat="44.07757" lon="1.70572">
        <ele>296</ele>
        <time>2013-03-02T15:40:50Z</time>
      </trkpt>
      <trkpt lat="44.07751" lon="1.70569">
        <ele>296</ele>
        <time>2013-03-02T15:40:53Z</time>
      </trkpt>
      <trkpt lat="44.07747" lon="1.70564">
        <ele>295</ele>
        <time>2013-03-02T15:40:55Z</time>
      </trkpt>
      <trkpt lat="44.07743" lon="1.7055">
        <ele>294</ele>
        <time>2013-03-02T15:40:58Z</time>
      </trkpt>
      <trkpt lat="44.07742" lon="1.70535">
        <ele>293</ele>
        <time>2013-03-02T15:41:00Z</time>
      </trkpt>
      <trkpt lat="44.0774" lon="1.70524">
        <ele>293</ele>
        <time>2013-03-02T15:41:03Z</time>
      </trkpt>
      <trkpt lat="44.07736" lon="1.70509">
        <ele>292</ele>
        <time>2013-03-02T15:41:05Z</time>
      </trkpt>
      <trkpt lat="44.07734" lon="1.70497">
        <ele>291</ele>
        <time>2013-03-02T15:41:08Z</time>
      </trkpt>
      <trkpt lat="44.07738" lon="1.70483">
        <ele>289</ele>
        <time>2013-03-02T15:41:10Z</time>
      </trkpt>
      <trkpt lat="44.07744" lon="1.7048">
        <ele>288</ele>
        <time>2013-03-02T15:41:13Z</time>
      </trkpt>
      <trkpt lat="44.07753" lon="1.70478">
        <ele>287</ele>
        <time>2013-03-02T15:41:15Z</time>
      </trkpt>
      <trkpt lat="44.07759" lon="1.70477">
        <ele>286</ele>
        <time>2013-03-02T15:41:18Z</time>
      </trkpt>
      <trkpt lat="44.07767" lon="1.70469">
        <ele>286</ele>
        <time>2013-03-02T15:41:20Z</time>
      </trkpt>
      <trkpt lat="44.07773" lon="1.70466">
        <ele>285</ele>
        <time>2013-03-02T15:41:23Z</time>
      </trkpt>
      <trkpt lat="44.07783" lon="1.70472">
        <ele>283</ele>
        <time>2013-03-02T15:41:25Z</time>
      </trkpt>
      <trkpt lat="44.07789" lon="1.70477">
        <ele>282</ele>
        <time>2013-03-02T15:41:28Z</time>
      </trkpt>
      <trkpt lat="44.07797" lon="1.70482">
        <ele>280</ele>
        <time>2013-03-02T15:41:30Z</time>
      </trkpt>
      <trkpt lat="44.0781" lon="1.70491">
        <ele>278</ele>
        <time>2013-03-02T15:41:33Z</time>
      </trkpt>
      <trkpt lat="44.07823" lon="1.70499">
        <ele>276</ele>
        <time>2013-03-02T15:41:35Z</time>
      </trkpt>
      <trkpt lat="44.07832" lon="1.70506">
        <ele>275</ele>
        <time>2013-03-02T15:41:37Z</time>
      </trkpt>
      <trkpt lat="44.07842" lon="1.70512">
        <ele>273</ele>
        <time>2013-03-02T15:41:39Z</time>
      </trkpt>
      <trkpt lat="44.07849" lon="1.70517">
        <ele>272</ele>
        <time>2013-03-02T15:41:41Z</time>
      </trkpt>
      <trkpt lat="44.07856" lon="1.70521">
        <ele>271</ele>
        <time>2013-03-02T15:41:43Z</time>
      </trkpt>
      <trkpt lat="44.07861" lon="1.70524">
        <ele>269</ele>
        <time>2013-03-02T15:41:45Z</time>
      </trkpt>
      <trkpt lat="44.07868" lon="1.70528">
        <ele>267</ele>
        <time>2013-03-02T15:41:48Z</time>
      </trkpt>
      <trkpt lat="44.07876" lon="1.70531">
        <ele>266</ele>
        <time>2013-03-02T15:41:50Z</time>
      </trkpt>
      <trkpt lat="44.07882" lon="1.70531">
        <ele>264</ele>
        <time>2013-03-02T15:41:53Z</time>
      </trkpt>
      <trkpt lat="44.07893" lon="1.70531">
        <ele>263</ele>
        <time>2013-03-02T15:41:55Z</time>
      </trkpt>
      <trkpt lat="44.07898" lon="1.70533">
        <ele>263</ele>
        <time>2013-03-02T15:41:58Z</time>
      </trkpt>
      <trkpt lat="44.07906" lon="1.7054">
        <ele>262</ele>
        <time>2013-03-02T15:42:00Z</time>
      </trkpt>
      <trkpt lat="44.07911" lon="1.70545">
        <ele>261</ele>
        <time>2013-03-02T15:42:03Z</time>
      </trkpt>
      <trkpt lat="44.07919" lon="1.70549">
        <ele>260</ele>
        <time>2013-03-02T15:42:05Z</time>
      </trkpt>
      <trkpt lat="44.07924" lon="1.70552">
        <ele>260</ele>
        <time>2013-03-02T15:42:08Z</time>
      </trkpt>
      <trkpt lat="44.07932" lon="1.70554">
        <ele>259</ele>
        <time>2013-03-02T15:42:10Z</time>
      </trkpt>
      <trkpt lat="44.07937" lon="1.70556">
        <ele>259</ele>
        <time>2013-03-02T15:42:13Z</time>
      </trkpt>
      <trkpt lat="44.07939" lon="1.70558">
        <ele>259</ele>
        <time>2013-03-02T15:42:15Z</time>
      </trkpt>
      <trkpt lat="44.07946" lon="1.70562">
        <ele>259</ele>
        <time>2013-03-02T15:42:17Z</time>
      </trkpt>
      <trkpt lat="44.0795" lon="1.70563">
        <ele>259</ele>
        <time>2013-03-02T15:42:19Z</time>
      </trkpt>
      <trkpt lat="44.07954" lon="1.70563">
        <ele>259</ele>
        <time>2013-03-02T15:42:21Z</time>
      </trkpt>
      <trkpt lat="44.07959" lon="1.70562">
        <ele>259</ele>
        <time>2013-03-02T15:42:23Z</time>
      </trkpt>
      <trkpt lat="44.07965" lon="1.70559">
        <ele>259</ele>
        <time>2013-03-02T15:42:25Z</time>
      </trkpt>
      <trkpt lat="44.07971" lon="1.70556">
        <ele>259</ele>
        <time>2013-03-02T15:42:28Z</time>
      </trkpt>
      <trkpt lat="44.07977" lon="1.70552">
        <ele>259</ele>
        <time>2013-03-02T15:42:30Z</time>
      </trkpt>
      <trkpt lat="44.07988" lon="1.70542">
        <ele>259</ele>
        <time>2013-03-02T15:42:33Z</time>
      </trkpt>
      <trkpt lat="44.07996" lon="1.70535">
        <ele>259</ele>
        <time>2013-03-02T15:42:35Z</time>
      </trkpt>
      <trkpt lat="44.07996" lon="1.7053">
        <ele>259</ele>
        <time>2013-03-02T15:42:38Z</time>
      </trkpt>
      <trkpt lat="44.07997" lon="1.70524">
        <ele>259</ele>
        <time>2013-03-02T15:42:40Z</time>
      </trkpt>
      <trkpt lat="44.07996" lon="1.7052">
        <ele>259</ele>
        <time>2013-03-02T15:42:43Z</time>
      </trkpt>
      <trkpt lat="44.0799" lon="1.7051">
        <ele>259</ele>
        <time>2013-03-02T15:42:45Z</time>
      </trkpt>
      <trkpt lat="44.07986" lon="1.70502">
        <ele>259</ele>
        <time>2013-03-02T15:42:47Z</time>
      </trkpt>
      <trkpt lat="44.07984" lon="1.70494">
        <ele>259</ele>
        <time>2013-03-02T15:42:49Z</time>
      </trkpt>
      <trkpt lat="44.07981" lon="1.70487">
        <ele>259</ele>
        <time>2013-03-02T15:42:51Z</time>
      </trkpt>
      <trkpt lat="44.0798" lon="1.7048">
        <ele>259</ele>
        <time>2013-03-02T15:42:53Z</time>
      </trkpt>
      <trkpt lat="44.07976" lon="1.70476">
        <ele>259</ele>
        <time>2013-03-02T15:42:55Z</time>
      </trkpt>
      <trkpt lat="44.07972" lon="1.7047">
        <ele>259</ele>
        <time>2013-03-02T15:42:57Z</time>
      </trkpt>
      <trkpt lat="44.07969" lon="1.70465">
        <ele>259</ele>
        <time>2013-03-02T15:42:59Z</time>
      </trkpt>
      <trkpt lat="44.07965" lon="1.70459">
        <ele>259</ele>
        <time>2013-03-02T15:43:01Z</time>
      </trkpt>
      <trkpt lat="44.07962" lon="1.70452">
        <ele>259</ele>
        <time>2013-03-02T15:43:03Z</time>
      </trkpt>
      <trkpt lat="44.07957" lon="1.70443">
        <ele>259</ele>
        <time>2013-03-02T15:43:05Z</time>
      </trkpt>
      <trkpt lat="44.07953" lon="1.70433">
        <ele>259</ele>
        <time>2013-03-02T15:43:08Z</time>
      </trkpt>
      <trkpt lat="44.07946" lon="1.70421">
        <ele>259</ele>
        <time>2013-03-02T15:43:10Z</time>
      </trkpt>
      <trkpt lat="44.07943" lon="1.70412">
        <ele>259</ele>
        <time>2013-03-02T15:43:12Z</time>
      </trkpt>
      <trkpt lat="44.0794" lon="1.70405">
        <ele>259</ele>
        <time>2013-03-02T15:43:14Z</time>
      </trkpt>
      <trkpt lat="44.07936" lon="1.70397">
        <ele>259</ele>
        <time>2013-03-02T15:43:16Z</time>
      </trkpt>
      <trkpt lat="44.07933" lon="1.7039">
        <ele>259</ele>
        <time>2013-03-02T15:43:18Z</time>
      </trkpt>
      <trkpt lat="44.07929" lon="1.70382">
        <ele>257</ele>
        <time>2013-03-02T15:43:20Z</time>
      </trkpt>
      <trkpt lat="44.07926" lon="1.70374">
        <ele>256</ele>
        <time>2013-03-02T15:43:23Z</time>
      </trkpt>
      <trkpt lat="44.07922" lon="1.70367">
        <ele>254</ele>
        <time>2013-03-02T15:43:25Z</time>
      </trkpt>
      <trkpt lat="44.0792" lon="1.70362">
        <ele>252</ele>
        <time>2013-03-02T15:43:27Z</time>
      </trkpt>
      <trkpt lat="44.07917" lon="1.70359">
        <ele>251</ele>
        <time>2013-03-02T15:43:30Z</time>
      </trkpt>
      <trkpt lat="44.0791" lon="1.70352">
        <ele>248</ele>
        <time>2013-03-02T15:43:32Z</time>
      </trkpt>
      <trkpt lat="44.07905" lon="1.70345">
        <ele>246</ele>
        <time>2013-03-02T15:43:34Z</time>
      </trkpt>
      <trkpt lat="44.07901" lon="1.70338">
        <ele>244</ele>
        <time>2013-03-02T15:43:36Z</time>
      </trkpt>
      <trkpt lat="44.07897" lon="1.70331">
        <ele>242</ele>
        <time>2013-03-02T15:43:38Z</time>
      </trkpt>
      <trkpt lat="44.07893" lon="1.70325">
        <ele>240</ele>
        <time>2013-03-02T15:43:40Z</time>
      </trkpt>
      <trkpt lat="44.0789" lon="1.70321">
        <ele>238</ele>
        <time>2013-03-02T15:43:43Z</time>
      </trkpt>
      <trkpt lat="44.07883" lon="1.70314">
        <ele>235</ele>
        <time>2013-03-02T15:43:45Z</time>
      </trkpt>
      <trkpt lat="44.07883" lon="1.70306">
        <ele>233</ele>
        <time>2013-03-02T15:43:47Z</time>
      </trkpt>
      <trkpt lat="44.07883" lon="1.70299">
        <ele>231</ele>
        <time>2013-03-02T15:43:49Z</time>
      </trkpt>
      <trkpt lat="44.0788" lon="1.7029">
        <ele>229</ele>
        <time>2013-03-02T15:43:51Z</time>
      </trkpt>
      <trkpt lat="44.07877" lon="1.70281">
        <ele>227</ele>
        <time>2013-03-02T15:43:53Z</time>
      </trkpt>
      <trkpt lat="44.07875" lon="1.70272">
        <ele>225</ele>
        <time>2013-03-02T15:43:55Z</time>
      </trkpt>
      <trkpt lat="44.07875" lon="1.70264">
        <ele>224</ele>
        <time>2013-03-02T15:43:58Z</time>
      </trkpt>
      <trkpt lat="44.07875" lon="1.70249">
        <ele>222</ele>
        <time>2013-03-02T15:44:00Z</time>
      </trkpt>
      <trkpt lat="44.07873" lon="1.70238">
        <ele>220</ele>
        <time>2013-03-02T15:44:03Z</time>
      </trkpt>
      <trkpt lat="44.07871" lon="1.7022">
        <ele>217</ele>
        <time>2013-03-02T15:44:05Z</time>
      </trkpt>
      <trkpt lat="44.07868" lon="1.70209">
        <ele>215</ele>
        <time>2013-03-02T15:44:07Z</time>
      </trkpt>
      <trkpt lat="44.07862" lon="1.70199">
        <ele>214</ele>
        <time>2013-03-02T15:44:09Z</time>
      </trkpt>
      <trkpt lat="44.07857" lon="1.70191">
        <ele>213</ele>
        <time>2013-03-02T15:44:11Z</time>
      </trkpt>
      <trkpt lat="44.07853" lon="1.70181">
        <ele>211</ele>
        <time>2013-03-02T15:44:13Z</time>
      </trkpt>
      <trkpt lat="44.07848" lon="1.70171">
        <ele>209</ele>
        <time>2013-03-02T15:44:15Z</time>
      </trkpt>
      <trkpt lat="44.07845" lon="1.70161">
        <ele>207</ele>
        <time>2013-03-02T15:44:17Z</time>
      </trkpt>
      <trkpt lat="44.07842" lon="1.70151">
        <ele>205</ele>
        <time>2013-03-02T15:44:19Z</time>
      </trkpt>
      <trkpt lat="44.07841" lon="1.70139">
        <ele>203</ele>
        <time>2013-03-02T15:44:21Z</time>
      </trkpt>
      <trkpt lat="44.07838" lon="1.70128">
        <ele>201</ele>
        <time>2013-03-02T15:44:23Z</time>
      </trkpt>
      <trkpt lat="44.07838" lon="1.70118">
        <ele>199</ele>
        <time>2013-03-02T15:44:25Z</time>
      </trkpt>
      <trkpt lat="44.07836" lon="1.70105">
        <ele>197</ele>
        <time>2013-03-02T15:44:27Z</time>
      </trkpt>
      <trkpt lat="44.07834" lon="1.70092">
        <ele>195</ele>
        <time>2013-03-02T15:44:30Z</time>
      </trkpt>
      <trkpt lat="44.07828" lon="1.70074">
        <ele>192</ele>
        <time>2013-03-02T15:44:32Z</time>
      </trkpt>
      <trkpt lat="44.07822" lon="1.70065">
        <ele>191</ele>
        <time>2013-03-02T15:44:34Z</time>
      </trkpt>
      <trkpt lat="44.07814" lon="1.7006">
        <ele>190</ele>
        <time>2013-03-02T15:44:36Z</time>
      </trkpt>
      <trkpt lat="44.07805" lon="1.70053">
        <ele>189</ele>
        <time>2013-03-02T15:44:38Z</time>
      </trkpt>
      <trkpt lat="44.07798" lon="1.70045">
        <ele>188</ele>
        <time>2013-03-02T15:44:40Z</time>
      </trkpt>
      <trkpt lat="44.07792" lon="1.70036">
        <ele>187</ele>
        <time>2013-03-02T15:44:42Z</time>
      </trkpt>
      <trkpt lat="44.07787" lon="1.70027">
        <ele>185</ele>
        <time>2013-03-02T15:44:44Z</time>
      </trkpt>
      <trkpt lat="44.07784" lon="1.70013">
        <ele>184</ele>
        <time>2013-03-02T15:44:46Z</time>
      </trkpt>
      <trkpt lat="44.07782" lon="1.69998">
        <ele>183</ele>
        <time>2013-03-02T15:44:48Z</time>
      </trkpt>
      <trkpt lat="44.07779" lon="1.69984">
        <ele>183</ele>
        <time>2013-03-02T15:44:50Z</time>
      </trkpt>
      <trkpt lat="44.07773" lon="1.69972">
        <ele>181</ele>
        <time>2013-03-02T15:44:52Z</time>
      </trkpt>
      <trkpt lat="44.07767" lon="1.6996">
        <ele>180</ele>
        <time>2013-03-02T15:44:54Z</time>
      </trkpt>
      <trkpt lat="44.07761" lon="1.69947">
        <ele>180</ele>
        <time>2013-03-02T15:44:56Z</time>
      </trkpt>
      <trkpt lat="44.07756" lon="1.69933">
        <ele>180</ele>
        <time>2013-03-02T15:44:58Z</time>
      </trkpt>
      <trkpt lat="44.07753" lon="1.69919">
        <ele>179</ele>
        <time>2013-03-02T15:45:00Z</time>
      </trkpt>
      <trkpt lat="44.07752" lon="1.69905">
        <ele>178</ele>
        <time>2013-03-02T15:45:03Z</time>
      </trkpt>
      <trkpt lat="44.07751" lon="1.69889">
        <ele>176</ele>
        <time>2013-03-02T15:45:05Z</time>
      </trkpt>
      <trkpt lat="44.07754" lon="1.6988">
        <ele>175</ele>
        <time>2013-03-02T15:45:07Z</time>
      </trkpt>
      <trkpt lat="44.07753" lon="1.69871">
        <ele>175</ele>
        <time>2013-03-02T15:45:09Z</time>
      </trkpt>
      <trkpt lat="44.07751" lon="1.69865">
        <ele>175</ele>
        <time>2013-03-02T15:45:11Z</time>
      </trkpt>
      <trkpt lat="44.07751" lon="1.69861">
        <ele>175</ele>
        <time>2013-03-02T15:45:13Z</time>
      </trkpt>
      <trkpt lat="44.07755" lon="1.69859">
        <ele>175</ele>
        <time>2013-03-02T15:45:15Z</time>
      </trkpt>
      <trkpt lat="44.07759" lon="1.69857">
        <ele>175</ele>
        <time>2013-03-02T15:45:17Z</time>
      </trkpt>
      <trkpt lat="44.07763" lon="1.69854">
        <ele>173</ele>
        <time>2013-03-02T15:45:19Z</time>
      </trkpt>
      <trkpt lat="44.07768" lon="1.69851">
        <ele>172</ele>
        <time>2013-03-02T15:45:21Z</time>
      </trkpt>
      <trkpt lat="44.07773" lon="1.69847">
        <ele>172</ele>
        <time>2013-03-02T15:45:23Z</time>
      </trkpt>
      <trkpt lat="44.07779" lon="1.69843">
        <ele>172</ele>
        <time>2013-03-02T15:45:25Z</time>
      </trkpt>
      <trkpt lat="44.07784" lon="1.6984">
        <ele>172</ele>
        <time>2013-03-02T15:45:27Z</time>
      </trkpt>
      <trkpt lat="44.0779" lon="1.69835">
        <ele>172</ele>
        <time>2013-03-02T15:45:30Z</time>
      </trkpt>
      <trkpt lat="44.07799" lon="1.69828">
        <ele>172</ele>
        <time>2013-03-02T15:45:32Z</time>
      </trkpt>
      <trkpt lat="44.07805" lon="1.69825">
        <ele>172</ele>
        <time>2013-03-02T15:45:34Z</time>
      </trkpt>
      <trkpt lat="44.0781" lon="1.69822">
        <ele>172</ele>
        <time>2013-03-02T15:45:36Z</time>
      </trkpt>
      <trkpt lat="44.07816" lon="1.69819">
        <ele>172</ele>
        <time>2013-03-02T15:45:38Z</time>
      </trkpt>
      <trkpt lat="44.0782" lon="1.69816">
        <ele>172</ele>
        <time>2013-03-02T15:45:40Z</time>
      </trkpt>
      <trkpt lat="44.07823" lon="1.69815">
        <ele>172</ele>
        <time>2013-03-02T15:45:42Z</time>
      </trkpt>
      <trkpt lat="44.07829" lon="1.69812">
        <ele>172</ele>
        <time>2013-03-02T15:45:44Z</time>
      </trkpt>
      <trkpt lat="44.07834" lon="1.69809">
        <ele>172</ele>
        <time>2013-03-02T15:45:46Z</time>
      </trkpt>
      <trkpt lat="44.07839" lon="1.69805">
        <ele>172</ele>
        <time>2013-03-02T15:45:48Z</time>
      </trkpt>
      <trkpt lat="44.07844" lon="1.69804">
        <ele>173</ele>
        <time>2013-03-02T15:45:50Z</time>
      </trkpt>
      <trkpt lat="44.07848" lon="1.69801">
        <ele>174</ele>
        <time>2013-03-02T15:45:52Z</time>
      </trkpt>
      <trkpt lat="44.07853" lon="1.69799">
        <ele>174</ele>
        <time>2013-03-02T15:45:54Z</time>
      </trkpt>
      <trkpt lat="44.07858" lon="1.69797">
        <ele>174</ele>
        <time>2013-03-02T15:45:56Z</time>
      </trkpt>
      <trkpt lat="44.07862" lon="1.69796">
        <ele>174</ele>
        <time>2013-03-02T15:45:58Z</time>
      </trkpt>
      <trkpt lat="44.07866" lon="1.69795">
        <ele>174</ele>
        <time>2013-03-02T15:46:00Z</time>
      </trkpt>
      <trkpt lat="44.0787" lon="1.69794">
        <ele>174</ele>
        <time>2013-03-02T15:46:02Z</time>
      </trkpt>
      <trkpt lat="44.07874" lon="1.69794">
        <ele>174</ele>
        <time>2013-03-02T15:46:04Z</time>
      </trkpt>
      <trkpt lat="44.07879" lon="1.69794">
        <ele>174</ele>
        <time>2013-03-02T15:46:06Z</time>
      </trkpt>
      <trkpt lat="44.07884" lon="1.69795">
        <ele>175</ele>
        <time>2013-03-02T15:46:08Z</time>
      </trkpt>
      <trkpt lat="44.07888" lon="1.69796">
        <ele>176</ele>
        <time>2013-03-02T15:46:10Z</time>
      </trkpt>
      <trkpt lat="44.07893" lon="1.69797">
        <ele>177</ele>
        <time>2013-03-02T15:46:12Z</time>
      </trkpt>
      <trkpt lat="44.07897" lon="1.69798">
        <ele>179</ele>
        <time>2013-03-02T15:46:14Z</time>
      </trkpt>
      <trkpt lat="44.07902" lon="1.69799">
        <ele>181</ele>
        <time>2013-03-02T15:46:16Z</time>
      </trkpt>
      <trkpt lat="44.07907" lon="1.69799">
        <ele>182</ele>
        <time>2013-03-02T15:46:18Z</time>
      </trkpt>
      <trkpt lat="44.07912" lon="1.69798">
        <ele>183</ele>
        <time>2013-03-02T15:46:20Z</time>
      </trkpt>
      <trkpt lat="44.07917" lon="1.69797">
        <ele>183</ele>
        <time>2013-03-02T15:46:22Z</time>
      </trkpt>
      <trkpt lat="44.07921" lon="1.69797">
        <ele>183</ele>
        <time>2013-03-02T15:46:24Z</time>
      </trkpt>
      <trkpt lat="44.07926" lon="1.69796">
        <ele>183</ele>
        <time>2013-03-02T15:46:26Z</time>
      </trkpt>
      <trkpt lat="44.0793" lon="1.69796">
        <ele>183</ele>
        <time>2013-03-02T15:46:28Z</time>
      </trkpt>
      <trkpt lat="44.07934" lon="1.69796">
        <ele>183</ele>
        <time>2013-03-02T15:46:30Z</time>
      </trkpt>
      <trkpt lat="44.07938" lon="1.69796">
        <ele>183</ele>
        <time>2013-03-02T15:46:32Z</time>
      </trkpt>
      <trkpt lat="44.07942" lon="1.69796">
        <ele>183</ele>
        <time>2013-03-02T15:46:34Z</time>
      </trkpt>
      <trkpt lat="44.07946" lon="1.69797">
        <ele>183</ele>
        <time>2013-03-02T15:46:36Z</time>
      </trkpt>
      <trkpt lat="44.0795" lon="1.69796">
        <ele>183</ele>
        <time>2013-03-02T15:46:38Z</time>
      </trkpt>
      <trkpt lat="44.07954" lon="1.69798">
        <ele>183</ele>
        <time>2013-03-02T15:46:40Z</time>
      </trkpt>
      <trkpt lat="44.07958" lon="1.69801">
        <ele>183</ele>
        <time>2013-03-02T15:46:42Z</time>
      </trkpt>
      <trkpt lat="44.07962" lon="1.69804">
        <ele>183</ele>
        <time>2013-03-02T15:46:44Z</time>
      </trkpt>
      <trkpt lat="44.07966" lon="1.69807">
        <ele>184</ele>
        <time>2013-03-02T15:46:46Z</time>
      </trkpt>
      <trkpt lat="44.07971" lon="1.69808">
        <ele>186</ele>
        <time>2013-03-02T15:46:48Z</time>
      </trkpt>
      <trkpt lat="44.07975" lon="1.6981">
        <ele>187</ele>
        <time>2013-03-02T15:46:50Z</time>
      </trkpt>
      <trkpt lat="44.07979" lon="1.69811">
        <ele>189</ele>
        <time>2013-03-02T15:46:52Z</time>
      </trkpt>
      <trkpt lat="44.07985" lon="1.69811">
        <ele>190</ele>
        <time>2013-03-02T15:46:54Z</time>
      </trkpt>
      <trkpt lat="44.07989" lon="1.69811">
        <ele>191</ele>
        <time>2013-03-02T15:46:56Z</time>
      </trkpt>
      <trkpt lat="44.07993" lon="1.69812">
        <ele>191</ele>
        <time>2013-03-02T15:46:58Z</time>
      </trkpt>
      <trkpt lat="44.07998" lon="1.69812">
        <ele>192</ele>
        <time>2013-03-02T15:47:00Z</time>
      </trkpt>
      <trkpt lat="44.08002" lon="1.69812">
        <ele>193</ele>
        <time>2013-03-02T15:47:02Z</time>
      </trkpt>
      <trkpt lat="44.08006" lon="1.69813">
        <ele>193</ele>
        <time>2013-03-02T15:47:04Z</time>
      </trkpt>
      <trkpt lat="44.08011" lon="1.69811">
        <ele>194</ele>
        <time>2013-03-02T15:47:06Z</time>
      </trkpt>
      <trkpt lat="44.08016" lon="1.6981">
        <ele>194</ele>
        <time>2013-03-02T15:47:08Z</time>
      </trkpt>
      <trkpt lat="44.08021" lon="1.6981">
        <ele>194</ele>
        <time>2013-03-02T15:47:10Z</time>
      </trkpt>
      <trkpt lat="44.08025" lon="1.69812">
        <ele>194</ele>
        <time>2013-03-02T15:47:12Z</time>
      </trkpt>
      <trkpt lat="44.0803" lon="1.69813">
        <ele>194</ele>
        <time>2013-03-02T15:47:14Z</time>
      </trkpt>
      <trkpt lat="44.08034" lon="1.69816">
        <ele>194</ele>
        <time>2013-03-02T15:47:16Z</time>
      </trkpt>
      <trkpt lat="44.08038" lon="1.69818">
        <ele>194</ele>
        <time>2013-03-02T15:47:18Z</time>
      </trkpt>
      <trkpt lat="44.08041" lon="1.69821">
        <ele>194</ele>
        <time>2013-03-02T15:47:20Z</time>
      </trkpt>
      <trkpt lat="44.08045" lon="1.69824">
        <ele>194</ele>
        <time>2013-03-02T15:47:22Z</time>
      </trkpt>
      <trkpt lat="44.08048" lon="1.69827">
        <ele>194</ele>
        <time>2013-03-02T15:47:24Z</time>
      </trkpt>
      <trkpt lat="44.08052" lon="1.6983">
        <ele>195</ele>
        <time>2013-03-02T15:47:26Z</time>
      </trkpt>
      <trkpt lat="44.08055" lon="1.69833">
        <ele>195</ele>
        <time>2013-03-02T15:47:28Z</time>
      </trkpt>
      <trkpt lat="44.08058" lon="1.69836">
        <ele>196</ele>
        <time>2013-03-02T15:47:30Z</time>
      </trkpt>
      <trkpt lat="44.08062" lon="1.6984">
        <ele>197</ele>
        <time>2013-03-02T15:47:32Z</time>
      </trkpt>
      <trkpt lat="44.08065" lon="1.69842">
        <ele>199</ele>
        <time>2013-03-02T15:47:34Z</time>
      </trkpt>
      <trkpt lat="44.08069" lon="1.69845">
        <ele>201</ele>
        <time>2013-03-02T15:47:36Z</time>
      </trkpt>
      <trkpt lat="44.08073" lon="1.69849">
        <ele>203</ele>
        <time>2013-03-02T15:47:38Z</time>
      </trkpt>
      <trkpt lat="44.08076" lon="1.69852">
        <ele>204</ele>
        <time>2013-03-02T15:47:40Z</time>
      </trkpt>
      <trkpt lat="44.08078" lon="1.69855">
        <ele>205</ele>
        <time>2013-03-02T15:47:42Z</time>
      </trkpt>
      <trkpt lat="44.08082" lon="1.69859">
        <ele>205</ele>
        <time>2013-03-02T15:47:44Z</time>
      </trkpt>
      <trkpt lat="44.08085" lon="1.69863">
        <ele>205</ele>
        <time>2013-03-02T15:47:46Z</time>
      </trkpt>
      <trkpt lat="44.08088" lon="1.69867">
        <ele>206</ele>
        <time>2013-03-02T15:47:48Z</time>
      </trkpt>
      <trkpt lat="44.08091" lon="1.69871">
        <ele>206</ele>
        <time>2013-03-02T15:47:50Z</time>
      </trkpt>
      <trkpt lat="44.08093" lon="1.69875">
        <ele>207</ele>
        <time>2013-03-02T15:47:52Z</time>
      </trkpt>
      <trkpt lat="44.08096" lon="1.69879">
        <ele>208</ele>
        <time>2013-03-02T15:47:54Z</time>
      </trkpt>
      <trkpt lat="44.08098" lon="1.69883">
        <ele>208</ele>
        <time>2013-03-02T15:47:56Z</time>
      </trkpt>
      <trkpt lat="44.08101" lon="1.69886">
        <ele>208</ele>
        <time>2013-03-02T15:47:58Z</time>
      </trkpt>
      <trkpt lat="44.08104" lon="1.69889">
        <ele>208</ele>
        <time>2013-03-02T15:48:00Z</time>
      </trkpt>
      <trkpt lat="44.08106" lon="1.69892">
        <ele>208</ele>
        <time>2013-03-02T15:48:02Z</time>
      </trkpt>
      <trkpt lat="44.08109" lon="1.69896">
        <ele>208</ele>
        <time>2013-03-02T15:48:04Z</time>
      </trkpt>
      <trkpt lat="44.08112" lon="1.699">
        <ele>208</ele>
        <time>2013-03-02T15:48:06Z</time>
      </trkpt>
      <trkpt lat="44.08115" lon="1.69904">
        <ele>208</ele>
        <time>2013-03-02T15:48:08Z</time>
      </trkpt>
      <trkpt lat="44.08118" lon="1.69908">
        <ele>209</ele>
        <time>2013-03-02T15:48:10Z</time>
      </trkpt>
      <trkpt lat="44.0812" lon="1.69911">
        <ele>209</ele>
        <time>2013-03-02T15:48:12Z</time>
      </trkpt>
      <trkpt lat="44.08123" lon="1.69915">
        <ele>209</ele>
        <time>2013-03-02T15:48:14Z</time>
      </trkpt>
      <trkpt lat="44.08126" lon="1.69918">
        <ele>209</ele>
        <time>2013-03-02T15:48:16Z</time>
      </trkpt>
      <trkpt lat="44.08129" lon="1.69921">
        <ele>209</ele>
        <time>2013-03-02T15:48:18Z</time>
      </trkpt>
      <trkpt lat="44.08132" lon="1.69924">
        <ele>209</ele>
        <time>2013-03-02T15:48:20Z</time>
      </trkpt>
      <trkpt lat="44.08134" lon="1.69926">
        <ele>210</ele>
        <time>2013-03-02T15:48:22Z</time>
      </trkpt>
      <trkpt lat="44.08138" lon="1.6993">
        <ele>210</ele>
        <time>2013-03-02T15:48:24Z</time>
      </trkpt>
      <trkpt lat="44.08141" lon="1.69933">
        <ele>212</ele>
        <time>2013-03-02T15:48:26Z</time>
      </trkpt>
      <trkpt lat="44.08144" lon="1.69935">
        <ele>213</ele>
        <time>2013-03-02T15:48:28Z</time>
      </trkpt>
      <trkpt lat="44.08148" lon="1.69938">
        <ele>215</ele>
        <time>2013-03-02T15:48:30Z</time>
      </trkpt>
      <trkpt lat="44.08151" lon="1.6994">
        <ele>215</ele>
        <time>2013-03-02T15:48:32Z</time>
      </trkpt>
      <trkpt lat="44.08154" lon="1.69941">
        <ele>215</ele>
        <time>2013-03-02T15:48:34Z</time>
      </trkpt>
      <trkpt lat="44.08157" lon="1.69943">
        <ele>215</ele>
        <time>2013-03-02T15:48:36Z</time>
      </trkpt>
      <trkpt lat="44.08161" lon="1.69943">
        <ele>215</ele>
        <time>2013-03-02T15:48:38Z</time>
      </trkpt>
      <trkpt lat="44.08165" lon="1.69944">
        <ele>215</ele>
        <time>2013-03-02T15:48:40Z</time>
      </trkpt>
      <trkpt lat="44.08168" lon="1.69944">
        <ele>215</ele>
        <time>2013-03-02T15:48:42Z</time>
      </trkpt>
      <trkpt lat="44.08171" lon="1.69944">
        <ele>215</ele>
        <time>2013-03-02T15:48:44Z</time>
      </trkpt>
      <trkpt lat="44.08175" lon="1.69943">
        <ele>215</ele>
        <time>2013-03-02T15:48:46Z</time>
      </trkpt>
      <trkpt lat="44.08179" lon="1.69942">
        <ele>215</ele>
        <time>2013-03-02T15:48:48Z</time>
      </trkpt>
      <trkpt lat="44.08183" lon="1.6994">
        <ele>215</ele>
        <time>2013-03-02T15:48:50Z</time>
      </trkpt>
      <trkpt lat="44.08187" lon="1.69937">
        <ele>217</ele>
        <time>2013-03-02T15:48:52Z</time>
      </trkpt>
      <trkpt lat="44.0819" lon="1.69933">
        <ele>218</ele>
        <time>2013-03-02T15:48:54Z</time>
      </trkpt>
      <trkpt lat="44.08193" lon="1.69929">
        <ele>220</ele>
        <time>2013-03-02T15:48:56Z</time>
      </trkpt>
      <trkpt lat="44.08196" lon="1.69925">
        <ele>221</ele>
        <time>2013-03-02T15:48:58Z</time>
      </trkpt>
      <trkpt lat="44.08198" lon="1.69921">
        <ele>222</ele>
        <time>2013-03-02T15:49:00Z</time>
      </trkpt>
      <trkpt lat="44.082" lon="1.69917">
        <ele>223</ele>
        <time>2013-03-02T15:49:02Z</time>
      </trkpt>
      <trkpt lat="44.08201" lon="1.69913">
        <ele>224</ele>
        <time>2013-03-02T15:49:04Z</time>
      </trkpt>
      <trkpt lat="44.08203" lon="1.6991">
        <ele>224</ele>
        <time>2013-03-02T15:49:06Z</time>
      </trkpt>
      <trkpt lat="44.08206" lon="1.6991">
        <ele>225</ele>
        <time>2013-03-02T15:49:08Z</time>
      </trkpt>
      <trkpt lat="44.08209" lon="1.69909">
        <ele>225</ele>
        <time>2013-03-02T15:49:10Z</time>
      </trkpt>
      <trkpt lat="44.08212" lon="1.6991">
        <ele>225</ele>
        <time>2013-03-02T15:49:12Z</time>
      </trkpt>
      <trkpt lat="44.08215" lon="1.69911">
        <ele>226</ele>
        <time>2013-03-02T15:49:14Z</time>
      </trkpt>
      <trkpt lat="44.08218" lon="1.69911">
        <ele>227</ele>
        <time>2013-03-02T15:49:16Z</time>
      </trkpt>
      <trkpt lat="44.08221" lon="1.69911">
        <ele>228</ele>
        <time>2013-03-02T15:49:18Z</time>
      </trkpt>
      <trkpt lat="44.08224" lon="1.6991">
        <ele>229</ele>
        <time>2013-03-02T15:49:20Z</time>
      </trkpt>
      <trkpt lat="44.08228" lon="1.69908">
        <ele>229</ele>
        <time>2013-03-02T15:49:22Z</time>
      </trkpt>
      <trkpt lat="44.08231" lon="1.69907">
        <ele>230</ele>
        <time>2013-03-02T15:49:24Z</time>
      </trkpt>
      <trkpt lat="44.08234" lon="1.69906">
        <ele>230</ele>
        <time>2013-03-02T15:49:26Z</time>
      </trkpt>
      <trkpt lat="44.08237" lon="1.69904">
        <ele>231</ele>
        <time>2013-03-02T15:49:28Z</time>
      </trkpt>
      <trkpt lat="44.08241" lon="1.69903">
        <ele>232</ele>
        <time>2013-03-02T15:49:30Z</time>
      </trkpt>
      <trkpt lat="44.08244" lon="1.69902">
        <ele>233</ele>
        <time>2013-03-02T15:49:32Z</time>
      </trkpt>
      <trkpt lat="44.08247" lon="1.699">
        <ele>233</ele>
        <time>2013-03-02T15:49:34Z</time>
      </trkpt>
      <trkpt lat="44.08251" lon="1.69899">
        <ele>234</ele>
        <time>2013-03-02T15:49:36Z</time>
      </trkpt>
      <trkpt lat="44.08254" lon="1.69897">
        <ele>234</ele>
        <time>2013-03-02T15:49:38Z</time>
      </trkpt>
      <trkpt lat="44.08257" lon="1.69896">
        <ele>235</ele>
        <time>2013-03-02T15:49:40Z</time>
      </trkpt>
      <trkpt lat="44.08261" lon="1.69894">
        <ele>235</ele>
        <time>2013-03-02T15:49:42Z</time>
      </trkpt>
      <trkpt lat="44.08264" lon="1.69891">
        <ele>236</ele>
        <time>2013-03-02T15:49:44Z</time>
      </trkpt>
      <trkpt lat="44.08268" lon="1.69888">
        <ele>236</ele>
        <time>2013-03-02T15:49:46Z</time>
      </trkpt>
      <trkpt lat="44.08271" lon="1.69885">
        <ele>237</ele>
        <time>2013-03-02T15:49:48Z</time>
      </trkpt>
      <trkpt lat="44.08273" lon="1.69881">
        <ele>237</ele>
        <time>2013-03-02T15:49:50Z</time>
      </trkpt>
      <trkpt lat="44.08275" lon="1.69877">
        <ele>238</ele>
        <time>2013-03-02T15:49:52Z</time>
      </trkpt>
      <trkpt lat="44.08278" lon="1.69873">
        <ele>238</ele>
        <time>2013-03-02T15:49:54Z</time>
      </trkpt>
      <trkpt lat="44.08279" lon="1.69869">
        <ele>239</ele>
        <time>2013-03-02T15:49:56Z</time>
      </trkpt>
      <trkpt lat="44.08282" lon="1.69864">
        <ele>239</ele>
        <time>2013-03-02T15:49:58Z</time>
      </trkpt>
      <trkpt lat="44.08284" lon="1.6986">
        <ele>240</ele>
        <time>2013-03-02T15:50:00Z</time>
      </trkpt>
      <trkpt lat="44.08286" lon="1.69856">
        <ele>240</ele>
        <time>2013-03-02T15:50:02Z</time>
      </trkpt>
      <trkpt lat="44.08289" lon="1.69852">
        <ele>241</ele>
        <time>2013-03-02T15:50:04Z</time>
      </trkpt>
      <trkpt lat="44.08292" lon="1.69848">
        <ele>241</ele>
        <time>2013-03-02T15:50:06Z</time>
      </trkpt>
      <trkpt lat="44.08295" lon="1.69844">
        <ele>241</ele>
        <time>2013-03-02T15:50:08Z</time>
      </trkpt>
      <trkpt lat="44.08298" lon="1.69841">
        <ele>242</ele>
        <time>2013-03-02T15:50:10Z</time>
      </trkpt>
      <trkpt lat="44.08302" lon="1.69837">
        <ele>242</ele>
        <time>2013-03-02T15:50:12Z</time>
      </trkpt>
      <trkpt lat="44.08305" lon="1.69834">
        <ele>242</ele>
        <time>2013-03-02T15:50:14Z</time>
      </trkpt>
      <trkpt lat="44.08309" lon="1.69829">
        <ele>243</ele>
        <time>2013-03-02T15:50:16Z</time>
      </trkpt>
      <trkpt lat="44.08312" lon="1.69824">
        <ele>243</ele>
        <time>2013-03-02T15:50:18Z</time>
      </trkpt>
      <trkpt lat="44.08314" lon="1.69819">
        <ele>243</ele>
        <time>2013-03-02T15:50:20Z</time>
      </trkpt>
      <trkpt lat="44.08317" lon="1.69814">
        <ele>244</ele>
        <time>2013-03-02T15:50:22Z</time>
      </trkpt>
      <trkpt lat="44.0832" lon="1.69809">
        <ele>244</ele>
        <time>2013-03-02T15:50:24Z</time>
      </trkpt>
      <trkpt lat="44.08323" lon="1.69804">
        <ele>244</ele>
        <time>2013-03-02T15:50:26Z</time>
      </trkpt>
      <trkpt lat="44.08325" lon="1.69799">
        <ele>245</ele>
        <time>2013-03-02T15:50:28Z</time>
      </trkpt>
      <trkpt lat="44.08327" lon="1.69793">
        <ele>245</ele>
        <time>2013-03-02T15:50:30Z</time>
      </trkpt>
      <trkpt lat="44.08329" lon="1.69788">
        <ele>246</ele>
        <time>2013-03-02T15:50:32Z</time>
      </trkpt>
      <trkpt lat="44.08331" lon="1.69782">
        <ele>246</ele>
        <time>2013-03-02T15:50:34Z</time>
      </trkpt>
      <trkpt lat="44.08333" lon="1.69776">
        <ele>246</ele>
        <time>2013-03-02T15:50:36Z</time>
      </trkpt>
      <trkpt lat="44.08335" lon="1.69771">
        <ele>246</ele>
        <time>2013-03-02T15:50:38Z</time>
      </trkpt>
      <trkpt lat="44.08337" lon="1.69765">
        <ele>247</ele>
        <time>2013-03-02T15:50:40Z</time>
      </trkpt>
      <trkpt lat="44.08339" lon="1.6976">
        <ele>247</ele>
        <time>2013-03-02T15:50:42Z</time>
      </trkpt>
      <trkpt lat="44.08341" lon="1.69753">
        <ele>248</ele>
        <time>2013-03-02T15:50:44Z</time>
      </trkpt>
      <trkpt lat="44.08342" lon="1.69747">
        <ele>248</ele>
        <time>2013-03-02T15:50:46Z</time>
      </trkpt>
      <trkpt lat="44.08342" lon="1.69741">
        <ele>249</ele>
        <time>2013-03-02T15:50:48Z</time>
      </trkpt>
      <trkpt lat="44.08343" lon="1.69735">
        <ele>249</ele>
        <time>2013-03-02T15:50:50Z</time>
      </trkpt>
      <trkpt lat="44.08345" lon="1.69729">
        <ele>249</ele>
        <time>2013-03-02T15:50:52Z</time>
      </trkpt>
      <trkpt lat="44.08347" lon="1.69723">
        <ele>250</ele>
        <time>2013-03-02T15:50:54Z</time>
      </trkpt>
      <trkpt lat="44.0835" lon="1.69717">
        <ele>250</ele>
        <time>2013-03-02T15:50:56Z</time>
      </trkpt>
      <trkpt lat="44.08353" lon="1.69712">
        <ele>251</ele>
        <time>2013-03-02T15:50:58Z</time>
      </trkpt>
      <trkpt lat="44.08356" lon="1.69707">
        <ele>251</ele>
        <time>2013-03-02T15:51:00Z</time>
      </trkpt>
      <trkpt lat="44.0836" lon="1.69701">
        <ele>252</ele>
        <time>2013-03-02T15:51:02Z</time>
      </trkpt>
      <trkpt lat="44.08364" lon="1.69695">
        <ele>252</ele>
        <time>2013-03-02T15:51:04Z</time>
      </trkpt>
      <trkpt lat="44.08368" lon="1.69689">
        <ele>252</ele>
        <time>2013-03-02T15:51:06Z</time>
      </trkpt>
      <trkpt lat="44.08372" lon="1.69682">
        <ele>252</ele>
        <time>2013-03-02T15:51:08Z</time>
      </trkpt>
      <trkpt lat="44.08375" lon="1.69675">
        <ele>252</ele>
        <time>2013-03-02T15:51:10Z</time>
      </trkpt>
      <trkpt lat="44.08379" lon="1.69668">
        <ele>252</ele>
        <time>2013-03-02T15:51:12Z</time>
      </trkpt>
      <trkpt lat="44.08381" lon="1.6966">
        <ele>253</ele>
        <time>2013-03-02T15:51:14Z</time>
      </trkpt>
      <trkpt lat="44.08384" lon="1.69653">
        <ele>253</ele>
        <time>2013-03-02T15:51:16Z</time>
      </trkpt>
      <trkpt lat="44.08387" lon="1.69646">
        <ele>253</ele>
        <time>2013-03-02T15:51:18Z</time>
      </trkpt>
      <trkpt lat="44.0839" lon="1.69639">
        <ele>254</ele>
        <time>2013-03-02T15:51:20Z</time>
      </trkpt>
      <trkpt lat="44.08393" lon="1.69632">
        <ele>254</ele>
        <time>2013-03-02T15:51:22Z</time>
      </trkpt>
      <trkpt lat="44.08396" lon="1.69624">
        <ele>254</ele>
        <time>2013-03-02T15:51:24Z</time>
      </trkpt>
      <trkpt lat="44.08399" lon="1.69617">
        <ele>254</ele>
        <time>2013-03-02T15:51:26Z</time>
      </trkpt>
      <trkpt lat="44.08403" lon="1.6961">
        <ele>254</ele>
        <time>2013-03-02T15:51:28Z</time>
      </trkpt>
      <trkpt lat="44.08407" lon="1.69603">
        <ele>254</ele>
        <time>2013-03-02T15:51:30Z</time>
      </trkpt>
      <trkpt lat="44.08411" lon="1.69597">
        <ele>254</ele>
        <time>2013-03-02T15:51:32Z</time>
      </trkpt>
      <trkpt lat="44.08416" lon="1.69591">
        <ele>254</ele>
        <time>2013-03-02T15:51:34Z</time>
      </trkpt>
      <trkpt lat="44.08421" lon="1.69585">
        <ele>254</ele>
        <time>2013-03-02T15:51:36Z</time>
      </trkpt>
      <trkpt lat="44.08425" lon="1.69579">
        <ele>255</ele>
        <time>2013-03-02T15:51:38Z</time>
      </trkpt>
      <trkpt lat="44.08428" lon="1.69573">
        <ele>255</ele>
        <time>2013-03-02T15:51:40Z</time>
      </trkpt>
      <trkpt lat="44.08432" lon="1.69568">
        <ele>256</ele>
        <time>2013-03-02T15:51:42Z</time>
      </trkpt>
      <trkpt lat="44.08435" lon="1.69563">
        <ele>256</ele>
        <time>2013-03-02T15:51:44Z</time>
      </trkpt>
      <trkpt lat="44.08438" lon="1.69559">
        <ele>257</ele>
        <time>2013-03-02T15:51:46Z</time>
      </trkpt>
      <trkpt lat="44.08443" lon="1.69555">
        <ele>257</ele>
        <time>2013-03-02T15:51:48Z</time>
      </trkpt>
      <trkpt lat="44.08446" lon="1.69551">
        <ele>257</ele>
        <time>2013-03-02T15:51:50Z</time>
      </trkpt>
      <trkpt lat="44.08449" lon="1.69546">
        <ele>257</ele>
        <time>2013-03-02T15:51:52Z</time>
      </trkpt>
      <trkpt lat="44.08452" lon="1.69541">
        <ele>257</ele>
        <time>2013-03-02T15:51:54Z</time>
      </trkpt>
      <trkpt lat="44.08453" lon="1.69536">
        <ele>258</ele>
        <time>2013-03-02T15:51:56Z</time>
      </trkpt>
      <trkpt lat="44.08454" lon="1.6953">
        <ele>259</ele>
        <time>2013-03-02T15:51:58Z</time>
      </trkpt>
      <trkpt lat="44.08453" lon="1.69525">
        <ele>260</ele>
        <time>2013-03-02T15:52:00Z</time>
      </trkpt>
      <trkpt lat="44.08449" lon="1.69519">
        <ele>260</ele>
        <time>2013-03-02T15:52:02Z</time>
      </trkpt>
      <trkpt lat="44.08445" lon="1.69514">
        <ele>261</ele>
        <time>2013-03-02T15:52:04Z</time>
      </trkpt>
      <trkpt lat="44.0844" lon="1.69509">
        <ele>261</ele>
        <time>2013-03-02T15:52:06Z</time>
      </trkpt>
      <trkpt lat="44.08436" lon="1.69503">
        <ele>261</ele>
        <time>2013-03-02T15:52:08Z</time>
      </trkpt>
      <trkpt lat="44.08431" lon="1.69498">
        <ele>261</ele>
        <time>2013-03-02T15:52:10Z</time>
      </trkpt>
      <trkpt lat="44.08427" lon="1.69492">
        <ele>261</ele>
        <time>2013-03-02T15:52:12Z</time>
      </trkpt>
      <trkpt lat="44.08422" lon="1.69486">
        <ele>261</ele>
        <time>2013-03-02T15:52:14Z</time>
      </trkpt>
      <trkpt lat="44.0842" lon="1.69478">
        <ele>261</ele>
        <time>2013-03-02T15:52:16Z</time>
      </trkpt>
      <trkpt lat="44.08417" lon="1.69472">
        <ele>262</ele>
        <time>2013-03-02T15:52:18Z</time>
      </trkpt>
      <trkpt lat="44.08414" lon="1.69465">
        <ele>262</ele>
        <time>2013-03-02T15:52:20Z</time>
      </trkpt>
      <trkpt lat="44.08412" lon="1.69458">
        <ele>263</ele>
        <time>2013-03-02T15:52:22Z</time>
      </trkpt>
      <trkpt lat="44.0841" lon="1.69451">
        <ele>263</ele>
        <time>2013-03-02T15:52:24Z</time>
      </trkpt>
      <trkpt lat="44.08408" lon="1.69444">
        <ele>264</ele>
        <time>2013-03-02T15:52:26Z</time>
      </trkpt>
      <trkpt lat="44.08405" lon="1.69437">
        <ele>265</ele>
        <time>2013-03-02T15:52:28Z</time>
      </trkpt>
      <trkpt lat="44.08402" lon="1.6943">
        <ele>265</ele>
        <time>2013-03-02T15:52:30Z</time>
      </trkpt>
      <trkpt lat="44.08398" lon="1.69424">
        <ele>266</ele>
        <time>2013-03-02T15:52:32Z</time>
      </trkpt>
      <trkpt lat="44.08395" lon="1.69418">
        <ele>266</ele>
        <time>2013-03-02T15:52:34Z</time>
      </trkpt>
      <trkpt lat="44.08392" lon="1.69412">
        <ele>267</ele>
        <time>2013-03-02T15:52:36Z</time>
      </trkpt>
      <trkpt lat="44.08389" lon="1.69406">
        <ele>267</ele>
        <time>2013-03-02T15:52:38Z</time>
      </trkpt>
      <trkpt lat="44.08384" lon="1.69401">
        <ele>268</ele>
        <time>2013-03-02T15:52:40Z</time>
      </trkpt>
      <trkpt lat="44.08381" lon="1.69395">
        <ele>268</ele>
        <time>2013-03-02T15:52:42Z</time>
      </trkpt>
      <trkpt lat="44.08378" lon="1.69388">
        <ele>268</ele>
        <time>2013-03-02T15:52:44Z</time>
      </trkpt>
      <trkpt lat="44.08374" lon="1.69383">
        <ele>269</ele>
        <time>2013-03-02T15:52:46Z</time>
      </trkpt>
      <trkpt lat="44.0837" lon="1.69378">
        <ele>269</ele>
        <time>2013-03-02T15:52:48Z</time>
      </trkpt>
      <trkpt lat="44.08367" lon="1.69371">
        <ele>270</ele>
        <time>2013-03-02T15:52:50Z</time>
      </trkpt>
      <trkpt lat="44.08366" lon="1.69364">
        <ele>270</ele>
        <time>2013-03-02T15:52:52Z</time>
      </trkpt>
      <trkpt lat="44.08365" lon="1.69356">
        <ele>271</ele>
        <time>2013-03-02T15:52:54Z</time>
      </trkpt>
      <trkpt lat="44.08366" lon="1.69348">
        <ele>271</ele>
        <time>2013-03-02T15:52:56Z</time>
      </trkpt>
      <trkpt lat="44.08367" lon="1.6934">
        <ele>272</ele>
        <time>2013-03-02T15:52:58Z</time>
      </trkpt>
      <trkpt lat="44.08367" lon="1.69332">
        <ele>272</ele>
        <time>2013-03-02T15:53:00Z</time>
      </trkpt>
      <trkpt lat="44.08368" lon="1.69323">
        <ele>272</ele>
        <time>2013-03-02T15:53:02Z</time>
      </trkpt>
      <trkpt lat="44.08369" lon="1.69315">
        <ele>272</ele>
        <time>2013-03-02T15:53:04Z</time>
      </trkpt>
      <trkpt lat="44.08369" lon="1.69307">
        <ele>273</ele>
        <time>2013-03-02T15:53:06Z</time>
      </trkpt>
      <trkpt lat="44.0837" lon="1.69299">
        <ele>273</ele>
        <time>2013-03-02T15:53:08Z</time>
      </trkpt>
      <trkpt lat="44.08372" lon="1.6929">
        <ele>273</ele>
        <time>2013-03-02T15:53:10Z</time>
      </trkpt>
      <trkpt lat="44.08373" lon="1.69283">
        <ele>273</ele>
        <time>2013-03-02T15:53:12Z</time>
      </trkpt>
      <trkpt lat="44.08374" lon="1.69275">
        <ele>273</ele>
        <time>2013-03-02T15:53:14Z</time>
      </trkpt>
      <trkpt lat="44.08375" lon="1.69268">
        <ele>273</ele>
        <time>2013-03-02T15:53:16Z</time>
      </trkpt>
      <trkpt lat="44.08376" lon="1.6926">
        <ele>273</ele>
        <time>2013-03-02T15:53:18Z</time>
      </trkpt>
      <trkpt lat="44.08378" lon="1.69252">
        <ele>273</ele>
        <time>2013-03-02T15:53:20Z</time>
      </trkpt>
      <trkpt lat="44.0838" lon="1.69242">
        <ele>273</ele>
        <time>2013-03-02T15:53:22Z</time>
      </trkpt>
      <trkpt lat="44.08381" lon="1.69231">
        <ele>273</ele>
        <time>2013-03-02T15:53:24Z</time>
      </trkpt>
      <trkpt lat="44.08383" lon="1.6922">
        <ele>273</ele>
        <time>2013-03-02T15:53:26Z</time>
      </trkpt>
      <trkpt lat="44.08385" lon="1.69209">
        <ele>273</ele>
        <time>2013-03-02T15:53:28Z</time>
      </trkpt>
      <trkpt lat="44.08387" lon="1.69198">
        <ele>273</ele>
        <time>2013-03-02T15:53:30Z</time>
      </trkpt>
      <trkpt lat="44.0839" lon="1.69187">
        <ele>273</ele>
        <time>2013-03-02T15:53:32Z</time>
      </trkpt>
      <trkpt lat="44.08392" lon="1.69176">
        <ele>273</ele>
        <time>2013-03-02T15:53:34Z</time>
      </trkpt>
      <trkpt lat="44.08395" lon="1.69164">
        <ele>273</ele>
        <time>2013-03-02T15:53:36Z</time>
      </trkpt>
      <trkpt lat="44.08397" lon="1.69152">
        <ele>273</ele>
        <time>2013-03-02T15:53:38Z</time>
      </trkpt>
      <trkpt lat="44.08398" lon="1.6914">
        <ele>273</ele>
        <time>2013-03-02T15:53:40Z</time>
      </trkpt>
      <trkpt lat="44.08399" lon="1.69128">
        <ele>273</ele>
        <time>2013-03-02T15:53:42Z</time>
      </trkpt>
      <trkpt lat="44.08399" lon="1.69116">
        <ele>272</ele>
        <time>2013-03-02T15:53:44Z</time>
      </trkpt>
      <trkpt lat="44.08398" lon="1.69103">
        <ele>272</ele>
        <time>2013-03-02T15:53:46Z</time>
      </trkpt>
      <trkpt lat="44.08396" lon="1.6909">
        <ele>271</ele>
        <time>2013-03-02T15:53:48Z</time>
      </trkpt>
      <trkpt lat="44.08398" lon="1.69078">
        <ele>271</ele>
        <time>2013-03-02T15:53:50Z</time>
      </trkpt>
      <trkpt lat="44.08403" lon="1.69066">
        <ele>271</ele>
        <time>2013-03-02T15:53:52Z</time>
      </trkpt>
      <trkpt lat="44.08407" lon="1.69055">
        <ele>271</ele>
        <time>2013-03-02T15:53:54Z</time>
      </trkpt>
      <trkpt lat="44.08409" lon="1.69044">
        <ele>270</ele>
        <time>2013-03-02T15:53:56Z</time>
      </trkpt>
      <trkpt lat="44.08411" lon="1.69032">
        <ele>270</ele>
        <time>2013-03-02T15:53:58Z</time>
      </trkpt>
      <trkpt lat="44.08413" lon="1.6902">
        <ele>269</ele>
        <time>2013-03-02T15:54:00Z</time>
      </trkpt>
      <trkpt lat="44.08415" lon="1.69012">
        <ele>269</ele>
        <time>2013-03-02T15:54:02Z</time>
      </trkpt>
      <trkpt lat="44.08418" lon="1.69004">
        <ele>269</ele>
        <time>2013-03-02T15:54:04Z</time>
      </trkpt>
      <trkpt lat="44.0842" lon="1.68995">
        <ele>269</ele>
        <time>2013-03-02T15:54:06Z</time>
      </trkpt>
      <trkpt lat="44.08421" lon="1.68985">
        <ele>269</ele>
        <time>2013-03-02T15:54:08Z</time>
      </trkpt>
      <trkpt lat="44.08417" lon="1.6898">
        <ele>269</ele>
        <time>2013-03-02T15:54:10Z</time>
      </trkpt>
      <trkpt lat="44.08411" lon="1.68976">
        <ele>269</ele>
        <time>2013-03-02T15:54:12Z</time>
      </trkpt>
      <trkpt lat="44.08404" lon="1.68969">
        <ele>269</ele>
        <time>2013-03-02T15:54:14Z</time>
      </trkpt>
      <trkpt lat="44.08397" lon="1.68963">
        <ele>268</ele>
        <time>2013-03-02T15:54:16Z</time>
      </trkpt>
      <trkpt lat="44.08389" lon="1.68956">
        <ele>268</ele>
        <time>2013-03-02T15:54:18Z</time>
      </trkpt>
      <trkpt lat="44.08381" lon="1.6895">
        <ele>268</ele>
        <time>2013-03-02T15:54:20Z</time>
      </trkpt>
      <trkpt lat="44.08372" lon="1.68944">
        <ele>268</ele>
        <time>2013-03-02T15:54:22Z</time>
      </trkpt>
      <trkpt lat="44.08362" lon="1.68939">
        <ele>268</ele>
        <time>2013-03-02T15:54:24Z</time>
      </trkpt>
      <trkpt lat="44.08353" lon="1.68935">
        <ele>268</ele>
        <time>2013-03-02T15:54:26Z</time>
      </trkpt>
      <trkpt lat="44.08342" lon="1.6893">
        <ele>267</ele>
        <time>2013-03-02T15:54:28Z</time>
      </trkpt>
      <trkpt lat="44.08332" lon="1.68923">
        <ele>267</ele>
        <time>2013-03-02T15:54:30Z</time>
      </trkpt>
      <trkpt lat="44.08322" lon="1.68918">
        <ele>267</ele>
        <time>2013-03-02T15:54:32Z</time>
      </trkpt>
      <trkpt lat="44.08311" lon="1.68913">
        <ele>267</ele>
        <time>2013-03-02T15:54:34Z</time>
      </trkpt>
      <trkpt lat="44.08301" lon="1.68907">
        <ele>267</ele>
        <time>2013-03-02T15:54:36Z</time>
      </trkpt>
      <trkpt lat="44.0829" lon="1.68901">
        <ele>267</ele>
        <time>2013-03-02T15:54:38Z</time>
      </trkpt>
      <trkpt lat="44.0828" lon="1.68897">
        <ele>267</ele>
        <time>2013-03-02T15:54:40Z</time>
      </trkpt>
      <trkpt lat="44.08271" lon="1.68893">
        <ele>267</ele>
        <time>2013-03-02T15:54:42Z</time>
      </trkpt>
      <trkpt lat="44.08262" lon="1.68887">
        <ele>266</ele>
        <time>2013-03-02T15:54:44Z</time>
      </trkpt>
      <trkpt lat="44.08253" lon="1.68879">
        <ele>266</ele>
        <time>2013-03-02T15:54:46Z</time>
      </trkpt>
      <trkpt lat="44.08244" lon="1.68872">
        <ele>266</ele>
        <time>2013-03-02T15:54:48Z</time>
      </trkpt>
      <trkpt lat="44.08234" lon="1.68867">
        <ele>266</ele>
        <time>2013-03-02T15:54:50Z</time>
      </trkpt>
      <trkpt lat="44.08225" lon="1.68863">
        <ele>266</ele>
        <time>2013-03-02T15:54:52Z</time>
      </trkpt>
      <trkpt lat="44.08216" lon="1.68858">
        <ele>266</ele>
        <time>2013-03-02T15:54:54Z</time>
      </trkpt>
      <trkpt lat="44.08208" lon="1.68852">
        <ele>266</ele>
        <time>2013-03-02T15:54:56Z</time>
      </trkpt>
      <trkpt lat="44.082" lon="1.68846">
        <ele>266</ele>
        <time>2013-03-02T15:54:58Z</time>
      </trkpt>
      <trkpt lat="44.08193" lon="1.68841">
        <ele>266</ele>
        <time>2013-03-02T15:55:00Z</time>
      </trkpt>
      <trkpt lat="44.08185" lon="1.68837">
        <ele>266</ele>
        <time>2013-03-02T15:55:02Z</time>
      </trkpt>
      <trkpt lat="44.08178" lon="1.68833">
        <ele>266</ele>
        <time>2013-03-02T15:55:04Z</time>
      </trkpt>
      <trkpt lat="44.0817" lon="1.68829">
        <ele>266</ele>
        <time>2013-03-02T15:55:06Z</time>
      </trkpt>
      <trkpt lat="44.08163" lon="1.68825">
        <ele>266</ele>
        <time>2013-03-02T15:55:08Z</time>
      </trkpt>
      <trkpt lat="44.08154" lon="1.68821">
        <ele>266</ele>
        <time>2013-03-02T15:55:10Z</time>
      </trkpt>
      <trkpt lat="44.08145" lon="1.68816">
        <ele>266</ele>
        <time>2013-03-02T15:55:12Z</time>
      </trkpt>
      <trkpt lat="44.08136" lon="1.68812">
        <ele>266</ele>
        <time>2013-03-02T15:55:14Z</time>
      </trkpt>
      <trkpt lat="44.08128" lon="1.68807">
        <ele>266</ele>
        <time>2013-03-02T15:55:16Z</time>
      </trkpt>
      <trkpt lat="44.0812" lon="1.68804">
        <ele>266</ele>
        <time>2013-03-02T15:55:18Z</time>
      </trkpt>
      <trkpt lat="44.08111" lon="1.68801">
        <ele>266</ele>
        <time>2013-03-02T15:55:20Z</time>
      </trkpt>
      <trkpt lat="44.08102" lon="1.68798">
        <ele>266</ele>
        <time>2013-03-02T15:55:22Z</time>
      </trkpt>
      <trkpt lat="44.08092" lon="1.68795">
        <ele>266</ele>
        <time>2013-03-02T15:55:24Z</time>
      </trkpt>
      <trkpt lat="44.08083" lon="1.68792">
        <ele>266</ele>
        <time>2013-03-02T15:55:26Z</time>
      </trkpt>
      <trkpt lat="44.08074" lon="1.68791">
        <ele>266</ele>
        <time>2013-03-02T15:55:28Z</time>
      </trkpt>
      <trkpt lat="44.08065" lon="1.6879">
        <ele>266</ele>
        <time>2013-03-02T15:55:30Z</time>
      </trkpt>
      <trkpt lat="44.08057" lon="1.68789">
        <ele>266</ele>
        <time>2013-03-02T15:55:32Z</time>
      </trkpt>
      <trkpt lat="44.08048" lon="1.68787">
        <ele>266</ele>
        <time>2013-03-02T15:55:34Z</time>
      </trkpt>
      <trkpt lat="44.08041" lon="1.68784">
        <ele>266</ele>
        <time>2013-03-02T15:55:36Z</time>
      </trkpt>
      <trkpt lat="44.08032" lon="1.68781">
        <ele>266</ele>
        <time>2013-03-02T15:55:38Z</time>
      </trkpt>
      <trkpt lat="44.08023" lon="1.68777">
        <ele>266</ele>
        <time>2013-03-02T15:55:40Z</time>
      </trkpt>
      <trkpt lat="44.08014" lon="1.68771">
        <ele>265</ele>
        <time>2013-03-02T15:55:42Z</time>
      </trkpt>
      <trkpt lat="44.08005" lon="1.68765">
        <ele>265</ele>
        <time>2013-03-02T15:55:44Z</time>
      </trkpt>
      <trkpt lat="44.07995" lon="1.68759">
        <ele>265</ele>
        <time>2013-03-02T15:55:46Z</time>
      </trkpt>
      <trkpt lat="44.07984" lon="1.68753">
        <ele>264</ele>
        <time>2013-03-02T15:55:48Z</time>
      </trkpt>
      <trkpt lat="44.07973" lon="1.68747">
        <ele>264</ele>
        <time>2013-03-02T15:55:50Z</time>
      </trkpt>
      <trkpt lat="44.07963" lon="1.6874">
        <ele>264</ele>
        <time>2013-03-02T15:55:52Z</time>
      </trkpt>
      <trkpt lat="44.07952" lon="1.68735">
        <ele>264</ele>
        <time>2013-03-02T15:55:54Z</time>
      </trkpt>
      <trkpt lat="44.07942" lon="1.68729">
        <ele>263</ele>
        <time>2013-03-02T15:55:56Z</time>
      </trkpt>
      <trkpt lat="44.07933" lon="1.68724">
        <ele>263</ele>
        <time>2013-03-02T15:55:58Z</time>
      </trkpt>
      <trkpt lat="44.07925" lon="1.68718">
        <ele>263</ele>
        <time>2013-03-02T15:56:00Z</time>
      </trkpt>
      <trkpt lat="44.07918" lon="1.6871">
        <ele>263</ele>
        <time>2013-03-02T15:56:02Z</time>
      </trkpt>
      <trkpt lat="44.07911" lon="1.68703">
        <ele>263</ele>
        <time>2013-03-02T15:56:04Z</time>
      </trkpt>
      <trkpt lat="44.07904" lon="1.68694">
        <ele>263</ele>
        <time>2013-03-02T15:56:06Z</time>
      </trkpt>
      <trkpt lat="44.07896" lon="1.68685">
        <ele>263</ele>
        <time>2013-03-02T15:56:08Z</time>
      </trkpt>
      <trkpt lat="44.07888" lon="1.68675">
        <ele>263</ele>
        <time>2013-03-02T15:56:10Z</time>
      </trkpt>
      <trkpt lat="44.07879" lon="1.68666">
        <ele>263</ele>
        <time>2013-03-02T15:56:12Z</time>
      </trkpt>
      <trkpt lat="44.0787" lon="1.68656">
        <ele>263</ele>
        <time>2013-03-02T15:56:14Z</time>
      </trkpt>
      <trkpt lat="44.07864" lon="1.68648">
        <ele>262</ele>
        <time>2013-03-02T15:56:16Z</time>
      </trkpt>
      <trkpt lat="44.07856" lon="1.6864">
        <ele>262</ele>
        <time>2013-03-02T15:56:18Z</time>
      </trkpt>
      <trkpt lat="44.07847" lon="1.68634">
        <ele>262</ele>
        <time>2013-03-02T15:56:20Z</time>
      </trkpt>
      <trkpt lat="44.07839" lon="1.68627">
        <ele>261</ele>
        <time>2013-03-02T15:56:22Z</time>
      </trkpt>
      <trkpt lat="44.07829" lon="1.68621">
        <ele>261</ele>
        <time>2013-03-02T15:56:24Z</time>
      </trkpt>
      <trkpt lat="44.07819" lon="1.68616">
        <ele>261</ele>
        <time>2013-03-02T15:56:26Z</time>
      </trkpt>
      <trkpt lat="44.07809" lon="1.68612">
        <ele>260</ele>
        <time>2013-03-02T15:56:28Z</time>
      </trkpt>
      <trkpt lat="44.07798" lon="1.68607">
        <ele>260</ele>
        <time>2013-03-02T15:56:30Z</time>
      </trkpt>
      <trkpt lat="44.0779" lon="1.68603">
        <ele>259</ele>
        <time>2013-03-02T15:56:32Z</time>
      </trkpt>
      <trkpt lat="44.0778" lon="1.68598">
        <ele>259</ele>
        <time>2013-03-02T15:56:34Z</time>
      </trkpt>
      <trkpt lat="44.07772" lon="1.68594">
        <ele>258</ele>
        <time>2013-03-02T15:56:36Z</time>
      </trkpt>
      <trkpt lat="44.07763" lon="1.68588">
        <ele>258</ele>
        <time>2013-03-02T15:56:38Z</time>
      </trkpt>
      <trkpt lat="44.07754" lon="1.68583">
        <ele>257</ele>
        <time>2013-03-02T15:56:40Z</time>
      </trkpt>
      <trkpt lat="44.07746" lon="1.68578">
        <ele>257</ele>
        <time>2013-03-02T15:56:42Z</time>
      </trkpt>
      <trkpt lat="44.07738" lon="1.68571">
        <ele>256</ele>
        <time>2013-03-02T15:56:44Z</time>
      </trkpt>
      <trkpt lat="44.0773" lon="1.68561">
        <ele>255</ele>
        <time>2013-03-02T15:56:46Z</time>
      </trkpt>
      <trkpt lat="44.07721" lon="1.68552">
        <ele>255</ele>
        <time>2013-03-02T15:56:48Z</time>
      </trkpt>
      <trkpt lat="44.07714" lon="1.68544">
        <ele>254</ele>
        <time>2013-03-02T15:56:50Z</time>
      </trkpt>
      <trkpt lat="44.07706" lon="1.68535">
        <ele>253</ele>
        <time>2013-03-02T15:56:52Z</time>
      </trkpt>
      <trkpt lat="44.07698" lon="1.68527">
        <ele>253</ele>
        <time>2013-03-02T15:56:54Z</time>
      </trkpt>
      <trkpt lat="44.07688" lon="1.68522">
        <ele>253</ele>
        <time>2013-03-02T15:56:56Z</time>
      </trkpt>
      <trkpt lat="44.07681" lon="1.68516">
        <ele>253</ele>
        <time>2013-03-02T15:56:58Z</time>
      </trkpt>
      <trkpt lat="44.07672" lon="1.68508">
        <ele>253</ele>
        <time>2013-03-02T15:57:00Z</time>
      </trkpt>
      <trkpt lat="44.07662" lon="1.68499">
        <ele>252</ele>
        <time>2013-03-02T15:57:02Z</time>
      </trkpt>
      <trkpt lat="44.07652" lon="1.68491">
        <ele>252</ele>
        <time>2013-03-02T15:57:04Z</time>
      </trkpt>
      <trkpt lat="44.07642" lon="1.68483">
        <ele>252</ele>
        <time>2013-03-02T15:57:06Z</time>
      </trkpt>
      <trkpt lat="44.07633" lon="1.68476">
        <ele>252</ele>
        <time>2013-03-02T15:57:08Z</time>
      </trkpt>
      <trkpt lat="44.07624" lon="1.68468">
        <ele>252</ele>
        <time>2013-03-02T15:57:10Z</time>
      </trkpt>
      <trkpt lat="44.07614" lon="1.68459">
        <ele>252</ele>
        <time>2013-03-02T15:57:12Z</time>
      </trkpt>
      <trkpt lat="44.07605" lon="1.6845">
        <ele>252</ele>
        <time>2013-03-02T15:57:14Z</time>
      </trkpt>
      <trkpt lat="44.07596" lon="1.68441">
        <ele>252</ele>
        <time>2013-03-02T15:57:16Z</time>
      </trkpt>
      <trkpt lat="44.07587" lon="1.68431">
        <ele>252</ele>
        <time>2013-03-02T15:57:18Z</time>
      </trkpt>
      <trkpt lat="44.07577" lon="1.68422">
        <ele>252</ele>
        <time>2013-03-02T15:57:20Z</time>
      </trkpt>
      <trkpt lat="44.07568" lon="1.68413">
        <ele>252</ele>
        <time>2013-03-02T15:57:22Z</time>
      </trkpt>
      <trkpt lat="44.07558" lon="1.68403">
        <ele>252</ele>
        <time>2013-03-02T15:57:24Z</time>
      </trkpt>
      <trkpt lat="44.07547" lon="1.68394">
        <ele>252</ele>
        <time>2013-03-02T15:57:26Z</time>
      </trkpt>
      <trkpt lat="44.07538" lon="1.68384">
        <ele>252</ele>
        <time>2013-03-02T15:57:28Z</time>
      </trkpt>
      <trkpt lat="44.07529" lon="1.68373">
        <ele>252</ele>
        <time>2013-03-02T15:57:30Z</time>
      </trkpt>
      <trkpt lat="44.0752" lon="1.68363">
        <ele>252</ele>
        <time>2013-03-02T15:57:32Z</time>
      </trkpt>
      <trkpt lat="44.0751" lon="1.68353">
        <ele>252</ele>
        <time>2013-03-02T15:57:34Z</time>
      </trkpt>
      <trkpt lat="44.07499" lon="1.68343">
        <ele>252</ele>
        <time>2013-03-02T15:57:36Z</time>
      </trkpt>
      <trkpt lat="44.07489" lon="1.68332">
        <ele>252</ele>
        <time>2013-03-02T15:57:38Z</time>
      </trkpt>
      <trkpt lat="44.07479" lon="1.68317">
        <ele>251</ele>
        <time>2013-03-02T15:57:40Z</time>
      </trkpt>
      <trkpt lat="44.0747" lon="1.68303">
        <ele>250</ele>
        <time>2013-03-02T15:57:42Z</time>
      </trkpt>
      <trkpt lat="44.07462" lon="1.68287">
        <ele>250</ele>
        <time>2013-03-02T15:57:44Z</time>
      </trkpt>
      <trkpt lat="44.07455" lon="1.68272">
        <ele>249</ele>
        <time>2013-03-02T15:57:46Z</time>
      </trkpt>
      <trkpt lat="44.07447" lon="1.68258">
        <ele>249</ele>
        <time>2013-03-02T15:57:48Z</time>
      </trkpt>
      <trkpt lat="44.07439" lon="1.68245">
        <ele>249</ele>
        <time>2013-03-02T15:57:50Z</time>
      </trkpt>
      <trkpt lat="44.07432" lon="1.68231">
        <ele>248</ele>
        <time>2013-03-02T15:57:52Z</time>
      </trkpt>
      <trkpt lat="44.07424" lon="1.68217">
        <ele>248</ele>
        <time>2013-03-02T15:57:54Z</time>
      </trkpt>
      <trkpt lat="44.07416" lon="1.68204">
        <ele>248</ele>
        <time>2013-03-02T15:57:56Z</time>
      </trkpt>
      <trkpt lat="44.07409" lon="1.68192">
        <ele>247</ele>
        <time>2013-03-02T15:57:58Z</time>
      </trkpt>
      <trkpt lat="44.07402" lon="1.68182">
        <ele>247</ele>
        <time>2013-03-02T15:58:00Z</time>
      </trkpt>
      <trkpt lat="44.07395" lon="1.68173">
        <ele>246</ele>
        <time>2013-03-02T15:58:02Z</time>
      </trkpt>
      <trkpt lat="44.07388" lon="1.68162">
        <ele>246</ele>
        <time>2013-03-02T15:58:04Z</time>
      </trkpt>
      <trkpt lat="44.07381" lon="1.68152">
        <ele>246</ele>
        <time>2013-03-02T15:58:06Z</time>
      </trkpt>
      <trkpt lat="44.07375" lon="1.68142">
        <ele>246</ele>
        <time>2013-03-02T15:58:08Z</time>
      </trkpt>
      <trkpt lat="44.07368" lon="1.68133">
        <ele>246</ele>
        <time>2013-03-02T15:58:10Z</time>
      </trkpt>
      <trkpt lat="44.07364" lon="1.68122">
        <ele>246</ele>
        <time>2013-03-02T15:58:12Z</time>
      </trkpt>
      <trkpt lat="44.07361" lon="1.68112">
        <ele>246</ele>
        <time>2013-03-02T15:58:14Z</time>
      </trkpt>
      <trkpt lat="44.07355" lon="1.68109">
        <ele>246</ele>
        <time>2013-03-02T15:58:16Z</time>
      </trkpt>
      <trkpt lat="44.07349" lon="1.68103">
        <ele>246</ele>
        <time>2013-03-02T15:58:18Z</time>
      </trkpt>
      <trkpt lat="44.07342" lon="1.68095">
        <ele>246</ele>
        <time>2013-03-02T15:58:20Z</time>
      </trkpt>
      <trkpt lat="44.07336" lon="1.68087">
        <ele>246</ele>
        <time>2013-03-02T15:58:22Z</time>
      </trkpt>
      <trkpt lat="44.07328" lon="1.6808">
        <ele>246</ele>
        <time>2013-03-02T15:58:24Z</time>
      </trkpt>
      <trkpt lat="44.07321" lon="1.68073">
        <ele>246</ele>
        <time>2013-03-02T15:58:26Z</time>
      </trkpt>
      <trkpt lat="44.07315" lon="1.68066">
        <ele>246</ele>
        <time>2013-03-02T15:58:28Z</time>
      </trkpt>
      <trkpt lat="44.07309" lon="1.68061">
        <ele>246</ele>
        <time>2013-03-02T15:58:30Z</time>
      </trkpt>
      <trkpt lat="44.07301" lon="1.6806">
        <ele>246</ele>
        <time>2013-03-02T15:58:32Z</time>
      </trkpt>
      <trkpt lat="44.07292" lon="1.68056">
        <ele>246</ele>
        <time>2013-03-02T15:58:34Z</time>
      </trkpt>
      <trkpt lat="44.07285" lon="1.68046">
        <ele>246</ele>
        <time>2013-03-02T15:58:36Z</time>
      </trkpt>
      <trkpt lat="44.07278" lon="1.68037">
        <ele>246</ele>
        <time>2013-03-02T15:58:38Z</time>
      </trkpt>
      <trkpt lat="44.07272" lon="1.68028">
        <ele>245</ele>
        <time>2013-03-02T15:58:40Z</time>
      </trkpt>
      <trkpt lat="44.07265" lon="1.68019">
        <ele>245</ele>
        <time>2013-03-02T15:58:42Z</time>
      </trkpt>
      <trkpt lat="44.07259" lon="1.6801">
        <ele>245</ele>
        <time>2013-03-02T15:58:44Z</time>
      </trkpt>
      <trkpt lat="44.07253" lon="1.68001">
        <ele>244</ele>
        <time>2013-03-02T15:58:46Z</time>
      </trkpt>
      <trkpt lat="44.07249" lon="1.67992">
        <ele>244</ele>
        <time>2013-03-02T15:58:48Z</time>
      </trkpt>
      <trkpt lat="44.07243" lon="1.67984">
        <ele>244</ele>
        <time>2013-03-02T15:58:50Z</time>
      </trkpt>
      <trkpt lat="44.07236" lon="1.67976">
        <ele>244</ele>
        <time>2013-03-02T15:58:52Z</time>
      </trkpt>
      <trkpt lat="44.07229" lon="1.6797">
        <ele>244</ele>
        <time>2013-03-02T15:58:54Z</time>
      </trkpt>
      <trkpt lat="44.07221" lon="1.67965">
        <ele>244</ele>
        <time>2013-03-02T15:58:56Z</time>
      </trkpt>
      <trkpt lat="44.07213" lon="1.67956">
        <ele>244</ele>
        <time>2013-03-02T15:58:58Z</time>
      </trkpt>
      <trkpt lat="44.07207" lon="1.67947">
        <ele>244</ele>
        <time>2013-03-02T15:59:00Z</time>
      </trkpt>
      <trkpt lat="44.07201" lon="1.67939">
        <ele>244</ele>
        <time>2013-03-02T15:59:02Z</time>
      </trkpt>
      <trkpt lat="44.07194" lon="1.67931">
        <ele>244</ele>
        <time>2013-03-02T15:59:04Z</time>
      </trkpt>
      <trkpt lat="44.07188" lon="1.67924">
        <ele>244</ele>
        <time>2013-03-02T15:59:06Z</time>
      </trkpt>
      <trkpt lat="44.07181" lon="1.67918">
        <ele>244</ele>
        <time>2013-03-02T15:59:08Z</time>
      </trkpt>
      <trkpt lat="44.07173" lon="1.67913">
        <ele>244</ele>
        <time>2013-03-02T15:59:10Z</time>
      </trkpt>
      <trkpt lat="44.07164" lon="1.67908">
        <ele>244</ele>
        <time>2013-03-02T15:59:12Z</time>
      </trkpt>
      <trkpt lat="44.07155" lon="1.67902">
        <ele>243</ele>
        <time>2013-03-02T15:59:14Z</time>
      </trkpt>
      <trkpt lat="44.07145" lon="1.67896">
        <ele>242</ele>
        <time>2013-03-02T15:59:16Z</time>
      </trkpt>
      <trkpt lat="44.07136" lon="1.67887">
        <ele>242</ele>
        <time>2013-03-02T15:59:18Z</time>
      </trkpt>
      <trkpt lat="44.07133" lon="1.67877">
        <ele>242</ele>
        <time>2013-03-02T15:59:20Z</time>
      </trkpt>
      <trkpt lat="44.07134" lon="1.67869">
        <ele>242</ele>
        <time>2013-03-02T15:59:22Z</time>
      </trkpt>
      <trkpt lat="44.07132" lon="1.67859">
        <ele>242</ele>
        <time>2013-03-02T15:59:24Z</time>
      </trkpt>
      <trkpt lat="44.07128" lon="1.6785">
        <ele>242</ele>
        <time>2013-03-02T15:59:26Z</time>
      </trkpt>
      <trkpt lat="44.07122" lon="1.67841">
        <ele>241</ele>
        <time>2013-03-02T15:59:28Z</time>
      </trkpt>
      <trkpt lat="44.07115" lon="1.67832">
        <ele>241</ele>
        <time>2013-03-02T15:59:30Z</time>
      </trkpt>
      <trkpt lat="44.07107" lon="1.67822">
        <ele>241</ele>
        <time>2013-03-02T15:59:32Z</time>
      </trkpt>
      <trkpt lat="44.071" lon="1.67812">
        <ele>241</ele>
        <time>2013-03-02T15:59:34Z</time>
      </trkpt>
      <trkpt lat="44.07094" lon="1.67801">
        <ele>240</ele>
        <time>2013-03-02T15:59:36Z</time>
      </trkpt>
      <trkpt lat="44.07087" lon="1.67789">
        <ele>240</ele>
        <time>2013-03-02T15:59:38Z</time>
      </trkpt>
      <trkpt lat="44.0708" lon="1.67779">
        <ele>240</ele>
        <time>2013-03-02T15:59:40Z</time>
      </trkpt>
      <trkpt lat="44.07072" lon="1.67767">
        <ele>239</ele>
        <time>2013-03-02T15:59:42Z</time>
      </trkpt>
      <trkpt lat="44.07067" lon="1.67754">
        <ele>239</ele>
        <time>2013-03-02T15:59:44Z</time>
      </trkpt>
      <trkpt lat="44.07063" lon="1.67739">
        <ele>238</ele>
        <time>2013-03-02T15:59:46Z</time>
      </trkpt>
      <trkpt lat="44.0706" lon="1.67725">
        <ele>238</ele>
        <time>2013-03-02T15:59:48Z</time>
      </trkpt>
      <trkpt lat="44.07056" lon="1.67711">
        <ele>238</ele>
        <time>2013-03-02T15:59:50Z</time>
      </trkpt>
      <trkpt lat="44.07051" lon="1.67699">
        <ele>237</ele>
        <time>2013-03-02T15:59:52Z</time>
      </trkpt>
      <trkpt lat="44.07045" lon="1.67685">
        <ele>237</ele>
        <time>2013-03-02T15:59:54Z</time>
      </trkpt>
      <trkpt lat="44.0704" lon="1.6767">
        <ele>236</ele>
        <time>2013-03-02T15:59:56Z</time>
      </trkpt>
      <trkpt lat="44.07034" lon="1.67654">
        <ele>235</ele>
        <time>2013-03-02T15:59:58Z</time>
      </trkpt>
      <trkpt lat="44.07029" lon="1.67638">
        <ele>234</ele>
        <time>2013-03-02T16:00:00Z</time>
      </trkpt>
      <trkpt lat="44.07024" lon="1.6762">
        <ele>233</ele>
        <time>2013-03-02T16:00:02Z</time>
      </trkpt>
      <trkpt lat="44.07018" lon="1.67603">
        <ele>233</ele>
        <time>2013-03-02T16:00:04Z</time>
      </trkpt>
      <trkpt lat="44.07013" lon="1.67587">
        <ele>232</ele>
        <time>2013-03-02T16:00:06Z</time>
      </trkpt>
      <trkpt lat="44.07009" lon="1.6757">
        <ele>231</ele>
        <time>2013-03-02T16:00:08Z</time>
      </trkpt>
      <trkpt lat="44.07003" lon="1.67555">
        <ele>230</ele>
        <time>2013-03-02T16:00:10Z</time>
      </trkpt>
      <trkpt lat="44.06997" lon="1.67542">
        <ele>230</ele>
        <time>2013-03-02T16:00:12Z</time>
      </trkpt>
      <trkpt lat="44.06991" lon="1.6753">
        <ele>229</ele>
        <time>2013-03-02T16:00:14Z</time>
      </trkpt>
      <trkpt lat="44.06984" lon="1.67516">
        <ele>229</ele>
        <time>2013-03-02T16:00:16Z</time>
      </trkpt>
      <trkpt lat="44.06977" lon="1.67499">
        <ele>228</ele>
        <time>2013-03-02T16:00:18Z</time>
      </trkpt>
      <trkpt lat="44.06971" lon="1.67484">
        <ele>227</ele>
        <time>2013-03-02T16:00:20Z</time>
      </trkpt>
      <trkpt lat="44.06966" lon="1.67473">
        <ele>226</ele>
        <time>2013-03-02T16:00:22Z</time>
      </trkpt>
      <trkpt lat="44.0696" lon="1.67461">
        <ele>225</ele>
        <time>2013-03-02T16:00:24Z</time>
      </trkpt>
      <trkpt lat="44.06954" lon="1.67451">
        <ele>224</ele>
        <time>2013-03-02T16:00:26Z</time>
      </trkpt>
      <trkpt lat="44.06948" lon="1.67443">
        <ele>222</ele>
        <time>2013-03-02T16:00:28Z</time>
      </trkpt>
      <trkpt lat="44.06942" lon="1.67434">
        <ele>221</ele>
        <time>2013-03-02T16:00:30Z</time>
      </trkpt>
      <trkpt lat="44.0694" lon="1.67422">
        <ele>220</ele>
        <time>2013-03-02T16:00:32Z</time>
      </trkpt>
      <trkpt lat="44.06938" lon="1.6741">
        <ele>219</ele>
        <time>2013-03-02T16:00:34Z</time>
      </trkpt>
      <trkpt lat="44.06934" lon="1.674">
        <ele>219</ele>
        <time>2013-03-02T16:00:36Z</time>
      </trkpt>
      <trkpt lat="44.0693" lon="1.67387">
        <ele>219</ele>
        <time>2013-03-02T16:00:38Z</time>
      </trkpt>
      <trkpt lat="44.06926" lon="1.67376">
        <ele>219</ele>
        <time>2013-03-02T16:00:40Z</time>
      </trkpt>
      <trkpt lat="44.06922" lon="1.67366">
        <ele>219</ele>
        <time>2013-03-02T16:00:42Z</time>
      </trkpt>
      <trkpt lat="44.06919" lon="1.67357">
        <ele>219</ele>
        <time>2013-03-02T16:00:44Z</time>
      </trkpt>
      <trkpt lat="44.06915" lon="1.67348">
        <ele>219</ele>
        <time>2013-03-02T16:00:46Z</time>
      </trkpt>
      <trkpt lat="44.06911" lon="1.67339">
        <ele>219</ele>
        <time>2013-03-02T16:00:48Z</time>
      </trkpt>
      <trkpt lat="44.06906" lon="1.6733">
        <ele>219</ele>
        <time>2013-03-02T16:00:50Z</time>
      </trkpt>
      <trkpt lat="44.06902" lon="1.6732">
        <ele>219</ele>
        <time>2013-03-02T16:00:52Z</time>
      </trkpt>
      <trkpt lat="44.06898" lon="1.67311">
        <ele>219</ele>
        <time>2013-03-02T16:00:54Z</time>
      </trkpt>
      <trkpt lat="44.06894" lon="1.67302">
        <ele>219</ele>
        <time>2013-03-02T16:00:56Z</time>
      </trkpt>
      <trkpt lat="44.06889" lon="1.67292">
        <ele>219</ele>
        <time>2013-03-02T16:00:58Z</time>
      </trkpt>
      <trkpt lat="44.06885" lon="1.67283">
        <ele>219</ele>
        <time>2013-03-02T16:01:00Z</time>
      </trkpt>
      <trkpt lat="44.06881" lon="1.67274">
        <ele>219</ele>
        <time>2013-03-02T16:01:02Z</time>
      </trkpt>
      <trkpt lat="44.06876" lon="1.67265">
        <ele>219</ele>
        <time>2013-03-02T16:01:04Z</time>
      </trkpt>
      <trkpt lat="44.0687" lon="1.67257">
        <ele>219</ele>
        <time>2013-03-02T16:01:06Z</time>
      </trkpt>
      <trkpt lat="44.06862" lon="1.67251">
        <ele>219</ele>
        <time>2013-03-02T16:01:08Z</time>
      </trkpt>
      <trkpt lat="44.06854" lon="1.67245">
        <ele>219</ele>
        <time>2013-03-02T16:01:10Z</time>
      </trkpt>
      <trkpt lat="44.06845" lon="1.67237">
        <ele>219</ele>
        <time>2013-03-02T16:01:12Z</time>
      </trkpt>
      <trkpt lat="44.06837" lon="1.67228">
        <ele>219</ele>
        <time>2013-03-02T16:01:14Z</time>
      </trkpt>
      <trkpt lat="44.06829" lon="1.67219">
        <ele>219</ele>
        <time>2013-03-02T16:01:16Z</time>
      </trkpt>
      <trkpt lat="44.0682" lon="1.6721">
        <ele>219</ele>
        <time>2013-03-02T16:01:18Z</time>
      </trkpt>
      <trkpt lat="44.06812" lon="1.67202">
        <ele>219</ele>
        <time>2013-03-02T16:01:20Z</time>
      </trkpt>
      <trkpt lat="44.06804" lon="1.67194">
        <ele>219</ele>
        <time>2013-03-02T16:01:22Z</time>
      </trkpt>
      <trkpt lat="44.06794" lon="1.67186">
        <ele>218</ele>
        <time>2013-03-02T16:01:24Z</time>
      </trkpt>
      <trkpt lat="44.06784" lon="1.67178">
        <ele>217</ele>
        <time>2013-03-02T16:01:26Z</time>
      </trkpt>
      <trkpt lat="44.06772" lon="1.6717">
        <ele>216</ele>
        <time>2013-03-02T16:01:28Z</time>
      </trkpt>
      <trkpt lat="44.0676" lon="1.67163">
        <ele>216</ele>
        <time>2013-03-02T16:01:30Z</time>
      </trkpt>
      <trkpt lat="44.06749" lon="1.67158">
        <ele>215</ele>
        <time>2013-03-02T16:01:32Z</time>
      </trkpt>
      <trkpt lat="44.06737" lon="1.67153">
        <ele>214</ele>
        <time>2013-03-02T16:01:34Z</time>
      </trkpt>
      <trkpt lat="44.06726" lon="1.67148">
        <ele>213</ele>
        <time>2013-03-02T16:01:36Z</time>
      </trkpt>
      <trkpt lat="44.06716" lon="1.67146">
        <ele>213</ele>
        <time>2013-03-02T16:01:38Z</time>
      </trkpt>
      <trkpt lat="44.06706" lon="1.67141">
        <ele>212</ele>
        <time>2013-03-02T16:01:40Z</time>
      </trkpt>
      <trkpt lat="44.06698" lon="1.67134">
        <ele>211</ele>
        <time>2013-03-02T16:01:42Z</time>
      </trkpt>
      <trkpt lat="44.06692" lon="1.67125">
        <ele>211</ele>
        <time>2013-03-02T16:01:44Z</time>
      </trkpt>
      <trkpt lat="44.06686" lon="1.67117">
        <ele>211</ele>
        <time>2013-03-02T16:01:46Z</time>
      </trkpt>
      <trkpt lat="44.06678" lon="1.6711">
        <ele>211</ele>
        <time>2013-03-02T16:01:48Z</time>
      </trkpt>
      <trkpt lat="44.06669" lon="1.67104">
        <ele>211</ele>
        <time>2013-03-02T16:01:50Z</time>
      </trkpt>
      <trkpt lat="44.0666" lon="1.67099">
        <ele>210</ele>
        <time>2013-03-02T16:01:52Z</time>
      </trkpt>
      <trkpt lat="44.06652" lon="1.67096">
        <ele>209</ele>
        <time>2013-03-02T16:01:54Z</time>
      </trkpt>
      <trkpt lat="44.06643" lon="1.67095">
        <ele>208</ele>
        <time>2013-03-02T16:01:56Z</time>
      </trkpt>
      <trkpt lat="44.06635" lon="1.67091">
        <ele>207</ele>
        <time>2013-03-02T16:01:58Z</time>
      </trkpt>
      <trkpt lat="44.06625" lon="1.67086">
        <ele>206</ele>
        <time>2013-03-02T16:02:00Z</time>
      </trkpt>
      <trkpt lat="44.06616" lon="1.67079">
        <ele>205</ele>
        <time>2013-03-02T16:02:02Z</time>
      </trkpt>
      <trkpt lat="44.06609" lon="1.67069">
        <ele>203</ele>
        <time>2013-03-02T16:02:04Z</time>
      </trkpt>
      <trkpt lat="44.06602" lon="1.67058">
        <ele>202</ele>
        <time>2013-03-02T16:02:06Z</time>
      </trkpt>
      <trkpt lat="44.06594" lon="1.67049">
        <ele>200</ele>
        <time>2013-03-02T16:02:08Z</time>
      </trkpt>
      <trkpt lat="44.06584" lon="1.6704">
        <ele>198</ele>
        <time>2013-03-02T16:02:10Z</time>
      </trkpt>
      <trkpt lat="44.06575" lon="1.67031">
        <ele>196</ele>
        <time>2013-03-02T16:02:12Z</time>
      </trkpt>
      <trkpt lat="44.06567" lon="1.67022">
        <ele>195</ele>
        <time>2013-03-02T16:02:14Z</time>
      </trkpt>
      <trkpt lat="44.0656" lon="1.67013">
        <ele>193</ele>
        <time>2013-03-02T16:02:16Z</time>
      </trkpt>
      <trkpt lat="44.06552" lon="1.67005">
        <ele>192</ele>
        <time>2013-03-02T16:02:18Z</time>
      </trkpt>
      <trkpt lat="44.06543" lon="1.67">
        <ele>190</ele>
        <time>2013-03-02T16:02:20Z</time>
      </trkpt>
      <trkpt lat="44.06535" lon="1.66995">
        <ele>189</ele>
        <time>2013-03-02T16:02:22Z</time>
      </trkpt>
      <trkpt lat="44.06527" lon="1.6699">
        <ele>188</ele>
        <time>2013-03-02T16:02:24Z</time>
      </trkpt>
      <trkpt lat="44.0652" lon="1.66986">
        <ele>187</ele>
        <time>2013-03-02T16:02:26Z</time>
      </trkpt>
      <trkpt lat="44.06512" lon="1.66984">
        <ele>185</ele>
        <time>2013-03-02T16:02:28Z</time>
      </trkpt>
      <trkpt lat="44.06503" lon="1.66981">
        <ele>184</ele>
        <time>2013-03-02T16:02:30Z</time>
      </trkpt>
      <trkpt lat="44.06493" lon="1.66979">
        <ele>182</ele>
        <time>2013-03-02T16:02:32Z</time>
      </trkpt>
      <trkpt lat="44.06483" lon="1.66977">
        <ele>180</ele>
        <time>2013-03-02T16:02:34Z</time>
      </trkpt>
      <trkpt lat="44.06475" lon="1.66973">
        <ele>179</ele>
        <time>2013-03-02T16:02:36Z</time>
      </trkpt>
      <trkpt lat="44.06467" lon="1.66966">
        <ele>178</ele>
        <time>2013-03-02T16:02:38Z</time>
      </trkpt>
      <trkpt lat="44.06459" lon="1.66963">
        <ele>176</ele>
        <time>2013-03-02T16:02:40Z</time>
      </trkpt>
      <trkpt lat="44.06449" lon="1.6696">
        <ele>175</ele>
        <time>2013-03-02T16:02:42Z</time>
      </trkpt>
      <trkpt lat="44.0644" lon="1.66956">
        <ele>174</ele>
        <time>2013-03-02T16:02:44Z</time>
      </trkpt>
      <trkpt lat="44.06429" lon="1.66955">
        <ele>173</ele>
        <time>2013-03-02T16:02:46Z</time>
      </trkpt>
      <trkpt lat="44.06416" lon="1.66957">
        <ele>172</ele>
        <time>2013-03-02T16:02:48Z</time>
      </trkpt>
      <trkpt lat="44.06403" lon="1.6696">
        <ele>171</ele>
        <time>2013-03-02T16:02:50Z</time>
      </trkpt>
      <trkpt lat="44.0639" lon="1.66964">
        <ele>170</ele>
        <time>2013-03-02T16:02:52Z</time>
      </trkpt>
      <trkpt lat="44.06377" lon="1.66969">
        <ele>168</ele>
        <time>2013-03-02T16:02:54Z</time>
      </trkpt>
      <trkpt lat="44.06364" lon="1.66974">
        <ele>167</ele>
        <time>2013-03-02T16:02:56Z</time>
      </trkpt>
      <trkpt lat="44.06351" lon="1.66979">
        <ele>166</ele>
        <time>2013-03-02T16:02:58Z</time>
      </trkpt>
      <trkpt lat="44.06338" lon="1.66984">
        <ele>164</ele>
        <time>2013-03-02T16:03:00Z</time>
      </trkpt>
      <trkpt lat="44.06325" lon="1.66988">
        <ele>163</ele>
        <time>2013-03-02T16:03:02Z</time>
      </trkpt>
      <trkpt lat="44.06316" lon="1.66989">
        <ele>162</ele>
        <time>2013-03-02T16:03:04Z</time>
      </trkpt>
      <trkpt lat="44.06308" lon="1.66985">
        <ele>161</ele>
        <time>2013-03-02T16:03:06Z</time>
      </trkpt>
      <trkpt lat="44.06299" lon="1.6698">
        <ele>160</ele>
        <time>2013-03-02T16:03:08Z</time>
      </trkpt>
      <trkpt lat="44.06289" lon="1.66978">
        <ele>159</ele>
        <time>2013-03-02T16:03:10Z</time>
      </trkpt>
      <trkpt lat="44.06277" lon="1.66977">
        <ele>159</ele>
        <time>2013-03-02T16:03:12Z</time>
      </trkpt>
      <trkpt lat="44.06267" lon="1.66976">
        <ele>159</ele>
        <time>2013-03-02T16:03:14Z</time>
      </trkpt>
      <trkpt lat="44.06257" lon="1.66974">
        <ele>159</ele>
        <time>2013-03-02T16:03:16Z</time>
      </trkpt>
      <trkpt lat="44.06248" lon="1.6697">
        <ele>159</ele>
        <time>2013-03-02T16:03:18Z</time>
      </trkpt>
      <trkpt lat="44.0624" lon="1.66965">
        <ele>159</ele>
        <time>2013-03-02T16:03:20Z</time>
      </trkpt>
      <trkpt lat="44.06234" lon="1.6696">
        <ele>159</ele>
        <time>2013-03-02T16:03:22Z</time>
      </trkpt>
      <trkpt lat="44.06229" lon="1.66955">
        <ele>159</ele>
        <time>2013-03-02T16:03:24Z</time>
      </trkpt>
      <trkpt lat="44.06225" lon="1.66951">
        <ele>159</ele>
        <time>2013-03-02T16:03:26Z</time>
      </trkpt>
      <trkpt lat="44.06221" lon="1.66948">
        <ele>159</ele>
        <time>2013-03-02T16:03:28Z</time>
      </trkpt>
      <trkpt lat="44.06216" lon="1.66944">
        <ele>159</ele>
        <time>2013-03-02T16:03:30Z</time>
      </trkpt>
      <trkpt lat="44.06211" lon="1.66941">
        <ele>159</ele>
        <time>2013-03-02T16:03:32Z</time>
      </trkpt>
      <trkpt lat="44.06206" lon="1.66938">
        <ele>159</ele>
        <time>2013-03-02T16:03:34Z</time>
      </trkpt>
      <trkpt lat="44.06201" lon="1.66936">
        <ele>159</ele>
        <time>2013-03-02T16:03:36Z</time>
      </trkpt>
      <trkpt lat="44.06196" lon="1.66934">
        <ele>159</ele>
        <time>2013-03-02T16:03:38Z</time>
      </trkpt>
      <trkpt lat="44.06191" lon="1.66932">
        <ele>159</ele>
        <time>2013-03-02T16:03:40Z</time>
      </trkpt>
      <trkpt lat="44.06186" lon="1.66931">
        <ele>159</ele>
        <time>2013-03-02T16:03:42Z</time>
      </trkpt>
      <trkpt lat="44.06181" lon="1.66931">
        <ele>159</ele>
        <time>2013-03-02T16:03:44Z</time>
      </trkpt>
      <trkpt lat="44.06176" lon="1.66931">
        <ele>159</ele>
        <time>2013-03-02T16:03:46Z</time>
      </trkpt>
      <trkpt lat="44.06171" lon="1.66931">
        <ele>159</ele>
        <time>2013-03-02T16:03:48Z</time>
      </trkpt>
      <trkpt lat="44.06166" lon="1.66932">
        <ele>159</ele>
        <time>2013-03-02T16:03:50Z</time>
      </trkpt>
      <trkpt lat="44.06161" lon="1.66934">
        <ele>159</ele>
        <time>2013-03-02T16:03:52Z</time>
      </trkpt>
      <trkpt lat="44.06156" lon="1.66936">
        <ele>160</ele>
        <time>2013-03-02T16:03:54Z</time>
      </trkpt>
      <trkpt lat="44.06152" lon="1.66938">
        <ele>160</ele>
        <time>2013-03-02T16:03:56Z</time>
      </trkpt>
      <trkpt lat="44.06147" lon="1.66941">
        <ele>160</ele>
        <time>2013-03-02T16:03:58Z</time>
      </trkpt>
      <trkpt lat="44.06142" lon="1.66943">
        <ele>161</ele>
        <time>2013-03-02T16:04:00Z</time>
      </trkpt>
      <trkpt lat="44.06137" lon="1.66946">
        <ele>161</ele>
        <time>2013-03-02T16:04:02Z</time>
      </trkpt>
      <trkpt lat="44.06133" lon="1.66949">
        <ele>161</ele>
        <time>2013-03-02T16:04:04Z</time>
      </trkpt>
      <trkpt lat="44.06127" lon="1.66952">
        <ele>161</ele>
        <time>2013-03-02T16:04:06Z</time>
      </trkpt>
      <trkpt lat="44.0612" lon="1.66954">
        <ele>161</ele>
        <time>2013-03-02T16:04:08Z</time>
      </trkpt>
      <trkpt lat="44.06112" lon="1.66956">
        <ele>161</ele>
        <time>2013-03-02T16:04:10Z</time>
      </trkpt>
      <trkpt lat="44.06103" lon="1.66956">
        <ele>161</ele>
        <time>2013-03-02T16:04:12Z</time>
      </trkpt>
      <trkpt lat="44.06093" lon="1.66953">
        <ele>161</ele>
        <time>2013-03-02T16:04:14Z</time>
      </trkpt>
      <trkpt lat="44.06086" lon="1.66948">
        <ele>161</ele>
        <time>2013-03-02T16:04:16Z</time>
      </trkpt>
      <trkpt lat="44.06081" lon="1.66941">
        <ele>161</ele>
        <time>2013-03-02T16:04:18Z</time>
      </trkpt>
      <trkpt lat="44.06078" lon="1.66937">
        <ele>161</ele>
        <time>2013-03-02T16:04:20Z</time>
      </trkpt>
      <trkpt lat="44.06078" lon="1.66935">
        <ele>161</ele>
        <time>2013-03-02T16:04:22Z</time>
      </trkpt>
      <trkpt lat="44.06079" lon="1.66933">
        <ele>161</ele>
        <time>2013-03-02T16:04:24Z</time>
      </trkpt>
      <trkpt lat="44.0608" lon="1.6693">
        <ele>161</ele>
        <time>2013-03-02T16:04:26Z</time>
      </trkpt>
      <trkpt lat="44.06081" lon="1.66927">
        <ele>161</ele>
        <time>2013-03-02T16:04:28Z</time>
      </trkpt>
      <trkpt lat="44.06082" lon="1.66925">
        <ele>161</ele>
        <time>2013-03-02T16:04:30Z</time>
      </trkpt>
      <trkpt lat="44.06084" lon="1.66923">
        <ele>161</ele>
        <time>2013-03-02T16:04:32Z</time>
      </trkpt>
      <trkpt lat="44.06085" lon="1.66922">
        <ele>161</ele>
        <time>2013-03-02T16:04:34Z</time>
      </trkpt>
      <trkpt lat="44.06086" lon="1.6692">
        <ele>161</ele>
        <time>2013-03-02T16:04:36Z</time>
      </trkpt>
      <trkpt lat="44.06087" lon="1.66919">
        <ele>161</ele>
        <time>2013-03-02T16:04:38Z</time>
      </trkpt>
      <trkpt lat="44.06089" lon="1.66917">
        <ele>161</ele>
        <time>2013-03-02T16:04:40Z</time>
      </trkpt>
      <trkpt lat="44.0609" lon="1.66915">
        <ele>161</ele>
        <time>2013-03-02T16:04:42Z</time>
      </trkpt>
      <trkpt lat="44.06092" lon="1.66913">
        <ele>161</ele>
        <time>2013-03-02T16:04:44Z</time>
      </trkpt>
      <trkpt lat="44.06094" lon="1.66912">
        <ele>161</ele>
        <time>2013-03-02T16:04:46Z</time>
      </trkpt>
      <trkpt lat="44.06097" lon="1.66914">
        <ele>161</ele>
        <time>2013-03-02T16:04:49Z</time>
      </trkpt>
      <trkpt lat="44.06099" lon="1.66915">
        <ele>161</ele>
        <time>2013-03-02T16:04:51Z</time>
      </trkpt>
      <trkpt lat="44.061" lon="1.66916">
        <ele>161</ele>
        <time>2013-03-02T16:04:53Z</time>
      </trkpt>
      <trkpt lat="44.06102" lon="1.66916">
        <ele>161</ele>
        <time>2013-03-02T16:04:55Z</time>
      </trkpt>
      <trkpt lat="44.06104" lon="1.66916">
        <ele>161</ele>
        <time>2013-03-02T16:04:57Z</time>
      </trkpt>
      <trkpt lat="44.06105" lon="1.66915">
        <ele>161</ele>
        <time>2013-03-02T16:04:59Z</time>
      </trkpt>
      <trkpt lat="44.06107" lon="1.66914">
        <ele>161</ele>
        <time>2013-03-02T16:05:01Z</time>
      </trkpt>
      <trkpt lat="44.06109" lon="1.66913">
        <ele>161</ele>
        <time>2013-03-02T16:05:03Z</time>
      </trkpt>
      <trkpt lat="44.0611" lon="1.66912">
        <ele>161</ele>
        <time>2013-03-02T16:05:05Z</time>
      </trkpt>
      <trkpt lat="44.06112" lon="1.66911">
        <ele>161</ele>
        <time>2013-03-02T16:05:07Z</time>
      </trkpt>
      <trkpt lat="44.06114" lon="1.6691">
        <ele>161</ele>
        <time>2013-03-02T16:05:09Z</time>
      </trkpt>
      <trkpt lat="44.06115" lon="1.6691">
        <ele>161</ele>
        <time>2013-03-02T16:05:11Z</time>
      </trkpt>
      <trkpt lat="44.06117" lon="1.66909">
        <ele>161</ele>
        <time>2013-03-02T16:05:13Z</time>
      </trkpt>
      <trkpt lat="44.06118" lon="1.66908">
        <ele>161</ele>
        <time>2013-03-02T16:05:15Z</time>
      </trkpt>
      <trkpt lat="44.0612" lon="1.66907">
        <ele>161</ele>
        <time>2013-03-02T16:05:17Z</time>
      </trkpt>
      <trkpt lat="44.06121" lon="1.66906">
        <ele>161</ele>
        <time>2013-03-02T16:05:19Z</time>
      </trkpt>
      <trkpt lat="44.06123" lon="1.66904">
        <ele>161</ele>
        <time>2013-03-02T16:05:24Z</time>
      </trkpt>
      <trkpt lat="44.06125" lon="1.66902">
        <ele>161</ele>
        <time>2013-03-02T16:05:26Z</time>
      </trkpt>
      <trkpt lat="44.06128" lon="1.669">
        <ele>162</ele>
        <time>2013-03-02T16:05:28Z</time>
      </trkpt>
      <trkpt lat="44.06131" lon="1.66897">
        <ele>163</ele>
        <time>2013-03-02T16:05:30Z</time>
      </trkpt>
      <trkpt lat="44.06134" lon="1.66895">
        <ele>164</ele>
        <time>2013-03-02T16:05:32Z</time>
      </trkpt>
      <trkpt lat="44.06137" lon="1.66894">
        <ele>165</ele>
        <time>2013-03-02T16:05:34Z</time>
      </trkpt>
      <trkpt lat="44.06139" lon="1.66892">
        <ele>166</ele>
        <time>2013-03-02T16:05:36Z</time>
      </trkpt>
      <trkpt lat="44.06141" lon="1.66892">
        <ele>166</ele>
        <time>2013-03-02T16:05:38Z</time>
      </trkpt>
      <trkpt lat="44.06144" lon="1.66891">
        <ele>166</ele>
        <time>2013-03-02T16:05:40Z</time>
      </trkpt>
      <trkpt lat="44.06147" lon="1.66889">
        <ele>167</ele>
        <time>2013-03-02T16:05:42Z</time>
      </trkpt>
      <trkpt lat="44.0615" lon="1.66887">
        <ele>167</ele>
        <time>2013-03-02T16:05:44Z</time>
      </trkpt>
      <trkpt lat="44.06152" lon="1.66886">
        <ele>167</ele>
        <time>2013-03-02T16:05:46Z</time>
      </trkpt>
      <trkpt lat="44.06154" lon="1.66884">
        <ele>168</ele>
        <time>2013-03-02T16:05:48Z</time>
      </trkpt>
      <trkpt lat="44.06157" lon="1.66883">
        <ele>168</ele>
        <time>2013-03-02T16:05:50Z</time>
      </trkpt>
      <trkpt lat="44.06159" lon="1.66881">
        <ele>168</ele>
        <time>2013-03-02T16:05:52Z</time>
      </trkpt>
      <trkpt lat="44.06161" lon="1.66879">
        <ele>169</ele>
        <time>2013-03-02T16:05:54Z</time>
      </trkpt>
      <trkpt lat="44.06164" lon="1.66878">
        <ele>169</ele>
        <time>2013-03-02T16:05:56Z</time>
      </trkpt>
      <trkpt lat="44.06166" lon="1.66876">
        <ele>170</ele>
        <time>2013-03-02T16:05:58Z</time>
      </trkpt>
      <trkpt lat="44.06168" lon="1.66874">
        <ele>170</ele>
        <time>2013-03-02T16:06:00Z</time>
      </trkpt>
      <trkpt lat="44.06171" lon="1.66874">
        <ele>171</ele>
        <time>2013-03-02T16:06:02Z</time>
      </trkpt>
      <trkpt lat="44.06174" lon="1.66873">
        <ele>171</ele>
        <time>2013-03-02T16:06:04Z</time>
      </trkpt>
      <trkpt lat="44.06178" lon="1.66871">
        <ele>171</ele>
        <time>2013-03-02T16:06:06Z</time>
      </trkpt>
      <trkpt lat="44.06181" lon="1.66869">
        <ele>173</ele>
        <time>2013-03-02T16:06:08Z</time>
      </trkpt>
      <trkpt lat="44.06184" lon="1.66868">
        <ele>173</ele>
        <time>2013-03-02T16:06:10Z</time>
      </trkpt>
      <trkpt lat="44.06186" lon="1.66866">
        <ele>174</ele>
        <time>2013-03-02T16:06:12Z</time>
      </trkpt>
      <trkpt lat="44.06188" lon="1.66864">
        <ele>174</ele>
        <time>2013-03-02T16:06:14Z</time>
      </trkpt>
      <trkpt lat="44.06191" lon="1.66863">
        <ele>175</ele>
        <time>2013-03-02T16:06:16Z</time>
      </trkpt>
      <trkpt lat="44.06194" lon="1.66865">
        <ele>176</ele>
        <time>2013-03-02T16:06:19Z</time>
      </trkpt>
      <trkpt lat="44.06195" lon="1.66865">
        <ele>176</ele>
        <time>2013-03-02T16:06:23Z</time>
      </trkpt>
      <trkpt lat="44.06197" lon="1.66865">
        <ele>177</ele>
        <time>2013-03-02T16:06:25Z</time>
      </trkpt>
      <trkpt lat="44.06198" lon="1.66865">
        <ele>177</ele>
        <time>2013-03-02T16:06:27Z</time>
      </trkpt>
      <trkpt lat="44.06199" lon="1.66864">
        <ele>177</ele>
        <time>2013-03-02T16:06:30Z</time>
      </trkpt>
      <trkpt lat="44.06202" lon="1.66862">
        <ele>178</ele>
        <time>2013-03-02T16:06:33Z</time>
      </trkpt>
      <trkpt lat="44.06203" lon="1.66861">
        <ele>178</ele>
        <time>2013-03-02T16:06:35Z</time>
      </trkpt>
      <trkpt lat="44.06203" lon="1.66859">
        <ele>178</ele>
        <time>2013-03-02T16:06:37Z</time>
      </trkpt>
      <trkpt lat="44.06205" lon="1.66858">
        <ele>178</ele>
        <time>2013-03-02T16:06:40Z</time>
      </trkpt>
      <trkpt lat="44.06207" lon="1.66858">
        <ele>178</ele>
        <time>2013-03-02T16:06:42Z</time>
      </trkpt>
      <trkpt lat="44.06208" lon="1.66857">
        <ele>178</ele>
        <time>2013-03-02T16:06:44Z</time>
      </trkpt>
      <trkpt lat="44.0621" lon="1.66856">
        <ele>178</ele>
        <time>2013-03-02T16:06:46Z</time>
      </trkpt>
      <trkpt lat="44.06211" lon="1.66855">
        <ele>178</ele>
        <time>2013-03-02T16:06:48Z</time>
      </trkpt>
      <trkpt lat="44.06213" lon="1.66853">
        <ele>178</ele>
        <time>2013-03-02T16:06:50Z</time>
      </trkpt>
      <trkpt lat="44.06214" lon="1.66852">
        <ele>178</ele>
        <time>2013-03-02T16:06:52Z</time>
      </trkpt>
      <trkpt lat="44.06215" lon="1.66851">
        <ele>179</ele>
        <time>2013-03-02T16:06:56Z</time>
      </trkpt>
      <trkpt lat="44.06216" lon="1.6685">
        <ele>181</ele>
        <time>2013-03-02T16:07:06Z</time>
      </trkpt>
      <trkpt lat="44.06216" lon="1.66849">
        <ele>184</ele>
        <time>2013-03-02T16:07:37Z</time>
      </trkpt>
      <trkpt lat="44.06217" lon="1.66847">
        <ele>185</ele>
        <time>2013-03-02T16:07:46Z</time>
      </trkpt>
      <trkpt lat="44.06216" lon="1.66847">
        <ele>185</ele>
        <time>2013-03-02T16:07:52Z</time>
      </trkpt>
      <trkpt lat="44.06215" lon="1.66848">
        <ele>185</ele>
        <time>2013-03-02T16:08:05Z</time>
      </trkpt>
      <trkpt lat="44.06214" lon="1.66849">
        <ele>185</ele>
        <time>2013-03-02T16:08:22Z</time>
      </trkpt>
      <trkpt lat="44.06213" lon="1.66849">
        <ele>185</ele>
        <time>2013-03-02T16:08:30Z</time>
      </trkpt>
      <trkpt lat="44.06213" lon="1.6685">
        <ele>185</ele>
        <time>2013-03-02T16:08:50Z</time>
      </trkpt>
      <trkpt lat="44.06213" lon="1.66852">
        <ele>185</ele>
        <time>2013-03-02T16:08:54Z</time>
      </trkpt>
      <trkpt lat="44.06212" lon="1.66853">
        <ele>186</ele>
        <time>2013-03-02T16:09:01Z</time>
      </trkpt>
      <trkpt lat="44.06213" lon="1.66853">
        <ele>188</ele>
        <time>2013-03-02T16:09:30Z</time>
      </trkpt>
      <trkpt lat="44.06215" lon="1.66852">
        <ele>188</ele>
        <time>2013-03-02T16:09:32Z</time>
      </trkpt>
      <trkpt lat="44.06217" lon="1.66851">
        <ele>188</ele>
        <time>2013-03-02T16:09:34Z</time>
      </trkpt>
      <trkpt lat="44.06219" lon="1.6685">
        <ele>188</ele>
        <time>2013-03-02T16:09:36Z</time>
      </trkpt>
      <trkpt lat="44.06221" lon="1.6685">
        <ele>188</ele>
        <time>2013-03-02T16:09:38Z</time>
      </trkpt>
      <trkpt lat="44.06222" lon="1.6685">
        <ele>188</ele>
        <time>2013-03-02T16:09:40Z</time>
      </trkpt>
      <trkpt lat="44.06223" lon="1.6685">
        <ele>188</ele>
        <time>2013-03-02T16:09:42Z</time>
      </trkpt>
      <trkpt lat="44.06224" lon="1.6685">
        <ele>188</ele>
        <time>2013-03-02T16:09:44Z</time>
      </trkpt>
      <trkpt lat="44.06226" lon="1.6685">
        <ele>188</ele>
        <time>2013-03-02T16:09:46Z</time>
      </trkpt>
      <trkpt lat="44.06227" lon="1.6685">
        <ele>188</ele>
        <time>2013-03-02T16:09:48Z</time>
      </trkpt>
      <trkpt lat="44.06229" lon="1.66849">
        <ele>188</ele>
        <time>2013-03-02T16:09:50Z</time>
      </trkpt>
      <trkpt lat="44.06231" lon="1.66847">
        <ele>188</ele>
        <time>2013-03-02T16:09:53Z</time>
      </trkpt>
      <trkpt lat="44.06232" lon="1.66846">
        <ele>188</ele>
        <time>2013-03-02T16:09:55Z</time>
      </trkpt>
      <trkpt lat="44.06234" lon="1.66846">
        <ele>188</ele>
        <time>2013-03-02T16:09:57Z</time>
      </trkpt>
      <trkpt lat="44.06235" lon="1.66846">
        <ele>188</ele>
        <time>2013-03-02T16:09:59Z</time>
      </trkpt>
      <trkpt lat="44.06237" lon="1.66845">
        <ele>188</ele>
        <time>2013-03-02T16:10:01Z</time>
      </trkpt>
      <trkpt lat="44.06238" lon="1.66844">
        <ele>188</ele>
        <time>2013-03-02T16:10:03Z</time>
      </trkpt>
      <trkpt lat="44.06239" lon="1.66844">
        <ele>188</ele>
        <time>2013-03-02T16:10:05Z</time>
      </trkpt>
      <trkpt lat="44.06241" lon="1.66843">
        <ele>188</ele>
        <time>2013-03-02T16:10:07Z</time>
      </trkpt>
      <trkpt lat="44.06243" lon="1.66842">
        <ele>188</ele>
        <time>2013-03-02T16:10:09Z</time>
      </trkpt>
      <trkpt lat="44.06246" lon="1.66839">
        <ele>188</ele>
        <time>2013-03-02T16:10:12Z</time>
      </trkpt>
      <trkpt lat="44.06247" lon="1.66839">
        <ele>188</ele>
        <time>2013-03-02T16:10:14Z</time>
      </trkpt>
      <trkpt lat="44.06248" lon="1.66838">
        <ele>188</ele>
        <time>2013-03-02T16:10:16Z</time>
      </trkpt>
      <trkpt lat="44.0625" lon="1.66836">
        <ele>188</ele>
        <time>2013-03-02T16:10:18Z</time>
      </trkpt>
      <trkpt lat="44.06251" lon="1.66836">
        <ele>189</ele>
        <time>2013-03-02T16:10:24Z</time>
      </trkpt>
      <trkpt lat="44.06252" lon="1.66836">
        <ele>189</ele>
        <time>2013-03-02T16:10:26Z</time>
      </trkpt>
      <trkpt lat="44.06254" lon="1.66835">
        <ele>189</ele>
        <time>2013-03-02T16:10:28Z</time>
      </trkpt>
      <trkpt lat="44.06255" lon="1.66833">
        <ele>189</ele>
        <time>2013-03-02T16:10:30Z</time>
      </trkpt>
      <trkpt lat="44.06257" lon="1.66832">
        <ele>189</ele>
        <time>2013-03-02T16:10:32Z</time>
      </trkpt>
      <trkpt lat="44.06258" lon="1.6683">
        <ele>189</ele>
        <time>2013-03-02T16:10:34Z</time>
      </trkpt>
      <trkpt lat="44.0626" lon="1.66829">
        <ele>189</ele>
        <time>2013-03-02T16:10:36Z</time>
      </trkpt>
      <trkpt lat="44.06261" lon="1.66828">
        <ele>189</ele>
        <time>2013-03-02T16:10:38Z</time>
      </trkpt>
      <trkpt lat="44.06263" lon="1.66826">
        <ele>189</ele>
        <time>2013-03-02T16:10:40Z</time>
      </trkpt>
      <trkpt lat="44.06264" lon="1.66825">
        <ele>189</ele>
        <time>2013-03-02T16:10:42Z</time>
      </trkpt>
      <trkpt lat="44.06266" lon="1.66823">
        <ele>189</ele>
        <time>2013-03-02T16:10:44Z</time>
      </trkpt>
      <trkpt lat="44.06267" lon="1.66822">
        <ele>190</ele>
        <time>2013-03-02T16:10:47Z</time>
      </trkpt>
      <trkpt lat="44.06269" lon="1.66821">
        <ele>190</ele>
        <time>2013-03-02T16:10:52Z</time>
      </trkpt>
      <trkpt lat="44.0627" lon="1.6682">
        <ele>191</ele>
        <time>2013-03-02T16:10:57Z</time>
      </trkpt>
      <trkpt lat="44.06271" lon="1.66818">
        <ele>192</ele>
        <time>2013-03-02T16:10:59Z</time>
      </trkpt>
      <trkpt lat="44.06273" lon="1.66817">
        <ele>193</ele>
        <time>2013-03-02T16:11:03Z</time>
      </trkpt>
      <trkpt lat="44.06275" lon="1.66816">
        <ele>193</ele>
        <time>2013-03-02T16:11:05Z</time>
      </trkpt>
      <trkpt lat="44.06277" lon="1.66814">
        <ele>193</ele>
        <time>2013-03-02T16:11:07Z</time>
      </trkpt>
      <trkpt lat="44.06279" lon="1.66812">
        <ele>194</ele>
        <time>2013-03-02T16:11:09Z</time>
      </trkpt>
      <trkpt lat="44.06281" lon="1.66811">
        <ele>194</ele>
        <time>2013-03-02T16:11:11Z</time>
      </trkpt>
      <trkpt lat="44.06283" lon="1.66809">
        <ele>194</ele>
        <time>2013-03-02T16:11:13Z</time>
      </trkpt>
      <trkpt lat="44.06287" lon="1.66807">
        <ele>194</ele>
        <time>2013-03-02T16:11:16Z</time>
      </trkpt>
      <trkpt lat="44.06289" lon="1.66805">
        <ele>194</ele>
        <time>2013-03-02T16:11:18Z</time>
      </trkpt>
      <trkpt lat="44.06291" lon="1.66804">
        <ele>194</ele>
        <time>2013-03-02T16:11:20Z</time>
      </trkpt>
      <trkpt lat="44.06293" lon="1.66802">
        <ele>194</ele>
        <time>2013-03-02T16:11:22Z</time>
      </trkpt>
      <trkpt lat="44.06296" lon="1.66799">
        <ele>194</ele>
        <time>2013-03-02T16:11:24Z</time>
      </trkpt>
      <trkpt lat="44.06299" lon="1.66796">
        <ele>194</ele>
        <time>2013-03-02T16:11:26Z</time>
      </trkpt>
      <trkpt lat="44.06303" lon="1.66793">
        <ele>194</ele>
        <time>2013-03-02T16:11:28Z</time>
      </trkpt>
      <trkpt lat="44.06306" lon="1.6679">
        <ele>194</ele>
        <time>2013-03-02T16:11:30Z</time>
      </trkpt>
      <trkpt lat="44.0631" lon="1.66787">
        <ele>194</ele>
        <time>2013-03-02T16:11:32Z</time>
      </trkpt>
      <trkpt lat="44.06314" lon="1.66783">
        <ele>194</ele>
        <time>2013-03-02T16:11:34Z</time>
      </trkpt>
      <trkpt lat="44.06319" lon="1.6678">
        <ele>194</ele>
        <time>2013-03-02T16:11:36Z</time>
      </trkpt>
      <trkpt lat="44.06322" lon="1.66778">
        <ele>194</ele>
        <time>2013-03-02T16:11:38Z</time>
      </trkpt>
      <trkpt lat="44.06326" lon="1.66775">
        <ele>194</ele>
        <time>2013-03-02T16:11:40Z</time>
      </trkpt>
      <trkpt lat="44.06329" lon="1.66771">
        <ele>194</ele>
        <time>2013-03-02T16:11:42Z</time>
      </trkpt>
      <trkpt lat="44.06332" lon="1.6677">
        <ele>194</ele>
        <time>2013-03-02T16:11:44Z</time>
      </trkpt>
      <trkpt lat="44.06335" lon="1.66767">
        <ele>194</ele>
        <time>2013-03-02T16:11:46Z</time>
      </trkpt>
      <trkpt lat="44.06339" lon="1.66764">
        <ele>194</ele>
        <time>2013-03-02T16:11:48Z</time>
      </trkpt>
      <trkpt lat="44.06344" lon="1.66761">
        <ele>194</ele>
        <time>2013-03-02T16:11:50Z</time>
      </trkpt>
      <trkpt lat="44.06347" lon="1.66757">
        <ele>194</ele>
        <time>2013-03-02T16:11:52Z</time>
      </trkpt>
      <trkpt lat="44.06351" lon="1.66753">
        <ele>194</ele>
        <time>2013-03-02T16:11:54Z</time>
      </trkpt>
      <trkpt lat="44.06356" lon="1.6675">
        <ele>194</ele>
        <time>2013-03-02T16:11:56Z</time>
      </trkpt>
      <trkpt lat="44.06361" lon="1.66747">
        <ele>194</ele>
        <time>2013-03-02T16:11:58Z</time>
      </trkpt>
      <trkpt lat="44.06366" lon="1.66745">
        <ele>194</ele>
        <time>2013-03-02T16:12:00Z</time>
      </trkpt>
      <trkpt lat="44.06371" lon="1.66742">
        <ele>194</ele>
        <time>2013-03-02T16:12:02Z</time>
      </trkpt>
      <trkpt lat="44.06376" lon="1.66738">
        <ele>194</ele>
        <time>2013-03-02T16:12:04Z</time>
      </trkpt>
      <trkpt lat="44.06381" lon="1.66734">
        <ele>194</ele>
        <time>2013-03-02T16:12:06Z</time>
      </trkpt>
      <trkpt lat="44.06385" lon="1.66731">
        <ele>194</ele>
        <time>2013-03-02T16:12:08Z</time>
      </trkpt>
      <trkpt lat="44.0639" lon="1.66727">
        <ele>195</ele>
        <time>2013-03-02T16:12:10Z</time>
      </trkpt>
      <trkpt lat="44.06395" lon="1.66723">
        <ele>195</ele>
        <time>2013-03-02T16:12:12Z</time>
      </trkpt>
      <trkpt lat="44.06399" lon="1.66721">
        <ele>196</ele>
        <time>2013-03-02T16:12:14Z</time>
      </trkpt>
      <trkpt lat="44.06402" lon="1.66718">
        <ele>196</ele>
        <time>2013-03-02T16:12:16Z</time>
      </trkpt>
      <trkpt lat="44.06406" lon="1.66716">
        <ele>197</ele>
        <time>2013-03-02T16:12:18Z</time>
      </trkpt>
      <trkpt lat="44.06409" lon="1.66714">
        <ele>197</ele>
        <time>2013-03-02T16:12:20Z</time>
      </trkpt>
      <trkpt lat="44.06412" lon="1.66712">
        <ele>198</ele>
        <time>2013-03-02T16:12:22Z</time>
      </trkpt>
      <trkpt lat="44.06415" lon="1.66708">
        <ele>198</ele>
        <time>2013-03-02T16:12:25Z</time>
      </trkpt>
      <trkpt lat="44.06418" lon="1.66705">
        <ele>199</ele>
        <time>2013-03-02T16:12:27Z</time>
      </trkpt>
      <trkpt lat="44.06421" lon="1.66702">
        <ele>200</ele>
        <time>2013-03-02T16:12:30Z</time>
      </trkpt>
      <trkpt lat="44.06425" lon="1.66698">
        <ele>200</ele>
        <time>2013-03-02T16:12:32Z</time>
      </trkpt>
      <trkpt lat="44.06428" lon="1.66697">
        <ele>201</ele>
        <time>2013-03-02T16:12:34Z</time>
      </trkpt>
      <trkpt lat="44.06431" lon="1.66694">
        <ele>201</ele>
        <time>2013-03-02T16:12:36Z</time>
      </trkpt>
      <trkpt lat="44.06434" lon="1.6669">
        <ele>202</ele>
        <time>2013-03-02T16:12:38Z</time>
      </trkpt>
      <trkpt lat="44.06437" lon="1.66688">
        <ele>203</ele>
        <time>2013-03-02T16:12:40Z</time>
      </trkpt>
      <trkpt lat="44.0644" lon="1.66686">
        <ele>203</ele>
        <time>2013-03-02T16:12:42Z</time>
      </trkpt>
      <trkpt lat="44.06443" lon="1.66684">
        <ele>204</ele>
        <time>2013-03-02T16:12:44Z</time>
      </trkpt>
      <trkpt lat="44.06447" lon="1.66683">
        <ele>204</ele>
        <time>2013-03-02T16:12:46Z</time>
      </trkpt>
      <trkpt lat="44.0645" lon="1.66681">
        <ele>204</ele>
        <time>2013-03-02T16:12:48Z</time>
      </trkpt>
      <trkpt lat="44.06453" lon="1.66681">
        <ele>205</ele>
        <time>2013-03-02T16:12:50Z</time>
      </trkpt>
      <trkpt lat="44.06456" lon="1.66679">
        <ele>205</ele>
        <time>2013-03-02T16:12:52Z</time>
      </trkpt>
      <trkpt lat="44.06459" lon="1.66677">
        <ele>205</ele>
        <time>2013-03-02T16:12:54Z</time>
      </trkpt>
      <trkpt lat="44.06462" lon="1.66674">
        <ele>206</ele>
        <time>2013-03-02T16:12:56Z</time>
      </trkpt>
      <trkpt lat="44.06464" lon="1.66671">
        <ele>206</ele>
        <time>2013-03-02T16:12:58Z</time>
      </trkpt>
      <trkpt lat="44.06466" lon="1.66668">
        <ele>206</ele>
        <time>2013-03-02T16:13:00Z</time>
      </trkpt>
      <trkpt lat="44.06468" lon="1.66665">
        <ele>207</ele>
        <time>2013-03-02T16:13:02Z</time>
      </trkpt>
      <trkpt lat="44.06471" lon="1.66661">
        <ele>207</ele>
        <time>2013-03-02T16:13:04Z</time>
      </trkpt>
      <trkpt lat="44.06474" lon="1.66659">
        <ele>208</ele>
        <time>2013-03-02T16:13:06Z</time>
      </trkpt>
      <trkpt lat="44.06477" lon="1.66656">
        <ele>209</ele>
        <time>2013-03-02T16:13:08Z</time>
      </trkpt>
      <trkpt lat="44.0648" lon="1.66653">
        <ele>209</ele>
        <time>2013-03-02T16:13:10Z</time>
      </trkpt>
      <trkpt lat="44.06483" lon="1.66649">
        <ele>209</ele>
        <time>2013-03-02T16:13:12Z</time>
      </trkpt>
      <trkpt lat="44.06486" lon="1.66645">
        <ele>209</ele>
        <time>2013-03-02T16:13:14Z</time>
      </trkpt>
      <trkpt lat="44.0649" lon="1.66641">
        <ele>210</ele>
        <time>2013-03-02T16:13:16Z</time>
      </trkpt>
      <trkpt lat="44.06493" lon="1.66639">
        <ele>211</ele>
        <time>2013-03-02T16:13:18Z</time>
      </trkpt>
      <trkpt lat="44.06496" lon="1.66635">
        <ele>211</ele>
        <time>2013-03-02T16:13:20Z</time>
      </trkpt>
      <trkpt lat="44.06498" lon="1.66632">
        <ele>211</ele>
        <time>2013-03-02T16:13:22Z</time>
      </trkpt>
      <trkpt lat="44.06501" lon="1.66628">
        <ele>212</ele>
        <time>2013-03-02T16:13:24Z</time>
      </trkpt>
      <trkpt lat="44.06505" lon="1.66625">
        <ele>212</ele>
        <time>2013-03-02T16:13:26Z</time>
      </trkpt>
      <trkpt lat="44.06509" lon="1.66622">
        <ele>212</ele>
        <time>2013-03-02T16:13:28Z</time>
      </trkpt>
      <trkpt lat="44.06513" lon="1.66619">
        <ele>212</ele>
        <time>2013-03-02T16:13:30Z</time>
      </trkpt>
      <trkpt lat="44.06517" lon="1.66615">
        <ele>212</ele>
        <time>2013-03-02T16:13:32Z</time>
      </trkpt>
      <trkpt lat="44.0652" lon="1.6661">
        <ele>212</ele>
        <time>2013-03-02T16:13:34Z</time>
      </trkpt>
      <trkpt lat="44.06522" lon="1.66605">
        <ele>212</ele>
        <time>2013-03-02T16:13:36Z</time>
      </trkpt>
      <trkpt lat="44.06524" lon="1.666">
        <ele>213</ele>
        <time>2013-03-02T16:13:38Z</time>
      </trkpt>
      <trkpt lat="44.06527" lon="1.66596">
        <ele>213</ele>
        <time>2013-03-02T16:13:40Z</time>
      </trkpt>
      <trkpt lat="44.0653" lon="1.66592">
        <ele>214</ele>
        <time>2013-03-02T16:13:42Z</time>
      </trkpt>
      <trkpt lat="44.06533" lon="1.66589">
        <ele>214</ele>
        <time>2013-03-02T16:13:44Z</time>
      </trkpt>
      <trkpt lat="44.06537" lon="1.66587">
        <ele>214</ele>
        <time>2013-03-02T16:13:46Z</time>
      </trkpt>
      <trkpt lat="44.06541" lon="1.66586">
        <ele>214</ele>
        <time>2013-03-02T16:13:48Z</time>
      </trkpt>
      <trkpt lat="44.06546" lon="1.66585">
        <ele>215</ele>
        <time>2013-03-02T16:13:50Z</time>
      </trkpt>
      <trkpt lat="44.06549" lon="1.66581">
        <ele>215</ele>
        <time>2013-03-02T16:13:52Z</time>
      </trkpt>
      <trkpt lat="44.06553" lon="1.66575">
        <ele>215</ele>
        <time>2013-03-02T16:13:54Z</time>
      </trkpt>
      <trkpt lat="44.06557" lon="1.6657">
        <ele>215</ele>
        <time>2013-03-02T16:13:56Z</time>
      </trkpt>
      <trkpt lat="44.0656" lon="1.66564">
        <ele>215</ele>
        <time>2013-03-02T16:13:58Z</time>
      </trkpt>
      <trkpt lat="44.06562" lon="1.66558">
        <ele>215</ele>
        <time>2013-03-02T16:14:00Z</time>
      </trkpt>
      <trkpt lat="44.06564" lon="1.66551">
        <ele>215</ele>
        <time>2013-03-02T16:14:02Z</time>
      </trkpt>
      <trkpt lat="44.06568" lon="1.66544">
        <ele>216</ele>
        <time>2013-03-02T16:14:04Z</time>
      </trkpt>
      <trkpt lat="44.06571" lon="1.66538">
        <ele>216</ele>
        <time>2013-03-02T16:14:06Z</time>
      </trkpt>
      <trkpt lat="44.06575" lon="1.66531">
        <ele>216</ele>
        <time>2013-03-02T16:14:08Z</time>
      </trkpt>
      <trkpt lat="44.0658" lon="1.66523">
        <ele>216</ele>
        <time>2013-03-02T16:14:10Z</time>
      </trkpt>
      <trkpt lat="44.06585" lon="1.66516">
        <ele>216</ele>
        <time>2013-03-02T16:14:12Z</time>
      </trkpt>
      <trkpt lat="44.06591" lon="1.66508">
        <ele>216</ele>
        <time>2013-03-02T16:14:14Z</time>
      </trkpt>
      <trkpt lat="44.06596" lon="1.665">
        <ele>216</ele>
        <time>2013-03-02T16:14:16Z</time>
      </trkpt>
      <trkpt lat="44.06602" lon="1.66492">
        <ele>216</ele>
        <time>2013-03-02T16:14:18Z</time>
      </trkpt>
      <trkpt lat="44.06609" lon="1.66485">
        <ele>216</ele>
        <time>2013-03-02T16:14:20Z</time>
      </trkpt>
      <trkpt lat="44.06616" lon="1.66479">
        <ele>216</ele>
        <time>2013-03-02T16:14:22Z</time>
      </trkpt>
      <trkpt lat="44.06623" lon="1.66472">
        <ele>216</ele>
        <time>2013-03-02T16:14:24Z</time>
      </trkpt>
      <trkpt lat="44.0663" lon="1.66466">
        <ele>216</ele>
        <time>2013-03-02T16:14:26Z</time>
      </trkpt>
      <trkpt lat="44.06637" lon="1.66459">
        <ele>216</ele>
        <time>2013-03-02T16:14:28Z</time>
      </trkpt>
      <trkpt lat="44.06645" lon="1.66451">
        <ele>216</ele>
        <time>2013-03-02T16:14:30Z</time>
      </trkpt>
      <trkpt lat="44.06652" lon="1.66443">
        <ele>216</ele>
        <time>2013-03-02T16:14:32Z</time>
      </trkpt>
      <trkpt lat="44.06659" lon="1.66434">
        <ele>216</ele>
        <time>2013-03-02T16:14:34Z</time>
      </trkpt>
      <trkpt lat="44.06667" lon="1.66425">
        <ele>216</ele>
        <time>2013-03-02T16:14:36Z</time>
      </trkpt>
      <trkpt lat="44.06675" lon="1.66418">
        <ele>216</ele>
        <time>2013-03-02T16:14:38Z</time>
      </trkpt>
      <trkpt lat="44.06683" lon="1.66413">
        <ele>216</ele>
        <time>2013-03-02T16:14:40Z</time>
      </trkpt>
      <trkpt lat="44.06693" lon="1.66407">
        <ele>216</ele>
        <time>2013-03-02T16:14:42Z</time>
      </trkpt>
      <trkpt lat="44.06702" lon="1.66401">
        <ele>216</ele>
        <time>2013-03-02T16:14:44Z</time>
      </trkpt>
      <trkpt lat="44.06712" lon="1.66395">
        <ele>216</ele>
        <time>2013-03-02T16:14:46Z</time>
      </trkpt>
      <trkpt lat="44.06722" lon="1.66389">
        <ele>215</ele>
        <time>2013-03-02T16:14:48Z</time>
      </trkpt>
      <trkpt lat="44.06732" lon="1.66383">
        <ele>214</ele>
        <time>2013-03-02T16:14:50Z</time>
      </trkpt>
      <trkpt lat="44.06742" lon="1.6638">
        <ele>212</ele>
        <time>2013-03-02T16:14:52Z</time>
      </trkpt>
      <trkpt lat="44.06751" lon="1.66383">
        <ele>212</ele>
        <time>2013-03-02T16:14:54Z</time>
      </trkpt>
      <trkpt lat="44.06761" lon="1.66386">
        <ele>212</ele>
        <time>2013-03-02T16:14:56Z</time>
      </trkpt>
      <trkpt lat="44.06771" lon="1.66391">
        <ele>212</ele>
        <time>2013-03-02T16:14:58Z</time>
      </trkpt>
      <trkpt lat="44.06779" lon="1.66396">
        <ele>211</ele>
        <time>2013-03-02T16:15:00Z</time>
      </trkpt>
      <trkpt lat="44.06788" lon="1.66401">
        <ele>211</ele>
        <time>2013-03-02T16:15:02Z</time>
      </trkpt>
      <trkpt lat="44.06799" lon="1.66405">
        <ele>211</ele>
        <time>2013-03-02T16:15:04Z</time>
      </trkpt>
      <trkpt lat="44.0681" lon="1.66409">
        <ele>210</ele>
        <time>2013-03-02T16:15:06Z</time>
      </trkpt>
      <trkpt lat="44.06821" lon="1.66413">
        <ele>210</ele>
        <time>2013-03-02T16:15:08Z</time>
      </trkpt>
      <trkpt lat="44.06834" lon="1.66417">
        <ele>209</ele>
        <time>2013-03-02T16:15:10Z</time>
      </trkpt>
      <trkpt lat="44.06845" lon="1.66421">
        <ele>209</ele>
        <time>2013-03-02T16:15:12Z</time>
      </trkpt>
      <trkpt lat="44.06857" lon="1.66425">
        <ele>208</ele>
        <time>2013-03-02T16:15:14Z</time>
      </trkpt>
      <trkpt lat="44.06867" lon="1.66431">
        <ele>208</ele>
        <time>2013-03-02T16:15:16Z</time>
      </trkpt>
      <trkpt lat="44.06877" lon="1.66438">
        <ele>207</ele>
        <time>2013-03-02T16:15:18Z</time>
      </trkpt>
      <trkpt lat="44.06886" lon="1.66445">
        <ele>206</ele>
        <time>2013-03-02T16:15:20Z</time>
      </trkpt>
      <trkpt lat="44.06896" lon="1.66452">
        <ele>205</ele>
        <time>2013-03-02T16:15:22Z</time>
      </trkpt>
      <trkpt lat="44.06906" lon="1.66458">
        <ele>204</ele>
        <time>2013-03-02T16:15:24Z</time>
      </trkpt>
      <trkpt lat="44.06916" lon="1.66464">
        <ele>203</ele>
        <time>2013-03-02T16:15:26Z</time>
      </trkpt>
      <trkpt lat="44.06927" lon="1.66471">
        <ele>202</ele>
        <time>2013-03-02T16:15:28Z</time>
      </trkpt>
      <trkpt lat="44.06938" lon="1.66478">
        <ele>202</ele>
        <time>2013-03-02T16:15:30Z</time>
      </trkpt>
      <trkpt lat="44.06949" lon="1.66485">
        <ele>202</ele>
        <time>2013-03-02T16:15:32Z</time>
      </trkpt>
      <trkpt lat="44.0696" lon="1.66492">
        <ele>202</ele>
        <time>2013-03-02T16:15:34Z</time>
      </trkpt>
      <trkpt lat="44.06971" lon="1.66497">
        <ele>202</ele>
        <time>2013-03-02T16:15:36Z</time>
      </trkpt>
      <trkpt lat="44.06979" lon="1.665">
        <ele>202</ele>
        <time>2013-03-02T16:15:38Z</time>
      </trkpt>
      <trkpt lat="44.06985" lon="1.66501">
        <ele>202</ele>
        <time>2013-03-02T16:15:40Z</time>
      </trkpt>
      <trkpt lat="44.06992" lon="1.66501">
        <ele>202</ele>
        <time>2013-03-02T16:15:42Z</time>
      </trkpt>
      <trkpt lat="44.06998" lon="1.66501">
        <ele>202</ele>
        <time>2013-03-02T16:15:44Z</time>
      </trkpt>
      <trkpt lat="44.07005" lon="1.66502">
        <ele>203</ele>
        <time>2013-03-02T16:15:46Z</time>
      </trkpt>
      <trkpt lat="44.07011" lon="1.66503">
        <ele>204</ele>
        <time>2013-03-02T16:15:48Z</time>
      </trkpt>
      <trkpt lat="44.07017" lon="1.66505">
        <ele>205</ele>
        <time>2013-03-02T16:15:50Z</time>
      </trkpt>
      <trkpt lat="44.07023" lon="1.66508">
        <ele>206</ele>
        <time>2013-03-02T16:15:52Z</time>
      </trkpt>
      <trkpt lat="44.07027" lon="1.66511">
        <ele>206</ele>
        <time>2013-03-02T16:15:54Z</time>
      </trkpt>
      <trkpt lat="44.07032" lon="1.66515">
        <ele>207</ele>
        <time>2013-03-02T16:15:56Z</time>
      </trkpt>
      <trkpt lat="44.07037" lon="1.6652">
        <ele>208</ele>
        <time>2013-03-02T16:15:58Z</time>
      </trkpt>
      <trkpt lat="44.07042" lon="1.66525">
        <ele>209</ele>
        <time>2013-03-02T16:16:00Z</time>
      </trkpt>
      <trkpt lat="44.07047" lon="1.6653">
        <ele>210</ele>
        <time>2013-03-02T16:16:02Z</time>
      </trkpt>
      <trkpt lat="44.07051" lon="1.66534">
        <ele>212</ele>
        <time>2013-03-02T16:16:04Z</time>
      </trkpt>
      <trkpt lat="44.07055" lon="1.6654">
        <ele>213</ele>
        <time>2013-03-02T16:16:06Z</time>
      </trkpt>
      <trkpt lat="44.0706" lon="1.66544">
        <ele>213</ele>
        <time>2013-03-02T16:16:08Z</time>
      </trkpt>
      <trkpt lat="44.07064" lon="1.66549">
        <ele>214</ele>
        <time>2013-03-02T16:16:10Z</time>
      </trkpt>
      <trkpt lat="44.07069" lon="1.66555">
        <ele>214</ele>
        <time>2013-03-02T16:16:12Z</time>
      </trkpt>
      <trkpt lat="44.07073" lon="1.66561">
        <ele>214</ele>
        <time>2013-03-02T16:16:14Z</time>
      </trkpt>
      <trkpt lat="44.07076" lon="1.66567">
        <ele>214</ele>
        <time>2013-03-02T16:16:16Z</time>
      </trkpt>
      <trkpt lat="44.0708" lon="1.66573">
        <ele>214</ele>
        <time>2013-03-02T16:16:18Z</time>
      </trkpt>
      <trkpt lat="44.07084" lon="1.66579">
        <ele>214</ele>
        <time>2013-03-02T16:16:20Z</time>
      </trkpt>
      <trkpt lat="44.07088" lon="1.66584">
        <ele>215</ele>
        <time>2013-03-02T16:16:22Z</time>
      </trkpt>
      <trkpt lat="44.07091" lon="1.6659">
        <ele>216</ele>
        <time>2013-03-02T16:16:24Z</time>
      </trkpt>
      <trkpt lat="44.07094" lon="1.66595">
        <ele>217</ele>
        <time>2013-03-02T16:16:26Z</time>
      </trkpt>
      <trkpt lat="44.07097" lon="1.66601">
        <ele>217</ele>
        <time>2013-03-02T16:16:28Z</time>
      </trkpt>
      <trkpt lat="44.071" lon="1.66607">
        <ele>218</ele>
        <time>2013-03-02T16:16:30Z</time>
      </trkpt>
      <trkpt lat="44.07103" lon="1.66613">
        <ele>219</ele>
        <time>2013-03-02T16:16:32Z</time>
      </trkpt>
      <trkpt lat="44.07106" lon="1.66617">
        <ele>220</ele>
        <time>2013-03-02T16:16:34Z</time>
      </trkpt>
      <trkpt lat="44.0711" lon="1.66622">
        <ele>221</ele>
        <time>2013-03-02T16:16:36Z</time>
      </trkpt>
      <trkpt lat="44.07114" lon="1.66626">
        <ele>221</ele>
        <time>2013-03-02T16:16:38Z</time>
      </trkpt>
      <trkpt lat="44.07118" lon="1.6663">
        <ele>222</ele>
        <time>2013-03-02T16:16:40Z</time>
      </trkpt>
      <trkpt lat="44.07122" lon="1.66634">
        <ele>222</ele>
        <time>2013-03-02T16:16:42Z</time>
      </trkpt>
      <trkpt lat="44.07127" lon="1.66637">
        <ele>223</ele>
        <time>2013-03-02T16:16:44Z</time>
      </trkpt>
      <trkpt lat="44.07131" lon="1.66639">
        <ele>223</ele>
        <time>2013-03-02T16:16:46Z</time>
      </trkpt>
      <trkpt lat="44.07136" lon="1.66641">
        <ele>224</ele>
        <time>2013-03-02T16:16:48Z</time>
      </trkpt>
      <trkpt lat="44.0714" lon="1.66644">
        <ele>224</ele>
        <time>2013-03-02T16:16:50Z</time>
      </trkpt>
      <trkpt lat="44.07145" lon="1.66646">
        <ele>224</ele>
        <time>2013-03-02T16:16:52Z</time>
      </trkpt>
      <trkpt lat="44.07151" lon="1.66649">
        <ele>224</ele>
        <time>2013-03-02T16:16:54Z</time>
      </trkpt>
      <trkpt lat="44.07156" lon="1.66653">
        <ele>224</ele>
        <time>2013-03-02T16:16:56Z</time>
      </trkpt>
      <trkpt lat="44.0716" lon="1.66658">
        <ele>224</ele>
        <time>2013-03-02T16:16:58Z</time>
      </trkpt>
      <trkpt lat="44.07164" lon="1.66665">
        <ele>224</ele>
        <time>2013-03-02T16:17:00Z</time>
      </trkpt>
      <trkpt lat="44.07168" lon="1.66671">
        <ele>224</ele>
        <time>2013-03-02T16:17:02Z</time>
      </trkpt>
      <trkpt lat="44.07172" lon="1.66676">
        <ele>224</ele>
        <time>2013-03-02T16:17:04Z</time>
      </trkpt>
      <trkpt lat="44.07177" lon="1.66682">
        <ele>224</ele>
        <time>2013-03-02T16:17:06Z</time>
      </trkpt>
      <trkpt lat="44.07181" lon="1.66687">
        <ele>224</ele>
        <time>2013-03-02T16:17:08Z</time>
      </trkpt>
      <trkpt lat="44.07185" lon="1.66693">
        <ele>224</ele>
        <time>2013-03-02T16:17:10Z</time>
      </trkpt>
      <trkpt lat="44.07189" lon="1.66698">
        <ele>224</ele>
        <time>2013-03-02T16:17:12Z</time>
      </trkpt>
      <trkpt lat="44.07193" lon="1.66704">
        <ele>224</ele>
        <time>2013-03-02T16:17:14Z</time>
      </trkpt>
      <trkpt lat="44.07197" lon="1.66711">
        <ele>224</ele>
        <time>2013-03-02T16:17:16Z</time>
      </trkpt>
      <trkpt lat="44.07201" lon="1.6672">
        <ele>224</ele>
        <time>2013-03-02T16:17:18Z</time>
      </trkpt>
      <trkpt lat="44.07204" lon="1.66728">
        <ele>224</ele>
        <time>2013-03-02T16:17:20Z</time>
      </trkpt>
      <trkpt lat="44.07208" lon="1.66738">
        <ele>225</ele>
        <time>2013-03-02T16:17:22Z</time>
      </trkpt>
      <trkpt lat="44.07212" lon="1.66749">
        <ele>225</ele>
        <time>2013-03-02T16:17:24Z</time>
      </trkpt>
      <trkpt lat="44.07216" lon="1.66758">
        <ele>226</ele>
        <time>2013-03-02T16:17:26Z</time>
      </trkpt>
      <trkpt lat="44.0722" lon="1.66769">
        <ele>226</ele>
        <time>2013-03-02T16:17:28Z</time>
      </trkpt>
      <trkpt lat="44.07224" lon="1.66778">
        <ele>227</ele>
        <time>2013-03-02T16:17:30Z</time>
      </trkpt>
      <trkpt lat="44.0723" lon="1.66786">
        <ele>227</ele>
        <time>2013-03-02T16:17:32Z</time>
      </trkpt>
      <trkpt lat="44.07235" lon="1.66794">
        <ele>227</ele>
        <time>2013-03-02T16:17:34Z</time>
      </trkpt>
      <trkpt lat="44.07241" lon="1.66803">
        <ele>227</ele>
        <time>2013-03-02T16:17:36Z</time>
      </trkpt>
      <trkpt lat="44.07248" lon="1.66811">
        <ele>227</ele>
        <time>2013-03-02T16:17:38Z</time>
      </trkpt>
      <trkpt lat="44.07255" lon="1.6682">
        <ele>227</ele>
        <time>2013-03-02T16:17:40Z</time>
      </trkpt>
      <trkpt lat="44.07263" lon="1.66829">
        <ele>227</ele>
        <time>2013-03-02T16:17:42Z</time>
      </trkpt>
      <trkpt lat="44.07272" lon="1.66839">
        <ele>227</ele>
        <time>2013-03-02T16:17:44Z</time>
      </trkpt>
      <trkpt lat="44.0728" lon="1.66848">
        <ele>227</ele>
        <time>2013-03-02T16:17:46Z</time>
      </trkpt>
      <trkpt lat="44.07289" lon="1.66852">
        <ele>227</ele>
        <time>2013-03-02T16:17:48Z</time>
      </trkpt>
      <trkpt lat="44.07299" lon="1.66854">
        <ele>225</ele>
        <time>2013-03-02T16:17:50Z</time>
      </trkpt>
      <trkpt lat="44.0731" lon="1.66857">
        <ele>223</ele>
        <time>2013-03-02T16:17:52Z</time>
      </trkpt>
      <trkpt lat="44.07322" lon="1.66861">
        <ele>222</ele>
        <time>2013-03-02T16:17:54Z</time>
      </trkpt>
      <trkpt lat="44.07333" lon="1.66866">
        <ele>221</ele>
        <time>2013-03-02T16:17:56Z</time>
      </trkpt>
      <trkpt lat="44.07343" lon="1.66872">
        <ele>221</ele>
        <time>2013-03-02T16:17:58Z</time>
      </trkpt>
      <trkpt lat="44.07352" lon="1.66876">
        <ele>220</ele>
        <time>2013-03-02T16:18:00Z</time>
      </trkpt>
      <trkpt lat="44.07363" lon="1.6688">
        <ele>220</ele>
        <time>2013-03-02T16:18:02Z</time>
      </trkpt>
      <trkpt lat="44.07373" lon="1.66883">
        <ele>219</ele>
        <time>2013-03-02T16:18:04Z</time>
      </trkpt>
      <trkpt lat="44.07384" lon="1.66886">
        <ele>219</ele>
        <time>2013-03-02T16:18:06Z</time>
      </trkpt>
      <trkpt lat="44.07396" lon="1.66889">
        <ele>219</ele>
        <time>2013-03-02T16:18:08Z</time>
      </trkpt>
      <trkpt lat="44.07407" lon="1.66893">
        <ele>219</ele>
        <time>2013-03-02T16:18:10Z</time>
      </trkpt>
      <trkpt lat="44.07418" lon="1.66899">
        <ele>219</ele>
        <time>2013-03-02T16:18:12Z</time>
      </trkpt>
      <trkpt lat="44.07428" lon="1.66906">
        <ele>219</ele>
        <time>2013-03-02T16:18:14Z</time>
      </trkpt>
      <trkpt lat="44.07437" lon="1.66913">
        <ele>218</ele>
        <time>2013-03-02T16:18:16Z</time>
      </trkpt>
      <trkpt lat="44.07447" lon="1.66918">
        <ele>218</ele>
        <time>2013-03-02T16:18:18Z</time>
      </trkpt>
      <trkpt lat="44.07457" lon="1.66924">
        <ele>218</ele>
        <time>2013-03-02T16:18:20Z</time>
      </trkpt>
      <trkpt lat="44.07467" lon="1.66931">
        <ele>218</ele>
        <time>2013-03-02T16:18:22Z</time>
      </trkpt>
      <trkpt lat="44.07476" lon="1.66939">
        <ele>218</ele>
        <time>2013-03-02T16:18:24Z</time>
      </trkpt>
      <trkpt lat="44.07483" lon="1.66948">
        <ele>218</ele>
        <time>2013-03-02T16:18:26Z</time>
      </trkpt>
      <trkpt lat="44.07489" lon="1.66958">
        <ele>218</ele>
        <time>2013-03-02T16:18:28Z</time>
      </trkpt>
      <trkpt lat="44.07493" lon="1.6697">
        <ele>218</ele>
        <time>2013-03-02T16:18:30Z</time>
      </trkpt>
      <trkpt lat="44.07498" lon="1.66981">
        <ele>218</ele>
        <time>2013-03-02T16:18:32Z</time>
      </trkpt>
      <trkpt lat="44.07503" lon="1.66992">
        <ele>218</ele>
        <time>2013-03-02T16:18:34Z</time>
      </trkpt>
      <trkpt lat="44.07509" lon="1.67002">
        <ele>218</ele>
        <time>2013-03-02T16:18:36Z</time>
      </trkpt>
      <trkpt lat="44.07516" lon="1.67011">
        <ele>218</ele>
        <time>2013-03-02T16:18:38Z</time>
      </trkpt>
      <trkpt lat="44.07523" lon="1.67019">
        <ele>218</ele>
        <time>2013-03-02T16:18:40Z</time>
      </trkpt>
      <trkpt lat="44.07531" lon="1.67025">
        <ele>218</ele>
        <time>2013-03-02T16:18:42Z</time>
      </trkpt>
      <trkpt lat="44.07539" lon="1.67032">
        <ele>218</ele>
        <time>2013-03-02T16:18:44Z</time>
      </trkpt>
      <trkpt lat="44.07547" lon="1.67038">
        <ele>218</ele>
        <time>2013-03-02T16:18:46Z</time>
      </trkpt>
      <trkpt lat="44.07555" lon="1.67044">
        <ele>218</ele>
        <time>2013-03-02T16:18:48Z</time>
      </trkpt>
      <trkpt lat="44.07561" lon="1.6705">
        <ele>219</ele>
        <time>2013-03-02T16:18:50Z</time>
      </trkpt>
      <trkpt lat="44.07568" lon="1.67054">
        <ele>220</ele>
        <time>2013-03-02T16:18:52Z</time>
      </trkpt>
      <trkpt lat="44.07574" lon="1.67059">
        <ele>220</ele>
        <time>2013-03-02T16:18:54Z</time>
      </trkpt>
      <trkpt lat="44.07579" lon="1.67066">
        <ele>221</ele>
        <time>2013-03-02T16:18:56Z</time>
      </trkpt>
      <trkpt lat="44.07584" lon="1.67071">
        <ele>222</ele>
        <time>2013-03-02T16:18:58Z</time>
      </trkpt>
      <trkpt lat="44.07589" lon="1.67077">
        <ele>223</ele>
        <time>2013-03-02T16:19:00Z</time>
      </trkpt>
      <trkpt lat="44.07593" lon="1.67082">
        <ele>224</ele>
        <time>2013-03-02T16:19:02Z</time>
      </trkpt>
      <trkpt lat="44.07598" lon="1.67087">
        <ele>225</ele>
        <time>2013-03-02T16:19:04Z</time>
      </trkpt>
      <trkpt lat="44.07604" lon="1.67093">
        <ele>226</ele>
        <time>2013-03-02T16:19:06Z</time>
      </trkpt>
      <trkpt lat="44.0761" lon="1.67097">
        <ele>226</ele>
        <time>2013-03-02T16:19:08Z</time>
      </trkpt>
      <trkpt lat="44.07616" lon="1.67102">
        <ele>227</ele>
        <time>2013-03-02T16:19:10Z</time>
      </trkpt>
      <trkpt lat="44.07623" lon="1.67107">
        <ele>227</ele>
        <time>2013-03-02T16:19:12Z</time>
      </trkpt>
      <trkpt lat="44.0763" lon="1.67112">
        <ele>227</ele>
        <time>2013-03-02T16:19:14Z</time>
      </trkpt>
      <trkpt lat="44.07637" lon="1.67117">
        <ele>227</ele>
        <time>2013-03-02T16:19:16Z</time>
      </trkpt>
      <trkpt lat="44.07643" lon="1.67124">
        <ele>227</ele>
        <time>2013-03-02T16:19:18Z</time>
      </trkpt>
      <trkpt lat="44.07649" lon="1.67131">
        <ele>227</ele>
        <time>2013-03-02T16:19:20Z</time>
      </trkpt>
      <trkpt lat="44.07655" lon="1.67137">
        <ele>227</ele>
        <time>2013-03-02T16:19:22Z</time>
      </trkpt>
      <trkpt lat="44.07661" lon="1.67144">
        <ele>227</ele>
        <time>2013-03-02T16:19:24Z</time>
      </trkpt>
      <trkpt lat="44.07666" lon="1.67151">
        <ele>227</ele>
        <time>2013-03-02T16:19:26Z</time>
      </trkpt>
      <trkpt lat="44.07671" lon="1.67158">
        <ele>227</ele>
        <time>2013-03-02T16:19:28Z</time>
      </trkpt>
      <trkpt lat="44.07676" lon="1.67167">
        <ele>227</ele>
        <time>2013-03-02T16:19:30Z</time>
      </trkpt>
      <trkpt lat="44.0768" lon="1.67176">
        <ele>227</ele>
        <time>2013-03-02T16:19:32Z</time>
      </trkpt>
      <trkpt lat="44.07684" lon="1.67185">
        <ele>227</ele>
        <time>2013-03-02T16:19:34Z</time>
      </trkpt>
      <trkpt lat="44.07689" lon="1.67194">
        <ele>227</ele>
        <time>2013-03-02T16:19:36Z</time>
      </trkpt>
      <trkpt lat="44.07693" lon="1.67203">
        <ele>227</ele>
        <time>2013-03-02T16:19:38Z</time>
      </trkpt>
      <trkpt lat="44.07698" lon="1.67213">
        <ele>227</ele>
        <time>2013-03-02T16:19:40Z</time>
      </trkpt>
      <trkpt lat="44.07703" lon="1.67222">
        <ele>227</ele>
        <time>2013-03-02T16:19:42Z</time>
      </trkpt>
      <trkpt lat="44.07708" lon="1.6723">
        <ele>227</ele>
        <time>2013-03-02T16:19:44Z</time>
      </trkpt>
      <trkpt lat="44.07714" lon="1.67238">
        <ele>228</ele>
        <time>2013-03-02T16:19:46Z</time>
      </trkpt>
      <trkpt lat="44.07721" lon="1.67245">
        <ele>228</ele>
        <time>2013-03-02T16:19:48Z</time>
      </trkpt>
      <trkpt lat="44.07729" lon="1.67251">
        <ele>228</ele>
        <time>2013-03-02T16:19:50Z</time>
      </trkpt>
      <trkpt lat="44.07736" lon="1.67257">
        <ele>228</ele>
        <time>2013-03-02T16:19:52Z</time>
      </trkpt>
      <trkpt lat="44.07743" lon="1.67264">
        <ele>228</ele>
        <time>2013-03-02T16:19:54Z</time>
      </trkpt>
      <trkpt lat="44.07751" lon="1.67272">
        <ele>228</ele>
        <time>2013-03-02T16:19:56Z</time>
      </trkpt>
      <trkpt lat="44.07758" lon="1.67278">
        <ele>228</ele>
        <time>2013-03-02T16:19:58Z</time>
      </trkpt>
      <trkpt lat="44.07766" lon="1.67285">
        <ele>228</ele>
        <time>2013-03-02T16:20:00Z</time>
      </trkpt>
      <trkpt lat="44.07775" lon="1.67291">
        <ele>228</ele>
        <time>2013-03-02T16:20:02Z</time>
      </trkpt>
      <trkpt lat="44.07782" lon="1.67298">
        <ele>228</ele>
        <time>2013-03-02T16:20:04Z</time>
      </trkpt>
      <trkpt lat="44.07789" lon="1.67308">
        <ele>228</ele>
        <time>2013-03-02T16:20:06Z</time>
      </trkpt>
      <trkpt lat="44.07795" lon="1.67317">
        <ele>227</ele>
        <time>2013-03-02T16:20:08Z</time>
      </trkpt>
      <trkpt lat="44.07801" lon="1.67327">
        <ele>227</ele>
        <time>2013-03-02T16:20:10Z</time>
      </trkpt>
      <trkpt lat="44.07805" lon="1.67338">
        <ele>227</ele>
        <time>2013-03-02T16:20:12Z</time>
      </trkpt>
      <trkpt lat="44.07808" lon="1.67349">
        <ele>227</ele>
        <time>2013-03-02T16:20:14Z</time>
      </trkpt>
      <trkpt lat="44.07812" lon="1.67358">
        <ele>227</ele>
        <time>2013-03-02T16:20:16Z</time>
      </trkpt>
      <trkpt lat="44.07818" lon="1.67363">
        <ele>227</ele>
        <time>2013-03-02T16:20:18Z</time>
      </trkpt>
      <trkpt lat="44.07825" lon="1.67364">
        <ele>227</ele>
        <time>2013-03-02T16:20:20Z</time>
      </trkpt>
      <trkpt lat="44.07831" lon="1.67368">
        <ele>227</ele>
        <time>2013-03-02T16:20:22Z</time>
      </trkpt>
      <trkpt lat="44.07838" lon="1.67373">
        <ele>227</ele>
        <time>2013-03-02T16:20:24Z</time>
      </trkpt>
      <trkpt lat="44.07845" lon="1.67377">
        <ele>227</ele>
        <time>2013-03-02T16:20:26Z</time>
      </trkpt>
      <trkpt lat="44.07851" lon="1.67383">
        <ele>227</ele>
        <time>2013-03-02T16:20:28Z</time>
      </trkpt>
      <trkpt lat="44.07858" lon="1.67389">
        <ele>227</ele>
        <time>2013-03-02T16:20:30Z</time>
      </trkpt>
      <trkpt lat="44.07864" lon="1.67395">
        <ele>227</ele>
        <time>2013-03-02T16:20:32Z</time>
      </trkpt>
      <trkpt lat="44.0787" lon="1.67401">
        <ele>227</ele>
        <time>2013-03-02T16:20:34Z</time>
      </trkpt>
      <trkpt lat="44.07876" lon="1.67407">
        <ele>227</ele>
        <time>2013-03-02T16:20:36Z</time>
      </trkpt>
      <trkpt lat="44.07881" lon="1.67415">
        <ele>227</ele>
        <time>2013-03-02T16:20:38Z</time>
      </trkpt>
      <trkpt lat="44.07886" lon="1.67425">
        <ele>227</ele>
        <time>2013-03-02T16:20:40Z</time>
      </trkpt>
      <trkpt lat="44.07891" lon="1.67434">
        <ele>227</ele>
        <time>2013-03-02T16:20:42Z</time>
      </trkpt>
      <trkpt lat="44.07896" lon="1.67441">
        <ele>227</ele>
        <time>2013-03-02T16:20:44Z</time>
      </trkpt>
      <trkpt lat="44.07903" lon="1.67448">
        <ele>227</ele>
        <time>2013-03-02T16:20:46Z</time>
      </trkpt>
      <trkpt lat="44.0791" lon="1.67455">
        <ele>227</ele>
        <time>2013-03-02T16:20:48Z</time>
      </trkpt>
      <trkpt lat="44.07917" lon="1.67458">
        <ele>227</ele>
        <time>2013-03-02T16:20:50Z</time>
      </trkpt>
      <trkpt lat="44.07924" lon="1.67463">
        <ele>227</ele>
        <time>2013-03-02T16:20:52Z</time>
      </trkpt>
      <trkpt lat="44.07931" lon="1.67468">
        <ele>227</ele>
        <time>2013-03-02T16:20:54Z</time>
      </trkpt>
      <trkpt lat="44.07938" lon="1.67472">
        <ele>227</ele>
        <time>2013-03-02T16:20:56Z</time>
      </trkpt>
      <trkpt lat="44.07946" lon="1.67475">
        <ele>227</ele>
        <time>2013-03-02T16:20:58Z</time>
      </trkpt>
      <trkpt lat="44.07954" lon="1.6748">
        <ele>227</ele>
        <time>2013-03-02T16:21:00Z</time>
      </trkpt>
      <trkpt lat="44.07962" lon="1.67484">
        <ele>227</ele>
        <time>2013-03-02T16:21:02Z</time>
      </trkpt>
      <trkpt lat="44.0797" lon="1.67489">
        <ele>227</ele>
        <time>2013-03-02T16:21:04Z</time>
      </trkpt>
      <trkpt lat="44.07978" lon="1.67493">
        <ele>227</ele>
        <time>2013-03-02T16:21:06Z</time>
      </trkpt>
      <trkpt lat="44.07986" lon="1.67498">
        <ele>227</ele>
        <time>2013-03-02T16:21:08Z</time>
      </trkpt>
      <trkpt lat="44.07993" lon="1.67503">
        <ele>227</ele>
        <time>2013-03-02T16:21:10Z</time>
      </trkpt>
      <trkpt lat="44.08" lon="1.67508">
        <ele>227</ele>
        <time>2013-03-02T16:21:12Z</time>
      </trkpt>
      <trkpt lat="44.08006" lon="1.67514">
        <ele>227</ele>
        <time>2013-03-02T16:21:14Z</time>
      </trkpt>
      <trkpt lat="44.08012" lon="1.67521">
        <ele>227</ele>
        <time>2013-03-02T16:21:16Z</time>
      </trkpt>
      <trkpt lat="44.08018" lon="1.67529">
        <ele>227</ele>
        <time>2013-03-02T16:21:18Z</time>
      </trkpt>
      <trkpt lat="44.08023" lon="1.67538">
        <ele>227</ele>
        <time>2013-03-02T16:21:20Z</time>
      </trkpt>
      <trkpt lat="44.0803" lon="1.67547">
        <ele>227</ele>
        <time>2013-03-02T16:21:22Z</time>
      </trkpt>
      <trkpt lat="44.08036" lon="1.67554">
        <ele>228</ele>
        <time>2013-03-02T16:21:24Z</time>
      </trkpt>
      <trkpt lat="44.08041" lon="1.67563">
        <ele>229</ele>
        <time>2013-03-02T16:21:26Z</time>
      </trkpt>
      <trkpt lat="44.08045" lon="1.67573">
        <ele>229</ele>
        <time>2013-03-02T16:21:28Z</time>
      </trkpt>
      <trkpt lat="44.08046" lon="1.67585">
        <ele>229</ele>
        <time>2013-03-02T16:21:30Z</time>
      </trkpt>
      <trkpt lat="44.08045" lon="1.67595">
        <ele>230</ele>
        <time>2013-03-02T16:21:32Z</time>
      </trkpt>
      <trkpt lat="44.08044" lon="1.67606">
        <ele>231</ele>
        <time>2013-03-02T16:21:34Z</time>
      </trkpt>
      <trkpt lat="44.08045" lon="1.67615">
        <ele>231</ele>
        <time>2013-03-02T16:21:36Z</time>
      </trkpt>
      <trkpt lat="44.08051" lon="1.67621">
        <ele>232</ele>
        <time>2013-03-02T16:21:38Z</time>
      </trkpt>
      <trkpt lat="44.08059" lon="1.67622">
        <ele>233</ele>
        <time>2013-03-02T16:21:40Z</time>
      </trkpt>
      <trkpt lat="44.08068" lon="1.67623">
        <ele>234</ele>
        <time>2013-03-02T16:21:42Z</time>
      </trkpt>
      <trkpt lat="44.08077" lon="1.67624">
        <ele>234</ele>
        <time>2013-03-02T16:21:44Z</time>
      </trkpt>
      <trkpt lat="44.08086" lon="1.67624">
        <ele>234</ele>
        <time>2013-03-02T16:21:46Z</time>
      </trkpt>
      <trkpt lat="44.08095" lon="1.67623">
        <ele>234</ele>
        <time>2013-03-02T16:21:48Z</time>
      </trkpt>
      <trkpt lat="44.08105" lon="1.67623">
        <ele>234</ele>
        <time>2013-03-02T16:21:50Z</time>
      </trkpt>
      <trkpt lat="44.08115" lon="1.67622">
        <ele>234</ele>
        <time>2013-03-02T16:21:52Z</time>
      </trkpt>
      <trkpt lat="44.08124" lon="1.67622">
        <ele>234</ele>
        <time>2013-03-02T16:21:54Z</time>
      </trkpt>
      <trkpt lat="44.08134" lon="1.67621">
        <ele>234</ele>
        <time>2013-03-02T16:21:56Z</time>
      </trkpt>
      <trkpt lat="44.08144" lon="1.67619">
        <ele>234</ele>
        <time>2013-03-02T16:21:58Z</time>
      </trkpt>
      <trkpt lat="44.08155" lon="1.67616">
        <ele>234</ele>
        <time>2013-03-02T16:22:00Z</time>
      </trkpt>
      <trkpt lat="44.08165" lon="1.67613">
        <ele>234</ele>
        <time>2013-03-02T16:22:02Z</time>
      </trkpt>
      <trkpt lat="44.08175" lon="1.67609">
        <ele>234</ele>
        <time>2013-03-02T16:22:04Z</time>
      </trkpt>
      <trkpt lat="44.08186" lon="1.67604">
        <ele>233</ele>
        <time>2013-03-02T16:22:06Z</time>
      </trkpt>
      <trkpt lat="44.08196" lon="1.67599">
        <ele>233</ele>
        <time>2013-03-02T16:22:08Z</time>
      </trkpt>
      <trkpt lat="44.08206" lon="1.67594">
        <ele>232</ele>
        <time>2013-03-02T16:22:10Z</time>
      </trkpt>
      <trkpt lat="44.08216" lon="1.67589">
        <ele>232</ele>
        <time>2013-03-02T16:22:12Z</time>
      </trkpt>
      <trkpt lat="44.08226" lon="1.67587">
        <ele>232</ele>
        <time>2013-03-02T16:22:14Z</time>
      </trkpt>
      <trkpt lat="44.08237" lon="1.67588">
        <ele>232</ele>
        <time>2013-03-02T16:22:16Z</time>
      </trkpt>
      <trkpt lat="44.08247" lon="1.67592">
        <ele>232</ele>
        <time>2013-03-02T16:22:18Z</time>
      </trkpt>
      <trkpt lat="44.08258" lon="1.67598">
        <ele>232</ele>
        <time>2013-03-02T16:22:20Z</time>
      </trkpt>
      <trkpt lat="44.08268" lon="1.67605">
        <ele>232</ele>
        <time>2013-03-02T16:22:22Z</time>
      </trkpt>
      <trkpt lat="44.08277" lon="1.67613">
        <ele>232</ele>
        <time>2013-03-02T16:22:24Z</time>
      </trkpt>
      <trkpt lat="44.08286" lon="1.67619">
        <ele>232</ele>
        <time>2013-03-02T16:22:26Z</time>
      </trkpt>
      <trkpt lat="44.08296" lon="1.67625">
        <ele>232</ele>
        <time>2013-03-02T16:22:28Z</time>
      </trkpt>
      <trkpt lat="44.08306" lon="1.6763">
        <ele>232</ele>
        <time>2013-03-02T16:22:30Z</time>
      </trkpt>
      <trkpt lat="44.08316" lon="1.67634">
        <ele>232</ele>
        <time>2013-03-02T16:22:32Z</time>
      </trkpt>
      <trkpt lat="44.08325" lon="1.67638">
        <ele>232</ele>
        <time>2013-03-02T16:22:34Z</time>
      </trkpt>
      <trkpt lat="44.08333" lon="1.67641">
        <ele>232</ele>
        <time>2013-03-02T16:22:36Z</time>
      </trkpt>
      <trkpt lat="44.0834" lon="1.67639">
        <ele>232</ele>
        <time>2013-03-02T16:22:38Z</time>
      </trkpt>
      <trkpt lat="44.08344" lon="1.67632">
        <ele>232</ele>
        <time>2013-03-02T16:22:40Z</time>
      </trkpt>
      <trkpt lat="44.08349" lon="1.67623">
        <ele>232</ele>
        <time>2013-03-02T16:22:42Z</time>
      </trkpt>
      <trkpt lat="44.08353" lon="1.67615">
        <ele>232</ele>
        <time>2013-03-02T16:22:44Z</time>
      </trkpt>
      <trkpt lat="44.08357" lon="1.67608">
        <ele>232</ele>
        <time>2013-03-02T16:22:46Z</time>
      </trkpt>
      <trkpt lat="44.08361" lon="1.676">
        <ele>232</ele>
        <time>2013-03-02T16:22:48Z</time>
      </trkpt>
      <trkpt lat="44.08365" lon="1.67592">
        <ele>232</ele>
        <time>2013-03-02T16:22:50Z</time>
      </trkpt>
      <trkpt lat="44.08369" lon="1.67583">
        <ele>231</ele>
        <time>2013-03-02T16:22:52Z</time>
      </trkpt>
      <trkpt lat="44.08374" lon="1.67575">
        <ele>230</ele>
        <time>2013-03-02T16:22:54Z</time>
      </trkpt>
      <trkpt lat="44.08379" lon="1.67567">
        <ele>230</ele>
        <time>2013-03-02T16:22:56Z</time>
      </trkpt>
      <trkpt lat="44.08385" lon="1.67559">
        <ele>229</ele>
        <time>2013-03-02T16:22:58Z</time>
      </trkpt>
      <trkpt lat="44.0839" lon="1.67551">
        <ele>229</ele>
        <time>2013-03-02T16:23:00Z</time>
      </trkpt>
      <trkpt lat="44.08396" lon="1.67543">
        <ele>228</ele>
        <time>2013-03-02T16:23:02Z</time>
      </trkpt>
      <trkpt lat="44.08402" lon="1.67534">
        <ele>228</ele>
        <time>2013-03-02T16:23:04Z</time>
      </trkpt>
      <trkpt lat="44.08407" lon="1.67525">
        <ele>228</ele>
        <time>2013-03-02T16:23:06Z</time>
      </trkpt>
      <trkpt lat="44.08413" lon="1.67515">
        <ele>228</ele>
        <time>2013-03-02T16:23:08Z</time>
      </trkpt>
      <trkpt lat="44.08419" lon="1.67505">
        <ele>228</ele>
        <time>2013-03-02T16:23:10Z</time>
      </trkpt>
      <trkpt lat="44.08424" lon="1.67495">
        <ele>228</ele>
        <time>2013-03-02T16:23:12Z</time>
      </trkpt>
      <trkpt lat="44.08428" lon="1.67484">
        <ele>228</ele>
        <time>2013-03-02T16:23:14Z</time>
      </trkpt>
      <trkpt lat="44.08431" lon="1.67474">
        <ele>228</ele>
        <time>2013-03-02T16:23:16Z</time>
      </trkpt>
      <trkpt lat="44.08432" lon="1.67464">
        <ele>228</ele>
        <time>2013-03-02T16:23:18Z</time>
      </trkpt>
      <trkpt lat="44.08435" lon="1.67454">
        <ele>227</ele>
        <time>2013-03-02T16:23:20Z</time>
      </trkpt>
      <trkpt lat="44.08437" lon="1.67443">
        <ele>226</ele>
        <time>2013-03-02T16:23:22Z</time>
      </trkpt>
      <trkpt lat="44.08439" lon="1.67431">
        <ele>225</ele>
        <time>2013-03-02T16:23:24Z</time>
      </trkpt>
      <trkpt lat="44.08441" lon="1.67419">
        <ele>223</ele>
        <time>2013-03-02T16:23:26Z</time>
      </trkpt>
      <trkpt lat="44.08444" lon="1.67406">
        <ele>222</ele>
        <time>2013-03-02T16:23:28Z</time>
      </trkpt>
      <trkpt lat="44.08447" lon="1.67394">
        <ele>221</ele>
        <time>2013-03-02T16:23:30Z</time>
      </trkpt>
      <trkpt lat="44.0845" lon="1.67382">
        <ele>220</ele>
        <time>2013-03-02T16:23:32Z</time>
      </trkpt>
      <trkpt lat="44.08453" lon="1.6737">
        <ele>220</ele>
        <time>2013-03-02T16:23:34Z</time>
      </trkpt>
      <trkpt lat="44.08457" lon="1.67358">
        <ele>220</ele>
        <time>2013-03-02T16:23:36Z</time>
      </trkpt>
      <trkpt lat="44.0846" lon="1.67345">
        <ele>220</ele>
        <time>2013-03-02T16:23:38Z</time>
      </trkpt>
      <trkpt lat="44.08462" lon="1.67335">
        <ele>220</ele>
        <time>2013-03-02T16:23:40Z</time>
      </trkpt>
      <trkpt lat="44.08464" lon="1.67324">
        <ele>220</ele>
        <time>2013-03-02T16:23:42Z</time>
      </trkpt>
      <trkpt lat="44.08465" lon="1.67314">
        <ele>220</ele>
        <time>2013-03-02T16:23:44Z</time>
      </trkpt>
      <trkpt lat="44.08467" lon="1.67303">
        <ele>220</ele>
        <time>2013-03-02T16:23:46Z</time>
      </trkpt>
      <trkpt lat="44.08466" lon="1.67291">
        <ele>220</ele>
        <time>2013-03-02T16:23:48Z</time>
      </trkpt>
      <trkpt lat="44.08466" lon="1.6728">
        <ele>220</ele>
        <time>2013-03-02T16:23:50Z</time>
      </trkpt>
      <trkpt lat="44.08464" lon="1.67268">
        <ele>220</ele>
        <time>2013-03-02T16:23:52Z</time>
      </trkpt>
      <trkpt lat="44.08461" lon="1.67257">
        <ele>220</ele>
        <time>2013-03-02T16:23:54Z</time>
      </trkpt>
      <trkpt lat="44.08457" lon="1.67248">
        <ele>220</ele>
        <time>2013-03-02T16:23:56Z</time>
      </trkpt>
      <trkpt lat="44.08453" lon="1.67242">
        <ele>219</ele>
        <time>2013-03-02T16:23:58Z</time>
      </trkpt>
      <trkpt lat="44.08447" lon="1.67239">
        <ele>219</ele>
        <time>2013-03-02T16:24:00Z</time>
      </trkpt>
      <trkpt lat="44.08442" lon="1.67236">
        <ele>218</ele>
        <time>2013-03-02T16:24:02Z</time>
      </trkpt>
      <trkpt lat="44.08436" lon="1.67233">
        <ele>217</ele>
        <time>2013-03-02T16:24:04Z</time>
      </trkpt>
      <trkpt lat="44.08432" lon="1.67223">
        <ele>216</ele>
        <time>2013-03-02T16:24:06Z</time>
      </trkpt>
      <trkpt lat="44.08431" lon="1.6721">
        <ele>215</ele>
        <time>2013-03-02T16:24:08Z</time>
      </trkpt>
      <trkpt lat="44.08432" lon="1.67199">
        <ele>214</ele>
        <time>2013-03-02T16:24:10Z</time>
      </trkpt>
      <trkpt lat="44.08434" lon="1.6719">
        <ele>212</ele>
        <time>2013-03-02T16:24:12Z</time>
      </trkpt>
      <trkpt lat="44.08437" lon="1.6718">
        <ele>211</ele>
        <time>2013-03-02T16:24:14Z</time>
      </trkpt>
      <trkpt lat="44.0844" lon="1.67169">
        <ele>210</ele>
        <time>2013-03-02T16:24:16Z</time>
      </trkpt>
      <trkpt lat="44.08443" lon="1.67158">
        <ele>209</ele>
        <time>2013-03-02T16:24:18Z</time>
      </trkpt>
      <trkpt lat="44.08448" lon="1.67148">
        <ele>208</ele>
        <time>2013-03-02T16:24:20Z</time>
      </trkpt>
      <trkpt lat="44.08453" lon="1.67139">
        <ele>207</ele>
        <time>2013-03-02T16:24:22Z</time>
      </trkpt>
      <trkpt lat="44.08457" lon="1.6713">
        <ele>205</ele>
        <time>2013-03-02T16:24:24Z</time>
      </trkpt>
      <trkpt lat="44.08462" lon="1.67121">
        <ele>203</ele>
        <time>2013-03-02T16:24:26Z</time>
      </trkpt>
      <trkpt lat="44.08469" lon="1.67112">
        <ele>202</ele>
        <time>2013-03-02T16:24:28Z</time>
      </trkpt>
      <trkpt lat="44.08472" lon="1.67103">
        <ele>200</ele>
        <time>2013-03-02T16:24:30Z</time>
      </trkpt>
      <trkpt lat="44.08475" lon="1.67094">
        <ele>198</ele>
        <time>2013-03-02T16:24:32Z</time>
      </trkpt>
      <trkpt lat="44.08478" lon="1.67087">
        <ele>196</ele>
        <time>2013-03-02T16:24:34Z</time>
      </trkpt>
      <trkpt lat="44.08479" lon="1.67081">
        <ele>195</ele>
        <time>2013-03-02T16:24:36Z</time>
      </trkpt>
      <trkpt lat="44.08478" lon="1.67072">
        <ele>194</ele>
        <time>2013-03-02T16:24:38Z</time>
      </trkpt>
      <trkpt lat="44.08479" lon="1.67061">
        <ele>193</ele>
        <time>2013-03-02T16:24:40Z</time>
      </trkpt>
      <trkpt lat="44.08479" lon="1.67052">
        <ele>191</ele>
        <time>2013-03-02T16:24:42Z</time>
      </trkpt>
      <trkpt lat="44.08479" lon="1.67041">
        <ele>190</ele>
        <time>2013-03-02T16:24:44Z</time>
      </trkpt>
      <trkpt lat="44.08475" lon="1.67033">
        <ele>189</ele>
        <time>2013-03-02T16:24:46Z</time>
      </trkpt>
      <trkpt lat="44.08469" lon="1.67026">
        <ele>188</ele>
        <time>2013-03-02T16:24:48Z</time>
      </trkpt>
      <trkpt lat="44.08463" lon="1.67023">
        <ele>187</ele>
        <time>2013-03-02T16:24:50Z</time>
      </trkpt>
      <trkpt lat="44.08459" lon="1.67025">
        <ele>187</ele>
        <time>2013-03-02T16:24:52Z</time>
      </trkpt>
      <trkpt lat="44.08457" lon="1.67032">
        <ele>187</ele>
        <time>2013-03-02T16:24:54Z</time>
      </trkpt>
      <trkpt lat="44.08457" lon="1.67042">
        <ele>187</ele>
        <time>2013-03-02T16:24:56Z</time>
      </trkpt>
      <trkpt lat="44.08457" lon="1.67054">
        <ele>187</ele>
        <time>2013-03-02T16:24:58Z</time>
      </trkpt>
      <trkpt lat="44.08455" lon="1.67067">
        <ele>187</ele>
        <time>2013-03-02T16:25:00Z</time>
      </trkpt>
      <trkpt lat="44.08454" lon="1.67079">
        <ele>187</ele>
        <time>2013-03-02T16:25:02Z</time>
      </trkpt>
      <trkpt lat="44.08451" lon="1.67088">
        <ele>186</ele>
        <time>2013-03-02T16:25:04Z</time>
      </trkpt>
      <trkpt lat="44.08448" lon="1.67094">
        <ele>185</ele>
        <time>2013-03-02T16:25:06Z</time>
      </trkpt>
      <trkpt lat="44.08446" lon="1.67098">
        <ele>185</ele>
        <time>2013-03-02T16:25:08Z</time>
      </trkpt>
      <trkpt lat="44.08443" lon="1.671">
        <ele>184</ele>
        <time>2013-03-02T16:25:10Z</time>
      </trkpt>
      <trkpt lat="44.0844" lon="1.67097">
        <ele>184</ele>
        <time>2013-03-02T16:25:12Z</time>
      </trkpt>
      <trkpt lat="44.08441" lon="1.6709">
        <ele>183</ele>
        <time>2013-03-02T16:25:14Z</time>
      </trkpt>
      <trkpt lat="44.08442" lon="1.67081">
        <ele>182</ele>
        <time>2013-03-02T16:25:16Z</time>
      </trkpt>
      <trkpt lat="44.08442" lon="1.67068">
        <ele>181</ele>
        <time>2013-03-02T16:25:18Z</time>
      </trkpt>
      <trkpt lat="44.08441" lon="1.67055">
        <ele>181</ele>
        <time>2013-03-02T16:25:20Z</time>
      </trkpt>
      <trkpt lat="44.0844" lon="1.67039">
        <ele>180</ele>
        <time>2013-03-02T16:25:22Z</time>
      </trkpt>
      <trkpt lat="44.08439" lon="1.67024">
        <ele>179</ele>
        <time>2013-03-02T16:25:24Z</time>
      </trkpt>
      <trkpt lat="44.08441" lon="1.6701">
        <ele>178</ele>
        <time>2013-03-02T16:25:26Z</time>
      </trkpt>
      <trkpt lat="44.08445" lon="1.66997">
        <ele>177</ele>
        <time>2013-03-02T16:25:28Z</time>
      </trkpt>
      <trkpt lat="44.0845" lon="1.66987">
        <ele>176</ele>
        <time>2013-03-02T16:25:30Z</time>
      </trkpt>
      <trkpt lat="44.08455" lon="1.66975">
        <ele>174</ele>
        <time>2013-03-02T16:25:32Z</time>
      </trkpt>
      <trkpt lat="44.08456" lon="1.66963">
        <ele>173</ele>
        <time>2013-03-02T16:25:34Z</time>
      </trkpt>
      <trkpt lat="44.08458" lon="1.66951">
        <ele>171</ele>
        <time>2013-03-02T16:25:36Z</time>
      </trkpt>
      <trkpt lat="44.08462" lon="1.66939">
        <ele>171</ele>
        <time>2013-03-02T16:25:38Z</time>
      </trkpt>
      <trkpt lat="44.08467" lon="1.66931">
        <ele>171</ele>
        <time>2013-03-02T16:25:40Z</time>
      </trkpt>
      <trkpt lat="44.08475" lon="1.66928">
        <ele>171</ele>
        <time>2013-03-02T16:25:42Z</time>
      </trkpt>
      <trkpt lat="44.08483" lon="1.66927">
        <ele>171</ele>
        <time>2013-03-02T16:25:44Z</time>
      </trkpt>
      <trkpt lat="44.0849" lon="1.66927">
        <ele>171</ele>
        <time>2013-03-02T16:25:46Z</time>
      </trkpt>
      <trkpt lat="44.08495" lon="1.66926">
        <ele>171</ele>
        <time>2013-03-02T16:25:48Z</time>
      </trkpt>
      <trkpt lat="44.08496" lon="1.66923">
        <ele>171</ele>
        <time>2013-03-02T16:25:50Z</time>
      </trkpt>
      <trkpt lat="44.08495" lon="1.66918">
        <ele>171</ele>
        <time>2013-03-02T16:25:52Z</time>
      </trkpt>
      <trkpt lat="44.08493" lon="1.66912">
        <ele>171</ele>
        <time>2013-03-02T16:25:54Z</time>
      </trkpt>
      <trkpt lat="44.0849" lon="1.66908">
        <ele>170</ele>
        <time>2013-03-02T16:25:56Z</time>
      </trkpt>
      <trkpt lat="44.08486" lon="1.66907">
        <ele>170</ele>
        <time>2013-03-02T16:25:58Z</time>
      </trkpt>
      <trkpt lat="44.08477" lon="1.66908">
        <ele>170</ele>
        <time>2013-03-02T16:26:00Z</time>
      </trkpt>
      <trkpt lat="44.08466" lon="1.66906">
        <ele>170</ele>
        <time>2013-03-02T16:26:02Z</time>
      </trkpt>
      <trkpt lat="44.08456" lon="1.66904">
        <ele>170</ele>
        <time>2013-03-02T16:26:04Z</time>
      </trkpt>
      <trkpt lat="44.08447" lon="1.66902">
        <ele>170</ele>
        <time>2013-03-02T16:26:06Z</time>
      </trkpt>
      <trkpt lat="44.08439" lon="1.66899">
        <ele>170</ele>
        <time>2013-03-02T16:26:08Z</time>
      </trkpt>
      <trkpt lat="44.08429" lon="1.66894">
        <ele>170</ele>
        <time>2013-03-02T16:26:10Z</time>
      </trkpt>
      <trkpt lat="44.0842" lon="1.66889">
        <ele>170</ele>
        <time>2013-03-02T16:26:12Z</time>
      </trkpt>
      <trkpt lat="44.0841" lon="1.66884">
        <ele>170</ele>
        <time>2013-03-02T16:26:14Z</time>
      </trkpt>
      <trkpt lat="44.084" lon="1.66879">
        <ele>170</ele>
        <time>2013-03-02T16:26:16Z</time>
      </trkpt>
      <trkpt lat="44.08389" lon="1.66875">
        <ele>170</ele>
        <time>2013-03-02T16:26:18Z</time>
      </trkpt>
      <trkpt lat="44.08379" lon="1.66871">
        <ele>170</ele>
        <time>2013-03-02T16:26:20Z</time>
      </trkpt>
      <trkpt lat="44.08371" lon="1.66871">
        <ele>170</ele>
        <time>2013-03-02T16:26:22Z</time>
      </trkpt>
      <trkpt lat="44.08362" lon="1.66873">
        <ele>170</ele>
        <time>2013-03-02T16:26:24Z</time>
      </trkpt>
      <trkpt lat="44.08351" lon="1.66877">
        <ele>170</ele>
        <time>2013-03-02T16:26:26Z</time>
      </trkpt>
      <trkpt lat="44.08341" lon="1.66883">
        <ele>170</ele>
        <time>2013-03-02T16:26:28Z</time>
      </trkpt>
      <trkpt lat="44.08331" lon="1.6689">
        <ele>169</ele>
        <time>2013-03-02T16:26:30Z</time>
      </trkpt>
      <trkpt lat="44.08322" lon="1.66898">
        <ele>169</ele>
        <time>2013-03-02T16:26:32Z</time>
      </trkpt>
      <trkpt lat="44.08313" lon="1.66908">
        <ele>169</ele>
        <time>2013-03-02T16:26:34Z</time>
      </trkpt>
      <trkpt lat="44.08303" lon="1.66919">
        <ele>169</ele>
        <time>2013-03-02T16:26:36Z</time>
      </trkpt>
      <trkpt lat="44.08294" lon="1.66928">
        <ele>169</ele>
        <time>2013-03-02T16:26:38Z</time>
      </trkpt>
      <trkpt lat="44.08285" lon="1.6693">
        <ele>169</ele>
        <time>2013-03-02T16:26:40Z</time>
      </trkpt>
      <trkpt lat="44.08278" lon="1.66928">
        <ele>169</ele>
        <time>2013-03-02T16:26:42Z</time>
      </trkpt>
      <trkpt lat="44.0827" lon="1.66924">
        <ele>169</ele>
        <time>2013-03-02T16:26:44Z</time>
      </trkpt>
      <trkpt lat="44.08259" lon="1.66921">
        <ele>169</ele>
        <time>2013-03-02T16:26:46Z</time>
      </trkpt>
      <trkpt lat="44.0825" lon="1.66922">
        <ele>169</ele>
        <time>2013-03-02T16:26:48Z</time>
      </trkpt>
      <trkpt lat="44.08238" lon="1.66922">
        <ele>169</ele>
        <time>2013-03-02T16:26:50Z</time>
      </trkpt>
      <trkpt lat="44.08228" lon="1.66917">
        <ele>168</ele>
        <time>2013-03-02T16:26:52Z</time>
      </trkpt>
      <trkpt lat="44.08217" lon="1.66907">
        <ele>167</ele>
        <time>2013-03-02T16:26:54Z</time>
      </trkpt>
      <trkpt lat="44.08208" lon="1.66895">
        <ele>165</ele>
        <time>2013-03-02T16:26:56Z</time>
      </trkpt>
      <trkpt lat="44.08201" lon="1.66892">
        <ele>164</ele>
        <time>2013-03-02T16:26:58Z</time>
      </trkpt>
      <trkpt lat="44.08195" lon="1.66895">
        <ele>164</ele>
        <time>2013-03-02T16:27:00Z</time>
      </trkpt>
      <trkpt lat="44.08189" lon="1.66897">
        <ele>163</ele>
        <time>2013-03-02T16:27:02Z</time>
      </trkpt>
      <trkpt lat="44.08186" lon="1.669">
        <ele>162</ele>
        <time>2013-03-02T16:27:04Z</time>
      </trkpt>
      <trkpt lat="44.08181" lon="1.66903">
        <ele>162</ele>
        <time>2013-03-02T16:27:06Z</time>
      </trkpt>
      <trkpt lat="44.08175" lon="1.66906">
        <ele>162</ele>
        <time>2013-03-02T16:27:08Z</time>
      </trkpt>
      <trkpt lat="44.08169" lon="1.66902">
        <ele>162</ele>
        <time>2013-03-02T16:27:10Z</time>
      </trkpt>
      <trkpt lat="44.08166" lon="1.66898">
        <ele>162</ele>
        <time>2013-03-02T16:27:12Z</time>
      </trkpt>
      <trkpt lat="44.08161" lon="1.66894">
        <ele>162</ele>
        <time>2013-03-02T16:27:14Z</time>
      </trkpt>
      <trkpt lat="44.08157" lon="1.66891">
        <ele>162</ele>
        <time>2013-03-02T16:27:16Z</time>
      </trkpt>
      <trkpt lat="44.08153" lon="1.66887">
        <ele>162</ele>
        <time>2013-03-02T16:27:18Z</time>
      </trkpt>
      <trkpt lat="44.0815" lon="1.66884">
        <ele>162</ele>
        <time>2013-03-02T16:27:20Z</time>
      </trkpt>
      <trkpt lat="44.08147" lon="1.66881">
        <ele>162</ele>
        <time>2013-03-02T16:27:22Z</time>
      </trkpt>
      <trkpt lat="44.08144" lon="1.6688">
        <ele>162</ele>
        <time>2013-03-02T16:27:24Z</time>
      </trkpt>
      <trkpt lat="44.08141" lon="1.66877">
        <ele>162</ele>
        <time>2013-03-02T16:27:26Z</time>
      </trkpt>
      <trkpt lat="44.08138" lon="1.66875">
        <ele>162</ele>
        <time>2013-03-02T16:27:28Z</time>
      </trkpt>
      <trkpt lat="44.08135" lon="1.66874">
        <ele>162</ele>
        <time>2013-03-02T16:27:30Z</time>
      </trkpt>
      <trkpt lat="44.08131" lon="1.66874">
        <ele>162</ele>
        <time>2013-03-02T16:27:32Z</time>
      </trkpt>
      <trkpt lat="44.08128" lon="1.66873">
        <ele>162</ele>
        <time>2013-03-02T16:27:34Z</time>
      </trkpt>
      <trkpt lat="44.08124" lon="1.66874">
        <ele>162</ele>
        <time>2013-03-02T16:27:36Z</time>
      </trkpt>
      <trkpt lat="44.08121" lon="1.66875">
        <ele>163</ele>
        <time>2013-03-02T16:27:38Z</time>
      </trkpt>
      <trkpt lat="44.08119" lon="1.66877">
        <ele>164</ele>
        <time>2013-03-02T16:27:41Z</time>
      </trkpt>
      <trkpt lat="44.0812" lon="1.66876">
        <ele>166</ele>
        <time>2013-03-02T16:27:47Z</time>
      </trkpt>
      <trkpt lat="44.08121" lon="1.66874">
        <ele>166</ele>
        <time>2013-03-02T16:27:50Z</time>
      </trkpt>
      <trkpt lat="44.08122" lon="1.66872">
        <ele>166</ele>
        <time>2013-03-02T16:27:55Z</time>
      </trkpt>
      <trkpt lat="44.08125" lon="1.66871">
        <ele>166</ele>
        <time>2013-03-02T16:27:57Z</time>
      </trkpt>
      <trkpt lat="44.08129" lon="1.66871">
        <ele>166</ele>
        <time>2013-03-02T16:27:59Z</time>
      </trkpt>
      <trkpt lat="44.08133" lon="1.66872">
        <ele>166</ele>
        <time>2013-03-02T16:28:01Z</time>
      </trkpt>
      <trkpt lat="44.08138" lon="1.66874">
        <ele>166</ele>
        <time>2013-03-02T16:28:03Z</time>
      </trkpt>
      <trkpt lat="44.08141" lon="1.66878">
        <ele>166</ele>
        <time>2013-03-02T16:28:05Z</time>
      </trkpt>
      <trkpt lat="44.08145" lon="1.66881">
        <ele>166</ele>
        <time>2013-03-02T16:28:07Z</time>
      </trkpt>
      <trkpt lat="44.08149" lon="1.66885">
        <ele>166</ele>
        <time>2013-03-02T16:28:09Z</time>
      </trkpt>
      <trkpt lat="44.08154" lon="1.66889">
        <ele>166</ele>
        <time>2013-03-02T16:28:11Z</time>
      </trkpt>
      <trkpt lat="44.08159" lon="1.66894">
        <ele>166</ele>
        <time>2013-03-02T16:28:13Z</time>
      </trkpt>
      <trkpt lat="44.08164" lon="1.669">
        <ele>166</ele>
        <time>2013-03-02T16:28:15Z</time>
      </trkpt>
      <trkpt lat="44.0817" lon="1.66901">
        <ele>166</ele>
        <time>2013-03-02T16:28:17Z</time>
      </trkpt>
      <trkpt lat="44.08177" lon="1.66897">
        <ele>165</ele>
        <time>2013-03-02T16:28:19Z</time>
      </trkpt>
      <trkpt lat="44.08182" lon="1.66895">
        <ele>163</ele>
        <time>2013-03-02T16:28:21Z</time>
      </trkpt>
      <trkpt lat="44.08185" lon="1.66893">
        <ele>163</ele>
        <time>2013-03-02T16:28:23Z</time>
      </trkpt>
      <trkpt lat="44.08188" lon="1.66892">
        <ele>162</ele>
        <time>2013-03-02T16:28:25Z</time>
      </trkpt>
      <trkpt lat="44.08192" lon="1.66891">
        <ele>162</ele>
        <time>2013-03-02T16:28:27Z</time>
      </trkpt>
      <trkpt lat="44.08195" lon="1.66889">
        <ele>162</ele>
        <time>2013-03-02T16:28:30Z</time>
      </trkpt>
      <trkpt lat="44.082" lon="1.66885">
        <ele>162</ele>
        <time>2013-03-02T16:28:32Z</time>
      </trkpt>
      <trkpt lat="44.08202" lon="1.6688">
        <ele>161</ele>
        <time>2013-03-02T16:28:34Z</time>
      </trkpt>
      <trkpt lat="44.08202" lon="1.66874">
        <ele>160</ele>
        <time>2013-03-02T16:28:36Z</time>
      </trkpt>
      <trkpt lat="44.08203" lon="1.66868">
        <ele>160</ele>
        <time>2013-03-02T16:28:38Z</time>
      </trkpt>
      <trkpt lat="44.08204" lon="1.66862">
        <ele>160</ele>
        <time>2013-03-02T16:28:40Z</time>
      </trkpt>
      <trkpt lat="44.08203" lon="1.66855">
        <ele>160</ele>
        <time>2013-03-02T16:28:42Z</time>
      </trkpt>
      <trkpt lat="44.08203" lon="1.66848">
        <ele>160</ele>
        <time>2013-03-02T16:28:44Z</time>
      </trkpt>
      <trkpt lat="44.08203" lon="1.66842">
        <ele>160</ele>
        <time>2013-03-02T16:28:46Z</time>
      </trkpt>
      <trkpt lat="44.08204" lon="1.66837">
        <ele>160</ele>
        <time>2013-03-02T16:28:48Z</time>
      </trkpt>
      <trkpt lat="44.08205" lon="1.66832">
        <ele>160</ele>
        <time>2013-03-02T16:28:50Z</time>
      </trkpt>
      <trkpt lat="44.08206" lon="1.66827">
        <ele>160</ele>
        <time>2013-03-02T16:28:52Z</time>
      </trkpt>
      <trkpt lat="44.08207" lon="1.66822">
        <ele>160</ele>
        <time>2013-03-02T16:28:54Z</time>
      </trkpt>
      <trkpt lat="44.08209" lon="1.66816">
        <ele>160</ele>
        <time>2013-03-02T16:28:56Z</time>
      </trkpt>
      <trkpt lat="44.0821" lon="1.66811">
        <ele>160</ele>
        <time>2013-03-02T16:28:58Z</time>
      </trkpt>
      <trkpt lat="44.08211" lon="1.66806">
        <ele>160</ele>
        <time>2013-03-02T16:29:00Z</time>
      </trkpt>
      <trkpt lat="44.08207" lon="1.66802">
        <ele>160</ele>
        <time>2013-03-02T16:29:02Z</time>
      </trkpt>
      <trkpt lat="44.08201" lon="1.66801">
        <ele>160</ele>
        <time>2013-03-02T16:29:04Z</time>
      </trkpt>
      <trkpt lat="44.08192" lon="1.668">
        <ele>160</ele>
        <time>2013-03-02T16:29:06Z</time>
      </trkpt>
      <trkpt lat="44.08184" lon="1.66795">
        <ele>161</ele>
        <time>2013-03-02T16:29:08Z</time>
      </trkpt>
      <trkpt lat="44.08177" lon="1.66787">
        <ele>161</ele>
        <time>2013-03-02T16:29:10Z</time>
      </trkpt>
      <trkpt lat="44.08171" lon="1.66781">
        <ele>161</ele>
        <time>2013-03-02T16:29:12Z</time>
      </trkpt>
      <trkpt lat="44.08163" lon="1.66779">
        <ele>161</ele>
        <time>2013-03-02T16:29:14Z</time>
      </trkpt>
      <trkpt lat="44.08155" lon="1.66782">
        <ele>161</ele>
        <time>2013-03-02T16:29:16Z</time>
      </trkpt>
      <trkpt lat="44.08147" lon="1.66783">
        <ele>161</ele>
        <time>2013-03-02T16:29:18Z</time>
      </trkpt>
      <trkpt lat="44.08136" lon="1.66784">
        <ele>161</ele>
        <time>2013-03-02T16:29:20Z</time>
      </trkpt>
      <trkpt lat="44.08124" lon="1.66785">
        <ele>161</ele>
        <time>2013-03-02T16:29:22Z</time>
      </trkpt>
      <trkpt lat="44.08114" lon="1.66786">
        <ele>161</ele>
        <time>2013-03-02T16:29:24Z</time>
      </trkpt>
      <trkpt lat="44.08105" lon="1.66784">
        <ele>161</ele>
        <time>2013-03-02T16:29:26Z</time>
      </trkpt>
      <trkpt lat="44.08097" lon="1.66781">
        <ele>161</ele>
        <time>2013-03-02T16:29:28Z</time>
      </trkpt>
      <trkpt lat="44.08088" lon="1.66778">
        <ele>161</ele>
        <time>2013-03-02T16:29:30Z</time>
      </trkpt>
      <trkpt lat="44.08079" lon="1.66774">
        <ele>161</ele>
        <time>2013-03-02T16:29:32Z</time>
      </trkpt>
      <trkpt lat="44.0807" lon="1.66771">
        <ele>161</ele>
        <time>2013-03-02T16:29:34Z</time>
      </trkpt>
      <trkpt lat="44.08064" lon="1.66769">
        <ele>161</ele>
        <time>2013-03-02T16:29:36Z</time>
      </trkpt>
      <trkpt lat="44.08055" lon="1.66767">
        <ele>161</ele>
        <time>2013-03-02T16:29:38Z</time>
      </trkpt>
      <trkpt lat="44.08046" lon="1.66764">
        <ele>161</ele>
        <time>2013-03-02T16:29:40Z</time>
      </trkpt>
      <trkpt lat="44.08038" lon="1.66762">
        <ele>161</ele>
        <time>2013-03-02T16:29:42Z</time>
      </trkpt>
      <trkpt lat="44.08029" lon="1.6676">
        <ele>161</ele>
        <time>2013-03-02T16:29:44Z</time>
      </trkpt>
      <trkpt lat="44.0802" lon="1.66759">
        <ele>161</ele>
        <time>2013-03-02T16:29:46Z</time>
      </trkpt>
      <trkpt lat="44.08012" lon="1.66756">
        <ele>161</ele>
        <time>2013-03-02T16:29:48Z</time>
      </trkpt>
      <trkpt lat="44.08004" lon="1.66751">
        <ele>161</ele>
        <time>2013-03-02T16:29:50Z</time>
      </trkpt>
      <trkpt lat="44.07998" lon="1.66744">
        <ele>161</ele>
        <time>2013-03-02T16:29:52Z</time>
      </trkpt>
      <trkpt lat="44.0799" lon="1.66735">
        <ele>162</ele>
        <time>2013-03-02T16:29:54Z</time>
      </trkpt>
      <trkpt lat="44.07982" lon="1.66724">
        <ele>162</ele>
        <time>2013-03-02T16:29:56Z</time>
      </trkpt>
      <trkpt lat="44.07975" lon="1.66712">
        <ele>162</ele>
        <time>2013-03-02T16:29:58Z</time>
      </trkpt>
      <trkpt lat="44.07967" lon="1.66699">
        <ele>162</ele>
        <time>2013-03-02T16:30:00Z</time>
      </trkpt>
      <trkpt lat="44.0796" lon="1.66686">
        <ele>162</ele>
        <time>2013-03-02T16:30:02Z</time>
      </trkpt>
      <trkpt lat="44.07953" lon="1.66675">
        <ele>162</ele>
        <time>2013-03-02T16:30:04Z</time>
      </trkpt>
      <trkpt lat="44.07947" lon="1.66664">
        <ele>160</ele>
        <time>2013-03-02T16:30:06Z</time>
      </trkpt>
      <trkpt lat="44.07941" lon="1.66651">
        <ele>158</ele>
        <time>2013-03-02T16:30:08Z</time>
      </trkpt>
      <trkpt lat="44.07937" lon="1.66638">
        <ele>156</ele>
        <time>2013-03-02T16:30:10Z</time>
      </trkpt>
      <trkpt lat="44.07935" lon="1.66629">
        <ele>155</ele>
        <time>2013-03-02T16:30:12Z</time>
      </trkpt>
      <trkpt lat="44.0793" lon="1.66628">
        <ele>154</ele>
        <time>2013-03-02T16:30:14Z</time>
      </trkpt>
      <trkpt lat="44.07922" lon="1.6663">
        <ele>154</ele>
        <time>2013-03-02T16:30:16Z</time>
      </trkpt>
      <trkpt lat="44.07915" lon="1.66632">
        <ele>154</ele>
        <time>2013-03-02T16:30:18Z</time>
      </trkpt>
      <trkpt lat="44.07909" lon="1.66634">
        <ele>154</ele>
        <time>2013-03-02T16:30:20Z</time>
      </trkpt>
      <trkpt lat="44.07903" lon="1.66634">
        <ele>153</ele>
        <time>2013-03-02T16:30:22Z</time>
      </trkpt>
      <trkpt lat="44.07898" lon="1.66634">
        <ele>153</ele>
        <time>2013-03-02T16:30:24Z</time>
      </trkpt>
      <trkpt lat="44.07895" lon="1.66633">
        <ele>152</ele>
        <time>2013-03-02T16:30:26Z</time>
      </trkpt>
      <trkpt lat="44.07893" lon="1.66631">
        <ele>151</ele>
        <time>2013-03-02T16:30:28Z</time>
      </trkpt>
      <trkpt lat="44.07891" lon="1.6663">
        <ele>150</ele>
        <time>2013-03-02T16:30:30Z</time>
      </trkpt>
      <trkpt lat="44.0789" lon="1.6663">
        <ele>150</ele>
        <time>2013-03-02T16:30:32Z</time>
      </trkpt>
      <trkpt lat="44.07888" lon="1.6663">
        <ele>150</ele>
        <time>2013-03-02T16:30:34Z</time>
      </trkpt>
      <trkpt lat="44.07886" lon="1.6663">
        <ele>150</ele>
        <time>2013-03-02T16:30:36Z</time>
      </trkpt>
      <trkpt lat="44.07884" lon="1.66628">
        <ele>150</ele>
        <time>2013-03-02T16:30:38Z</time>
      </trkpt>
      <trkpt lat="44.07883" lon="1.66624">
        <ele>150</ele>
        <time>2013-03-02T16:30:40Z</time>
      </trkpt>
      <trkpt lat="44.0788" lon="1.66619">
        <ele>149</ele>
        <time>2013-03-02T16:30:42Z</time>
      </trkpt>
      <trkpt lat="44.07878" lon="1.66612">
        <ele>148</ele>
        <time>2013-03-02T16:30:44Z</time>
      </trkpt>
      <trkpt lat="44.07876" lon="1.66605">
        <ele>147</ele>
        <time>2013-03-02T16:30:46Z</time>
      </trkpt>
      <trkpt lat="44.07874" lon="1.66596">
        <ele>146</ele>
        <time>2013-03-02T16:30:48Z</time>
      </trkpt>
      <trkpt lat="44.07872" lon="1.66588">
        <ele>145</ele>
        <time>2013-03-02T16:30:50Z</time>
      </trkpt>
      <trkpt lat="44.07869" lon="1.66578">
        <ele>144</ele>
        <time>2013-03-02T16:30:52Z</time>
      </trkpt>
      <trkpt lat="44.07864" lon="1.66568">
        <ele>143</ele>
        <time>2013-03-02T16:30:54Z</time>
      </trkpt>
      <trkpt lat="44.07859" lon="1.66561">
        <ele>143</ele>
        <time>2013-03-02T16:30:56Z</time>
      </trkpt>
      <trkpt lat="44.07847" lon="1.66556">
        <ele>142</ele>
        <time>2013-03-02T16:30:58Z</time>
      </trkpt>
      <trkpt lat="44.07837" lon="1.66557">
        <ele>142</ele>
        <time>2013-03-02T16:31:00Z</time>
      </trkpt>
      <trkpt lat="44.07826" lon="1.66559">
        <ele>142</ele>
        <time>2013-03-02T16:31:02Z</time>
      </trkpt>
      <trkpt lat="44.07815" lon="1.6656">
        <ele>142</ele>
        <time>2013-03-02T16:31:04Z</time>
      </trkpt>
      <trkpt lat="44.07806" lon="1.66566">
        <ele>141</ele>
        <time>2013-03-02T16:31:06Z</time>
      </trkpt>
      <trkpt lat="44.07798" lon="1.6657">
        <ele>141</ele>
        <time>2013-03-02T16:31:08Z</time>
      </trkpt>
      <trkpt lat="44.07791" lon="1.66576">
        <ele>141</ele>
        <time>2013-03-02T16:31:10Z</time>
      </trkpt>
      <trkpt lat="44.07786" lon="1.66579">
        <ele>141</ele>
        <time>2013-03-02T16:31:12Z</time>
      </trkpt>
      <trkpt lat="44.07784" lon="1.66578">
        <ele>141</ele>
        <time>2013-03-02T16:31:14Z</time>
      </trkpt>
      <trkpt lat="44.07782" lon="1.66576">
        <ele>141</ele>
        <time>2013-03-02T16:31:16Z</time>
      </trkpt>
      <trkpt lat="44.0778" lon="1.66576">
        <ele>140</ele>
        <time>2013-03-02T16:31:18Z</time>
      </trkpt>
      <trkpt lat="44.07779" lon="1.66579">
        <ele>140</ele>
        <time>2013-03-02T16:31:20Z</time>
      </trkpt>
      <trkpt lat="44.07776" lon="1.66586">
        <ele>140</ele>
        <time>2013-03-02T16:31:22Z</time>
      </trkpt>
      <trkpt lat="44.0777" lon="1.6659">
        <ele>140</ele>
        <time>2013-03-02T16:31:24Z</time>
      </trkpt>
      <trkpt lat="44.07765" lon="1.66593">
        <ele>140</ele>
        <time>2013-03-02T16:31:26Z</time>
      </trkpt>
      <trkpt lat="44.0776" lon="1.66596">
        <ele>140</ele>
        <time>2013-03-02T16:31:28Z</time>
      </trkpt>
      <trkpt lat="44.07754" lon="1.66601">
        <ele>140</ele>
        <time>2013-03-02T16:31:30Z</time>
      </trkpt>
      <trkpt lat="44.07748" lon="1.66603">
        <ele>140</ele>
        <time>2013-03-02T16:31:32Z</time>
      </trkpt>
      <trkpt lat="44.0774" lon="1.66604">
        <ele>140</ele>
        <time>2013-03-02T16:31:34Z</time>
      </trkpt>
      <trkpt lat="44.07732" lon="1.66604">
        <ele>140</ele>
        <time>2013-03-02T16:31:36Z</time>
      </trkpt>
      <trkpt lat="44.07723" lon="1.66605">
        <ele>140</ele>
        <time>2013-03-02T16:31:38Z</time>
      </trkpt>
      <trkpt lat="44.07714" lon="1.6661">
        <ele>141</ele>
        <time>2013-03-02T16:31:40Z</time>
      </trkpt>
      <trkpt lat="44.07708" lon="1.66614">
        <ele>143</ele>
        <time>2013-03-02T16:31:42Z</time>
      </trkpt>
      <trkpt lat="44.07704" lon="1.66617">
        <ele>145</ele>
        <time>2013-03-02T16:31:44Z</time>
      </trkpt>
      <trkpt lat="44.07703" lon="1.66622">
        <ele>147</ele>
        <time>2013-03-02T16:31:48Z</time>
      </trkpt>
      <trkpt lat="44.077" lon="1.66626">
        <ele>149</ele>
        <time>2013-03-02T16:31:51Z</time>
      </trkpt>
      <trkpt lat="44.07695" lon="1.66628">
        <ele>150</ele>
        <time>2013-03-02T16:31:53Z</time>
      </trkpt>
      <trkpt lat="44.07689" lon="1.66631">
        <ele>150</ele>
        <time>2013-03-02T16:31:55Z</time>
      </trkpt>
      <trkpt lat="44.07683" lon="1.66635">
        <ele>151</ele>
        <time>2013-03-02T16:31:57Z</time>
      </trkpt>
      <trkpt lat="44.07677" lon="1.66638">
        <ele>151</ele>
        <time>2013-03-02T16:31:59Z</time>
      </trkpt>
      <trkpt lat="44.07671" lon="1.66641">
        <ele>152</ele>
        <time>2013-03-02T16:32:01Z</time>
      </trkpt>
      <trkpt lat="44.07663" lon="1.66641">
        <ele>152</ele>
        <time>2013-03-02T16:32:03Z</time>
      </trkpt>
      <trkpt lat="44.07656" lon="1.6664">
        <ele>152</ele>
        <time>2013-03-02T16:32:05Z</time>
      </trkpt>
      <trkpt lat="44.07649" lon="1.66637">
        <ele>152</ele>
        <time>2013-03-02T16:32:07Z</time>
      </trkpt>
      <trkpt lat="44.07642" lon="1.66634">
        <ele>151</ele>
        <time>2013-03-02T16:32:09Z</time>
      </trkpt>
      <trkpt lat="44.07635" lon="1.66631">
        <ele>149</ele>
        <time>2013-03-02T16:32:11Z</time>
      </trkpt>
      <trkpt lat="44.0763" lon="1.66626">
        <ele>147</ele>
        <time>2013-03-02T16:32:13Z</time>
      </trkpt>
      <trkpt lat="44.07623" lon="1.66615">
        <ele>145</ele>
        <time>2013-03-02T16:32:15Z</time>
      </trkpt>
      <trkpt lat="44.07616" lon="1.66606">
        <ele>143</ele>
        <time>2013-03-02T16:32:17Z</time>
      </trkpt>
      <trkpt lat="44.07607" lon="1.66597">
        <ele>141</ele>
        <time>2013-03-02T16:32:19Z</time>
      </trkpt>
      <trkpt lat="44.07596" lon="1.66588">
        <ele>141</ele>
        <time>2013-03-02T16:32:21Z</time>
      </trkpt>
      <trkpt lat="44.07589" lon="1.6658">
        <ele>141</ele>
        <time>2013-03-02T16:32:23Z</time>
      </trkpt>
      <trkpt lat="44.07582" lon="1.66575">
        <ele>141</ele>
        <time>2013-03-02T16:32:25Z</time>
      </trkpt>
      <trkpt lat="44.07573" lon="1.66569">
        <ele>141</ele>
        <time>2013-03-02T16:32:27Z</time>
      </trkpt>
      <trkpt lat="44.07566" lon="1.66562">
        <ele>141</ele>
        <time>2013-03-02T16:32:30Z</time>
      </trkpt>
      <trkpt lat="44.07557" lon="1.66554">
        <ele>141</ele>
        <time>2013-03-02T16:32:32Z</time>
      </trkpt>
      <trkpt lat="44.0755" lon="1.6655">
        <ele>139</ele>
        <time>2013-03-02T16:32:34Z</time>
      </trkpt>
      <trkpt lat="44.07544" lon="1.66543">
        <ele>139</ele>
        <time>2013-03-02T16:32:36Z</time>
      </trkpt>
      <trkpt lat="44.0754" lon="1.66539">
        <ele>138</ele>
        <time>2013-03-02T16:32:38Z</time>
      </trkpt>
      <trkpt lat="44.07537" lon="1.66534">
        <ele>137</ele>
        <time>2013-03-02T16:32:40Z</time>
      </trkpt>
      <trkpt lat="44.07532" lon="1.66527">
        <ele>136</ele>
        <time>2013-03-02T16:32:42Z</time>
      </trkpt>
      <trkpt lat="44.07526" lon="1.66519">
        <ele>135</ele>
        <time>2013-03-02T16:32:44Z</time>
      </trkpt>
      <trkpt lat="44.0752" lon="1.6651">
        <ele>135</ele>
        <time>2013-03-02T16:32:46Z</time>
      </trkpt>
      <trkpt lat="44.07514" lon="1.665">
        <ele>135</ele>
        <time>2013-03-02T16:32:48Z</time>
      </trkpt>
      <trkpt lat="44.0751" lon="1.6649">
        <ele>134</ele>
        <time>2013-03-02T16:32:50Z</time>
      </trkpt>
      <trkpt lat="44.07505" lon="1.66479">
        <ele>132</ele>
        <time>2013-03-02T16:32:52Z</time>
      </trkpt>
      <trkpt lat="44.07501" lon="1.66468">
        <ele>131</ele>
        <time>2013-03-02T16:32:54Z</time>
      </trkpt>
      <trkpt lat="44.07497" lon="1.66458">
        <ele>130</ele>
        <time>2013-03-02T16:32:56Z</time>
      </trkpt>
      <trkpt lat="44.07493" lon="1.66452">
        <ele>130</ele>
        <time>2013-03-02T16:32:58Z</time>
      </trkpt>
      <trkpt lat="44.07489" lon="1.66447">
        <ele>129</ele>
        <time>2013-03-02T16:33:00Z</time>
      </trkpt>
      <trkpt lat="44.07486" lon="1.66442">
        <ele>128</ele>
        <time>2013-03-02T16:33:02Z</time>
      </trkpt>
      <trkpt lat="44.07483" lon="1.66436">
        <ele>127</ele>
        <time>2013-03-02T16:33:04Z</time>
      </trkpt>
      <trkpt lat="44.0748" lon="1.66431">
        <ele>126</ele>
        <time>2013-03-02T16:33:06Z</time>
      </trkpt>
      <trkpt lat="44.07476" lon="1.66426">
        <ele>125</ele>
        <time>2013-03-02T16:33:08Z</time>
      </trkpt>
      <trkpt lat="44.07472" lon="1.66419">
        <ele>125</ele>
        <time>2013-03-02T16:33:10Z</time>
      </trkpt>
      <trkpt lat="44.07471" lon="1.66411">
        <ele>124</ele>
        <time>2013-03-02T16:33:12Z</time>
      </trkpt>
      <trkpt lat="44.07468" lon="1.66403">
        <ele>123</ele>
        <time>2013-03-02T16:33:14Z</time>
      </trkpt>
      <trkpt lat="44.07467" lon="1.66395">
        <ele>123</ele>
        <time>2013-03-02T16:33:16Z</time>
      </trkpt>
      <trkpt lat="44.07465" lon="1.66386">
        <ele>122</ele>
        <time>2013-03-02T16:33:18Z</time>
      </trkpt>
      <trkpt lat="44.07461" lon="1.66377">
        <ele>122</ele>
        <time>2013-03-02T16:33:20Z</time>
      </trkpt>
      <trkpt lat="44.07455" lon="1.66369">
        <ele>122</ele>
        <time>2013-03-02T16:33:22Z</time>
      </trkpt>
      <trkpt lat="44.07449" lon="1.6636">
        <ele>122</ele>
        <time>2013-03-02T16:33:24Z</time>
      </trkpt>
      <trkpt lat="44.07443" lon="1.6635">
        <ele>122</ele>
        <time>2013-03-02T16:33:26Z</time>
      </trkpt>
      <trkpt lat="44.07437" lon="1.66341">
        <ele>123</ele>
        <time>2013-03-02T16:33:28Z</time>
      </trkpt>
      <trkpt lat="44.07431" lon="1.66331">
        <ele>124</ele>
        <time>2013-03-02T16:33:30Z</time>
      </trkpt>
      <trkpt lat="44.07424" lon="1.66322">
        <ele>124</ele>
        <time>2013-03-02T16:33:32Z</time>
      </trkpt>
      <trkpt lat="44.07418" lon="1.66313">
        <ele>126</ele>
        <time>2013-03-02T16:33:34Z</time>
      </trkpt>
      <trkpt lat="44.07411" lon="1.66303">
        <ele>127</ele>
        <time>2013-03-02T16:33:36Z</time>
      </trkpt>
      <trkpt lat="44.07406" lon="1.66293">
        <ele>127</ele>
        <time>2013-03-02T16:33:38Z</time>
      </trkpt>
      <trkpt lat="44.07399" lon="1.66285">
        <ele>127</ele>
        <time>2013-03-02T16:33:40Z</time>
      </trkpt>
      <trkpt lat="44.07392" lon="1.66278">
        <ele>127</ele>
        <time>2013-03-02T16:33:42Z</time>
      </trkpt>
      <trkpt lat="44.07383" lon="1.66274">
        <ele>127</ele>
        <time>2013-03-02T16:33:44Z</time>
      </trkpt>
      <trkpt lat="44.07373" lon="1.66273">
        <ele>127</ele>
        <time>2013-03-02T16:33:46Z</time>
      </trkpt>
      <trkpt lat="44.07364" lon="1.66273">
        <ele>127</ele>
        <time>2013-03-02T16:33:48Z</time>
      </trkpt>
      <trkpt lat="44.07355" lon="1.66272">
        <ele>127</ele>
        <time>2013-03-02T16:33:50Z</time>
      </trkpt>
      <trkpt lat="44.07345" lon="1.66272">
        <ele>127</ele>
        <time>2013-03-02T16:33:52Z</time>
      </trkpt>
      <trkpt lat="44.07334" lon="1.66268">
        <ele>127</ele>
        <time>2013-03-02T16:33:54Z</time>
      </trkpt>
      <trkpt lat="44.07323" lon="1.66266">
        <ele>128</ele>
        <time>2013-03-02T16:33:56Z</time>
      </trkpt>
      <trkpt lat="44.07313" lon="1.66264">
        <ele>130</ele>
        <time>2013-03-02T16:33:58Z</time>
      </trkpt>
      <trkpt lat="44.07303" lon="1.66262">
        <ele>130</ele>
        <time>2013-03-02T16:34:00Z</time>
      </trkpt>
      <trkpt lat="44.07294" lon="1.66259">
        <ele>130</ele>
        <time>2013-03-02T16:34:02Z</time>
      </trkpt>
      <trkpt lat="44.07285" lon="1.66258">
        <ele>131</ele>
        <time>2013-03-02T16:34:04Z</time>
      </trkpt>
      <trkpt lat="44.07276" lon="1.66256">
        <ele>132</ele>
        <time>2013-03-02T16:34:06Z</time>
      </trkpt>
      <trkpt lat="44.07267" lon="1.66253">
        <ele>132</ele>
        <time>2013-03-02T16:34:08Z</time>
      </trkpt>
      <trkpt lat="44.07258" lon="1.66251">
        <ele>132</ele>
        <time>2013-03-02T16:34:10Z</time>
      </trkpt>
      <trkpt lat="44.0725" lon="1.66251">
        <ele>133</ele>
        <time>2013-03-02T16:34:12Z</time>
      </trkpt>
      <trkpt lat="44.07243" lon="1.66248">
        <ele>134</ele>
        <time>2013-03-02T16:34:14Z</time>
      </trkpt>
      <trkpt lat="44.07235" lon="1.66246">
        <ele>135</ele>
        <time>2013-03-02T16:34:16Z</time>
      </trkpt>
      <trkpt lat="44.07228" lon="1.6624">
        <ele>135</ele>
        <time>2013-03-02T16:34:18Z</time>
      </trkpt>
      <trkpt lat="44.07223" lon="1.66233">
        <ele>134</ele>
        <time>2013-03-02T16:34:20Z</time>
      </trkpt>
      <trkpt lat="44.07216" lon="1.66227">
        <ele>132</ele>
        <time>2013-03-02T16:34:22Z</time>
      </trkpt>
      <trkpt lat="44.07209" lon="1.66222">
        <ele>128</ele>
        <time>2013-03-02T16:34:24Z</time>
      </trkpt>
      <trkpt lat="44.07203" lon="1.66216">
        <ele>124</ele>
        <time>2013-03-02T16:34:26Z</time>
      </trkpt>
      <trkpt lat="44.07196" lon="1.66207">
        <ele>122</ele>
        <time>2013-03-02T16:34:28Z</time>
      </trkpt>
      <trkpt lat="44.0719" lon="1.66198">
        <ele>120</ele>
        <time>2013-03-02T16:34:30Z</time>
      </trkpt>
      <trkpt lat="44.07182" lon="1.66189">
        <ele>118</ele>
        <time>2013-03-02T16:34:32Z</time>
      </trkpt>
      <trkpt lat="44.07175" lon="1.66182">
        <ele>116</ele>
        <time>2013-03-02T16:34:34Z</time>
      </trkpt>
      <trkpt lat="44.07169" lon="1.66173">
        <ele>114</ele>
        <time>2013-03-02T16:34:36Z</time>
      </trkpt>
      <trkpt lat="44.07166" lon="1.66162">
        <ele>112</ele>
        <time>2013-03-02T16:34:38Z</time>
      </trkpt>
      <trkpt lat="44.07163" lon="1.66149">
        <ele>111</ele>
        <time>2013-03-02T16:34:40Z</time>
      </trkpt>
      <trkpt lat="44.07158" lon="1.66138">
        <ele>111</ele>
        <time>2013-03-02T16:34:42Z</time>
      </trkpt>
      <trkpt lat="44.07154" lon="1.66124">
        <ele>111</ele>
        <time>2013-03-02T16:34:44Z</time>
      </trkpt>
      <trkpt lat="44.07149" lon="1.66112">
        <ele>111</ele>
        <time>2013-03-02T16:34:46Z</time>
      </trkpt>
      <trkpt lat="44.07142" lon="1.66103">
        <ele>111</ele>
        <time>2013-03-02T16:34:48Z</time>
      </trkpt>
      <trkpt lat="44.07136" lon="1.66094">
        <ele>111</ele>
        <time>2013-03-02T16:34:50Z</time>
      </trkpt>
      <trkpt lat="44.07129" lon="1.66085">
        <ele>111</ele>
        <time>2013-03-02T16:34:52Z</time>
      </trkpt>
      <trkpt lat="44.07119" lon="1.66077">
        <ele>111</ele>
        <time>2013-03-02T16:34:54Z</time>
      </trkpt>
      <trkpt lat="44.07109" lon="1.66069">
        <ele>110</ele>
        <time>2013-03-02T16:34:56Z</time>
      </trkpt>
      <trkpt lat="44.07099" lon="1.66063">
        <ele>110</ele>
        <time>2013-03-02T16:34:58Z</time>
      </trkpt>
      <trkpt lat="44.0709" lon="1.66057">
        <ele>110</ele>
        <time>2013-03-02T16:35:00Z</time>
      </trkpt>
      <trkpt lat="44.07081" lon="1.66049">
        <ele>110</ele>
        <time>2013-03-02T16:35:02Z</time>
      </trkpt>
      <trkpt lat="44.07074" lon="1.66041">
        <ele>110</ele>
        <time>2013-03-02T16:35:04Z</time>
      </trkpt>
      <trkpt lat="44.07067" lon="1.66031">
        <ele>110</ele>
        <time>2013-03-02T16:35:06Z</time>
      </trkpt>
      <trkpt lat="44.07058" lon="1.66024">
        <ele>110</ele>
        <time>2013-03-02T16:35:08Z</time>
      </trkpt>
      <trkpt lat="44.0705" lon="1.66017">
        <ele>109</ele>
        <time>2013-03-02T16:35:10Z</time>
      </trkpt>
      <trkpt lat="44.07045" lon="1.66013">
        <ele>108</ele>
        <time>2013-03-02T16:35:12Z</time>
      </trkpt>
      <trkpt lat="44.07039" lon="1.66009">
        <ele>108</ele>
        <time>2013-03-02T16:35:14Z</time>
      </trkpt>
      <trkpt lat="44.07035" lon="1.66009">
        <ele>108</ele>
        <time>2013-03-02T16:35:16Z</time>
      </trkpt>
      <trkpt lat="44.07029" lon="1.66007">
        <ele>107</ele>
        <time>2013-03-02T16:35:18Z</time>
      </trkpt>
      <trkpt lat="44.07024" lon="1.66005">
        <ele>107</ele>
        <time>2013-03-02T16:35:20Z</time>
      </trkpt>
      <trkpt lat="44.07018" lon="1.66001">
        <ele>107</ele>
        <time>2013-03-02T16:35:22Z</time>
      </trkpt>
      <trkpt lat="44.07012" lon="1.65996">
        <ele>107</ele>
        <time>2013-03-02T16:35:24Z</time>
      </trkpt>
      <trkpt lat="44.07005" lon="1.65988">
        <ele>107</ele>
        <time>2013-03-02T16:35:26Z</time>
      </trkpt>
      <trkpt lat="44.06998" lon="1.65984">
        <ele>107</ele>
        <time>2013-03-02T16:35:28Z</time>
      </trkpt>
      <trkpt lat="44.06992" lon="1.65982">
        <ele>107</ele>
        <time>2013-03-02T16:35:30Z</time>
      </trkpt>
      <trkpt lat="44.06986" lon="1.6598">
        <ele>107</ele>
        <time>2013-03-02T16:35:32Z</time>
      </trkpt>
      <trkpt lat="44.06981" lon="1.65975">
        <ele>106</ele>
        <time>2013-03-02T16:35:34Z</time>
      </trkpt>
      <trkpt lat="44.06976" lon="1.6597">
        <ele>106</ele>
        <time>2013-03-02T16:35:36Z</time>
      </trkpt>
      <trkpt lat="44.06973" lon="1.65967">
        <ele>106</ele>
        <time>2013-03-02T16:35:38Z</time>
      </trkpt>
      <trkpt lat="44.06967" lon="1.65965">
        <ele>106</ele>
        <time>2013-03-02T16:35:40Z</time>
      </trkpt>
      <trkpt lat="44.06958" lon="1.65961">
        <ele>105</ele>
        <time>2013-03-02T16:35:42Z</time>
      </trkpt>
      <trkpt lat="44.06948" lon="1.65954">
        <ele>105</ele>
        <time>2013-03-02T16:35:44Z</time>
      </trkpt>
      <trkpt lat="44.06937" lon="1.65947">
        <ele>104</ele>
        <time>2013-03-02T16:35:46Z</time>
      </trkpt>
      <trkpt lat="44.06926" lon="1.6594">
        <ele>104</ele>
        <time>2013-03-02T16:35:48Z</time>
      </trkpt>
      <trkpt lat="44.06916" lon="1.65933">
        <ele>104</ele>
        <time>2013-03-02T16:35:50Z</time>
      </trkpt>
      <trkpt lat="44.06906" lon="1.65925">
        <ele>104</ele>
        <time>2013-03-02T16:35:52Z</time>
      </trkpt>
      <trkpt lat="44.06897" lon="1.65919">
        <ele>103</ele>
        <time>2013-03-02T16:35:54Z</time>
      </trkpt>
      <trkpt lat="44.06889" lon="1.6591">
        <ele>103</ele>
        <time>2013-03-02T16:35:56Z</time>
      </trkpt>
      <trkpt lat="44.0688" lon="1.65901">
        <ele>101</ele>
        <time>2013-03-02T16:35:58Z</time>
      </trkpt>
      <trkpt lat="44.06872" lon="1.65892">
        <ele>100</ele>
        <time>2013-03-02T16:36:00Z</time>
      </trkpt>
      <trkpt lat="44.06864" lon="1.65886">
        <ele>100</ele>
        <time>2013-03-02T16:36:02Z</time>
      </trkpt>
      <trkpt lat="44.06857" lon="1.65879">
        <ele>100</ele>
        <time>2013-03-02T16:36:04Z</time>
      </trkpt>
      <trkpt lat="44.06849" lon="1.65876">
        <ele>100</ele>
        <time>2013-03-02T16:36:06Z</time>
      </trkpt>
      <trkpt lat="44.06841" lon="1.65874">
        <ele>100</ele>
        <time>2013-03-02T16:36:08Z</time>
      </trkpt>
      <trkpt lat="44.06834" lon="1.65876">
        <ele>100</ele>
        <time>2013-03-02T16:36:10Z</time>
      </trkpt>
      <trkpt lat="44.06825" lon="1.6588">
        <ele>100</ele>
        <time>2013-03-02T16:36:12Z</time>
      </trkpt>
      <trkpt lat="44.06816" lon="1.65886">
        <ele>100</ele>
        <time>2013-03-02T16:36:14Z</time>
      </trkpt>
      <trkpt lat="44.06807" lon="1.65893">
        <ele>100</ele>
        <time>2013-03-02T16:36:16Z</time>
      </trkpt>
      <trkpt lat="44.06797" lon="1.659">
        <ele>100</ele>
        <time>2013-03-02T16:36:18Z</time>
      </trkpt>
      <trkpt lat="44.06788" lon="1.65909">
        <ele>100</ele>
        <time>2013-03-02T16:36:20Z</time>
      </trkpt>
      <trkpt lat="44.06779" lon="1.65918">
        <ele>100</ele>
        <time>2013-03-02T16:36:22Z</time>
      </trkpt>
      <trkpt lat="44.0677" lon="1.65928">
        <ele>100</ele>
        <time>2013-03-02T16:36:24Z</time>
      </trkpt>
      <trkpt lat="44.06762" lon="1.65938">
        <ele>100</ele>
        <time>2013-03-02T16:36:26Z</time>
      </trkpt>
      <trkpt lat="44.06754" lon="1.65948">
        <ele>100</ele>
        <time>2013-03-02T16:36:28Z</time>
      </trkpt>
      <trkpt lat="44.06745" lon="1.65958">
        <ele>100</ele>
        <time>2013-03-02T16:36:30Z</time>
      </trkpt>
      <trkpt lat="44.06737" lon="1.65969">
        <ele>100</ele>
        <time>2013-03-02T16:36:32Z</time>
      </trkpt>
      <trkpt lat="44.06729" lon="1.65979">
        <ele>100</ele>
        <time>2013-03-02T16:36:34Z</time>
      </trkpt>
      <trkpt lat="44.06721" lon="1.65989">
        <ele>100</ele>
        <time>2013-03-02T16:36:36Z</time>
      </trkpt>
      <trkpt lat="44.06713" lon="1.66">
        <ele>100</ele>
        <time>2013-03-02T16:36:38Z</time>
      </trkpt>
      <trkpt lat="44.06705" lon="1.66011">
        <ele>100</ele>
        <time>2013-03-02T16:36:40Z</time>
      </trkpt>
      <trkpt lat="44.06697" lon="1.66021">
        <ele>100</ele>
        <time>2013-03-02T16:36:42Z</time>
      </trkpt>
      <trkpt lat="44.06689" lon="1.66031">
        <ele>101</ele>
        <time>2013-03-02T16:36:44Z</time>
      </trkpt>
      <trkpt lat="44.0668" lon="1.66041">
        <ele>101</ele>
        <time>2013-03-02T16:36:46Z</time>
      </trkpt>
      <trkpt lat="44.06672" lon="1.66051">
        <ele>101</ele>
        <time>2013-03-02T16:36:48Z</time>
      </trkpt>
      <trkpt lat="44.06663" lon="1.6606">
        <ele>101</ele>
        <time>2013-03-02T16:36:50Z</time>
      </trkpt>
      <trkpt lat="44.06653" lon="1.66069">
        <ele>101</ele>
        <time>2013-03-02T16:36:52Z</time>
      </trkpt>
      <trkpt lat="44.06644" lon="1.66078">
        <ele>101</ele>
        <time>2013-03-02T16:36:54Z</time>
      </trkpt>
      <trkpt lat="44.06633" lon="1.66086">
        <ele>101</ele>
        <time>2013-03-02T16:36:56Z</time>
      </trkpt>
      <trkpt lat="44.06624" lon="1.66095">
        <ele>101</ele>
        <time>2013-03-02T16:36:58Z</time>
      </trkpt>
      <trkpt lat="44.06614" lon="1.66105">
        <ele>101</ele>
        <time>2013-03-02T16:37:00Z</time>
      </trkpt>
      <trkpt lat="44.06605" lon="1.66114">
        <ele>101</ele>
        <time>2013-03-02T16:37:02Z</time>
      </trkpt>
      <trkpt lat="44.06596" lon="1.66125">
        <ele>101</ele>
        <time>2013-03-02T16:37:04Z</time>
      </trkpt>
      <trkpt lat="44.06587" lon="1.66135">
        <ele>101</ele>
        <time>2013-03-02T16:37:06Z</time>
      </trkpt>
      <trkpt lat="44.06579" lon="1.66146">
        <ele>101</ele>
        <time>2013-03-02T16:37:08Z</time>
      </trkpt>
      <trkpt lat="44.06571" lon="1.66159">
        <ele>101</ele>
        <time>2013-03-02T16:37:10Z</time>
      </trkpt>
      <trkpt lat="44.06564" lon="1.66172">
        <ele>101</ele>
        <time>2013-03-02T16:37:12Z</time>
      </trkpt>
      <trkpt lat="44.06557" lon="1.66183">
        <ele>101</ele>
        <time>2013-03-02T16:37:14Z</time>
      </trkpt>
      <trkpt lat="44.06551" lon="1.66195">
        <ele>101</ele>
        <time>2013-03-02T16:37:16Z</time>
      </trkpt>
      <trkpt lat="44.06545" lon="1.66208">
        <ele>101</ele>
        <time>2013-03-02T16:37:18Z</time>
      </trkpt>
      <trkpt lat="44.06538" lon="1.6622">
        <ele>102</ele>
        <time>2013-03-02T16:37:20Z</time>
      </trkpt>
      <trkpt lat="44.0653" lon="1.66232">
        <ele>102</ele>
        <time>2013-03-02T16:37:22Z</time>
      </trkpt>
      <trkpt lat="44.06521" lon="1.66242">
        <ele>102</ele>
        <time>2013-03-02T16:37:24Z</time>
      </trkpt>
      <trkpt lat="44.06511" lon="1.6625">
        <ele>103</ele>
        <time>2013-03-02T16:37:26Z</time>
      </trkpt>
      <trkpt lat="44.06501" lon="1.66258">
        <ele>103</ele>
        <time>2013-03-02T16:37:28Z</time>
      </trkpt>
      <trkpt lat="44.06491" lon="1.66268">
        <ele>103</ele>
        <time>2013-03-02T16:37:30Z</time>
      </trkpt>
      <trkpt lat="44.06482" lon="1.66279">
        <ele>103</ele>
        <time>2013-03-02T16:37:32Z</time>
      </trkpt>
      <trkpt lat="44.06474" lon="1.66292">
        <ele>103</ele>
        <time>2013-03-02T16:37:34Z</time>
      </trkpt>
      <trkpt lat="44.06466" lon="1.66306">
        <ele>104</ele>
        <time>2013-03-02T16:37:36Z</time>
      </trkpt>
      <trkpt lat="44.06459" lon="1.66321">
        <ele>104</ele>
        <time>2013-03-02T16:37:38Z</time>
      </trkpt>
      <trkpt lat="44.06452" lon="1.66334">
        <ele>104</ele>
        <time>2013-03-02T16:37:40Z</time>
      </trkpt>
      <trkpt lat="44.06445" lon="1.66348">
        <ele>104</ele>
        <time>2013-03-02T16:37:42Z</time>
      </trkpt>
      <trkpt lat="44.06438" lon="1.66361">
        <ele>104</ele>
        <time>2013-03-02T16:37:44Z</time>
      </trkpt>
      <trkpt lat="44.06432" lon="1.66374">
        <ele>104</ele>
        <time>2013-03-02T16:37:46Z</time>
      </trkpt>
      <trkpt lat="44.06425" lon="1.66387">
        <ele>104</ele>
        <time>2013-03-02T16:37:48Z</time>
      </trkpt>
      <trkpt lat="44.06417" lon="1.66401">
        <ele>104</ele>
        <time>2013-03-02T16:37:50Z</time>
      </trkpt>
      <trkpt lat="44.06411" lon="1.66413">
        <ele>104</ele>
        <time>2013-03-02T16:37:52Z</time>
      </trkpt>
      <trkpt lat="44.06404" lon="1.66426">
        <ele>104</ele>
        <time>2013-03-02T16:37:54Z</time>
      </trkpt>
      <trkpt lat="44.06397" lon="1.66439">
        <ele>104</ele>
        <time>2013-03-02T16:37:56Z</time>
      </trkpt>
      <trkpt lat="44.0639" lon="1.66452">
        <ele>104</ele>
        <time>2013-03-02T16:37:58Z</time>
      </trkpt>
      <trkpt lat="44.06384" lon="1.66465">
        <ele>104</ele>
        <time>2013-03-02T16:38:00Z</time>
      </trkpt>
      <trkpt lat="44.06377" lon="1.66477">
        <ele>104</ele>
        <time>2013-03-02T16:38:02Z</time>
      </trkpt>
      <trkpt lat="44.06369" lon="1.66487">
        <ele>104</ele>
        <time>2013-03-02T16:38:04Z</time>
      </trkpt>
      <trkpt lat="44.06362" lon="1.66498">
        <ele>105</ele>
        <time>2013-03-02T16:38:06Z</time>
      </trkpt>
      <trkpt lat="44.06355" lon="1.66508">
        <ele>107</ele>
        <time>2013-03-02T16:38:08Z</time>
      </trkpt>
      <trkpt lat="44.06347" lon="1.66518">
        <ele>108</ele>
        <time>2013-03-02T16:38:10Z</time>
      </trkpt>
      <trkpt lat="44.06339" lon="1.66528">
        <ele>109</ele>
        <time>2013-03-02T16:38:12Z</time>
      </trkpt>
      <trkpt lat="44.06332" lon="1.66539">
        <ele>110</ele>
        <time>2013-03-02T16:38:14Z</time>
      </trkpt>
      <trkpt lat="44.06324" lon="1.66548">
        <ele>111</ele>
        <time>2013-03-02T16:38:16Z</time>
      </trkpt>
      <trkpt lat="44.06317" lon="1.66557">
        <ele>111</ele>
        <time>2013-03-02T16:38:18Z</time>
      </trkpt>
      <trkpt lat="44.0631" lon="1.66565">
        <ele>111</ele>
        <time>2013-03-02T16:38:20Z</time>
      </trkpt>
      <trkpt lat="44.06302" lon="1.66573">
        <ele>111</ele>
        <time>2013-03-02T16:38:22Z</time>
      </trkpt>
      <trkpt lat="44.06294" lon="1.66581">
        <ele>111</ele>
        <time>2013-03-02T16:38:24Z</time>
      </trkpt>
      <trkpt lat="44.06284" lon="1.66588">
        <ele>111</ele>
        <time>2013-03-02T16:38:26Z</time>
      </trkpt>
      <trkpt lat="44.06274" lon="1.66595">
        <ele>111</ele>
        <time>2013-03-02T16:38:28Z</time>
      </trkpt>
      <trkpt lat="44.06264" lon="1.66602">
        <ele>111</ele>
        <time>2013-03-02T16:38:30Z</time>
      </trkpt>
      <trkpt lat="44.06253" lon="1.66609">
        <ele>111</ele>
        <time>2013-03-02T16:38:32Z</time>
      </trkpt>
      <trkpt lat="44.06243" lon="1.66616">
        <ele>110</ele>
        <time>2013-03-02T16:38:34Z</time>
      </trkpt>
      <trkpt lat="44.06232" lon="1.66623">
        <ele>109</ele>
        <time>2013-03-02T16:38:36Z</time>
      </trkpt>
      <trkpt lat="44.06221" lon="1.66631">
        <ele>108</ele>
        <time>2013-03-02T16:38:38Z</time>
      </trkpt>
      <trkpt lat="44.0621" lon="1.66637">
        <ele>107</ele>
        <time>2013-03-02T16:38:40Z</time>
      </trkpt>
      <trkpt lat="44.062" lon="1.66645">
        <ele>107</ele>
        <time>2013-03-02T16:38:42Z</time>
      </trkpt>
      <trkpt lat="44.06189" lon="1.66652">
        <ele>107</ele>
        <time>2013-03-02T16:38:44Z</time>
      </trkpt>
      <trkpt lat="44.06179" lon="1.66659">
        <ele>107</ele>
        <time>2013-03-02T16:38:46Z</time>
      </trkpt>
      <trkpt lat="44.06168" lon="1.66667">
        <ele>107</ele>
        <time>2013-03-02T16:38:48Z</time>
      </trkpt>
      <trkpt lat="44.06158" lon="1.66675">
        <ele>107</ele>
        <time>2013-03-02T16:38:50Z</time>
      </trkpt>
      <trkpt lat="44.06148" lon="1.66683">
        <ele>107</ele>
        <time>2013-03-02T16:38:52Z</time>
      </trkpt>
      <trkpt lat="44.06138" lon="1.66691">
        <ele>107</ele>
        <time>2013-03-02T16:38:54Z</time>
      </trkpt>
      <trkpt lat="44.06129" lon="1.66699">
        <ele>107</ele>
        <time>2013-03-02T16:38:56Z</time>
      </trkpt>
      <trkpt lat="44.06121" lon="1.66708">
        <ele>107</ele>
        <time>2013-03-02T16:38:58Z</time>
      </trkpt>
      <trkpt lat="44.06113" lon="1.66716">
        <ele>107</ele>
        <time>2013-03-02T16:39:00Z</time>
      </trkpt>
      <trkpt lat="44.06105" lon="1.66724">
        <ele>107</ele>
        <time>2013-03-02T16:39:02Z</time>
      </trkpt>
      <trkpt lat="44.06097" lon="1.6673">
        <ele>107</ele>
        <time>2013-03-02T16:39:04Z</time>
      </trkpt>
      <trkpt lat="44.06088" lon="1.66737">
        <ele>107</ele>
        <time>2013-03-02T16:39:06Z</time>
      </trkpt>
      <trkpt lat="44.06078" lon="1.66743">
        <ele>107</ele>
        <time>2013-03-02T16:39:08Z</time>
      </trkpt>
      <trkpt lat="44.06069" lon="1.66749">
        <ele>107</ele>
        <time>2013-03-02T16:39:10Z</time>
      </trkpt>
      <trkpt lat="44.06059" lon="1.66754">
        <ele>107</ele>
        <time>2013-03-02T16:39:12Z</time>
      </trkpt>
      <trkpt lat="44.06049" lon="1.66759">
        <ele>107</ele>
        <time>2013-03-02T16:39:14Z</time>
      </trkpt>
      <trkpt lat="44.06039" lon="1.66764">
        <ele>107</ele>
        <time>2013-03-02T16:39:16Z</time>
      </trkpt>
      <trkpt lat="44.06028" lon="1.6677">
        <ele>107</ele>
        <time>2013-03-02T16:39:18Z</time>
      </trkpt>
      <trkpt lat="44.06018" lon="1.66775">
        <ele>107</ele>
        <time>2013-03-02T16:39:20Z</time>
      </trkpt>
      <trkpt lat="44.06007" lon="1.66781">
        <ele>107</ele>
        <time>2013-03-02T16:39:22Z</time>
      </trkpt>
      <trkpt lat="44.05998" lon="1.66786">
        <ele>107</ele>
        <time>2013-03-02T16:39:24Z</time>
      </trkpt>
      <trkpt lat="44.05988" lon="1.66791">
        <ele>107</ele>
        <time>2013-03-02T16:39:26Z</time>
      </trkpt>
      <trkpt lat="44.05978" lon="1.66795">
        <ele>107</ele>
        <time>2013-03-02T16:39:28Z</time>
      </trkpt>
      <trkpt lat="44.05968" lon="1.668">
        <ele>107</ele>
        <time>2013-03-02T16:39:30Z</time>
      </trkpt>
      <trkpt lat="44.05959" lon="1.66804">
        <ele>107</ele>
        <time>2013-03-02T16:39:32Z</time>
      </trkpt>
      <trkpt lat="44.05949" lon="1.66807">
        <ele>108</ele>
        <time>2013-03-02T16:39:34Z</time>
      </trkpt>
      <trkpt lat="44.05939" lon="1.66809">
        <ele>108</ele>
        <time>2013-03-02T16:39:36Z</time>
      </trkpt>
      <trkpt lat="44.05929" lon="1.66812">
        <ele>109</ele>
        <time>2013-03-02T16:39:38Z</time>
      </trkpt>
      <trkpt lat="44.0592" lon="1.66813">
        <ele>110</ele>
        <time>2013-03-02T16:39:40Z</time>
      </trkpt>
      <trkpt lat="44.0591" lon="1.66814">
        <ele>111</ele>
        <time>2013-03-02T16:39:42Z</time>
      </trkpt>
      <trkpt lat="44.059" lon="1.66814">
        <ele>111</ele>
        <time>2013-03-02T16:39:44Z</time>
      </trkpt>
      <trkpt lat="44.05889" lon="1.66814">
        <ele>111</ele>
        <time>2013-03-02T16:39:46Z</time>
      </trkpt>
      <trkpt lat="44.05879" lon="1.66814">
        <ele>111</ele>
        <time>2013-03-02T16:39:48Z</time>
      </trkpt>
      <trkpt lat="44.05868" lon="1.66814">
        <ele>111</ele>
        <time>2013-03-02T16:39:50Z</time>
      </trkpt>
      <trkpt lat="44.05858" lon="1.66813">
        <ele>111</ele>
        <time>2013-03-02T16:39:52Z</time>
      </trkpt>
      <trkpt lat="44.05848" lon="1.66811">
        <ele>111</ele>
        <time>2013-03-02T16:39:54Z</time>
      </trkpt>
      <trkpt lat="44.05837" lon="1.6681">
        <ele>111</ele>
        <time>2013-03-02T16:39:56Z</time>
      </trkpt>
      <trkpt lat="44.05827" lon="1.66809">
        <ele>111</ele>
        <time>2013-03-02T16:39:58Z</time>
      </trkpt>
      <trkpt lat="44.05817" lon="1.66809">
        <ele>111</ele>
        <time>2013-03-02T16:40:00Z</time>
      </trkpt>
      <trkpt lat="44.05807" lon="1.6681">
        <ele>111</ele>
        <time>2013-03-02T16:40:02Z</time>
      </trkpt>
      <trkpt lat="44.05798" lon="1.66814">
        <ele>111</ele>
        <time>2013-03-02T16:40:04Z</time>
      </trkpt>
      <trkpt lat="44.05788" lon="1.6682">
        <ele>111</ele>
        <time>2013-03-02T16:40:06Z</time>
      </trkpt>
      <trkpt lat="44.0578" lon="1.66828">
        <ele>111</ele>
        <time>2013-03-02T16:40:08Z</time>
      </trkpt>
      <trkpt lat="44.05772" lon="1.66837">
        <ele>111</ele>
        <time>2013-03-02T16:40:10Z</time>
      </trkpt>
      <trkpt lat="44.05766" lon="1.66848">
        <ele>111</ele>
        <time>2013-03-02T16:40:12Z</time>
      </trkpt>
      <trkpt lat="44.0576" lon="1.6686">
        <ele>111</ele>
        <time>2013-03-02T16:40:14Z</time>
      </trkpt>
      <trkpt lat="44.05755" lon="1.66872">
        <ele>111</ele>
        <time>2013-03-02T16:40:16Z</time>
      </trkpt>
      <trkpt lat="44.05751" lon="1.66884">
        <ele>111</ele>
        <time>2013-03-02T16:40:18Z</time>
      </trkpt>
      <trkpt lat="44.05746" lon="1.66897">
        <ele>111</ele>
        <time>2013-03-02T16:40:20Z</time>
      </trkpt>
      <trkpt lat="44.05742" lon="1.66911">
        <ele>111</ele>
        <time>2013-03-02T16:40:22Z</time>
      </trkpt>
      <trkpt lat="44.05737" lon="1.66925">
        <ele>111</ele>
        <time>2013-03-02T16:40:24Z</time>
      </trkpt>
      <trkpt lat="44.05729" lon="1.66938">
        <ele>111</ele>
        <time>2013-03-02T16:40:26Z</time>
      </trkpt>
      <trkpt lat="44.05717" lon="1.6695">
        <ele>111</ele>
        <time>2013-03-02T16:40:28Z</time>
      </trkpt>
      <trkpt lat="44.05705" lon="1.66958">
        <ele>111</ele>
        <time>2013-03-02T16:40:30Z</time>
      </trkpt>
      <trkpt lat="44.05691" lon="1.6696">
        <ele>111</ele>
        <time>2013-03-02T16:40:32Z</time>
      </trkpt>
      <trkpt lat="44.05679" lon="1.66959">
        <ele>111</ele>
        <time>2013-03-02T16:40:34Z</time>
      </trkpt>
      <trkpt lat="44.05667" lon="1.66958">
        <ele>111</ele>
        <time>2013-03-02T16:40:36Z</time>
      </trkpt>
      <trkpt lat="44.05656" lon="1.66958">
        <ele>111</ele>
        <time>2013-03-02T16:40:38Z</time>
      </trkpt>
      <trkpt lat="44.05647" lon="1.66958">
        <ele>111</ele>
        <time>2013-03-02T16:40:40Z</time>
      </trkpt>
      <trkpt lat="44.05637" lon="1.66956">
        <ele>111</ele>
        <time>2013-03-02T16:40:42Z</time>
      </trkpt>
      <trkpt lat="44.0563" lon="1.66956">
        <ele>110</ele>
        <time>2013-03-02T16:40:44Z</time>
      </trkpt>
      <trkpt lat="44.05626" lon="1.66963">
        <ele>110</ele>
        <time>2013-03-02T16:40:46Z</time>
      </trkpt>
      <trkpt lat="44.05624" lon="1.66974">
        <ele>110</ele>
        <time>2013-03-02T16:40:48Z</time>
      </trkpt>
      <trkpt lat="44.05624" lon="1.66988">
        <ele>110</ele>
        <time>2013-03-02T16:40:50Z</time>
      </trkpt>
      <trkpt lat="44.05625" lon="1.67003">
        <ele>110</ele>
        <time>2013-03-02T16:40:52Z</time>
      </trkpt>
      <trkpt lat="44.05627" lon="1.67017">
        <ele>110</ele>
        <time>2013-03-02T16:40:54Z</time>
      </trkpt>
      <trkpt lat="44.05628" lon="1.6703">
        <ele>110</ele>
        <time>2013-03-02T16:40:56Z</time>
      </trkpt>
      <trkpt lat="44.05629" lon="1.67042">
        <ele>110</ele>
        <time>2013-03-02T16:40:58Z</time>
      </trkpt>
      <trkpt lat="44.05626" lon="1.67055">
        <ele>110</ele>
        <time>2013-03-02T16:41:00Z</time>
      </trkpt>
      <trkpt lat="44.05621" lon="1.67066">
        <ele>110</ele>
        <time>2013-03-02T16:41:02Z</time>
      </trkpt>
      <trkpt lat="44.05613" lon="1.67074">
        <ele>110</ele>
        <time>2013-03-02T16:41:04Z</time>
      </trkpt>
      <trkpt lat="44.05606" lon="1.6708">
        <ele>110</ele>
        <time>2013-03-02T16:41:06Z</time>
      </trkpt>
      <trkpt lat="44.05597" lon="1.67085">
        <ele>109</ele>
        <time>2013-03-02T16:41:08Z</time>
      </trkpt>
      <trkpt lat="44.05587" lon="1.67092">
        <ele>109</ele>
        <time>2013-03-02T16:41:10Z</time>
      </trkpt>
      <trkpt lat="44.05577" lon="1.67099">
        <ele>109</ele>
        <time>2013-03-02T16:41:12Z</time>
      </trkpt>
      <trkpt lat="44.05569" lon="1.67101">
        <ele>108</ele>
        <time>2013-03-02T16:41:14Z</time>
      </trkpt>
      <trkpt lat="44.05566" lon="1.67094">
        <ele>108</ele>
        <time>2013-03-02T16:41:16Z</time>
      </trkpt>
      <trkpt lat="44.05568" lon="1.67086">
        <ele>107</ele>
        <time>2013-03-02T16:41:18Z</time>
      </trkpt>
      <trkpt lat="44.05576" lon="1.67081">
        <ele>106</ele>
        <time>2013-03-02T16:41:20Z</time>
      </trkpt>
      <trkpt lat="44.05584" lon="1.67077">
        <ele>105</ele>
        <time>2013-03-02T16:41:22Z</time>
      </trkpt>
      <trkpt lat="44.05593" lon="1.67071">
        <ele>103</ele>
        <time>2013-03-02T16:41:24Z</time>
      </trkpt>
      <trkpt lat="44.05602" lon="1.67065">
        <ele>102</ele>
        <time>2013-03-02T16:41:26Z</time>
      </trkpt>
      <trkpt lat="44.05607" lon="1.67056">
        <ele>101</ele>
        <time>2013-03-02T16:41:28Z</time>
      </trkpt>
      <trkpt lat="44.05603" lon="1.67047">
        <ele>100</ele>
        <time>2013-03-02T16:41:30Z</time>
      </trkpt>
      <trkpt lat="44.05596" lon="1.67042">
        <ele>99</ele>
        <time>2013-03-02T16:41:32Z</time>
      </trkpt>
      <trkpt lat="44.05587" lon="1.67038">
        <ele>98</ele>
        <time>2013-03-02T16:41:34Z</time>
      </trkpt>
      <trkpt lat="44.05578" lon="1.67034">
        <ele>98</ele>
        <time>2013-03-02T16:41:36Z</time>
      </trkpt>
      <trkpt lat="44.05568" lon="1.67031">
        <ele>97</ele>
        <time>2013-03-02T16:41:38Z</time>
      </trkpt>
      <trkpt lat="44.0556" lon="1.67025">
        <ele>97</ele>
        <time>2013-03-02T16:41:40Z</time>
      </trkpt>
      <trkpt lat="44.05555" lon="1.67015">
        <ele>97</ele>
        <time>2013-03-02T16:41:42Z</time>
      </trkpt>
      <trkpt lat="44.05554" lon="1.67004">
        <ele>97</ele>
        <time>2013-03-02T16:41:44Z</time>
      </trkpt>
      <trkpt lat="44.05553" lon="1.66994">
        <ele>97</ele>
        <time>2013-03-02T16:41:46Z</time>
      </trkpt>
      <trkpt lat="44.05552" lon="1.66985">
        <ele>97</ele>
        <time>2013-03-02T16:41:48Z</time>
      </trkpt>
      <trkpt lat="44.0555" lon="1.66976">
        <ele>97</ele>
        <time>2013-03-02T16:41:50Z</time>
      </trkpt>
      <trkpt lat="44.0555" lon="1.66967">
        <ele>97</ele>
        <time>2013-03-02T16:41:52Z</time>
      </trkpt>
      <trkpt lat="44.05549" lon="1.66957">
        <ele>96</ele>
        <time>2013-03-02T16:41:54Z</time>
      </trkpt>
      <trkpt lat="44.05546" lon="1.66949">
        <ele>95</ele>
        <time>2013-03-02T16:41:56Z</time>
      </trkpt>
      <trkpt lat="44.05542" lon="1.66941">
        <ele>94</ele>
        <time>2013-03-02T16:41:58Z</time>
      </trkpt>
      <trkpt lat="44.05537" lon="1.66935">
        <ele>94</ele>
        <time>2013-03-02T16:42:00Z</time>
      </trkpt>
      <trkpt lat="44.05532" lon="1.66929">
        <ele>93</ele>
        <time>2013-03-02T16:42:02Z</time>
      </trkpt>
      <trkpt lat="44.05527" lon="1.66922">
        <ele>93</ele>
        <time>2013-03-02T16:42:04Z</time>
      </trkpt>
      <trkpt lat="44.05522" lon="1.66916">
        <ele>93</ele>
        <time>2013-03-02T16:42:06Z</time>
      </trkpt>
      <trkpt lat="44.05518" lon="1.6691">
        <ele>93</ele>
        <time>2013-03-02T16:42:08Z</time>
      </trkpt>
      <trkpt lat="44.05513" lon="1.66904">
        <ele>93</ele>
        <time>2013-03-02T16:42:10Z</time>
      </trkpt>
      <trkpt lat="44.0551" lon="1.66897">
        <ele>93</ele>
        <time>2013-03-02T16:42:12Z</time>
      </trkpt>
      <trkpt lat="44.05506" lon="1.66891">
        <ele>93</ele>
        <time>2013-03-02T16:42:14Z</time>
      </trkpt>
      <trkpt lat="44.05502" lon="1.66886">
        <ele>93</ele>
        <time>2013-03-02T16:42:16Z</time>
      </trkpt>
      <trkpt lat="44.05498" lon="1.6688">
        <ele>94</ele>
        <time>2013-03-02T16:42:18Z</time>
      </trkpt>
      <trkpt lat="44.05494" lon="1.66875">
        <ele>95</ele>
        <time>2013-03-02T16:42:20Z</time>
      </trkpt>
      <trkpt lat="44.0549" lon="1.66869">
        <ele>96</ele>
        <time>2013-03-02T16:42:22Z</time>
      </trkpt>
      <trkpt lat="44.05486" lon="1.66865">
        <ele>96</ele>
        <time>2013-03-02T16:42:24Z</time>
      </trkpt>
      <trkpt lat="44.05483" lon="1.6686">
        <ele>97</ele>
        <time>2013-03-02T16:42:26Z</time>
      </trkpt>
      <trkpt lat="44.0548" lon="1.66855">
        <ele>98</ele>
        <time>2013-03-02T16:42:28Z</time>
      </trkpt>
      <trkpt lat="44.05477" lon="1.66849">
        <ele>99</ele>
        <time>2013-03-02T16:42:30Z</time>
      </trkpt>
      <trkpt lat="44.05474" lon="1.66843">
        <ele>99</ele>
        <time>2013-03-02T16:42:32Z</time>
      </trkpt>
      <trkpt lat="44.05471" lon="1.66838">
        <ele>100</ele>
        <time>2013-03-02T16:42:34Z</time>
      </trkpt>
      <trkpt lat="44.05468" lon="1.66834">
        <ele>100</ele>
        <time>2013-03-02T16:42:36Z</time>
      </trkpt>
      <trkpt lat="44.05465" lon="1.66829">
        <ele>100</ele>
        <time>2013-03-02T16:42:38Z</time>
      </trkpt>
      <trkpt lat="44.05461" lon="1.66824">
        <ele>100</ele>
        <time>2013-03-02T16:42:40Z</time>
      </trkpt>
      <trkpt lat="44.05458" lon="1.6682">
        <ele>101</ele>
        <time>2013-03-02T16:42:42Z</time>
      </trkpt>
      <trkpt lat="44.05454" lon="1.66815">
        <ele>101</ele>
        <time>2013-03-02T16:42:44Z</time>
      </trkpt>
      <trkpt lat="44.0545" lon="1.66811">
        <ele>102</ele>
        <time>2013-03-02T16:42:46Z</time>
      </trkpt>
      <trkpt lat="44.05447" lon="1.66807">
        <ele>103</ele>
        <time>2013-03-02T16:42:48Z</time>
      </trkpt>
      <trkpt lat="44.05443" lon="1.66803">
        <ele>104</ele>
        <time>2013-03-02T16:42:50Z</time>
      </trkpt>
      <trkpt lat="44.05439" lon="1.66798">
        <ele>104</ele>
        <time>2013-03-02T16:42:52Z</time>
      </trkpt>
      <trkpt lat="44.05435" lon="1.66793">
        <ele>105</ele>
        <time>2013-03-02T16:42:54Z</time>
      </trkpt>
      <trkpt lat="44.05431" lon="1.66788">
        <ele>106</ele>
        <time>2013-03-02T16:42:56Z</time>
      </trkpt>
      <trkpt lat="44.05428" lon="1.66784">
        <ele>106</ele>
        <time>2013-03-02T16:42:58Z</time>
      </trkpt>
      <trkpt lat="44.05424" lon="1.6678">
        <ele>107</ele>
        <time>2013-03-02T16:43:00Z</time>
      </trkpt>
      <trkpt lat="44.0542" lon="1.66776">
        <ele>107</ele>
        <time>2013-03-02T16:43:02Z</time>
      </trkpt>
      <trkpt lat="44.05416" lon="1.66771">
        <ele>107</ele>
        <time>2013-03-02T16:43:04Z</time>
      </trkpt>
      <trkpt lat="44.05413" lon="1.66766">
        <ele>108</ele>
        <time>2013-03-02T16:43:06Z</time>
      </trkpt>
      <trkpt lat="44.0541" lon="1.66761">
        <ele>108</ele>
        <time>2013-03-02T16:43:08Z</time>
      </trkpt>
      <trkpt lat="44.05408" lon="1.66754">
        <ele>108</ele>
        <time>2013-03-02T16:43:10Z</time>
      </trkpt>
      <trkpt lat="44.05407" lon="1.66747">
        <ele>109</ele>
        <time>2013-03-02T16:43:12Z</time>
      </trkpt>
      <trkpt lat="44.05406" lon="1.66739">
        <ele>110</ele>
        <time>2013-03-02T16:43:14Z</time>
      </trkpt>
      <trkpt lat="44.05404" lon="1.66732">
        <ele>110</ele>
        <time>2013-03-02T16:43:16Z</time>
      </trkpt>
      <trkpt lat="44.05403" lon="1.66724">
        <ele>111</ele>
        <time>2013-03-02T16:43:18Z</time>
      </trkpt>
      <trkpt lat="44.05401" lon="1.66717">
        <ele>111</ele>
        <time>2013-03-02T16:43:20Z</time>
      </trkpt>
      <trkpt lat="44.054" lon="1.66709">
        <ele>112</ele>
        <time>2013-03-02T16:43:22Z</time>
      </trkpt>
      <trkpt lat="44.05398" lon="1.66701">
        <ele>113</ele>
        <time>2013-03-02T16:43:24Z</time>
      </trkpt>
      <trkpt lat="44.05397" lon="1.66694">
        <ele>114</ele>
        <time>2013-03-02T16:43:26Z</time>
      </trkpt>
      <trkpt lat="44.05396" lon="1.66686">
        <ele>115</ele>
        <time>2013-03-02T16:43:28Z</time>
      </trkpt>
      <trkpt lat="44.05395" lon="1.66679">
        <ele>117</ele>
        <time>2013-03-02T16:43:30Z</time>
      </trkpt>
      <trkpt lat="44.05395" lon="1.66671">
        <ele>118</ele>
        <time>2013-03-02T16:43:32Z</time>
      </trkpt>
      <trkpt lat="44.05395" lon="1.66663">
        <ele>119</ele>
        <time>2013-03-02T16:43:34Z</time>
      </trkpt>
      <trkpt lat="44.05396" lon="1.66655">
        <ele>119</ele>
        <time>2013-03-02T16:43:36Z</time>
      </trkpt>
      <trkpt lat="44.05396" lon="1.66648">
        <ele>120</ele>
        <time>2013-03-02T16:43:38Z</time>
      </trkpt>
      <trkpt lat="44.05397" lon="1.6664">
        <ele>120</ele>
        <time>2013-03-02T16:43:40Z</time>
      </trkpt>
      <trkpt lat="44.05398" lon="1.66632">
        <ele>120</ele>
        <time>2013-03-02T16:43:42Z</time>
      </trkpt>
      <trkpt lat="44.05398" lon="1.66624">
        <ele>121</ele>
        <time>2013-03-02T16:43:44Z</time>
      </trkpt>
      <trkpt lat="44.05398" lon="1.66616">
        <ele>122</ele>
        <time>2013-03-02T16:43:46Z</time>
      </trkpt>
      <trkpt lat="44.05398" lon="1.66609">
        <ele>122</ele>
        <time>2013-03-02T16:43:48Z</time>
      </trkpt>
      <trkpt lat="44.05398" lon="1.66601">
        <ele>123</ele>
        <time>2013-03-02T16:43:50Z</time>
      </trkpt>
      <trkpt lat="44.05398" lon="1.66594">
        <ele>125</ele>
        <time>2013-03-02T16:43:52Z</time>
      </trkpt>
      <trkpt lat="44.05397" lon="1.66587">
        <ele>127</ele>
        <time>2013-03-02T16:43:54Z</time>
      </trkpt>
      <trkpt lat="44.05397" lon="1.66579">
        <ele>128</ele>
        <time>2013-03-02T16:43:56Z</time>
      </trkpt>
      <trkpt lat="44.05396" lon="1.66571">
        <ele>130</ele>
        <time>2013-03-02T16:43:58Z</time>
      </trkpt>
      <trkpt lat="44.05396" lon="1.66564">
        <ele>131</ele>
        <time>2013-03-02T16:44:00Z</time>
      </trkpt>
      <trkpt lat="44.05396" lon="1.66557">
        <ele>132</ele>
        <time>2013-03-02T16:44:02Z</time>
      </trkpt>
      <trkpt lat="44.05396" lon="1.6655">
        <ele>133</ele>
        <time>2013-03-02T16:44:04Z</time>
      </trkpt>
      <trkpt lat="44.05396" lon="1.66543">
        <ele>133</ele>
        <time>2013-03-02T16:44:06Z</time>
      </trkpt>
      <trkpt lat="44.05396" lon="1.66537">
        <ele>133</ele>
        <time>2013-03-02T16:44:08Z</time>
      </trkpt>
      <trkpt lat="44.05394" lon="1.66532">
        <ele>134</ele>
        <time>2013-03-02T16:44:10Z</time>
      </trkpt>
      <trkpt lat="44.05391" lon="1.66526">
        <ele>134</ele>
        <time>2013-03-02T16:44:12Z</time>
      </trkpt>
      <trkpt lat="44.05389" lon="1.66518">
        <ele>135</ele>
        <time>2013-03-02T16:44:14Z</time>
      </trkpt>
      <trkpt lat="44.05388" lon="1.6651">
        <ele>135</ele>
        <time>2013-03-02T16:44:16Z</time>
      </trkpt>
      <trkpt lat="44.05386" lon="1.66502">
        <ele>135</ele>
        <time>2013-03-02T16:44:18Z</time>
      </trkpt>
      <trkpt lat="44.05383" lon="1.66494">
        <ele>135</ele>
        <time>2013-03-02T16:44:20Z</time>
      </trkpt>
      <trkpt lat="44.05381" lon="1.66486">
        <ele>135</ele>
        <time>2013-03-02T16:44:22Z</time>
      </trkpt>
      <trkpt lat="44.05379" lon="1.66479">
        <ele>135</ele>
        <time>2013-03-02T16:44:24Z</time>
      </trkpt>
      <trkpt lat="44.05378" lon="1.66471">
        <ele>135</ele>
        <time>2013-03-02T16:44:26Z</time>
      </trkpt>
      <trkpt lat="44.05378" lon="1.66463">
        <ele>135</ele>
        <time>2013-03-02T16:44:28Z</time>
      </trkpt>
      <trkpt lat="44.05377" lon="1.66454">
        <ele>135</ele>
        <time>2013-03-02T16:44:30Z</time>
      </trkpt>
      <trkpt lat="44.05376" lon="1.66446">
        <ele>135</ele>
        <time>2013-03-02T16:44:32Z</time>
      </trkpt>
      <trkpt lat="44.05374" lon="1.66436">
        <ele>135</ele>
        <time>2013-03-02T16:44:34Z</time>
      </trkpt>
      <trkpt lat="44.05373" lon="1.66426">
        <ele>135</ele>
        <time>2013-03-02T16:44:36Z</time>
      </trkpt>
      <trkpt lat="44.05372" lon="1.66416">
        <ele>135</ele>
        <time>2013-03-02T16:44:38Z</time>
      </trkpt>
      <trkpt lat="44.05371" lon="1.66404">
        <ele>135</ele>
        <time>2013-03-02T16:44:40Z</time>
      </trkpt>
      <trkpt lat="44.0537" lon="1.66392">
        <ele>135</ele>
        <time>2013-03-02T16:44:42Z</time>
      </trkpt>
      <trkpt lat="44.05368" lon="1.6638">
        <ele>135</ele>
        <time>2013-03-02T16:44:44Z</time>
      </trkpt>
      <trkpt lat="44.05365" lon="1.66369">
        <ele>134</ele>
        <time>2013-03-02T16:44:46Z</time>
      </trkpt>
      <trkpt lat="44.05363" lon="1.66357">
        <ele>134</ele>
        <time>2013-03-02T16:44:48Z</time>
      </trkpt>
      <trkpt lat="44.05361" lon="1.66345">
        <ele>133</ele>
        <time>2013-03-02T16:44:50Z</time>
      </trkpt>
      <trkpt lat="44.05361" lon="1.66331">
        <ele>133</ele>
        <time>2013-03-02T16:44:52Z</time>
      </trkpt>
      <trkpt lat="44.05362" lon="1.66317">
        <ele>133</ele>
        <time>2013-03-02T16:44:54Z</time>
      </trkpt>
      <trkpt lat="44.05364" lon="1.66303">
        <ele>133</ele>
        <time>2013-03-02T16:44:56Z</time>
      </trkpt>
      <trkpt lat="44.05368" lon="1.66288">
        <ele>133</ele>
        <time>2013-03-02T16:44:58Z</time>
      </trkpt>
      <trkpt lat="44.05371" lon="1.66273">
        <ele>133</ele>
        <time>2013-03-02T16:45:00Z</time>
      </trkpt>
      <trkpt lat="44.05374" lon="1.66258">
        <ele>133</ele>
        <time>2013-03-02T16:45:02Z</time>
      </trkpt>
      <trkpt lat="44.05378" lon="1.66243">
        <ele>133</ele>
        <time>2013-03-02T16:45:04Z</time>
      </trkpt>
      <trkpt lat="44.05382" lon="1.66228">
        <ele>132</ele>
        <time>2013-03-02T16:45:06Z</time>
      </trkpt>
      <trkpt lat="44.05386" lon="1.66214">
        <ele>132</ele>
        <time>2013-03-02T16:45:08Z</time>
      </trkpt>
      <trkpt lat="44.05391" lon="1.662">
        <ele>132</ele>
        <time>2013-03-02T16:45:10Z</time>
      </trkpt>
      <trkpt lat="44.05396" lon="1.66188">
        <ele>132</ele>
        <time>2013-03-02T16:45:12Z</time>
      </trkpt>
      <trkpt lat="44.05401" lon="1.66177">
        <ele>132</ele>
        <time>2013-03-02T16:45:14Z</time>
      </trkpt>
      <trkpt lat="44.05403" lon="1.66166">
        <ele>132</ele>
        <time>2013-03-02T16:45:16Z</time>
      </trkpt>
      <trkpt lat="44.05401" lon="1.66156">
        <ele>132</ele>
        <time>2013-03-02T16:45:18Z</time>
      </trkpt>
      <trkpt lat="44.05399" lon="1.66146">
        <ele>132</ele>
        <time>2013-03-02T16:45:20Z</time>
      </trkpt>
      <trkpt lat="44.05397" lon="1.66136">
        <ele>132</ele>
        <time>2013-03-02T16:45:22Z</time>
      </trkpt>
      <trkpt lat="44.05394" lon="1.66127">
        <ele>132</ele>
        <time>2013-03-02T16:45:24Z</time>
      </trkpt>
      <trkpt lat="44.05391" lon="1.66117">
        <ele>132</ele>
        <time>2013-03-02T16:45:26Z</time>
      </trkpt>
      <trkpt lat="44.05388" lon="1.66108">
        <ele>132</ele>
        <time>2013-03-02T16:45:28Z</time>
      </trkpt>
      <trkpt lat="44.05386" lon="1.66098">
        <ele>132</ele>
        <time>2013-03-02T16:45:30Z</time>
      </trkpt>
      <trkpt lat="44.05383" lon="1.6609">
        <ele>132</ele>
        <time>2013-03-02T16:45:32Z</time>
      </trkpt>
      <trkpt lat="44.05381" lon="1.6608">
        <ele>132</ele>
        <time>2013-03-02T16:45:34Z</time>
      </trkpt>
      <trkpt lat="44.05378" lon="1.66071">
        <ele>132</ele>
        <time>2013-03-02T16:45:36Z</time>
      </trkpt>
      <trkpt lat="44.05376" lon="1.66061">
        <ele>132</ele>
        <time>2013-03-02T16:45:38Z</time>
      </trkpt>
      <trkpt lat="44.05373" lon="1.66052">
        <ele>132</ele>
        <time>2013-03-02T16:45:40Z</time>
      </trkpt>
      <trkpt lat="44.05371" lon="1.66043">
        <ele>132</ele>
        <time>2013-03-02T16:45:42Z</time>
      </trkpt>
      <trkpt lat="44.0537" lon="1.66033">
        <ele>132</ele>
        <time>2013-03-02T16:45:44Z</time>
      </trkpt>
      <trkpt lat="44.0537" lon="1.66024">
        <ele>132</ele>
        <time>2013-03-02T16:45:46Z</time>
      </trkpt>
      <trkpt lat="44.0537" lon="1.66014">
        <ele>132</ele>
        <time>2013-03-02T16:45:48Z</time>
      </trkpt>
      <trkpt lat="44.0537" lon="1.66005">
        <ele>132</ele>
        <time>2013-03-02T16:45:50Z</time>
      </trkpt>
      <trkpt lat="44.05371" lon="1.65996">
        <ele>132</ele>
        <time>2013-03-02T16:45:52Z</time>
      </trkpt>
      <trkpt lat="44.05371" lon="1.65988">
        <ele>132</ele>
        <time>2013-03-02T16:45:54Z</time>
      </trkpt>
      <trkpt lat="44.05372" lon="1.65981">
        <ele>132</ele>
        <time>2013-03-02T16:45:56Z</time>
      </trkpt>
      <trkpt lat="44.05372" lon="1.65974">
        <ele>132</ele>
        <time>2013-03-02T16:45:58Z</time>
      </trkpt>
      <trkpt lat="44.05373" lon="1.65968">
        <ele>132</ele>
        <time>2013-03-02T16:46:00Z</time>
      </trkpt>
      <trkpt lat="44.05374" lon="1.65962">
        <ele>132</ele>
        <time>2013-03-02T16:46:02Z</time>
      </trkpt>
      <trkpt lat="44.05376" lon="1.65955">
        <ele>132</ele>
        <time>2013-03-02T16:46:04Z</time>
      </trkpt>
      <trkpt lat="44.05378" lon="1.6595">
        <ele>132</ele>
        <time>2013-03-02T16:46:06Z</time>
      </trkpt>
      <trkpt lat="44.05379" lon="1.65944">
        <ele>132</ele>
        <time>2013-03-02T16:46:08Z</time>
      </trkpt>
      <trkpt lat="44.05381" lon="1.65938">
        <ele>132</ele>
        <time>2013-03-02T16:46:10Z</time>
      </trkpt>
      <trkpt lat="44.05383" lon="1.65932">
        <ele>132</ele>
        <time>2013-03-02T16:46:12Z</time>
      </trkpt>
      <trkpt lat="44.05385" lon="1.65926">
        <ele>132</ele>
        <time>2013-03-02T16:46:14Z</time>
      </trkpt>
      <trkpt lat="44.05387" lon="1.65921">
        <ele>132</ele>
        <time>2013-03-02T16:46:16Z</time>
      </trkpt>
      <trkpt lat="44.05389" lon="1.65916">
        <ele>132</ele>
        <time>2013-03-02T16:46:18Z</time>
      </trkpt>
      <trkpt lat="44.05391" lon="1.6591">
        <ele>133</ele>
        <time>2013-03-02T16:46:20Z</time>
      </trkpt>
      <trkpt lat="44.05392" lon="1.65905">
        <ele>134</ele>
        <time>2013-03-02T16:46:22Z</time>
      </trkpt>
      <trkpt lat="44.05394" lon="1.659">
        <ele>135</ele>
        <time>2013-03-02T16:46:24Z</time>
      </trkpt>
      <trkpt lat="44.05395" lon="1.65895">
        <ele>136</ele>
        <time>2013-03-02T16:46:26Z</time>
      </trkpt>
      <trkpt lat="44.05397" lon="1.65891">
        <ele>136</ele>
        <time>2013-03-02T16:46:28Z</time>
      </trkpt>
      <trkpt lat="44.05397" lon="1.65886">
        <ele>137</ele>
        <time>2013-03-02T16:46:30Z</time>
      </trkpt>
      <trkpt lat="44.05399" lon="1.65881">
        <ele>137</ele>
        <time>2013-03-02T16:46:32Z</time>
      </trkpt>
      <trkpt lat="44.05399" lon="1.65876">
        <ele>138</ele>
        <time>2013-03-02T16:46:34Z</time>
      </trkpt>
      <trkpt lat="44.05399" lon="1.65872">
        <ele>138</ele>
        <time>2013-03-02T16:46:36Z</time>
      </trkpt>
      <trkpt lat="44.054" lon="1.65867">
        <ele>139</ele>
        <time>2013-03-02T16:46:38Z</time>
      </trkpt>
      <trkpt lat="44.05401" lon="1.65863">
        <ele>140</ele>
        <time>2013-03-02T16:46:40Z</time>
      </trkpt>
      <trkpt lat="44.05401" lon="1.65858">
        <ele>140</ele>
        <time>2013-03-02T16:46:42Z</time>
      </trkpt>
      <trkpt lat="44.05401" lon="1.65854">
        <ele>141</ele>
        <time>2013-03-02T16:46:44Z</time>
      </trkpt>
      <trkpt lat="44.05401" lon="1.65849">
        <ele>141</ele>
        <time>2013-03-02T16:46:46Z</time>
      </trkpt>
      <trkpt lat="44.05402" lon="1.65845">
        <ele>142</ele>
        <time>2013-03-02T16:46:48Z</time>
      </trkpt>
      <trkpt lat="44.05402" lon="1.65841">
        <ele>143</ele>
        <time>2013-03-02T16:46:50Z</time>
      </trkpt>
      <trkpt lat="44.05402" lon="1.65837">
        <ele>143</ele>
        <time>2013-03-02T16:46:52Z</time>
      </trkpt>
      <trkpt lat="44.05402" lon="1.65832">
        <ele>143</ele>
        <time>2013-03-02T16:46:54Z</time>
      </trkpt>
      <trkpt lat="44.05402" lon="1.65829">
        <ele>143</ele>
        <time>2013-03-02T16:46:56Z</time>
      </trkpt>
      <trkpt lat="44.05402" lon="1.65824">
        <ele>144</ele>
        <time>2013-03-02T16:46:58Z</time>
      </trkpt>
      <trkpt lat="44.05401" lon="1.6582">
        <ele>144</ele>
        <time>2013-03-02T16:47:00Z</time>
      </trkpt>
      <trkpt lat="44.054" lon="1.65815">
        <ele>144</ele>
        <time>2013-03-02T16:47:02Z</time>
      </trkpt>
      <trkpt lat="44.054" lon="1.6581">
        <ele>144</ele>
        <time>2013-03-02T16:47:04Z</time>
      </trkpt>
      <trkpt lat="44.05399" lon="1.65805">
        <ele>145</ele>
        <time>2013-03-02T16:47:06Z</time>
      </trkpt>
      <trkpt lat="44.05399" lon="1.658">
        <ele>145</ele>
        <time>2013-03-02T16:47:08Z</time>
      </trkpt>
      <trkpt lat="44.05398" lon="1.65794">
        <ele>145</ele>
        <time>2013-03-02T16:47:10Z</time>
      </trkpt>
      <trkpt lat="44.05398" lon="1.65788">
        <ele>145</ele>
        <time>2013-03-02T16:47:12Z</time>
      </trkpt>
      <trkpt lat="44.05397" lon="1.65782">
        <ele>146</ele>
        <time>2013-03-02T16:47:14Z</time>
      </trkpt>
      <trkpt lat="44.05397" lon="1.65776">
        <ele>146</ele>
        <time>2013-03-02T16:47:16Z</time>
      </trkpt>
      <trkpt lat="44.05397" lon="1.6577">
        <ele>146</ele>
        <time>2013-03-02T16:47:18Z</time>
      </trkpt>
      <trkpt lat="44.05398" lon="1.65764">
        <ele>147</ele>
        <time>2013-03-02T16:47:20Z</time>
      </trkpt>
      <trkpt lat="44.05398" lon="1.65759">
        <ele>147</ele>
        <time>2013-03-02T16:47:22Z</time>
      </trkpt>
      <trkpt lat="44.05398" lon="1.65753">
        <ele>148</ele>
        <time>2013-03-02T16:47:24Z</time>
      </trkpt>
      <trkpt lat="44.05399" lon="1.65747">
        <ele>148</ele>
        <time>2013-03-02T16:47:26Z</time>
      </trkpt>
      <trkpt lat="44.05399" lon="1.65742">
        <ele>148</ele>
        <time>2013-03-02T16:47:28Z</time>
      </trkpt>
      <trkpt lat="44.054" lon="1.65736">
        <ele>149</ele>
        <time>2013-03-02T16:47:30Z</time>
      </trkpt>
      <trkpt lat="44.05401" lon="1.65731">
        <ele>149</ele>
        <time>2013-03-02T16:47:32Z</time>
      </trkpt>
      <trkpt lat="44.05402" lon="1.65726">
        <ele>150</ele>
        <time>2013-03-02T16:47:34Z</time>
      </trkpt>
      <trkpt lat="44.05403" lon="1.6572">
        <ele>150</ele>
        <time>2013-03-02T16:47:36Z</time>
      </trkpt>
      <trkpt lat="44.05405" lon="1.65715">
        <ele>151</ele>
        <time>2013-03-02T16:47:38Z</time>
      </trkpt>
      <trkpt lat="44.05406" lon="1.65711">
        <ele>152</ele>
        <time>2013-03-02T16:47:40Z</time>
      </trkpt>
      <trkpt lat="44.05408" lon="1.65706">
        <ele>152</ele>
        <time>2013-03-02T16:47:42Z</time>
      </trkpt>
      <trkpt lat="44.0541" lon="1.65702">
        <ele>153</ele>
        <time>2013-03-02T16:47:44Z</time>
      </trkpt>
      <trkpt lat="44.05412" lon="1.65699">
        <ele>154</ele>
        <time>2013-03-02T16:47:46Z</time>
      </trkpt>
      <trkpt lat="44.05414" lon="1.65696">
        <ele>155</ele>
        <time>2013-03-02T16:47:48Z</time>
      </trkpt>
      <trkpt lat="44.05417" lon="1.65693">
        <ele>156</ele>
        <time>2013-03-02T16:47:50Z</time>
      </trkpt>
      <trkpt lat="44.05419" lon="1.6569">
        <ele>157</ele>
        <time>2013-03-02T16:47:52Z</time>
      </trkpt>
      <trkpt lat="44.05422" lon="1.65686">
        <ele>157</ele>
        <time>2013-03-02T16:47:54Z</time>
      </trkpt>
      <trkpt lat="44.05425" lon="1.65683">
        <ele>158</ele>
        <time>2013-03-02T16:47:56Z</time>
      </trkpt>
      <trkpt lat="44.05428" lon="1.65679">
        <ele>158</ele>
        <time>2013-03-02T16:47:58Z</time>
      </trkpt>
      <trkpt lat="44.0543" lon="1.65675">
        <ele>159</ele>
        <time>2013-03-02T16:48:00Z</time>
      </trkpt>
      <trkpt lat="44.05432" lon="1.65671">
        <ele>159</ele>
        <time>2013-03-02T16:48:02Z</time>
      </trkpt>
      <trkpt lat="44.05434" lon="1.65667">
        <ele>159</ele>
        <time>2013-03-02T16:48:04Z</time>
      </trkpt>
      <trkpt lat="44.05436" lon="1.65664">
        <ele>160</ele>
        <time>2013-03-02T16:48:06Z</time>
      </trkpt>
      <trkpt lat="44.05439" lon="1.65659">
        <ele>160</ele>
        <time>2013-03-02T16:48:08Z</time>
      </trkpt>
      <trkpt lat="44.05439" lon="1.65656">
        <ele>161</ele>
        <time>2013-03-02T16:48:10Z</time>
      </trkpt>
      <trkpt lat="44.05441" lon="1.65652">
        <ele>161</ele>
        <time>2013-03-02T16:48:12Z</time>
      </trkpt>
      <trkpt lat="44.05442" lon="1.65648">
        <ele>161</ele>
        <time>2013-03-02T16:48:14Z</time>
      </trkpt>
      <trkpt lat="44.05443" lon="1.65644">
        <ele>162</ele>
        <time>2013-03-02T16:48:16Z</time>
      </trkpt>
      <trkpt lat="44.05444" lon="1.6564">
        <ele>162</ele>
        <time>2013-03-02T16:48:18Z</time>
      </trkpt>
      <trkpt lat="44.05446" lon="1.65636">
        <ele>162</ele>
        <time>2013-03-02T16:48:20Z</time>
      </trkpt>
      <trkpt lat="44.05447" lon="1.65632">
        <ele>163</ele>
        <time>2013-03-02T16:48:22Z</time>
      </trkpt>
      <trkpt lat="44.05448" lon="1.65629">
        <ele>163</ele>
        <time>2013-03-02T16:48:24Z</time>
      </trkpt>
      <trkpt lat="44.05448" lon="1.65624">
        <ele>163</ele>
        <time>2013-03-02T16:48:26Z</time>
      </trkpt>
      <trkpt lat="44.05449" lon="1.65621">
        <ele>163</ele>
        <time>2013-03-02T16:48:28Z</time>
      </trkpt>
      <trkpt lat="44.05449" lon="1.65617">
        <ele>163</ele>
        <time>2013-03-02T16:48:30Z</time>
      </trkpt>
      <trkpt lat="44.05449" lon="1.65612">
        <ele>164</ele>
        <time>2013-03-02T16:48:32Z</time>
      </trkpt>
      <trkpt lat="44.0545" lon="1.65608">
        <ele>164</ele>
        <time>2013-03-02T16:48:34Z</time>
      </trkpt>
      <trkpt lat="44.05449" lon="1.65604">
        <ele>164</ele>
        <time>2013-03-02T16:48:36Z</time>
      </trkpt>
      <trkpt lat="44.05449" lon="1.656">
        <ele>164</ele>
        <time>2013-03-02T16:48:38Z</time>
      </trkpt>
      <trkpt lat="44.05449" lon="1.65596">
        <ele>164</ele>
        <time>2013-03-02T16:48:40Z</time>
      </trkpt>
      <trkpt lat="44.05449" lon="1.65592">
        <ele>164</ele>
        <time>2013-03-02T16:48:42Z</time>
      </trkpt>
      <trkpt lat="44.05449" lon="1.65587">
        <ele>164</ele>
        <time>2013-03-02T16:48:44Z</time>
      </trkpt>
      <trkpt lat="44.05449" lon="1.65583">
        <ele>164</ele>
        <time>2013-03-02T16:48:46Z</time>
      </trkpt>
      <trkpt lat="44.05449" lon="1.65578">
        <ele>164</ele>
        <time>2013-03-02T16:48:48Z</time>
      </trkpt>
      <trkpt lat="44.05448" lon="1.65574">
        <ele>165</ele>
        <time>2013-03-02T16:48:50Z</time>
      </trkpt>
      <trkpt lat="44.05448" lon="1.65569">
        <ele>165</ele>
        <time>2013-03-02T16:48:52Z</time>
      </trkpt>
      <trkpt lat="44.05447" lon="1.65565">
        <ele>165</ele>
        <time>2013-03-02T16:48:54Z</time>
      </trkpt>
      <trkpt lat="44.05447" lon="1.65561">
        <ele>165</ele>
        <time>2013-03-02T16:48:56Z</time>
      </trkpt>
      <trkpt lat="44.05446" lon="1.65556">
        <ele>165</ele>
        <time>2013-03-02T16:48:58Z</time>
      </trkpt>
      <trkpt lat="44.05446" lon="1.65552">
        <ele>165</ele>
        <time>2013-03-02T16:49:00Z</time>
      </trkpt>
      <trkpt lat="44.05445" lon="1.65547">
        <ele>165</ele>
        <time>2013-03-02T16:49:02Z</time>
      </trkpt>
      <trkpt lat="44.05445" lon="1.65543">
        <ele>165</ele>
        <time>2013-03-02T16:49:04Z</time>
      </trkpt>
      <trkpt lat="44.05444" lon="1.65538">
        <ele>165</ele>
        <time>2013-03-02T16:49:06Z</time>
      </trkpt>
      <trkpt lat="44.05444" lon="1.65533">
        <ele>165</ele>
        <time>2013-03-02T16:49:08Z</time>
      </trkpt>
      <trkpt lat="44.05442" lon="1.65529">
        <ele>165</ele>
        <time>2013-03-02T16:49:10Z</time>
      </trkpt>
      <trkpt lat="44.05441" lon="1.65525">
        <ele>165</ele>
        <time>2013-03-02T16:49:12Z</time>
      </trkpt>
      <trkpt lat="44.0544" lon="1.65522">
        <ele>165</ele>
        <time>2013-03-02T16:49:14Z</time>
      </trkpt>
      <trkpt lat="44.05437" lon="1.65517">
        <ele>166</ele>
        <time>2013-03-02T16:49:16Z</time>
      </trkpt>
      <trkpt lat="44.05435" lon="1.65513">
        <ele>168</ele>
        <time>2013-03-02T16:49:18Z</time>
      </trkpt>
      <trkpt lat="44.05433" lon="1.65509">
        <ele>170</ele>
        <time>2013-03-02T16:49:20Z</time>
      </trkpt>
      <trkpt lat="44.05431" lon="1.65506">
        <ele>171</ele>
        <time>2013-03-02T16:49:22Z</time>
      </trkpt>
      <trkpt lat="44.05429" lon="1.65503">
        <ele>173</ele>
        <time>2013-03-02T16:49:24Z</time>
      </trkpt>
      <trkpt lat="44.05427" lon="1.65501">
        <ele>174</ele>
        <time>2013-03-02T16:49:26Z</time>
      </trkpt>
      <trkpt lat="44.05424" lon="1.65499">
        <ele>175</ele>
        <time>2013-03-02T16:49:28Z</time>
      </trkpt>
      <trkpt lat="44.05421" lon="1.65497">
        <ele>176</ele>
        <time>2013-03-02T16:49:30Z</time>
      </trkpt>
      <trkpt lat="44.05419" lon="1.65495">
        <ele>177</ele>
        <time>2013-03-02T16:49:32Z</time>
      </trkpt>
      <trkpt lat="44.05416" lon="1.65493">
        <ele>178</ele>
        <time>2013-03-02T16:49:34Z</time>
      </trkpt>
      <trkpt lat="44.05413" lon="1.65491">
        <ele>179</ele>
        <time>2013-03-02T16:49:36Z</time>
      </trkpt>
      <trkpt lat="44.05411" lon="1.6549">
        <ele>180</ele>
        <time>2013-03-02T16:49:38Z</time>
      </trkpt>
      <trkpt lat="44.05408" lon="1.65488">
        <ele>181</ele>
        <time>2013-03-02T16:49:40Z</time>
      </trkpt>
      <trkpt lat="44.05405" lon="1.65487">
        <ele>181</ele>
        <time>2013-03-02T16:49:42Z</time>
      </trkpt>
      <trkpt lat="44.05402" lon="1.65485">
        <ele>182</ele>
        <time>2013-03-02T16:49:44Z</time>
      </trkpt>
      <trkpt lat="44.054" lon="1.65484">
        <ele>183</ele>
        <time>2013-03-02T16:49:46Z</time>
      </trkpt>
      <trkpt lat="44.05397" lon="1.65482">
        <ele>183</ele>
        <time>2013-03-02T16:49:48Z</time>
      </trkpt>
      <trkpt lat="44.05395" lon="1.65481">
        <ele>184</ele>
        <time>2013-03-02T16:49:50Z</time>
      </trkpt>
      <trkpt lat="44.05392" lon="1.65479">
        <ele>184</ele>
        <time>2013-03-02T16:49:52Z</time>
      </trkpt>
      <trkpt lat="44.05389" lon="1.65477">
        <ele>185</ele>
        <time>2013-03-02T16:49:54Z</time>
      </trkpt>
      <trkpt lat="44.05387" lon="1.65476">
        <ele>185</ele>
        <time>2013-03-02T16:49:56Z</time>
      </trkpt>
      <trkpt lat="44.05384" lon="1.65473">
        <ele>186</ele>
        <time>2013-03-02T16:49:58Z</time>
      </trkpt>
      <trkpt lat="44.05382" lon="1.65471">
        <ele>187</ele>
        <time>2013-03-02T16:50:00Z</time>
      </trkpt>
      <trkpt lat="44.05379" lon="1.65469">
        <ele>187</ele>
        <time>2013-03-02T16:50:02Z</time>
      </trkpt>
      <trkpt lat="44.05376" lon="1.65467">
        <ele>188</ele>
        <time>2013-03-02T16:50:04Z</time>
      </trkpt>
      <trkpt lat="44.05374" lon="1.65464">
        <ele>189</ele>
        <time>2013-03-02T16:50:06Z</time>
      </trkpt>
      <trkpt lat="44.05371" lon="1.65462">
        <ele>189</ele>
        <time>2013-03-02T16:50:08Z</time>
      </trkpt>
      <trkpt lat="44.05369" lon="1.65459">
        <ele>190</ele>
        <time>2013-03-02T16:50:10Z</time>
      </trkpt>
      <trkpt lat="44.05366" lon="1.65457">
        <ele>190</ele>
        <time>2013-03-02T16:50:12Z</time>
      </trkpt>
      <trkpt lat="44.05364" lon="1.65454">
        <ele>190</ele>
        <time>2013-03-02T16:50:14Z</time>
      </trkpt>
      <trkpt lat="44.05361" lon="1.65452">
        <ele>191</ele>
        <time>2013-03-02T16:50:16Z</time>
      </trkpt>
      <trkpt lat="44.05358" lon="1.6545">
        <ele>191</ele>
        <time>2013-03-02T16:50:18Z</time>
      </trkpt>
      <trkpt lat="44.05356" lon="1.65447">
        <ele>191</ele>
        <time>2013-03-02T16:50:20Z</time>
      </trkpt>
      <trkpt lat="44.05353" lon="1.65444">
        <ele>191</ele>
        <time>2013-03-02T16:50:22Z</time>
      </trkpt>
      <trkpt lat="44.0535" lon="1.65442">
        <ele>191</ele>
        <time>2013-03-02T16:50:24Z</time>
      </trkpt>
      <trkpt lat="44.05348" lon="1.6544">
        <ele>191</ele>
        <time>2013-03-02T16:50:26Z</time>
      </trkpt>
      <trkpt lat="44.05346" lon="1.65437">
        <ele>191</ele>
        <time>2013-03-02T16:50:28Z</time>
      </trkpt>
      <trkpt lat="44.05343" lon="1.65434">
        <ele>191</ele>
        <time>2013-03-02T16:50:30Z</time>
      </trkpt>
      <trkpt lat="44.05341" lon="1.65431">
        <ele>192</ele>
        <time>2013-03-02T16:50:32Z</time>
      </trkpt>
      <trkpt lat="44.05339" lon="1.65427">
        <ele>192</ele>
        <time>2013-03-02T16:50:34Z</time>
      </trkpt>
      <trkpt lat="44.05337" lon="1.65424">
        <ele>193</ele>
        <time>2013-03-02T16:50:36Z</time>
      </trkpt>
      <trkpt lat="44.05335" lon="1.6542">
        <ele>193</ele>
        <time>2013-03-02T16:50:38Z</time>
      </trkpt>
      <trkpt lat="44.05334" lon="1.65416">
        <ele>193</ele>
        <time>2013-03-02T16:50:40Z</time>
      </trkpt>
      <trkpt lat="44.05333" lon="1.65412">
        <ele>193</ele>
        <time>2013-03-02T16:50:42Z</time>
      </trkpt>
      <trkpt lat="44.05331" lon="1.65408">
        <ele>194</ele>
        <time>2013-03-02T16:50:44Z</time>
      </trkpt>
      <trkpt lat="44.05331" lon="1.65403">
        <ele>194</ele>
        <time>2013-03-02T16:50:46Z</time>
      </trkpt>
      <trkpt lat="44.0533" lon="1.65398">
        <ele>194</ele>
        <time>2013-03-02T16:50:48Z</time>
      </trkpt>
      <trkpt lat="44.05331" lon="1.65394">
        <ele>194</ele>
        <time>2013-03-02T16:50:50Z</time>
      </trkpt>
      <trkpt lat="44.05331" lon="1.65389">
        <ele>194</ele>
        <time>2013-03-02T16:50:52Z</time>
      </trkpt>
      <trkpt lat="44.05331" lon="1.65384">
        <ele>195</ele>
        <time>2013-03-02T16:50:54Z</time>
      </trkpt>
      <trkpt lat="44.05332" lon="1.6538">
        <ele>195</ele>
        <time>2013-03-02T16:50:56Z</time>
      </trkpt>
      <trkpt lat="44.05333" lon="1.65375">
        <ele>196</ele>
        <time>2013-03-02T16:50:58Z</time>
      </trkpt>
      <trkpt lat="44.05334" lon="1.65369">
        <ele>196</ele>
        <time>2013-03-02T16:51:00Z</time>
      </trkpt>
      <trkpt lat="44.05335" lon="1.65363">
        <ele>196</ele>
        <time>2013-03-02T16:51:02Z</time>
      </trkpt>
      <trkpt lat="44.05336" lon="1.65357">
        <ele>196</ele>
        <time>2013-03-02T16:51:04Z</time>
      </trkpt>
      <trkpt lat="44.05336" lon="1.65352">
        <ele>196</ele>
        <time>2013-03-02T16:51:06Z</time>
      </trkpt>
      <trkpt lat="44.05336" lon="1.65347">
        <ele>196</ele>
        <time>2013-03-02T16:51:08Z</time>
      </trkpt>
      <trkpt lat="44.05336" lon="1.65341">
        <ele>196</ele>
        <time>2013-03-02T16:51:10Z</time>
      </trkpt>
      <trkpt lat="44.05335" lon="1.65336">
        <ele>196</ele>
        <time>2013-03-02T16:51:12Z</time>
      </trkpt>
      <trkpt lat="44.05333" lon="1.65331">
        <ele>196</ele>
        <time>2013-03-02T16:51:14Z</time>
      </trkpt>
      <trkpt lat="44.0533" lon="1.65328">
        <ele>196</ele>
        <time>2013-03-02T16:51:16Z</time>
      </trkpt>
      <trkpt lat="44.05327" lon="1.65325">
        <ele>196</ele>
        <time>2013-03-02T16:51:18Z</time>
      </trkpt>
      <trkpt lat="44.05325" lon="1.65323">
        <ele>201</ele>
        <time>2013-03-02T16:51:46Z</time>
      </trkpt>
      <trkpt lat="44.05324" lon="1.65324">
        <ele>205</ele>
        <time>2013-03-02T16:54:10Z</time>
      </trkpt>
      <trkpt lat="44.05324" lon="1.65326">
        <ele>206</ele>
        <time>2013-03-02T16:54:34Z</time>
      </trkpt>
      <trkpt lat="44.05324" lon="1.65324">
        <ele>206</ele>
        <time>2013-03-02T16:55:08Z</time>
      </trkpt>
      <trkpt lat="44.05324" lon="1.65326">
        <ele>206</ele>
        <time>2013-03-02T16:55:41Z</time>
      </trkpt>
      <trkpt lat="44.05325" lon="1.65324">
        <ele>206</ele>
        <time>2013-03-02T16:55:52Z</time>
      </trkpt>
      <trkpt lat="44.05325" lon="1.65322">
        <ele>206</ele>
        <time>2013-03-02T16:55:59Z</time>
      </trkpt>
      <trkpt lat="44.05327" lon="1.65318">
        <ele>206</ele>
        <time>2013-03-02T16:56:01Z</time>
      </trkpt>
      <trkpt lat="44.05329" lon="1.65313">
        <ele>206</ele>
        <time>2013-03-02T16:56:03Z</time>
      </trkpt>
      <trkpt lat="44.05331" lon="1.65308">
        <ele>206</ele>
        <time>2013-03-02T16:56:05Z</time>
      </trkpt>
      <trkpt lat="44.05331" lon="1.65301">
        <ele>206</ele>
        <time>2013-03-02T16:56:07Z</time>
      </trkpt>
      <trkpt lat="44.0533" lon="1.65294">
        <ele>206</ele>
        <time>2013-03-02T16:56:09Z</time>
      </trkpt>
      <trkpt lat="44.05328" lon="1.65287">
        <ele>206</ele>
        <time>2013-03-02T16:56:11Z</time>
      </trkpt>
      <trkpt lat="44.05326" lon="1.65281">
        <ele>206</ele>
        <time>2013-03-02T16:56:13Z</time>
      </trkpt>
      <trkpt lat="44.05321" lon="1.65277">
        <ele>206</ele>
        <time>2013-03-02T16:56:15Z</time>
      </trkpt>
      <trkpt lat="44.05317" lon="1.65275">
        <ele>206</ele>
        <time>2013-03-02T16:56:17Z</time>
      </trkpt>
      <trkpt lat="44.05312" lon="1.65273">
        <ele>206</ele>
        <time>2013-03-02T16:56:19Z</time>
      </trkpt>
      <trkpt lat="44.05306" lon="1.65271">
        <ele>206</ele>
        <time>2013-03-02T16:56:21Z</time>
      </trkpt>
      <trkpt lat="44.05301" lon="1.65269">
        <ele>206</ele>
        <time>2013-03-02T16:56:23Z</time>
      </trkpt>
      <trkpt lat="44.05296" lon="1.65267">
        <ele>206</ele>
        <time>2013-03-02T16:56:25Z</time>
      </trkpt>
      <trkpt lat="44.0529" lon="1.65266">
        <ele>206</ele>
        <time>2013-03-02T16:56:27Z</time>
      </trkpt>
      <trkpt lat="44.05285" lon="1.65265">
        <ele>206</ele>
        <time>2013-03-02T16:56:30Z</time>
      </trkpt>
      <trkpt lat="44.05278" lon="1.65264">
        <ele>206</ele>
        <time>2013-03-02T16:56:32Z</time>
      </trkpt>
      <trkpt lat="44.05274" lon="1.65264">
        <ele>206</ele>
        <time>2013-03-02T16:56:34Z</time>
      </trkpt>
      <trkpt lat="44.05269" lon="1.65265">
        <ele>206</ele>
        <time>2013-03-02T16:56:36Z</time>
      </trkpt>
      <trkpt lat="44.05265" lon="1.65265">
        <ele>206</ele>
        <time>2013-03-02T16:56:38Z</time>
      </trkpt>
      <trkpt lat="44.05261" lon="1.65265">
        <ele>206</ele>
        <time>2013-03-02T16:56:40Z</time>
      </trkpt>
      <trkpt lat="44.05257" lon="1.65265">
        <ele>206</ele>
        <time>2013-03-02T16:56:42Z</time>
      </trkpt>
      <trkpt lat="44.05254" lon="1.65266">
        <ele>206</ele>
        <time>2013-03-02T16:56:44Z</time>
      </trkpt>
      <trkpt lat="44.0525" lon="1.65267">
        <ele>206</ele>
        <time>2013-03-02T16:56:46Z</time>
      </trkpt>
      <trkpt lat="44.05246" lon="1.65268">
        <ele>206</ele>
        <time>2013-03-02T16:56:48Z</time>
      </trkpt>
      <trkpt lat="44.05242" lon="1.65268">
        <ele>206</ele>
        <time>2013-03-02T16:56:50Z</time>
      </trkpt>
      <trkpt lat="44.05238" lon="1.65268">
        <ele>206</ele>
        <time>2013-03-02T16:56:52Z</time>
      </trkpt>
      <trkpt lat="44.05235" lon="1.65269">
        <ele>207</ele>
        <time>2013-03-02T16:56:54Z</time>
      </trkpt>
      <trkpt lat="44.05232" lon="1.6527">
        <ele>207</ele>
        <time>2013-03-02T16:56:56Z</time>
      </trkpt>
      <trkpt lat="44.05228" lon="1.6527">
        <ele>207</ele>
        <time>2013-03-02T16:56:58Z</time>
      </trkpt>
      <trkpt lat="44.05223" lon="1.65271">
        <ele>208</ele>
        <time>2013-03-02T16:57:01Z</time>
      </trkpt>
      <trkpt lat="44.05219" lon="1.65272">
        <ele>208</ele>
        <time>2013-03-02T16:57:03Z</time>
      </trkpt>
      <trkpt lat="44.05216" lon="1.65273">
        <ele>208</ele>
        <time>2013-03-02T16:57:05Z</time>
      </trkpt>
      <trkpt lat="44.05212" lon="1.65274">
        <ele>209</ele>
        <time>2013-03-02T16:57:07Z</time>
      </trkpt>
      <trkpt lat="44.05209" lon="1.65276">
        <ele>209</ele>
        <time>2013-03-02T16:57:09Z</time>
      </trkpt>
      <trkpt lat="44.05206" lon="1.65278">
        <ele>210</ele>
        <time>2013-03-02T16:57:11Z</time>
      </trkpt>
      <trkpt lat="44.05203" lon="1.65281">
        <ele>210</ele>
        <time>2013-03-02T16:57:13Z</time>
      </trkpt>
      <trkpt lat="44.05199" lon="1.65283">
        <ele>211</ele>
        <time>2013-03-02T16:57:15Z</time>
      </trkpt>
      <trkpt lat="44.05197" lon="1.65287">
        <ele>211</ele>
        <time>2013-03-02T16:57:17Z</time>
      </trkpt>
      <trkpt lat="44.05195" lon="1.65291">
        <ele>212</ele>
        <time>2013-03-02T16:57:19Z</time>
      </trkpt>
      <trkpt lat="44.05193" lon="1.65296">
        <ele>212</ele>
        <time>2013-03-02T16:57:21Z</time>
      </trkpt>
      <trkpt lat="44.05191" lon="1.65301">
        <ele>212</ele>
        <time>2013-03-02T16:57:23Z</time>
      </trkpt>
      <trkpt lat="44.0519" lon="1.65307">
        <ele>212</ele>
        <time>2013-03-02T16:57:25Z</time>
      </trkpt>
      <trkpt lat="44.05189" lon="1.65312">
        <ele>213</ele>
        <time>2013-03-02T16:57:27Z</time>
      </trkpt>
      <trkpt lat="44.05187" lon="1.65317">
        <ele>213</ele>
        <time>2013-03-02T16:57:30Z</time>
      </trkpt>
      <trkpt lat="44.05184" lon="1.65326">
        <ele>213</ele>
        <time>2013-03-02T16:57:32Z</time>
      </trkpt>
      <trkpt lat="44.05182" lon="1.65331">
        <ele>214</ele>
        <time>2013-03-02T16:57:34Z</time>
      </trkpt>
      <trkpt lat="44.0518" lon="1.65337">
        <ele>214</ele>
        <time>2013-03-02T16:57:36Z</time>
      </trkpt>
      <trkpt lat="44.05178" lon="1.65343">
        <ele>215</ele>
        <time>2013-03-02T16:57:38Z</time>
      </trkpt>
      <trkpt lat="44.05175" lon="1.65348">
        <ele>215</ele>
        <time>2013-03-02T16:57:40Z</time>
      </trkpt>
      <trkpt lat="44.05173" lon="1.65354">
        <ele>215</ele>
        <time>2013-03-02T16:57:42Z</time>
      </trkpt>
      <trkpt lat="44.0517" lon="1.65358">
        <ele>216</ele>
        <time>2013-03-02T16:57:44Z</time>
      </trkpt>
      <trkpt lat="44.05167" lon="1.65363">
        <ele>216</ele>
        <time>2013-03-02T16:57:46Z</time>
      </trkpt>
      <trkpt lat="44.05163" lon="1.65368">
        <ele>216</ele>
        <time>2013-03-02T16:57:48Z</time>
      </trkpt>
      <trkpt lat="44.0516" lon="1.65373">
        <ele>216</ele>
        <time>2013-03-02T16:57:50Z</time>
      </trkpt>
      <trkpt lat="44.05157" lon="1.65378">
        <ele>216</ele>
        <time>2013-03-02T16:57:52Z</time>
      </trkpt>
      <trkpt lat="44.05154" lon="1.65383">
        <ele>216</ele>
        <time>2013-03-02T16:57:54Z</time>
      </trkpt>
      <trkpt lat="44.05151" lon="1.65388">
        <ele>216</ele>
        <time>2013-03-02T16:57:56Z</time>
      </trkpt>
      <trkpt lat="44.05149" lon="1.65393">
        <ele>217</ele>
        <time>2013-03-02T16:57:58Z</time>
      </trkpt>
      <trkpt lat="44.05147" lon="1.65398">
        <ele>217</ele>
        <time>2013-03-02T16:58:00Z</time>
      </trkpt>
      <trkpt lat="44.05146" lon="1.65403">
        <ele>218</ele>
        <time>2013-03-02T16:58:02Z</time>
      </trkpt>
      <trkpt lat="44.05145" lon="1.65409">
        <ele>219</ele>
        <time>2013-03-02T16:58:04Z</time>
      </trkpt>
      <trkpt lat="44.05144" lon="1.65414">
        <ele>220</ele>
        <time>2013-03-02T16:58:06Z</time>
      </trkpt>
      <trkpt lat="44.05143" lon="1.65419">
        <ele>221</ele>
        <time>2013-03-02T16:58:08Z</time>
      </trkpt>
      <trkpt lat="44.05143" lon="1.65424">
        <ele>222</ele>
        <time>2013-03-02T16:58:10Z</time>
      </trkpt>
      <trkpt lat="44.05143" lon="1.65432">
        <ele>223</ele>
        <time>2013-03-02T16:58:13Z</time>
      </trkpt>
      <trkpt lat="44.05143" lon="1.65437">
        <ele>223</ele>
        <time>2013-03-02T16:58:15Z</time>
      </trkpt>
      <trkpt lat="44.05143" lon="1.65443">
        <ele>224</ele>
        <time>2013-03-02T16:58:17Z</time>
      </trkpt>
      <trkpt lat="44.05142" lon="1.65447">
        <ele>225</ele>
        <time>2013-03-02T16:58:19Z</time>
      </trkpt>
      <trkpt lat="44.0514" lon="1.65452">
        <ele>225</ele>
        <time>2013-03-02T16:58:21Z</time>
      </trkpt>
      <trkpt lat="44.05139" lon="1.65457">
        <ele>226</ele>
        <time>2013-03-02T16:58:23Z</time>
      </trkpt>
      <trkpt lat="44.05138" lon="1.65462">
        <ele>226</ele>
        <time>2013-03-02T16:58:25Z</time>
      </trkpt>
      <trkpt lat="44.05137" lon="1.65467">
        <ele>227</ele>
        <time>2013-03-02T16:58:27Z</time>
      </trkpt>
      <trkpt lat="44.05136" lon="1.65471">
        <ele>228</ele>
        <time>2013-03-02T16:58:30Z</time>
      </trkpt>
      <trkpt lat="44.05134" lon="1.65479">
        <ele>228</ele>
        <time>2013-03-02T16:58:32Z</time>
      </trkpt>
      <trkpt lat="44.05133" lon="1.65483">
        <ele>229</ele>
        <time>2013-03-02T16:58:34Z</time>
      </trkpt>
      <trkpt lat="44.05132" lon="1.65488">
        <ele>229</ele>
        <time>2013-03-02T16:58:36Z</time>
      </trkpt>
      <trkpt lat="44.05131" lon="1.65492">
        <ele>230</ele>
        <time>2013-03-02T16:58:38Z</time>
      </trkpt>
      <trkpt lat="44.05129" lon="1.65497">
        <ele>230</ele>
        <time>2013-03-02T16:58:40Z</time>
      </trkpt>
      <trkpt lat="44.05127" lon="1.65501">
        <ele>230</ele>
        <time>2013-03-02T16:58:42Z</time>
      </trkpt>
      <trkpt lat="44.05125" lon="1.65506">
        <ele>230</ele>
        <time>2013-03-02T16:58:44Z</time>
      </trkpt>
      <trkpt lat="44.05124" lon="1.65511">
        <ele>230</ele>
        <time>2013-03-02T16:58:46Z</time>
      </trkpt>
      <trkpt lat="44.05122" lon="1.65515">
        <ele>231</ele>
        <time>2013-03-02T16:58:48Z</time>
      </trkpt>
      <trkpt lat="44.0512" lon="1.6552">
        <ele>231</ele>
        <time>2013-03-02T16:58:50Z</time>
      </trkpt>
      <trkpt lat="44.05119" lon="1.65524">
        <ele>232</ele>
        <time>2013-03-02T16:58:52Z</time>
      </trkpt>
      <trkpt lat="44.05117" lon="1.65529">
        <ele>233</ele>
        <time>2013-03-02T16:58:54Z</time>
      </trkpt>
      <trkpt lat="44.05116" lon="1.65534">
        <ele>233</ele>
        <time>2013-03-02T16:58:56Z</time>
      </trkpt>
      <trkpt lat="44.05114" lon="1.65539">
        <ele>234</ele>
        <time>2013-03-02T16:58:58Z</time>
      </trkpt>
      <trkpt lat="44.05112" lon="1.65544">
        <ele>234</ele>
        <time>2013-03-02T16:59:00Z</time>
      </trkpt>
      <trkpt lat="44.05111" lon="1.65549">
        <ele>235</ele>
        <time>2013-03-02T16:59:02Z</time>
      </trkpt>
      <trkpt lat="44.0511" lon="1.65554">
        <ele>235</ele>
        <time>2013-03-02T16:59:04Z</time>
      </trkpt>
      <trkpt lat="44.05109" lon="1.65559">
        <ele>236</ele>
        <time>2013-03-02T16:59:06Z</time>
      </trkpt>
      <trkpt lat="44.05109" lon="1.65565">
        <ele>236</ele>
        <time>2013-03-02T16:59:08Z</time>
      </trkpt>
      <trkpt lat="44.05108" lon="1.65571">
        <ele>236</ele>
        <time>2013-03-02T16:59:10Z</time>
      </trkpt>
      <trkpt lat="44.05106" lon="1.65578">
        <ele>237</ele>
        <time>2013-03-02T16:59:13Z</time>
      </trkpt>
      <trkpt lat="44.05106" lon="1.65584">
        <ele>237</ele>
        <time>2013-03-02T16:59:15Z</time>
      </trkpt>
      <trkpt lat="44.05105" lon="1.65589">
        <ele>237</ele>
        <time>2013-03-02T16:59:17Z</time>
      </trkpt>
      <trkpt lat="44.05104" lon="1.65595">
        <ele>238</ele>
        <time>2013-03-02T16:59:19Z</time>
      </trkpt>
      <trkpt lat="44.05103" lon="1.65601">
        <ele>238</ele>
        <time>2013-03-02T16:59:21Z</time>
      </trkpt>
      <trkpt lat="44.05103" lon="1.65606">
        <ele>239</ele>
        <time>2013-03-02T16:59:23Z</time>
      </trkpt>
      <trkpt lat="44.05102" lon="1.65611">
        <ele>239</ele>
        <time>2013-03-02T16:59:25Z</time>
      </trkpt>
      <trkpt lat="44.05102" lon="1.65617">
        <ele>240</ele>
        <time>2013-03-02T16:59:27Z</time>
      </trkpt>
      <trkpt lat="44.05101" lon="1.65623">
        <ele>240</ele>
        <time>2013-03-02T16:59:30Z</time>
      </trkpt>
      <trkpt lat="44.05101" lon="1.65631">
        <ele>240</ele>
        <time>2013-03-02T16:59:32Z</time>
      </trkpt>
      <trkpt lat="44.05101" lon="1.65636">
        <ele>241</ele>
        <time>2013-03-02T16:59:34Z</time>
      </trkpt>
      <trkpt lat="44.05099" lon="1.65641">
        <ele>241</ele>
        <time>2013-03-02T16:59:36Z</time>
      </trkpt>
      <trkpt lat="44.05098" lon="1.65647">
        <ele>241</ele>
        <time>2013-03-02T16:59:38Z</time>
      </trkpt>
      <trkpt lat="44.05098" lon="1.65652">
        <ele>241</ele>
        <time>2013-03-02T16:59:40Z</time>
      </trkpt>
      <trkpt lat="44.05098" lon="1.65657">
        <ele>241</ele>
        <time>2013-03-02T16:59:42Z</time>
      </trkpt>
      <trkpt lat="44.05097" lon="1.65663">
        <ele>241</ele>
        <time>2013-03-02T16:59:44Z</time>
      </trkpt>
      <trkpt lat="44.05097" lon="1.65668">
        <ele>241</ele>
        <time>2013-03-02T16:59:46Z</time>
      </trkpt>
      <trkpt lat="44.05096" lon="1.65673">
        <ele>241</ele>
        <time>2013-03-02T16:59:48Z</time>
      </trkpt>
      <trkpt lat="44.05094" lon="1.65678">
        <ele>241</ele>
        <time>2013-03-02T16:59:50Z</time>
      </trkpt>
      <trkpt lat="44.05092" lon="1.65683">
        <ele>241</ele>
        <time>2013-03-02T16:59:52Z</time>
      </trkpt>
      <trkpt lat="44.05091" lon="1.65688">
        <ele>242</ele>
        <time>2013-03-02T16:59:54Z</time>
      </trkpt>
      <trkpt lat="44.0509" lon="1.65693">
        <ele>242</ele>
        <time>2013-03-02T16:59:56Z</time>
      </trkpt>
      <trkpt lat="44.05087" lon="1.65697">
        <ele>242</ele>
        <time>2013-03-02T16:59:58Z</time>
      </trkpt>
      <trkpt lat="44.05084" lon="1.657">
        <ele>242</ele>
        <time>2013-03-02T17:00:00Z</time>
      </trkpt>
      <trkpt lat="44.05082" lon="1.65705">
        <ele>242</ele>
        <time>2013-03-02T17:00:02Z</time>
      </trkpt>
      <trkpt lat="44.0508" lon="1.6571">
        <ele>242</ele>
        <time>2013-03-02T17:00:04Z</time>
      </trkpt>
      <trkpt lat="44.05079" lon="1.65715">
        <ele>243</ele>
        <time>2013-03-02T17:00:06Z</time>
      </trkpt>
      <trkpt lat="44.05077" lon="1.65719">
        <ele>243</ele>
        <time>2013-03-02T17:00:08Z</time>
      </trkpt>
      <trkpt lat="44.05076" lon="1.65724">
        <ele>243</ele>
        <time>2013-03-02T17:00:10Z</time>
      </trkpt>
      <trkpt lat="44.05075" lon="1.65729">
        <ele>243</ele>
        <time>2013-03-02T17:00:12Z</time>
      </trkpt>
      <trkpt lat="44.05074" lon="1.65734">
        <ele>243</ele>
        <time>2013-03-02T17:00:14Z</time>
      </trkpt>
      <trkpt lat="44.05074" lon="1.65738">
        <ele>243</ele>
        <time>2013-03-02T17:00:16Z</time>
      </trkpt>
      <trkpt lat="44.05073" lon="1.65744">
        <ele>243</ele>
        <time>2013-03-02T17:00:18Z</time>
      </trkpt>
      <trkpt lat="44.05073" lon="1.65749">
        <ele>243</ele>
        <time>2013-03-02T17:00:20Z</time>
      </trkpt>
      <trkpt lat="44.05073" lon="1.65753">
        <ele>243</ele>
        <time>2013-03-02T17:00:22Z</time>
      </trkpt>
      <trkpt lat="44.05073" lon="1.65759">
        <ele>244</ele>
        <time>2013-03-02T17:00:24Z</time>
      </trkpt>
      <trkpt lat="44.05073" lon="1.65765">
        <ele>244</ele>
        <time>2013-03-02T17:00:26Z</time>
      </trkpt>
      <trkpt lat="44.05072" lon="1.65771">
        <ele>244</ele>
        <time>2013-03-02T17:00:28Z</time>
      </trkpt>
      <trkpt lat="44.05071" lon="1.65777">
        <ele>244</ele>
        <time>2013-03-02T17:00:30Z</time>
      </trkpt>
      <trkpt lat="44.05072" lon="1.65783">
        <ele>244</ele>
        <time>2013-03-02T17:00:32Z</time>
      </trkpt>
      <trkpt lat="44.05071" lon="1.65792">
        <ele>244</ele>
        <time>2013-03-02T17:00:35Z</time>
      </trkpt>
      <trkpt lat="44.05069" lon="1.65798">
        <ele>244</ele>
        <time>2013-03-02T17:00:37Z</time>
      </trkpt>
      <trkpt lat="44.05069" lon="1.65804">
        <ele>244</ele>
        <time>2013-03-02T17:00:39Z</time>
      </trkpt>
      <trkpt lat="44.05068" lon="1.65811">
        <ele>244</ele>
        <time>2013-03-02T17:00:41Z</time>
      </trkpt>
      <trkpt lat="44.05066" lon="1.65817">
        <ele>244</ele>
        <time>2013-03-02T17:00:43Z</time>
      </trkpt>
      <trkpt lat="44.05065" lon="1.65824">
        <ele>244</ele>
        <time>2013-03-02T17:00:45Z</time>
      </trkpt>
      <trkpt lat="44.05066" lon="1.65831">
        <ele>244</ele>
        <time>2013-03-02T17:00:47Z</time>
      </trkpt>
      <trkpt lat="44.05064" lon="1.65838">
        <ele>244</ele>
        <time>2013-03-02T17:00:49Z</time>
      </trkpt>
      <trkpt lat="44.05064" lon="1.65845">
        <ele>244</ele>
        <time>2013-03-02T17:00:51Z</time>
      </trkpt>
      <trkpt lat="44.05062" lon="1.65853">
        <ele>244</ele>
        <time>2013-03-02T17:00:53Z</time>
      </trkpt>
      <trkpt lat="44.0506" lon="1.6586">
        <ele>244</ele>
        <time>2013-03-02T17:00:55Z</time>
      </trkpt>
      <trkpt lat="44.05058" lon="1.65868">
        <ele>244</ele>
        <time>2013-03-02T17:00:57Z</time>
      </trkpt>
      <trkpt lat="44.05057" lon="1.65874">
        <ele>244</ele>
        <time>2013-03-02T17:00:59Z</time>
      </trkpt>
      <trkpt lat="44.05055" lon="1.6588">
        <ele>244</ele>
        <time>2013-03-02T17:01:01Z</time>
      </trkpt>
      <trkpt lat="44.05053" lon="1.65885">
        <ele>244</ele>
        <time>2013-03-02T17:01:03Z</time>
      </trkpt>
      <trkpt lat="44.0505" lon="1.6589">
        <ele>244</ele>
        <time>2013-03-02T17:01:05Z</time>
      </trkpt>
      <trkpt lat="44.05048" lon="1.65895">
        <ele>244</ele>
        <time>2013-03-02T17:01:07Z</time>
      </trkpt>
      <trkpt lat="44.05046" lon="1.65901">
        <ele>244</ele>
        <time>2013-03-02T17:01:09Z</time>
      </trkpt>
      <trkpt lat="44.05045" lon="1.65907">
        <ele>244</ele>
        <time>2013-03-02T17:01:11Z</time>
      </trkpt>
      <trkpt lat="44.05043" lon="1.65913">
        <ele>244</ele>
        <time>2013-03-02T17:01:13Z</time>
      </trkpt>
      <trkpt lat="44.05039" lon="1.65919">
        <ele>244</ele>
        <time>2013-03-02T17:01:16Z</time>
      </trkpt>
      <trkpt lat="44.05036" lon="1.65924">
        <ele>244</ele>
        <time>2013-03-02T17:01:18Z</time>
      </trkpt>
      <trkpt lat="44.05034" lon="1.65928">
        <ele>245</ele>
        <time>2013-03-02T17:01:20Z</time>
      </trkpt>
      <trkpt lat="44.05032" lon="1.65931">
        <ele>245</ele>
        <time>2013-03-02T17:01:22Z</time>
      </trkpt>
      <trkpt lat="44.05029" lon="1.65935">
        <ele>246</ele>
        <time>2013-03-02T17:01:24Z</time>
      </trkpt>
      <trkpt lat="44.05026" lon="1.65938">
        <ele>247</ele>
        <time>2013-03-02T17:01:26Z</time>
      </trkpt>
      <trkpt lat="44.05023" lon="1.65941">
        <ele>248</ele>
        <time>2013-03-02T17:01:28Z</time>
      </trkpt>
      <trkpt lat="44.05021" lon="1.65945">
        <ele>249</ele>
        <time>2013-03-02T17:01:30Z</time>
      </trkpt>
      <trkpt lat="44.05019" lon="1.65949">
        <ele>249</ele>
        <time>2013-03-02T17:01:32Z</time>
      </trkpt>
      <trkpt lat="44.05017" lon="1.65954">
        <ele>250</ele>
        <time>2013-03-02T17:01:34Z</time>
      </trkpt>
      <trkpt lat="44.05015" lon="1.65958">
        <ele>251</ele>
        <time>2013-03-02T17:01:36Z</time>
      </trkpt>
      <trkpt lat="44.05012" lon="1.65962">
        <ele>251</ele>
        <time>2013-03-02T17:01:38Z</time>
      </trkpt>
      <trkpt lat="44.05009" lon="1.65965">
        <ele>252</ele>
        <time>2013-03-02T17:01:40Z</time>
      </trkpt>
      <trkpt lat="44.05006" lon="1.65968">
        <ele>252</ele>
        <time>2013-03-02T17:01:42Z</time>
      </trkpt>
      <trkpt lat="44.05003" lon="1.65971">
        <ele>253</ele>
        <time>2013-03-02T17:01:44Z</time>
      </trkpt>
      <trkpt lat="44.05001" lon="1.65973">
        <ele>253</ele>
        <time>2013-03-02T17:01:46Z</time>
      </trkpt>
      <trkpt lat="44.04997" lon="1.65977">
        <ele>253</ele>
        <time>2013-03-02T17:01:49Z</time>
      </trkpt>
      <trkpt lat="44.04995" lon="1.65981">
        <ele>253</ele>
        <time>2013-03-02T17:01:51Z</time>
      </trkpt>
      <trkpt lat="44.04994" lon="1.65985">
        <ele>254</ele>
        <time>2013-03-02T17:01:53Z</time>
      </trkpt>
      <trkpt lat="44.04993" lon="1.65989">
        <ele>254</ele>
        <time>2013-03-02T17:01:55Z</time>
      </trkpt>
      <trkpt lat="44.04989" lon="1.65996">
        <ele>254</ele>
        <time>2013-03-02T17:01:58Z</time>
      </trkpt>
      <trkpt lat="44.04987" lon="1.66">
        <ele>254</ele>
        <time>2013-03-02T17:02:00Z</time>
      </trkpt>
      <trkpt lat="44.04984" lon="1.66005">
        <ele>255</ele>
        <time>2013-03-02T17:02:02Z</time>
      </trkpt>
      <trkpt lat="44.04982" lon="1.66008">
        <ele>255</ele>
        <time>2013-03-02T17:02:04Z</time>
      </trkpt>
      <trkpt lat="44.04979" lon="1.66012">
        <ele>255</ele>
        <time>2013-03-02T17:02:06Z</time>
      </trkpt>
      <trkpt lat="44.04977" lon="1.66016">
        <ele>256</ele>
        <time>2013-03-02T17:02:08Z</time>
      </trkpt>
      <trkpt lat="44.04974" lon="1.66021">
        <ele>256</ele>
        <time>2013-03-02T17:02:10Z</time>
      </trkpt>
      <trkpt lat="44.04971" lon="1.66024">
        <ele>256</ele>
        <time>2013-03-02T17:02:12Z</time>
      </trkpt>
      <trkpt lat="44.04969" lon="1.66028">
        <ele>256</ele>
        <time>2013-03-02T17:02:14Z</time>
      </trkpt>
      <trkpt lat="44.04965" lon="1.66034">
        <ele>257</ele>
        <time>2013-03-02T17:02:17Z</time>
      </trkpt>
      <trkpt lat="44.04962" lon="1.66038">
        <ele>257</ele>
        <time>2013-03-02T17:02:19Z</time>
      </trkpt>
      <trkpt lat="44.0496" lon="1.66042">
        <ele>257</ele>
        <time>2013-03-02T17:02:21Z</time>
      </trkpt>
      <trkpt lat="44.04958" lon="1.66045">
        <ele>257</ele>
        <time>2013-03-02T17:02:23Z</time>
      </trkpt>
      <trkpt lat="44.04954" lon="1.66051">
        <ele>258</ele>
        <time>2013-03-02T17:02:26Z</time>
      </trkpt>
      <trkpt lat="44.04951" lon="1.66055">
        <ele>258</ele>
        <time>2013-03-02T17:02:28Z</time>
      </trkpt>
      <trkpt lat="44.04948" lon="1.66058">
        <ele>258</ele>
        <time>2013-03-02T17:02:30Z</time>
      </trkpt>
      <trkpt lat="44.04946" lon="1.66061">
        <ele>259</ele>
        <time>2013-03-02T17:02:32Z</time>
      </trkpt>
      <trkpt lat="44.04943" lon="1.66065">
        <ele>259</ele>
        <time>2013-03-02T17:02:34Z</time>
      </trkpt>
      <trkpt lat="44.0494" lon="1.66071">
        <ele>259</ele>
        <time>2013-03-02T17:02:37Z</time>
      </trkpt>
      <trkpt lat="44.04937" lon="1.66075">
        <ele>260</ele>
        <time>2013-03-02T17:02:39Z</time>
      </trkpt>
      <trkpt lat="44.04935" lon="1.66078">
        <ele>260</ele>
        <time>2013-03-02T17:02:41Z</time>
      </trkpt>
      <trkpt lat="44.04932" lon="1.66082">
        <ele>260</ele>
        <time>2013-03-02T17:02:43Z</time>
      </trkpt>
      <trkpt lat="44.04929" lon="1.66085">
        <ele>260</ele>
        <time>2013-03-02T17:02:45Z</time>
      </trkpt>
      <trkpt lat="44.04926" lon="1.66088">
        <ele>260</ele>
        <time>2013-03-02T17:02:47Z</time>
      </trkpt>
      <trkpt lat="44.04924" lon="1.66092">
        <ele>261</ele>
        <time>2013-03-02T17:02:49Z</time>
      </trkpt>
      <trkpt lat="44.04921" lon="1.66098">
        <ele>262</ele>
        <time>2013-03-02T17:02:52Z</time>
      </trkpt>
      <trkpt lat="44.04919" lon="1.66102">
        <ele>262</ele>
        <time>2013-03-02T17:02:54Z</time>
      </trkpt>
      <trkpt lat="44.04916" lon="1.66106">
        <ele>262</ele>
        <time>2013-03-02T17:02:56Z</time>
      </trkpt>
      <trkpt lat="44.04914" lon="1.66111">
        <ele>262</ele>
        <time>2013-03-02T17:02:58Z</time>
      </trkpt>
      <trkpt lat="44.04912" lon="1.66115">
        <ele>263</ele>
        <time>2013-03-02T17:03:00Z</time>
      </trkpt>
      <trkpt lat="44.0491" lon="1.6612">
        <ele>263</ele>
        <time>2013-03-02T17:03:02Z</time>
      </trkpt>
      <trkpt lat="44.04908" lon="1.66124">
        <ele>263</ele>
        <time>2013-03-02T17:03:04Z</time>
      </trkpt>
      <trkpt lat="44.04905" lon="1.66128">
        <ele>264</ele>
        <time>2013-03-02T17:03:06Z</time>
      </trkpt>
      <trkpt lat="44.04902" lon="1.66132">
        <ele>265</ele>
        <time>2013-03-02T17:03:08Z</time>
      </trkpt>
      <trkpt lat="44.04898" lon="1.66134">
        <ele>265</ele>
        <time>2013-03-02T17:03:10Z</time>
      </trkpt>
      <trkpt lat="44.04895" lon="1.66135">
        <ele>266</ele>
        <time>2013-03-02T17:03:12Z</time>
      </trkpt>
      <trkpt lat="44.04892" lon="1.66136">
        <ele>266</ele>
        <time>2013-03-02T17:03:14Z</time>
      </trkpt>
      <trkpt lat="44.0489" lon="1.6614">
        <ele>266</ele>
        <time>2013-03-02T17:03:16Z</time>
      </trkpt>
      <trkpt lat="44.04887" lon="1.66145">
        <ele>266</ele>
        <time>2013-03-02T17:03:18Z</time>
      </trkpt>
      <trkpt lat="44.04885" lon="1.66149">
        <ele>267</ele>
        <time>2013-03-02T17:03:20Z</time>
      </trkpt>
      <trkpt lat="44.04882" lon="1.66153">
        <ele>267</ele>
        <time>2013-03-02T17:03:22Z</time>
      </trkpt>
      <trkpt lat="44.04878" lon="1.66158">
        <ele>267</ele>
        <time>2013-03-02T17:03:25Z</time>
      </trkpt>
      <trkpt lat="44.04875" lon="1.66161">
        <ele>267</ele>
        <time>2013-03-02T17:03:27Z</time>
      </trkpt>
      <trkpt lat="44.04872" lon="1.66164">
        <ele>267</ele>
        <time>2013-03-02T17:03:30Z</time>
      </trkpt>
      <trkpt lat="44.04868" lon="1.66169">
        <ele>268</ele>
        <time>2013-03-02T17:03:32Z</time>
      </trkpt>
      <trkpt lat="44.04866" lon="1.66176">
        <ele>268</ele>
        <time>2013-03-02T17:03:35Z</time>
      </trkpt>
      <trkpt lat="44.04864" lon="1.66182">
        <ele>269</ele>
        <time>2013-03-02T17:03:37Z</time>
      </trkpt>
      <trkpt lat="44.04861" lon="1.6619">
        <ele>269</ele>
        <time>2013-03-02T17:03:40Z</time>
      </trkpt>
      <trkpt lat="44.04859" lon="1.66195">
        <ele>269</ele>
        <time>2013-03-02T17:03:42Z</time>
      </trkpt>
      <trkpt lat="44.04856" lon="1.66199">
        <ele>269</ele>
        <time>2013-03-02T17:03:44Z</time>
      </trkpt>
      <trkpt lat="44.04853" lon="1.66204">
        <ele>270</ele>
        <time>2013-03-02T17:03:46Z</time>
      </trkpt>
      <trkpt lat="44.04848" lon="1.6621">
        <ele>271</ele>
        <time>2013-03-02T17:03:49Z</time>
      </trkpt>
      <trkpt lat="44.04845" lon="1.66213">
        <ele>271</ele>
        <time>2013-03-02T17:03:51Z</time>
      </trkpt>
      <trkpt lat="44.04842" lon="1.66216">
        <ele>272</ele>
        <time>2013-03-02T17:03:53Z</time>
      </trkpt>
      <trkpt lat="44.04839" lon="1.66218">
        <ele>272</ele>
        <time>2013-03-02T17:03:55Z</time>
      </trkpt>
      <trkpt lat="44.04836" lon="1.66219">
        <ele>272</ele>
        <time>2013-03-02T17:03:57Z</time>
      </trkpt>
      <trkpt lat="44.04834" lon="1.6622">
        <ele>272</ele>
        <time>2013-03-02T17:03:59Z</time>
      </trkpt>
      <trkpt lat="44.04832" lon="1.66224">
        <ele>272</ele>
        <time>2013-03-02T17:04:01Z</time>
      </trkpt>
      <trkpt lat="44.0483" lon="1.66228">
        <ele>272</ele>
        <time>2013-03-02T17:04:03Z</time>
      </trkpt>
      <trkpt lat="44.04828" lon="1.66231">
        <ele>272</ele>
        <time>2013-03-02T17:04:05Z</time>
      </trkpt>
      <trkpt lat="44.04826" lon="1.66235">
        <ele>272</ele>
        <time>2013-03-02T17:04:07Z</time>
      </trkpt>
      <trkpt lat="44.04824" lon="1.66238">
        <ele>272</ele>
        <time>2013-03-02T17:04:09Z</time>
      </trkpt>
      <trkpt lat="44.04823" lon="1.66244">
        <ele>272</ele>
        <time>2013-03-02T17:04:12Z</time>
      </trkpt>
      <trkpt lat="44.04822" lon="1.66249">
        <ele>272</ele>
        <time>2013-03-02T17:04:14Z</time>
      </trkpt>
      <trkpt lat="44.04821" lon="1.66254">
        <ele>272</ele>
        <time>2013-03-02T17:04:16Z</time>
      </trkpt>
      <trkpt lat="44.04819" lon="1.66261">
        <ele>273</ele>
        <time>2013-03-02T17:04:19Z</time>
      </trkpt>
      <trkpt lat="44.04819" lon="1.66266">
        <ele>273</ele>
        <time>2013-03-02T17:04:21Z</time>
      </trkpt>
      <trkpt lat="44.04819" lon="1.66273">
        <ele>273</ele>
        <time>2013-03-02T17:04:23Z</time>
      </trkpt>
      <trkpt lat="44.04817" lon="1.66281">
        <ele>273</ele>
        <time>2013-03-02T17:04:25Z</time>
      </trkpt>
      <trkpt lat="44.04816" lon="1.66295">
        <ele>273</ele>
        <time>2013-03-02T17:04:28Z</time>
      </trkpt>
      <trkpt lat="44.04814" lon="1.66309">
        <ele>273</ele>
        <time>2013-03-02T17:04:31Z</time>
      </trkpt>
      <trkpt lat="44.04813" lon="1.6632">
        <ele>273</ele>
        <time>2013-03-02T17:04:33Z</time>
      </trkpt>
      <trkpt lat="44.04812" lon="1.6633">
        <ele>273</ele>
        <time>2013-03-02T17:04:35Z</time>
      </trkpt>
      <trkpt lat="44.04811" lon="1.6634">
        <ele>273</ele>
        <time>2013-03-02T17:04:37Z</time>
      </trkpt>
      <trkpt lat="44.04812" lon="1.66351">
        <ele>273</ele>
        <time>2013-03-02T17:04:40Z</time>
      </trkpt>
      <trkpt lat="44.04812" lon="1.6636">
        <ele>273</ele>
        <time>2013-03-02T17:04:43Z</time>
      </trkpt>
      <trkpt lat="44.04813" lon="1.66366">
        <ele>273</ele>
        <time>2013-03-02T17:04:45Z</time>
      </trkpt>
      <trkpt lat="44.04813" lon="1.66371">
        <ele>273</ele>
        <time>2013-03-02T17:04:47Z</time>
      </trkpt>
      <trkpt lat="44.04813" lon="1.66376">
        <ele>273</ele>
        <time>2013-03-02T17:04:49Z</time>
      </trkpt>
      <trkpt lat="44.04814" lon="1.66383">
        <ele>273</ele>
        <time>2013-03-02T17:04:52Z</time>
      </trkpt>
      <trkpt lat="44.04816" lon="1.66387">
        <ele>273</ele>
        <time>2013-03-02T17:04:54Z</time>
      </trkpt>
      <trkpt lat="44.04816" lon="1.66391">
        <ele>274</ele>
        <time>2013-03-02T17:04:56Z</time>
      </trkpt>
      <trkpt lat="44.04818" lon="1.66395">
        <ele>275</ele>
        <time>2013-03-02T17:04:58Z</time>
      </trkpt>
      <trkpt lat="44.04819" lon="1.66399">
        <ele>275</ele>
        <time>2013-03-02T17:05:00Z</time>
      </trkpt>
      <trkpt lat="44.0482" lon="1.66403">
        <ele>276</ele>
        <time>2013-03-02T17:05:02Z</time>
      </trkpt>
      <trkpt lat="44.04821" lon="1.66406">
        <ele>277</ele>
        <time>2013-03-02T17:05:04Z</time>
      </trkpt>
      <trkpt lat="44.04823" lon="1.66409">
        <ele>277</ele>
        <time>2013-03-02T17:05:06Z</time>
      </trkpt>
      <trkpt lat="44.04825" lon="1.66413">
        <ele>278</ele>
        <time>2013-03-02T17:05:08Z</time>
      </trkpt>
      <trkpt lat="44.04826" lon="1.66417">
        <ele>278</ele>
        <time>2013-03-02T17:05:10Z</time>
      </trkpt>
      <trkpt lat="44.04828" lon="1.6642">
        <ele>278</ele>
        <time>2013-03-02T17:05:12Z</time>
      </trkpt>
      <trkpt lat="44.04829" lon="1.66423">
        <ele>278</ele>
        <time>2013-03-02T17:05:14Z</time>
      </trkpt>
      <trkpt lat="44.04831" lon="1.66426">
        <ele>278</ele>
        <time>2013-03-02T17:05:16Z</time>
      </trkpt>
      <trkpt lat="44.04834" lon="1.6643">
        <ele>279</ele>
        <time>2013-03-02T17:05:18Z</time>
      </trkpt>
      <trkpt lat="44.04836" lon="1.66435">
        <ele>279</ele>
        <time>2013-03-02T17:05:20Z</time>
      </trkpt>
      <trkpt lat="44.04839" lon="1.6644">
        <ele>279</ele>
        <time>2013-03-02T17:05:22Z</time>
      </trkpt>
      <trkpt lat="44.04842" lon="1.66446">
        <ele>279</ele>
        <time>2013-03-02T17:05:24Z</time>
      </trkpt>
      <trkpt lat="44.04844" lon="1.66452">
        <ele>280</ele>
        <time>2013-03-02T17:05:26Z</time>
      </trkpt>
      <trkpt lat="44.04847" lon="1.66457">
        <ele>280</ele>
        <time>2013-03-02T17:05:28Z</time>
      </trkpt>
      <trkpt lat="44.0485" lon="1.66465">
        <ele>281</ele>
        <time>2013-03-02T17:05:31Z</time>
      </trkpt>
      <trkpt lat="44.04852" lon="1.6647">
        <ele>282</ele>
        <time>2013-03-02T17:05:33Z</time>
      </trkpt>
      <trkpt lat="44.04853" lon="1.66479">
        <ele>282</ele>
        <time>2013-03-02T17:05:36Z</time>
      </trkpt>
      <trkpt lat="44.04854" lon="1.66484">
        <ele>283</ele>
        <time>2013-03-02T17:05:38Z</time>
      </trkpt>
      <trkpt lat="44.04855" lon="1.66489">
        <ele>283</ele>
        <time>2013-03-02T17:05:40Z</time>
      </trkpt>
      <trkpt lat="44.04858" lon="1.66494">
        <ele>283</ele>
        <time>2013-03-02T17:05:42Z</time>
      </trkpt>
      <trkpt lat="44.04859" lon="1.665">
        <ele>283</ele>
        <time>2013-03-02T17:05:44Z</time>
      </trkpt>
      <trkpt lat="44.04858" lon="1.66506">
        <ele>283</ele>
        <time>2013-03-02T17:05:46Z</time>
      </trkpt>
      <trkpt lat="44.04858" lon="1.66511">
        <ele>283</ele>
        <time>2013-03-02T17:05:48Z</time>
      </trkpt>
      <trkpt lat="44.0486" lon="1.66517">
        <ele>283</ele>
        <time>2013-03-02T17:05:50Z</time>
      </trkpt>
      <trkpt lat="44.04861" lon="1.66523">
        <ele>283</ele>
        <time>2013-03-02T17:05:52Z</time>
      </trkpt>
      <trkpt lat="44.04863" lon="1.66529">
        <ele>283</ele>
        <time>2013-03-02T17:05:54Z</time>
      </trkpt>
      <trkpt lat="44.04865" lon="1.66537">
        <ele>283</ele>
        <time>2013-03-02T17:05:57Z</time>
      </trkpt>
      <trkpt lat="44.04867" lon="1.66543">
        <ele>283</ele>
        <time>2013-03-02T17:05:59Z</time>
      </trkpt>
      <trkpt lat="44.04869" lon="1.6655">
        <ele>283</ele>
        <time>2013-03-02T17:06:01Z</time>
      </trkpt>
      <trkpt lat="44.04871" lon="1.66557">
        <ele>283</ele>
        <time>2013-03-02T17:06:03Z</time>
      </trkpt>
      <trkpt lat="44.04873" lon="1.66562">
        <ele>283</ele>
        <time>2013-03-02T17:06:05Z</time>
      </trkpt>
      <trkpt lat="44.04876" lon="1.66572">
        <ele>283</ele>
        <time>2013-03-02T17:06:07Z</time>
      </trkpt>
      <trkpt lat="44.04879" lon="1.66583">
        <ele>283</ele>
        <time>2013-03-02T17:06:09Z</time>
      </trkpt>
      <trkpt lat="44.04882" lon="1.66595">
        <ele>283</ele>
        <time>2013-03-02T17:06:11Z</time>
      </trkpt>
      <trkpt lat="44.04884" lon="1.66604">
        <ele>283</ele>
        <time>2013-03-02T17:06:13Z</time>
      </trkpt>
      <trkpt lat="44.04883" lon="1.66609">
        <ele>283</ele>
        <time>2013-03-02T17:06:15Z</time>
      </trkpt>
      <trkpt lat="44.04882" lon="1.66613">
        <ele>283</ele>
        <time>2013-03-02T17:06:17Z</time>
      </trkpt>
      <trkpt lat="44.04881" lon="1.66617">
        <ele>283</ele>
        <time>2013-03-02T17:06:19Z</time>
      </trkpt>
      <trkpt lat="44.0488" lon="1.66622">
        <ele>283</ele>
        <time>2013-03-02T17:06:21Z</time>
      </trkpt>
      <trkpt lat="44.04879" lon="1.66627">
        <ele>283</ele>
        <time>2013-03-02T17:06:23Z</time>
      </trkpt>
      <trkpt lat="44.04877" lon="1.66632">
        <ele>283</ele>
        <time>2013-03-02T17:06:25Z</time>
      </trkpt>
      <trkpt lat="44.04876" lon="1.66638">
        <ele>283</ele>
        <time>2013-03-02T17:06:28Z</time>
      </trkpt>
      <trkpt lat="44.04876" lon="1.66643">
        <ele>283</ele>
        <time>2013-03-02T17:06:30Z</time>
      </trkpt>
      <trkpt lat="44.04876" lon="1.66649">
        <ele>283</ele>
        <time>2013-03-02T17:06:32Z</time>
      </trkpt>
      <trkpt lat="44.04874" lon="1.66655">
        <ele>283</ele>
        <time>2013-03-02T17:06:34Z</time>
      </trkpt>
      <trkpt lat="44.04873" lon="1.66661">
        <ele>283</ele>
        <time>2013-03-02T17:06:36Z</time>
      </trkpt>
      <trkpt lat="44.04871" lon="1.66667">
        <ele>283</ele>
        <time>2013-03-02T17:06:38Z</time>
      </trkpt>
      <trkpt lat="44.0487" lon="1.66672">
        <ele>283</ele>
        <time>2013-03-02T17:06:40Z</time>
      </trkpt>
      <trkpt lat="44.04868" lon="1.66675">
        <ele>283</ele>
        <time>2013-03-02T17:06:42Z</time>
      </trkpt>
      <trkpt lat="44.04865" lon="1.66682">
        <ele>283</ele>
        <time>2013-03-02T17:06:45Z</time>
      </trkpt>
      <trkpt lat="44.04863" lon="1.66685">
        <ele>283</ele>
        <time>2013-03-02T17:06:47Z</time>
      </trkpt>
      <trkpt lat="44.04861" lon="1.66688">
        <ele>283</ele>
        <time>2013-03-02T17:06:49Z</time>
      </trkpt>
      <trkpt lat="44.04858" lon="1.6669">
        <ele>283</ele>
        <time>2013-03-02T17:06:51Z</time>
      </trkpt>
      <trkpt lat="44.04856" lon="1.66693">
        <ele>283</ele>
        <time>2013-03-02T17:06:53Z</time>
      </trkpt>
      <trkpt lat="44.04853" lon="1.66696">
        <ele>283</ele>
        <time>2013-03-02T17:06:56Z</time>
      </trkpt>
      <trkpt lat="44.04849" lon="1.66695">
        <ele>283</ele>
        <time>2013-03-02T17:06:58Z</time>
      </trkpt>
      <trkpt lat="44.04847" lon="1.66692">
        <ele>285</ele>
        <time>2013-03-02T17:07:00Z</time>
      </trkpt>
      <trkpt lat="44.04846" lon="1.66688">
        <ele>285</ele>
        <time>2013-03-02T17:07:02Z</time>
      </trkpt>
      <trkpt lat="44.04844" lon="1.66683">
        <ele>286</ele>
        <time>2013-03-02T17:07:05Z</time>
      </trkpt>
      <trkpt lat="44.04841" lon="1.66679">
        <ele>287</ele>
        <time>2013-03-02T17:07:07Z</time>
      </trkpt>
      <trkpt lat="44.04839" lon="1.66676">
        <ele>288</ele>
        <time>2013-03-02T17:07:09Z</time>
      </trkpt>
      <trkpt lat="44.04837" lon="1.66674">
        <ele>289</ele>
        <time>2013-03-02T17:07:11Z</time>
      </trkpt>
      <trkpt lat="44.04835" lon="1.6667">
        <ele>290</ele>
        <time>2013-03-02T17:07:13Z</time>
      </trkpt>
      <trkpt lat="44.04834" lon="1.66667">
        <ele>290</ele>
        <time>2013-03-02T17:07:15Z</time>
      </trkpt>
      <trkpt lat="44.04832" lon="1.66663">
        <ele>290</ele>
        <time>2013-03-02T17:07:17Z</time>
      </trkpt>
      <trkpt lat="44.0483" lon="1.66659">
        <ele>290</ele>
        <time>2013-03-02T17:07:19Z</time>
      </trkpt>
      <trkpt lat="44.04827" lon="1.66655">
        <ele>291</ele>
        <time>2013-03-02T17:07:21Z</time>
      </trkpt>
      <trkpt lat="44.04823" lon="1.66652">
        <ele>293</ele>
        <time>2013-03-02T17:07:24Z</time>
      </trkpt>
      <trkpt lat="44.0482" lon="1.66651">
        <ele>293</ele>
        <time>2013-03-02T17:07:26Z</time>
      </trkpt>
      <trkpt lat="44.04815" lon="1.66649">
        <ele>294</ele>
        <time>2013-03-02T17:07:30Z</time>
      </trkpt>
      <trkpt lat="44.0481" lon="1.66648">
        <ele>294</ele>
        <time>2013-03-02T17:07:32Z</time>
      </trkpt>
      <trkpt lat="44.04807" lon="1.66647">
        <ele>294</ele>
        <time>2013-03-02T17:07:34Z</time>
      </trkpt>
      <trkpt lat="44.04803" lon="1.66645">
        <ele>294</ele>
        <time>2013-03-02T17:07:36Z</time>
      </trkpt>
      <trkpt lat="44.048" lon="1.66643">
        <ele>294</ele>
        <time>2013-03-02T17:07:38Z</time>
      </trkpt>
      <trkpt lat="44.04795" lon="1.66639">
        <ele>296</ele>
        <time>2013-03-02T17:07:41Z</time>
      </trkpt>
      <trkpt lat="44.0479" lon="1.66636">
        <ele>296</ele>
        <time>2013-03-02T17:07:44Z</time>
      </trkpt>
      <trkpt lat="44.04786" lon="1.66635">
        <ele>297</ele>
        <time>2013-03-02T17:07:46Z</time>
      </trkpt>
      <trkpt lat="44.04783" lon="1.66633">
        <ele>297</ele>
        <time>2013-03-02T17:07:48Z</time>
      </trkpt>
      <trkpt lat="44.04779" lon="1.66631">
        <ele>298</ele>
        <time>2013-03-02T17:07:50Z</time>
      </trkpt>
      <trkpt lat="44.04773" lon="1.66629">
        <ele>298</ele>
        <time>2013-03-02T17:07:53Z</time>
      </trkpt>
      <trkpt lat="44.0477" lon="1.66627">
        <ele>299</ele>
        <time>2013-03-02T17:07:55Z</time>
      </trkpt>
      <trkpt lat="44.04766" lon="1.66624">
        <ele>299</ele>
        <time>2013-03-02T17:07:57Z</time>
      </trkpt>
      <trkpt lat="44.04764" lon="1.66622">
        <ele>299</ele>
        <time>2013-03-02T17:07:59Z</time>
      </trkpt>
      <trkpt lat="44.04761" lon="1.66619">
        <ele>300</ele>
        <time>2013-03-02T17:08:01Z</time>
      </trkpt>
      <trkpt lat="44.04758" lon="1.66615">
        <ele>300</ele>
        <time>2013-03-02T17:08:03Z</time>
      </trkpt>
      <trkpt lat="44.04757" lon="1.6661">
        <ele>300</ele>
        <time>2013-03-02T17:08:05Z</time>
      </trkpt>
      <trkpt lat="44.04755" lon="1.66606">
        <ele>300</ele>
        <time>2013-03-02T17:08:07Z</time>
      </trkpt>
      <trkpt lat="44.04754" lon="1.66601">
        <ele>301</ele>
        <time>2013-03-02T17:08:09Z</time>
      </trkpt>
      <trkpt lat="44.04752" lon="1.66596">
        <ele>301</ele>
        <time>2013-03-02T17:08:11Z</time>
      </trkpt>
      <trkpt lat="44.0475" lon="1.66591">
        <ele>301</ele>
        <time>2013-03-02T17:08:13Z</time>
      </trkpt>
      <trkpt lat="44.04748" lon="1.66586">
        <ele>301</ele>
        <time>2013-03-02T17:08:15Z</time>
      </trkpt>
      <trkpt lat="44.04745" lon="1.66581">
        <ele>301</ele>
        <time>2013-03-02T17:08:17Z</time>
      </trkpt>
      <trkpt lat="44.04742" lon="1.66577">
        <ele>301</ele>
        <time>2013-03-02T17:08:19Z</time>
      </trkpt>
      <trkpt lat="44.04739" lon="1.66572">
        <ele>301</ele>
        <time>2013-03-02T17:08:21Z</time>
      </trkpt>
      <trkpt lat="44.04734" lon="1.66564">
        <ele>301</ele>
        <time>2013-03-02T17:08:24Z</time>
      </trkpt>
      <trkpt lat="44.0473" lon="1.66559">
        <ele>301</ele>
        <time>2013-03-02T17:08:26Z</time>
      </trkpt>
      <trkpt lat="44.04726" lon="1.66553">
        <ele>301</ele>
        <time>2013-03-02T17:08:28Z</time>
      </trkpt>
      <trkpt lat="44.04721" lon="1.66546">
        <ele>301</ele>
        <time>2013-03-02T17:08:30Z</time>
      </trkpt>
      <trkpt lat="44.04717" lon="1.66536">
        <ele>301</ele>
        <time>2013-03-02T17:08:33Z</time>
      </trkpt>
      <trkpt lat="44.04713" lon="1.66529">
        <ele>301</ele>
        <time>2013-03-02T17:08:35Z</time>
      </trkpt>
      <trkpt lat="44.04708" lon="1.66521">
        <ele>301</ele>
        <time>2013-03-02T17:08:37Z</time>
      </trkpt>
      <trkpt lat="44.04702" lon="1.66511">
        <ele>301</ele>
        <time>2013-03-02T17:08:39Z</time>
      </trkpt>
      <trkpt lat="44.04697" lon="1.66502">
        <ele>301</ele>
        <time>2013-03-02T17:08:41Z</time>
      </trkpt>
      <trkpt lat="44.04693" lon="1.66492">
        <ele>301</ele>
        <time>2013-03-02T17:08:43Z</time>
      </trkpt>
      <trkpt lat="44.04689" lon="1.66482">
        <ele>301</ele>
        <time>2013-03-02T17:08:45Z</time>
      </trkpt>
      <trkpt lat="44.04683" lon="1.66472">
        <ele>301</ele>
        <time>2013-03-02T17:08:47Z</time>
      </trkpt>
      <trkpt lat="44.04677" lon="1.66463">
        <ele>301</ele>
        <time>2013-03-02T17:08:49Z</time>
      </trkpt>
      <trkpt lat="44.04672" lon="1.66455">
        <ele>300</ele>
        <time>2013-03-02T17:08:51Z</time>
      </trkpt>
      <trkpt lat="44.04667" lon="1.66446">
        <ele>300</ele>
        <time>2013-03-02T17:08:53Z</time>
      </trkpt>
      <trkpt lat="44.04662" lon="1.66437">
        <ele>299</ele>
        <time>2013-03-02T17:08:55Z</time>
      </trkpt>
      <trkpt lat="44.04657" lon="1.66428">
        <ele>299</ele>
        <time>2013-03-02T17:08:57Z</time>
      </trkpt>
      <trkpt lat="44.04652" lon="1.6642">
        <ele>299</ele>
        <time>2013-03-02T17:08:59Z</time>
      </trkpt>
      <trkpt lat="44.04647" lon="1.66412">
        <ele>298</ele>
        <time>2013-03-02T17:09:01Z</time>
      </trkpt>
      <trkpt lat="44.04641" lon="1.66403">
        <ele>298</ele>
        <time>2013-03-02T17:09:03Z</time>
      </trkpt>
      <trkpt lat="44.04636" lon="1.66394">
        <ele>298</ele>
        <time>2013-03-02T17:09:05Z</time>
      </trkpt>
      <trkpt lat="44.0463" lon="1.66386">
        <ele>297</ele>
        <time>2013-03-02T17:09:07Z</time>
      </trkpt>
      <trkpt lat="44.04624" lon="1.66376">
        <ele>297</ele>
        <time>2013-03-02T17:09:09Z</time>
      </trkpt>
      <trkpt lat="44.04617" lon="1.66367">
        <ele>297</ele>
        <time>2013-03-02T17:09:11Z</time>
      </trkpt>
      <trkpt lat="44.04611" lon="1.66358">
        <ele>296</ele>
        <time>2013-03-02T17:09:13Z</time>
      </trkpt>
      <trkpt lat="44.04605" lon="1.66349">
        <ele>296</ele>
        <time>2013-03-02T17:09:15Z</time>
      </trkpt>
      <trkpt lat="44.04596" lon="1.66335">
        <ele>295</ele>
        <time>2013-03-02T17:09:18Z</time>
      </trkpt>
      <trkpt lat="44.0459" lon="1.66327">
        <ele>294</ele>
        <time>2013-03-02T17:09:20Z</time>
      </trkpt>
      <trkpt lat="44.04583" lon="1.66321">
        <ele>294</ele>
        <time>2013-03-02T17:09:22Z</time>
      </trkpt>
      <trkpt lat="44.04574" lon="1.66317">
        <ele>293</ele>
        <time>2013-03-02T17:09:24Z</time>
      </trkpt>
      <trkpt lat="44.04563" lon="1.66312">
        <ele>292</ele>
        <time>2013-03-02T17:09:26Z</time>
      </trkpt>
      <trkpt lat="44.04548" lon="1.66302">
        <ele>291</ele>
        <time>2013-03-02T17:09:29Z</time>
      </trkpt>
      <trkpt lat="44.0454" lon="1.66293">
        <ele>290</ele>
        <time>2013-03-02T17:09:31Z</time>
      </trkpt>
      <trkpt lat="44.04533" lon="1.66289">
        <ele>290</ele>
        <time>2013-03-02T17:09:33Z</time>
      </trkpt>
      <trkpt lat="44.04524" lon="1.663">
        <ele>290</ele>
        <time>2013-03-02T17:09:36Z</time>
      </trkpt>
      <trkpt lat="44.04517" lon="1.66307">
        <ele>290</ele>
        <time>2013-03-02T17:09:38Z</time>
      </trkpt>
      <trkpt lat="44.04507" lon="1.66317">
        <ele>290</ele>
        <time>2013-03-02T17:09:41Z</time>
      </trkpt>
      <trkpt lat="44.04501" lon="1.66322">
        <ele>290</ele>
        <time>2013-03-02T17:09:43Z</time>
      </trkpt>
      <trkpt lat="44.04496" lon="1.66328">
        <ele>290</ele>
        <time>2013-03-02T17:09:45Z</time>
      </trkpt>
      <trkpt lat="44.04491" lon="1.66335">
        <ele>290</ele>
        <time>2013-03-02T17:09:47Z</time>
      </trkpt>
      <trkpt lat="44.04484" lon="1.66344">
        <ele>290</ele>
        <time>2013-03-02T17:09:50Z</time>
      </trkpt>
      <trkpt lat="44.04478" lon="1.6635">
        <ele>290</ele>
        <time>2013-03-02T17:09:52Z</time>
      </trkpt>
      <trkpt lat="44.0447" lon="1.66358">
        <ele>290</ele>
        <time>2013-03-02T17:09:55Z</time>
      </trkpt>
      <trkpt lat="44.04465" lon="1.66364">
        <ele>290</ele>
        <time>2013-03-02T17:09:57Z</time>
      </trkpt>
      <trkpt lat="44.04457" lon="1.66373">
        <ele>290</ele>
        <time>2013-03-02T17:10:00Z</time>
      </trkpt>
      <trkpt lat="44.04452" lon="1.66378">
        <ele>290</ele>
        <time>2013-03-02T17:10:02Z</time>
      </trkpt>
      <trkpt lat="44.04444" lon="1.66386">
        <ele>290</ele>
        <time>2013-03-02T17:10:05Z</time>
      </trkpt>
      <trkpt lat="44.04435" lon="1.66392">
        <ele>290</ele>
        <time>2013-03-02T17:10:08Z</time>
      </trkpt>
      <trkpt lat="44.04429" lon="1.66394">
        <ele>290</ele>
        <time>2013-03-02T17:10:10Z</time>
      </trkpt>
      <trkpt lat="44.04421" lon="1.664">
        <ele>290</ele>
        <time>2013-03-02T17:10:13Z</time>
      </trkpt>
      <trkpt lat="44.04415" lon="1.66403">
        <ele>290</ele>
        <time>2013-03-02T17:10:15Z</time>
      </trkpt>
      <trkpt lat="44.04407" lon="1.66405">
        <ele>290</ele>
        <time>2013-03-02T17:10:18Z</time>
      </trkpt>
      <trkpt lat="44.04402" lon="1.66406">
        <ele>291</ele>
        <time>2013-03-02T17:10:20Z</time>
      </trkpt>
      <trkpt lat="44.04396" lon="1.66408">
        <ele>291</ele>
        <time>2013-03-02T17:10:23Z</time>
      </trkpt>
      <trkpt lat="44.04391" lon="1.66408">
        <ele>291</ele>
        <time>2013-03-02T17:10:25Z</time>
      </trkpt>
      <trkpt lat="44.04383" lon="1.66406">
        <ele>291</ele>
        <time>2013-03-02T17:10:28Z</time>
      </trkpt>
      <trkpt lat="44.04378" lon="1.66402">
        <ele>291</ele>
        <time>2013-03-02T17:10:30Z</time>
      </trkpt>
      <trkpt lat="44.04373" lon="1.66394">
        <ele>291</ele>
        <time>2013-03-02T17:10:33Z</time>
      </trkpt>
      <trkpt lat="44.0437" lon="1.66387">
        <ele>291</ele>
        <time>2013-03-02T17:10:35Z</time>
      </trkpt>
      <trkpt lat="44.04366" lon="1.66377">
        <ele>291</ele>
        <time>2013-03-02T17:10:38Z</time>
      </trkpt>
      <trkpt lat="44.04364" lon="1.66369">
        <ele>291</ele>
        <time>2013-03-02T17:10:40Z</time>
      </trkpt>
      <trkpt lat="44.04364" lon="1.66362">
        <ele>291</ele>
        <time>2013-03-02T17:10:42Z</time>
      </trkpt>
      <trkpt lat="44.04363" lon="1.66355">
        <ele>291</ele>
        <time>2013-03-02T17:10:44Z</time>
      </trkpt>
      <trkpt lat="44.04361" lon="1.66348">
        <ele>292</ele>
        <time>2013-03-02T17:10:46Z</time>
      </trkpt>
      <trkpt lat="44.04359" lon="1.66341">
        <ele>292</ele>
        <time>2013-03-02T17:10:48Z</time>
      </trkpt>
      <trkpt lat="44.04356" lon="1.6633">
        <ele>293</ele>
        <time>2013-03-02T17:10:51Z</time>
      </trkpt>
      <trkpt lat="44.04355" lon="1.66323">
        <ele>293</ele>
        <time>2013-03-02T17:10:53Z</time>
      </trkpt>
      <trkpt lat="44.04355" lon="1.66313">
        <ele>294</ele>
        <time>2013-03-02T17:10:56Z</time>
      </trkpt>
      <trkpt lat="44.04355" lon="1.66308">
        <ele>295</ele>
        <time>2013-03-02T17:10:58Z</time>
      </trkpt>
      <trkpt lat="44.04355" lon="1.66306">
        <ele>295</ele>
        <time>2013-03-02T17:11:01Z</time>
      </trkpt>
      <trkpt lat="44.04354" lon="1.66305">
        <ele>298</ele>
        <time>2013-03-02T17:11:06Z</time>
      </trkpt>
      <trkpt lat="44.04355" lon="1.66305">
        <ele>299</ele>
        <time>2013-03-02T17:11:36Z</time>
      </trkpt>
      <trkpt lat="44.04354" lon="1.66303">
        <ele>299</ele>
        <time>2013-03-02T17:11:57Z</time>
      </trkpt>
      <trkpt lat="44.04355" lon="1.66302">
        <ele>299</ele>
        <time>2013-03-02T17:12:13Z</time>
      </trkpt>
      <trkpt lat="44.04354" lon="1.663">
        <ele>301</ele>
        <time>2013-03-02T17:13:50Z</time>
      </trkpt>
      <trkpt lat="44.04356" lon="1.66299">
        <ele>302</ele>
        <time>2013-03-02T17:15:30Z</time>
      </trkpt>
      <trkpt lat="44.04355" lon="1.66301">
        <ele>302</ele>
        <time>2013-03-02T17:16:05Z</time>
      </trkpt>
      <trkpt lat="44.04354" lon="1.66302">
        <ele>302</ele>
        <time>2013-03-02T17:16:30Z</time>
      </trkpt>
      <trkpt lat="44.04356" lon="1.66302">
        <ele>302</ele>
        <time>2013-03-02T17:16:43Z</time>
      </trkpt>
      <trkpt lat="44.04354" lon="1.66302">
        <ele>302</ele>
        <time>2013-03-02T17:16:57Z</time>
      </trkpt>
      <trkpt lat="44.04355" lon="1.66303">
        <ele>303</ele>
        <time>2013-03-02T17:19:28Z</time>
      </trkpt>
      <trkpt lat="44.04354" lon="1.66302">
        <ele>303</ele>
        <time>2013-03-02T17:19:36Z</time>
      </trkpt>
      <trkpt lat="44.04353" lon="1.663">
        <ele>303</ele>
        <time>2013-03-02T17:20:02Z</time>
      </trkpt>
      <trkpt lat="44.04352" lon="1.663">
        <ele>303</ele>
        <time>2013-03-02T17:20:43Z</time>
      </trkpt>
      <trkpt lat="44.04353" lon="1.66299">
        <ele>303</ele>
        <time>2013-03-02T17:21:02Z</time>
      </trkpt>
      <trkpt lat="44.04355" lon="1.66301">
        <ele>301</ele>
        <time>2013-03-02T17:21:46Z</time>
      </trkpt>
      <trkpt lat="44.04353" lon="1.66301">
        <ele>298</ele>
        <time>2013-03-02T17:22:28Z</time>
      </trkpt>
      <trkpt lat="44.04354" lon="1.66303">
        <ele>298</ele>
        <time>2013-03-02T17:22:48Z</time>
      </trkpt>
      <trkpt lat="44.04354" lon="1.66301">
        <ele>298</ele>
        <time>2013-03-02T17:22:51Z</time>
      </trkpt>
      <trkpt lat="44.04353" lon="1.663">
        <ele>298</ele>
        <time>2013-03-02T17:22:55Z</time>
      </trkpt>
      <trkpt lat="44.04353" lon="1.66301">
        <ele>298</ele>
        <time>2013-03-02T17:23:07Z</time>
      </trkpt>
      <trkpt lat="44.04353" lon="1.66303">
        <ele>298</ele>
        <time>2013-03-02T17:23:16Z</time>
      </trkpt>
      <trkpt lat="44.04352" lon="1.66304">
        <ele>298</ele>
        <time>2013-03-02T17:23:27Z</time>
      </trkpt>
      <trkpt lat="44.04353" lon="1.66303">
        <ele>298</ele>
        <time>2013-03-02T17:23:45Z</time>
      </trkpt>
      <trkpt lat="44.04354" lon="1.66301">
        <ele>298</ele>
        <time>2013-03-02T17:23:58Z</time>
      </trkpt>
      <trkpt lat="44.04353" lon="1.66301">
        <ele>298</ele>
        <time>2013-03-02T17:24:09Z</time>
      </trkpt>
      <trkpt lat="44.04353" lon="1.66303">
        <ele>298</ele>
        <time>2013-03-02T17:24:23Z</time>
      </trkpt>
      <trkpt lat="44.04353" lon="1.66304">
        <ele>299</ele>
        <time>2013-03-02T17:24:38Z</time>
      </trkpt>
      <trkpt lat="44.04353" lon="1.66306">
        <ele>301</ele>
        <time>2013-03-02T17:24:50Z</time>
      </trkpt>
      <trkpt lat="44.04353" lon="1.66304">
        <ele>301</ele>
        <time>2013-03-02T17:25:12Z</time>
      </trkpt>
      <trkpt lat="44.04354" lon="1.66305">
        <ele>301</ele>
        <time>2013-03-02T17:25:26Z</time>
      </trkpt>
      <trkpt lat="44.04353" lon="1.66303">
        <ele>301</ele>
        <time>2013-03-02T17:25:48Z</time>
      </trkpt>
      <trkpt lat="44.04353" lon="1.663">
        <ele>301</ele>
        <time>2013-03-02T17:25:53Z</time>
      </trkpt>
      <trkpt lat="44.04353" lon="1.66296">
        <ele>301</ele>
        <time>2013-03-02T17:25:55Z</time>
      </trkpt>
      <trkpt lat="44.04351" lon="1.6629">
        <ele>301</ele>
        <time>2013-03-02T17:25:57Z</time>
      </trkpt>
      <trkpt lat="44.0435" lon="1.66282">
        <ele>301</ele>
        <time>2013-03-02T17:25:59Z</time>
      </trkpt>
      <trkpt lat="44.04349" lon="1.66273">
        <ele>301</ele>
        <time>2013-03-02T17:26:01Z</time>
      </trkpt>
      <trkpt lat="44.04348" lon="1.66264">
        <ele>301</ele>
        <time>2013-03-02T17:26:03Z</time>
      </trkpt>
      <trkpt lat="44.04348" lon="1.66255">
        <ele>301</ele>
        <time>2013-03-02T17:26:05Z</time>
      </trkpt>
      <trkpt lat="44.04347" lon="1.66247">
        <ele>301</ele>
        <time>2013-03-02T17:26:07Z</time>
      </trkpt>
      <trkpt lat="44.04345" lon="1.66239">
        <ele>301</ele>
        <time>2013-03-02T17:26:09Z</time>
      </trkpt>
      <trkpt lat="44.04343" lon="1.66231">
        <ele>301</ele>
        <time>2013-03-02T17:26:11Z</time>
      </trkpt>
      <trkpt lat="44.0434" lon="1.66223">
        <ele>301</ele>
        <time>2013-03-02T17:26:13Z</time>
      </trkpt>
      <trkpt lat="44.04337" lon="1.66217">
        <ele>301</ele>
        <time>2013-03-02T17:26:15Z</time>
      </trkpt>
      <trkpt lat="44.04334" lon="1.66211">
        <ele>301</ele>
        <time>2013-03-02T17:26:17Z</time>
      </trkpt>
      <trkpt lat="44.0433" lon="1.66206">
        <ele>301</ele>
        <time>2013-03-02T17:26:19Z</time>
      </trkpt>
      <trkpt lat="44.04325" lon="1.66201">
        <ele>302</ele>
        <time>2013-03-02T17:26:21Z</time>
      </trkpt>
      <trkpt lat="44.04319" lon="1.66197">
        <ele>302</ele>
        <time>2013-03-02T17:26:23Z</time>
      </trkpt>
      <trkpt lat="44.04314" lon="1.66193">
        <ele>303</ele>
        <time>2013-03-02T17:26:25Z</time>
      </trkpt>
      <trkpt lat="44.04309" lon="1.66189">
        <ele>303</ele>
        <time>2013-03-02T17:26:27Z</time>
      </trkpt>
      <trkpt lat="44.04303" lon="1.66185">
        <ele>304</ele>
        <time>2013-03-02T17:26:29Z</time>
      </trkpt>
      <trkpt lat="44.04296" lon="1.66178">
        <ele>305</ele>
        <time>2013-03-02T17:26:32Z</time>
      </trkpt>
      <trkpt lat="44.04292" lon="1.66173">
        <ele>306</ele>
        <time>2013-03-02T17:26:34Z</time>
      </trkpt>
      <trkpt lat="44.04288" lon="1.66168">
        <ele>306</ele>
        <time>2013-03-02T17:26:36Z</time>
      </trkpt>
      <trkpt lat="44.04283" lon="1.66163">
        <ele>307</ele>
        <time>2013-03-02T17:26:38Z</time>
      </trkpt>
      <trkpt lat="44.04278" lon="1.66159">
        <ele>307</ele>
        <time>2013-03-02T17:26:40Z</time>
      </trkpt>
      <trkpt lat="44.04274" lon="1.66155">
        <ele>308</ele>
        <time>2013-03-02T17:26:42Z</time>
      </trkpt>
      <trkpt lat="44.04269" lon="1.6615">
        <ele>308</ele>
        <time>2013-03-02T17:26:44Z</time>
      </trkpt>
      <trkpt lat="44.04266" lon="1.66144">
        <ele>309</ele>
        <time>2013-03-02T17:26:46Z</time>
      </trkpt>
      <trkpt lat="44.04263" lon="1.66139">
        <ele>309</ele>
        <time>2013-03-02T17:26:48Z</time>
      </trkpt>
      <trkpt lat="44.04259" lon="1.66133">
        <ele>309</ele>
        <time>2013-03-02T17:26:50Z</time>
      </trkpt>
      <trkpt lat="44.04255" lon="1.66127">
        <ele>309</ele>
        <time>2013-03-02T17:26:52Z</time>
      </trkpt>
      <trkpt lat="44.04252" lon="1.66121">
        <ele>309</ele>
        <time>2013-03-02T17:26:54Z</time>
      </trkpt>
      <trkpt lat="44.04248" lon="1.66114">
        <ele>309</ele>
        <time>2013-03-02T17:26:56Z</time>
      </trkpt>
      <trkpt lat="44.04245" lon="1.66108">
        <ele>309</ele>
        <time>2013-03-02T17:26:58Z</time>
      </trkpt>
      <trkpt lat="44.04242" lon="1.66101">
        <ele>309</ele>
        <time>2013-03-02T17:27:00Z</time>
      </trkpt>
      <trkpt lat="44.04239" lon="1.66095">
        <ele>309</ele>
        <time>2013-03-02T17:27:02Z</time>
      </trkpt>
      <trkpt lat="44.04236" lon="1.66088">
        <ele>309</ele>
        <time>2013-03-02T17:27:04Z</time>
      </trkpt>
      <trkpt lat="44.04232" lon="1.66079">
        <ele>309</ele>
        <time>2013-03-02T17:27:06Z</time>
      </trkpt>
      <trkpt lat="44.04228" lon="1.66069">
        <ele>309</ele>
        <time>2013-03-02T17:27:08Z</time>
      </trkpt>
      <trkpt lat="44.04224" lon="1.66058">
        <ele>309</ele>
        <time>2013-03-02T17:27:10Z</time>
      </trkpt>
      <trkpt lat="44.04218" lon="1.66045">
        <ele>309</ele>
        <time>2013-03-02T17:27:12Z</time>
      </trkpt>
      <trkpt lat="44.04211" lon="1.66035">
        <ele>309</ele>
        <time>2013-03-02T17:27:14Z</time>
      </trkpt>
      <trkpt lat="44.04202" lon="1.6603">
        <ele>309</ele>
        <time>2013-03-02T17:27:16Z</time>
      </trkpt>
      <trkpt lat="44.04192" lon="1.66032">
        <ele>308</ele>
        <time>2013-03-02T17:27:18Z</time>
      </trkpt>
      <trkpt lat="44.04184" lon="1.66038">
        <ele>308</ele>
        <time>2013-03-02T17:27:20Z</time>
      </trkpt>
      <trkpt lat="44.04177" lon="1.66044">
        <ele>308</ele>
        <time>2013-03-02T17:27:22Z</time>
      </trkpt>
      <trkpt lat="44.0417" lon="1.6605">
        <ele>308</ele>
        <time>2013-03-02T17:27:24Z</time>
      </trkpt>
      <trkpt lat="44.04163" lon="1.66055">
        <ele>308</ele>
        <time>2013-03-02T17:27:26Z</time>
      </trkpt>
      <trkpt lat="44.04155" lon="1.66061">
        <ele>307</ele>
        <time>2013-03-02T17:27:28Z</time>
      </trkpt>
      <trkpt lat="44.04149" lon="1.66069">
        <ele>307</ele>
        <time>2013-03-02T17:27:30Z</time>
      </trkpt>
      <trkpt lat="44.04145" lon="1.66079">
        <ele>307</ele>
        <time>2013-03-02T17:27:32Z</time>
      </trkpt>
      <trkpt lat="44.0414" lon="1.66088">
        <ele>307</ele>
        <time>2013-03-02T17:27:34Z</time>
      </trkpt>
      <trkpt lat="44.04134" lon="1.66093">
        <ele>307</ele>
        <time>2013-03-02T17:27:36Z</time>
      </trkpt>
      <trkpt lat="44.04127" lon="1.66094">
        <ele>307</ele>
        <time>2013-03-02T17:27:38Z</time>
      </trkpt>
      <trkpt lat="44.0412" lon="1.6609">
        <ele>307</ele>
        <time>2013-03-02T17:27:40Z</time>
      </trkpt>
      <trkpt lat="44.04113" lon="1.66081">
        <ele>306</ele>
        <time>2013-03-02T17:27:42Z</time>
      </trkpt>
      <trkpt lat="44.04107" lon="1.66068">
        <ele>305</ele>
        <time>2013-03-02T17:27:44Z</time>
      </trkpt>
      <trkpt lat="44.04101" lon="1.66055">
        <ele>303</ele>
        <time>2013-03-02T17:27:46Z</time>
      </trkpt>
      <trkpt lat="44.04095" lon="1.66043">
        <ele>302</ele>
        <time>2013-03-02T17:27:48Z</time>
      </trkpt>
      <trkpt lat="44.04087" lon="1.6603">
        <ele>300</ele>
        <time>2013-03-02T17:27:50Z</time>
      </trkpt>
      <trkpt lat="44.04079" lon="1.66018">
        <ele>298</ele>
        <time>2013-03-02T17:27:52Z</time>
      </trkpt>
      <trkpt lat="44.04069" lon="1.66003">
        <ele>296</ele>
        <time>2013-03-02T17:27:54Z</time>
      </trkpt>
      <trkpt lat="44.04058" lon="1.65989">
        <ele>294</ele>
        <time>2013-03-02T17:27:56Z</time>
      </trkpt>
      <trkpt lat="44.04047" lon="1.65976">
        <ele>292</ele>
        <time>2013-03-02T17:27:58Z</time>
      </trkpt>
      <trkpt lat="44.04037" lon="1.65963">
        <ele>290</ele>
        <time>2013-03-02T17:28:00Z</time>
      </trkpt>
      <trkpt lat="44.04033" lon="1.65948">
        <ele>288</ele>
        <time>2013-03-02T17:28:02Z</time>
      </trkpt>
      <trkpt lat="44.04034" lon="1.6593">
        <ele>286</ele>
        <time>2013-03-02T17:28:04Z</time>
      </trkpt>
      <trkpt lat="44.04039" lon="1.65916">
        <ele>286</ele>
        <time>2013-03-02T17:28:06Z</time>
      </trkpt>
      <trkpt lat="44.04047" lon="1.65904">
        <ele>286</ele>
        <time>2013-03-02T17:28:08Z</time>
      </trkpt>
      <trkpt lat="44.04051" lon="1.6589">
        <ele>286</ele>
        <time>2013-03-02T17:28:10Z</time>
      </trkpt>
      <trkpt lat="44.04055" lon="1.65873">
        <ele>286</ele>
        <time>2013-03-02T17:28:12Z</time>
      </trkpt>
      <trkpt lat="44.0406" lon="1.65855">
        <ele>286</ele>
        <time>2013-03-02T17:28:14Z</time>
      </trkpt>
      <trkpt lat="44.0406" lon="1.65837">
        <ele>284</ele>
        <time>2013-03-02T17:28:16Z</time>
      </trkpt>
      <trkpt lat="44.04055" lon="1.65823">
        <ele>283</ele>
        <time>2013-03-02T17:28:18Z</time>
      </trkpt>
      <trkpt lat="44.04043" lon="1.65816">
        <ele>281</ele>
        <time>2013-03-02T17:28:20Z</time>
      </trkpt>
      <trkpt lat="44.04029" lon="1.65808">
        <ele>279</ele>
        <time>2013-03-02T17:28:22Z</time>
      </trkpt>
      <trkpt lat="44.04012" lon="1.658">
        <ele>277</ele>
        <time>2013-03-02T17:28:24Z</time>
      </trkpt>
      <trkpt lat="44.03993" lon="1.65793">
        <ele>275</ele>
        <time>2013-03-02T17:28:26Z</time>
      </trkpt>
      <trkpt lat="44.03974" lon="1.65787">
        <ele>273</ele>
        <time>2013-03-02T17:28:28Z</time>
      </trkpt>
      <trkpt lat="44.03955" lon="1.65777">
        <ele>271</ele>
        <time>2013-03-02T17:28:30Z</time>
      </trkpt>
      <trkpt lat="44.03939" lon="1.65761">
        <ele>269</ele>
        <time>2013-03-02T17:28:32Z</time>
      </trkpt>
      <trkpt lat="44.03922" lon="1.65744">
        <ele>267</ele>
        <time>2013-03-02T17:28:34Z</time>
      </trkpt>
      <trkpt lat="44.03907" lon="1.65732">
        <ele>265</ele>
        <time>2013-03-02T17:28:36Z</time>
      </trkpt>
      <trkpt lat="44.03891" lon="1.65725">
        <ele>263</ele>
        <time>2013-03-02T17:28:38Z</time>
      </trkpt>
      <trkpt lat="44.03876" lon="1.65725">
        <ele>263</ele>
        <time>2013-03-02T17:28:40Z</time>
      </trkpt>
      <trkpt lat="44.03863" lon="1.65728">
        <ele>263</ele>
        <time>2013-03-02T17:28:42Z</time>
      </trkpt>
      <trkpt lat="44.03851" lon="1.6573">
        <ele>263</ele>
        <time>2013-03-02T17:28:44Z</time>
      </trkpt>
      <trkpt lat="44.03838" lon="1.65731">
        <ele>263</ele>
        <time>2013-03-02T17:28:46Z</time>
      </trkpt>
      <trkpt lat="44.03826" lon="1.65731">
        <ele>263</ele>
        <time>2013-03-02T17:28:48Z</time>
      </trkpt>
      <trkpt lat="44.03814" lon="1.6573">
        <ele>263</ele>
        <time>2013-03-02T17:28:50Z</time>
      </trkpt>
      <trkpt lat="44.03802" lon="1.65726">
        <ele>263</ele>
        <time>2013-03-02T17:28:52Z</time>
      </trkpt>
      <trkpt lat="44.03791" lon="1.65718">
        <ele>263</ele>
        <time>2013-03-02T17:28:54Z</time>
      </trkpt>
      <trkpt lat="44.03782" lon="1.65707">
        <ele>263</ele>
        <time>2013-03-02T17:28:56Z</time>
      </trkpt>
      <trkpt lat="44.03775" lon="1.65694">
        <ele>264</ele>
        <time>2013-03-02T17:28:58Z</time>
      </trkpt>
      <trkpt lat="44.03767" lon="1.65681">
        <ele>265</ele>
        <time>2013-03-02T17:29:00Z</time>
      </trkpt>
      <trkpt lat="44.0376" lon="1.65668">
        <ele>266</ele>
        <time>2013-03-02T17:29:02Z</time>
      </trkpt>
      <trkpt lat="44.03753" lon="1.65655">
        <ele>266</ele>
        <time>2013-03-02T17:29:04Z</time>
      </trkpt>
      <trkpt lat="44.03746" lon="1.65642">
        <ele>267</ele>
        <time>2013-03-02T17:29:06Z</time>
      </trkpt>
      <trkpt lat="44.03738" lon="1.6563">
        <ele>267</ele>
        <time>2013-03-02T17:29:08Z</time>
      </trkpt>
      <trkpt lat="44.03731" lon="1.65618">
        <ele>267</ele>
        <time>2013-03-02T17:29:10Z</time>
      </trkpt>
      <trkpt lat="44.03723" lon="1.65609">
        <ele>267</ele>
        <time>2013-03-02T17:29:12Z</time>
      </trkpt>
      <trkpt lat="44.03714" lon="1.65602">
        <ele>267</ele>
        <time>2013-03-02T17:29:14Z</time>
      </trkpt>
      <trkpt lat="44.03705" lon="1.65598">
        <ele>268</ele>
        <time>2013-03-02T17:29:16Z</time>
      </trkpt>
      <trkpt lat="44.03696" lon="1.65596">
        <ele>268</ele>
        <time>2013-03-02T17:29:18Z</time>
      </trkpt>
      <trkpt lat="44.03688" lon="1.65594">
        <ele>269</ele>
        <time>2013-03-02T17:29:20Z</time>
      </trkpt>
      <trkpt lat="44.0368" lon="1.65593">
        <ele>269</ele>
        <time>2013-03-02T17:29:22Z</time>
      </trkpt>
      <trkpt lat="44.03672" lon="1.65592">
        <ele>270</ele>
        <time>2013-03-02T17:29:24Z</time>
      </trkpt>
      <trkpt lat="44.03663" lon="1.65591">
        <ele>270</ele>
        <time>2013-03-02T17:29:26Z</time>
      </trkpt>
      <trkpt lat="44.03655" lon="1.65591">
        <ele>271</ele>
        <time>2013-03-02T17:29:28Z</time>
      </trkpt>
      <trkpt lat="44.03647" lon="1.6559">
        <ele>271</ele>
        <time>2013-03-02T17:29:30Z</time>
      </trkpt>
      <trkpt lat="44.03639" lon="1.6559">
        <ele>272</ele>
        <time>2013-03-02T17:29:32Z</time>
      </trkpt>
      <trkpt lat="44.03631" lon="1.6559">
        <ele>272</ele>
        <time>2013-03-02T17:29:34Z</time>
      </trkpt>
      <trkpt lat="44.03623" lon="1.6559">
        <ele>272</ele>
        <time>2013-03-02T17:29:36Z</time>
      </trkpt>
      <trkpt lat="44.03615" lon="1.65591">
        <ele>272</ele>
        <time>2013-03-02T17:29:38Z</time>
      </trkpt>
      <trkpt lat="44.03607" lon="1.65591">
        <ele>272</ele>
        <time>2013-03-02T17:29:40Z</time>
      </trkpt>
      <trkpt lat="44.03598" lon="1.65592">
        <ele>272</ele>
        <time>2013-03-02T17:29:42Z</time>
      </trkpt>
      <trkpt lat="44.0359" lon="1.65592">
        <ele>272</ele>
        <time>2013-03-02T17:29:44Z</time>
      </trkpt>
      <trkpt lat="44.03581" lon="1.65592">
        <ele>272</ele>
        <time>2013-03-02T17:29:46Z</time>
      </trkpt>
      <trkpt lat="44.03571" lon="1.65593">
        <ele>272</ele>
        <time>2013-03-02T17:29:48Z</time>
      </trkpt>
      <trkpt lat="44.03561" lon="1.65592">
        <ele>272</ele>
        <time>2013-03-02T17:29:50Z</time>
      </trkpt>
      <trkpt lat="44.0355" lon="1.65592">
        <ele>272</ele>
        <time>2013-03-02T17:29:52Z</time>
      </trkpt>
      <trkpt lat="44.03539" lon="1.65591">
        <ele>272</ele>
        <time>2013-03-02T17:29:54Z</time>
      </trkpt>
      <trkpt lat="44.03527" lon="1.6559">
        <ele>272</ele>
        <time>2013-03-02T17:29:56Z</time>
      </trkpt>
      <trkpt lat="44.03515" lon="1.65589">
        <ele>272</ele>
        <time>2013-03-02T17:29:58Z</time>
      </trkpt>
      <trkpt lat="44.03503" lon="1.65588">
        <ele>272</ele>
        <time>2013-03-02T17:30:00Z</time>
      </trkpt>
      <trkpt lat="44.03492" lon="1.65587">
        <ele>272</ele>
        <time>2013-03-02T17:30:02Z</time>
      </trkpt>
      <trkpt lat="44.0348" lon="1.65586">
        <ele>272</ele>
        <time>2013-03-02T17:30:04Z</time>
      </trkpt>
      <trkpt lat="44.03468" lon="1.65585">
        <ele>272</ele>
        <time>2013-03-02T17:30:06Z</time>
      </trkpt>
      <trkpt lat="44.03457" lon="1.65584">
        <ele>272</ele>
        <time>2013-03-02T17:30:08Z</time>
      </trkpt>
      <trkpt lat="44.03446" lon="1.65584">
        <ele>272</ele>
        <time>2013-03-02T17:30:10Z</time>
      </trkpt>
      <trkpt lat="44.03435" lon="1.65583">
        <ele>272</ele>
        <time>2013-03-02T17:30:12Z</time>
      </trkpt>
      <trkpt lat="44.03424" lon="1.65584">
        <ele>272</ele>
        <time>2013-03-02T17:30:14Z</time>
      </trkpt>
      <trkpt lat="44.03413" lon="1.65585">
        <ele>272</ele>
        <time>2013-03-02T17:30:16Z</time>
      </trkpt>
      <trkpt lat="44.03402" lon="1.65587">
        <ele>272</ele>
        <time>2013-03-02T17:30:18Z</time>
      </trkpt>
      <trkpt lat="44.03392" lon="1.65589">
        <ele>272</ele>
        <time>2013-03-02T17:30:20Z</time>
      </trkpt>
      <trkpt lat="44.03382" lon="1.65593">
        <ele>272</ele>
        <time>2013-03-02T17:30:22Z</time>
      </trkpt>
      <trkpt lat="44.03372" lon="1.65597">
        <ele>272</ele>
        <time>2013-03-02T17:30:24Z</time>
      </trkpt>
      <trkpt lat="44.03363" lon="1.65602">
        <ele>273</ele>
        <time>2013-03-02T17:30:26Z</time>
      </trkpt>
      <trkpt lat="44.03355" lon="1.65606">
        <ele>273</ele>
        <time>2013-03-02T17:30:28Z</time>
      </trkpt>
      <trkpt lat="44.03346" lon="1.65611">
        <ele>274</ele>
        <time>2013-03-02T17:30:30Z</time>
      </trkpt>
      <trkpt lat="44.03337" lon="1.65616">
        <ele>274</ele>
        <time>2013-03-02T17:30:32Z</time>
      </trkpt>
      <trkpt lat="44.03328" lon="1.65621">
        <ele>275</ele>
        <time>2013-03-02T17:30:34Z</time>
      </trkpt>
      <trkpt lat="44.03319" lon="1.65626">
        <ele>275</ele>
        <time>2013-03-02T17:30:36Z</time>
      </trkpt>
      <trkpt lat="44.0331" lon="1.65631">
        <ele>276</ele>
        <time>2013-03-02T17:30:38Z</time>
      </trkpt>
      <trkpt lat="44.033" lon="1.65637">
        <ele>276</ele>
        <time>2013-03-02T17:30:40Z</time>
      </trkpt>
      <trkpt lat="44.03291" lon="1.65641">
        <ele>276</ele>
        <time>2013-03-02T17:30:42Z</time>
      </trkpt>
      <trkpt lat="44.03283" lon="1.65647">
        <ele>277</ele>
        <time>2013-03-02T17:30:44Z</time>
      </trkpt>
      <trkpt lat="44.03274" lon="1.65651">
        <ele>277</ele>
        <time>2013-03-02T17:30:46Z</time>
      </trkpt>
      <trkpt lat="44.03265" lon="1.65656">
        <ele>278</ele>
        <time>2013-03-02T17:30:48Z</time>
      </trkpt>
      <trkpt lat="44.03257" lon="1.65661">
        <ele>278</ele>
        <time>2013-03-02T17:30:50Z</time>
      </trkpt>
      <trkpt lat="44.03247" lon="1.65665">
        <ele>279</ele>
        <time>2013-03-02T17:30:52Z</time>
      </trkpt>
      <trkpt lat="44.03238" lon="1.65671">
        <ele>279</ele>
        <time>2013-03-02T17:30:54Z</time>
      </trkpt>
      <trkpt lat="44.03229" lon="1.65676">
        <ele>280</ele>
        <time>2013-03-02T17:30:56Z</time>
      </trkpt>
      <trkpt lat="44.0322" lon="1.65681">
        <ele>280</ele>
        <time>2013-03-02T17:30:58Z</time>
      </trkpt>
      <trkpt lat="44.03211" lon="1.65686">
        <ele>281</ele>
        <time>2013-03-02T17:31:00Z</time>
      </trkpt>
      <trkpt lat="44.03202" lon="1.65691">
        <ele>281</ele>
        <time>2013-03-02T17:31:02Z</time>
      </trkpt>
      <trkpt lat="44.03193" lon="1.65696">
        <ele>281</ele>
        <time>2013-03-02T17:31:04Z</time>
      </trkpt>
      <trkpt lat="44.03185" lon="1.657">
        <ele>282</ele>
        <time>2013-03-02T17:31:06Z</time>
      </trkpt>
      <trkpt lat="44.03176" lon="1.65705">
        <ele>282</ele>
        <time>2013-03-02T17:31:08Z</time>
      </trkpt>
      <trkpt lat="44.03168" lon="1.65709">
        <ele>283</ele>
        <time>2013-03-02T17:31:10Z</time>
      </trkpt>
      <trkpt lat="44.03159" lon="1.65714">
        <ele>283</ele>
        <time>2013-03-02T17:31:12Z</time>
      </trkpt>
      <trkpt lat="44.03151" lon="1.65719">
        <ele>283</ele>
        <time>2013-03-02T17:31:14Z</time>
      </trkpt>
      <trkpt lat="44.03143" lon="1.65724">
        <ele>284</ele>
        <time>2013-03-02T17:31:16Z</time>
      </trkpt>
      <trkpt lat="44.03134" lon="1.65728">
        <ele>284</ele>
        <time>2013-03-02T17:31:18Z</time>
      </trkpt>
      <trkpt lat="44.03127" lon="1.65732">
        <ele>284</ele>
        <time>2013-03-02T17:31:20Z</time>
      </trkpt>
      <trkpt lat="44.03118" lon="1.65736">
        <ele>284</ele>
        <time>2013-03-02T17:31:22Z</time>
      </trkpt>
      <trkpt lat="44.0311" lon="1.6574">
        <ele>284</ele>
        <time>2013-03-02T17:31:24Z</time>
      </trkpt>
      <trkpt lat="44.03101" lon="1.65743">
        <ele>284</ele>
        <time>2013-03-02T17:31:26Z</time>
      </trkpt>
      <trkpt lat="44.03091" lon="1.65745">
        <ele>284</ele>
        <time>2013-03-02T17:31:28Z</time>
      </trkpt>
      <trkpt lat="44.03082" lon="1.65748">
        <ele>284</ele>
        <time>2013-03-02T17:31:30Z</time>
      </trkpt>
      <trkpt lat="44.03073" lon="1.65751">
        <ele>284</ele>
        <time>2013-03-02T17:31:32Z</time>
      </trkpt>
      <trkpt lat="44.03064" lon="1.65754">
        <ele>284</ele>
        <time>2013-03-02T17:31:34Z</time>
      </trkpt>
      <trkpt lat="44.03055" lon="1.65757">
        <ele>284</ele>
        <time>2013-03-02T17:31:36Z</time>
      </trkpt>
      <trkpt lat="44.03046" lon="1.65759">
        <ele>285</ele>
        <time>2013-03-02T17:31:38Z</time>
      </trkpt>
      <trkpt lat="44.03036" lon="1.65761">
        <ele>285</ele>
        <time>2013-03-02T17:31:40Z</time>
      </trkpt>
      <trkpt lat="44.03027" lon="1.65763">
        <ele>286</ele>
        <time>2013-03-02T17:31:42Z</time>
      </trkpt>
      <trkpt lat="44.03017" lon="1.65766">
        <ele>286</ele>
        <time>2013-03-02T17:31:44Z</time>
      </trkpt>
      <trkpt lat="44.03007" lon="1.65768">
        <ele>286</ele>
        <time>2013-03-02T17:31:46Z</time>
      </trkpt>
      <trkpt lat="44.02997" lon="1.65771">
        <ele>286</ele>
        <time>2013-03-02T17:31:48Z</time>
      </trkpt>
      <trkpt lat="44.02987" lon="1.65775">
        <ele>286</ele>
        <time>2013-03-02T17:31:50Z</time>
      </trkpt>
      <trkpt lat="44.02977" lon="1.65779">
        <ele>286</ele>
        <time>2013-03-02T17:31:52Z</time>
      </trkpt>
      <trkpt lat="44.02968" lon="1.65783">
        <ele>286</ele>
        <time>2013-03-02T17:31:54Z</time>
      </trkpt>
      <trkpt lat="44.02958" lon="1.65787">
        <ele>286</ele>
        <time>2013-03-02T17:31:56Z</time>
      </trkpt>
      <trkpt lat="44.02948" lon="1.65792">
        <ele>286</ele>
        <time>2013-03-02T17:31:58Z</time>
      </trkpt>
      <trkpt lat="44.02937" lon="1.65798">
        <ele>286</ele>
        <time>2013-03-02T17:32:00Z</time>
      </trkpt>
      <trkpt lat="44.02929" lon="1.65805">
        <ele>286</ele>
        <time>2013-03-02T17:32:02Z</time>
      </trkpt>
      <trkpt lat="44.02921" lon="1.65813">
        <ele>286</ele>
        <time>2013-03-02T17:32:04Z</time>
      </trkpt>
      <trkpt lat="44.0291" lon="1.65828">
        <ele>286</ele>
        <time>2013-03-02T17:32:07Z</time>
      </trkpt>
      <trkpt lat="44.02903" lon="1.65838">
        <ele>287</ele>
        <time>2013-03-02T17:32:09Z</time>
      </trkpt>
      <trkpt lat="44.02895" lon="1.6585">
        <ele>287</ele>
        <time>2013-03-02T17:32:11Z</time>
      </trkpt>
      <trkpt lat="44.02888" lon="1.65862">
        <ele>287</ele>
        <time>2013-03-02T17:32:13Z</time>
      </trkpt>
      <trkpt lat="44.02881" lon="1.65873">
        <ele>287</ele>
        <time>2013-03-02T17:32:15Z</time>
      </trkpt>
      <trkpt lat="44.02873" lon="1.65886">
        <ele>287</ele>
        <time>2013-03-02T17:32:17Z</time>
      </trkpt>
      <trkpt lat="44.02864" lon="1.65902">
        <ele>287</ele>
        <time>2013-03-02T17:32:19Z</time>
      </trkpt>
      <trkpt lat="44.02853" lon="1.65918">
        <ele>287</ele>
        <time>2013-03-02T17:32:21Z</time>
      </trkpt>
      <trkpt lat="44.0284" lon="1.65931">
        <ele>287</ele>
        <time>2013-03-02T17:32:23Z</time>
      </trkpt>
      <trkpt lat="44.02825" lon="1.65934">
        <ele>287</ele>
        <time>2013-03-02T17:32:25Z</time>
      </trkpt>
      <trkpt lat="44.02811" lon="1.65926">
        <ele>285</ele>
        <time>2013-03-02T17:32:27Z</time>
      </trkpt>
      <trkpt lat="44.02797" lon="1.65913">
        <ele>284</ele>
        <time>2013-03-02T17:32:29Z</time>
      </trkpt>
      <trkpt lat="44.02776" lon="1.65893">
        <ele>281</ele>
        <time>2013-03-02T17:32:32Z</time>
      </trkpt>
      <trkpt lat="44.0276" lon="1.65882">
        <ele>279</ele>
        <time>2013-03-02T17:32:34Z</time>
      </trkpt>
      <trkpt lat="44.02742" lon="1.65877">
        <ele>278</ele>
        <time>2013-03-02T17:32:36Z</time>
      </trkpt>
      <trkpt lat="44.02722" lon="1.65877">
        <ele>276</ele>
        <time>2013-03-02T17:32:38Z</time>
      </trkpt>
      <trkpt lat="44.02702" lon="1.65877">
        <ele>275</ele>
        <time>2013-03-02T17:32:40Z</time>
      </trkpt>
      <trkpt lat="44.02682" lon="1.6588">
        <ele>273</ele>
        <time>2013-03-02T17:32:42Z</time>
      </trkpt>
      <trkpt lat="44.02662" lon="1.6589">
        <ele>272</ele>
        <time>2013-03-02T17:32:44Z</time>
      </trkpt>
      <trkpt lat="44.02645" lon="1.65905">
        <ele>270</ele>
        <time>2013-03-02T17:32:46Z</time>
      </trkpt>
      <trkpt lat="44.0263" lon="1.65923">
        <ele>269</ele>
        <time>2013-03-02T17:32:48Z</time>
      </trkpt>
      <trkpt lat="44.02616" lon="1.65942">
        <ele>269</ele>
        <time>2013-03-02T17:32:50Z</time>
      </trkpt>
      <trkpt lat="44.02603" lon="1.6596">
        <ele>268</ele>
        <time>2013-03-02T17:32:52Z</time>
      </trkpt>
      <trkpt lat="44.02591" lon="1.65978">
        <ele>268</ele>
        <time>2013-03-02T17:32:54Z</time>
      </trkpt>
      <trkpt lat="44.02578" lon="1.65994">
        <ele>268</ele>
        <time>2013-03-02T17:32:56Z</time>
      </trkpt>
      <trkpt lat="44.02567" lon="1.66011">
        <ele>267</ele>
        <time>2013-03-02T17:32:58Z</time>
      </trkpt>
      <trkpt lat="44.02556" lon="1.66028">
        <ele>267</ele>
        <time>2013-03-02T17:33:00Z</time>
      </trkpt>
      <trkpt lat="44.02545" lon="1.66045">
        <ele>266</ele>
        <time>2013-03-02T17:33:02Z</time>
      </trkpt>
      <trkpt lat="44.02533" lon="1.66063">
        <ele>266</ele>
        <time>2013-03-02T17:33:04Z</time>
      </trkpt>
      <trkpt lat="44.02522" lon="1.66081">
        <ele>265</ele>
        <time>2013-03-02T17:33:06Z</time>
      </trkpt>
      <trkpt lat="44.02512" lon="1.66098">
        <ele>264</ele>
        <time>2013-03-02T17:33:08Z</time>
      </trkpt>
      <trkpt lat="44.02502" lon="1.66116">
        <ele>263</ele>
        <time>2013-03-02T17:33:10Z</time>
      </trkpt>
      <trkpt lat="44.02499" lon="1.66137">
        <ele>262</ele>
        <time>2013-03-02T17:33:12Z</time>
      </trkpt>
      <trkpt lat="44.02501" lon="1.66158">
        <ele>262</ele>
        <time>2013-03-02T17:33:14Z</time>
      </trkpt>
      <trkpt lat="44.02504" lon="1.66178">
        <ele>261</ele>
        <time>2013-03-02T17:33:16Z</time>
      </trkpt>
      <trkpt lat="44.02508" lon="1.66195">
        <ele>260</ele>
        <time>2013-03-02T17:33:18Z</time>
      </trkpt>
      <trkpt lat="44.02507" lon="1.66211">
        <ele>259</ele>
        <time>2013-03-02T17:33:20Z</time>
      </trkpt>
      <trkpt lat="44.02503" lon="1.66225">
        <ele>258</ele>
        <time>2013-03-02T17:33:22Z</time>
      </trkpt>
      <trkpt lat="44.02501" lon="1.6624">
        <ele>257</ele>
        <time>2013-03-02T17:33:24Z</time>
      </trkpt>
      <trkpt lat="44.02501" lon="1.66255">
        <ele>256</ele>
        <time>2013-03-02T17:33:26Z</time>
      </trkpt>
      <trkpt lat="44.02502" lon="1.6627">
        <ele>256</ele>
        <time>2013-03-02T17:33:28Z</time>
      </trkpt>
      <trkpt lat="44.02503" lon="1.66281">
        <ele>256</ele>
        <time>2013-03-02T17:33:30Z</time>
      </trkpt>
      <trkpt lat="44.02501" lon="1.66287">
        <ele>255</ele>
        <time>2013-03-02T17:33:32Z</time>
      </trkpt>
      <trkpt lat="44.02495" lon="1.66285">
        <ele>255</ele>
        <time>2013-03-02T17:33:34Z</time>
      </trkpt>
      <trkpt lat="44.02487" lon="1.6628">
        <ele>254</ele>
        <time>2013-03-02T17:33:36Z</time>
      </trkpt>
      <trkpt lat="44.02477" lon="1.66274">
        <ele>252</ele>
        <time>2013-03-02T17:33:38Z</time>
      </trkpt>
      <trkpt lat="44.02465" lon="1.66267">
        <ele>251</ele>
        <time>2013-03-02T17:33:40Z</time>
      </trkpt>
      <trkpt lat="44.02452" lon="1.66259">
        <ele>249</ele>
        <time>2013-03-02T17:33:42Z</time>
      </trkpt>
      <trkpt lat="44.02438" lon="1.66249">
        <ele>247</ele>
        <time>2013-03-02T17:33:44Z</time>
      </trkpt>
      <trkpt lat="44.02423" lon="1.6624">
        <ele>245</ele>
        <time>2013-03-02T17:33:46Z</time>
      </trkpt>
      <trkpt lat="44.02408" lon="1.66229">
        <ele>243</ele>
        <time>2013-03-02T17:33:48Z</time>
      </trkpt>
      <trkpt lat="44.02395" lon="1.66221">
        <ele>241</ele>
        <time>2013-03-02T17:33:50Z</time>
      </trkpt>
      <trkpt lat="44.02384" lon="1.66219">
        <ele>239</ele>
        <time>2013-03-02T17:33:52Z</time>
      </trkpt>
      <trkpt lat="44.02374" lon="1.66222">
        <ele>237</ele>
        <time>2013-03-02T17:33:54Z</time>
      </trkpt>
      <trkpt lat="44.02362" lon="1.66226">
        <ele>235</ele>
        <time>2013-03-02T17:33:56Z</time>
      </trkpt>
      <trkpt lat="44.02352" lon="1.6623">
        <ele>233</ele>
        <time>2013-03-02T17:33:58Z</time>
      </trkpt>
      <trkpt lat="44.02343" lon="1.66233">
        <ele>231</ele>
        <time>2013-03-02T17:34:00Z</time>
      </trkpt>
      <trkpt lat="44.02333" lon="1.66234">
        <ele>229</ele>
        <time>2013-03-02T17:34:02Z</time>
      </trkpt>
      <trkpt lat="44.02325" lon="1.66235">
        <ele>228</ele>
        <time>2013-03-02T17:34:04Z</time>
      </trkpt>
      <trkpt lat="44.02317" lon="1.66235">
        <ele>228</ele>
        <time>2013-03-02T17:34:06Z</time>
      </trkpt>
      <trkpt lat="44.02307" lon="1.66237">
        <ele>228</ele>
        <time>2013-03-02T17:34:08Z</time>
      </trkpt>
      <trkpt lat="44.02298" lon="1.66239">
        <ele>228</ele>
        <time>2013-03-02T17:34:10Z</time>
      </trkpt>
      <trkpt lat="44.02289" lon="1.66242">
        <ele>228</ele>
        <time>2013-03-02T17:34:12Z</time>
      </trkpt>
      <trkpt lat="44.0228" lon="1.66245">
        <ele>228</ele>
        <time>2013-03-02T17:34:14Z</time>
      </trkpt>
      <trkpt lat="44.02271" lon="1.66247">
        <ele>228</ele>
        <time>2013-03-02T17:34:16Z</time>
      </trkpt>
      <trkpt lat="44.02262" lon="1.6625">
        <ele>228</ele>
        <time>2013-03-02T17:34:18Z</time>
      </trkpt>
      <trkpt lat="44.02253" lon="1.66251">
        <ele>228</ele>
        <time>2013-03-02T17:34:20Z</time>
      </trkpt>
      <trkpt lat="44.02245" lon="1.66252">
        <ele>228</ele>
        <time>2013-03-02T17:34:22Z</time>
      </trkpt>
      <trkpt lat="44.02237" lon="1.66253">
        <ele>228</ele>
        <time>2013-03-02T17:34:24Z</time>
      </trkpt>
      <trkpt lat="44.0223" lon="1.66254">
        <ele>228</ele>
        <time>2013-03-02T17:34:26Z</time>
      </trkpt>
      <trkpt lat="44.02223" lon="1.66254">
        <ele>228</ele>
        <time>2013-03-02T17:34:28Z</time>
      </trkpt>
      <trkpt lat="44.02216" lon="1.66254">
        <ele>228</ele>
        <time>2013-03-02T17:34:30Z</time>
      </trkpt>
      <trkpt lat="44.02209" lon="1.66253">
        <ele>228</ele>
        <time>2013-03-02T17:34:32Z</time>
      </trkpt>
      <trkpt lat="44.02201" lon="1.66251">
        <ele>228</ele>
        <time>2013-03-02T17:34:34Z</time>
      </trkpt>
      <trkpt lat="44.02192" lon="1.66249">
        <ele>228</ele>
        <time>2013-03-02T17:34:36Z</time>
      </trkpt>
      <trkpt lat="44.02181" lon="1.66248">
        <ele>228</ele>
        <time>2013-03-02T17:34:38Z</time>
      </trkpt>
      <trkpt lat="44.02168" lon="1.66249">
        <ele>228</ele>
        <time>2013-03-02T17:34:40Z</time>
      </trkpt>
      <trkpt lat="44.02154" lon="1.66253">
        <ele>228</ele>
        <time>2013-03-02T17:34:42Z</time>
      </trkpt>
      <trkpt lat="44.02141" lon="1.66259">
        <ele>227</ele>
        <time>2013-03-02T17:34:44Z</time>
      </trkpt>
      <trkpt lat="44.02128" lon="1.66267">
        <ele>227</ele>
        <time>2013-03-02T17:34:46Z</time>
      </trkpt>
      <trkpt lat="44.02115" lon="1.66275">
        <ele>226</ele>
        <time>2013-03-02T17:34:48Z</time>
      </trkpt>
      <trkpt lat="44.02103" lon="1.66284">
        <ele>225</ele>
        <time>2013-03-02T17:34:50Z</time>
      </trkpt>
      <trkpt lat="44.02091" lon="1.66292">
        <ele>224</ele>
        <time>2013-03-02T17:34:52Z</time>
      </trkpt>
      <trkpt lat="44.02079" lon="1.663">
        <ele>224</ele>
        <time>2013-03-02T17:34:54Z</time>
      </trkpt>
      <trkpt lat="44.02068" lon="1.66309">
        <ele>223</ele>
        <time>2013-03-02T17:34:56Z</time>
      </trkpt>
      <trkpt lat="44.02057" lon="1.66316">
        <ele>223</ele>
        <time>2013-03-02T17:34:58Z</time>
      </trkpt>
      <trkpt lat="44.02048" lon="1.66322">
        <ele>222</ele>
        <time>2013-03-02T17:35:00Z</time>
      </trkpt>
      <trkpt lat="44.02041" lon="1.66328">
        <ele>221</ele>
        <time>2013-03-02T17:35:02Z</time>
      </trkpt>
      <trkpt lat="44.02034" lon="1.66332">
        <ele>221</ele>
        <time>2013-03-02T17:35:04Z</time>
      </trkpt>
      <trkpt lat="44.02026" lon="1.66336">
        <ele>220</ele>
        <time>2013-03-02T17:35:06Z</time>
      </trkpt>
      <trkpt lat="44.02016" lon="1.66339">
        <ele>220</ele>
        <time>2013-03-02T17:35:08Z</time>
      </trkpt>
      <trkpt lat="44.02007" lon="1.66342">
        <ele>220</ele>
        <time>2013-03-02T17:35:10Z</time>
      </trkpt>
      <trkpt lat="44.01997" lon="1.66346">
        <ele>220</ele>
        <time>2013-03-02T17:35:12Z</time>
      </trkpt>
      <trkpt lat="44.01988" lon="1.66349">
        <ele>219</ele>
        <time>2013-03-02T17:35:14Z</time>
      </trkpt>
      <trkpt lat="44.01978" lon="1.66353">
        <ele>219</ele>
        <time>2013-03-02T17:35:16Z</time>
      </trkpt>
      <trkpt lat="44.01967" lon="1.66357">
        <ele>219</ele>
        <time>2013-03-02T17:35:18Z</time>
      </trkpt>
      <trkpt lat="44.01957" lon="1.66361">
        <ele>219</ele>
        <time>2013-03-02T17:35:20Z</time>
      </trkpt>
      <trkpt lat="44.01946" lon="1.66365">
        <ele>219</ele>
        <time>2013-03-02T17:35:22Z</time>
      </trkpt>
      <trkpt lat="44.01936" lon="1.66368">
        <ele>218</ele>
        <time>2013-03-02T17:35:24Z</time>
      </trkpt>
      <trkpt lat="44.01924" lon="1.66371">
        <ele>218</ele>
        <time>2013-03-02T17:35:26Z</time>
      </trkpt>
      <trkpt lat="44.01912" lon="1.66373">
        <ele>217</ele>
        <time>2013-03-02T17:35:28Z</time>
      </trkpt>
      <trkpt lat="44.019" lon="1.66376">
        <ele>217</ele>
        <time>2013-03-02T17:35:30Z</time>
      </trkpt>
      <trkpt lat="44.01887" lon="1.66378">
        <ele>216</ele>
        <time>2013-03-02T17:35:32Z</time>
      </trkpt>
      <trkpt lat="44.01875" lon="1.66381">
        <ele>215</ele>
        <time>2013-03-02T17:35:34Z</time>
      </trkpt>
      <trkpt lat="44.01862" lon="1.66382">
        <ele>215</ele>
        <time>2013-03-02T17:35:36Z</time>
      </trkpt>
      <trkpt lat="44.01849" lon="1.66384">
        <ele>214</ele>
        <time>2013-03-02T17:35:38Z</time>
      </trkpt>
      <trkpt lat="44.01836" lon="1.66384">
        <ele>214</ele>
        <time>2013-03-02T17:35:40Z</time>
      </trkpt>
      <trkpt lat="44.01823" lon="1.66384">
        <ele>214</ele>
        <time>2013-03-02T17:35:42Z</time>
      </trkpt>
      <trkpt lat="44.01811" lon="1.66385">
        <ele>214</ele>
        <time>2013-03-02T17:35:44Z</time>
      </trkpt>
      <trkpt lat="44.01799" lon="1.66386">
        <ele>214</ele>
        <time>2013-03-02T17:35:46Z</time>
      </trkpt>
      <trkpt lat="44.01788" lon="1.66387">
        <ele>214</ele>
        <time>2013-03-02T17:35:48Z</time>
      </trkpt>
      <trkpt lat="44.01776" lon="1.66388">
        <ele>214</ele>
        <time>2013-03-02T17:35:50Z</time>
      </trkpt>
      <trkpt lat="44.01765" lon="1.66388">
        <ele>214</ele>
        <time>2013-03-02T17:35:52Z</time>
      </trkpt>
      <trkpt lat="44.01754" lon="1.66386">
        <ele>214</ele>
        <time>2013-03-02T17:35:54Z</time>
      </trkpt>
      <trkpt lat="44.01744" lon="1.66385">
        <ele>214</ele>
        <time>2013-03-02T17:35:56Z</time>
      </trkpt>
      <trkpt lat="44.01733" lon="1.66385">
        <ele>214</ele>
        <time>2013-03-02T17:35:58Z</time>
      </trkpt>
      <trkpt lat="44.01723" lon="1.66384">
        <ele>214</ele>
        <time>2013-03-02T17:36:00Z</time>
      </trkpt>
      <trkpt lat="44.01712" lon="1.66385">
        <ele>214</ele>
        <time>2013-03-02T17:36:02Z</time>
      </trkpt>
      <trkpt lat="44.01703" lon="1.66385">
        <ele>214</ele>
        <time>2013-03-02T17:36:04Z</time>
      </trkpt>
      <trkpt lat="44.01693" lon="1.66384">
        <ele>214</ele>
        <time>2013-03-02T17:36:06Z</time>
      </trkpt>
      <trkpt lat="44.01683" lon="1.66383">
        <ele>214</ele>
        <time>2013-03-02T17:36:08Z</time>
      </trkpt>
      <trkpt lat="44.01675" lon="1.66383">
        <ele>214</ele>
        <time>2013-03-02T17:36:10Z</time>
      </trkpt>
      <trkpt lat="44.01666" lon="1.66383">
        <ele>214</ele>
        <time>2013-03-02T17:36:12Z</time>
      </trkpt>
      <trkpt lat="44.01657" lon="1.66382">
        <ele>214</ele>
        <time>2013-03-02T17:36:14Z</time>
      </trkpt>
      <trkpt lat="44.01649" lon="1.66382">
        <ele>214</ele>
        <time>2013-03-02T17:36:16Z</time>
      </trkpt>
      <trkpt lat="44.01642" lon="1.66383">
        <ele>214</ele>
        <time>2013-03-02T17:36:18Z</time>
      </trkpt>
      <trkpt lat="44.01635" lon="1.66389">
        <ele>214</ele>
        <time>2013-03-02T17:36:20Z</time>
      </trkpt>
      <trkpt lat="44.01628" lon="1.66396">
        <ele>214</ele>
        <time>2013-03-02T17:36:22Z</time>
      </trkpt>
      <trkpt lat="44.01621" lon="1.66404">
        <ele>214</ele>
        <time>2013-03-02T17:36:24Z</time>
      </trkpt>
      <trkpt lat="44.01613" lon="1.66411">
        <ele>214</ele>
        <time>2013-03-02T17:36:26Z</time>
      </trkpt>
      <trkpt lat="44.01605" lon="1.66419">
        <ele>214</ele>
        <time>2013-03-02T17:36:28Z</time>
      </trkpt>
      <trkpt lat="44.01596" lon="1.66425">
        <ele>214</ele>
        <time>2013-03-02T17:36:30Z</time>
      </trkpt>
      <trkpt lat="44.01588" lon="1.66431">
        <ele>214</ele>
        <time>2013-03-02T17:36:32Z</time>
      </trkpt>
      <trkpt lat="44.01579" lon="1.66436">
        <ele>214</ele>
        <time>2013-03-02T17:36:34Z</time>
      </trkpt>
      <trkpt lat="44.01569" lon="1.66439">
        <ele>214</ele>
        <time>2013-03-02T17:36:36Z</time>
      </trkpt>
      <trkpt lat="44.01561" lon="1.66443">
        <ele>214</ele>
        <time>2013-03-02T17:36:38Z</time>
      </trkpt>
      <trkpt lat="44.01552" lon="1.66446">
        <ele>214</ele>
        <time>2013-03-02T17:36:40Z</time>
      </trkpt>
      <trkpt lat="44.01543" lon="1.66448">
        <ele>214</ele>
        <time>2013-03-02T17:36:42Z</time>
      </trkpt>
      <trkpt lat="44.01534" lon="1.6645">
        <ele>215</ele>
        <time>2013-03-02T17:36:44Z</time>
      </trkpt>
      <trkpt lat="44.01526" lon="1.66452">
        <ele>215</ele>
        <time>2013-03-02T17:36:46Z</time>
      </trkpt>
      <trkpt lat="44.01517" lon="1.66454">
        <ele>216</ele>
        <time>2013-03-02T17:36:48Z</time>
      </trkpt>
      <trkpt lat="44.01508" lon="1.66456">
        <ele>216</ele>
        <time>2013-03-02T17:36:50Z</time>
      </trkpt>
      <trkpt lat="44.015" lon="1.66458">
        <ele>217</ele>
        <time>2013-03-02T17:36:52Z</time>
      </trkpt>
      <trkpt lat="44.0149" lon="1.66461">
        <ele>217</ele>
        <time>2013-03-02T17:36:54Z</time>
      </trkpt>
      <trkpt lat="44.0148" lon="1.66463">
        <ele>218</ele>
        <time>2013-03-02T17:36:56Z</time>
      </trkpt>
      <trkpt lat="44.01469" lon="1.66465">
        <ele>218</ele>
        <time>2013-03-02T17:36:58Z</time>
      </trkpt>
      <trkpt lat="44.01458" lon="1.66467">
        <ele>218</ele>
        <time>2013-03-02T17:37:00Z</time>
      </trkpt>
      <trkpt lat="44.01446" lon="1.66469">
        <ele>218</ele>
        <time>2013-03-02T17:37:02Z</time>
      </trkpt>
      <trkpt lat="44.01432" lon="1.66473">
        <ele>218</ele>
        <time>2013-03-02T17:37:04Z</time>
      </trkpt>
      <trkpt lat="44.01418" lon="1.66475">
        <ele>218</ele>
        <time>2013-03-02T17:37:06Z</time>
      </trkpt>
      <trkpt lat="44.01403" lon="1.66478">
        <ele>218</ele>
        <time>2013-03-02T17:37:08Z</time>
      </trkpt>
      <trkpt lat="44.01389" lon="1.6648">
        <ele>218</ele>
        <time>2013-03-02T17:37:10Z</time>
      </trkpt>
      <trkpt lat="44.01377" lon="1.66483">
        <ele>218</ele>
        <time>2013-03-02T17:37:12Z</time>
      </trkpt>
      <trkpt lat="44.01368" lon="1.66492">
        <ele>218</ele>
        <time>2013-03-02T17:37:14Z</time>
      </trkpt>
      <trkpt lat="44.0136" lon="1.66505">
        <ele>218</ele>
        <time>2013-03-02T17:37:16Z</time>
      </trkpt>
      <trkpt lat="44.01352" lon="1.66519">
        <ele>218</ele>
        <time>2013-03-02T17:37:18Z</time>
      </trkpt>
      <trkpt lat="44.01345" lon="1.66533">
        <ele>218</ele>
        <time>2013-03-02T17:37:20Z</time>
      </trkpt>
      <trkpt lat="44.01336" lon="1.66548">
        <ele>218</ele>
        <time>2013-03-02T17:37:22Z</time>
      </trkpt>
      <trkpt lat="44.01326" lon="1.66562">
        <ele>217</ele>
        <time>2013-03-02T17:37:24Z</time>
      </trkpt>
      <trkpt lat="44.01316" lon="1.66577">
        <ele>216</ele>
        <time>2013-03-02T17:37:26Z</time>
      </trkpt>
      <trkpt lat="44.01306" lon="1.66592">
        <ele>215</ele>
        <time>2013-03-02T17:37:28Z</time>
      </trkpt>
      <trkpt lat="44.01296" lon="1.66605">
        <ele>214</ele>
        <time>2013-03-02T17:37:30Z</time>
      </trkpt>
      <trkpt lat="44.01287" lon="1.66621">
        <ele>212</ele>
        <time>2013-03-02T17:37:32Z</time>
      </trkpt>
      <trkpt lat="44.0128" lon="1.66638">
        <ele>211</ele>
        <time>2013-03-02T17:37:34Z</time>
      </trkpt>
      <trkpt lat="44.01273" lon="1.66658">
        <ele>209</ele>
        <time>2013-03-02T17:37:36Z</time>
      </trkpt>
      <trkpt lat="44.0127" lon="1.6668">
        <ele>207</ele>
        <time>2013-03-02T17:37:38Z</time>
      </trkpt>
      <trkpt lat="44.01264" lon="1.66702">
        <ele>205</ele>
        <time>2013-03-02T17:37:40Z</time>
      </trkpt>
      <trkpt lat="44.01258" lon="1.66724">
        <ele>203</ele>
        <time>2013-03-02T17:37:42Z</time>
      </trkpt>
      <trkpt lat="44.0125" lon="1.66745">
        <ele>201</ele>
        <time>2013-03-02T17:37:44Z</time>
      </trkpt>
      <trkpt lat="44.01242" lon="1.66765">
        <ele>199</ele>
        <time>2013-03-02T17:37:46Z</time>
      </trkpt>
      <trkpt lat="44.01234" lon="1.66784">
        <ele>197</ele>
        <time>2013-03-02T17:37:48Z</time>
      </trkpt>
      <trkpt lat="44.01231" lon="1.66803">
        <ele>196</ele>
        <time>2013-03-02T17:37:50Z</time>
      </trkpt>
      <trkpt lat="44.01235" lon="1.66821">
        <ele>194</ele>
        <time>2013-03-02T17:37:52Z</time>
      </trkpt>
      <trkpt lat="44.01243" lon="1.66833">
        <ele>193</ele>
        <time>2013-03-02T17:37:54Z</time>
      </trkpt>
      <trkpt lat="44.01255" lon="1.66838">
        <ele>191</ele>
        <time>2013-03-02T17:37:56Z</time>
      </trkpt>
      <trkpt lat="44.01267" lon="1.66839">
        <ele>189</ele>
        <time>2013-03-02T17:37:58Z</time>
      </trkpt>
      <trkpt lat="44.01277" lon="1.66846">
        <ele>188</ele>
        <time>2013-03-02T17:38:00Z</time>
      </trkpt>
      <trkpt lat="44.01284" lon="1.6686">
        <ele>188</ele>
        <time>2013-03-02T17:38:02Z</time>
      </trkpt>
      <trkpt lat="44.01286" lon="1.66876">
        <ele>187</ele>
        <time>2013-03-02T17:38:04Z</time>
      </trkpt>
      <trkpt lat="44.01287" lon="1.66891">
        <ele>186</ele>
        <time>2013-03-02T17:38:06Z</time>
      </trkpt>
      <trkpt lat="44.01286" lon="1.66907">
        <ele>185</ele>
        <time>2013-03-02T17:38:08Z</time>
      </trkpt>
      <trkpt lat="44.01284" lon="1.66923">
        <ele>183</ele>
        <time>2013-03-02T17:38:10Z</time>
      </trkpt>
      <trkpt lat="44.01279" lon="1.66941">
        <ele>182</ele>
        <time>2013-03-02T17:38:12Z</time>
      </trkpt>
      <trkpt lat="44.01272" lon="1.6696">
        <ele>180</ele>
        <time>2013-03-02T17:38:14Z</time>
      </trkpt>
      <trkpt lat="44.01266" lon="1.66978">
        <ele>178</ele>
        <time>2013-03-02T17:38:16Z</time>
      </trkpt>
      <trkpt lat="44.0126" lon="1.66995">
        <ele>176</ele>
        <time>2013-03-02T17:38:18Z</time>
      </trkpt>
      <trkpt lat="44.01256" lon="1.67015">
        <ele>174</ele>
        <time>2013-03-02T17:38:20Z</time>
      </trkpt>
      <trkpt lat="44.01252" lon="1.67035">
        <ele>172</ele>
        <time>2013-03-02T17:38:22Z</time>
      </trkpt>
      <trkpt lat="44.01247" lon="1.67054">
        <ele>170</ele>
        <time>2013-03-02T17:38:24Z</time>
      </trkpt>
      <trkpt lat="44.01243" lon="1.67072">
        <ele>168</ele>
        <time>2013-03-02T17:38:26Z</time>
      </trkpt>
      <trkpt lat="44.01242" lon="1.6709">
        <ele>166</ele>
        <time>2013-03-02T17:38:28Z</time>
      </trkpt>
      <trkpt lat="44.01243" lon="1.67111">
        <ele>164</ele>
        <time>2013-03-02T17:38:30Z</time>
      </trkpt>
      <trkpt lat="44.01242" lon="1.67136">
        <ele>162</ele>
        <time>2013-03-02T17:38:32Z</time>
      </trkpt>
      <trkpt lat="44.01241" lon="1.67163">
        <ele>160</ele>
        <time>2013-03-02T17:38:34Z</time>
      </trkpt>
      <trkpt lat="44.01244" lon="1.67188">
        <ele>158</ele>
        <time>2013-03-02T17:38:36Z</time>
      </trkpt>
      <trkpt lat="44.01247" lon="1.6721">
        <ele>156</ele>
        <time>2013-03-02T17:38:38Z</time>
      </trkpt>
      <trkpt lat="44.01249" lon="1.67229">
        <ele>154</ele>
        <time>2013-03-02T17:38:40Z</time>
      </trkpt>
      <trkpt lat="44.01251" lon="1.67246">
        <ele>153</ele>
        <time>2013-03-02T17:38:42Z</time>
      </trkpt>
      <trkpt lat="44.01253" lon="1.67261">
        <ele>152</ele>
        <time>2013-03-02T17:38:44Z</time>
      </trkpt>
      <trkpt lat="44.01254" lon="1.67272">
        <ele>152</ele>
        <time>2013-03-02T17:38:46Z</time>
      </trkpt>
      <trkpt lat="44.01253" lon="1.67284">
        <ele>151</ele>
        <time>2013-03-02T17:38:48Z</time>
      </trkpt>
      <trkpt lat="44.01253" lon="1.67295">
        <ele>150</ele>
        <time>2013-03-02T17:38:50Z</time>
      </trkpt>
      <trkpt lat="44.01253" lon="1.67306">
        <ele>149</ele>
        <time>2013-03-02T17:38:52Z</time>
      </trkpt>
      <trkpt lat="44.01253" lon="1.67318">
        <ele>149</ele>
        <time>2013-03-02T17:38:54Z</time>
      </trkpt>
      <trkpt lat="44.01252" lon="1.67331">
        <ele>148</ele>
        <time>2013-03-02T17:38:56Z</time>
      </trkpt>
      <trkpt lat="44.01251" lon="1.67344">
        <ele>148</ele>
        <time>2013-03-02T17:38:58Z</time>
      </trkpt>
      <trkpt lat="44.0125" lon="1.67358">
        <ele>147</ele>
        <time>2013-03-02T17:39:00Z</time>
      </trkpt>
      <trkpt lat="44.01248" lon="1.67372">
        <ele>146</ele>
        <time>2013-03-02T17:39:02Z</time>
      </trkpt>
      <trkpt lat="44.01246" lon="1.67386">
        <ele>145</ele>
        <time>2013-03-02T17:39:04Z</time>
      </trkpt>
      <trkpt lat="44.01244" lon="1.674">
        <ele>145</ele>
        <time>2013-03-02T17:39:06Z</time>
      </trkpt>
      <trkpt lat="44.01243" lon="1.67413">
        <ele>144</ele>
        <time>2013-03-02T17:39:08Z</time>
      </trkpt>
      <trkpt lat="44.01243" lon="1.67427">
        <ele>144</ele>
        <time>2013-03-02T17:39:10Z</time>
      </trkpt>
      <trkpt lat="44.01244" lon="1.67438">
        <ele>144</ele>
        <time>2013-03-02T17:39:12Z</time>
      </trkpt>
      <trkpt lat="44.01245" lon="1.6745">
        <ele>144</ele>
        <time>2013-03-02T17:39:14Z</time>
      </trkpt>
      <trkpt lat="44.01245" lon="1.67462">
        <ele>144</ele>
        <time>2013-03-02T17:39:16Z</time>
      </trkpt>
      <trkpt lat="44.01244" lon="1.67475">
        <ele>143</ele>
        <time>2013-03-02T17:39:18Z</time>
      </trkpt>
      <trkpt lat="44.01243" lon="1.67489">
        <ele>143</ele>
        <time>2013-03-02T17:39:20Z</time>
      </trkpt>
      <trkpt lat="44.0124" lon="1.67503">
        <ele>142</ele>
        <time>2013-03-02T17:39:22Z</time>
      </trkpt>
      <trkpt lat="44.01237" lon="1.67517">
        <ele>142</ele>
        <time>2013-03-02T17:39:24Z</time>
      </trkpt>
      <trkpt lat="44.01234" lon="1.6753">
        <ele>141</ele>
        <time>2013-03-02T17:39:26Z</time>
      </trkpt>
      <trkpt lat="44.01231" lon="1.67543">
        <ele>140</ele>
        <time>2013-03-02T17:39:28Z</time>
      </trkpt>
      <trkpt lat="44.01227" lon="1.67556">
        <ele>139</ele>
        <time>2013-03-02T17:39:30Z</time>
      </trkpt>
      <trkpt lat="44.01222" lon="1.67571">
        <ele>138</ele>
        <time>2013-03-02T17:39:32Z</time>
      </trkpt>
      <trkpt lat="44.01218" lon="1.67585">
        <ele>136</ele>
        <time>2013-03-02T17:39:34Z</time>
      </trkpt>
      <trkpt lat="44.01214" lon="1.67598">
        <ele>135</ele>
        <time>2013-03-02T17:39:36Z</time>
      </trkpt>
      <trkpt lat="44.01209" lon="1.6761">
        <ele>134</ele>
        <time>2013-03-02T17:39:38Z</time>
      </trkpt>
      <trkpt lat="44.01202" lon="1.67621">
        <ele>133</ele>
        <time>2013-03-02T17:39:40Z</time>
      </trkpt>
      <trkpt lat="44.01193" lon="1.67629">
        <ele>132</ele>
        <time>2013-03-02T17:39:42Z</time>
      </trkpt>
      <trkpt lat="44.01183" lon="1.67636">
        <ele>132</ele>
        <time>2013-03-02T17:39:44Z</time>
      </trkpt>
      <trkpt lat="44.01173" lon="1.67642">
        <ele>131</ele>
        <time>2013-03-02T17:39:46Z</time>
      </trkpt>
      <trkpt lat="44.01164" lon="1.67648">
        <ele>131</ele>
        <time>2013-03-02T17:39:48Z</time>
      </trkpt>
      <trkpt lat="44.01154" lon="1.67654">
        <ele>130</ele>
        <time>2013-03-02T17:39:50Z</time>
      </trkpt>
      <trkpt lat="44.01146" lon="1.67659">
        <ele>130</ele>
        <time>2013-03-02T17:39:52Z</time>
      </trkpt>
      <trkpt lat="44.01138" lon="1.67664">
        <ele>129</ele>
        <time>2013-03-02T17:39:54Z</time>
      </trkpt>
      <trkpt lat="44.01129" lon="1.67669">
        <ele>128</ele>
        <time>2013-03-02T17:39:56Z</time>
      </trkpt>
      <trkpt lat="44.0112" lon="1.67674">
        <ele>128</ele>
        <time>2013-03-02T17:39:58Z</time>
      </trkpt>
      <trkpt lat="44.01111" lon="1.6768">
        <ele>128</ele>
        <time>2013-03-02T17:40:00Z</time>
      </trkpt>
      <trkpt lat="44.01102" lon="1.67685">
        <ele>127</ele>
        <time>2013-03-02T17:40:02Z</time>
      </trkpt>
      <trkpt lat="44.01093" lon="1.67691">
        <ele>127</ele>
        <time>2013-03-02T17:40:04Z</time>
      </trkpt>
      <trkpt lat="44.01084" lon="1.67696">
        <ele>126</ele>
        <time>2013-03-02T17:40:06Z</time>
      </trkpt>
      <trkpt lat="44.01075" lon="1.67701">
        <ele>126</ele>
        <time>2013-03-02T17:40:08Z</time>
      </trkpt>
      <trkpt lat="44.01067" lon="1.67706">
        <ele>126</ele>
        <time>2013-03-02T17:40:10Z</time>
      </trkpt>
      <trkpt lat="44.01059" lon="1.67711">
        <ele>126</ele>
        <time>2013-03-02T17:40:12Z</time>
      </trkpt>
      <trkpt lat="44.01052" lon="1.67717">
        <ele>126</ele>
        <time>2013-03-02T17:40:14Z</time>
      </trkpt>
      <trkpt lat="44.01044" lon="1.67722">
        <ele>125</ele>
        <time>2013-03-02T17:40:16Z</time>
      </trkpt>
      <trkpt lat="44.01036" lon="1.67728">
        <ele>125</ele>
        <time>2013-03-02T17:40:18Z</time>
      </trkpt>
      <trkpt lat="44.01027" lon="1.67733">
        <ele>125</ele>
        <time>2013-03-02T17:40:20Z</time>
      </trkpt>
      <trkpt lat="44.01018" lon="1.67738">
        <ele>125</ele>
        <time>2013-03-02T17:40:22Z</time>
      </trkpt>
      <trkpt lat="44.0101" lon="1.67742">
        <ele>125</ele>
        <time>2013-03-02T17:40:24Z</time>
      </trkpt>
      <trkpt lat="44.01001" lon="1.67745">
        <ele>125</ele>
        <time>2013-03-02T17:40:26Z</time>
      </trkpt>
      <trkpt lat="44.00993" lon="1.67747">
        <ele>125</ele>
        <time>2013-03-02T17:40:28Z</time>
      </trkpt>
      <trkpt lat="44.00986" lon="1.6775">
        <ele>125</ele>
        <time>2013-03-02T17:40:30Z</time>
      </trkpt>
      <trkpt lat="44.0098" lon="1.67752">
        <ele>125</ele>
        <time>2013-03-02T17:40:32Z</time>
      </trkpt>
      <trkpt lat="44.00973" lon="1.67754">
        <ele>125</ele>
        <time>2013-03-02T17:40:34Z</time>
      </trkpt>
      <trkpt lat="44.00967" lon="1.67756">
        <ele>125</ele>
        <time>2013-03-02T17:40:36Z</time>
      </trkpt>
      <trkpt lat="44.00961" lon="1.67758">
        <ele>125</ele>
        <time>2013-03-02T17:40:38Z</time>
      </trkpt>
      <trkpt lat="44.00956" lon="1.6776">
        <ele>125</ele>
        <time>2013-03-02T17:40:40Z</time>
      </trkpt>
      <trkpt lat="44.0095" lon="1.67762">
        <ele>125</ele>
        <time>2013-03-02T17:40:42Z</time>
      </trkpt>
      <trkpt lat="44.00943" lon="1.67764">
        <ele>125</ele>
        <time>2013-03-02T17:40:44Z</time>
      </trkpt>
      <trkpt lat="44.00937" lon="1.67765">
        <ele>125</ele>
        <time>2013-03-02T17:40:46Z</time>
      </trkpt>
      <trkpt lat="44.0093" lon="1.67767">
        <ele>125</ele>
        <time>2013-03-02T17:40:48Z</time>
      </trkpt>
      <trkpt lat="44.00924" lon="1.6777">
        <ele>125</ele>
        <time>2013-03-02T17:40:50Z</time>
      </trkpt>
      <trkpt lat="44.00917" lon="1.67772">
        <ele>125</ele>
        <time>2013-03-02T17:40:52Z</time>
      </trkpt>
      <trkpt lat="44.00911" lon="1.67775">
        <ele>125</ele>
        <time>2013-03-02T17:40:54Z</time>
      </trkpt>
      <trkpt lat="44.00904" lon="1.67778">
        <ele>125</ele>
        <time>2013-03-02T17:40:56Z</time>
      </trkpt>
      <trkpt lat="44.00898" lon="1.6778">
        <ele>125</ele>
        <time>2013-03-02T17:40:58Z</time>
      </trkpt>
      <trkpt lat="44.00892" lon="1.67784">
        <ele>125</ele>
        <time>2013-03-02T17:41:00Z</time>
      </trkpt>
      <trkpt lat="44.00884" lon="1.67785">
        <ele>125</ele>
        <time>2013-03-02T17:41:02Z</time>
      </trkpt>
      <trkpt lat="44.00874" lon="1.67784">
        <ele>124</ele>
        <time>2013-03-02T17:41:04Z</time>
      </trkpt>
      <trkpt lat="44.00863" lon="1.67782">
        <ele>123</ele>
        <time>2013-03-02T17:41:06Z</time>
      </trkpt>
      <trkpt lat="44.00849" lon="1.67781">
        <ele>122</ele>
        <time>2013-03-02T17:41:08Z</time>
      </trkpt>
      <trkpt lat="44.00835" lon="1.67779">
        <ele>121</ele>
        <time>2013-03-02T17:41:10Z</time>
      </trkpt>
      <trkpt lat="44.00819" lon="1.67779">
        <ele>119</ele>
        <time>2013-03-02T17:41:12Z</time>
      </trkpt>
      <trkpt lat="44.00804" lon="1.67776">
        <ele>119</ele>
        <time>2013-03-02T17:41:14Z</time>
      </trkpt>
      <trkpt lat="44.00791" lon="1.67771">
        <ele>118</ele>
        <time>2013-03-02T17:41:16Z</time>
      </trkpt>
      <trkpt lat="44.0078" lon="1.67763">
        <ele>118</ele>
        <time>2013-03-02T17:41:18Z</time>
      </trkpt>
      <trkpt lat="44.00771" lon="1.67755">
        <ele>118</ele>
        <time>2013-03-02T17:41:20Z</time>
      </trkpt>
      <trkpt lat="44.00763" lon="1.67746">
        <ele>118</ele>
        <time>2013-03-02T17:41:22Z</time>
      </trkpt>
      <trkpt lat="44.00755" lon="1.67737">
        <ele>118</ele>
        <time>2013-03-02T17:41:24Z</time>
      </trkpt>
      <trkpt lat="44.00747" lon="1.67729">
        <ele>118</ele>
        <time>2013-03-02T17:41:26Z</time>
      </trkpt>
      <trkpt lat="44.00738" lon="1.6772">
        <ele>118</ele>
        <time>2013-03-02T17:41:28Z</time>
      </trkpt>
      <trkpt lat="44.00729" lon="1.67712">
        <ele>118</ele>
        <time>2013-03-02T17:41:30Z</time>
      </trkpt>
      <trkpt lat="44.00721" lon="1.67704">
        <ele>118</ele>
        <time>2013-03-02T17:41:32Z</time>
      </trkpt>
      <trkpt lat="44.00712" lon="1.67698">
        <ele>118</ele>
        <time>2013-03-02T17:41:34Z</time>
      </trkpt>
      <trkpt lat="44.00703" lon="1.67694">
        <ele>118</ele>
        <time>2013-03-02T17:41:36Z</time>
      </trkpt>
      <trkpt lat="44.00692" lon="1.67691">
        <ele>118</ele>
        <time>2013-03-02T17:41:38Z</time>
      </trkpt>
      <trkpt lat="44.00681" lon="1.67689">
        <ele>118</ele>
        <time>2013-03-02T17:41:40Z</time>
      </trkpt>
      <trkpt lat="44.00669" lon="1.67686">
        <ele>118</ele>
        <time>2013-03-02T17:41:42Z</time>
      </trkpt>
      <trkpt lat="44.0066" lon="1.67683">
        <ele>119</ele>
        <time>2013-03-02T17:41:44Z</time>
      </trkpt>
      <trkpt lat="44.00651" lon="1.6768">
        <ele>119</ele>
        <time>2013-03-02T17:41:46Z</time>
      </trkpt>
      <trkpt lat="44.00643" lon="1.67677">
        <ele>119</ele>
        <time>2013-03-02T17:41:48Z</time>
      </trkpt>
      <trkpt lat="44.00635" lon="1.67673">
        <ele>120</ele>
        <time>2013-03-02T17:41:50Z</time>
      </trkpt>
      <trkpt lat="44.00627" lon="1.67669">
        <ele>121</ele>
        <time>2013-03-02T17:41:52Z</time>
      </trkpt>
      <trkpt lat="44.0062" lon="1.67663">
        <ele>122</ele>
        <time>2013-03-02T17:41:54Z</time>
      </trkpt>
      <trkpt lat="44.00612" lon="1.67657">
        <ele>123</ele>
        <time>2013-03-02T17:41:56Z</time>
      </trkpt>
      <trkpt lat="44.00605" lon="1.67652">
        <ele>124</ele>
        <time>2013-03-02T17:41:58Z</time>
      </trkpt>
      <trkpt lat="44.00597" lon="1.67648">
        <ele>125</ele>
        <time>2013-03-02T17:42:00Z</time>
      </trkpt>
      <trkpt lat="44.00589" lon="1.67643">
        <ele>125</ele>
        <time>2013-03-02T17:42:02Z</time>
      </trkpt>
      <trkpt lat="44.00581" lon="1.67636">
        <ele>125</ele>
        <time>2013-03-02T17:42:04Z</time>
      </trkpt>
      <trkpt lat="44.00574" lon="1.67629">
        <ele>125</ele>
        <time>2013-03-02T17:42:06Z</time>
      </trkpt>
      <trkpt lat="44.00567" lon="1.67622">
        <ele>126</ele>
        <time>2013-03-02T17:42:08Z</time>
      </trkpt>
      <trkpt lat="44.0056" lon="1.67615">
        <ele>126</ele>
        <time>2013-03-02T17:42:10Z</time>
      </trkpt>
      <trkpt lat="44.00552" lon="1.67609">
        <ele>126</ele>
        <time>2013-03-02T17:42:12Z</time>
      </trkpt>
      <trkpt lat="44.00545" lon="1.67602">
        <ele>127</ele>
        <time>2013-03-02T17:42:14Z</time>
      </trkpt>
      <trkpt lat="44.00538" lon="1.67596">
        <ele>127</ele>
        <time>2013-03-02T17:42:16Z</time>
      </trkpt>
      <trkpt lat="44.00531" lon="1.67589">
        <ele>128</ele>
        <time>2013-03-02T17:42:18Z</time>
      </trkpt>
      <trkpt lat="44.00524" lon="1.67583">
        <ele>128</ele>
        <time>2013-03-02T17:42:20Z</time>
      </trkpt>
      <trkpt lat="44.00517" lon="1.67576">
        <ele>129</ele>
        <time>2013-03-02T17:42:22Z</time>
      </trkpt>
      <trkpt lat="44.00511" lon="1.6757">
        <ele>129</ele>
        <time>2013-03-02T17:42:24Z</time>
      </trkpt>
      <trkpt lat="44.00504" lon="1.67564">
        <ele>130</ele>
        <time>2013-03-02T17:42:26Z</time>
      </trkpt>
      <trkpt lat="44.00498" lon="1.67558">
        <ele>130</ele>
        <time>2013-03-02T17:42:28Z</time>
      </trkpt>
      <trkpt lat="44.00492" lon="1.67553">
        <ele>130</ele>
        <time>2013-03-02T17:42:30Z</time>
      </trkpt>
      <trkpt lat="44.00486" lon="1.67549">
        <ele>130</ele>
        <time>2013-03-02T17:42:32Z</time>
      </trkpt>
      <trkpt lat="44.0048" lon="1.67546">
        <ele>131</ele>
        <time>2013-03-02T17:42:34Z</time>
      </trkpt>
      <trkpt lat="44.00474" lon="1.67544">
        <ele>131</ele>
        <time>2013-03-02T17:42:36Z</time>
      </trkpt>
      <trkpt lat="44.0047" lon="1.67548">
        <ele>131</ele>
        <time>2013-03-02T17:42:38Z</time>
      </trkpt>
      <trkpt lat="44.00468" lon="1.67555">
        <ele>131</ele>
        <time>2013-03-02T17:42:40Z</time>
      </trkpt>
      <trkpt lat="44.00467" lon="1.67564">
        <ele>131</ele>
        <time>2013-03-02T17:42:42Z</time>
      </trkpt>
      <trkpt lat="44.00467" lon="1.67575">
        <ele>131</ele>
        <time>2013-03-02T17:42:44Z</time>
      </trkpt>
      <trkpt lat="44.00466" lon="1.67587">
        <ele>131</ele>
        <time>2013-03-02T17:42:46Z</time>
      </trkpt>
      <trkpt lat="44.00466" lon="1.676">
        <ele>131</ele>
        <time>2013-03-02T17:42:48Z</time>
      </trkpt>
      <trkpt lat="44.00465" lon="1.67619">
        <ele>131</ele>
        <time>2013-03-02T17:42:51Z</time>
      </trkpt>
      <trkpt lat="44.00463" lon="1.67632">
        <ele>131</ele>
        <time>2013-03-02T17:42:53Z</time>
      </trkpt>
      <trkpt lat="44.00463" lon="1.67648">
        <ele>131</ele>
        <time>2013-03-02T17:42:55Z</time>
      </trkpt>
      <trkpt lat="44.00462" lon="1.67664">
        <ele>131</ele>
        <time>2013-03-02T17:42:57Z</time>
      </trkpt>
      <trkpt lat="44.0046" lon="1.6768">
        <ele>131</ele>
        <time>2013-03-02T17:42:59Z</time>
      </trkpt>
      <trkpt lat="44.00459" lon="1.67696">
        <ele>131</ele>
        <time>2013-03-02T17:43:01Z</time>
      </trkpt>
      <trkpt lat="44.00457" lon="1.67712">
        <ele>131</ele>
        <time>2013-03-02T17:43:03Z</time>
      </trkpt>
      <trkpt lat="44.00456" lon="1.67729">
        <ele>131</ele>
        <time>2013-03-02T17:43:05Z</time>
      </trkpt>
      <trkpt lat="44.00456" lon="1.67747">
        <ele>131</ele>
        <time>2013-03-02T17:43:07Z</time>
      </trkpt>
      <trkpt lat="44.00457" lon="1.67765">
        <ele>131</ele>
        <time>2013-03-02T17:43:09Z</time>
      </trkpt>
      <trkpt lat="44.0046" lon="1.67784">
        <ele>131</ele>
        <time>2013-03-02T17:43:11Z</time>
      </trkpt>
      <trkpt lat="44.00461" lon="1.67803">
        <ele>131</ele>
        <time>2013-03-02T17:43:13Z</time>
      </trkpt>
      <trkpt lat="44.00462" lon="1.67822">
        <ele>131</ele>
        <time>2013-03-02T17:43:15Z</time>
      </trkpt>
      <trkpt lat="44.00462" lon="1.6784">
        <ele>131</ele>
        <time>2013-03-02T17:43:17Z</time>
      </trkpt>
      <trkpt lat="44.00461" lon="1.67859">
        <ele>131</ele>
        <time>2013-03-02T17:43:19Z</time>
      </trkpt>
      <trkpt lat="44.0046" lon="1.67877">
        <ele>131</ele>
        <time>2013-03-02T17:43:21Z</time>
      </trkpt>
      <trkpt lat="44.0046" lon="1.67895">
        <ele>131</ele>
        <time>2013-03-02T17:43:23Z</time>
      </trkpt>
      <trkpt lat="44.00461" lon="1.67914">
        <ele>131</ele>
        <time>2013-03-02T17:43:25Z</time>
      </trkpt>
      <trkpt lat="44.00463" lon="1.67932">
        <ele>131</ele>
        <time>2013-03-02T17:43:27Z</time>
      </trkpt>
      <trkpt lat="44.00465" lon="1.6795">
        <ele>131</ele>
        <time>2013-03-02T17:43:29Z</time>
      </trkpt>
      <trkpt lat="44.00467" lon="1.67967">
        <ele>131</ele>
        <time>2013-03-02T17:43:31Z</time>
      </trkpt>
      <trkpt lat="44.00469" lon="1.67984">
        <ele>131</ele>
        <time>2013-03-02T17:43:33Z</time>
      </trkpt>
      <trkpt lat="44.00471" lon="1.68">
        <ele>131</ele>
        <time>2013-03-02T17:43:35Z</time>
      </trkpt>
      <trkpt lat="44.00475" lon="1.68019">
        <ele>131</ele>
        <time>2013-03-02T17:43:37Z</time>
      </trkpt>
      <trkpt lat="44.00478" lon="1.68038">
        <ele>130</ele>
        <time>2013-03-02T17:43:39Z</time>
      </trkpt>
      <trkpt lat="44.00482" lon="1.68056">
        <ele>130</ele>
        <time>2013-03-02T17:43:41Z</time>
      </trkpt>
      <trkpt lat="44.00486" lon="1.68075">
        <ele>129</ele>
        <time>2013-03-02T17:43:43Z</time>
      </trkpt>
      <trkpt lat="44.0049" lon="1.68092">
        <ele>129</ele>
        <time>2013-03-02T17:43:45Z</time>
      </trkpt>
      <trkpt lat="44.00494" lon="1.68109">
        <ele>129</ele>
        <time>2013-03-02T17:43:47Z</time>
      </trkpt>
      <trkpt lat="44.00497" lon="1.68126">
        <ele>129</ele>
        <time>2013-03-02T17:43:49Z</time>
      </trkpt>
      <trkpt lat="44.005" lon="1.68142">
        <ele>129</ele>
        <time>2013-03-02T17:43:51Z</time>
      </trkpt>
      <trkpt lat="44.00504" lon="1.68158">
        <ele>129</ele>
        <time>2013-03-02T17:43:53Z</time>
      </trkpt>
      <trkpt lat="44.00506" lon="1.68172">
        <ele>129</ele>
        <time>2013-03-02T17:43:55Z</time>
      </trkpt>
      <trkpt lat="44.00509" lon="1.68183">
        <ele>129</ele>
        <time>2013-03-02T17:43:57Z</time>
      </trkpt>
      <trkpt lat="44.00509" lon="1.68191">
        <ele>129</ele>
        <time>2013-03-02T17:43:59Z</time>
      </trkpt>
      <trkpt lat="44.00509" lon="1.68195">
        <ele>129</ele>
        <time>2013-03-02T17:44:01Z</time>
      </trkpt>
      <trkpt lat="44.0051" lon="1.682">
        <ele>129</ele>
        <time>2013-03-02T17:44:03Z</time>
      </trkpt>
      <trkpt lat="44.00514" lon="1.68206">
        <ele>129</ele>
        <time>2013-03-02T17:44:05Z</time>
      </trkpt>
      <trkpt lat="44.0052" lon="1.6821">
        <ele>129</ele>
        <time>2013-03-02T17:44:07Z</time>
      </trkpt>
      <trkpt lat="44.00529" lon="1.68213">
        <ele>129</ele>
        <time>2013-03-02T17:44:09Z</time>
      </trkpt>
      <trkpt lat="44.00537" lon="1.68216">
        <ele>129</ele>
        <time>2013-03-02T17:44:11Z</time>
      </trkpt>
      <trkpt lat="44.00547" lon="1.68219">
        <ele>129</ele>
        <time>2013-03-02T17:44:13Z</time>
      </trkpt>
      <trkpt lat="44.00556" lon="1.68223">
        <ele>129</ele>
        <time>2013-03-02T17:44:15Z</time>
      </trkpt>
      <trkpt lat="44.00566" lon="1.68226">
        <ele>129</ele>
        <time>2013-03-02T17:44:17Z</time>
      </trkpt>
      <trkpt lat="44.00576" lon="1.68229">
        <ele>129</ele>
        <time>2013-03-02T17:44:19Z</time>
      </trkpt>
      <trkpt lat="44.00585" lon="1.68232">
        <ele>129</ele>
        <time>2013-03-02T17:44:21Z</time>
      </trkpt>
      <trkpt lat="44.00594" lon="1.68235">
        <ele>129</ele>
        <time>2013-03-02T17:44:23Z</time>
      </trkpt>
      <trkpt lat="44.00604" lon="1.68238">
        <ele>129</ele>
        <time>2013-03-02T17:44:25Z</time>
      </trkpt>
      <trkpt lat="44.00614" lon="1.6824">
        <ele>129</ele>
        <time>2013-03-02T17:44:27Z</time>
      </trkpt>
      <trkpt lat="44.00624" lon="1.68242">
        <ele>129</ele>
        <time>2013-03-02T17:44:29Z</time>
      </trkpt>
      <trkpt lat="44.00634" lon="1.68243">
        <ele>129</ele>
        <time>2013-03-02T17:44:31Z</time>
      </trkpt>
      <trkpt lat="44.00644" lon="1.68243">
        <ele>129</ele>
        <time>2013-03-02T17:44:33Z</time>
      </trkpt>
      <trkpt lat="44.00654" lon="1.68243">
        <ele>129</ele>
        <time>2013-03-02T17:44:35Z</time>
      </trkpt>
      <trkpt lat="44.00664" lon="1.68243">
        <ele>129</ele>
        <time>2013-03-02T17:44:37Z</time>
      </trkpt>
      <trkpt lat="44.00674" lon="1.68242">
        <ele>129</ele>
        <time>2013-03-02T17:44:39Z</time>
      </trkpt>
      <trkpt lat="44.00684" lon="1.6824">
        <ele>129</ele>
        <time>2013-03-02T17:44:41Z</time>
      </trkpt>
      <trkpt lat="44.00694" lon="1.68239">
        <ele>129</ele>
        <time>2013-03-02T17:44:43Z</time>
      </trkpt>
      <trkpt lat="44.00703" lon="1.68237">
        <ele>129</ele>
        <time>2013-03-02T17:44:45Z</time>
      </trkpt>
      <trkpt lat="44.00713" lon="1.68236">
        <ele>129</ele>
        <time>2013-03-02T17:44:47Z</time>
      </trkpt>
      <trkpt lat="44.00722" lon="1.68235">
        <ele>129</ele>
        <time>2013-03-02T17:44:49Z</time>
      </trkpt>
      <trkpt lat="44.00731" lon="1.68234">
        <ele>129</ele>
        <time>2013-03-02T17:44:51Z</time>
      </trkpt>
      <trkpt lat="44.00741" lon="1.68233">
        <ele>129</ele>
        <time>2013-03-02T17:44:53Z</time>
      </trkpt>
      <trkpt lat="44.0075" lon="1.68232">
        <ele>129</ele>
        <time>2013-03-02T17:44:55Z</time>
      </trkpt>
      <trkpt lat="44.0076" lon="1.68232">
        <ele>129</ele>
        <time>2013-03-02T17:44:57Z</time>
      </trkpt>
      <trkpt lat="44.0077" lon="1.68232">
        <ele>129</ele>
        <time>2013-03-02T17:44:59Z</time>
      </trkpt>
      <trkpt lat="44.0078" lon="1.68233">
        <ele>129</ele>
        <time>2013-03-02T17:45:01Z</time>
      </trkpt>
      <trkpt lat="44.0079" lon="1.68235">
        <ele>129</ele>
        <time>2013-03-02T17:45:03Z</time>
      </trkpt>
      <trkpt lat="44.00801" lon="1.68238">
        <ele>129</ele>
        <time>2013-03-02T17:45:05Z</time>
      </trkpt>
      <trkpt lat="44.00812" lon="1.68241">
        <ele>129</ele>
        <time>2013-03-02T17:45:07Z</time>
      </trkpt>
      <trkpt lat="44.00822" lon="1.68244">
        <ele>129</ele>
        <time>2013-03-02T17:45:09Z</time>
      </trkpt>
      <trkpt lat="44.00832" lon="1.68247">
        <ele>129</ele>
        <time>2013-03-02T17:45:11Z</time>
      </trkpt>
      <trkpt lat="44.00842" lon="1.6825">
        <ele>129</ele>
        <time>2013-03-02T17:45:13Z</time>
      </trkpt>
      <trkpt lat="44.00851" lon="1.68253">
        <ele>129</ele>
        <time>2013-03-02T17:45:15Z</time>
      </trkpt>
      <trkpt lat="44.00861" lon="1.68256">
        <ele>129</ele>
        <time>2013-03-02T17:45:17Z</time>
      </trkpt>
      <trkpt lat="44.0087" lon="1.6826">
        <ele>129</ele>
        <time>2013-03-02T17:45:19Z</time>
      </trkpt>
      <trkpt lat="44.00879" lon="1.68264">
        <ele>129</ele>
        <time>2013-03-02T17:45:21Z</time>
      </trkpt>
      <trkpt lat="44.00888" lon="1.6827">
        <ele>129</ele>
        <time>2013-03-02T17:45:23Z</time>
      </trkpt>
      <trkpt lat="44.00898" lon="1.68275">
        <ele>129</ele>
        <time>2013-03-02T17:45:25Z</time>
      </trkpt>
      <trkpt lat="44.00907" lon="1.68281">
        <ele>129</ele>
        <time>2013-03-02T17:45:27Z</time>
      </trkpt>
      <trkpt lat="44.00916" lon="1.68288">
        <ele>129</ele>
        <time>2013-03-02T17:45:29Z</time>
      </trkpt>
      <trkpt lat="44.00925" lon="1.68294">
        <ele>129</ele>
        <time>2013-03-02T17:45:31Z</time>
      </trkpt>
      <trkpt lat="44.00934" lon="1.683">
        <ele>130</ele>
        <time>2013-03-02T17:45:33Z</time>
      </trkpt>
      <trkpt lat="44.00943" lon="1.68305">
        <ele>130</ele>
        <time>2013-03-02T17:45:35Z</time>
      </trkpt>
      <trkpt lat="44.00953" lon="1.68308">
        <ele>130</ele>
        <time>2013-03-02T17:45:37Z</time>
      </trkpt>
      <trkpt lat="44.00962" lon="1.6831">
        <ele>131</ele>
        <time>2013-03-02T17:45:39Z</time>
      </trkpt>
      <trkpt lat="44.00972" lon="1.68312">
        <ele>131</ele>
        <time>2013-03-02T17:45:41Z</time>
      </trkpt>
      <trkpt lat="44.00981" lon="1.68312">
        <ele>131</ele>
        <time>2013-03-02T17:45:43Z</time>
      </trkpt>
      <trkpt lat="44.0099" lon="1.68315">
        <ele>132</ele>
        <time>2013-03-02T17:45:45Z</time>
      </trkpt>
      <trkpt lat="44.00996" lon="1.68324">
        <ele>132</ele>
        <time>2013-03-02T17:45:47Z</time>
      </trkpt>
      <trkpt lat="44.00999" lon="1.68335">
        <ele>132</ele>
        <time>2013-03-02T17:45:49Z</time>
      </trkpt>
      <trkpt lat="44.01001" lon="1.68349">
        <ele>132</ele>
        <time>2013-03-02T17:45:51Z</time>
      </trkpt>
      <trkpt lat="44.01003" lon="1.68361">
        <ele>132</ele>
        <time>2013-03-02T17:45:53Z</time>
      </trkpt>
      <trkpt lat="44.01004" lon="1.68372">
        <ele>132</ele>
        <time>2013-03-02T17:45:55Z</time>
      </trkpt>
      <trkpt lat="44.01005" lon="1.68383">
        <ele>132</ele>
        <time>2013-03-02T17:45:57Z</time>
      </trkpt>
      <trkpt lat="44.01005" lon="1.68396">
        <ele>132</ele>
        <time>2013-03-02T17:45:59Z</time>
      </trkpt>
      <trkpt lat="44.01005" lon="1.68408">
        <ele>132</ele>
        <time>2013-03-02T17:46:01Z</time>
      </trkpt>
      <trkpt lat="44.01004" lon="1.6842">
        <ele>132</ele>
        <time>2013-03-02T17:46:03Z</time>
      </trkpt>
      <trkpt lat="44.01004" lon="1.68433">
        <ele>132</ele>
        <time>2013-03-02T17:46:05Z</time>
      </trkpt>
      <trkpt lat="44.01004" lon="1.68445">
        <ele>132</ele>
        <time>2013-03-02T17:46:07Z</time>
      </trkpt>
      <trkpt lat="44.01004" lon="1.68456">
        <ele>132</ele>
        <time>2013-03-02T17:46:09Z</time>
      </trkpt>
      <trkpt lat="44.01004" lon="1.68468">
        <ele>132</ele>
        <time>2013-03-02T17:46:11Z</time>
      </trkpt>
      <trkpt lat="44.01005" lon="1.6848">
        <ele>132</ele>
        <time>2013-03-02T17:46:13Z</time>
      </trkpt>
      <trkpt lat="44.01005" lon="1.68491">
        <ele>132</ele>
        <time>2013-03-02T17:46:15Z</time>
      </trkpt>
      <trkpt lat="44.01006" lon="1.68501">
        <ele>132</ele>
        <time>2013-03-02T17:46:17Z</time>
      </trkpt>
      <trkpt lat="44.01006" lon="1.68511">
        <ele>133</ele>
        <time>2013-03-02T17:46:19Z</time>
      </trkpt>
      <trkpt lat="44.01006" lon="1.68521">
        <ele>134</ele>
        <time>2013-03-02T17:46:21Z</time>
      </trkpt>
      <trkpt lat="44.01006" lon="1.6853">
        <ele>134</ele>
        <time>2013-03-02T17:46:23Z</time>
      </trkpt>
      <trkpt lat="44.01005" lon="1.68539">
        <ele>134</ele>
        <time>2013-03-02T17:46:25Z</time>
      </trkpt>
      <trkpt lat="44.01005" lon="1.68547">
        <ele>135</ele>
        <time>2013-03-02T17:46:27Z</time>
      </trkpt>
      <trkpt lat="44.01005" lon="1.68555">
        <ele>135</ele>
        <time>2013-03-02T17:46:29Z</time>
      </trkpt>
      <trkpt lat="44.01006" lon="1.68562">
        <ele>136</ele>
        <time>2013-03-02T17:46:31Z</time>
      </trkpt>
      <trkpt lat="44.01007" lon="1.6857">
        <ele>136</ele>
        <time>2013-03-02T17:46:33Z</time>
      </trkpt>
      <trkpt lat="44.01008" lon="1.68577">
        <ele>137</ele>
        <time>2013-03-02T17:46:35Z</time>
      </trkpt>
      <trkpt lat="44.01009" lon="1.68585">
        <ele>137</ele>
        <time>2013-03-02T17:46:37Z</time>
      </trkpt>
      <trkpt lat="44.01009" lon="1.68593">
        <ele>138</ele>
        <time>2013-03-02T17:46:39Z</time>
      </trkpt>
      <trkpt lat="44.0101" lon="1.686">
        <ele>139</ele>
        <time>2013-03-02T17:46:41Z</time>
      </trkpt>
      <trkpt lat="44.01011" lon="1.68607">
        <ele>140</ele>
        <time>2013-03-02T17:46:43Z</time>
      </trkpt>
      <trkpt lat="44.01012" lon="1.68614">
        <ele>140</ele>
        <time>2013-03-02T17:46:45Z</time>
      </trkpt>
      <trkpt lat="44.01013" lon="1.68622">
        <ele>141</ele>
        <time>2013-03-02T17:46:47Z</time>
      </trkpt>
      <trkpt lat="44.01013" lon="1.68629">
        <ele>141</ele>
        <time>2013-03-02T17:46:49Z</time>
      </trkpt>
      <trkpt lat="44.01013" lon="1.68637">
        <ele>142</ele>
        <time>2013-03-02T17:46:51Z</time>
      </trkpt>
      <trkpt lat="44.01014" lon="1.68644">
        <ele>142</ele>
        <time>2013-03-02T17:46:53Z</time>
      </trkpt>
      <trkpt lat="44.01015" lon="1.68652">
        <ele>142</ele>
        <time>2013-03-02T17:46:55Z</time>
      </trkpt>
      <trkpt lat="44.01015" lon="1.68659">
        <ele>142</ele>
        <time>2013-03-02T17:46:57Z</time>
      </trkpt>
      <trkpt lat="44.01015" lon="1.68666">
        <ele>142</ele>
        <time>2013-03-02T17:46:59Z</time>
      </trkpt>
      <trkpt lat="44.01015" lon="1.68673">
        <ele>143</ele>
        <time>2013-03-02T17:47:01Z</time>
      </trkpt>
      <trkpt lat="44.01016" lon="1.68681">
        <ele>143</ele>
        <time>2013-03-02T17:47:03Z</time>
      </trkpt>
      <trkpt lat="44.01017" lon="1.68688">
        <ele>144</ele>
        <time>2013-03-02T17:47:05Z</time>
      </trkpt>
      <trkpt lat="44.01018" lon="1.68695">
        <ele>144</ele>
        <time>2013-03-02T17:47:07Z</time>
      </trkpt>
      <trkpt lat="44.01019" lon="1.68702">
        <ele>144</ele>
        <time>2013-03-02T17:47:09Z</time>
      </trkpt>
      <trkpt lat="44.01019" lon="1.68709">
        <ele>145</ele>
        <time>2013-03-02T17:47:11Z</time>
      </trkpt>
      <trkpt lat="44.0102" lon="1.68716">
        <ele>145</ele>
        <time>2013-03-02T17:47:13Z</time>
      </trkpt>
      <trkpt lat="44.01021" lon="1.68723">
        <ele>146</ele>
        <time>2013-03-02T17:47:15Z</time>
      </trkpt>
      <trkpt lat="44.01023" lon="1.6873">
        <ele>146</ele>
        <time>2013-03-02T17:47:17Z</time>
      </trkpt>
      <trkpt lat="44.01024" lon="1.68737">
        <ele>146</ele>
        <time>2013-03-02T17:47:19Z</time>
      </trkpt>
      <trkpt lat="44.01025" lon="1.68744">
        <ele>147</ele>
        <time>2013-03-02T17:47:21Z</time>
      </trkpt>
      <trkpt lat="44.01026" lon="1.68751">
        <ele>147</ele>
        <time>2013-03-02T17:47:23Z</time>
      </trkpt>
      <trkpt lat="44.01027" lon="1.68757">
        <ele>148</ele>
        <time>2013-03-02T17:47:25Z</time>
      </trkpt>
      <trkpt lat="44.01028" lon="1.68764">
        <ele>148</ele>
        <time>2013-03-02T17:47:27Z</time>
      </trkpt>
      <trkpt lat="44.01029" lon="1.6877">
        <ele>149</ele>
        <time>2013-03-02T17:47:29Z</time>
      </trkpt>
      <trkpt lat="44.0103" lon="1.68776">
        <ele>150</ele>
        <time>2013-03-02T17:47:31Z</time>
      </trkpt>
      <trkpt lat="44.0103" lon="1.68782">
        <ele>151</ele>
        <time>2013-03-02T17:47:33Z</time>
      </trkpt>
      <trkpt lat="44.01028" lon="1.68788">
        <ele>152</ele>
        <time>2013-03-02T17:47:35Z</time>
      </trkpt>
      <trkpt lat="44.01024" lon="1.6879">
        <ele>153</ele>
        <time>2013-03-02T17:47:37Z</time>
      </trkpt>
      <trkpt lat="44.0102" lon="1.68789">
        <ele>154</ele>
        <time>2013-03-02T17:47:39Z</time>
      </trkpt>
      <trkpt lat="44.01016" lon="1.68783">
        <ele>154</ele>
        <time>2013-03-02T17:47:41Z</time>
      </trkpt>
      <trkpt lat="44.01013" lon="1.68778">
        <ele>155</ele>
        <time>2013-03-02T17:47:43Z</time>
      </trkpt>
      <trkpt lat="44.0101" lon="1.68772">
        <ele>155</ele>
        <time>2013-03-02T17:47:45Z</time>
      </trkpt>
      <trkpt lat="44.01007" lon="1.68767">
        <ele>155</ele>
        <time>2013-03-02T17:47:47Z</time>
      </trkpt>
      <trkpt lat="44.01003" lon="1.68762">
        <ele>156</ele>
        <time>2013-03-02T17:47:49Z</time>
      </trkpt>
      <trkpt lat="44.01" lon="1.68757">
        <ele>156</ele>
        <time>2013-03-02T17:47:51Z</time>
      </trkpt>
      <trkpt lat="44.00997" lon="1.68752">
        <ele>156</ele>
        <time>2013-03-02T17:47:53Z</time>
      </trkpt>
      <trkpt lat="44.00993" lon="1.68747">
        <ele>156</ele>
        <time>2013-03-02T17:47:55Z</time>
      </trkpt>
      <trkpt lat="44.00991" lon="1.68742">
        <ele>156</ele>
        <time>2013-03-02T17:47:57Z</time>
      </trkpt>
      <trkpt lat="44.00987" lon="1.68736">
        <ele>156</ele>
        <time>2013-03-02T17:47:59Z</time>
      </trkpt>
      <trkpt lat="44.00984" lon="1.68731">
        <ele>157</ele>
        <time>2013-03-02T17:48:01Z</time>
      </trkpt>
      <trkpt lat="44.00981" lon="1.68726">
        <ele>157</ele>
        <time>2013-03-02T17:48:03Z</time>
      </trkpt>
      <trkpt lat="44.00977" lon="1.68721">
        <ele>158</ele>
        <time>2013-03-02T17:48:05Z</time>
      </trkpt>
      <trkpt lat="44.00974" lon="1.68716">
        <ele>158</ele>
        <time>2013-03-02T17:48:07Z</time>
      </trkpt>
      <trkpt lat="44.0097" lon="1.68711">
        <ele>158</ele>
        <time>2013-03-02T17:48:09Z</time>
      </trkpt>
      <trkpt lat="44.00967" lon="1.68707">
        <ele>159</ele>
        <time>2013-03-02T17:48:11Z</time>
      </trkpt>
      <trkpt lat="44.00962" lon="1.68703">
        <ele>160</ele>
        <time>2013-03-02T17:48:13Z</time>
      </trkpt>
      <trkpt lat="44.00958" lon="1.68701">
        <ele>160</ele>
        <time>2013-03-02T17:48:15Z</time>
      </trkpt>
      <trkpt lat="44.00953" lon="1.687">
        <ele>161</ele>
        <time>2013-03-02T17:48:17Z</time>
      </trkpt>
      <trkpt lat="44.00948" lon="1.68702">
        <ele>161</ele>
        <time>2013-03-02T17:48:19Z</time>
      </trkpt>
      <trkpt lat="44.00944" lon="1.68705">
        <ele>162</ele>
        <time>2013-03-02T17:48:21Z</time>
      </trkpt>
      <trkpt lat="44.0094" lon="1.6871">
        <ele>162</ele>
        <time>2013-03-02T17:48:23Z</time>
      </trkpt>
      <trkpt lat="44.00937" lon="1.68715">
        <ele>163</ele>
        <time>2013-03-02T17:48:25Z</time>
      </trkpt>
      <trkpt lat="44.00935" lon="1.6872">
        <ele>163</ele>
        <time>2013-03-02T17:48:27Z</time>
      </trkpt>
      <trkpt lat="44.00932" lon="1.68725">
        <ele>163</ele>
        <time>2013-03-02T17:48:29Z</time>
      </trkpt>
      <trkpt lat="44.00929" lon="1.68731">
        <ele>163</ele>
        <time>2013-03-02T17:48:31Z</time>
      </trkpt>
      <trkpt lat="44.00927" lon="1.68736">
        <ele>163</ele>
        <time>2013-03-02T17:48:33Z</time>
      </trkpt>
      <trkpt lat="44.00924" lon="1.68741">
        <ele>164</ele>
        <time>2013-03-02T17:48:35Z</time>
      </trkpt>
      <trkpt lat="44.00921" lon="1.68746">
        <ele>164</ele>
        <time>2013-03-02T17:48:37Z</time>
      </trkpt>
      <trkpt lat="44.00919" lon="1.68752">
        <ele>164</ele>
        <time>2013-03-02T17:48:39Z</time>
      </trkpt>
      <trkpt lat="44.00916" lon="1.68756">
        <ele>164</ele>
        <time>2013-03-02T17:48:41Z</time>
      </trkpt>
      <trkpt lat="44.00914" lon="1.68762">
        <ele>165</ele>
        <time>2013-03-02T17:48:43Z</time>
      </trkpt>
      <trkpt lat="44.00911" lon="1.68767">
        <ele>165</ele>
        <time>2013-03-02T17:48:45Z</time>
      </trkpt>
      <trkpt lat="44.00908" lon="1.68773">
        <ele>165</ele>
        <time>2013-03-02T17:48:47Z</time>
      </trkpt>
      <trkpt lat="44.00906" lon="1.68778">
        <ele>166</ele>
        <time>2013-03-02T17:48:49Z</time>
      </trkpt>
      <trkpt lat="44.00903" lon="1.68783">
        <ele>166</ele>
        <time>2013-03-02T17:48:51Z</time>
      </trkpt>
      <trkpt lat="44.00901" lon="1.68789">
        <ele>166</ele>
        <time>2013-03-02T17:48:53Z</time>
      </trkpt>
      <trkpt lat="44.00898" lon="1.68793">
        <ele>167</ele>
        <time>2013-03-02T17:48:55Z</time>
      </trkpt>
      <trkpt lat="44.00895" lon="1.68798">
        <ele>167</ele>
        <time>2013-03-02T17:48:57Z</time>
      </trkpt>
      <trkpt lat="44.00893" lon="1.68802">
        <ele>168</ele>
        <time>2013-03-02T17:48:59Z</time>
      </trkpt>
      <trkpt lat="44.0089" lon="1.68807">
        <ele>168</ele>
        <time>2013-03-02T17:49:01Z</time>
      </trkpt>
      <trkpt lat="44.00887" lon="1.68811">
        <ele>168</ele>
        <time>2013-03-02T17:49:03Z</time>
      </trkpt>
      <trkpt lat="44.00885" lon="1.68815">
        <ele>168</ele>
        <time>2013-03-02T17:49:05Z</time>
      </trkpt>
      <trkpt lat="44.00881" lon="1.68818">
        <ele>168</ele>
        <time>2013-03-02T17:49:07Z</time>
      </trkpt>
      <trkpt lat="44.00878" lon="1.68822">
        <ele>168</ele>
        <time>2013-03-02T17:49:09Z</time>
      </trkpt>
      <trkpt lat="44.00874" lon="1.68825">
        <ele>169</ele>
        <time>2013-03-02T17:49:11Z</time>
      </trkpt>
      <trkpt lat="44.0087" lon="1.68827">
        <ele>170</ele>
        <time>2013-03-02T17:49:13Z</time>
      </trkpt>
      <trkpt lat="44.00867" lon="1.6883">
        <ele>170</ele>
        <time>2013-03-02T17:49:15Z</time>
      </trkpt>
      <trkpt lat="44.00863" lon="1.68832">
        <ele>171</ele>
        <time>2013-03-02T17:49:17Z</time>
      </trkpt>
      <trkpt lat="44.00859" lon="1.68835">
        <ele>171</ele>
        <time>2013-03-02T17:49:19Z</time>
      </trkpt>
      <trkpt lat="44.00854" lon="1.68837">
        <ele>172</ele>
        <time>2013-03-02T17:49:21Z</time>
      </trkpt>
      <trkpt lat="44.0085" lon="1.68838">
        <ele>173</ele>
        <time>2013-03-02T17:49:23Z</time>
      </trkpt>
      <trkpt lat="44.00846" lon="1.6884">
        <ele>173</ele>
        <time>2013-03-02T17:49:25Z</time>
      </trkpt>
      <trkpt lat="44.00842" lon="1.68841">
        <ele>174</ele>
        <time>2013-03-02T17:49:27Z</time>
      </trkpt>
      <trkpt lat="44.00838" lon="1.68842">
        <ele>174</ele>
        <time>2013-03-02T17:49:29Z</time>
      </trkpt>
      <trkpt lat="44.00834" lon="1.68843">
        <ele>174</ele>
        <time>2013-03-02T17:49:31Z</time>
      </trkpt>
      <trkpt lat="44.0083" lon="1.68845">
        <ele>175</ele>
        <time>2013-03-02T17:49:33Z</time>
      </trkpt>
      <trkpt lat="44.00826" lon="1.68847">
        <ele>175</ele>
        <time>2013-03-02T17:49:35Z</time>
      </trkpt>
      <trkpt lat="44.00823" lon="1.6885">
        <ele>175</ele>
        <time>2013-03-02T17:49:37Z</time>
      </trkpt>
      <trkpt lat="44.00819" lon="1.68851">
        <ele>175</ele>
        <time>2013-03-02T17:49:39Z</time>
      </trkpt>
      <trkpt lat="44.00815" lon="1.68853">
        <ele>175</ele>
        <time>2013-03-02T17:49:41Z</time>
      </trkpt>
      <trkpt lat="44.00811" lon="1.68856">
        <ele>175</ele>
        <time>2013-03-02T17:49:43Z</time>
      </trkpt>
      <trkpt lat="44.00808" lon="1.6886">
        <ele>176</ele>
        <time>2013-03-02T17:49:45Z</time>
      </trkpt>
      <trkpt lat="44.00804" lon="1.68863">
        <ele>176</ele>
        <time>2013-03-02T17:49:47Z</time>
      </trkpt>
      <trkpt lat="44.00801" lon="1.68867">
        <ele>177</ele>
        <time>2013-03-02T17:49:49Z</time>
      </trkpt>
      <trkpt lat="44.00797" lon="1.6887">
        <ele>177</ele>
        <time>2013-03-02T17:49:51Z</time>
      </trkpt>
      <trkpt lat="44.00794" lon="1.68874">
        <ele>178</ele>
        <time>2013-03-02T17:49:53Z</time>
      </trkpt>
      <trkpt lat="44.00792" lon="1.68879">
        <ele>178</ele>
        <time>2013-03-02T17:49:55Z</time>
      </trkpt>
      <trkpt lat="44.0079" lon="1.68884">
        <ele>179</ele>
        <time>2013-03-02T17:49:57Z</time>
      </trkpt>
      <trkpt lat="44.00787" lon="1.68888">
        <ele>179</ele>
        <time>2013-03-02T17:49:59Z</time>
      </trkpt>
      <trkpt lat="44.00785" lon="1.68893">
        <ele>179</ele>
        <time>2013-03-02T17:50:01Z</time>
      </trkpt>
      <trkpt lat="44.00782" lon="1.68897">
        <ele>179</ele>
        <time>2013-03-02T17:50:03Z</time>
      </trkpt>
      <trkpt lat="44.0078" lon="1.68901">
        <ele>179</ele>
        <time>2013-03-02T17:50:05Z</time>
      </trkpt>
      <trkpt lat="44.00777" lon="1.68906">
        <ele>179</ele>
        <time>2013-03-02T17:50:07Z</time>
      </trkpt>
      <trkpt lat="44.00774" lon="1.68909">
        <ele>179</ele>
        <time>2013-03-02T17:50:09Z</time>
      </trkpt>
      <trkpt lat="44.0077" lon="1.68911">
        <ele>180</ele>
        <time>2013-03-02T17:50:11Z</time>
      </trkpt>
      <trkpt lat="44.00765" lon="1.68912">
        <ele>180</ele>
        <time>2013-03-02T17:50:13Z</time>
      </trkpt>
      <trkpt lat="44.00761" lon="1.68913">
        <ele>181</ele>
        <time>2013-03-02T17:50:15Z</time>
      </trkpt>
      <trkpt lat="44.00757" lon="1.68913">
        <ele>182</ele>
        <time>2013-03-02T17:50:17Z</time>
      </trkpt>
      <trkpt lat="44.00752" lon="1.68911">
        <ele>183</ele>
        <time>2013-03-02T17:50:19Z</time>
      </trkpt>
      <trkpt lat="44.00747" lon="1.6891">
        <ele>184</ele>
        <time>2013-03-02T17:50:21Z</time>
      </trkpt>
      <trkpt lat="44.00743" lon="1.68908">
        <ele>185</ele>
        <time>2013-03-02T17:50:23Z</time>
      </trkpt>
      <trkpt lat="44.00739" lon="1.68907">
        <ele>186</ele>
        <time>2013-03-02T17:50:25Z</time>
      </trkpt>
      <trkpt lat="44.00734" lon="1.68906">
        <ele>186</ele>
        <time>2013-03-02T17:50:27Z</time>
      </trkpt>
      <trkpt lat="44.0073" lon="1.68906">
        <ele>187</ele>
        <time>2013-03-02T17:50:29Z</time>
      </trkpt>
      <trkpt lat="44.00726" lon="1.68906">
        <ele>187</ele>
        <time>2013-03-02T17:50:31Z</time>
      </trkpt>
      <trkpt lat="44.00721" lon="1.68906">
        <ele>187</ele>
        <time>2013-03-02T17:50:33Z</time>
      </trkpt>
      <trkpt lat="44.00717" lon="1.68906">
        <ele>187</ele>
        <time>2013-03-02T17:50:35Z</time>
      </trkpt>
      <trkpt lat="44.00713" lon="1.68906">
        <ele>188</ele>
        <time>2013-03-02T17:50:37Z</time>
      </trkpt>
      <trkpt lat="44.00708" lon="1.68906">
        <ele>188</ele>
        <time>2013-03-02T17:50:39Z</time>
      </trkpt>
      <trkpt lat="44.00704" lon="1.68906">
        <ele>188</ele>
        <time>2013-03-02T17:50:41Z</time>
      </trkpt>
      <trkpt lat="44.007" lon="1.68908">
        <ele>189</ele>
        <time>2013-03-02T17:50:43Z</time>
      </trkpt>
      <trkpt lat="44.00696" lon="1.6891">
        <ele>189</ele>
        <time>2013-03-02T17:50:45Z</time>
      </trkpt>
      <trkpt lat="44.00692" lon="1.68913">
        <ele>189</ele>
        <time>2013-03-02T17:50:47Z</time>
      </trkpt>
      <trkpt lat="44.00688" lon="1.68916">
        <ele>190</ele>
        <time>2013-03-02T17:50:49Z</time>
      </trkpt>
      <trkpt lat="44.00685" lon="1.68921">
        <ele>191</ele>
        <time>2013-03-02T17:50:51Z</time>
      </trkpt>
      <trkpt lat="44.00683" lon="1.68925">
        <ele>191</ele>
        <time>2013-03-02T17:50:53Z</time>
      </trkpt>
      <trkpt lat="44.00681" lon="1.68931">
        <ele>192</ele>
        <time>2013-03-02T17:50:55Z</time>
      </trkpt>
      <trkpt lat="44.0068" lon="1.68936">
        <ele>192</ele>
        <time>2013-03-02T17:50:57Z</time>
      </trkpt>
      <trkpt lat="44.00678" lon="1.68941">
        <ele>193</ele>
        <time>2013-03-02T17:50:59Z</time>
      </trkpt>
      <trkpt lat="44.00677" lon="1.68947">
        <ele>193</ele>
        <time>2013-03-02T17:51:01Z</time>
      </trkpt>
      <trkpt lat="44.00676" lon="1.68953">
        <ele>194</ele>
        <time>2013-03-02T17:51:03Z</time>
      </trkpt>
      <trkpt lat="44.00675" lon="1.6896">
        <ele>194</ele>
        <time>2013-03-02T17:51:05Z</time>
      </trkpt>
      <trkpt lat="44.00674" lon="1.68967">
        <ele>195</ele>
        <time>2013-03-02T17:51:07Z</time>
      </trkpt>
      <trkpt lat="44.00673" lon="1.68973">
        <ele>195</ele>
        <time>2013-03-02T17:51:09Z</time>
      </trkpt>
      <trkpt lat="44.00671" lon="1.6898">
        <ele>196</ele>
        <time>2013-03-02T17:51:11Z</time>
      </trkpt>
      <trkpt lat="44.00669" lon="1.68986">
        <ele>197</ele>
        <time>2013-03-02T17:51:13Z</time>
      </trkpt>
      <trkpt lat="44.00668" lon="1.68992">
        <ele>197</ele>
        <time>2013-03-02T17:51:15Z</time>
      </trkpt>
      <trkpt lat="44.00666" lon="1.68999">
        <ele>198</ele>
        <time>2013-03-02T17:51:17Z</time>
      </trkpt>
      <trkpt lat="44.00664" lon="1.69005">
        <ele>198</ele>
        <time>2013-03-02T17:51:19Z</time>
      </trkpt>
      <trkpt lat="44.00663" lon="1.69011">
        <ele>199</ele>
        <time>2013-03-02T17:51:21Z</time>
      </trkpt>
      <trkpt lat="44.00661" lon="1.69018">
        <ele>199</ele>
        <time>2013-03-02T17:51:23Z</time>
      </trkpt>
      <trkpt lat="44.00659" lon="1.69024">
        <ele>200</ele>
        <time>2013-03-02T17:51:25Z</time>
      </trkpt>
      <trkpt lat="44.00658" lon="1.69031">
        <ele>200</ele>
        <time>2013-03-02T17:51:27Z</time>
      </trkpt>
      <trkpt lat="44.00656" lon="1.69037">
        <ele>201</ele>
        <time>2013-03-02T17:51:29Z</time>
      </trkpt>
      <trkpt lat="44.00655" lon="1.69044">
        <ele>201</ele>
        <time>2013-03-02T17:51:31Z</time>
      </trkpt>
      <trkpt lat="44.00653" lon="1.69051">
        <ele>202</ele>
        <time>2013-03-02T17:51:33Z</time>
      </trkpt>
      <trkpt lat="44.00652" lon="1.69057">
        <ele>203</ele>
        <time>2013-03-02T17:51:35Z</time>
      </trkpt>
      <trkpt lat="44.0065" lon="1.69064">
        <ele>204</ele>
        <time>2013-03-02T17:51:37Z</time>
      </trkpt>
      <trkpt lat="44.00649" lon="1.69071">
        <ele>205</ele>
        <time>2013-03-02T17:51:39Z</time>
      </trkpt>
      <trkpt lat="44.00648" lon="1.69077">
        <ele>205</ele>
        <time>2013-03-02T17:51:41Z</time>
      </trkpt>
      <trkpt lat="44.00647" lon="1.69083">
        <ele>206</ele>
        <time>2013-03-02T17:51:43Z</time>
      </trkpt>
      <trkpt lat="44.00646" lon="1.6909">
        <ele>206</ele>
        <time>2013-03-02T17:51:45Z</time>
      </trkpt>
      <trkpt lat="44.00645" lon="1.69096">
        <ele>207</ele>
        <time>2013-03-02T17:51:47Z</time>
      </trkpt>
      <trkpt lat="44.00644" lon="1.69103">
        <ele>207</ele>
        <time>2013-03-02T17:51:49Z</time>
      </trkpt>
      <trkpt lat="44.00643" lon="1.69109">
        <ele>208</ele>
        <time>2013-03-02T17:51:51Z</time>
      </trkpt>
      <trkpt lat="44.00641" lon="1.69115">
        <ele>208</ele>
        <time>2013-03-02T17:51:53Z</time>
      </trkpt>
      <trkpt lat="44.00639" lon="1.69122">
        <ele>209</ele>
        <time>2013-03-02T17:51:55Z</time>
      </trkpt>
      <trkpt lat="44.00637" lon="1.69128">
        <ele>209</ele>
        <time>2013-03-02T17:51:57Z</time>
      </trkpt>
      <trkpt lat="44.00636" lon="1.69133">
        <ele>210</ele>
        <time>2013-03-02T17:51:59Z</time>
      </trkpt>
      <trkpt lat="44.00633" lon="1.69139">
        <ele>210</ele>
        <time>2013-03-02T17:52:01Z</time>
      </trkpt>
      <trkpt lat="44.0063" lon="1.69145">
        <ele>210</ele>
        <time>2013-03-02T17:52:03Z</time>
      </trkpt>
      <trkpt lat="44.00627" lon="1.6915">
        <ele>210</ele>
        <time>2013-03-02T17:52:05Z</time>
      </trkpt>
      <trkpt lat="44.00624" lon="1.69155">
        <ele>210</ele>
        <time>2013-03-02T17:52:07Z</time>
      </trkpt>
      <trkpt lat="44.0062" lon="1.6916">
        <ele>211</ele>
        <time>2013-03-02T17:52:09Z</time>
      </trkpt>
      <trkpt lat="44.00617" lon="1.69164">
        <ele>211</ele>
        <time>2013-03-02T17:52:11Z</time>
      </trkpt>
      <trkpt lat="44.00613" lon="1.69168">
        <ele>211</ele>
        <time>2013-03-02T17:52:13Z</time>
      </trkpt>
      <trkpt lat="44.00609" lon="1.69173">
        <ele>212</ele>
        <time>2013-03-02T17:52:15Z</time>
      </trkpt>
      <trkpt lat="44.00605" lon="1.69177">
        <ele>212</ele>
        <time>2013-03-02T17:52:17Z</time>
      </trkpt>
      <trkpt lat="44.00601" lon="1.69181">
        <ele>213</ele>
        <time>2013-03-02T17:52:19Z</time>
      </trkpt>
      <trkpt lat="44.00597" lon="1.69185">
        <ele>213</ele>
        <time>2013-03-02T17:52:21Z</time>
      </trkpt>
      <trkpt lat="44.00594" lon="1.69188">
        <ele>214</ele>
        <time>2013-03-02T17:52:23Z</time>
      </trkpt>
      <trkpt lat="44.0059" lon="1.69192">
        <ele>214</ele>
        <time>2013-03-02T17:52:25Z</time>
      </trkpt>
      <trkpt lat="44.00586" lon="1.69196">
        <ele>214</ele>
        <time>2013-03-02T17:52:27Z</time>
      </trkpt>
      <trkpt lat="44.00583" lon="1.69201">
        <ele>215</ele>
        <time>2013-03-02T17:52:29Z</time>
      </trkpt>
      <trkpt lat="44.00579" lon="1.69205">
        <ele>215</ele>
        <time>2013-03-02T17:52:31Z</time>
      </trkpt>
      <trkpt lat="44.00576" lon="1.6921">
        <ele>215</ele>
        <time>2013-03-02T17:52:33Z</time>
      </trkpt>
      <trkpt lat="44.00572" lon="1.69214">
        <ele>215</ele>
        <time>2013-03-02T17:52:35Z</time>
      </trkpt>
      <trkpt lat="44.00569" lon="1.69219">
        <ele>215</ele>
        <time>2013-03-02T17:52:37Z</time>
      </trkpt>
      <trkpt lat="44.00565" lon="1.69224">
        <ele>216</ele>
        <time>2013-03-02T17:52:39Z</time>
      </trkpt>
      <trkpt lat="44.00562" lon="1.69229">
        <ele>217</ele>
        <time>2013-03-02T17:52:41Z</time>
      </trkpt>
      <trkpt lat="44.00558" lon="1.69235">
        <ele>218</ele>
        <time>2013-03-02T17:52:43Z</time>
      </trkpt>
      <trkpt lat="44.00555" lon="1.6924">
        <ele>219</ele>
        <time>2013-03-02T17:52:45Z</time>
      </trkpt>
      <trkpt lat="44.00551" lon="1.69247">
        <ele>220</ele>
        <time>2013-03-02T17:52:47Z</time>
      </trkpt>
      <trkpt lat="44.00549" lon="1.69252">
        <ele>220</ele>
        <time>2013-03-02T17:52:49Z</time>
      </trkpt>
      <trkpt lat="44.00546" lon="1.69257">
        <ele>221</ele>
        <time>2013-03-02T17:52:51Z</time>
      </trkpt>
      <trkpt lat="44.00543" lon="1.69262">
        <ele>221</ele>
        <time>2013-03-02T17:52:53Z</time>
      </trkpt>
      <trkpt lat="44.00541" lon="1.69267">
        <ele>221</ele>
        <time>2013-03-02T17:52:55Z</time>
      </trkpt>
      <trkpt lat="44.00539" lon="1.69272">
        <ele>221</ele>
        <time>2013-03-02T17:52:57Z</time>
      </trkpt>
      <trkpt lat="44.00536" lon="1.69277">
        <ele>221</ele>
        <time>2013-03-02T17:52:59Z</time>
      </trkpt>
      <trkpt lat="44.00533" lon="1.69282">
        <ele>222</ele>
        <time>2013-03-02T17:53:01Z</time>
      </trkpt>
      <trkpt lat="44.00531" lon="1.69288">
        <ele>222</ele>
        <time>2013-03-02T17:53:03Z</time>
      </trkpt>
      <trkpt lat="44.00528" lon="1.69293">
        <ele>222</ele>
        <time>2013-03-02T17:53:05Z</time>
      </trkpt>
      <trkpt lat="44.00526" lon="1.69299">
        <ele>222</ele>
        <time>2013-03-02T17:53:07Z</time>
      </trkpt>
      <trkpt lat="44.00524" lon="1.69304">
        <ele>222</ele>
        <time>2013-03-02T17:53:09Z</time>
      </trkpt>
      <trkpt lat="44.00522" lon="1.6931">
        <ele>222</ele>
        <time>2013-03-02T17:53:11Z</time>
      </trkpt>
      <trkpt lat="44.0052" lon="1.69315">
        <ele>223</ele>
        <time>2013-03-02T17:53:13Z</time>
      </trkpt>
      <trkpt lat="44.00518" lon="1.6932">
        <ele>223</ele>
        <time>2013-03-02T17:53:15Z</time>
      </trkpt>
      <trkpt lat="44.00515" lon="1.69326">
        <ele>224</ele>
        <time>2013-03-02T17:53:17Z</time>
      </trkpt>
      <trkpt lat="44.00513" lon="1.69332">
        <ele>225</ele>
        <time>2013-03-02T17:53:19Z</time>
      </trkpt>
      <trkpt lat="44.0051" lon="1.69338">
        <ele>226</ele>
        <time>2013-03-02T17:53:21Z</time>
      </trkpt>
      <trkpt lat="44.00508" lon="1.69344">
        <ele>228</ele>
        <time>2013-03-02T17:53:23Z</time>
      </trkpt>
      <trkpt lat="44.00506" lon="1.6935">
        <ele>228</ele>
        <time>2013-03-02T17:53:25Z</time>
      </trkpt>
      <trkpt lat="44.00504" lon="1.69355">
        <ele>229</ele>
        <time>2013-03-02T17:53:27Z</time>
      </trkpt>
      <trkpt lat="44.00502" lon="1.69361">
        <ele>230</ele>
        <time>2013-03-02T17:53:29Z</time>
      </trkpt>
      <trkpt lat="44.00501" lon="1.69366">
        <ele>230</ele>
        <time>2013-03-02T17:53:31Z</time>
      </trkpt>
      <trkpt lat="44.00499" lon="1.69372">
        <ele>231</ele>
        <time>2013-03-02T17:53:33Z</time>
      </trkpt>
      <trkpt lat="44.00498" lon="1.69378">
        <ele>231</ele>
        <time>2013-03-02T17:53:35Z</time>
      </trkpt>
      <trkpt lat="44.00496" lon="1.69384">
        <ele>231</ele>
        <time>2013-03-02T17:53:37Z</time>
      </trkpt>
      <trkpt lat="44.00494" lon="1.69389">
        <ele>232</ele>
        <time>2013-03-02T17:53:39Z</time>
      </trkpt>
      <trkpt lat="44.00492" lon="1.69395">
        <ele>232</ele>
        <time>2013-03-02T17:53:41Z</time>
      </trkpt>
      <trkpt lat="44.0049" lon="1.694">
        <ele>233</ele>
        <time>2013-03-02T17:53:43Z</time>
      </trkpt>
      <trkpt lat="44.00488" lon="1.69406">
        <ele>233</ele>
        <time>2013-03-02T17:53:45Z</time>
      </trkpt>
      <trkpt lat="44.00487" lon="1.69412">
        <ele>234</ele>
        <time>2013-03-02T17:53:47Z</time>
      </trkpt>
      <trkpt lat="44.00485" lon="1.69417">
        <ele>234</ele>
        <time>2013-03-02T17:53:49Z</time>
      </trkpt>
      <trkpt lat="44.00484" lon="1.69423">
        <ele>234</ele>
        <time>2013-03-02T17:53:51Z</time>
      </trkpt>
      <trkpt lat="44.00483" lon="1.69429">
        <ele>235</ele>
        <time>2013-03-02T17:53:53Z</time>
      </trkpt>
      <trkpt lat="44.00481" lon="1.69435">
        <ele>235</ele>
        <time>2013-03-02T17:53:55Z</time>
      </trkpt>
      <trkpt lat="44.0048" lon="1.69441">
        <ele>235</ele>
        <time>2013-03-02T17:53:57Z</time>
      </trkpt>
      <trkpt lat="44.0048" lon="1.69447">
        <ele>236</ele>
        <time>2013-03-02T17:53:59Z</time>
      </trkpt>
      <trkpt lat="44.00478" lon="1.69453">
        <ele>236</ele>
        <time>2013-03-02T17:54:01Z</time>
      </trkpt>
      <trkpt lat="44.00477" lon="1.6946">
        <ele>237</ele>
        <time>2013-03-02T17:54:03Z</time>
      </trkpt>
      <trkpt lat="44.00477" lon="1.69466">
        <ele>238</ele>
        <time>2013-03-02T17:54:05Z</time>
      </trkpt>
      <trkpt lat="44.00477" lon="1.69473">
        <ele>239</ele>
        <time>2013-03-02T17:54:07Z</time>
      </trkpt>
      <trkpt lat="44.00477" lon="1.69479">
        <ele>239</ele>
        <time>2013-03-02T17:54:09Z</time>
      </trkpt>
      <trkpt lat="44.00477" lon="1.69485">
        <ele>240</ele>
        <time>2013-03-02T17:54:11Z</time>
      </trkpt>
      <trkpt lat="44.00478" lon="1.69492">
        <ele>240</ele>
        <time>2013-03-02T17:54:13Z</time>
      </trkpt>
      <trkpt lat="44.00478" lon="1.69499">
        <ele>241</ele>
        <time>2013-03-02T17:54:15Z</time>
      </trkpt>
      <trkpt lat="44.00478" lon="1.69506">
        <ele>241</ele>
        <time>2013-03-02T17:54:17Z</time>
      </trkpt>
      <trkpt lat="44.00478" lon="1.69511">
        <ele>241</ele>
        <time>2013-03-02T17:54:19Z</time>
      </trkpt>
      <trkpt lat="44.00479" lon="1.69518">
        <ele>241</ele>
        <time>2013-03-02T17:54:21Z</time>
      </trkpt>
      <trkpt lat="44.00479" lon="1.69525">
        <ele>242</ele>
        <time>2013-03-02T17:54:23Z</time>
      </trkpt>
      <trkpt lat="44.0048" lon="1.69531">
        <ele>242</ele>
        <time>2013-03-02T17:54:25Z</time>
      </trkpt>
      <trkpt lat="44.00481" lon="1.69538">
        <ele>242</ele>
        <time>2013-03-02T17:54:27Z</time>
      </trkpt>
      <trkpt lat="44.00482" lon="1.69544">
        <ele>242</ele>
        <time>2013-03-02T17:54:29Z</time>
      </trkpt>
      <trkpt lat="44.00482" lon="1.69551">
        <ele>243</ele>
        <time>2013-03-02T17:54:31Z</time>
      </trkpt>
      <trkpt lat="44.00483" lon="1.69557">
        <ele>243</ele>
        <time>2013-03-02T17:54:33Z</time>
      </trkpt>
      <trkpt lat="44.00484" lon="1.69563">
        <ele>243</ele>
        <time>2013-03-02T17:54:35Z</time>
      </trkpt>
      <trkpt lat="44.00485" lon="1.6957">
        <ele>244</ele>
        <time>2013-03-02T17:54:37Z</time>
      </trkpt>
      <trkpt lat="44.00486" lon="1.69576">
        <ele>245</ele>
        <time>2013-03-02T17:54:39Z</time>
      </trkpt>
      <trkpt lat="44.00487" lon="1.69582">
        <ele>246</ele>
        <time>2013-03-02T17:54:41Z</time>
      </trkpt>
      <trkpt lat="44.00489" lon="1.69589">
        <ele>246</ele>
        <time>2013-03-02T17:54:43Z</time>
      </trkpt>
      <trkpt lat="44.0049" lon="1.69596">
        <ele>247</ele>
        <time>2013-03-02T17:54:45Z</time>
      </trkpt>
      <trkpt lat="44.00492" lon="1.69602">
        <ele>247</ele>
        <time>2013-03-02T17:54:47Z</time>
      </trkpt>
      <trkpt lat="44.00494" lon="1.69608">
        <ele>247</ele>
        <time>2013-03-02T17:54:49Z</time>
      </trkpt>
      <trkpt lat="44.00495" lon="1.69614">
        <ele>247</ele>
        <time>2013-03-02T17:54:51Z</time>
      </trkpt>
      <trkpt lat="44.00497" lon="1.69621">
        <ele>247</ele>
        <time>2013-03-02T17:54:53Z</time>
      </trkpt>
      <trkpt lat="44.00499" lon="1.69627">
        <ele>248</ele>
        <time>2013-03-02T17:54:55Z</time>
      </trkpt>
      <trkpt lat="44.00501" lon="1.69633">
        <ele>248</ele>
        <time>2013-03-02T17:54:57Z</time>
      </trkpt>
      <trkpt lat="44.00503" lon="1.69638">
        <ele>248</ele>
        <time>2013-03-02T17:54:59Z</time>
      </trkpt>
      <trkpt lat="44.00505" lon="1.69643">
        <ele>248</ele>
        <time>2013-03-02T17:55:01Z</time>
      </trkpt>
      <trkpt lat="44.00507" lon="1.69649">
        <ele>248</ele>
        <time>2013-03-02T17:55:03Z</time>
      </trkpt>
      <trkpt lat="44.0051" lon="1.69655">
        <ele>248</ele>
        <time>2013-03-02T17:55:05Z</time>
      </trkpt>
      <trkpt lat="44.00512" lon="1.6966">
        <ele>248</ele>
        <time>2013-03-02T17:55:07Z</time>
      </trkpt>
      <trkpt lat="44.00515" lon="1.69666">
        <ele>249</ele>
        <time>2013-03-02T17:55:09Z</time>
      </trkpt>
      <trkpt lat="44.00518" lon="1.69671">
        <ele>250</ele>
        <time>2013-03-02T17:55:11Z</time>
      </trkpt>
      <trkpt lat="44.00521" lon="1.69676">
        <ele>250</ele>
        <time>2013-03-02T17:55:13Z</time>
      </trkpt>
      <trkpt lat="44.00523" lon="1.69681">
        <ele>251</ele>
        <time>2013-03-02T17:55:15Z</time>
      </trkpt>
      <trkpt lat="44.00526" lon="1.69686">
        <ele>251</ele>
        <time>2013-03-02T17:55:17Z</time>
      </trkpt>
      <trkpt lat="44.00529" lon="1.69691">
        <ele>252</ele>
        <time>2013-03-02T17:55:19Z</time>
      </trkpt>
      <trkpt lat="44.00532" lon="1.69696">
        <ele>253</ele>
        <time>2013-03-02T17:55:21Z</time>
      </trkpt>
      <trkpt lat="44.00535" lon="1.69701">
        <ele>253</ele>
        <time>2013-03-02T17:55:23Z</time>
      </trkpt>
      <trkpt lat="44.00538" lon="1.69706">
        <ele>254</ele>
        <time>2013-03-02T17:55:25Z</time>
      </trkpt>
      <trkpt lat="44.0054" lon="1.69711">
        <ele>254</ele>
        <time>2013-03-02T17:55:27Z</time>
      </trkpt>
      <trkpt lat="44.00543" lon="1.69715">
        <ele>254</ele>
        <time>2013-03-02T17:55:29Z</time>
      </trkpt>
      <trkpt lat="44.00546" lon="1.69721">
        <ele>254</ele>
        <time>2013-03-02T17:55:31Z</time>
      </trkpt>
      <trkpt lat="44.00549" lon="1.69726">
        <ele>255</ele>
        <time>2013-03-02T17:55:33Z</time>
      </trkpt>
      <trkpt lat="44.00552" lon="1.69731">
        <ele>255</ele>
        <time>2013-03-02T17:55:35Z</time>
      </trkpt>
      <trkpt lat="44.00555" lon="1.69737">
        <ele>256</ele>
        <time>2013-03-02T17:55:37Z</time>
      </trkpt>
      <trkpt lat="44.00559" lon="1.69741">
        <ele>256</ele>
        <time>2013-03-02T17:55:39Z</time>
      </trkpt>
      <trkpt lat="44.00562" lon="1.69746">
        <ele>257</ele>
        <time>2013-03-02T17:55:41Z</time>
      </trkpt>
      <trkpt lat="44.00565" lon="1.69752">
        <ele>257</ele>
        <time>2013-03-02T17:55:43Z</time>
      </trkpt>
      <trkpt lat="44.00568" lon="1.69756">
        <ele>258</ele>
        <time>2013-03-02T17:55:45Z</time>
      </trkpt>
      <trkpt lat="44.00571" lon="1.69761">
        <ele>258</ele>
        <time>2013-03-02T17:55:47Z</time>
      </trkpt>
      <trkpt lat="44.00574" lon="1.69766">
        <ele>258</ele>
        <time>2013-03-02T17:55:49Z</time>
      </trkpt>
      <trkpt lat="44.00578" lon="1.69771">
        <ele>259</ele>
        <time>2013-03-02T17:55:51Z</time>
      </trkpt>
      <trkpt lat="44.00581" lon="1.69775">
        <ele>260</ele>
        <time>2013-03-02T17:55:53Z</time>
      </trkpt>
      <trkpt lat="44.00585" lon="1.6978">
        <ele>261</ele>
        <time>2013-03-02T17:55:55Z</time>
      </trkpt>
      <trkpt lat="44.00589" lon="1.69784">
        <ele>262</ele>
        <time>2013-03-02T17:55:57Z</time>
      </trkpt>
      <trkpt lat="44.00592" lon="1.69788">
        <ele>262</ele>
        <time>2013-03-02T17:55:59Z</time>
      </trkpt>
      <trkpt lat="44.00596" lon="1.69792">
        <ele>263</ele>
        <time>2013-03-02T17:56:01Z</time>
      </trkpt>
      <trkpt lat="44.00599" lon="1.69796">
        <ele>264</ele>
        <time>2013-03-02T17:56:03Z</time>
      </trkpt>
      <trkpt lat="44.00603" lon="1.698">
        <ele>264</ele>
        <time>2013-03-02T17:56:05Z</time>
      </trkpt>
      <trkpt lat="44.00607" lon="1.69804">
        <ele>265</ele>
        <time>2013-03-02T17:56:07Z</time>
      </trkpt>
      <trkpt lat="44.00611" lon="1.69808">
        <ele>265</ele>
        <time>2013-03-02T17:56:09Z</time>
      </trkpt>
      <trkpt lat="44.00615" lon="1.69812">
        <ele>266</ele>
        <time>2013-03-02T17:56:11Z</time>
      </trkpt>
      <trkpt lat="44.0062" lon="1.69816">
        <ele>267</ele>
        <time>2013-03-02T17:56:13Z</time>
      </trkpt>
      <trkpt lat="44.00624" lon="1.6982">
        <ele>268</ele>
        <time>2013-03-02T17:56:15Z</time>
      </trkpt>
      <trkpt lat="44.00628" lon="1.69824">
        <ele>268</ele>
        <time>2013-03-02T17:56:17Z</time>
      </trkpt>
      <trkpt lat="44.00632" lon="1.69828">
        <ele>269</ele>
        <time>2013-03-02T17:56:19Z</time>
      </trkpt>
      <trkpt lat="44.00636" lon="1.69832">
        <ele>269</ele>
        <time>2013-03-02T17:56:21Z</time>
      </trkpt>
      <trkpt lat="44.0064" lon="1.69837">
        <ele>269</ele>
        <time>2013-03-02T17:56:23Z</time>
      </trkpt>
      <trkpt lat="44.00644" lon="1.69841">
        <ele>269</ele>
        <time>2013-03-02T17:56:25Z</time>
      </trkpt>
      <trkpt lat="44.00647" lon="1.69845">
        <ele>270</ele>
        <time>2013-03-02T17:56:27Z</time>
      </trkpt>
      <trkpt lat="44.00651" lon="1.69849">
        <ele>270</ele>
        <time>2013-03-02T17:56:29Z</time>
      </trkpt>
      <trkpt lat="44.00655" lon="1.69853">
        <ele>270</ele>
        <time>2013-03-02T17:56:31Z</time>
      </trkpt>
      <trkpt lat="44.00659" lon="1.69858">
        <ele>270</ele>
        <time>2013-03-02T17:56:33Z</time>
      </trkpt>
      <trkpt lat="44.00663" lon="1.69862">
        <ele>270</ele>
        <time>2013-03-02T17:56:35Z</time>
      </trkpt>
      <trkpt lat="44.00666" lon="1.69867">
        <ele>270</ele>
        <time>2013-03-02T17:56:37Z</time>
      </trkpt>
      <trkpt lat="44.0067" lon="1.69871">
        <ele>270</ele>
        <time>2013-03-02T17:56:39Z</time>
      </trkpt>
      <trkpt lat="44.00674" lon="1.69876">
        <ele>270</ele>
        <time>2013-03-02T17:56:41Z</time>
      </trkpt>
      <trkpt lat="44.00677" lon="1.6988">
        <ele>270</ele>
        <time>2013-03-02T17:56:43Z</time>
      </trkpt>
      <trkpt lat="44.00681" lon="1.69885">
        <ele>270</ele>
        <time>2013-03-02T17:56:45Z</time>
      </trkpt>
      <trkpt lat="44.00684" lon="1.6989">
        <ele>271</ele>
        <time>2013-03-02T17:56:47Z</time>
      </trkpt>
      <trkpt lat="44.00688" lon="1.69895">
        <ele>271</ele>
        <time>2013-03-02T17:56:49Z</time>
      </trkpt>
      <trkpt lat="44.00692" lon="1.69899">
        <ele>271</ele>
        <time>2013-03-02T17:56:51Z</time>
      </trkpt>
      <trkpt lat="44.00695" lon="1.69904">
        <ele>272</ele>
        <time>2013-03-02T17:56:53Z</time>
      </trkpt>
      <trkpt lat="44.00698" lon="1.69909">
        <ele>272</ele>
        <time>2013-03-02T17:56:55Z</time>
      </trkpt>
      <trkpt lat="44.00702" lon="1.69914">
        <ele>273</ele>
        <time>2013-03-02T17:56:57Z</time>
      </trkpt>
      <trkpt lat="44.00706" lon="1.69919">
        <ele>273</ele>
        <time>2013-03-02T17:56:59Z</time>
      </trkpt>
      <trkpt lat="44.0071" lon="1.69924">
        <ele>274</ele>
        <time>2013-03-02T17:57:01Z</time>
      </trkpt>
      <trkpt lat="44.00713" lon="1.6993">
        <ele>274</ele>
        <time>2013-03-02T17:57:03Z</time>
      </trkpt>
      <trkpt lat="44.00716" lon="1.69934">
        <ele>275</ele>
        <time>2013-03-02T17:57:05Z</time>
      </trkpt>
      <trkpt lat="44.0072" lon="1.69939">
        <ele>276</ele>
        <time>2013-03-02T17:57:07Z</time>
      </trkpt>
      <trkpt lat="44.00724" lon="1.69944">
        <ele>276</ele>
        <time>2013-03-02T17:57:09Z</time>
      </trkpt>
      <trkpt lat="44.00727" lon="1.69949">
        <ele>277</ele>
        <time>2013-03-02T17:57:11Z</time>
      </trkpt>
      <trkpt lat="44.00731" lon="1.69954">
        <ele>277</ele>
        <time>2013-03-02T17:57:13Z</time>
      </trkpt>
      <trkpt lat="44.00734" lon="1.69959">
        <ele>278</ele>
        <time>2013-03-02T17:57:15Z</time>
      </trkpt>
      <trkpt lat="44.00737" lon="1.69964">
        <ele>278</ele>
        <time>2013-03-02T17:57:17Z</time>
      </trkpt>
      <trkpt lat="44.00741" lon="1.69969">
        <ele>278</ele>
        <time>2013-03-02T17:57:19Z</time>
      </trkpt>
      <trkpt lat="44.00744" lon="1.69974">
        <ele>279</ele>
        <time>2013-03-02T17:57:21Z</time>
      </trkpt>
      <trkpt lat="44.00748" lon="1.69978">
        <ele>280</ele>
        <time>2013-03-02T17:57:23Z</time>
      </trkpt>
      <trkpt lat="44.00751" lon="1.69983">
        <ele>280</ele>
        <time>2013-03-02T17:57:25Z</time>
      </trkpt>
      <trkpt lat="44.00754" lon="1.69987">
        <ele>281</ele>
        <time>2013-03-02T17:57:27Z</time>
      </trkpt>
      <trkpt lat="44.00758" lon="1.69992">
        <ele>281</ele>
        <time>2013-03-02T17:57:29Z</time>
      </trkpt>
      <trkpt lat="44.00761" lon="1.69996">
        <ele>281</ele>
        <time>2013-03-02T17:57:31Z</time>
      </trkpt>
      <trkpt lat="44.00761" lon="1.69999">
        <ele>284</ele>
        <time>2013-03-02T17:57:49Z</time>
      </trkpt>
      <trkpt lat="44.00761" lon="1.70001">
        <ele>285</ele>
        <time>2013-03-02T17:58:01Z</time>
      </trkpt>
      <trkpt lat="44.00762" lon="1.70003">
        <ele>285</ele>
        <time>2013-03-02T17:58:15Z</time>
      </trkpt>
      <trkpt lat="44.00765" lon="1.70006">
        <ele>285</ele>
        <time>2013-03-02T17:58:17Z</time>
      </trkpt>
      <trkpt lat="44.00768" lon="1.7001">
        <ele>285</ele>
        <time>2013-03-02T17:58:19Z</time>
      </trkpt>
      <trkpt lat="44.00771" lon="1.70014">
        <ele>285</ele>
        <time>2013-03-02T17:58:21Z</time>
      </trkpt>
      <trkpt lat="44.00775" lon="1.70018">
        <ele>285</ele>
        <time>2013-03-02T17:58:23Z</time>
      </trkpt>
      <trkpt lat="44.00778" lon="1.70022">
        <ele>285</ele>
        <time>2013-03-02T17:58:25Z</time>
      </trkpt>
      <trkpt lat="44.00781" lon="1.70028">
        <ele>285</ele>
        <time>2013-03-02T17:58:27Z</time>
      </trkpt>
      <trkpt lat="44.00784" lon="1.70033">
        <ele>285</ele>
        <time>2013-03-02T17:58:29Z</time>
      </trkpt>
      <trkpt lat="44.00786" lon="1.70038">
        <ele>285</ele>
        <time>2013-03-02T17:58:31Z</time>
      </trkpt>
      <trkpt lat="44.00787" lon="1.70045">
        <ele>285</ele>
        <time>2013-03-02T17:58:33Z</time>
      </trkpt>
      <trkpt lat="44.00789" lon="1.70051">
        <ele>285</ele>
        <time>2013-03-02T17:58:35Z</time>
      </trkpt>
      <trkpt lat="44.00789" lon="1.70058">
        <ele>285</ele>
        <time>2013-03-02T17:58:37Z</time>
      </trkpt>
      <trkpt lat="44.0079" lon="1.70065">
        <ele>285</ele>
        <time>2013-03-02T17:58:39Z</time>
      </trkpt>
      <trkpt lat="44.0079" lon="1.70071">
        <ele>285</ele>
        <time>2013-03-02T17:58:41Z</time>
      </trkpt>
      <trkpt lat="44.00789" lon="1.70078">
        <ele>285</ele>
        <time>2013-03-02T17:58:43Z</time>
      </trkpt>
      <trkpt lat="44.0079" lon="1.70085">
        <ele>285</ele>
        <time>2013-03-02T17:58:45Z</time>
      </trkpt>
      <trkpt lat="44.00789" lon="1.70091">
        <ele>285</ele>
        <time>2013-03-02T17:58:47Z</time>
      </trkpt>
      <trkpt lat="44.00789" lon="1.70098">
        <ele>285</ele>
        <time>2013-03-02T17:58:49Z</time>
      </trkpt>
      <trkpt lat="44.00788" lon="1.70105">
        <ele>285</ele>
        <time>2013-03-02T17:58:51Z</time>
      </trkpt>
      <trkpt lat="44.00788" lon="1.70112">
        <ele>285</ele>
        <time>2013-03-02T17:58:53Z</time>
      </trkpt>
      <trkpt lat="44.00788" lon="1.70119">
        <ele>285</ele>
        <time>2013-03-02T17:58:55Z</time>
      </trkpt>
      <trkpt lat="44.00788" lon="1.70125">
        <ele>285</ele>
        <time>2013-03-02T17:58:57Z</time>
      </trkpt>
      <trkpt lat="44.00787" lon="1.70132">
        <ele>285</ele>
        <time>2013-03-02T17:58:59Z</time>
      </trkpt>
      <trkpt lat="44.00787" lon="1.70138">
        <ele>286</ele>
        <time>2013-03-02T17:59:01Z</time>
      </trkpt>
      <trkpt lat="44.00786" lon="1.70145">
        <ele>286</ele>
        <time>2013-03-02T17:59:03Z</time>
      </trkpt>
      <trkpt lat="44.00786" lon="1.70151">
        <ele>287</ele>
        <time>2013-03-02T17:59:05Z</time>
      </trkpt>
      <trkpt lat="44.00786" lon="1.70158">
        <ele>288</ele>
        <time>2013-03-02T17:59:07Z</time>
      </trkpt>
      <trkpt lat="44.00786" lon="1.70165">
        <ele>288</ele>
        <time>2013-03-02T17:59:09Z</time>
      </trkpt>
      <trkpt lat="44.00786" lon="1.70172">
        <ele>289</ele>
        <time>2013-03-02T17:59:11Z</time>
      </trkpt>
      <trkpt lat="44.00787" lon="1.70179">
        <ele>289</ele>
        <time>2013-03-02T17:59:13Z</time>
      </trkpt>
      <trkpt lat="44.00787" lon="1.70186">
        <ele>289</ele>
        <time>2013-03-02T17:59:15Z</time>
      </trkpt>
      <trkpt lat="44.00787" lon="1.70194">
        <ele>290</ele>
        <time>2013-03-02T17:59:17Z</time>
      </trkpt>
      <trkpt lat="44.00786" lon="1.70202">
        <ele>290</ele>
        <time>2013-03-02T17:59:19Z</time>
      </trkpt>
      <trkpt lat="44.00786" lon="1.7021">
        <ele>290</ele>
        <time>2013-03-02T17:59:21Z</time>
      </trkpt>
      <trkpt lat="44.00785" lon="1.70219">
        <ele>290</ele>
        <time>2013-03-02T17:59:23Z</time>
      </trkpt>
      <trkpt lat="44.00785" lon="1.70227">
        <ele>290</ele>
        <time>2013-03-02T17:59:25Z</time>
      </trkpt>
      <trkpt lat="44.00785" lon="1.70235">
        <ele>290</ele>
        <time>2013-03-02T17:59:27Z</time>
      </trkpt>
      <trkpt lat="44.00785" lon="1.70244">
        <ele>290</ele>
        <time>2013-03-02T17:59:29Z</time>
      </trkpt>
      <trkpt lat="44.00785" lon="1.70252">
        <ele>290</ele>
        <time>2013-03-02T17:59:31Z</time>
      </trkpt>
      <trkpt lat="44.00786" lon="1.70261">
        <ele>290</ele>
        <time>2013-03-02T17:59:33Z</time>
      </trkpt>
      <trkpt lat="44.00787" lon="1.70268">
        <ele>290</ele>
        <time>2013-03-02T17:59:35Z</time>
      </trkpt>
      <trkpt lat="44.00789" lon="1.70276">
        <ele>290</ele>
        <time>2013-03-02T17:59:37Z</time>
      </trkpt>
      <trkpt lat="44.00792" lon="1.70285">
        <ele>290</ele>
        <time>2013-03-02T17:59:39Z</time>
      </trkpt>
      <trkpt lat="44.00796" lon="1.70294">
        <ele>290</ele>
        <time>2013-03-02T17:59:41Z</time>
      </trkpt>
      <trkpt lat="44.00801" lon="1.70303">
        <ele>290</ele>
        <time>2013-03-02T17:59:43Z</time>
      </trkpt>
      <trkpt lat="44.00807" lon="1.70311">
        <ele>290</ele>
        <time>2013-03-02T17:59:45Z</time>
      </trkpt>
      <trkpt lat="44.00813" lon="1.70319">
        <ele>290</ele>
        <time>2013-03-02T17:59:47Z</time>
      </trkpt>
      <trkpt lat="44.00818" lon="1.70327">
        <ele>290</ele>
        <time>2013-03-02T17:59:49Z</time>
      </trkpt>
      <trkpt lat="44.00823" lon="1.70334">
        <ele>290</ele>
        <time>2013-03-02T17:59:51Z</time>
      </trkpt>
      <trkpt lat="44.00828" lon="1.7034">
        <ele>291</ele>
        <time>2013-03-02T17:59:53Z</time>
      </trkpt>
      <trkpt lat="44.00833" lon="1.70345">
        <ele>291</ele>
        <time>2013-03-02T17:59:55Z</time>
      </trkpt>
      <trkpt lat="44.00838" lon="1.70352">
        <ele>292</ele>
        <time>2013-03-02T17:59:57Z</time>
      </trkpt>
      <trkpt lat="44.00844" lon="1.70358">
        <ele>292</ele>
        <time>2013-03-02T17:59:59Z</time>
      </trkpt>
      <trkpt lat="44.00849" lon="1.70364">
        <ele>293</ele>
        <time>2013-03-02T18:00:01Z</time>
      </trkpt>
      <trkpt lat="44.00853" lon="1.70371">
        <ele>293</ele>
        <time>2013-03-02T18:00:03Z</time>
      </trkpt>
      <trkpt lat="44.00856" lon="1.70377">
        <ele>293</ele>
        <time>2013-03-02T18:00:05Z</time>
      </trkpt>
      <trkpt lat="44.00859" lon="1.70384">
        <ele>294</ele>
        <time>2013-03-02T18:00:07Z</time>
      </trkpt>
      <trkpt lat="44.00862" lon="1.7039">
        <ele>294</ele>
        <time>2013-03-02T18:00:09Z</time>
      </trkpt>
      <trkpt lat="44.00865" lon="1.70396">
        <ele>294</ele>
        <time>2013-03-02T18:00:11Z</time>
      </trkpt>
      <trkpt lat="44.00869" lon="1.70402">
        <ele>294</ele>
        <time>2013-03-02T18:00:13Z</time>
      </trkpt>
      <trkpt lat="44.00872" lon="1.70407">
        <ele>295</ele>
        <time>2013-03-02T18:00:15Z</time>
      </trkpt>
      <trkpt lat="44.00875" lon="1.70413">
        <ele>295</ele>
        <time>2013-03-02T18:00:17Z</time>
      </trkpt>
      <trkpt lat="44.00879" lon="1.70417">
        <ele>296</ele>
        <time>2013-03-02T18:00:19Z</time>
      </trkpt>
      <trkpt lat="44.00883" lon="1.70422">
        <ele>296</ele>
        <time>2013-03-02T18:00:21Z</time>
      </trkpt>
      <trkpt lat="44.00887" lon="1.70428">
        <ele>296</ele>
        <time>2013-03-02T18:00:23Z</time>
      </trkpt>
      <trkpt lat="44.0089" lon="1.70434">
        <ele>296</ele>
        <time>2013-03-02T18:00:25Z</time>
      </trkpt>
      <trkpt lat="44.00894" lon="1.70441">
        <ele>296</ele>
        <time>2013-03-02T18:00:27Z</time>
      </trkpt>
      <trkpt lat="44.00897" lon="1.70448">
        <ele>296</ele>
        <time>2013-03-02T18:00:29Z</time>
      </trkpt>
      <trkpt lat="44.00901" lon="1.70455">
        <ele>296</ele>
        <time>2013-03-02T18:00:31Z</time>
      </trkpt>
      <trkpt lat="44.00903" lon="1.70462">
        <ele>296</ele>
        <time>2013-03-02T18:00:33Z</time>
      </trkpt>
      <trkpt lat="44.00906" lon="1.70469">
        <ele>296</ele>
        <time>2013-03-02T18:00:35Z</time>
      </trkpt>
      <trkpt lat="44.0091" lon="1.70476">
        <ele>297</ele>
        <time>2013-03-02T18:00:37Z</time>
      </trkpt>
      <trkpt lat="44.00913" lon="1.70483">
        <ele>297</ele>
        <time>2013-03-02T18:00:39Z</time>
      </trkpt>
      <trkpt lat="44.00917" lon="1.70491">
        <ele>297</ele>
        <time>2013-03-02T18:00:41Z</time>
      </trkpt>
      <trkpt lat="44.00921" lon="1.70499">
        <ele>297</ele>
        <time>2013-03-02T18:00:43Z</time>
      </trkpt>
      <trkpt lat="44.00926" lon="1.70507">
        <ele>297</ele>
        <time>2013-03-02T18:00:45Z</time>
      </trkpt>
      <trkpt lat="44.00931" lon="1.70516">
        <ele>297</ele>
        <time>2013-03-02T18:00:47Z</time>
      </trkpt>
      <trkpt lat="44.00936" lon="1.70525">
        <ele>297</ele>
        <time>2013-03-02T18:00:49Z</time>
      </trkpt>
      <trkpt lat="44.00942" lon="1.70533">
        <ele>297</ele>
        <time>2013-03-02T18:00:51Z</time>
      </trkpt>
      <trkpt lat="44.00948" lon="1.70543">
        <ele>297</ele>
        <time>2013-03-02T18:00:53Z</time>
      </trkpt>
      <trkpt lat="44.00954" lon="1.70553">
        <ele>297</ele>
        <time>2013-03-02T18:00:55Z</time>
      </trkpt>
      <trkpt lat="44.00959" lon="1.70564">
        <ele>297</ele>
        <time>2013-03-02T18:00:57Z</time>
      </trkpt>
      <trkpt lat="44.00965" lon="1.70574">
        <ele>297</ele>
        <time>2013-03-02T18:00:59Z</time>
      </trkpt>
      <trkpt lat="44.00971" lon="1.70584">
        <ele>297</ele>
        <time>2013-03-02T18:01:01Z</time>
      </trkpt>
      <trkpt lat="44.00977" lon="1.70594">
        <ele>297</ele>
        <time>2013-03-02T18:01:03Z</time>
      </trkpt>
      <trkpt lat="44.00983" lon="1.70604">
        <ele>297</ele>
        <time>2013-03-02T18:01:05Z</time>
      </trkpt>
      <trkpt lat="44.0099" lon="1.70615">
        <ele>297</ele>
        <time>2013-03-02T18:01:07Z</time>
      </trkpt>
      <trkpt lat="44.00996" lon="1.70625">
        <ele>297</ele>
        <time>2013-03-02T18:01:09Z</time>
      </trkpt>
      <trkpt lat="44.01003" lon="1.70636">
        <ele>297</ele>
        <time>2013-03-02T18:01:11Z</time>
      </trkpt>
      <trkpt lat="44.0101" lon="1.70647">
        <ele>297</ele>
        <time>2013-03-02T18:01:13Z</time>
      </trkpt>
      <trkpt lat="44.01017" lon="1.70658">
        <ele>297</ele>
        <time>2013-03-02T18:01:15Z</time>
      </trkpt>
      <trkpt lat="44.01024" lon="1.7067">
        <ele>297</ele>
        <time>2013-03-02T18:01:17Z</time>
      </trkpt>
      <trkpt lat="44.01032" lon="1.70682">
        <ele>297</ele>
        <time>2013-03-02T18:01:19Z</time>
      </trkpt>
      <trkpt lat="44.01039" lon="1.70695">
        <ele>297</ele>
        <time>2013-03-02T18:01:21Z</time>
      </trkpt>
      <trkpt lat="44.01045" lon="1.7071">
        <ele>297</ele>
        <time>2013-03-02T18:01:23Z</time>
      </trkpt>
      <trkpt lat="44.01051" lon="1.70725">
        <ele>297</ele>
        <time>2013-03-02T18:01:25Z</time>
      </trkpt>
      <trkpt lat="44.01057" lon="1.7074">
        <ele>296</ele>
        <time>2013-03-02T18:01:27Z</time>
      </trkpt>
      <trkpt lat="44.01062" lon="1.70757">
        <ele>296</ele>
        <time>2013-03-02T18:01:29Z</time>
      </trkpt>
      <trkpt lat="44.01068" lon="1.70774">
        <ele>295</ele>
        <time>2013-03-02T18:01:31Z</time>
      </trkpt>
      <trkpt lat="44.01074" lon="1.7079">
        <ele>295</ele>
        <time>2013-03-02T18:01:33Z</time>
      </trkpt>
      <trkpt lat="44.0108" lon="1.70806">
        <ele>295</ele>
        <time>2013-03-02T18:01:35Z</time>
      </trkpt>
      <trkpt lat="44.01088" lon="1.70818">
        <ele>295</ele>
        <time>2013-03-02T18:01:37Z</time>
      </trkpt>
      <trkpt lat="44.01098" lon="1.70826">
        <ele>295</ele>
        <time>2013-03-02T18:01:39Z</time>
      </trkpt>
      <trkpt lat="44.01108" lon="1.7083">
        <ele>295</ele>
        <time>2013-03-02T18:01:41Z</time>
      </trkpt>
      <trkpt lat="44.01117" lon="1.70831">
        <ele>295</ele>
        <time>2013-03-02T18:01:43Z</time>
      </trkpt>
      <trkpt lat="44.01125" lon="1.7083">
        <ele>295</ele>
        <time>2013-03-02T18:01:45Z</time>
      </trkpt>
      <trkpt lat="44.01133" lon="1.70829">
        <ele>295</ele>
        <time>2013-03-02T18:01:47Z</time>
      </trkpt>
      <trkpt lat="44.0114" lon="1.70826">
        <ele>295</ele>
        <time>2013-03-02T18:01:49Z</time>
      </trkpt>
      <trkpt lat="44.01147" lon="1.70824">
        <ele>295</ele>
        <time>2013-03-02T18:01:51Z</time>
      </trkpt>
      <trkpt lat="44.01153" lon="1.70821">
        <ele>295</ele>
        <time>2013-03-02T18:01:53Z</time>
      </trkpt>
      <trkpt lat="44.01158" lon="1.70819">
        <ele>295</ele>
        <time>2013-03-02T18:01:55Z</time>
      </trkpt>
      <trkpt lat="44.01163" lon="1.70817">
        <ele>295</ele>
        <time>2013-03-02T18:01:57Z</time>
      </trkpt>
      <trkpt lat="44.01167" lon="1.70816">
        <ele>295</ele>
        <time>2013-03-02T18:01:59Z</time>
      </trkpt>
      <trkpt lat="44.01171" lon="1.70815">
        <ele>295</ele>
        <time>2013-03-02T18:02:01Z</time>
      </trkpt>
      <trkpt lat="44.01173" lon="1.70812">
        <ele>295</ele>
        <time>2013-03-02T18:02:03Z</time>
      </trkpt>
      <trkpt lat="44.01175" lon="1.70807">
        <ele>295</ele>
        <time>2013-03-02T18:02:05Z</time>
      </trkpt>
      <trkpt lat="44.01177" lon="1.70799">
        <ele>295</ele>
        <time>2013-03-02T18:02:07Z</time>
      </trkpt>
      <trkpt lat="44.01181" lon="1.70791">
        <ele>295</ele>
        <time>2013-03-02T18:02:09Z</time>
      </trkpt>
      <trkpt lat="44.01185" lon="1.70784">
        <ele>295</ele>
        <time>2013-03-02T18:02:11Z</time>
      </trkpt>
      <trkpt lat="44.01189" lon="1.7078">
        <ele>295</ele>
        <time>2013-03-02T18:02:13Z</time>
      </trkpt>
      <trkpt lat="44.01194" lon="1.70774">
        <ele>295</ele>
        <time>2013-03-02T18:02:15Z</time>
      </trkpt>
      <trkpt lat="44.01198" lon="1.70768">
        <ele>295</ele>
        <time>2013-03-02T18:02:17Z</time>
      </trkpt>
      <trkpt lat="44.01202" lon="1.70761">
        <ele>295</ele>
        <time>2013-03-02T18:02:19Z</time>
      </trkpt>
      <trkpt lat="44.01208" lon="1.70755">
        <ele>295</ele>
        <time>2013-03-02T18:02:21Z</time>
      </trkpt>
      <trkpt lat="44.01214" lon="1.70749">
        <ele>295</ele>
        <time>2013-03-02T18:02:23Z</time>
      </trkpt>
      <trkpt lat="44.0122" lon="1.70745">
        <ele>295</ele>
        <time>2013-03-02T18:02:25Z</time>
      </trkpt>
      <trkpt lat="44.01225" lon="1.7074">
        <ele>295</ele>
        <time>2013-03-02T18:02:27Z</time>
      </trkpt>
      <trkpt lat="44.01228" lon="1.70735">
        <ele>295</ele>
        <time>2013-03-02T18:02:29Z</time>
      </trkpt>
      <trkpt lat="44.01231" lon="1.7073">
        <ele>295</ele>
        <time>2013-03-02T18:02:31Z</time>
      </trkpt>
      <trkpt lat="44.01235" lon="1.70724">
        <ele>294</ele>
        <time>2013-03-02T18:02:33Z</time>
      </trkpt>
      <trkpt lat="44.0124" lon="1.70718">
        <ele>293</ele>
        <time>2013-03-02T18:02:35Z</time>
      </trkpt>
      <trkpt lat="44.01246" lon="1.70712">
        <ele>291</ele>
        <time>2013-03-02T18:02:37Z</time>
      </trkpt>
      <trkpt lat="44.01253" lon="1.70706">
        <ele>291</ele>
        <time>2013-03-02T18:02:39Z</time>
      </trkpt>
      <trkpt lat="44.0126" lon="1.70701">
        <ele>290</ele>
        <time>2013-03-02T18:02:41Z</time>
      </trkpt>
      <trkpt lat="44.01266" lon="1.70695">
        <ele>290</ele>
        <time>2013-03-02T18:02:43Z</time>
      </trkpt>
      <trkpt lat="44.01273" lon="1.70688">
        <ele>290</ele>
        <time>2013-03-02T18:02:45Z</time>
      </trkpt>
      <trkpt lat="44.01281" lon="1.70682">
        <ele>290</ele>
        <time>2013-03-02T18:02:47Z</time>
      </trkpt>
      <trkpt lat="44.01289" lon="1.70676">
        <ele>290</ele>
        <time>2013-03-02T18:02:49Z</time>
      </trkpt>
      <trkpt lat="44.01294" lon="1.70668">
        <ele>289</ele>
        <time>2013-03-02T18:02:51Z</time>
      </trkpt>
      <trkpt lat="44.01298" lon="1.70662">
        <ele>289</ele>
        <time>2013-03-02T18:02:53Z</time>
      </trkpt>
      <trkpt lat="44.01303" lon="1.70656">
        <ele>288</ele>
        <time>2013-03-02T18:02:55Z</time>
      </trkpt>
      <trkpt lat="44.01308" lon="1.7065">
        <ele>288</ele>
        <time>2013-03-02T18:02:57Z</time>
      </trkpt>
      <trkpt lat="44.01313" lon="1.70646">
        <ele>288</ele>
        <time>2013-03-02T18:02:59Z</time>
      </trkpt>
      <trkpt lat="44.01316" lon="1.70642">
        <ele>288</ele>
        <time>2013-03-02T18:03:01Z</time>
      </trkpt>
      <trkpt lat="44.01321" lon="1.70637">
        <ele>288</ele>
        <time>2013-03-02T18:03:03Z</time>
      </trkpt>
      <trkpt lat="44.01326" lon="1.70633">
        <ele>288</ele>
        <time>2013-03-02T18:03:05Z</time>
      </trkpt>
      <trkpt lat="44.0133" lon="1.70628">
        <ele>290</ele>
        <time>2013-03-02T18:03:07Z</time>
      </trkpt>
      <trkpt lat="44.01334" lon="1.70621">
        <ele>291</ele>
        <time>2013-03-02T18:03:09Z</time>
      </trkpt>
      <trkpt lat="44.01337" lon="1.70614">
        <ele>291</ele>
        <time>2013-03-02T18:03:11Z</time>
      </trkpt>
      <trkpt lat="44.01339" lon="1.70609">
        <ele>291</ele>
        <time>2013-03-02T18:03:13Z</time>
      </trkpt>
      <trkpt lat="44.01341" lon="1.70607">
        <ele>291</ele>
        <time>2013-03-02T18:03:16Z</time>
      </trkpt>
      <trkpt lat="44.01342" lon="1.70606">
        <ele>295</ele>
        <time>2013-03-02T18:03:29Z</time>
      </trkpt>
      <trkpt lat="44.01341" lon="1.70605">
        <ele>296</ele>
        <time>2013-03-02T18:03:35Z</time>
      </trkpt>
      <trkpt lat="44.01339" lon="1.70605">
        <ele>297</ele>
        <time>2013-03-02T18:03:39Z</time>
      </trkpt>
      <trkpt lat="44.01338" lon="1.70605">
        <ele>298</ele>
        <time>2013-03-02T18:03:52Z</time>
      </trkpt>
      <trkpt lat="44.01337" lon="1.70603">
        <ele>301</ele>
        <time>2013-03-02T18:03:55Z</time>
      </trkpt>
      <trkpt lat="44.01338" lon="1.70603">
        <ele>302</ele>
        <time>2013-03-02T18:04:06Z</time>
      </trkpt>
      <trkpt lat="44.01339" lon="1.70602">
        <ele>302</ele>
        <time>2013-03-02T18:04:09Z</time>
      </trkpt>
      <trkpt lat="44.0134" lon="1.706">
        <ele>302</ele>
        <time>2013-03-02T18:04:17Z</time>
      </trkpt>
      <trkpt lat="44.0134" lon="1.70599">
        <ele>302</ele>
        <time>2013-03-02T18:04:28Z</time>
      </trkpt>
      <trkpt lat="44.0134" lon="1.706">
        <ele>302</ele>
        <time>2013-03-02T18:04:35Z</time>
      </trkpt>
      <trkpt lat="44.01341" lon="1.70602">
        <ele>302</ele>
        <time>2013-03-02T18:04:42Z</time>
      </trkpt>
      <trkpt lat="44.01342" lon="1.70603">
        <ele>301</ele>
        <time>2013-03-02T18:04:45Z</time>
      </trkpt>
      <trkpt lat="44.01342" lon="1.70605">
        <ele>300</ele>
        <time>2013-03-02T18:04:56Z</time>
      </trkpt>
      <trkpt lat="44.01341" lon="1.70606">
        <ele>300</ele>
        <time>2013-03-02T18:05:07Z</time>
      </trkpt>
      <trkpt lat="44.0134" lon="1.70605">
        <ele>300</ele>
        <time>2013-03-02T18:05:10Z</time>
      </trkpt>
      <trkpt lat="44.01339" lon="1.70605">
        <ele>300</ele>
        <time>2013-03-02T18:05:12Z</time>
      </trkpt>
      <trkpt lat="44.01337" lon="1.70605">
        <ele>300</ele>
        <time>2013-03-02T18:05:14Z</time>
      </trkpt>
      <trkpt lat="44.01334" lon="1.70605">
        <ele>300</ele>
        <time>2013-03-02T18:05:16Z</time>
      </trkpt>
      <trkpt lat="44.01333" lon="1.70605">
        <ele>301</ele>
        <time>2013-03-02T18:05:19Z</time>
      </trkpt>
      <trkpt lat="44.01332" lon="1.70605">
        <ele>303</ele>
        <time>2013-03-02T18:05:22Z</time>
      </trkpt>
      <trkpt lat="44.0133" lon="1.70605">
        <ele>304</ele>
        <time>2013-03-02T18:05:25Z</time>
      </trkpt>
      <trkpt lat="44.01329" lon="1.70604">
        <ele>305</ele>
        <time>2013-03-02T18:05:27Z</time>
      </trkpt>
      <trkpt lat="44.01327" lon="1.70604">
        <ele>305</ele>
        <time>2013-03-02T18:05:30Z</time>
      </trkpt>
      <trkpt lat="44.01329" lon="1.70604">
        <ele>305</ele>
        <time>2013-03-02T18:05:34Z</time>
      </trkpt>
      <trkpt lat="44.0133" lon="1.70603">
        <ele>305</ele>
        <time>2013-03-02T18:05:36Z</time>
      </trkpt>
      <trkpt lat="44.01334" lon="1.706">
        <ele>305</ele>
        <time>2013-03-02T18:05:38Z</time>
      </trkpt>
      <trkpt lat="44.01339" lon="1.70596">
        <ele>305</ele>
        <time>2013-03-02T18:05:40Z</time>
      </trkpt>
      <trkpt lat="44.01345" lon="1.70591">
        <ele>305</ele>
        <time>2013-03-02T18:05:42Z</time>
      </trkpt>
      <trkpt lat="44.01352" lon="1.70586">
        <ele>305</ele>
        <time>2013-03-02T18:05:44Z</time>
      </trkpt>
      <trkpt lat="44.01357" lon="1.70581">
        <ele>305</ele>
        <time>2013-03-02T18:05:46Z</time>
      </trkpt>
      <trkpt lat="44.01362" lon="1.70576">
        <ele>303</ele>
        <time>2013-03-02T18:05:48Z</time>
      </trkpt>
      <trkpt lat="44.01368" lon="1.70571">
        <ele>302</ele>
        <time>2013-03-02T18:05:50Z</time>
      </trkpt>
      <trkpt lat="44.01378" lon="1.70566">
        <ele>300</ele>
        <time>2013-03-02T18:05:52Z</time>
      </trkpt>
      <trkpt lat="44.01387" lon="1.70561">
        <ele>300</ele>
        <time>2013-03-02T18:05:54Z</time>
      </trkpt>
      <trkpt lat="44.01396" lon="1.70557">
        <ele>299</ele>
        <time>2013-03-02T18:05:56Z</time>
      </trkpt>
      <trkpt lat="44.01406" lon="1.70554">
        <ele>298</ele>
        <time>2013-03-02T18:05:58Z</time>
      </trkpt>
      <trkpt lat="44.01416" lon="1.70551">
        <ele>297</ele>
        <time>2013-03-02T18:06:00Z</time>
      </trkpt>
      <trkpt lat="44.01426" lon="1.70552">
        <ele>297</ele>
        <time>2013-03-02T18:06:02Z</time>
      </trkpt>
      <trkpt lat="44.01437" lon="1.70554">
        <ele>296</ele>
        <time>2013-03-02T18:06:04Z</time>
      </trkpt>
      <trkpt lat="44.01447" lon="1.7056">
        <ele>296</ele>
        <time>2013-03-02T18:06:06Z</time>
      </trkpt>
      <trkpt lat="44.01458" lon="1.70564">
        <ele>296</ele>
        <time>2013-03-02T18:06:08Z</time>
      </trkpt>
      <trkpt lat="44.0147" lon="1.70565">
        <ele>296</ele>
        <time>2013-03-02T18:06:10Z</time>
      </trkpt>
      <trkpt lat="44.01482" lon="1.70562">
        <ele>296</ele>
        <time>2013-03-02T18:06:12Z</time>
      </trkpt>
      <trkpt lat="44.01493" lon="1.70559">
        <ele>296</ele>
        <time>2013-03-02T18:06:14Z</time>
      </trkpt>
      <trkpt lat="44.01502" lon="1.70554">
        <ele>296</ele>
        <time>2013-03-02T18:06:16Z</time>
      </trkpt>
      <trkpt lat="44.01511" lon="1.70548">
        <ele>296</ele>
        <time>2013-03-02T18:06:18Z</time>
      </trkpt>
      <trkpt lat="44.01521" lon="1.70542">
        <ele>296</ele>
        <time>2013-03-02T18:06:20Z</time>
      </trkpt>
      <trkpt lat="44.0153" lon="1.70535">
        <ele>295</ele>
        <time>2013-03-02T18:06:22Z</time>
      </trkpt>
      <trkpt lat="44.01539" lon="1.70526">
        <ele>295</ele>
        <time>2013-03-02T18:06:24Z</time>
      </trkpt>
      <trkpt lat="44.01547" lon="1.70516">
        <ele>294</ele>
        <time>2013-03-02T18:06:26Z</time>
      </trkpt>
      <trkpt lat="44.01556" lon="1.70505">
        <ele>294</ele>
        <time>2013-03-02T18:06:28Z</time>
      </trkpt>
      <trkpt lat="44.01561" lon="1.70493">
        <ele>294</ele>
        <time>2013-03-02T18:06:30Z</time>
      </trkpt>
      <trkpt lat="44.01569" lon="1.70482">
        <ele>294</ele>
        <time>2013-03-02T18:06:32Z</time>
      </trkpt>
      <trkpt lat="44.01577" lon="1.70473">
        <ele>294</ele>
        <time>2013-03-02T18:06:34Z</time>
      </trkpt>
      <trkpt lat="44.01585" lon="1.70467">
        <ele>294</ele>
        <time>2013-03-02T18:06:36Z</time>
      </trkpt>
      <trkpt lat="44.01596" lon="1.70465">
        <ele>294</ele>
        <time>2013-03-02T18:06:38Z</time>
      </trkpt>
      <trkpt lat="44.01606" lon="1.70463">
        <ele>294</ele>
        <time>2013-03-02T18:06:40Z</time>
      </trkpt>
      <trkpt lat="44.01617" lon="1.7046">
        <ele>294</ele>
        <time>2013-03-02T18:06:42Z</time>
      </trkpt>
      <trkpt lat="44.01627" lon="1.70458">
        <ele>294</ele>
        <time>2013-03-02T18:06:44Z</time>
      </trkpt>
      <trkpt lat="44.01637" lon="1.70453">
        <ele>294</ele>
        <time>2013-03-02T18:06:46Z</time>
      </trkpt>
      <trkpt lat="44.01646" lon="1.70446">
        <ele>294</ele>
        <time>2013-03-02T18:06:48Z</time>
      </trkpt>
      <trkpt lat="44.01654" lon="1.70439">
        <ele>294</ele>
        <time>2013-03-02T18:06:50Z</time>
      </trkpt>
      <trkpt lat="44.01662" lon="1.70429">
        <ele>294</ele>
        <time>2013-03-02T18:06:52Z</time>
      </trkpt>
      <trkpt lat="44.01668" lon="1.70419">
        <ele>294</ele>
        <time>2013-03-02T18:06:54Z</time>
      </trkpt>
      <trkpt lat="44.01673" lon="1.70408">
        <ele>293</ele>
        <time>2013-03-02T18:06:56Z</time>
      </trkpt>
      <trkpt lat="44.01677" lon="1.70397">
        <ele>292</ele>
        <time>2013-03-02T18:06:58Z</time>
      </trkpt>
      <trkpt lat="44.01682" lon="1.70383">
        <ele>291</ele>
        <time>2013-03-02T18:07:00Z</time>
      </trkpt>
      <trkpt lat="44.01689" lon="1.70371">
        <ele>291</ele>
        <time>2013-03-02T18:07:02Z</time>
      </trkpt>
      <trkpt lat="44.01701" lon="1.70364">
        <ele>290</ele>
        <time>2013-03-02T18:07:04Z</time>
      </trkpt>
      <trkpt lat="44.01714" lon="1.70359">
        <ele>289</ele>
        <time>2013-03-02T18:07:06Z</time>
      </trkpt>
      <trkpt lat="44.01728" lon="1.70353">
        <ele>288</ele>
        <time>2013-03-02T18:07:08Z</time>
      </trkpt>
      <trkpt lat="44.01743" lon="1.7035">
        <ele>287</ele>
        <time>2013-03-02T18:07:10Z</time>
      </trkpt>
      <trkpt lat="44.01758" lon="1.70349">
        <ele>286</ele>
        <time>2013-03-02T18:07:12Z</time>
      </trkpt>
      <trkpt lat="44.01775" lon="1.70355">
        <ele>284</ele>
        <time>2013-03-02T18:07:14Z</time>
      </trkpt>
      <trkpt lat="44.0179" lon="1.70368">
        <ele>282</ele>
        <time>2013-03-02T18:07:16Z</time>
      </trkpt>
      <trkpt lat="44.01804" lon="1.70382">
        <ele>280</ele>
        <time>2013-03-02T18:07:18Z</time>
      </trkpt>
      <trkpt lat="44.01818" lon="1.70393">
        <ele>278</ele>
        <time>2013-03-02T18:07:20Z</time>
      </trkpt>
      <trkpt lat="44.0183" lon="1.70394">
        <ele>276</ele>
        <time>2013-03-02T18:07:22Z</time>
      </trkpt>
      <trkpt lat="44.01839" lon="1.70384">
        <ele>274</ele>
        <time>2013-03-02T18:07:24Z</time>
      </trkpt>
      <trkpt lat="44.01848" lon="1.70371">
        <ele>272</ele>
        <time>2013-03-02T18:07:26Z</time>
      </trkpt>
      <trkpt lat="44.0186" lon="1.70361">
        <ele>271</ele>
        <time>2013-03-02T18:07:28Z</time>
      </trkpt>
      <trkpt lat="44.01874" lon="1.70354">
        <ele>270</ele>
        <time>2013-03-02T18:07:30Z</time>
      </trkpt>
      <trkpt lat="44.0189" lon="1.70351">
        <ele>269</ele>
        <time>2013-03-02T18:07:32Z</time>
      </trkpt>
      <trkpt lat="44.01907" lon="1.7035">
        <ele>269</ele>
        <time>2013-03-02T18:07:34Z</time>
      </trkpt>
      <trkpt lat="44.01923" lon="1.70351">
        <ele>269</ele>
        <time>2013-03-02T18:07:36Z</time>
      </trkpt>
      <trkpt lat="44.0194" lon="1.70353">
        <ele>269</ele>
        <time>2013-03-02T18:07:38Z</time>
      </trkpt>
      <trkpt lat="44.01958" lon="1.70355">
        <ele>269</ele>
        <time>2013-03-02T18:07:40Z</time>
      </trkpt>
      <trkpt lat="44.01975" lon="1.7036">
        <ele>269</ele>
        <time>2013-03-02T18:07:42Z</time>
      </trkpt>
      <trkpt lat="44.01991" lon="1.70368">
        <ele>269</ele>
        <time>2013-03-02T18:07:44Z</time>
      </trkpt>
      <trkpt lat="44.02006" lon="1.70376">
        <ele>269</ele>
        <time>2013-03-02T18:07:46Z</time>
      </trkpt>
      <trkpt lat="44.0202" lon="1.70383">
        <ele>269</ele>
        <time>2013-03-02T18:07:48Z</time>
      </trkpt>
      <trkpt lat="44.02035" lon="1.70387">
        <ele>269</ele>
        <time>2013-03-02T18:07:50Z</time>
      </trkpt>
      <trkpt lat="44.0205" lon="1.70391">
        <ele>269</ele>
        <time>2013-03-02T18:07:52Z</time>
      </trkpt>
      <trkpt lat="44.02064" lon="1.70395">
        <ele>269</ele>
        <time>2013-03-02T18:07:54Z</time>
      </trkpt>
      <trkpt lat="44.02079" lon="1.70397">
        <ele>269</ele>
        <time>2013-03-02T18:07:56Z</time>
      </trkpt>
      <trkpt lat="44.02095" lon="1.704">
        <ele>269</ele>
        <time>2013-03-02T18:07:58Z</time>
      </trkpt>
      <trkpt lat="44.02111" lon="1.70404">
        <ele>269</ele>
        <time>2013-03-02T18:08:00Z</time>
      </trkpt>
      <trkpt lat="44.02126" lon="1.70413">
        <ele>268</ele>
        <time>2013-03-02T18:08:02Z</time>
      </trkpt>
      <trkpt lat="44.02137" lon="1.70429">
        <ele>267</ele>
        <time>2013-03-02T18:08:04Z</time>
      </trkpt>
      <trkpt lat="44.02141" lon="1.70447">
        <ele>266</ele>
        <time>2013-03-02T18:08:06Z</time>
      </trkpt>
      <trkpt lat="44.02145" lon="1.70461">
        <ele>265</ele>
        <time>2013-03-02T18:08:08Z</time>
      </trkpt>
      <trkpt lat="44.02152" lon="1.70461">
        <ele>265</ele>
        <time>2013-03-02T18:08:10Z</time>
      </trkpt>
      <trkpt lat="44.02158" lon="1.70451">
        <ele>264</ele>
        <time>2013-03-02T18:08:12Z</time>
      </trkpt>
      <trkpt lat="44.02162" lon="1.70442">
        <ele>262</ele>
        <time>2013-03-02T18:08:14Z</time>
      </trkpt>
      <trkpt lat="44.02166" lon="1.70432">
        <ele>261</ele>
        <time>2013-03-02T18:08:16Z</time>
      </trkpt>
      <trkpt lat="44.02171" lon="1.70424">
        <ele>261</ele>
        <time>2013-03-02T18:08:18Z</time>
      </trkpt>
      <trkpt lat="44.02177" lon="1.70418">
        <ele>261</ele>
        <time>2013-03-02T18:08:20Z</time>
      </trkpt>
      <trkpt lat="44.02184" lon="1.70414">
        <ele>261</ele>
        <time>2013-03-02T18:08:22Z</time>
      </trkpt>
      <trkpt lat="44.02193" lon="1.70413">
        <ele>261</ele>
        <time>2013-03-02T18:08:24Z</time>
      </trkpt>
      <trkpt lat="44.022" lon="1.70415">
        <ele>261</ele>
        <time>2013-03-02T18:08:26Z</time>
      </trkpt>
      <trkpt lat="44.02207" lon="1.70418">
        <ele>261</ele>
        <time>2013-03-02T18:08:28Z</time>
      </trkpt>
      <trkpt lat="44.02212" lon="1.70422">
        <ele>262</ele>
        <time>2013-03-02T18:08:30Z</time>
      </trkpt>
      <trkpt lat="44.02217" lon="1.70428">
        <ele>263</ele>
        <time>2013-03-02T18:08:32Z</time>
      </trkpt>
      <trkpt lat="44.02222" lon="1.70433">
        <ele>264</ele>
        <time>2013-03-02T18:08:34Z</time>
      </trkpt>
      <trkpt lat="44.02226" lon="1.70439">
        <ele>264</ele>
        <time>2013-03-02T18:08:36Z</time>
      </trkpt>
      <trkpt lat="44.0223" lon="1.70444">
        <ele>264</ele>
        <time>2013-03-02T18:08:38Z</time>
      </trkpt>
      <trkpt lat="44.02235" lon="1.7045">
        <ele>264</ele>
        <time>2013-03-02T18:08:40Z</time>
      </trkpt>
      <trkpt lat="44.0224" lon="1.70455">
        <ele>264</ele>
        <time>2013-03-02T18:08:42Z</time>
      </trkpt>
      <trkpt lat="44.02244" lon="1.70461">
        <ele>265</ele>
        <time>2013-03-02T18:08:44Z</time>
      </trkpt>
      <trkpt lat="44.02249" lon="1.70466">
        <ele>265</ele>
        <time>2013-03-02T18:08:46Z</time>
      </trkpt>
      <trkpt lat="44.02254" lon="1.70471">
        <ele>265</ele>
        <time>2013-03-02T18:08:48Z</time>
      </trkpt>
      <trkpt lat="44.02258" lon="1.70477">
        <ele>265</ele>
        <time>2013-03-02T18:08:50Z</time>
      </trkpt>
      <trkpt lat="44.02262" lon="1.70483">
        <ele>265</ele>
        <time>2013-03-02T18:08:52Z</time>
      </trkpt>
      <trkpt lat="44.02266" lon="1.70491">
        <ele>266</ele>
        <time>2013-03-02T18:08:54Z</time>
      </trkpt>
      <trkpt lat="44.0227" lon="1.70497">
        <ele>267</ele>
        <time>2013-03-02T18:08:56Z</time>
      </trkpt>
      <trkpt lat="44.02274" lon="1.70504">
        <ele>269</ele>
        <time>2013-03-02T18:08:58Z</time>
      </trkpt>
      <trkpt lat="44.02277" lon="1.7051">
        <ele>269</ele>
        <time>2013-03-02T18:09:00Z</time>
      </trkpt>
      <trkpt lat="44.02281" lon="1.70515">
        <ele>270</ele>
        <time>2013-03-02T18:09:02Z</time>
      </trkpt>
      <trkpt lat="44.02284" lon="1.7052">
        <ele>270</ele>
        <time>2013-03-02T18:09:04Z</time>
      </trkpt>
      <trkpt lat="44.02287" lon="1.70525">
        <ele>270</ele>
        <time>2013-03-02T18:09:06Z</time>
      </trkpt>
      <trkpt lat="44.0229" lon="1.7053">
        <ele>270</ele>
        <time>2013-03-02T18:09:08Z</time>
      </trkpt>
      <trkpt lat="44.02293" lon="1.70534">
        <ele>271</ele>
        <time>2013-03-02T18:09:10Z</time>
      </trkpt>
      <trkpt lat="44.02296" lon="1.70538">
        <ele>271</ele>
        <time>2013-03-02T18:09:12Z</time>
      </trkpt>
      <trkpt lat="44.02299" lon="1.70542">
        <ele>271</ele>
        <time>2013-03-02T18:09:14Z</time>
      </trkpt>
      <trkpt lat="44.02302" lon="1.70546">
        <ele>272</ele>
        <time>2013-03-02T18:09:16Z</time>
      </trkpt>
      <trkpt lat="44.02306" lon="1.7055">
        <ele>272</ele>
        <time>2013-03-02T18:09:18Z</time>
      </trkpt>
      <trkpt lat="44.02309" lon="1.70554">
        <ele>272</ele>
        <time>2013-03-02T18:09:20Z</time>
      </trkpt>
      <trkpt lat="44.02313" lon="1.70557">
        <ele>272</ele>
        <time>2013-03-02T18:09:22Z</time>
      </trkpt>
      <trkpt lat="44.02317" lon="1.70561">
        <ele>272</ele>
        <time>2013-03-02T18:09:24Z</time>
      </trkpt>
      <trkpt lat="44.0232" lon="1.70565">
        <ele>272</ele>
        <time>2013-03-02T18:09:26Z</time>
      </trkpt>
      <trkpt lat="44.02324" lon="1.7057">
        <ele>273</ele>
        <time>2013-03-02T18:09:28Z</time>
      </trkpt>
      <trkpt lat="44.02327" lon="1.70573">
        <ele>273</ele>
        <time>2013-03-02T18:09:30Z</time>
      </trkpt>
      <trkpt lat="44.0233" lon="1.70578">
        <ele>273</ele>
        <time>2013-03-02T18:09:32Z</time>
      </trkpt>
      <trkpt lat="44.02333" lon="1.70582">
        <ele>274</ele>
        <time>2013-03-02T18:09:34Z</time>
      </trkpt>
      <trkpt lat="44.02337" lon="1.70588">
        <ele>274</ele>
        <time>2013-03-02T18:09:36Z</time>
      </trkpt>
      <trkpt lat="44.0234" lon="1.70593">
        <ele>274</ele>
        <time>2013-03-02T18:09:38Z</time>
      </trkpt>
      <trkpt lat="44.02343" lon="1.70599">
        <ele>275</ele>
        <time>2013-03-02T18:09:40Z</time>
      </trkpt>
      <trkpt lat="44.02346" lon="1.70607">
        <ele>275</ele>
        <time>2013-03-02T18:09:42Z</time>
      </trkpt>
      <trkpt lat="44.0235" lon="1.70614">
        <ele>275</ele>
        <time>2013-03-02T18:09:44Z</time>
      </trkpt>
      <trkpt lat="44.02355" lon="1.70619">
        <ele>275</ele>
        <time>2013-03-02T18:09:46Z</time>
      </trkpt>
      <trkpt lat="44.02361" lon="1.70621">
        <ele>275</ele>
        <time>2013-03-02T18:09:48Z</time>
      </trkpt>
      <trkpt lat="44.02367" lon="1.70624">
        <ele>276</ele>
        <time>2013-03-02T18:09:50Z</time>
      </trkpt>
      <trkpt lat="44.02373" lon="1.70626">
        <ele>277</ele>
        <time>2013-03-02T18:09:52Z</time>
      </trkpt>
      <trkpt lat="44.0238" lon="1.70629">
        <ele>278</ele>
        <time>2013-03-02T18:09:54Z</time>
      </trkpt>
      <trkpt lat="44.02386" lon="1.70632">
        <ele>280</ele>
        <time>2013-03-02T18:09:56Z</time>
      </trkpt>
      <trkpt lat="44.02392" lon="1.70635">
        <ele>281</ele>
        <time>2013-03-02T18:09:58Z</time>
      </trkpt>
      <trkpt lat="44.02399" lon="1.70639">
        <ele>282</ele>
        <time>2013-03-02T18:10:00Z</time>
      </trkpt>
      <trkpt lat="44.02405" lon="1.70643">
        <ele>282</ele>
        <time>2013-03-02T18:10:02Z</time>
      </trkpt>
      <trkpt lat="44.02411" lon="1.70648">
        <ele>282</ele>
        <time>2013-03-02T18:10:04Z</time>
      </trkpt>
      <trkpt lat="44.02416" lon="1.70653">
        <ele>282</ele>
        <time>2013-03-02T18:10:06Z</time>
      </trkpt>
      <trkpt lat="44.02421" lon="1.70658">
        <ele>282</ele>
        <time>2013-03-02T18:10:08Z</time>
      </trkpt>
      <trkpt lat="44.02426" lon="1.70663">
        <ele>283</ele>
        <time>2013-03-02T18:10:10Z</time>
      </trkpt>
      <trkpt lat="44.02431" lon="1.70668">
        <ele>283</ele>
        <time>2013-03-02T18:10:12Z</time>
      </trkpt>
      <trkpt lat="44.02436" lon="1.70673">
        <ele>283</ele>
        <time>2013-03-02T18:10:14Z</time>
      </trkpt>
      <trkpt lat="44.02441" lon="1.70678">
        <ele>283</ele>
        <time>2013-03-02T18:10:16Z</time>
      </trkpt>
      <trkpt lat="44.02445" lon="1.70682">
        <ele>283</ele>
        <time>2013-03-02T18:10:18Z</time>
      </trkpt>
      <trkpt lat="44.02449" lon="1.70686">
        <ele>283</ele>
        <time>2013-03-02T18:10:20Z</time>
      </trkpt>
      <trkpt lat="44.02454" lon="1.70691">
        <ele>283</ele>
        <time>2013-03-02T18:10:22Z</time>
      </trkpt>
      <trkpt lat="44.0246" lon="1.70694">
        <ele>284</ele>
        <time>2013-03-02T18:10:24Z</time>
      </trkpt>
      <trkpt lat="44.02466" lon="1.70698">
        <ele>284</ele>
        <time>2013-03-02T18:10:26Z</time>
      </trkpt>
      <trkpt lat="44.02471" lon="1.70703">
        <ele>284</ele>
        <time>2013-03-02T18:10:28Z</time>
      </trkpt>
      <trkpt lat="44.02477" lon="1.70709">
        <ele>284</ele>
        <time>2013-03-02T18:10:30Z</time>
      </trkpt>
      <trkpt lat="44.02481" lon="1.70715">
        <ele>284</ele>
        <time>2013-03-02T18:10:32Z</time>
      </trkpt>
      <trkpt lat="44.02486" lon="1.70721">
        <ele>284</ele>
        <time>2013-03-02T18:10:34Z</time>
      </trkpt>
      <trkpt lat="44.02489" lon="1.70728">
        <ele>284</ele>
        <time>2013-03-02T18:10:36Z</time>
      </trkpt>
      <trkpt lat="44.02492" lon="1.70736">
        <ele>284</ele>
        <time>2013-03-02T18:10:38Z</time>
      </trkpt>
      <trkpt lat="44.02496" lon="1.70744">
        <ele>284</ele>
        <time>2013-03-02T18:10:40Z</time>
      </trkpt>
      <trkpt lat="44.02501" lon="1.70754">
        <ele>284</ele>
        <time>2013-03-02T18:10:42Z</time>
      </trkpt>
      <trkpt lat="44.02507" lon="1.70762">
        <ele>282</ele>
        <time>2013-03-02T18:10:44Z</time>
      </trkpt>
      <trkpt lat="44.02514" lon="1.70766">
        <ele>282</ele>
        <time>2013-03-02T18:10:46Z</time>
      </trkpt>
      <trkpt lat="44.02522" lon="1.70768">
        <ele>282</ele>
        <time>2013-03-02T18:10:48Z</time>
      </trkpt>
      <trkpt lat="44.02527" lon="1.70772">
        <ele>282</ele>
        <time>2013-03-02T18:10:50Z</time>
      </trkpt>
      <trkpt lat="44.02534" lon="1.70775">
        <ele>282</ele>
        <time>2013-03-02T18:10:52Z</time>
      </trkpt>
      <trkpt lat="44.0254" lon="1.70781">
        <ele>282</ele>
        <time>2013-03-02T18:10:54Z</time>
      </trkpt>
      <trkpt lat="44.02545" lon="1.70786">
        <ele>282</ele>
        <time>2013-03-02T18:10:56Z</time>
      </trkpt>
      <trkpt lat="44.0255" lon="1.70793">
        <ele>282</ele>
        <time>2013-03-02T18:10:58Z</time>
      </trkpt>
      <trkpt lat="44.02555" lon="1.708">
        <ele>282</ele>
        <time>2013-03-02T18:11:00Z</time>
      </trkpt>
      <trkpt lat="44.02559" lon="1.70808">
        <ele>283</ele>
        <time>2013-03-02T18:11:02Z</time>
      </trkpt>
      <trkpt lat="44.02564" lon="1.70815">
        <ele>283</ele>
        <time>2013-03-02T18:11:04Z</time>
      </trkpt>
      <trkpt lat="44.0257" lon="1.70819">
        <ele>284</ele>
        <time>2013-03-02T18:11:06Z</time>
      </trkpt>
      <trkpt lat="44.02576" lon="1.70821">
        <ele>284</ele>
        <time>2013-03-02T18:11:08Z</time>
      </trkpt>
      <trkpt lat="44.02581" lon="1.70822">
        <ele>285</ele>
        <time>2013-03-02T18:11:10Z</time>
      </trkpt>
      <trkpt lat="44.02586" lon="1.70822">
        <ele>285</ele>
        <time>2013-03-02T18:11:12Z</time>
      </trkpt>
      <trkpt lat="44.02591" lon="1.70823">
        <ele>285</ele>
        <time>2013-03-02T18:11:14Z</time>
      </trkpt>
      <trkpt lat="44.02596" lon="1.70824">
        <ele>285</ele>
        <time>2013-03-02T18:11:16Z</time>
      </trkpt>
      <trkpt lat="44.02602" lon="1.70826">
        <ele>285</ele>
        <time>2013-03-02T18:11:18Z</time>
      </trkpt>
      <trkpt lat="44.0261" lon="1.70828">
        <ele>286</ele>
        <time>2013-03-02T18:11:20Z</time>
      </trkpt>
      <trkpt lat="44.02615" lon="1.70832">
        <ele>287</ele>
        <time>2013-03-02T18:11:22Z</time>
      </trkpt>
      <trkpt lat="44.0262" lon="1.70835">
        <ele>287</ele>
        <time>2013-03-02T18:11:24Z</time>
      </trkpt>
      <trkpt lat="44.02626" lon="1.70839">
        <ele>287</ele>
        <time>2013-03-02T18:11:26Z</time>
      </trkpt>
      <trkpt lat="44.02629" lon="1.70844">
        <ele>287</ele>
        <time>2013-03-02T18:11:28Z</time>
      </trkpt>
      <trkpt lat="44.02632" lon="1.70849">
        <ele>288</ele>
        <time>2013-03-02T18:11:30Z</time>
      </trkpt>
      <trkpt lat="44.02635" lon="1.70853">
        <ele>288</ele>
        <time>2013-03-02T18:11:32Z</time>
      </trkpt>
      <trkpt lat="44.02637" lon="1.70859">
        <ele>288</ele>
        <time>2013-03-02T18:11:34Z</time>
      </trkpt>
      <trkpt lat="44.0264" lon="1.70865">
        <ele>289</ele>
        <time>2013-03-02T18:11:36Z</time>
      </trkpt>
      <trkpt lat="44.02645" lon="1.70871">
        <ele>290</ele>
        <time>2013-03-02T18:11:38Z</time>
      </trkpt>
      <trkpt lat="44.0265" lon="1.70877">
        <ele>291</ele>
        <time>2013-03-02T18:11:40Z</time>
      </trkpt>
      <trkpt lat="44.02653" lon="1.70881">
        <ele>291</ele>
        <time>2013-03-02T18:11:42Z</time>
      </trkpt>
      <trkpt lat="44.02657" lon="1.70885">
        <ele>291</ele>
        <time>2013-03-02T18:11:44Z</time>
      </trkpt>
      <trkpt lat="44.0266" lon="1.70889">
        <ele>291</ele>
        <time>2013-03-02T18:11:46Z</time>
      </trkpt>
      <trkpt lat="44.02665" lon="1.70894">
        <ele>291</ele>
        <time>2013-03-02T18:11:48Z</time>
      </trkpt>
      <trkpt lat="44.0267" lon="1.70897">
        <ele>291</ele>
        <time>2013-03-02T18:11:50Z</time>
      </trkpt>
      <trkpt lat="44.02675" lon="1.70901">
        <ele>291</ele>
        <time>2013-03-02T18:11:52Z</time>
      </trkpt>
      <trkpt lat="44.0268" lon="1.70904">
        <ele>291</ele>
        <time>2013-03-02T18:11:54Z</time>
      </trkpt>
      <trkpt lat="44.02685" lon="1.70908">
        <ele>291</ele>
        <time>2013-03-02T18:11:56Z</time>
      </trkpt>
      <trkpt lat="44.0269" lon="1.70912">
        <ele>291</ele>
        <time>2013-03-02T18:11:58Z</time>
      </trkpt>
      <trkpt lat="44.02695" lon="1.70915">
        <ele>291</ele>
        <time>2013-03-02T18:12:00Z</time>
      </trkpt>
      <trkpt lat="44.027" lon="1.70918">
        <ele>291</ele>
        <time>2013-03-02T18:12:02Z</time>
      </trkpt>
      <trkpt lat="44.02705" lon="1.70922">
        <ele>291</ele>
        <time>2013-03-02T18:12:04Z</time>
      </trkpt>
      <trkpt lat="44.02709" lon="1.70927">
        <ele>291</ele>
        <time>2013-03-02T18:12:06Z</time>
      </trkpt>
      <trkpt lat="44.02713" lon="1.70932">
        <ele>291</ele>
        <time>2013-03-02T18:12:08Z</time>
      </trkpt>
      <trkpt lat="44.02717" lon="1.70937">
        <ele>291</ele>
        <time>2013-03-02T18:12:10Z</time>
      </trkpt>
      <trkpt lat="44.02719" lon="1.70943">
        <ele>292</ele>
        <time>2013-03-02T18:12:12Z</time>
      </trkpt>
      <trkpt lat="44.02722" lon="1.7095">
        <ele>294</ele>
        <time>2013-03-02T18:12:14Z</time>
      </trkpt>
      <trkpt lat="44.02725" lon="1.7096">
        <ele>295</ele>
        <time>2013-03-02T18:12:16Z</time>
      </trkpt>
      <trkpt lat="44.02727" lon="1.70968">
        <ele>295</ele>
        <time>2013-03-02T18:12:18Z</time>
      </trkpt>
      <trkpt lat="44.02731" lon="1.70976">
        <ele>296</ele>
        <time>2013-03-02T18:12:20Z</time>
      </trkpt>
      <trkpt lat="44.02737" lon="1.70982">
        <ele>296</ele>
        <time>2013-03-02T18:12:22Z</time>
      </trkpt>
      <trkpt lat="44.02742" lon="1.70984">
        <ele>296</ele>
        <time>2013-03-02T18:12:24Z</time>
      </trkpt>
      <trkpt lat="44.02749" lon="1.70985">
        <ele>296</ele>
        <time>2013-03-02T18:12:26Z</time>
      </trkpt>
      <trkpt lat="44.02755" lon="1.70987">
        <ele>296</ele>
        <time>2013-03-02T18:12:28Z</time>
      </trkpt>
      <trkpt lat="44.02762" lon="1.7099">
        <ele>296</ele>
        <time>2013-03-02T18:12:30Z</time>
      </trkpt>
      <trkpt lat="44.02769" lon="1.70994">
        <ele>296</ele>
        <time>2013-03-02T18:12:32Z</time>
      </trkpt>
      <trkpt lat="44.02776" lon="1.71">
        <ele>296</ele>
        <time>2013-03-02T18:12:34Z</time>
      </trkpt>
      <trkpt lat="44.02784" lon="1.71006">
        <ele>296</ele>
        <time>2013-03-02T18:12:36Z</time>
      </trkpt>
      <trkpt lat="44.02791" lon="1.7101">
        <ele>296</ele>
        <time>2013-03-02T18:12:38Z</time>
      </trkpt>
      <trkpt lat="44.02799" lon="1.71011">
        <ele>296</ele>
        <time>2013-03-02T18:12:40Z</time>
      </trkpt>
      <trkpt lat="44.02806" lon="1.7101">
        <ele>296</ele>
        <time>2013-03-02T18:12:42Z</time>
      </trkpt>
      <trkpt lat="44.02816" lon="1.71009">
        <ele>296</ele>
        <time>2013-03-02T18:12:44Z</time>
      </trkpt>
      <trkpt lat="44.02826" lon="1.7101">
        <ele>294</ele>
        <time>2013-03-02T18:12:46Z</time>
      </trkpt>
      <trkpt lat="44.02837" lon="1.71014">
        <ele>293</ele>
        <time>2013-03-02T18:12:48Z</time>
      </trkpt>
      <trkpt lat="44.0285" lon="1.71017">
        <ele>291</ele>
        <time>2013-03-02T18:12:50Z</time>
      </trkpt>
      <trkpt lat="44.02863" lon="1.71023">
        <ele>291</ele>
        <time>2013-03-02T18:12:52Z</time>
      </trkpt>
      <trkpt lat="44.02875" lon="1.7103">
        <ele>291</ele>
        <time>2013-03-02T18:12:54Z</time>
      </trkpt>
      <trkpt lat="44.02887" lon="1.71038">
        <ele>291</ele>
        <time>2013-03-02T18:12:56Z</time>
      </trkpt>
      <trkpt lat="44.029" lon="1.71046">
        <ele>291</ele>
        <time>2013-03-02T18:12:58Z</time>
      </trkpt>
      <trkpt lat="44.02912" lon="1.71055">
        <ele>291</ele>
        <time>2013-03-02T18:13:00Z</time>
      </trkpt>
      <trkpt lat="44.02925" lon="1.7106">
        <ele>291</ele>
        <time>2013-03-02T18:13:02Z</time>
      </trkpt>
      <trkpt lat="44.02937" lon="1.71065">
        <ele>291</ele>
        <time>2013-03-02T18:13:04Z</time>
      </trkpt>
      <trkpt lat="44.02948" lon="1.7107">
        <ele>291</ele>
        <time>2013-03-02T18:13:06Z</time>
      </trkpt>
      <trkpt lat="44.0296" lon="1.71078">
        <ele>291</ele>
        <time>2013-03-02T18:13:08Z</time>
      </trkpt>
      <trkpt lat="44.02971" lon="1.71089">
        <ele>291</ele>
        <time>2013-03-02T18:13:10Z</time>
      </trkpt>
      <trkpt lat="44.02979" lon="1.71102">
        <ele>291</ele>
        <time>2013-03-02T18:13:12Z</time>
      </trkpt>
      <trkpt lat="44.02985" lon="1.71114">
        <ele>291</ele>
        <time>2013-03-02T18:13:14Z</time>
      </trkpt>
      <trkpt lat="44.02987" lon="1.71123">
        <ele>291</ele>
        <time>2013-03-02T18:13:16Z</time>
      </trkpt>
      <trkpt lat="44.02988" lon="1.71129">
        <ele>291</ele>
        <time>2013-03-02T18:13:18Z</time>
      </trkpt>
      <trkpt lat="44.02989" lon="1.71136">
        <ele>292</ele>
        <time>2013-03-02T18:13:20Z</time>
      </trkpt>
      <trkpt lat="44.0299" lon="1.71142">
        <ele>294</ele>
        <time>2013-03-02T18:13:22Z</time>
      </trkpt>
      <trkpt lat="44.02993" lon="1.71149">
        <ele>296</ele>
        <time>2013-03-02T18:13:24Z</time>
      </trkpt>
      <trkpt lat="44.02994" lon="1.71154">
        <ele>298</ele>
        <time>2013-03-02T18:13:26Z</time>
      </trkpt>
      <trkpt lat="44.02996" lon="1.7116">
        <ele>299</ele>
        <time>2013-03-02T18:13:28Z</time>
      </trkpt>
      <trkpt lat="44.02999" lon="1.71165">
        <ele>300</ele>
        <time>2013-03-02T18:13:30Z</time>
      </trkpt>
      <trkpt lat="44.03002" lon="1.71171">
        <ele>300</ele>
        <time>2013-03-02T18:13:32Z</time>
      </trkpt>
      <trkpt lat="44.03005" lon="1.71175">
        <ele>300</ele>
        <time>2013-03-02T18:13:34Z</time>
      </trkpt>
      <trkpt lat="44.03007" lon="1.71179">
        <ele>300</ele>
        <time>2013-03-02T18:13:36Z</time>
      </trkpt>
      <trkpt lat="44.03009" lon="1.71184">
        <ele>300</ele>
        <time>2013-03-02T18:13:38Z</time>
      </trkpt>
      <trkpt lat="44.03011" lon="1.71187">
        <ele>300</ele>
        <time>2013-03-02T18:13:40Z</time>
      </trkpt>
      <trkpt lat="44.03013" lon="1.71191">
        <ele>301</ele>
        <time>2013-03-02T18:13:42Z</time>
      </trkpt>
      <trkpt lat="44.03015" lon="1.71194">
        <ele>301</ele>
        <time>2013-03-02T18:13:44Z</time>
      </trkpt>
      <trkpt lat="44.03017" lon="1.71198">
        <ele>301</ele>
        <time>2013-03-02T18:13:46Z</time>
      </trkpt>
      <trkpt lat="44.03019" lon="1.71202">
        <ele>301</ele>
        <time>2013-03-02T18:13:48Z</time>
      </trkpt>
      <trkpt lat="44.03022" lon="1.71207">
        <ele>301</ele>
        <time>2013-03-02T18:13:50Z</time>
      </trkpt>
      <trkpt lat="44.03023" lon="1.7121">
        <ele>301</ele>
        <time>2013-03-02T18:13:52Z</time>
      </trkpt>
      <trkpt lat="44.03024" lon="1.71214">
        <ele>301</ele>
        <time>2013-03-02T18:13:54Z</time>
      </trkpt>
      <trkpt lat="44.03026" lon="1.71218">
        <ele>301</ele>
        <time>2013-03-02T18:13:56Z</time>
      </trkpt>
      <trkpt lat="44.03027" lon="1.71222">
        <ele>301</ele>
        <time>2013-03-02T18:13:58Z</time>
      </trkpt>
      <trkpt lat="44.03028" lon="1.71226">
        <ele>301</ele>
        <time>2013-03-02T18:14:00Z</time>
      </trkpt>
      <trkpt lat="44.03029" lon="1.7123">
        <ele>302</ele>
        <time>2013-03-02T18:14:02Z</time>
      </trkpt>
      <trkpt lat="44.0303" lon="1.71236">
        <ele>303</ele>
        <time>2013-03-02T18:14:04Z</time>
      </trkpt>
      <trkpt lat="44.03031" lon="1.71241">
        <ele>303</ele>
        <time>2013-03-02T18:14:06Z</time>
      </trkpt>
      <trkpt lat="44.03031" lon="1.71246">
        <ele>303</ele>
        <time>2013-03-02T18:14:08Z</time>
      </trkpt>
      <trkpt lat="44.03033" lon="1.71253">
        <ele>303</ele>
        <time>2013-03-02T18:14:10Z</time>
      </trkpt>
      <trkpt lat="44.03034" lon="1.71259">
        <ele>303</ele>
        <time>2013-03-02T18:14:12Z</time>
      </trkpt>
      <trkpt lat="44.03035" lon="1.71264">
        <ele>303</ele>
        <time>2013-03-02T18:14:14Z</time>
      </trkpt>
      <trkpt lat="44.03037" lon="1.71268">
        <ele>303</ele>
        <time>2013-03-02T18:14:16Z</time>
      </trkpt>
      <trkpt lat="44.03041" lon="1.71271">
        <ele>303</ele>
        <time>2013-03-02T18:14:18Z</time>
      </trkpt>
      <trkpt lat="44.03045" lon="1.71274">
        <ele>303</ele>
        <time>2013-03-02T18:14:20Z</time>
      </trkpt>
      <trkpt lat="44.03048" lon="1.71277">
        <ele>303</ele>
        <time>2013-03-02T18:14:22Z</time>
      </trkpt>
      <trkpt lat="44.03051" lon="1.7128">
        <ele>303</ele>
        <time>2013-03-02T18:14:24Z</time>
      </trkpt>
      <trkpt lat="44.03055" lon="1.71283">
        <ele>305</ele>
        <time>2013-03-02T18:14:26Z</time>
      </trkpt>
      <trkpt lat="44.03058" lon="1.71285">
        <ele>307</ele>
        <time>2013-03-02T18:14:28Z</time>
      </trkpt>
      <trkpt lat="44.03062" lon="1.71288">
        <ele>308</ele>
        <time>2013-03-02T18:14:30Z</time>
      </trkpt>
      <trkpt lat="44.03065" lon="1.71291">
        <ele>308</ele>
        <time>2013-03-02T18:14:32Z</time>
      </trkpt>
      <trkpt lat="44.03069" lon="1.71294">
        <ele>308</ele>
        <time>2013-03-02T18:14:34Z</time>
      </trkpt>
      <trkpt lat="44.03072" lon="1.71298">
        <ele>309</ele>
        <time>2013-03-02T18:14:36Z</time>
      </trkpt>
      <trkpt lat="44.03075" lon="1.71301">
        <ele>309</ele>
        <time>2013-03-02T18:14:38Z</time>
      </trkpt>
      <trkpt lat="44.03078" lon="1.71305">
        <ele>309</ele>
        <time>2013-03-02T18:14:40Z</time>
      </trkpt>
      <trkpt lat="44.03082" lon="1.71309">
        <ele>310</ele>
        <time>2013-03-02T18:14:42Z</time>
      </trkpt>
      <trkpt lat="44.03084" lon="1.71313">
        <ele>310</ele>
        <time>2013-03-02T18:14:44Z</time>
      </trkpt>
      <trkpt lat="44.03087" lon="1.71317">
        <ele>311</ele>
        <time>2013-03-02T18:14:46Z</time>
      </trkpt>
      <trkpt lat="44.0309" lon="1.71321">
        <ele>311</ele>
        <time>2013-03-02T18:14:48Z</time>
      </trkpt>
      <trkpt lat="44.03093" lon="1.71325">
        <ele>311</ele>
        <time>2013-03-02T18:14:50Z</time>
      </trkpt>
      <trkpt lat="44.03095" lon="1.71329">
        <ele>311</ele>
        <time>2013-03-02T18:14:52Z</time>
      </trkpt>
      <trkpt lat="44.03097" lon="1.71333">
        <ele>311</ele>
        <time>2013-03-02T18:14:54Z</time>
      </trkpt>
      <trkpt lat="44.031" lon="1.71336">
        <ele>311</ele>
        <time>2013-03-02T18:14:56Z</time>
      </trkpt>
      <trkpt lat="44.03102" lon="1.7134">
        <ele>311</ele>
        <time>2013-03-02T18:14:58Z</time>
      </trkpt>
      <trkpt lat="44.03105" lon="1.71344">
        <ele>312</ele>
        <time>2013-03-02T18:15:00Z</time>
      </trkpt>
      <trkpt lat="44.03106" lon="1.71348">
        <ele>312</ele>
        <time>2013-03-02T18:15:02Z</time>
      </trkpt>
      <trkpt lat="44.03109" lon="1.71351">
        <ele>312</ele>
        <time>2013-03-02T18:15:04Z</time>
      </trkpt>
      <trkpt lat="44.03111" lon="1.71354">
        <ele>312</ele>
        <time>2013-03-02T18:15:06Z</time>
      </trkpt>
      <trkpt lat="44.03113" lon="1.71358">
        <ele>312</ele>
        <time>2013-03-02T18:15:08Z</time>
      </trkpt>
      <trkpt lat="44.03115" lon="1.71362">
        <ele>312</ele>
        <time>2013-03-02T18:15:10Z</time>
      </trkpt>
      <trkpt lat="44.03117" lon="1.71366">
        <ele>312</ele>
        <time>2013-03-02T18:15:12Z</time>
      </trkpt>
      <trkpt lat="44.03119" lon="1.71369">
        <ele>312</ele>
        <time>2013-03-02T18:15:14Z</time>
      </trkpt>
      <trkpt lat="44.03121" lon="1.71374">
        <ele>312</ele>
        <time>2013-03-02T18:15:16Z</time>
      </trkpt>
      <trkpt lat="44.03123" lon="1.71377">
        <ele>312</ele>
        <time>2013-03-02T18:15:18Z</time>
      </trkpt>
      <trkpt lat="44.03125" lon="1.71381">
        <ele>312</ele>
        <time>2013-03-02T18:15:20Z</time>
      </trkpt>
      <trkpt lat="44.03126" lon="1.71384">
        <ele>312</ele>
        <time>2013-03-02T18:15:22Z</time>
      </trkpt>
      <trkpt lat="44.03128" lon="1.71388">
        <ele>313</ele>
        <time>2013-03-02T18:15:24Z</time>
      </trkpt>
      <trkpt lat="44.0313" lon="1.71392">
        <ele>314</ele>
        <time>2013-03-02T18:15:26Z</time>
      </trkpt>
      <trkpt lat="44.03133" lon="1.71396">
        <ele>314</ele>
        <time>2013-03-02T18:15:28Z</time>
      </trkpt>
      <trkpt lat="44.03135" lon="1.714">
        <ele>314</ele>
        <time>2013-03-02T18:15:30Z</time>
      </trkpt>
      <trkpt lat="44.03138" lon="1.71404">
        <ele>314</ele>
        <time>2013-03-02T18:15:32Z</time>
      </trkpt>
      <trkpt lat="44.0314" lon="1.71407">
        <ele>314</ele>
        <time>2013-03-02T18:15:34Z</time>
      </trkpt>
      <trkpt lat="44.03142" lon="1.71412">
        <ele>314</ele>
        <time>2013-03-02T18:15:36Z</time>
      </trkpt>
      <trkpt lat="44.03144" lon="1.71415">
        <ele>314</ele>
        <time>2013-03-02T18:15:38Z</time>
      </trkpt>
      <trkpt lat="44.03146" lon="1.7142">
        <ele>314</ele>
        <time>2013-03-02T18:15:40Z</time>
      </trkpt>
      <trkpt lat="44.03148" lon="1.71424">
        <ele>314</ele>
        <time>2013-03-02T18:15:42Z</time>
      </trkpt>
      <trkpt lat="44.03149" lon="1.71429">
        <ele>315</ele>
        <time>2013-03-02T18:15:44Z</time>
      </trkpt>
      <trkpt lat="44.03152" lon="1.71434">
        <ele>317</ele>
        <time>2013-03-02T18:15:46Z</time>
      </trkpt>
      <trkpt lat="44.03154" lon="1.71438">
        <ele>319</ele>
        <time>2013-03-02T18:15:48Z</time>
      </trkpt>
      <trkpt lat="44.03155" lon="1.71442">
        <ele>321</ele>
        <time>2013-03-02T18:15:50Z</time>
      </trkpt>
      <trkpt lat="44.03155" lon="1.71445">
        <ele>323</ele>
        <time>2013-03-02T18:15:52Z</time>
      </trkpt>
      <trkpt lat="44.03156" lon="1.71449">
        <ele>325</ele>
        <time>2013-03-02T18:15:54Z</time>
      </trkpt>
      <trkpt lat="44.03157" lon="1.71453">
        <ele>326</ele>
        <time>2013-03-02T18:15:56Z</time>
      </trkpt>
      <trkpt lat="44.03159" lon="1.71459">
        <ele>327</ele>
        <time>2013-03-02T18:15:58Z</time>
      </trkpt>
      <trkpt lat="44.03162" lon="1.71464">
        <ele>327</ele>
        <time>2013-03-02T18:16:00Z</time>
      </trkpt>
      <trkpt lat="44.03165" lon="1.71468">
        <ele>327</ele>
        <time>2013-03-02T18:16:02Z</time>
      </trkpt>
      <trkpt lat="44.03168" lon="1.71473">
        <ele>327</ele>
        <time>2013-03-02T18:16:04Z</time>
      </trkpt>
      <trkpt lat="44.0317" lon="1.71477">
        <ele>327</ele>
        <time>2013-03-02T18:16:06Z</time>
      </trkpt>
      <trkpt lat="44.03172" lon="1.71482">
        <ele>327</ele>
        <time>2013-03-02T18:16:08Z</time>
      </trkpt>
      <trkpt lat="44.03175" lon="1.71486">
        <ele>327</ele>
        <time>2013-03-02T18:16:10Z</time>
      </trkpt>
      <trkpt lat="44.03178" lon="1.71489">
        <ele>327</ele>
        <time>2013-03-02T18:16:12Z</time>
      </trkpt>
      <trkpt lat="44.03181" lon="1.71492">
        <ele>327</ele>
        <time>2013-03-02T18:16:14Z</time>
      </trkpt>
      <trkpt lat="44.03185" lon="1.71496">
        <ele>327</ele>
        <time>2013-03-02T18:16:16Z</time>
      </trkpt>
      <trkpt lat="44.03188" lon="1.71499">
        <ele>327</ele>
        <time>2013-03-02T18:16:18Z</time>
      </trkpt>
      <trkpt lat="44.03191" lon="1.71501">
        <ele>327</ele>
        <time>2013-03-02T18:16:20Z</time>
      </trkpt>
      <trkpt lat="44.03194" lon="1.71504">
        <ele>327</ele>
        <time>2013-03-02T18:16:22Z</time>
      </trkpt>
      <trkpt lat="44.03197" lon="1.71507">
        <ele>327</ele>
        <time>2013-03-02T18:16:24Z</time>
      </trkpt>
      <trkpt lat="44.032" lon="1.71509">
        <ele>327</ele>
        <time>2013-03-02T18:16:26Z</time>
      </trkpt>
      <trkpt lat="44.03204" lon="1.71512">
        <ele>327</ele>
        <time>2013-03-02T18:16:28Z</time>
      </trkpt>
      <trkpt lat="44.03206" lon="1.71515">
        <ele>327</ele>
        <time>2013-03-02T18:16:30Z</time>
      </trkpt>
      <trkpt lat="44.03209" lon="1.71518">
        <ele>327</ele>
        <time>2013-03-02T18:16:32Z</time>
      </trkpt>
      <trkpt lat="44.03213" lon="1.71522">
        <ele>327</ele>
        <time>2013-03-02T18:16:34Z</time>
      </trkpt>
      <trkpt lat="44.03216" lon="1.71525">
        <ele>327</ele>
        <time>2013-03-02T18:16:36Z</time>
      </trkpt>
      <trkpt lat="44.03219" lon="1.71529">
        <ele>327</ele>
        <time>2013-03-02T18:16:38Z</time>
      </trkpt>
      <trkpt lat="44.03223" lon="1.71532">
        <ele>327</ele>
        <time>2013-03-02T18:16:40Z</time>
      </trkpt>
      <trkpt lat="44.03226" lon="1.71536">
        <ele>327</ele>
        <time>2013-03-02T18:16:42Z</time>
      </trkpt>
      <trkpt lat="44.03229" lon="1.71539">
        <ele>327</ele>
        <time>2013-03-02T18:16:44Z</time>
      </trkpt>
      <trkpt lat="44.03232" lon="1.71544">
        <ele>327</ele>
        <time>2013-03-02T18:16:46Z</time>
      </trkpt>
      <trkpt lat="44.03235" lon="1.71548">
        <ele>327</ele>
        <time>2013-03-02T18:16:48Z</time>
      </trkpt>
      <trkpt lat="44.03239" lon="1.71551">
        <ele>327</ele>
        <time>2013-03-02T18:16:50Z</time>
      </trkpt>
      <trkpt lat="44.03242" lon="1.71555">
        <ele>328</ele>
        <time>2013-03-02T18:16:52Z</time>
      </trkpt>
      <trkpt lat="44.03245" lon="1.71558">
        <ele>330</ele>
        <time>2013-03-02T18:16:54Z</time>
      </trkpt>
      <trkpt lat="44.03248" lon="1.71561">
        <ele>330</ele>
        <time>2013-03-02T18:16:56Z</time>
      </trkpt>
      <trkpt lat="44.03252" lon="1.71564">
        <ele>331</ele>
        <time>2013-03-02T18:16:58Z</time>
      </trkpt>
      <trkpt lat="44.03254" lon="1.71568">
        <ele>331</ele>
        <time>2013-03-02T18:17:00Z</time>
      </trkpt>
      <trkpt lat="44.03257" lon="1.71572">
        <ele>332</ele>
        <time>2013-03-02T18:17:02Z</time>
      </trkpt>
      <trkpt lat="44.03261" lon="1.71575">
        <ele>332</ele>
        <time>2013-03-02T18:17:04Z</time>
      </trkpt>
      <trkpt lat="44.03263" lon="1.71578">
        <ele>332</ele>
        <time>2013-03-02T18:17:06Z</time>
      </trkpt>
      <trkpt lat="44.03266" lon="1.71582">
        <ele>332</ele>
        <time>2013-03-02T18:17:08Z</time>
      </trkpt>
      <trkpt lat="44.03269" lon="1.71586">
        <ele>333</ele>
        <time>2013-03-02T18:17:10Z</time>
      </trkpt>
      <trkpt lat="44.03272" lon="1.7159">
        <ele>333</ele>
        <time>2013-03-02T18:17:12Z</time>
      </trkpt>
      <trkpt lat="44.03275" lon="1.71593">
        <ele>333</ele>
        <time>2013-03-02T18:17:14Z</time>
      </trkpt>
      <trkpt lat="44.03277" lon="1.71596">
        <ele>333</ele>
        <time>2013-03-02T18:17:16Z</time>
      </trkpt>
      <trkpt lat="44.0328" lon="1.71599">
        <ele>334</ele>
        <time>2013-03-02T18:17:18Z</time>
      </trkpt>
      <trkpt lat="44.03283" lon="1.71604">
        <ele>334</ele>
        <time>2013-03-02T18:17:21Z</time>
      </trkpt>
      <trkpt lat="44.03285" lon="1.71607">
        <ele>335</ele>
        <time>2013-03-02T18:17:23Z</time>
      </trkpt>
      <trkpt lat="44.03288" lon="1.7161">
        <ele>335</ele>
        <time>2013-03-02T18:17:25Z</time>
      </trkpt>
      <trkpt lat="44.0329" lon="1.71613">
        <ele>335</ele>
        <time>2013-03-02T18:17:27Z</time>
      </trkpt>
      <trkpt lat="44.03292" lon="1.71617">
        <ele>335</ele>
        <time>2013-03-02T18:17:29Z</time>
      </trkpt>
      <trkpt lat="44.03295" lon="1.71621">
        <ele>336</ele>
        <time>2013-03-02T18:17:31Z</time>
      </trkpt>
      <trkpt lat="44.03298" lon="1.71625">
        <ele>337</ele>
        <time>2013-03-02T18:17:33Z</time>
      </trkpt>
      <trkpt lat="44.03301" lon="1.71629">
        <ele>338</ele>
        <time>2013-03-02T18:17:35Z</time>
      </trkpt>
      <trkpt lat="44.03303" lon="1.71632">
        <ele>339</ele>
        <time>2013-03-02T18:17:37Z</time>
      </trkpt>
      <trkpt lat="44.03306" lon="1.71636">
        <ele>339</ele>
        <time>2013-03-02T18:17:39Z</time>
      </trkpt>
      <trkpt lat="44.03308" lon="1.71638">
        <ele>339</ele>
        <time>2013-03-02T18:17:41Z</time>
      </trkpt>
      <trkpt lat="44.03311" lon="1.71642">
        <ele>340</ele>
        <time>2013-03-02T18:17:43Z</time>
      </trkpt>
      <trkpt lat="44.03314" lon="1.71644">
        <ele>341</ele>
        <time>2013-03-02T18:17:45Z</time>
      </trkpt>
      <trkpt lat="44.03318" lon="1.71647">
        <ele>341</ele>
        <time>2013-03-02T18:17:47Z</time>
      </trkpt>
      <trkpt lat="44.03321" lon="1.71651">
        <ele>341</ele>
        <time>2013-03-02T18:17:49Z</time>
      </trkpt>
      <trkpt lat="44.03325" lon="1.71653">
        <ele>341</ele>
        <time>2013-03-02T18:17:51Z</time>
      </trkpt>
      <trkpt lat="44.03328" lon="1.71657">
        <ele>342</ele>
        <time>2013-03-02T18:17:53Z</time>
      </trkpt>
      <trkpt lat="44.03332" lon="1.7166">
        <ele>342</ele>
        <time>2013-03-02T18:17:55Z</time>
      </trkpt>
      <trkpt lat="44.03335" lon="1.71663">
        <ele>343</ele>
        <time>2013-03-02T18:17:57Z</time>
      </trkpt>
      <trkpt lat="44.03338" lon="1.71666">
        <ele>343</ele>
        <time>2013-03-02T18:17:59Z</time>
      </trkpt>
      <trkpt lat="44.03341" lon="1.71669">
        <ele>343</ele>
        <time>2013-03-02T18:18:02Z</time>
      </trkpt>
      <trkpt lat="44.03343" lon="1.71669">
        <ele>344</ele>
        <time>2013-03-02T18:18:05Z</time>
      </trkpt>
      <trkpt lat="44.03342" lon="1.71671">
        <ele>345</ele>
        <time>2013-03-02T18:18:09Z</time>
      </trkpt>
      <trkpt lat="44.03346" lon="1.7167">
        <ele>346</ele>
        <time>2013-03-02T18:18:12Z</time>
      </trkpt>
      <trkpt lat="44.03348" lon="1.71669">
        <ele>349</ele>
        <time>2013-03-02T18:18:19Z</time>
      </trkpt>
      <trkpt lat="44.03349" lon="1.71668">
        <ele>350</ele>
        <time>2013-03-02T18:18:22Z</time>
      </trkpt>
      <trkpt lat="44.0335" lon="1.71668">
        <ele>352</ele>
        <time>2013-03-02T18:18:27Z</time>
      </trkpt>
      <trkpt lat="44.03352" lon="1.71667">
        <ele>353</ele>
        <time>2013-03-02T18:18:31Z</time>
      </trkpt>
      <trkpt lat="44.03352" lon="1.71666">
        <ele>355</ele>
        <time>2013-03-02T18:18:36Z</time>
      </trkpt>
      <trkpt lat="44.03354" lon="1.71666">
        <ele>355</ele>
        <time>2013-03-02T18:18:41Z</time>
      </trkpt>
      <trkpt lat="44.03353" lon="1.71667">
        <ele>355</ele>
        <time>2013-03-02T18:18:48Z</time>
      </trkpt>
      <trkpt lat="44.03354" lon="1.71669">
        <ele>355</ele>
        <time>2013-03-02T18:18:50Z</time>
      </trkpt>
      <trkpt lat="44.03356" lon="1.71672">
        <ele>355</ele>
        <time>2013-03-02T18:18:52Z</time>
      </trkpt>
      <trkpt lat="44.03358" lon="1.71676">
        <ele>355</ele>
        <time>2013-03-02T18:18:54Z</time>
      </trkpt>
      <trkpt lat="44.0336" lon="1.71679">
        <ele>355</ele>
        <time>2013-03-02T18:18:56Z</time>
      </trkpt>
      <trkpt lat="44.03363" lon="1.71683">
        <ele>355</ele>
        <time>2013-03-02T18:18:58Z</time>
      </trkpt>
      <trkpt lat="44.03366" lon="1.71687">
        <ele>355</ele>
        <time>2013-03-02T18:19:00Z</time>
      </trkpt>
      <trkpt lat="44.03367" lon="1.71691">
        <ele>355</ele>
        <time>2013-03-02T18:19:02Z</time>
      </trkpt>
      <trkpt lat="44.03369" lon="1.71695">
        <ele>356</ele>
        <time>2013-03-02T18:19:04Z</time>
      </trkpt>
      <trkpt lat="44.0337" lon="1.71698">
        <ele>357</ele>
        <time>2013-03-02T18:19:06Z</time>
      </trkpt>
      <trkpt lat="44.03373" lon="1.71701">
        <ele>358</ele>
        <time>2013-03-02T18:19:08Z</time>
      </trkpt>
      <trkpt lat="44.03376" lon="1.71705">
        <ele>358</ele>
        <time>2013-03-02T18:19:10Z</time>
      </trkpt>
      <trkpt lat="44.03379" lon="1.71708">
        <ele>358</ele>
        <time>2013-03-02T18:19:12Z</time>
      </trkpt>
      <trkpt lat="44.03382" lon="1.71712">
        <ele>358</ele>
        <time>2013-03-02T18:19:14Z</time>
      </trkpt>
      <trkpt lat="44.03385" lon="1.71715">
        <ele>358</ele>
        <time>2013-03-02T18:19:16Z</time>
      </trkpt>
      <trkpt lat="44.03387" lon="1.71719">
        <ele>358</ele>
        <time>2013-03-02T18:19:18Z</time>
      </trkpt>
      <trkpt lat="44.0339" lon="1.71723">
        <ele>358</ele>
        <time>2013-03-02T18:19:20Z</time>
      </trkpt>
      <trkpt lat="44.03393" lon="1.71727">
        <ele>358</ele>
        <time>2013-03-02T18:19:22Z</time>
      </trkpt>
      <trkpt lat="44.03395" lon="1.7173">
        <ele>357</ele>
        <time>2013-03-02T18:19:24Z</time>
      </trkpt>
      <trkpt lat="44.03398" lon="1.71734">
        <ele>356</ele>
        <time>2013-03-02T18:19:26Z</time>
      </trkpt>
      <trkpt lat="44.03401" lon="1.71738">
        <ele>355</ele>
        <time>2013-03-02T18:19:28Z</time>
      </trkpt>
      <trkpt lat="44.03404" lon="1.71741">
        <ele>355</ele>
        <time>2013-03-02T18:19:30Z</time>
      </trkpt>
      <trkpt lat="44.03407" lon="1.71745">
        <ele>355</ele>
        <time>2013-03-02T18:19:32Z</time>
      </trkpt>
      <trkpt lat="44.03409" lon="1.71749">
        <ele>355</ele>
        <time>2013-03-02T18:19:34Z</time>
      </trkpt>
      <trkpt lat="44.03412" lon="1.71753">
        <ele>355</ele>
        <time>2013-03-02T18:19:36Z</time>
      </trkpt>
      <trkpt lat="44.03415" lon="1.71757">
        <ele>355</ele>
        <time>2013-03-02T18:19:38Z</time>
      </trkpt>
      <trkpt lat="44.03418" lon="1.7176">
        <ele>355</ele>
        <time>2013-03-02T18:19:40Z</time>
      </trkpt>
      <trkpt lat="44.0342" lon="1.71764">
        <ele>355</ele>
        <time>2013-03-02T18:19:42Z</time>
      </trkpt>
      <trkpt lat="44.03423" lon="1.71767">
        <ele>355</ele>
        <time>2013-03-02T18:19:44Z</time>
      </trkpt>
      <trkpt lat="44.03426" lon="1.71772">
        <ele>355</ele>
        <time>2013-03-02T18:19:46Z</time>
      </trkpt>
      <trkpt lat="44.03429" lon="1.71775">
        <ele>355</ele>
        <time>2013-03-02T18:19:48Z</time>
      </trkpt>
      <trkpt lat="44.03431" lon="1.71779">
        <ele>355</ele>
        <time>2013-03-02T18:19:50Z</time>
      </trkpt>
      <trkpt lat="44.03434" lon="1.71783">
        <ele>355</ele>
        <time>2013-03-02T18:19:52Z</time>
      </trkpt>
      <trkpt lat="44.03436" lon="1.71787">
        <ele>355</ele>
        <time>2013-03-02T18:19:54Z</time>
      </trkpt>
      <trkpt lat="44.03439" lon="1.7179">
        <ele>355</ele>
        <time>2013-03-02T18:19:56Z</time>
      </trkpt>
      <trkpt lat="44.03442" lon="1.71794">
        <ele>355</ele>
        <time>2013-03-02T18:19:58Z</time>
      </trkpt>
      <trkpt lat="44.03444" lon="1.71798">
        <ele>355</ele>
        <time>2013-03-02T18:20:00Z</time>
      </trkpt>
      <trkpt lat="44.03446" lon="1.71801">
        <ele>355</ele>
        <time>2013-03-02T18:20:02Z</time>
      </trkpt>
      <trkpt lat="44.03449" lon="1.71805">
        <ele>355</ele>
        <time>2013-03-02T18:20:04Z</time>
      </trkpt>
      <trkpt lat="44.03452" lon="1.71808">
        <ele>355</ele>
        <time>2013-03-02T18:20:06Z</time>
      </trkpt>
      <trkpt lat="44.03455" lon="1.71811">
        <ele>355</ele>
        <time>2013-03-02T18:20:08Z</time>
      </trkpt>
      <trkpt lat="44.03458" lon="1.71815">
        <ele>355</ele>
        <time>2013-03-02T18:20:10Z</time>
      </trkpt>
      <trkpt lat="44.0346" lon="1.71818">
        <ele>355</ele>
        <time>2013-03-02T18:20:12Z</time>
      </trkpt>
      <trkpt lat="44.03463" lon="1.71822">
        <ele>355</ele>
        <time>2013-03-02T18:20:14Z</time>
      </trkpt>
      <trkpt lat="44.03466" lon="1.71826">
        <ele>355</ele>
        <time>2013-03-02T18:20:16Z</time>
      </trkpt>
      <trkpt lat="44.03469" lon="1.7183">
        <ele>356</ele>
        <time>2013-03-02T18:20:18Z</time>
      </trkpt>
      <trkpt lat="44.03472" lon="1.71833">
        <ele>356</ele>
        <time>2013-03-02T18:20:20Z</time>
      </trkpt>
      <trkpt lat="44.03475" lon="1.71836">
        <ele>357</ele>
        <time>2013-03-02T18:20:22Z</time>
      </trkpt>
      <trkpt lat="44.03478" lon="1.71839">
        <ele>357</ele>
        <time>2013-03-02T18:20:24Z</time>
      </trkpt>
      <trkpt lat="44.03481" lon="1.71842">
        <ele>357</ele>
        <time>2013-03-02T18:20:26Z</time>
      </trkpt>
      <trkpt lat="44.03483" lon="1.71845">
        <ele>357</ele>
        <time>2013-03-02T18:20:28Z</time>
      </trkpt>
      <trkpt lat="44.03486" lon="1.71848">
        <ele>358</ele>
        <time>2013-03-02T18:20:30Z</time>
      </trkpt>
      <trkpt lat="44.03489" lon="1.71851">
        <ele>358</ele>
        <time>2013-03-02T18:20:32Z</time>
      </trkpt>
      <trkpt lat="44.03492" lon="1.71853">
        <ele>358</ele>
        <time>2013-03-02T18:20:34Z</time>
      </trkpt>
      <trkpt lat="44.03495" lon="1.71857">
        <ele>358</ele>
        <time>2013-03-02T18:20:36Z</time>
      </trkpt>
      <trkpt lat="44.03497" lon="1.7186">
        <ele>358</ele>
        <time>2013-03-02T18:20:38Z</time>
      </trkpt>
      <trkpt lat="44.035" lon="1.71863">
        <ele>358</ele>
        <time>2013-03-02T18:20:40Z</time>
      </trkpt>
      <trkpt lat="44.03503" lon="1.71867">
        <ele>358</ele>
        <time>2013-03-02T18:20:42Z</time>
      </trkpt>
      <trkpt lat="44.03505" lon="1.71869">
        <ele>358</ele>
        <time>2013-03-02T18:20:44Z</time>
      </trkpt>
      <trkpt lat="44.03508" lon="1.71872">
        <ele>358</ele>
        <time>2013-03-02T18:20:46Z</time>
      </trkpt>
      <trkpt lat="44.03511" lon="1.71875">
        <ele>359</ele>
        <time>2013-03-02T18:20:48Z</time>
      </trkpt>
      <trkpt lat="44.03513" lon="1.71878">
        <ele>359</ele>
        <time>2013-03-02T18:20:50Z</time>
      </trkpt>
      <trkpt lat="44.03516" lon="1.7188">
        <ele>360</ele>
        <time>2013-03-02T18:20:52Z</time>
      </trkpt>
      <trkpt lat="44.03519" lon="1.71884">
        <ele>360</ele>
        <time>2013-03-02T18:20:54Z</time>
      </trkpt>
      <trkpt lat="44.03522" lon="1.71887">
        <ele>360</ele>
        <time>2013-03-02T18:20:56Z</time>
      </trkpt>
      <trkpt lat="44.03525" lon="1.7189">
        <ele>361</ele>
        <time>2013-03-02T18:20:58Z</time>
      </trkpt>
      <trkpt lat="44.03528" lon="1.71893">
        <ele>361</ele>
        <time>2013-03-02T18:21:00Z</time>
      </trkpt>
      <trkpt lat="44.03531" lon="1.71896">
        <ele>362</ele>
        <time>2013-03-02T18:21:02Z</time>
      </trkpt>
      <trkpt lat="44.03535" lon="1.71899">
        <ele>363</ele>
        <time>2013-03-02T18:21:04Z</time>
      </trkpt>
      <trkpt lat="44.03538" lon="1.71902">
        <ele>364</ele>
        <time>2013-03-02T18:21:06Z</time>
      </trkpt>
      <trkpt lat="44.03542" lon="1.71906">
        <ele>365</ele>
        <time>2013-03-02T18:21:08Z</time>
      </trkpt>
      <trkpt lat="44.03545" lon="1.71907">
        <ele>366</ele>
        <time>2013-03-02T18:21:10Z</time>
      </trkpt>
      <trkpt lat="44.03548" lon="1.71909">
        <ele>366</ele>
        <time>2013-03-02T18:21:12Z</time>
      </trkpt>
      <trkpt lat="44.03551" lon="1.71911">
        <ele>367</ele>
        <time>2013-03-02T18:21:14Z</time>
      </trkpt>
      <trkpt lat="44.03555" lon="1.71914">
        <ele>368</ele>
        <time>2013-03-02T18:21:16Z</time>
      </trkpt>
      <trkpt lat="44.03559" lon="1.71916">
        <ele>369</ele>
        <time>2013-03-02T18:21:18Z</time>
      </trkpt>
      <trkpt lat="44.03562" lon="1.71918">
        <ele>370</ele>
        <time>2013-03-02T18:21:20Z</time>
      </trkpt>
      <trkpt lat="44.03566" lon="1.71921">
        <ele>370</ele>
        <time>2013-03-02T18:21:22Z</time>
      </trkpt>
      <trkpt lat="44.0357" lon="1.71922">
        <ele>371</ele>
        <time>2013-03-02T18:21:24Z</time>
      </trkpt>
      <trkpt lat="44.03574" lon="1.71924">
        <ele>371</ele>
        <time>2013-03-02T18:21:26Z</time>
      </trkpt>
      <trkpt lat="44.03577" lon="1.71925">
        <ele>371</ele>
        <time>2013-03-02T18:21:28Z</time>
      </trkpt>
      <trkpt lat="44.03581" lon="1.71927">
        <ele>372</ele>
        <time>2013-03-02T18:21:30Z</time>
      </trkpt>
      <trkpt lat="44.03584" lon="1.7193">
        <ele>372</ele>
        <time>2013-03-02T18:21:32Z</time>
      </trkpt>
      <trkpt lat="44.03588" lon="1.71932">
        <ele>373</ele>
        <time>2013-03-02T18:21:34Z</time>
      </trkpt>
      <trkpt lat="44.03592" lon="1.71934">
        <ele>374</ele>
        <time>2013-03-02T18:21:36Z</time>
      </trkpt>
      <trkpt lat="44.03595" lon="1.71937">
        <ele>375</ele>
        <time>2013-03-02T18:21:38Z</time>
      </trkpt>
      <trkpt lat="44.03599" lon="1.7194">
        <ele>376</ele>
        <time>2013-03-02T18:21:40Z</time>
      </trkpt>
      <trkpt lat="44.03602" lon="1.71941">
        <ele>377</ele>
        <time>2013-03-02T18:21:42Z</time>
      </trkpt>
      <trkpt lat="44.03606" lon="1.71942">
        <ele>377</ele>
        <time>2013-03-02T18:21:44Z</time>
      </trkpt>
      <trkpt lat="44.03609" lon="1.71944">
        <ele>378</ele>
        <time>2013-03-02T18:21:46Z</time>
      </trkpt>
      <trkpt lat="44.03613" lon="1.71945">
        <ele>379</ele>
        <time>2013-03-02T18:21:48Z</time>
      </trkpt>
      <trkpt lat="44.03616" lon="1.71946">
        <ele>380</ele>
        <time>2013-03-02T18:21:50Z</time>
      </trkpt>
      <trkpt lat="44.03619" lon="1.71949">
        <ele>381</ele>
        <time>2013-03-02T18:21:52Z</time>
      </trkpt>
      <trkpt lat="44.03623" lon="1.7195">
        <ele>382</ele>
        <time>2013-03-02T18:21:54Z</time>
      </trkpt>
      <trkpt lat="44.03625" lon="1.71952">
        <ele>383</ele>
        <time>2013-03-02T18:21:56Z</time>
      </trkpt>
      <trkpt lat="44.03629" lon="1.71954">
        <ele>384</ele>
        <time>2013-03-02T18:21:58Z</time>
      </trkpt>
      <trkpt lat="44.03632" lon="1.71956">
        <ele>385</ele>
        <time>2013-03-02T18:22:00Z</time>
      </trkpt>
      <trkpt lat="44.03636" lon="1.71958">
        <ele>385</ele>
        <time>2013-03-02T18:22:02Z</time>
      </trkpt>
      <trkpt lat="44.03639" lon="1.7196">
        <ele>386</ele>
        <time>2013-03-02T18:22:04Z</time>
      </trkpt>
      <trkpt lat="44.03643" lon="1.71962">
        <ele>386</ele>
        <time>2013-03-02T18:22:06Z</time>
      </trkpt>
      <trkpt lat="44.03645" lon="1.71963">
        <ele>387</ele>
        <time>2013-03-02T18:22:08Z</time>
      </trkpt>
      <trkpt lat="44.03649" lon="1.71965">
        <ele>387</ele>
        <time>2013-03-02T18:22:10Z</time>
      </trkpt>
      <trkpt lat="44.03653" lon="1.71966">
        <ele>388</ele>
        <time>2013-03-02T18:22:12Z</time>
      </trkpt>
      <trkpt lat="44.03657" lon="1.71967">
        <ele>388</ele>
        <time>2013-03-02T18:22:14Z</time>
      </trkpt>
      <trkpt lat="44.03661" lon="1.71967">
        <ele>388</ele>
        <time>2013-03-02T18:22:16Z</time>
      </trkpt>
      <trkpt lat="44.03664" lon="1.71967">
        <ele>388</ele>
        <time>2013-03-02T18:22:18Z</time>
      </trkpt>
      <trkpt lat="44.03668" lon="1.71967">
        <ele>388</ele>
        <time>2013-03-02T18:22:20Z</time>
      </trkpt>
      <trkpt lat="44.03671" lon="1.71968">
        <ele>388</ele>
        <time>2013-03-02T18:22:22Z</time>
      </trkpt>
      <trkpt lat="44.03674" lon="1.71969">
        <ele>388</ele>
        <time>2013-03-02T18:22:24Z</time>
      </trkpt>
      <trkpt lat="44.03675" lon="1.71967">
        <ele>388</ele>
        <time>2013-03-02T18:22:26Z</time>
      </trkpt>
      <trkpt lat="44.03677" lon="1.71967">
        <ele>388</ele>
        <time>2013-03-02T18:22:29Z</time>
      </trkpt>
      <trkpt lat="44.03678" lon="1.71965">
        <ele>388</ele>
        <time>2013-03-02T18:22:32Z</time>
      </trkpt>
      <trkpt lat="44.03679" lon="1.71964">
        <ele>388</ele>
        <time>2013-03-02T18:22:34Z</time>
      </trkpt>
      <trkpt lat="44.03681" lon="1.71965">
        <ele>388</ele>
        <time>2013-03-02T18:22:36Z</time>
      </trkpt>
      <trkpt lat="44.03682" lon="1.71967">
        <ele>388</ele>
        <time>2013-03-02T18:22:38Z</time>
      </trkpt>
      <trkpt lat="44.03684" lon="1.71969">
        <ele>388</ele>
        <time>2013-03-02T18:22:40Z</time>
      </trkpt>
      <trkpt lat="44.03685" lon="1.71973">
        <ele>388</ele>
        <time>2013-03-02T18:22:43Z</time>
      </trkpt>
      <trkpt lat="44.03684" lon="1.71975">
        <ele>388</ele>
        <time>2013-03-02T18:22:45Z</time>
      </trkpt>
      <trkpt lat="44.03683" lon="1.71977">
        <ele>388</ele>
        <time>2013-03-02T18:22:47Z</time>
      </trkpt>
      <trkpt lat="44.03682" lon="1.71978">
        <ele>388</ele>
        <time>2013-03-02T18:22:49Z</time>
      </trkpt>
      <trkpt lat="44.03682" lon="1.71979">
        <ele>388</ele>
        <time>2013-03-02T18:22:53Z</time>
      </trkpt>
      <trkpt lat="44.03682" lon="1.71978">
        <ele>388</ele>
        <time>2013-03-02T18:23:03Z</time>
      </trkpt>
      <trkpt lat="44.03682" lon="1.7198">
        <ele>387</ele>
        <time>2013-03-02T18:23:41Z</time>
      </trkpt>
      <trkpt lat="44.03681" lon="1.71981">
        <ele>389</ele>
        <time>2013-03-02T18:23:45Z</time>
      </trkpt>
      <trkpt lat="44.03683" lon="1.71982">
        <ele>390</ele>
        <time>2013-03-02T18:23:52Z</time>
      </trkpt>
      <trkpt lat="44.03684" lon="1.71981">
        <ele>390</ele>
        <time>2013-03-02T18:23:55Z</time>
      </trkpt>
      <trkpt lat="44.03685" lon="1.71982">
        <ele>390</ele>
        <time>2013-03-02T18:24:00Z</time>
      </trkpt>
      <trkpt lat="44.03688" lon="1.71981">
        <ele>390</ele>
        <time>2013-03-02T18:24:02Z</time>
      </trkpt>
      <trkpt lat="44.03692" lon="1.7198">
        <ele>390</ele>
        <time>2013-03-02T18:24:04Z</time>
      </trkpt>
      <trkpt lat="44.03696" lon="1.71979">
        <ele>390</ele>
        <time>2013-03-02T18:24:06Z</time>
      </trkpt>
      <trkpt lat="44.037" lon="1.71976">
        <ele>390</ele>
        <time>2013-03-02T18:24:08Z</time>
      </trkpt>
      <trkpt lat="44.03704" lon="1.71973">
        <ele>390</ele>
        <time>2013-03-02T18:24:10Z</time>
      </trkpt>
      <trkpt lat="44.03709" lon="1.7197">
        <ele>390</ele>
        <time>2013-03-02T18:24:12Z</time>
      </trkpt>
      <trkpt lat="44.03713" lon="1.71966">
        <ele>390</ele>
        <time>2013-03-02T18:24:14Z</time>
      </trkpt>
      <trkpt lat="44.03717" lon="1.71962">
        <ele>390</ele>
        <time>2013-03-02T18:24:16Z</time>
      </trkpt>
      <trkpt lat="44.0372" lon="1.71956">
        <ele>390</ele>
        <time>2013-03-02T18:24:18Z</time>
      </trkpt>
      <trkpt lat="44.03722" lon="1.71951">
        <ele>390</ele>
        <time>2013-03-02T18:24:20Z</time>
      </trkpt>
      <trkpt lat="44.03724" lon="1.71945">
        <ele>390</ele>
        <time>2013-03-02T18:24:22Z</time>
      </trkpt>
      <trkpt lat="44.03725" lon="1.71939">
        <ele>390</ele>
        <time>2013-03-02T18:24:24Z</time>
      </trkpt>
      <trkpt lat="44.03726" lon="1.71932">
        <ele>390</ele>
        <time>2013-03-02T18:24:26Z</time>
      </trkpt>
      <trkpt lat="44.03727" lon="1.71925">
        <ele>390</ele>
        <time>2013-03-02T18:24:28Z</time>
      </trkpt>
      <trkpt lat="44.03727" lon="1.71918">
        <ele>390</ele>
        <time>2013-03-02T18:24:30Z</time>
      </trkpt>
      <trkpt lat="44.03727" lon="1.7191">
        <ele>390</ele>
        <time>2013-03-02T18:24:32Z</time>
      </trkpt>
      <trkpt lat="44.03726" lon="1.71903">
        <ele>390</ele>
        <time>2013-03-02T18:24:34Z</time>
      </trkpt>
      <trkpt lat="44.03725" lon="1.71895">
        <ele>391</ele>
        <time>2013-03-02T18:24:36Z</time>
      </trkpt>
      <trkpt lat="44.03723" lon="1.71887">
        <ele>392</ele>
        <time>2013-03-02T18:24:38Z</time>
      </trkpt>
      <trkpt lat="44.03723" lon="1.7188">
        <ele>394</ele>
        <time>2013-03-02T18:24:40Z</time>
      </trkpt>
      <trkpt lat="44.03722" lon="1.71873">
        <ele>396</ele>
        <time>2013-03-02T18:24:42Z</time>
      </trkpt>
      <trkpt lat="44.03721" lon="1.71864">
        <ele>398</ele>
        <time>2013-03-02T18:24:44Z</time>
      </trkpt>
      <trkpt lat="44.0372" lon="1.71858">
        <ele>400</ele>
        <time>2013-03-02T18:24:46Z</time>
      </trkpt>
      <trkpt lat="44.03719" lon="1.71851">
        <ele>401</ele>
        <time>2013-03-02T18:24:48Z</time>
      </trkpt>
      <trkpt lat="44.03718" lon="1.71844">
        <ele>401</ele>
        <time>2013-03-02T18:24:50Z</time>
      </trkpt>
      <trkpt lat="44.03717" lon="1.71839">
        <ele>401</ele>
        <time>2013-03-02T18:24:52Z</time>
      </trkpt>
      <trkpt lat="44.03715" lon="1.71832">
        <ele>401</ele>
        <time>2013-03-02T18:24:54Z</time>
      </trkpt>
      <trkpt lat="44.03714" lon="1.71826">
        <ele>401</ele>
        <time>2013-03-02T18:24:56Z</time>
      </trkpt>
      <trkpt lat="44.03712" lon="1.71819">
        <ele>401</ele>
        <time>2013-03-02T18:24:58Z</time>
      </trkpt>
      <trkpt lat="44.03711" lon="1.71812">
        <ele>401</ele>
        <time>2013-03-02T18:25:00Z</time>
      </trkpt>
      <trkpt lat="44.03709" lon="1.71805">
        <ele>402</ele>
        <time>2013-03-02T18:25:02Z</time>
      </trkpt>
      <trkpt lat="44.03708" lon="1.71798">
        <ele>402</ele>
        <time>2013-03-02T18:25:04Z</time>
      </trkpt>
      <trkpt lat="44.03707" lon="1.71791">
        <ele>402</ele>
        <time>2013-03-02T18:25:06Z</time>
      </trkpt>
      <trkpt lat="44.03706" lon="1.71784">
        <ele>402</ele>
        <time>2013-03-02T18:25:08Z</time>
      </trkpt>
      <trkpt lat="44.03705" lon="1.71777">
        <ele>402</ele>
        <time>2013-03-02T18:25:10Z</time>
      </trkpt>
      <trkpt lat="44.03705" lon="1.71771">
        <ele>402</ele>
        <time>2013-03-02T18:25:12Z</time>
      </trkpt>
      <trkpt lat="44.03704" lon="1.71763">
        <ele>402</ele>
        <time>2013-03-02T18:25:14Z</time>
      </trkpt>
      <trkpt lat="44.03703" lon="1.71756">
        <ele>402</ele>
        <time>2013-03-02T18:25:16Z</time>
      </trkpt>
      <trkpt lat="44.03702" lon="1.71749">
        <ele>402</ele>
        <time>2013-03-02T18:25:18Z</time>
      </trkpt>
      <trkpt lat="44.03701" lon="1.71742">
        <ele>402</ele>
        <time>2013-03-02T18:25:20Z</time>
      </trkpt>
      <trkpt lat="44.03701" lon="1.71735">
        <ele>402</ele>
        <time>2013-03-02T18:25:22Z</time>
      </trkpt>
      <trkpt lat="44.03702" lon="1.71728">
        <ele>402</ele>
        <time>2013-03-02T18:25:24Z</time>
      </trkpt>
      <trkpt lat="44.03701" lon="1.71721">
        <ele>403</ele>
        <time>2013-03-02T18:25:26Z</time>
      </trkpt>
      <trkpt lat="44.03701" lon="1.71713">
        <ele>403</ele>
        <time>2013-03-02T18:25:28Z</time>
      </trkpt>
      <trkpt lat="44.03701" lon="1.71706">
        <ele>404</ele>
        <time>2013-03-02T18:25:30Z</time>
      </trkpt>
      <trkpt lat="44.03701" lon="1.71698">
        <ele>405</ele>
        <time>2013-03-02T18:25:32Z</time>
      </trkpt>
      <trkpt lat="44.03701" lon="1.7169">
        <ele>405</ele>
        <time>2013-03-02T18:25:34Z</time>
      </trkpt>
      <trkpt lat="44.03701" lon="1.71682">
        <ele>406</ele>
        <time>2013-03-02T18:25:36Z</time>
      </trkpt>
      <trkpt lat="44.03702" lon="1.71674">
        <ele>406</ele>
        <time>2013-03-02T18:25:38Z</time>
      </trkpt>
      <trkpt lat="44.03702" lon="1.71667">
        <ele>407</ele>
        <time>2013-03-02T18:25:40Z</time>
      </trkpt>
      <trkpt lat="44.03702" lon="1.71658">
        <ele>407</ele>
        <time>2013-03-02T18:25:42Z</time>
      </trkpt>
      <trkpt lat="44.03703" lon="1.7165">
        <ele>407</ele>
        <time>2013-03-02T18:25:44Z</time>
      </trkpt>
      <trkpt lat="44.03703" lon="1.71642">
        <ele>408</ele>
        <time>2013-03-02T18:25:46Z</time>
      </trkpt>
      <trkpt lat="44.03704" lon="1.71634">
        <ele>409</ele>
        <time>2013-03-02T18:25:48Z</time>
      </trkpt>
      <trkpt lat="44.03704" lon="1.71626">
        <ele>410</ele>
        <time>2013-03-02T18:25:50Z</time>
      </trkpt>
      <trkpt lat="44.03704" lon="1.71618">
        <ele>410</ele>
        <time>2013-03-02T18:25:52Z</time>
      </trkpt>
      <trkpt lat="44.03704" lon="1.7161">
        <ele>411</ele>
        <time>2013-03-02T18:25:54Z</time>
      </trkpt>
      <trkpt lat="44.03704" lon="1.71601">
        <ele>412</ele>
        <time>2013-03-02T18:25:56Z</time>
      </trkpt>
      <trkpt lat="44.03704" lon="1.71594">
        <ele>413</ele>
        <time>2013-03-02T18:25:58Z</time>
      </trkpt>
      <trkpt lat="44.03704" lon="1.71586">
        <ele>414</ele>
        <time>2013-03-02T18:26:00Z</time>
      </trkpt>
      <trkpt lat="44.03704" lon="1.71579">
        <ele>414</ele>
        <time>2013-03-02T18:26:02Z</time>
      </trkpt>
      <trkpt lat="44.03704" lon="1.71572">
        <ele>414</ele>
        <time>2013-03-02T18:26:04Z</time>
      </trkpt>
      <trkpt lat="44.03704" lon="1.71565">
        <ele>414</ele>
        <time>2013-03-02T18:26:06Z</time>
      </trkpt>
      <trkpt lat="44.03702" lon="1.71557">
        <ele>414</ele>
        <time>2013-03-02T18:26:08Z</time>
      </trkpt>
      <trkpt lat="44.03701" lon="1.7155">
        <ele>414</ele>
        <time>2013-03-02T18:26:10Z</time>
      </trkpt>
      <trkpt lat="44.037" lon="1.71543">
        <ele>414</ele>
        <time>2013-03-02T18:26:12Z</time>
      </trkpt>
      <trkpt lat="44.03699" lon="1.71535">
        <ele>414</ele>
        <time>2013-03-02T18:26:14Z</time>
      </trkpt>
      <trkpt lat="44.03699" lon="1.71528">
        <ele>414</ele>
        <time>2013-03-02T18:26:16Z</time>
      </trkpt>
      <trkpt lat="44.03698" lon="1.7152">
        <ele>414</ele>
        <time>2013-03-02T18:26:18Z</time>
      </trkpt>
      <trkpt lat="44.03697" lon="1.71512">
        <ele>414</ele>
        <time>2013-03-02T18:26:20Z</time>
      </trkpt>
      <trkpt lat="44.03697" lon="1.71504">
        <ele>414</ele>
        <time>2013-03-02T18:26:22Z</time>
      </trkpt>
      <trkpt lat="44.03696" lon="1.71497">
        <ele>414</ele>
        <time>2013-03-02T18:26:24Z</time>
      </trkpt>
      <trkpt lat="44.03695" lon="1.71489">
        <ele>414</ele>
        <time>2013-03-02T18:26:26Z</time>
      </trkpt>
      <trkpt lat="44.03695" lon="1.71482">
        <ele>414</ele>
        <time>2013-03-02T18:26:28Z</time>
      </trkpt>
      <trkpt lat="44.03693" lon="1.71474">
        <ele>414</ele>
        <time>2013-03-02T18:26:30Z</time>
      </trkpt>
      <trkpt lat="44.03693" lon="1.71466">
        <ele>414</ele>
        <time>2013-03-02T18:26:32Z</time>
      </trkpt>
      <trkpt lat="44.03692" lon="1.71458">
        <ele>414</ele>
        <time>2013-03-02T18:26:34Z</time>
      </trkpt>
      <trkpt lat="44.03691" lon="1.71451">
        <ele>414</ele>
        <time>2013-03-02T18:26:36Z</time>
      </trkpt>
      <trkpt lat="44.03692" lon="1.71443">
        <ele>414</ele>
        <time>2013-03-02T18:26:38Z</time>
      </trkpt>
      <trkpt lat="44.03693" lon="1.71436">
        <ele>414</ele>
        <time>2013-03-02T18:26:40Z</time>
      </trkpt>
      <trkpt lat="44.03693" lon="1.71428">
        <ele>414</ele>
        <time>2013-03-02T18:26:42Z</time>
      </trkpt>
      <trkpt lat="44.03693" lon="1.7142">
        <ele>414</ele>
        <time>2013-03-02T18:26:44Z</time>
      </trkpt>
      <trkpt lat="44.03694" lon="1.71413">
        <ele>414</ele>
        <time>2013-03-02T18:26:46Z</time>
      </trkpt>
      <trkpt lat="44.03695" lon="1.71405">
        <ele>414</ele>
        <time>2013-03-02T18:26:48Z</time>
      </trkpt>
      <trkpt lat="44.03695" lon="1.71398">
        <ele>414</ele>
        <time>2013-03-02T18:26:50Z</time>
      </trkpt>
      <trkpt lat="44.03695" lon="1.7139">
        <ele>414</ele>
        <time>2013-03-02T18:26:52Z</time>
      </trkpt>
      <trkpt lat="44.03696" lon="1.71384">
        <ele>414</ele>
        <time>2013-03-02T18:26:54Z</time>
      </trkpt>
      <trkpt lat="44.03699" lon="1.71379">
        <ele>414</ele>
        <time>2013-03-02T18:26:56Z</time>
      </trkpt>
      <trkpt lat="44.03702" lon="1.71382">
        <ele>414</ele>
        <time>2013-03-02T18:26:58Z</time>
      </trkpt>
      <trkpt lat="44.03702" lon="1.71389">
        <ele>414</ele>
        <time>2013-03-02T18:27:00Z</time>
      </trkpt>
      <trkpt lat="44.03702" lon="1.71397">
        <ele>414</ele>
        <time>2013-03-02T18:27:02Z</time>
      </trkpt>
      <trkpt lat="44.03702" lon="1.71405">
        <ele>414</ele>
        <time>2013-03-02T18:27:04Z</time>
      </trkpt>
      <trkpt lat="44.03702" lon="1.71413">
        <ele>414</ele>
        <time>2013-03-02T18:27:06Z</time>
      </trkpt>
      <trkpt lat="44.03703" lon="1.71422">
        <ele>414</ele>
        <time>2013-03-02T18:27:08Z</time>
      </trkpt>
      <trkpt lat="44.03703" lon="1.71431">
        <ele>414</ele>
        <time>2013-03-02T18:27:10Z</time>
      </trkpt>
      <trkpt lat="44.03704" lon="1.7144">
        <ele>414</ele>
        <time>2013-03-02T18:27:12Z</time>
      </trkpt>
      <trkpt lat="44.03705" lon="1.71449">
        <ele>414</ele>
        <time>2013-03-02T18:27:14Z</time>
      </trkpt>
      <trkpt lat="44.03706" lon="1.71459">
        <ele>414</ele>
        <time>2013-03-02T18:27:16Z</time>
      </trkpt>
      <trkpt lat="44.03708" lon="1.71468">
        <ele>414</ele>
        <time>2013-03-02T18:27:18Z</time>
      </trkpt>
      <trkpt lat="44.03711" lon="1.71477">
        <ele>414</ele>
        <time>2013-03-02T18:27:20Z</time>
      </trkpt>
      <trkpt lat="44.03713" lon="1.71486">
        <ele>414</ele>
        <time>2013-03-02T18:27:22Z</time>
      </trkpt>
      <trkpt lat="44.03716" lon="1.71495">
        <ele>414</ele>
        <time>2013-03-02T18:27:24Z</time>
      </trkpt>
      <trkpt lat="44.03719" lon="1.71503">
        <ele>415</ele>
        <time>2013-03-02T18:27:26Z</time>
      </trkpt>
      <trkpt lat="44.03723" lon="1.71511">
        <ele>415</ele>
        <time>2013-03-02T18:27:28Z</time>
      </trkpt>
      <trkpt lat="44.03727" lon="1.71519">
        <ele>415</ele>
        <time>2013-03-02T18:27:30Z</time>
      </trkpt>
      <trkpt lat="44.0373" lon="1.71528">
        <ele>415</ele>
        <time>2013-03-02T18:27:32Z</time>
      </trkpt>
      <trkpt lat="44.03734" lon="1.71536">
        <ele>415</ele>
        <time>2013-03-02T18:27:34Z</time>
      </trkpt>
      <trkpt lat="44.03738" lon="1.71544">
        <ele>415</ele>
        <time>2013-03-02T18:27:36Z</time>
      </trkpt>
      <trkpt lat="44.03741" lon="1.71551">
        <ele>416</ele>
        <time>2013-03-02T18:27:38Z</time>
      </trkpt>
      <trkpt lat="44.03744" lon="1.71558">
        <ele>416</ele>
        <time>2013-03-02T18:27:40Z</time>
      </trkpt>
      <trkpt lat="44.03747" lon="1.71564">
        <ele>416</ele>
        <time>2013-03-02T18:27:42Z</time>
      </trkpt>
      <trkpt lat="44.03751" lon="1.7157">
        <ele>417</ele>
        <time>2013-03-02T18:27:44Z</time>
      </trkpt>
      <trkpt lat="44.03754" lon="1.71576">
        <ele>417</ele>
        <time>2013-03-02T18:27:46Z</time>
      </trkpt>
      <trkpt lat="44.03758" lon="1.71581">
        <ele>417</ele>
        <time>2013-03-02T18:27:48Z</time>
      </trkpt>
      <trkpt lat="44.03762" lon="1.71588">
        <ele>417</ele>
        <time>2013-03-02T18:27:50Z</time>
      </trkpt>
      <trkpt lat="44.03766" lon="1.71594">
        <ele>417</ele>
        <time>2013-03-02T18:27:52Z</time>
      </trkpt>
      <trkpt lat="44.0377" lon="1.716">
        <ele>417</ele>
        <time>2013-03-02T18:27:54Z</time>
      </trkpt>
      <trkpt lat="44.03773" lon="1.71606">
        <ele>417</ele>
        <time>2013-03-02T18:27:56Z</time>
      </trkpt>
      <trkpt lat="44.03777" lon="1.71612">
        <ele>417</ele>
        <time>2013-03-02T18:27:58Z</time>
      </trkpt>
      <trkpt lat="44.0378" lon="1.71619">
        <ele>418</ele>
        <time>2013-03-02T18:28:00Z</time>
      </trkpt>
      <trkpt lat="44.03784" lon="1.71625">
        <ele>418</ele>
        <time>2013-03-02T18:28:02Z</time>
      </trkpt>
      <trkpt lat="44.03788" lon="1.71632">
        <ele>419</ele>
        <time>2013-03-02T18:28:04Z</time>
      </trkpt>
      <trkpt lat="44.03792" lon="1.71639">
        <ele>420</ele>
        <time>2013-03-02T18:28:06Z</time>
      </trkpt>
      <trkpt lat="44.03795" lon="1.71645">
        <ele>420</ele>
        <time>2013-03-02T18:28:08Z</time>
      </trkpt>
      <trkpt lat="44.03799" lon="1.71651">
        <ele>421</ele>
        <time>2013-03-02T18:28:10Z</time>
      </trkpt>
      <trkpt lat="44.03802" lon="1.71657">
        <ele>421</ele>
        <time>2013-03-02T18:28:12Z</time>
      </trkpt>
      <trkpt lat="44.03806" lon="1.71664">
        <ele>421</ele>
        <time>2013-03-02T18:28:14Z</time>
      </trkpt>
      <trkpt lat="44.03809" lon="1.7167">
        <ele>421</ele>
        <time>2013-03-02T18:28:16Z</time>
      </trkpt>
      <trkpt lat="44.03813" lon="1.71677">
        <ele>421</ele>
        <time>2013-03-02T18:28:18Z</time>
      </trkpt>
      <trkpt lat="44.03817" lon="1.71684">
        <ele>422</ele>
        <time>2013-03-02T18:28:20Z</time>
      </trkpt>
      <trkpt lat="44.03821" lon="1.7169">
        <ele>422</ele>
        <time>2013-03-02T18:28:22Z</time>
      </trkpt>
      <trkpt lat="44.03825" lon="1.71697">
        <ele>423</ele>
        <time>2013-03-02T18:28:24Z</time>
      </trkpt>
      <trkpt lat="44.03828" lon="1.71703">
        <ele>423</ele>
        <time>2013-03-02T18:28:26Z</time>
      </trkpt>
      <trkpt lat="44.03832" lon="1.7171">
        <ele>423</ele>
        <time>2013-03-02T18:28:28Z</time>
      </trkpt>
      <trkpt lat="44.03836" lon="1.71716">
        <ele>423</ele>
        <time>2013-03-02T18:28:30Z</time>
      </trkpt>
      <trkpt lat="44.0384" lon="1.71723">
        <ele>424</ele>
        <time>2013-03-02T18:28:32Z</time>
      </trkpt>
      <trkpt lat="44.03844" lon="1.7173">
        <ele>424</ele>
        <time>2013-03-02T18:28:34Z</time>
      </trkpt>
      <trkpt lat="44.03848" lon="1.71736">
        <ele>424</ele>
        <time>2013-03-02T18:28:36Z</time>
      </trkpt>
      <trkpt lat="44.03852" lon="1.71742">
        <ele>425</ele>
        <time>2013-03-02T18:28:38Z</time>
      </trkpt>
      <trkpt lat="44.03856" lon="1.71748">
        <ele>425</ele>
        <time>2013-03-02T18:28:40Z</time>
      </trkpt>
      <trkpt lat="44.03861" lon="1.71754">
        <ele>425</ele>
        <time>2013-03-02T18:28:42Z</time>
      </trkpt>
      <trkpt lat="44.03865" lon="1.71759">
        <ele>425</ele>
        <time>2013-03-02T18:28:44Z</time>
      </trkpt>
      <trkpt lat="44.0387" lon="1.71764">
        <ele>426</ele>
        <time>2013-03-02T18:28:46Z</time>
      </trkpt>
      <trkpt lat="44.03876" lon="1.71769">
        <ele>426</ele>
        <time>2013-03-02T18:28:48Z</time>
      </trkpt>
      <trkpt lat="44.03881" lon="1.71773">
        <ele>427</ele>
        <time>2013-03-02T18:28:50Z</time>
      </trkpt>
      <trkpt lat="44.03886" lon="1.71778">
        <ele>427</ele>
        <time>2013-03-02T18:28:52Z</time>
      </trkpt>
      <trkpt lat="44.03891" lon="1.71782">
        <ele>428</ele>
        <time>2013-03-02T18:28:54Z</time>
      </trkpt>
      <trkpt lat="44.03896" lon="1.71786">
        <ele>428</ele>
        <time>2013-03-02T18:28:56Z</time>
      </trkpt>
      <trkpt lat="44.039" lon="1.71792">
        <ele>429</ele>
        <time>2013-03-02T18:28:58Z</time>
      </trkpt>
      <trkpt lat="44.03904" lon="1.71797">
        <ele>429</ele>
        <time>2013-03-02T18:29:00Z</time>
      </trkpt>
      <trkpt lat="44.03908" lon="1.71802">
        <ele>429</ele>
        <time>2013-03-02T18:29:02Z</time>
      </trkpt>
      <trkpt lat="44.03912" lon="1.71808">
        <ele>430</ele>
        <time>2013-03-02T18:29:04Z</time>
      </trkpt>
      <trkpt lat="44.03915" lon="1.71814">
        <ele>430</ele>
        <time>2013-03-02T18:29:06Z</time>
      </trkpt>
      <trkpt lat="44.03918" lon="1.7182">
        <ele>431</ele>
        <time>2013-03-02T18:29:08Z</time>
      </trkpt>
      <trkpt lat="44.03921" lon="1.71826">
        <ele>431</ele>
        <time>2013-03-02T18:29:10Z</time>
      </trkpt>
      <trkpt lat="44.03924" lon="1.71832">
        <ele>431</ele>
        <time>2013-03-02T18:29:12Z</time>
      </trkpt>
      <trkpt lat="44.03928" lon="1.71838">
        <ele>432</ele>
        <time>2013-03-02T18:29:14Z</time>
      </trkpt>
      <trkpt lat="44.03931" lon="1.71844">
        <ele>432</ele>
        <time>2013-03-02T18:29:16Z</time>
      </trkpt>
      <trkpt lat="44.03934" lon="1.71851">
        <ele>432</ele>
        <time>2013-03-02T18:29:18Z</time>
      </trkpt>
      <trkpt lat="44.03936" lon="1.71856">
        <ele>433</ele>
        <time>2013-03-02T18:29:20Z</time>
      </trkpt>
      <trkpt lat="44.03939" lon="1.71862">
        <ele>433</ele>
        <time>2013-03-02T18:29:22Z</time>
      </trkpt>
      <trkpt lat="44.03942" lon="1.71869">
        <ele>433</ele>
        <time>2013-03-02T18:29:24Z</time>
      </trkpt>
      <trkpt lat="44.03946" lon="1.71876">
        <ele>434</ele>
        <time>2013-03-02T18:29:26Z</time>
      </trkpt>
      <trkpt lat="44.03949" lon="1.71882">
        <ele>434</ele>
        <time>2013-03-02T18:29:28Z</time>
      </trkpt>
      <trkpt lat="44.03952" lon="1.71888">
        <ele>434</ele>
        <time>2013-03-02T18:29:30Z</time>
      </trkpt>
      <trkpt lat="44.03955" lon="1.71895">
        <ele>434</ele>
        <time>2013-03-02T18:29:32Z</time>
      </trkpt>
      <trkpt lat="44.03958" lon="1.71902">
        <ele>434</ele>
        <time>2013-03-02T18:29:34Z</time>
      </trkpt>
      <trkpt lat="44.03962" lon="1.71909">
        <ele>434</ele>
        <time>2013-03-02T18:29:36Z</time>
      </trkpt>
      <trkpt lat="44.03966" lon="1.71915">
        <ele>434</ele>
        <time>2013-03-02T18:29:38Z</time>
      </trkpt>
      <trkpt lat="44.03971" lon="1.71922">
        <ele>434</ele>
        <time>2013-03-02T18:29:40Z</time>
      </trkpt>
      <trkpt lat="44.03976" lon="1.71927">
        <ele>434</ele>
        <time>2013-03-02T18:29:42Z</time>
      </trkpt>
      <trkpt lat="44.03981" lon="1.71932">
        <ele>434</ele>
        <time>2013-03-02T18:29:44Z</time>
      </trkpt>
      <trkpt lat="44.03988" lon="1.71937">
        <ele>434</ele>
        <time>2013-03-02T18:29:46Z</time>
      </trkpt>
      <trkpt lat="44.03994" lon="1.71942">
        <ele>434</ele>
        <time>2013-03-02T18:29:48Z</time>
      </trkpt>
      <trkpt lat="44.04" lon="1.71948">
        <ele>434</ele>
        <time>2013-03-02T18:29:50Z</time>
      </trkpt>
      <trkpt lat="44.04007" lon="1.71954">
        <ele>434</ele>
        <time>2013-03-02T18:29:52Z</time>
      </trkpt>
      <trkpt lat="44.04014" lon="1.71961">
        <ele>434</ele>
        <time>2013-03-02T18:29:54Z</time>
      </trkpt>
      <trkpt lat="44.0402" lon="1.71968">
        <ele>434</ele>
        <time>2013-03-02T18:29:56Z</time>
      </trkpt>
      <trkpt lat="44.04025" lon="1.71976">
        <ele>434</ele>
        <time>2013-03-02T18:29:58Z</time>
      </trkpt>
      <trkpt lat="44.04031" lon="1.71984">
        <ele>434</ele>
        <time>2013-03-02T18:30:00Z</time>
      </trkpt>
      <trkpt lat="44.04036" lon="1.71993">
        <ele>434</ele>
        <time>2013-03-02T18:30:02Z</time>
      </trkpt>
      <trkpt lat="44.0404" lon="1.72003">
        <ele>434</ele>
        <time>2013-03-02T18:30:04Z</time>
      </trkpt>
      <trkpt lat="44.04045" lon="1.72014">
        <ele>434</ele>
        <time>2013-03-02T18:30:06Z</time>
      </trkpt>
      <trkpt lat="44.04051" lon="1.72025">
        <ele>434</ele>
        <time>2013-03-02T18:30:08Z</time>
      </trkpt>
      <trkpt lat="44.04055" lon="1.72039">
        <ele>434</ele>
        <time>2013-03-02T18:30:10Z</time>
      </trkpt>
      <trkpt lat="44.04056" lon="1.72056">
        <ele>434</ele>
        <time>2013-03-02T18:30:12Z</time>
      </trkpt>
      <trkpt lat="44.04054" lon="1.72075">
        <ele>434</ele>
        <time>2013-03-02T18:30:14Z</time>
      </trkpt>
      <trkpt lat="44.04055" lon="1.72094">
        <ele>434</ele>
        <time>2013-03-02T18:30:16Z</time>
      </trkpt>
      <trkpt lat="44.04058" lon="1.72112">
        <ele>434</ele>
        <time>2013-03-02T18:30:18Z</time>
      </trkpt>
      <trkpt lat="44.04063" lon="1.72129">
        <ele>434</ele>
        <time>2013-03-02T18:30:20Z</time>
      </trkpt>
      <trkpt lat="44.04067" lon="1.72145">
        <ele>434</ele>
        <time>2013-03-02T18:30:22Z</time>
      </trkpt>
      <trkpt lat="44.04072" lon="1.7216">
        <ele>434</ele>
        <time>2013-03-02T18:30:24Z</time>
      </trkpt>
      <trkpt lat="44.04077" lon="1.72174">
        <ele>434</ele>
        <time>2013-03-02T18:30:26Z</time>
      </trkpt>
      <trkpt lat="44.04082" lon="1.72187">
        <ele>434</ele>
        <time>2013-03-02T18:30:28Z</time>
      </trkpt>
      <trkpt lat="44.04089" lon="1.722">
        <ele>434</ele>
        <time>2013-03-02T18:30:30Z</time>
      </trkpt>
      <trkpt lat="44.04097" lon="1.72209">
        <ele>434</ele>
        <time>2013-03-02T18:30:32Z</time>
      </trkpt>
      <trkpt lat="44.04107" lon="1.72216">
        <ele>434</ele>
        <time>2013-03-02T18:30:34Z</time>
      </trkpt>
      <trkpt lat="44.04117" lon="1.72223">
        <ele>434</ele>
        <time>2013-03-02T18:30:36Z</time>
      </trkpt>
      <trkpt lat="44.04127" lon="1.72229">
        <ele>434</ele>
        <time>2013-03-02T18:30:38Z</time>
      </trkpt>
      <trkpt lat="44.04138" lon="1.72234">
        <ele>434</ele>
        <time>2013-03-02T18:30:40Z</time>
      </trkpt>
      <trkpt lat="44.04148" lon="1.72239">
        <ele>434</ele>
        <time>2013-03-02T18:30:42Z</time>
      </trkpt>
      <trkpt lat="44.04158" lon="1.72246">
        <ele>434</ele>
        <time>2013-03-02T18:30:44Z</time>
      </trkpt>
      <trkpt lat="44.04168" lon="1.72253">
        <ele>434</ele>
        <time>2013-03-02T18:30:46Z</time>
      </trkpt>
      <trkpt lat="44.04178" lon="1.7226">
        <ele>434</ele>
        <time>2013-03-02T18:30:48Z</time>
      </trkpt>
      <trkpt lat="44.04187" lon="1.72269">
        <ele>434</ele>
        <time>2013-03-02T18:30:50Z</time>
      </trkpt>
      <trkpt lat="44.04195" lon="1.72278">
        <ele>434</ele>
        <time>2013-03-02T18:30:52Z</time>
      </trkpt>
      <trkpt lat="44.04202" lon="1.7229">
        <ele>434</ele>
        <time>2013-03-02T18:30:54Z</time>
      </trkpt>
      <trkpt lat="44.04208" lon="1.72302">
        <ele>434</ele>
        <time>2013-03-02T18:30:56Z</time>
      </trkpt>
      <trkpt lat="44.04212" lon="1.72313">
        <ele>434</ele>
        <time>2013-03-02T18:30:58Z</time>
      </trkpt>
      <trkpt lat="44.04217" lon="1.72325">
        <ele>434</ele>
        <time>2013-03-02T18:31:00Z</time>
      </trkpt>
      <trkpt lat="44.04222" lon="1.72335">
        <ele>434</ele>
        <time>2013-03-02T18:31:02Z</time>
      </trkpt>
      <trkpt lat="44.04228" lon="1.72345">
        <ele>434</ele>
        <time>2013-03-02T18:31:04Z</time>
      </trkpt>
      <trkpt lat="44.04233" lon="1.72354">
        <ele>435</ele>
        <time>2013-03-02T18:31:06Z</time>
      </trkpt>
      <trkpt lat="44.04237" lon="1.72362">
        <ele>435</ele>
        <time>2013-03-02T18:31:08Z</time>
      </trkpt>
      <trkpt lat="44.04241" lon="1.72368">
        <ele>436</ele>
        <time>2013-03-02T18:31:10Z</time>
      </trkpt>
      <trkpt lat="44.04244" lon="1.72373">
        <ele>436</ele>
        <time>2013-03-02T18:31:12Z</time>
      </trkpt>
      <trkpt lat="44.04246" lon="1.72377">
        <ele>436</ele>
        <time>2013-03-02T18:31:14Z</time>
      </trkpt>
      <trkpt lat="44.04245" lon="1.7238">
        <ele>439</ele>
        <time>2013-03-02T18:31:54Z</time>
      </trkpt>
      <trkpt lat="44.04246" lon="1.7238">
        <ele>439</ele>
        <time>2013-03-02T18:32:02Z</time>
      </trkpt>
      <trkpt lat="44.04247" lon="1.72378">
        <ele>439</ele>
        <time>2013-03-02T18:32:04Z</time>
      </trkpt>
      <trkpt lat="44.04249" lon="1.72378">
        <ele>440</ele>
        <time>2013-03-02T18:32:06Z</time>
      </trkpt>
      <trkpt lat="44.0425" lon="1.72377">
        <ele>442</ele>
        <time>2013-03-02T18:32:11Z</time>
      </trkpt>
      <trkpt lat="44.04251" lon="1.72378">
        <ele>442</ele>
        <time>2013-03-02T18:32:13Z</time>
      </trkpt>
      <trkpt lat="44.0425" lon="1.72378">
        <ele>442</ele>
        <time>2013-03-02T18:32:30Z</time>
      </trkpt>
      <trkpt lat="44.04249" lon="1.72378">
        <ele>442</ele>
        <time>2013-03-02T18:32:34Z</time>
      </trkpt>
      <trkpt lat="44.04248" lon="1.72378">
        <ele>442</ele>
        <time>2013-03-02T18:32:39Z</time>
      </trkpt>
      <trkpt lat="44.0425" lon="1.7238">
        <ele>442</ele>
        <time>2013-03-02T18:32:45Z</time>
      </trkpt>
      <trkpt lat="44.04252" lon="1.72383">
        <ele>442</ele>
        <time>2013-03-02T18:32:47Z</time>
      </trkpt>
      <trkpt lat="44.04256" lon="1.72389">
        <ele>442</ele>
        <time>2013-03-02T18:32:49Z</time>
      </trkpt>
      <trkpt lat="44.04261" lon="1.72397">
        <ele>442</ele>
        <time>2013-03-02T18:32:51Z</time>
      </trkpt>
      <trkpt lat="44.04267" lon="1.72406">
        <ele>442</ele>
        <time>2013-03-02T18:32:53Z</time>
      </trkpt>
      <trkpt lat="44.04273" lon="1.72418">
        <ele>442</ele>
        <time>2013-03-02T18:32:55Z</time>
      </trkpt>
      <trkpt lat="44.0428" lon="1.7243">
        <ele>442</ele>
        <time>2013-03-02T18:32:57Z</time>
      </trkpt>
      <trkpt lat="44.04287" lon="1.72442">
        <ele>442</ele>
        <time>2013-03-02T18:32:59Z</time>
      </trkpt>
      <trkpt lat="44.04294" lon="1.72455">
        <ele>442</ele>
        <time>2013-03-02T18:33:01Z</time>
      </trkpt>
      <trkpt lat="44.043" lon="1.72466">
        <ele>441</ele>
        <time>2013-03-02T18:33:03Z</time>
      </trkpt>
      <trkpt lat="44.04306" lon="1.72477">
        <ele>441</ele>
        <time>2013-03-02T18:33:05Z</time>
      </trkpt>
      <trkpt lat="44.04313" lon="1.72485">
        <ele>440</ele>
        <time>2013-03-02T18:33:07Z</time>
      </trkpt>
      <trkpt lat="44.04322" lon="1.72491">
        <ele>440</ele>
        <time>2013-03-02T18:33:09Z</time>
      </trkpt>
      <trkpt lat="44.04331" lon="1.72493">
        <ele>440</ele>
        <time>2013-03-02T18:33:11Z</time>
      </trkpt>
      <trkpt lat="44.04339" lon="1.72493">
        <ele>440</ele>
        <time>2013-03-02T18:33:13Z</time>
      </trkpt>
      <trkpt lat="44.04348" lon="1.72493">
        <ele>440</ele>
        <time>2013-03-02T18:33:15Z</time>
      </trkpt>
      <trkpt lat="44.04357" lon="1.72493">
        <ele>440</ele>
        <time>2013-03-02T18:33:17Z</time>
      </trkpt>
      <trkpt lat="44.04366" lon="1.72494">
        <ele>440</ele>
        <time>2013-03-02T18:33:19Z</time>
      </trkpt>
      <trkpt lat="44.04376" lon="1.72496">
        <ele>440</ele>
        <time>2013-03-02T18:33:21Z</time>
      </trkpt>
      <trkpt lat="44.04387" lon="1.72499">
        <ele>440</ele>
        <time>2013-03-02T18:33:23Z</time>
      </trkpt>
      <trkpt lat="44.04398" lon="1.72504">
        <ele>440</ele>
        <time>2013-03-02T18:33:25Z</time>
      </trkpt>
      <trkpt lat="44.0441" lon="1.72511">
        <ele>440</ele>
        <time>2013-03-02T18:33:27Z</time>
      </trkpt>
      <trkpt lat="44.04421" lon="1.72519">
        <ele>440</ele>
        <time>2013-03-02T18:33:29Z</time>
      </trkpt>
      <trkpt lat="44.04432" lon="1.72529">
        <ele>440</ele>
        <time>2013-03-02T18:33:31Z</time>
      </trkpt>
      <trkpt lat="44.04443" lon="1.72541">
        <ele>439</ele>
        <time>2013-03-02T18:33:33Z</time>
      </trkpt>
      <trkpt lat="44.04457" lon="1.72554">
        <ele>438</ele>
        <time>2013-03-02T18:33:35Z</time>
      </trkpt>
      <trkpt lat="44.04471" lon="1.72567">
        <ele>437</ele>
        <time>2013-03-02T18:33:37Z</time>
      </trkpt>
      <trkpt lat="44.04486" lon="1.72582">
        <ele>436</ele>
        <time>2013-03-02T18:33:39Z</time>
      </trkpt>
      <trkpt lat="44.04512" lon="1.72605">
        <ele>433</ele>
        <time>2013-03-02T18:33:42Z</time>
      </trkpt>
      <trkpt lat="44.0453" lon="1.72621">
        <ele>432</ele>
        <time>2013-03-02T18:33:44Z</time>
      </trkpt>
      <trkpt lat="44.04548" lon="1.72639">
        <ele>430</ele>
        <time>2013-03-02T18:33:46Z</time>
      </trkpt>
      <trkpt lat="44.04577" lon="1.72666">
        <ele>428</ele>
        <time>2013-03-02T18:33:49Z</time>
      </trkpt>
      <trkpt lat="44.04597" lon="1.72685">
        <ele>426</ele>
        <time>2013-03-02T18:33:51Z</time>
      </trkpt>
      <trkpt lat="44.04626" lon="1.72714">
        <ele>423</ele>
        <time>2013-03-02T18:33:54Z</time>
      </trkpt>
      <trkpt lat="44.04644" lon="1.72731">
        <ele>422</ele>
        <time>2013-03-02T18:33:56Z</time>
      </trkpt>
      <trkpt lat="44.04672" lon="1.72757">
        <ele>421</ele>
        <time>2013-03-02T18:33:59Z</time>
      </trkpt>
      <trkpt lat="44.04689" lon="1.72773">
        <ele>420</ele>
        <time>2013-03-02T18:34:01Z</time>
      </trkpt>
      <trkpt lat="44.04707" lon="1.72789">
        <ele>419</ele>
        <time>2013-03-02T18:34:03Z</time>
      </trkpt>
      <trkpt lat="44.04725" lon="1.72807">
        <ele>418</ele>
        <time>2013-03-02T18:34:05Z</time>
      </trkpt>
      <trkpt lat="44.04744" lon="1.72824">
        <ele>417</ele>
        <time>2013-03-02T18:34:07Z</time>
      </trkpt>
      <trkpt lat="44.04765" lon="1.72843">
        <ele>415</ele>
        <time>2013-03-02T18:34:09Z</time>
      </trkpt>
      <trkpt lat="44.04793" lon="1.72871">
        <ele>412</ele>
        <time>2013-03-02T18:34:12Z</time>
      </trkpt>
      <trkpt lat="44.04808" lon="1.72894">
        <ele>411</ele>
        <time>2013-03-02T18:34:14Z</time>
      </trkpt>
      <trkpt lat="44.04822" lon="1.72914">
        <ele>411</ele>
        <time>2013-03-02T18:34:16Z</time>
      </trkpt>
      <trkpt lat="44.04835" lon="1.72931">
        <ele>411</ele>
        <time>2013-03-02T18:34:18Z</time>
      </trkpt>
      <trkpt lat="44.04846" lon="1.72945">
        <ele>411</ele>
        <time>2013-03-02T18:34:20Z</time>
      </trkpt>
      <trkpt lat="44.04854" lon="1.72958">
        <ele>411</ele>
        <time>2013-03-02T18:34:22Z</time>
      </trkpt>
      <trkpt lat="44.04861" lon="1.72968">
        <ele>411</ele>
        <time>2013-03-02T18:34:24Z</time>
      </trkpt>
      <trkpt lat="44.04867" lon="1.72977">
        <ele>411</ele>
        <time>2013-03-02T18:34:26Z</time>
      </trkpt>
      <trkpt lat="44.04874" lon="1.72984">
        <ele>411</ele>
        <time>2013-03-02T18:34:28Z</time>
      </trkpt>
      <trkpt lat="44.0488" lon="1.7299">
        <ele>411</ele>
        <time>2013-03-02T18:34:30Z</time>
      </trkpt>
      <trkpt lat="44.04887" lon="1.72995">
        <ele>411</ele>
        <time>2013-03-02T18:34:32Z</time>
      </trkpt>
      <trkpt lat="44.04895" lon="1.73">
        <ele>411</ele>
        <time>2013-03-02T18:34:34Z</time>
      </trkpt>
      <trkpt lat="44.04903" lon="1.73006">
        <ele>411</ele>
        <time>2013-03-02T18:34:36Z</time>
      </trkpt>
      <trkpt lat="44.04913" lon="1.73015">
        <ele>411</ele>
        <time>2013-03-02T18:34:38Z</time>
      </trkpt>
      <trkpt lat="44.04923" lon="1.73026">
        <ele>411</ele>
        <time>2013-03-02T18:34:40Z</time>
      </trkpt>
      <trkpt lat="44.04933" lon="1.7304">
        <ele>411</ele>
        <time>2013-03-02T18:34:42Z</time>
      </trkpt>
      <trkpt lat="44.04943" lon="1.73055">
        <ele>411</ele>
        <time>2013-03-02T18:34:44Z</time>
      </trkpt>
      <trkpt lat="44.04954" lon="1.7307">
        <ele>410</ele>
        <time>2013-03-02T18:34:46Z</time>
      </trkpt>
      <trkpt lat="44.04966" lon="1.73084">
        <ele>409</ele>
        <time>2013-03-02T18:34:48Z</time>
      </trkpt>
      <trkpt lat="44.04978" lon="1.73097">
        <ele>408</ele>
        <time>2013-03-02T18:34:50Z</time>
      </trkpt>
      <trkpt lat="44.0499" lon="1.73106">
        <ele>408</ele>
        <time>2013-03-02T18:34:52Z</time>
      </trkpt>
      <trkpt lat="44.05004" lon="1.73111">
        <ele>407</ele>
        <time>2013-03-02T18:34:54Z</time>
      </trkpt>
      <trkpt lat="44.05017" lon="1.73109">
        <ele>407</ele>
        <time>2013-03-02T18:34:56Z</time>
      </trkpt>
      <trkpt lat="44.05029" lon="1.73102">
        <ele>407</ele>
        <time>2013-03-02T18:34:58Z</time>
      </trkpt>
      <trkpt lat="44.05038" lon="1.73091">
        <ele>407</ele>
        <time>2013-03-02T18:35:00Z</time>
      </trkpt>
      <trkpt lat="44.05046" lon="1.73079">
        <ele>407</ele>
        <time>2013-03-02T18:35:02Z</time>
      </trkpt>
      <trkpt lat="44.05054" lon="1.73067">
        <ele>407</ele>
        <time>2013-03-02T18:35:04Z</time>
      </trkpt>
      <trkpt lat="44.05061" lon="1.73056">
        <ele>407</ele>
        <time>2013-03-02T18:35:06Z</time>
      </trkpt>
      <trkpt lat="44.05068" lon="1.73044">
        <ele>407</ele>
        <time>2013-03-02T18:35:08Z</time>
      </trkpt>
      <trkpt lat="44.05075" lon="1.73034">
        <ele>407</ele>
        <time>2013-03-02T18:35:10Z</time>
      </trkpt>
      <trkpt lat="44.05081" lon="1.73025">
        <ele>407</ele>
        <time>2013-03-02T18:35:12Z</time>
      </trkpt>
      <trkpt lat="44.0509" lon="1.73017">
        <ele>407</ele>
        <time>2013-03-02T18:35:14Z</time>
      </trkpt>
      <trkpt lat="44.05099" lon="1.73011">
        <ele>407</ele>
        <time>2013-03-02T18:35:16Z</time>
      </trkpt>
      <trkpt lat="44.05108" lon="1.73009">
        <ele>407</ele>
        <time>2013-03-02T18:35:18Z</time>
      </trkpt>
      <trkpt lat="44.05118" lon="1.73011">
        <ele>407</ele>
        <time>2013-03-02T18:35:20Z</time>
      </trkpt>
      <trkpt lat="44.05127" lon="1.73018">
        <ele>407</ele>
        <time>2013-03-02T18:35:22Z</time>
      </trkpt>
      <trkpt lat="44.05135" lon="1.73027">
        <ele>407</ele>
        <time>2013-03-02T18:35:24Z</time>
      </trkpt>
      <trkpt lat="44.05142" lon="1.73037">
        <ele>407</ele>
        <time>2013-03-02T18:35:26Z</time>
      </trkpt>
      <trkpt lat="44.05148" lon="1.73047">
        <ele>407</ele>
        <time>2013-03-02T18:35:28Z</time>
      </trkpt>
      <trkpt lat="44.05153" lon="1.73057">
        <ele>407</ele>
        <time>2013-03-02T18:35:30Z</time>
      </trkpt>
      <trkpt lat="44.05158" lon="1.73066">
        <ele>407</ele>
        <time>2013-03-02T18:35:32Z</time>
      </trkpt>
      <trkpt lat="44.05164" lon="1.73074">
        <ele>408</ele>
        <time>2013-03-02T18:35:34Z</time>
      </trkpt>
      <trkpt lat="44.0517" lon="1.73082">
        <ele>408</ele>
        <time>2013-03-02T18:35:36Z</time>
      </trkpt>
      <trkpt lat="44.05177" lon="1.73088">
        <ele>408</ele>
        <time>2013-03-02T18:35:38Z</time>
      </trkpt>
      <trkpt lat="44.05185" lon="1.73093">
        <ele>409</ele>
        <time>2013-03-02T18:35:40Z</time>
      </trkpt>
      <trkpt lat="44.05192" lon="1.73097">
        <ele>410</ele>
        <time>2013-03-02T18:35:42Z</time>
      </trkpt>
      <trkpt lat="44.052" lon="1.73098">
        <ele>411</ele>
        <time>2013-03-02T18:35:44Z</time>
      </trkpt>
      <trkpt lat="44.05209" lon="1.73098">
        <ele>411</ele>
        <time>2013-03-02T18:35:46Z</time>
      </trkpt>
      <trkpt lat="44.05217" lon="1.73096">
        <ele>412</ele>
        <time>2013-03-02T18:35:48Z</time>
      </trkpt>
      <trkpt lat="44.05225" lon="1.73091">
        <ele>413</ele>
        <time>2013-03-02T18:35:50Z</time>
      </trkpt>
      <trkpt lat="44.05232" lon="1.73086">
        <ele>413</ele>
        <time>2013-03-02T18:35:52Z</time>
      </trkpt>
      <trkpt lat="44.0524" lon="1.73081">
        <ele>414</ele>
        <time>2013-03-02T18:35:54Z</time>
      </trkpt>
      <trkpt lat="44.05247" lon="1.73076">
        <ele>414</ele>
        <time>2013-03-02T18:35:56Z</time>
      </trkpt>
      <trkpt lat="44.05254" lon="1.73071">
        <ele>415</ele>
        <time>2013-03-02T18:35:58Z</time>
      </trkpt>
      <trkpt lat="44.0526" lon="1.73065">
        <ele>415</ele>
        <time>2013-03-02T18:36:00Z</time>
      </trkpt>
      <trkpt lat="44.05267" lon="1.73059">
        <ele>416</ele>
        <time>2013-03-02T18:36:02Z</time>
      </trkpt>
      <trkpt lat="44.05274" lon="1.73054">
        <ele>416</ele>
        <time>2013-03-02T18:36:04Z</time>
      </trkpt>
      <trkpt lat="44.05281" lon="1.73048">
        <ele>416</ele>
        <time>2013-03-02T18:36:06Z</time>
      </trkpt>
      <trkpt lat="44.05287" lon="1.73042">
        <ele>416</ele>
        <time>2013-03-02T18:36:08Z</time>
      </trkpt>
      <trkpt lat="44.05294" lon="1.73036">
        <ele>416</ele>
        <time>2013-03-02T18:36:10Z</time>
      </trkpt>
      <trkpt lat="44.05301" lon="1.73031">
        <ele>417</ele>
        <time>2013-03-02T18:36:12Z</time>
      </trkpt>
      <trkpt lat="44.05307" lon="1.73026">
        <ele>417</ele>
        <time>2013-03-02T18:36:14Z</time>
      </trkpt>
      <trkpt lat="44.05313" lon="1.73023">
        <ele>418</ele>
        <time>2013-03-02T18:36:16Z</time>
      </trkpt>
      <trkpt lat="44.05319" lon="1.73021">
        <ele>418</ele>
        <time>2013-03-02T18:36:18Z</time>
      </trkpt>
      <trkpt lat="44.05326" lon="1.73019">
        <ele>418</ele>
        <time>2013-03-02T18:36:20Z</time>
      </trkpt>
      <trkpt lat="44.05333" lon="1.73019">
        <ele>419</ele>
        <time>2013-03-02T18:36:22Z</time>
      </trkpt>
      <trkpt lat="44.05339" lon="1.7302">
        <ele>419</ele>
        <time>2013-03-02T18:36:24Z</time>
      </trkpt>
      <trkpt lat="44.05346" lon="1.73022">
        <ele>420</ele>
        <time>2013-03-02T18:36:26Z</time>
      </trkpt>
      <trkpt lat="44.05352" lon="1.73025">
        <ele>420</ele>
        <time>2013-03-02T18:36:28Z</time>
      </trkpt>
      <trkpt lat="44.05357" lon="1.73029">
        <ele>420</ele>
        <time>2013-03-02T18:36:30Z</time>
      </trkpt>
      <trkpt lat="44.05363" lon="1.73033">
        <ele>421</ele>
        <time>2013-03-02T18:36:32Z</time>
      </trkpt>
      <trkpt lat="44.05368" lon="1.73037">
        <ele>421</ele>
        <time>2013-03-02T18:36:34Z</time>
      </trkpt>
      <trkpt lat="44.05374" lon="1.73041">
        <ele>421</ele>
        <time>2013-03-02T18:36:36Z</time>
      </trkpt>
      <trkpt lat="44.05379" lon="1.73045">
        <ele>422</ele>
        <time>2013-03-02T18:36:38Z</time>
      </trkpt>
      <trkpt lat="44.05385" lon="1.73049">
        <ele>422</ele>
        <time>2013-03-02T18:36:40Z</time>
      </trkpt>
      <trkpt lat="44.0539" lon="1.73053">
        <ele>422</ele>
        <time>2013-03-02T18:36:42Z</time>
      </trkpt>
      <trkpt lat="44.05396" lon="1.73057">
        <ele>423</ele>
        <time>2013-03-02T18:36:44Z</time>
      </trkpt>
      <trkpt lat="44.05401" lon="1.73061">
        <ele>423</ele>
        <time>2013-03-02T18:36:46Z</time>
      </trkpt>
      <trkpt lat="44.05407" lon="1.73065">
        <ele>423</ele>
        <time>2013-03-02T18:36:48Z</time>
      </trkpt>
      <trkpt lat="44.05413" lon="1.73069">
        <ele>423</ele>
        <time>2013-03-02T18:36:50Z</time>
      </trkpt>
      <trkpt lat="44.05418" lon="1.73073">
        <ele>423</ele>
        <time>2013-03-02T18:36:52Z</time>
      </trkpt>
      <trkpt lat="44.05423" lon="1.73076">
        <ele>423</ele>
        <time>2013-03-02T18:36:54Z</time>
      </trkpt>
      <trkpt lat="44.05429" lon="1.7308">
        <ele>423</ele>
        <time>2013-03-02T18:36:56Z</time>
      </trkpt>
      <trkpt lat="44.05434" lon="1.73084">
        <ele>424</ele>
        <time>2013-03-02T18:36:58Z</time>
      </trkpt>
      <trkpt lat="44.05439" lon="1.73088">
        <ele>424</ele>
        <time>2013-03-02T18:37:00Z</time>
      </trkpt>
      <trkpt lat="44.05445" lon="1.73091">
        <ele>424</ele>
        <time>2013-03-02T18:37:02Z</time>
      </trkpt>
      <trkpt lat="44.0545" lon="1.73095">
        <ele>424</ele>
        <time>2013-03-02T18:37:04Z</time>
      </trkpt>
      <trkpt lat="44.05456" lon="1.731">
        <ele>424</ele>
        <time>2013-03-02T18:37:06Z</time>
      </trkpt>
      <trkpt lat="44.05461" lon="1.73105">
        <ele>424</ele>
        <time>2013-03-02T18:37:08Z</time>
      </trkpt>
      <trkpt lat="44.05466" lon="1.73111">
        <ele>424</ele>
        <time>2013-03-02T18:37:10Z</time>
      </trkpt>
      <trkpt lat="44.05471" lon="1.73117">
        <ele>425</ele>
        <time>2013-03-02T18:37:12Z</time>
      </trkpt>
      <trkpt lat="44.05476" lon="1.73125">
        <ele>425</ele>
        <time>2013-03-02T18:37:14Z</time>
      </trkpt>
      <trkpt lat="44.0548" lon="1.73134">
        <ele>425</ele>
        <time>2013-03-02T18:37:16Z</time>
      </trkpt>
      <trkpt lat="44.05484" lon="1.73144">
        <ele>425</ele>
        <time>2013-03-02T18:37:18Z</time>
      </trkpt>
      <trkpt lat="44.05487" lon="1.73154">
        <ele>425</ele>
        <time>2013-03-02T18:37:20Z</time>
      </trkpt>
      <trkpt lat="44.0549" lon="1.73164">
        <ele>425</ele>
        <time>2013-03-02T18:37:22Z</time>
      </trkpt>
      <trkpt lat="44.05493" lon="1.73174">
        <ele>425</ele>
        <time>2013-03-02T18:37:24Z</time>
      </trkpt>
      <trkpt lat="44.05497" lon="1.73185">
        <ele>425</ele>
        <time>2013-03-02T18:37:26Z</time>
      </trkpt>
      <trkpt lat="44.05501" lon="1.73196">
        <ele>425</ele>
        <time>2013-03-02T18:37:28Z</time>
      </trkpt>
      <trkpt lat="44.05506" lon="1.73207">
        <ele>425</ele>
        <time>2013-03-02T18:37:30Z</time>
      </trkpt>
      <trkpt lat="44.05513" lon="1.7322">
        <ele>425</ele>
        <time>2013-03-02T18:37:32Z</time>
      </trkpt>
      <trkpt lat="44.05521" lon="1.73233">
        <ele>425</ele>
        <time>2013-03-02T18:37:34Z</time>
      </trkpt>
      <trkpt lat="44.0553" lon="1.73248">
        <ele>425</ele>
        <time>2013-03-02T18:37:36Z</time>
      </trkpt>
      <trkpt lat="44.0554" lon="1.73264">
        <ele>425</ele>
        <time>2013-03-02T18:37:38Z</time>
      </trkpt>
      <trkpt lat="44.05552" lon="1.73282">
        <ele>425</ele>
        <time>2013-03-02T18:37:40Z</time>
      </trkpt>
      <trkpt lat="44.05564" lon="1.73301">
        <ele>424</ele>
        <time>2013-03-02T18:37:42Z</time>
      </trkpt>
      <trkpt lat="44.05584" lon="1.73333">
        <ele>421</ele>
        <time>2013-03-02T18:37:45Z</time>
      </trkpt>
      <trkpt lat="44.05599" lon="1.73355">
        <ele>420</ele>
        <time>2013-03-02T18:37:47Z</time>
      </trkpt>
      <trkpt lat="44.05614" lon="1.73379">
        <ele>418</ele>
        <time>2013-03-02T18:37:49Z</time>
      </trkpt>
      <trkpt lat="44.05632" lon="1.7342">
        <ele>415</ele>
        <time>2013-03-02T18:37:52Z</time>
      </trkpt>
      <trkpt lat="44.05638" lon="1.73453">
        <ele>413</ele>
        <time>2013-03-02T18:37:54Z</time>
      </trkpt>
      <trkpt lat="44.05642" lon="1.73505">
        <ele>410</ele>
        <time>2013-03-02T18:37:57Z</time>
      </trkpt>
      <trkpt lat="44.05645" lon="1.7354">
        <ele>409</ele>
        <time>2013-03-02T18:37:59Z</time>
      </trkpt>
      <trkpt lat="44.05649" lon="1.73591">
        <ele>406</ele>
        <time>2013-03-02T18:38:02Z</time>
      </trkpt>
      <trkpt lat="44.05649" lon="1.73624">
        <ele>405</ele>
        <time>2013-03-02T18:38:04Z</time>
      </trkpt>
      <trkpt lat="44.05643" lon="1.73667">
        <ele>405</ele>
        <time>2013-03-02T18:38:07Z</time>
      </trkpt>
      <trkpt lat="44.05636" lon="1.73692">
        <ele>405</ele>
        <time>2013-03-02T18:38:09Z</time>
      </trkpt>
      <trkpt lat="44.05629" lon="1.73715">
        <ele>405</ele>
        <time>2013-03-02T18:38:11Z</time>
      </trkpt>
      <trkpt lat="44.05621" lon="1.73735">
        <ele>405</ele>
        <time>2013-03-02T18:38:13Z</time>
      </trkpt>
      <trkpt lat="44.05613" lon="1.73751">
        <ele>405</ele>
        <time>2013-03-02T18:38:15Z</time>
      </trkpt>
      <trkpt lat="44.05603" lon="1.73764">
        <ele>405</ele>
        <time>2013-03-02T18:38:17Z</time>
      </trkpt>
      <trkpt lat="44.05595" lon="1.73775">
        <ele>406</ele>
        <time>2013-03-02T18:38:19Z</time>
      </trkpt>
      <trkpt lat="44.05587" lon="1.73785">
        <ele>407</ele>
        <time>2013-03-02T18:38:21Z</time>
      </trkpt>
      <trkpt lat="44.05581" lon="1.73796">
        <ele>408</ele>
        <time>2013-03-02T18:38:23Z</time>
      </trkpt>
      <trkpt lat="44.05577" lon="1.73808">
        <ele>409</ele>
        <time>2013-03-02T18:38:25Z</time>
      </trkpt>
      <trkpt lat="44.05575" lon="1.73819">
        <ele>409</ele>
        <time>2013-03-02T18:38:27Z</time>
      </trkpt>
      <trkpt lat="44.05574" lon="1.73829">
        <ele>409</ele>
        <time>2013-03-02T18:38:29Z</time>
      </trkpt>
      <trkpt lat="44.05574" lon="1.73839">
        <ele>409</ele>
        <time>2013-03-02T18:38:31Z</time>
      </trkpt>
      <trkpt lat="44.05573" lon="1.73847">
        <ele>410</ele>
        <time>2013-03-02T18:38:33Z</time>
      </trkpt>
      <trkpt lat="44.05573" lon="1.73856">
        <ele>410</ele>
        <time>2013-03-02T18:38:35Z</time>
      </trkpt>
      <trkpt lat="44.05572" lon="1.73865">
        <ele>410</ele>
        <time>2013-03-02T18:38:37Z</time>
      </trkpt>
      <trkpt lat="44.05573" lon="1.73875">
        <ele>411</ele>
        <time>2013-03-02T18:38:39Z</time>
      </trkpt>
      <trkpt lat="44.05573" lon="1.73885">
        <ele>412</ele>
        <time>2013-03-02T18:38:41Z</time>
      </trkpt>
      <trkpt lat="44.05574" lon="1.73895">
        <ele>414</ele>
        <time>2013-03-02T18:38:43Z</time>
      </trkpt>
      <trkpt lat="44.05574" lon="1.73904">
        <ele>415</ele>
        <time>2013-03-02T18:38:45Z</time>
      </trkpt>
      <trkpt lat="44.05575" lon="1.73914">
        <ele>417</ele>
        <time>2013-03-02T18:38:47Z</time>
      </trkpt>
      <trkpt lat="44.05577" lon="1.73922">
        <ele>418</ele>
        <time>2013-03-02T18:38:49Z</time>
      </trkpt>
      <trkpt lat="44.05578" lon="1.7393">
        <ele>418</ele>
        <time>2013-03-02T18:38:51Z</time>
      </trkpt>
      <trkpt lat="44.0558" lon="1.73938">
        <ele>419</ele>
        <time>2013-03-02T18:38:53Z</time>
      </trkpt>
      <trkpt lat="44.05582" lon="1.73946">
        <ele>421</ele>
        <time>2013-03-02T18:38:55Z</time>
      </trkpt>
      <trkpt lat="44.05584" lon="1.73954">
        <ele>422</ele>
        <time>2013-03-02T18:38:57Z</time>
      </trkpt>
      <trkpt lat="44.05586" lon="1.73963">
        <ele>423</ele>
        <time>2013-03-02T18:38:59Z</time>
      </trkpt>
      <trkpt lat="44.05588" lon="1.73971">
        <ele>423</ele>
        <time>2013-03-02T18:39:01Z</time>
      </trkpt>
      <trkpt lat="44.0559" lon="1.73979">
        <ele>424</ele>
        <time>2013-03-02T18:39:03Z</time>
      </trkpt>
      <trkpt lat="44.05592" lon="1.73987">
        <ele>424</ele>
        <time>2013-03-02T18:39:05Z</time>
      </trkpt>
      <trkpt lat="44.05593" lon="1.73995">
        <ele>425</ele>
        <time>2013-03-02T18:39:07Z</time>
      </trkpt>
      <trkpt lat="44.05594" lon="1.74003">
        <ele>425</ele>
        <time>2013-03-02T18:39:09Z</time>
      </trkpt>
      <trkpt lat="44.05595" lon="1.74011">
        <ele>425</ele>
        <time>2013-03-02T18:39:11Z</time>
      </trkpt>
      <trkpt lat="44.05596" lon="1.74019">
        <ele>425</ele>
        <time>2013-03-02T18:39:13Z</time>
      </trkpt>
      <trkpt lat="44.05598" lon="1.74027">
        <ele>425</ele>
        <time>2013-03-02T18:39:15Z</time>
      </trkpt>
      <trkpt lat="44.05599" lon="1.74034">
        <ele>425</ele>
        <time>2013-03-02T18:39:17Z</time>
      </trkpt>
      <trkpt lat="44.056" lon="1.74042">
        <ele>425</ele>
        <time>2013-03-02T18:39:19Z</time>
      </trkpt>
      <trkpt lat="44.05601" lon="1.7405">
        <ele>425</ele>
        <time>2013-03-02T18:39:21Z</time>
      </trkpt>
      <trkpt lat="44.05603" lon="1.74058">
        <ele>425</ele>
        <time>2013-03-02T18:39:23Z</time>
      </trkpt>
      <trkpt lat="44.05604" lon="1.74066">
        <ele>426</ele>
        <time>2013-03-02T18:39:25Z</time>
      </trkpt>
      <trkpt lat="44.05605" lon="1.74073">
        <ele>426</ele>
        <time>2013-03-02T18:39:27Z</time>
      </trkpt>
      <trkpt lat="44.05606" lon="1.74081">
        <ele>427</ele>
        <time>2013-03-02T18:39:29Z</time>
      </trkpt>
      <trkpt lat="44.05606" lon="1.74088">
        <ele>427</ele>
        <time>2013-03-02T18:39:31Z</time>
      </trkpt>
      <trkpt lat="44.05606" lon="1.74095">
        <ele>428</ele>
        <time>2013-03-02T18:39:33Z</time>
      </trkpt>
      <trkpt lat="44.05606" lon="1.74102">
        <ele>428</ele>
        <time>2013-03-02T18:39:35Z</time>
      </trkpt>
      <trkpt lat="44.05608" lon="1.7411">
        <ele>428</ele>
        <time>2013-03-02T18:39:37Z</time>
      </trkpt>
      <trkpt lat="44.0561" lon="1.74117">
        <ele>429</ele>
        <time>2013-03-02T18:39:39Z</time>
      </trkpt>
      <trkpt lat="44.0561" lon="1.74124">
        <ele>429</ele>
        <time>2013-03-02T18:39:41Z</time>
      </trkpt>
      <trkpt lat="44.05612" lon="1.74131">
        <ele>430</ele>
        <time>2013-03-02T18:39:43Z</time>
      </trkpt>
      <trkpt lat="44.05613" lon="1.74138">
        <ele>430</ele>
        <time>2013-03-02T18:39:45Z</time>
      </trkpt>
      <trkpt lat="44.05615" lon="1.74146">
        <ele>430</ele>
        <time>2013-03-02T18:39:47Z</time>
      </trkpt>
      <trkpt lat="44.05618" lon="1.74154">
        <ele>431</ele>
        <time>2013-03-02T18:39:49Z</time>
      </trkpt>
      <trkpt lat="44.05621" lon="1.74161">
        <ele>431</ele>
        <time>2013-03-02T18:39:51Z</time>
      </trkpt>
      <trkpt lat="44.05625" lon="1.74168">
        <ele>431</ele>
        <time>2013-03-02T18:39:53Z</time>
      </trkpt>
      <trkpt lat="44.05629" lon="1.74174">
        <ele>431</ele>
        <time>2013-03-02T18:39:55Z</time>
      </trkpt>
      <trkpt lat="44.05632" lon="1.74179">
        <ele>431</ele>
        <time>2013-03-02T18:39:57Z</time>
      </trkpt>
      <trkpt lat="44.05636" lon="1.74185">
        <ele>431</ele>
        <time>2013-03-02T18:39:59Z</time>
      </trkpt>
      <trkpt lat="44.0564" lon="1.74189">
        <ele>431</ele>
        <time>2013-03-02T18:40:01Z</time>
      </trkpt>
      <trkpt lat="44.05645" lon="1.74194">
        <ele>431</ele>
        <time>2013-03-02T18:40:03Z</time>
      </trkpt>
      <trkpt lat="44.05649" lon="1.74199">
        <ele>431</ele>
        <time>2013-03-02T18:40:05Z</time>
      </trkpt>
      <trkpt lat="44.05654" lon="1.74202">
        <ele>431</ele>
        <time>2013-03-02T18:40:07Z</time>
      </trkpt>
      <trkpt lat="44.05659" lon="1.74205">
        <ele>431</ele>
        <time>2013-03-02T18:40:09Z</time>
      </trkpt>
      <trkpt lat="44.05664" lon="1.74207">
        <ele>431</ele>
        <time>2013-03-02T18:40:11Z</time>
      </trkpt>
      <trkpt lat="44.05669" lon="1.7421">
        <ele>431</ele>
        <time>2013-03-02T18:40:13Z</time>
      </trkpt>
      <trkpt lat="44.05673" lon="1.74214">
        <ele>431</ele>
        <time>2013-03-02T18:40:15Z</time>
      </trkpt>
      <trkpt lat="44.05675" lon="1.7422">
        <ele>431</ele>
        <time>2013-03-02T18:40:17Z</time>
      </trkpt>
      <trkpt lat="44.05675" lon="1.74226">
        <ele>431</ele>
        <time>2013-03-02T18:40:19Z</time>
      </trkpt>
      <trkpt lat="44.05674" lon="1.74232">
        <ele>431</ele>
        <time>2013-03-02T18:40:21Z</time>
      </trkpt>
      <trkpt lat="44.0567" lon="1.74236">
        <ele>432</ele>
        <time>2013-03-02T18:40:23Z</time>
      </trkpt>
      <trkpt lat="44.05666" lon="1.74239">
        <ele>433</ele>
        <time>2013-03-02T18:40:25Z</time>
      </trkpt>
      <trkpt lat="44.0566" lon="1.74241">
        <ele>433</ele>
        <time>2013-03-02T18:40:27Z</time>
      </trkpt>
      <trkpt lat="44.05655" lon="1.74242">
        <ele>434</ele>
        <time>2013-03-02T18:40:29Z</time>
      </trkpt>
      <trkpt lat="44.05649" lon="1.74243">
        <ele>434</ele>
        <time>2013-03-02T18:40:31Z</time>
      </trkpt>
      <trkpt lat="44.05644" lon="1.74245">
        <ele>435</ele>
        <time>2013-03-02T18:40:33Z</time>
      </trkpt>
      <trkpt lat="44.05639" lon="1.74248">
        <ele>435</ele>
        <time>2013-03-02T18:40:35Z</time>
      </trkpt>
      <trkpt lat="44.05634" lon="1.74251">
        <ele>435</ele>
        <time>2013-03-02T18:40:37Z</time>
      </trkpt>
      <trkpt lat="44.05629" lon="1.74255">
        <ele>435</ele>
        <time>2013-03-02T18:40:39Z</time>
      </trkpt>
      <trkpt lat="44.05624" lon="1.74258">
        <ele>435</ele>
        <time>2013-03-02T18:40:41Z</time>
      </trkpt>
      <trkpt lat="44.0562" lon="1.74261">
        <ele>436</ele>
        <time>2013-03-02T18:40:43Z</time>
      </trkpt>
      <trkpt lat="44.05615" lon="1.74265">
        <ele>436</ele>
        <time>2013-03-02T18:40:45Z</time>
      </trkpt>
      <trkpt lat="44.05611" lon="1.74268">
        <ele>436</ele>
        <time>2013-03-02T18:40:47Z</time>
      </trkpt>
      <trkpt lat="44.05606" lon="1.74271">
        <ele>436</ele>
        <time>2013-03-02T18:40:49Z</time>
      </trkpt>
      <trkpt lat="44.056" lon="1.74275">
        <ele>436</ele>
        <time>2013-03-02T18:40:51Z</time>
      </trkpt>
      <trkpt lat="44.05593" lon="1.74278">
        <ele>436</ele>
        <time>2013-03-02T18:40:53Z</time>
      </trkpt>
      <trkpt lat="44.05585" lon="1.74281">
        <ele>436</ele>
        <time>2013-03-02T18:40:55Z</time>
      </trkpt>
      <trkpt lat="44.05576" lon="1.74285">
        <ele>436</ele>
        <time>2013-03-02T18:40:57Z</time>
      </trkpt>
      <trkpt lat="44.05566" lon="1.74287">
        <ele>436</ele>
        <time>2013-03-02T18:40:59Z</time>
      </trkpt>
      <trkpt lat="44.05554" lon="1.74292">
        <ele>436</ele>
        <time>2013-03-02T18:41:01Z</time>
      </trkpt>
      <trkpt lat="44.05543" lon="1.74298">
        <ele>436</ele>
        <time>2013-03-02T18:41:03Z</time>
      </trkpt>
      <trkpt lat="44.05531" lon="1.74306">
        <ele>437</ele>
        <time>2013-03-02T18:41:05Z</time>
      </trkpt>
      <trkpt lat="44.0552" lon="1.74316">
        <ele>437</ele>
        <time>2013-03-02T18:41:07Z</time>
      </trkpt>
      <trkpt lat="44.05508" lon="1.74325">
        <ele>437</ele>
        <time>2013-03-02T18:41:09Z</time>
      </trkpt>
      <trkpt lat="44.05497" lon="1.74335">
        <ele>437</ele>
        <time>2013-03-02T18:41:11Z</time>
      </trkpt>
      <trkpt lat="44.05485" lon="1.74346">
        <ele>437</ele>
        <time>2013-03-02T18:41:13Z</time>
      </trkpt>
      <trkpt lat="44.05476" lon="1.74363">
        <ele>435</ele>
        <time>2013-03-02T18:41:15Z</time>
      </trkpt>
      <trkpt lat="44.05474" lon="1.74383">
        <ele>434</ele>
        <time>2013-03-02T18:41:17Z</time>
      </trkpt>
      <trkpt lat="44.05476" lon="1.74399">
        <ele>434</ele>
        <time>2013-03-02T18:41:19Z</time>
      </trkpt>
      <trkpt lat="44.05476" lon="1.74413">
        <ele>434</ele>
        <time>2013-03-02T18:41:21Z</time>
      </trkpt>
      <trkpt lat="44.05474" lon="1.74424">
        <ele>434</ele>
        <time>2013-03-02T18:41:23Z</time>
      </trkpt>
      <trkpt lat="44.05472" lon="1.74434">
        <ele>434</ele>
        <time>2013-03-02T18:41:25Z</time>
      </trkpt>
      <trkpt lat="44.0547" lon="1.74444">
        <ele>434</ele>
        <time>2013-03-02T18:41:27Z</time>
      </trkpt>
      <trkpt lat="44.05468" lon="1.74454">
        <ele>434</ele>
        <time>2013-03-02T18:41:29Z</time>
      </trkpt>
      <trkpt lat="44.05467" lon="1.74463">
        <ele>434</ele>
        <time>2013-03-02T18:41:31Z</time>
      </trkpt>
      <trkpt lat="44.05466" lon="1.7447">
        <ele>434</ele>
        <time>2013-03-02T18:41:33Z</time>
      </trkpt>
      <trkpt lat="44.05465" lon="1.74478">
        <ele>434</ele>
        <time>2013-03-02T18:41:35Z</time>
      </trkpt>
      <trkpt lat="44.05463" lon="1.74484">
        <ele>434</ele>
        <time>2013-03-02T18:41:37Z</time>
      </trkpt>
      <trkpt lat="44.05462" lon="1.7449">
        <ele>434</ele>
        <time>2013-03-02T18:41:39Z</time>
      </trkpt>
      <trkpt lat="44.0546" lon="1.74497">
        <ele>434</ele>
        <time>2013-03-02T18:41:41Z</time>
      </trkpt>
      <trkpt lat="44.05458" lon="1.74503">
        <ele>434</ele>
        <time>2013-03-02T18:41:43Z</time>
      </trkpt>
      <trkpt lat="44.05456" lon="1.74508">
        <ele>434</ele>
        <time>2013-03-02T18:41:45Z</time>
      </trkpt>
      <trkpt lat="44.05454" lon="1.74514">
        <ele>434</ele>
        <time>2013-03-02T18:41:47Z</time>
      </trkpt>
      <trkpt lat="44.05452" lon="1.74519">
        <ele>435</ele>
        <time>2013-03-02T18:41:49Z</time>
      </trkpt>
      <trkpt lat="44.0545" lon="1.74524">
        <ele>436</ele>
        <time>2013-03-02T18:41:51Z</time>
      </trkpt>
      <trkpt lat="44.05447" lon="1.74529">
        <ele>437</ele>
        <time>2013-03-02T18:41:53Z</time>
      </trkpt>
      <trkpt lat="44.05444" lon="1.74534">
        <ele>437</ele>
        <time>2013-03-02T18:41:55Z</time>
      </trkpt>
      <trkpt lat="44.05442" lon="1.74539">
        <ele>438</ele>
        <time>2013-03-02T18:41:57Z</time>
      </trkpt>
      <trkpt lat="44.05439" lon="1.74543">
        <ele>438</ele>
        <time>2013-03-02T18:41:59Z</time>
      </trkpt>
      <trkpt lat="44.05435" lon="1.74546">
        <ele>438</ele>
        <time>2013-03-02T18:42:01Z</time>
      </trkpt>
      <trkpt lat="44.05431" lon="1.74547">
        <ele>439</ele>
        <time>2013-03-02T18:42:03Z</time>
      </trkpt>
      <trkpt lat="44.05426" lon="1.74547">
        <ele>439</ele>
        <time>2013-03-02T18:42:05Z</time>
      </trkpt>
      <trkpt lat="44.05422" lon="1.74547">
        <ele>440</ele>
        <time>2013-03-02T18:42:07Z</time>
      </trkpt>
      <trkpt lat="44.05417" lon="1.74546">
        <ele>440</ele>
        <time>2013-03-02T18:42:09Z</time>
      </trkpt>
      <trkpt lat="44.05412" lon="1.74547">
        <ele>440</ele>
        <time>2013-03-02T18:42:11Z</time>
      </trkpt>
      <trkpt lat="44.05407" lon="1.74549">
        <ele>440</ele>
        <time>2013-03-02T18:42:13Z</time>
      </trkpt>
      <trkpt lat="44.05403" lon="1.74553">
        <ele>441</ele>
        <time>2013-03-02T18:42:15Z</time>
      </trkpt>
      <trkpt lat="44.05399" lon="1.74557">
        <ele>441</ele>
        <time>2013-03-02T18:42:17Z</time>
      </trkpt>
      <trkpt lat="44.05396" lon="1.74561">
        <ele>441</ele>
        <time>2013-03-02T18:42:19Z</time>
      </trkpt>
      <trkpt lat="44.05392" lon="1.74565">
        <ele>442</ele>
        <time>2013-03-02T18:42:21Z</time>
      </trkpt>
      <trkpt lat="44.05388" lon="1.74569">
        <ele>442</ele>
        <time>2013-03-02T18:42:23Z</time>
      </trkpt>
      <trkpt lat="44.05385" lon="1.74573">
        <ele>443</ele>
        <time>2013-03-02T18:42:25Z</time>
      </trkpt>
      <trkpt lat="44.05381" lon="1.74577">
        <ele>443</ele>
        <time>2013-03-02T18:42:27Z</time>
      </trkpt>
      <trkpt lat="44.05378" lon="1.74581">
        <ele>443</ele>
        <time>2013-03-02T18:42:29Z</time>
      </trkpt>
      <trkpt lat="44.05376" lon="1.74585">
        <ele>443</ele>
        <time>2013-03-02T18:42:31Z</time>
      </trkpt>
      <trkpt lat="44.05374" lon="1.7459">
        <ele>443</ele>
        <time>2013-03-02T18:42:33Z</time>
      </trkpt>
      <trkpt lat="44.05371" lon="1.74595">
        <ele>444</ele>
        <time>2013-03-02T18:42:35Z</time>
      </trkpt>
      <trkpt lat="44.05369" lon="1.746">
        <ele>445</ele>
        <time>2013-03-02T18:42:37Z</time>
      </trkpt>
      <trkpt lat="44.05366" lon="1.74604">
        <ele>445</ele>
        <time>2013-03-02T18:42:39Z</time>
      </trkpt>
      <trkpt lat="44.05363" lon="1.74607">
        <ele>446</ele>
        <time>2013-03-02T18:42:41Z</time>
      </trkpt>
      <trkpt lat="44.05361" lon="1.74611">
        <ele>446</ele>
        <time>2013-03-02T18:42:43Z</time>
      </trkpt>
      <trkpt lat="44.05357" lon="1.74614">
        <ele>447</ele>
        <time>2013-03-02T18:42:45Z</time>
      </trkpt>
      <trkpt lat="44.05354" lon="1.74616">
        <ele>448</ele>
        <time>2013-03-02T18:42:47Z</time>
      </trkpt>
      <trkpt lat="44.0535" lon="1.74616">
        <ele>448</ele>
        <time>2013-03-02T18:42:49Z</time>
      </trkpt>
      <trkpt lat="44.05346" lon="1.74616">
        <ele>449</ele>
        <time>2013-03-02T18:42:51Z</time>
      </trkpt>
      <trkpt lat="44.05342" lon="1.74615">
        <ele>449</ele>
        <time>2013-03-02T18:42:53Z</time>
      </trkpt>
      <trkpt lat="44.05339" lon="1.74616">
        <ele>449</ele>
        <time>2013-03-02T18:42:55Z</time>
      </trkpt>
      <trkpt lat="44.05335" lon="1.74617">
        <ele>449</ele>
        <time>2013-03-02T18:42:57Z</time>
      </trkpt>
      <trkpt lat="44.05333" lon="1.7462">
        <ele>449</ele>
        <time>2013-03-02T18:42:59Z</time>
      </trkpt>
      <trkpt lat="44.05331" lon="1.74623">
        <ele>449</ele>
        <time>2013-03-02T18:43:01Z</time>
      </trkpt>
      <trkpt lat="44.05331" lon="1.74624">
        <ele>449</ele>
        <time>2013-03-02T18:43:03Z</time>
      </trkpt>
    </trkseg>
  </trk>
</gpx>